<?xml version='1.0' encoding='UTF-8'?><gpx version="1.1" creator="JPX - https://github.com/jenetics/jpx" xmlns="http://www.topografix.com/GPX/1/1"><trk><trkseg><trkpt lat="44.318695" lon="9.3166617"><ele>8.0</ele><time>2026-03-28T14:46:33.012Z</time></trkpt><trkpt lat="44.3186067" lon="9.3166883"><ele>8.0</ele><time>2026-03-28T14:46:38.012Z</time></trkpt><trkpt lat="44.3185117" lon="9.3166283"><ele>8.0</ele><time>2026-03-28T14:46:40.012Z</time></trkpt><trkpt lat="44.3184367" lon="9.316545"><ele>8.0</ele><time>2026-03-28T14:46:42.011Z</time></trkpt><trkpt lat="44.3183483" lon="9.31647"><ele>8.0</ele><time>2026-03-28T14:46:44.012Z</time></trkpt><trkpt lat="44.3182433" lon="9.3164917"><ele>7.999999999999999</ele><time>2026-03-28T14:46:46.012Z</time></trkpt><trkpt lat="44.3181617" lon="9.3166183"><ele>8.0</ele><time>2026-03-28T14:46:48.012Z</time></trkpt><trkpt lat="44.31812" lon="9.31669"><ele>8.0</ele><time>2026-03-28T14:46:49.012Z</time></trkpt><trkpt lat="44.31808" lon="9.3167667"><ele>8.0</ele><time>2026-03-28T14:46:50.012Z</time></trkpt><trkpt lat="44.3180317" lon="9.3168533"><ele>7.999999999999999</ele><time>2026-03-28T14:46:51.012Z</time></trkpt><trkpt lat="44.317985" lon="9.316945"><ele>8.0</ele><time>2026-03-28T14:46:52.012Z</time></trkpt><trkpt lat="44.317955" lon="9.3170367"><ele>7.999999999999999</ele><time>2026-03-28T14:46:53.012Z</time></trkpt><trkpt lat="44.31792" lon="9.3171133"><ele>8.0</ele><time>2026-03-28T14:46:54.012Z</time></trkpt><trkpt lat="44.3178783" lon="9.3171833"><ele>8.0</ele><time>2026-03-28T14:46:55.012Z</time></trkpt><trkpt lat="44.3178067" lon="9.317305"><ele>8.0</ele><time>2026-03-28T14:46:57.011Z</time></trkpt><trkpt lat="44.3177517" lon="9.3173967"><ele>7.999999999999999</ele><time>2026-03-28T14:46:59.012Z</time></trkpt><trkpt lat="44.3177317" lon="9.3174917"><ele>8.0</ele><time>2026-03-28T14:47:33.011Z</time></trkpt><trkpt lat="44.3176933" lon="9.3175867"><ele>7.666666666666666</ele><time>2026-03-28T14:47:35.012Z</time></trkpt><trkpt lat="44.31765" lon="9.31772"><ele>7.333333333333333</ele><time>2026-03-28T14:47:37.012Z</time></trkpt><trkpt lat="44.3176233" lon="9.3178017"><ele>7.0</ele><time>2026-03-28T14:47:38.012Z</time></trkpt><trkpt lat="44.3175883" lon="9.3178883"><ele>6.666666666666666</ele><time>2026-03-28T14:47:39.011Z</time></trkpt><trkpt lat="44.317545" lon="9.3179817"><ele>6.333333333333333</ele><time>2026-03-28T14:47:40.012Z</time></trkpt><trkpt lat="44.3175033" lon="9.3180783"><ele>6.0</ele><time>2026-03-28T14:47:41.012Z</time></trkpt><trkpt lat="44.317455" lon="9.3181767"><ele>6.0</ele><time>2026-03-28T14:47:42.012Z</time></trkpt><trkpt lat="44.31741" lon="9.3182883"><ele>6.0</ele><time>2026-03-28T14:47:43.011Z</time></trkpt><trkpt lat="44.3173633" lon="9.3183983"><ele>6.0</ele><time>2026-03-28T14:47:44.011Z</time></trkpt><trkpt lat="44.3173167" lon="9.3185117"><ele>6.0</ele><time>2026-03-28T14:47:45.012Z</time></trkpt><trkpt lat="44.31726" lon="9.3186167"><ele>6.0</ele><time>2026-03-28T14:47:46.011Z</time></trkpt><trkpt lat="44.3172067" lon="9.3187267"><ele>5.666666666666667</ele><time>2026-03-28T14:47:47.012Z</time></trkpt><trkpt lat="44.3171517" lon="9.318835"><ele>5.333333333333333</ele><time>2026-03-28T14:47:48.012Z</time></trkpt><trkpt lat="44.3171017" lon="9.318945"><ele>5.0</ele><time>2026-03-28T14:47:49.012Z</time></trkpt><trkpt lat="44.3170533" lon="9.3190483"><ele>4.666666666666666</ele><time>2026-03-28T14:47:50.012Z</time></trkpt><trkpt lat="44.3170083" lon="9.3191483"><ele>4.333333333333333</ele><time>2026-03-28T14:47:51.011Z</time></trkpt><trkpt lat="44.316965" lon="9.319255"><ele>4.0</ele><time>2026-03-28T14:47:52.011Z</time></trkpt><trkpt lat="44.3169217" lon="9.31936"><ele>3.9999999999999996</ele><time>2026-03-28T14:47:53.012Z</time></trkpt><trkpt lat="44.3168833" lon="9.3194667"><ele>4.0</ele><time>2026-03-28T14:47:54.012Z</time></trkpt><trkpt lat="44.3168417" lon="9.3195667"><ele>4.0</ele><time>2026-03-28T14:47:55.012Z</time></trkpt><trkpt lat="44.3168017" lon="9.3196633"><ele>4.0</ele><time>2026-03-28T14:47:56.012Z</time></trkpt><trkpt lat="44.316755" lon="9.3197583"><ele>3.9999999999999996</ele><time>2026-03-28T14:47:57.012Z</time></trkpt><trkpt lat="44.31671" lon="9.3198433"><ele>4.0</ele><time>2026-03-28T14:47:58.012Z</time></trkpt><trkpt lat="44.3166633" lon="9.3199283"><ele>4.333333333333333</ele><time>2026-03-28T14:47:59.012Z</time></trkpt><trkpt lat="44.3166133" lon="9.3200233"><ele>4.666666666666666</ele><time>2026-03-28T14:48:00.012Z</time></trkpt><trkpt lat="44.31657" lon="9.3201267"><ele>5.0</ele><time>2026-03-28T14:48:01.012Z</time></trkpt><trkpt lat="44.3165267" lon="9.32023"><ele>5.333333333333333</ele><time>2026-03-28T14:48:02.011Z</time></trkpt><trkpt lat="44.3164867" lon="9.3203417"><ele>5.666666666666667</ele><time>2026-03-28T14:48:03.012Z</time></trkpt><trkpt lat="44.316435" lon="9.3204517"><ele>6.0</ele><time>2026-03-28T14:48:04.012Z</time></trkpt><trkpt lat="44.31638" lon="9.3205583"><ele>6.0</ele><time>2026-03-28T14:48:05.012Z</time></trkpt><trkpt lat="44.3163283" lon="9.320675"><ele>6.0</ele><time>2026-03-28T14:48:06.012Z</time></trkpt><trkpt lat="44.3162683" lon="9.3207883"><ele>6.0</ele><time>2026-03-28T14:48:07.011Z</time></trkpt><trkpt lat="44.3162" lon="9.3209067"><ele>6.0</ele><time>2026-03-28T14:48:08.012Z</time></trkpt><trkpt lat="44.3161383" lon="9.3210333"><ele>6.0</ele><time>2026-03-28T14:48:09.012Z</time></trkpt><trkpt lat="44.3160817" lon="9.3211683"><ele>6.0</ele><time>2026-03-28T14:48:10.012Z</time></trkpt><trkpt lat="44.3160167" lon="9.3213033"><ele>6.0</ele><time>2026-03-28T14:48:11.011Z</time></trkpt><trkpt lat="44.3159617" lon="9.3214367"><ele>6.0</ele><time>2026-03-28T14:48:12.012Z</time></trkpt><trkpt lat="44.315915" lon="9.3215733"><ele>6.0</ele><time>2026-03-28T14:48:13.012Z</time></trkpt><trkpt lat="44.31587" lon="9.3217017"><ele>6.0</ele><time>2026-03-28T14:48:14.012Z</time></trkpt><trkpt lat="44.3158167" lon="9.32182"><ele>6.0</ele><time>2026-03-28T14:48:15.011Z</time></trkpt><trkpt lat="44.3157717" lon="9.321945"><ele>6.0</ele><time>2026-03-28T14:48:16.012Z</time></trkpt><trkpt lat="44.315725" lon="9.3220567"><ele>6.0</ele><time>2026-03-28T14:48:17.012Z</time></trkpt><trkpt lat="44.3156833" lon="9.3221667"><ele>6.0</ele><time>2026-03-28T14:48:18.012Z</time></trkpt><trkpt lat="44.31564" lon="9.322265"><ele>6.0</ele><time>2026-03-28T14:48:19.012Z</time></trkpt><trkpt lat="44.3155867" lon="9.3223567"><ele>6.0</ele><time>2026-03-28T14:48:20.011Z</time></trkpt><trkpt lat="44.315535" lon="9.3224483"><ele>6.0</ele><time>2026-03-28T14:48:21.012Z</time></trkpt><trkpt lat="44.31549" lon="9.3225383"><ele>6.0</ele><time>2026-03-28T14:48:22.012Z</time></trkpt><trkpt lat="44.315445" lon="9.322625"><ele>6.0</ele><time>2026-03-28T14:48:23.012Z</time></trkpt><trkpt lat="44.3154017" lon="9.3227133"><ele>6.0</ele><time>2026-03-28T14:48:24.012Z</time></trkpt><trkpt lat="44.3153567" lon="9.3227967"><ele>6.0</ele><time>2026-03-28T14:48:25.011Z</time></trkpt><trkpt lat="44.31531" lon="9.3228767"><ele>6.0</ele><time>2026-03-28T14:48:26.012Z</time></trkpt><trkpt lat="44.3152683" lon="9.3229733"><ele>5.833333333333333</ele><time>2026-03-28T14:48:27.012Z</time></trkpt><trkpt lat="44.3152217" lon="9.3230733"><ele>5.666666666666667</ele><time>2026-03-28T14:48:28.012Z</time></trkpt><trkpt lat="44.3151733" lon="9.3231717"><ele>5.5</ele><time>2026-03-28T14:48:29.012Z</time></trkpt><trkpt lat="44.3151317" lon="9.323275"><ele>5.333333333333334</ele><time>2026-03-28T14:48:30.012Z</time></trkpt><trkpt lat="44.3150867" lon="9.3233767"><ele>5.166666666666667</ele><time>2026-03-28T14:48:31.012Z</time></trkpt><trkpt lat="44.3150367" lon="9.3234867"><ele>5.0</ele><time>2026-03-28T14:48:32.012Z</time></trkpt><trkpt lat="44.3149883" lon="9.3235933"><ele>5.0</ele><time>2026-03-28T14:48:33.012Z</time></trkpt><trkpt lat="44.3149483" lon="9.3237133"><ele>5.0</ele><time>2026-03-28T14:48:34.012Z</time></trkpt><trkpt lat="44.3149067" lon="9.323825"><ele>5.0</ele><time>2026-03-28T14:48:35.012Z</time></trkpt><trkpt lat="44.3148767" lon="9.3239433"><ele>5.0</ele><time>2026-03-28T14:48:36.012Z</time></trkpt><trkpt lat="44.3148383" lon="9.3240533"><ele>5.0</ele><time>2026-03-28T14:48:37.012Z</time></trkpt><trkpt lat="44.3148" lon="9.3241683"><ele>5.0</ele><time>2026-03-28T14:48:38.011Z</time></trkpt><trkpt lat="44.31476" lon="9.3242767"><ele>5.0</ele><time>2026-03-28T14:48:39.012Z</time></trkpt><trkpt lat="44.3147167" lon="9.32439"><ele>5.0</ele><time>2026-03-28T14:48:40.012Z</time></trkpt><trkpt lat="44.3146683" lon="9.3245033"><ele>5.0</ele><time>2026-03-28T14:48:41.011Z</time></trkpt><trkpt lat="44.31461" lon="9.324625"><ele>5.0</ele><time>2026-03-28T14:48:42.012Z</time></trkpt><trkpt lat="44.3145617" lon="9.324745"><ele>5.0</ele><time>2026-03-28T14:48:43.012Z</time></trkpt><trkpt lat="44.3145117" lon="9.3248567"><ele>5.0</ele><time>2026-03-28T14:48:44.012Z</time></trkpt><trkpt lat="44.3144633" lon="9.3249683"><ele>5.0</ele><time>2026-03-28T14:48:45.012Z</time></trkpt><trkpt lat="44.3144117" lon="9.3250783"><ele>5.0</ele><time>2026-03-28T14:48:46.012Z</time></trkpt><trkpt lat="44.3143633" lon="9.32519"><ele>5.0</ele><time>2026-03-28T14:48:47.012Z</time></trkpt><trkpt lat="44.314315" lon="9.3253033"><ele>5.0</ele><time>2026-03-28T14:48:48.012Z</time></trkpt><trkpt lat="44.31427" lon="9.3254117"><ele>5.0</ele><time>2026-03-28T14:48:49.012Z</time></trkpt><trkpt lat="44.314225" lon="9.3255283"><ele>5.0</ele><time>2026-03-28T14:48:50.012Z</time></trkpt><trkpt lat="44.314175" lon="9.3256283"><ele>5.0</ele><time>2026-03-28T14:48:51.011Z</time></trkpt><trkpt lat="44.3141333" lon="9.3257333"><ele>5.0</ele><time>2026-03-28T14:48:52.012Z</time></trkpt><trkpt lat="44.3140917" lon="9.3258333"><ele>5.0</ele><time>2026-03-28T14:48:53.012Z</time></trkpt><trkpt lat="44.3140433" lon="9.3259267"><ele>5.0</ele><time>2026-03-28T14:48:54.012Z</time></trkpt><trkpt lat="44.3139967" lon="9.3260267"><ele>5.0</ele><time>2026-03-28T14:48:55.012Z</time></trkpt><trkpt lat="44.3139467" lon="9.32613"><ele>5.0</ele><time>2026-03-28T14:48:56.012Z</time></trkpt><trkpt lat="44.3138967" lon="9.3262383"><ele>5.0</ele><time>2026-03-28T14:48:57.012Z</time></trkpt><trkpt lat="44.3138417" lon="9.3263467"><ele>5.0</ele><time>2026-03-28T14:48:58.012Z</time></trkpt><trkpt lat="44.3137833" lon="9.32647"><ele>5.0</ele><time>2026-03-28T14:48:59.012Z</time></trkpt><trkpt lat="44.3137233" lon="9.3265867"><ele>5.0</ele><time>2026-03-28T14:49:00.012Z</time></trkpt><trkpt lat="44.3136617" lon="9.3267"><ele>5.0</ele><time>2026-03-28T14:49:01.012Z</time></trkpt><trkpt lat="44.3136083" lon="9.3268133"><ele>5.0</ele><time>2026-03-28T14:49:02.012Z</time></trkpt><trkpt lat="44.3135567" lon="9.3269367"><ele>5.0</ele><time>2026-03-28T14:49:03.012Z</time></trkpt><trkpt lat="44.3135" lon="9.327045"><ele>5.0</ele><time>2026-03-28T14:49:04.012Z</time></trkpt><trkpt lat="44.3134483" lon="9.3271483"><ele>5.0</ele><time>2026-03-28T14:49:05.012Z</time></trkpt><trkpt lat="44.3133967" lon="9.3272417"><ele>5.0</ele><time>2026-03-28T14:49:06.012Z</time></trkpt><trkpt lat="44.3133433" lon="9.3273283"><ele>5.0</ele><time>2026-03-28T14:49:07.012Z</time></trkpt><trkpt lat="44.3133017" lon="9.3274133"><ele>5.0</ele><time>2026-03-28T14:49:08.011Z</time></trkpt><trkpt lat="44.3132633" lon="9.327495"><ele>5.0</ele><time>2026-03-28T14:49:09.012Z</time></trkpt><trkpt lat="44.3132233" lon="9.3275667"><ele>5.0</ele><time>2026-03-28T14:49:10.012Z</time></trkpt><trkpt lat="44.3131833" lon="9.3276367"><ele>5.0</ele><time>2026-03-28T14:49:11.012Z</time></trkpt><trkpt lat="44.3131117" lon="9.327765"><ele>5.0</ele><time>2026-03-28T14:49:13.011Z</time></trkpt><trkpt lat="44.313055" lon="9.3279283"><ele>5.0</ele><time>2026-03-28T14:49:15.012Z</time></trkpt><trkpt lat="44.31302" lon="9.32803"><ele>5.0</ele><time>2026-03-28T14:49:16.012Z</time></trkpt><trkpt lat="44.3129733" lon="9.3281517"><ele>4.8</ele><time>2026-03-28T14:49:17.012Z</time></trkpt><trkpt lat="44.3129217" lon="9.3282717"><ele>4.6</ele><time>2026-03-28T14:49:18.012Z</time></trkpt><trkpt lat="44.31287" lon="9.3283967"><ele>4.4</ele><time>2026-03-28T14:49:19.012Z</time></trkpt><trkpt lat="44.3128317" lon="9.3285383"><ele>4.2</ele><time>2026-03-28T14:49:20.012Z</time></trkpt><trkpt lat="44.312795" lon="9.3286733"><ele>4.0</ele><time>2026-03-28T14:49:21.012Z</time></trkpt><trkpt lat="44.3127667" lon="9.3288167"><ele>3.8000000000000003</ele><time>2026-03-28T14:49:22.012Z</time></trkpt><trkpt lat="44.31274" lon="9.3289517"><ele>3.6000000000000005</ele><time>2026-03-28T14:49:23.011Z</time></trkpt><trkpt lat="44.3127183" lon="9.32909"><ele>3.4</ele><time>2026-03-28T14:49:24.012Z</time></trkpt><trkpt lat="44.3126933" lon="9.3292317"><ele>3.2</ele><time>2026-03-28T14:49:25.011Z</time></trkpt><trkpt lat="44.31267" lon="9.329385"><ele>3.0</ele><time>2026-03-28T14:49:26.012Z</time></trkpt><trkpt lat="44.312645" lon="9.3295267"><ele>3.0</ele><time>2026-03-28T14:49:27.012Z</time></trkpt><trkpt lat="44.3126217" lon="9.3296817"><ele>3.0</ele><time>2026-03-28T14:49:28.012Z</time></trkpt><trkpt lat="44.3125917" lon="9.3298317"><ele>3.0</ele><time>2026-03-28T14:49:29.012Z</time></trkpt><trkpt lat="44.31256" lon="9.3299917"><ele>3.0</ele><time>2026-03-28T14:49:30.012Z</time></trkpt><trkpt lat="44.3125233" lon="9.330145"><ele>3.25</ele><time>2026-03-28T14:49:31.012Z</time></trkpt><trkpt lat="44.3124833" lon="9.3303117"><ele>3.5</ele><time>2026-03-28T14:49:32.012Z</time></trkpt><trkpt lat="44.3124533" lon="9.33047"><ele>3.75</ele><time>2026-03-28T14:49:33.012Z</time></trkpt><trkpt lat="44.3124217" lon="9.330615"><ele>4.0</ele><time>2026-03-28T14:49:34.012Z</time></trkpt><trkpt lat="44.3123933" lon="9.3307467"><ele>4.800000000000001</ele><time>2026-03-28T14:49:35.012Z</time></trkpt><trkpt lat="44.3123633" lon="9.330885"><ele>5.6000000000000005</ele><time>2026-03-28T14:49:36.012Z</time></trkpt><trkpt lat="44.3123333" lon="9.33103"><ele>6.4</ele><time>2026-03-28T14:49:37.012Z</time></trkpt><trkpt lat="44.3123067" lon="9.331185"><ele>7.2</ele><time>2026-03-28T14:49:38.012Z</time></trkpt><trkpt lat="44.3122833" lon="9.3313217"><ele>8.0</ele><time>2026-03-28T14:49:39.012Z</time></trkpt><trkpt lat="44.31225" lon="9.3314433"><ele>7.333333333333333</ele><time>2026-03-28T14:49:40.012Z</time></trkpt><trkpt lat="44.3121983" lon="9.3315483"><ele>6.666666666666666</ele><time>2026-03-28T14:49:41.012Z</time></trkpt><trkpt lat="44.3121417" lon="9.331645"><ele>6.0</ele><time>2026-03-28T14:49:42.012Z</time></trkpt><trkpt lat="44.312085" lon="9.331735"><ele>5.333333333333333</ele><time>2026-03-28T14:49:43.012Z</time></trkpt><trkpt lat="44.312035" lon="9.3318383"><ele>4.666666666666666</ele><time>2026-03-28T14:49:44.012Z</time></trkpt><trkpt lat="44.3119917" lon="9.3319417"><ele>4.0</ele><time>2026-03-28T14:49:45.012Z</time></trkpt><trkpt lat="44.3119517" lon="9.3320417"><ele>4.0</ele><time>2026-03-28T14:49:46.012Z</time></trkpt><trkpt lat="44.3119133" lon="9.33214"><ele>4.0</ele><time>2026-03-28T14:49:47.012Z</time></trkpt><trkpt lat="44.311885" lon="9.3322467"><ele>4.0</ele><time>2026-03-28T14:49:48.012Z</time></trkpt><trkpt lat="44.311865" lon="9.332385"><ele>4.0</ele><time>2026-03-28T14:49:50.012Z</time></trkpt><trkpt lat="44.31183" lon="9.33255"><ele>4.0</ele><time>2026-03-28T14:49:59.012Z</time></trkpt><trkpt lat="44.3118317" lon="9.332675"><ele>3.6666666666666665</ele><time>2026-03-28T14:50:19.011Z</time></trkpt><trkpt lat="44.3118867" lon="9.3328167"><ele>3.333333333333333</ele><time>2026-03-28T14:50:21.012Z</time></trkpt><trkpt lat="44.3119267" lon="9.332905"><ele>3.0</ele><time>2026-03-28T14:50:22.012Z</time></trkpt><trkpt lat="44.3119767" lon="9.3329833"><ele>2.6666666666666665</ele><time>2026-03-28T14:50:23.012Z</time></trkpt><trkpt lat="44.31203" lon="9.333065"><ele>2.333333333333333</ele><time>2026-03-28T14:50:24.012Z</time></trkpt><trkpt lat="44.3120867" lon="9.3331317"><ele>2.0</ele><time>2026-03-28T14:50:25.012Z</time></trkpt><trkpt lat="44.3121483" lon="9.3331883"><ele>1.8333333333333333</ele><time>2026-03-28T14:50:26.012Z</time></trkpt><trkpt lat="44.31225" lon="9.3332367"><ele>1.6666666666666665</ele><time>2026-03-28T14:50:28.012Z</time></trkpt><trkpt lat="44.3123283" lon="9.33329"><ele>1.5</ele><time>2026-03-28T14:50:30.012Z</time></trkpt><trkpt lat="44.3124183" lon="9.3333883"><ele>1.3333333333333333</ele><time>2026-03-28T14:50:32.012Z</time></trkpt><trkpt lat="44.3124667" lon="9.33345"><ele>1.1666666666666665</ele><time>2026-03-28T14:50:33.012Z</time></trkpt><trkpt lat="44.3125167" lon="9.3335283"><ele>1.0</ele><time>2026-03-28T14:50:34.012Z</time></trkpt><trkpt lat="44.31256" lon="9.33361"><ele>0.9999999999999999</ele><time>2026-03-28T14:50:35.012Z</time></trkpt><trkpt lat="44.312605" lon="9.3336933"><ele>1.0</ele><time>2026-03-28T14:50:36.012Z</time></trkpt><trkpt lat="44.3126533" lon="9.3337733"><ele>1.0</ele><time>2026-03-28T14:50:37.012Z</time></trkpt><trkpt lat="44.3127" lon="9.3338533"><ele>1.0</ele><time>2026-03-28T14:50:38.011Z</time></trkpt><trkpt lat="44.3127533" lon="9.3339417"><ele>0.9999999999999999</ele><time>2026-03-28T14:50:39.012Z</time></trkpt><trkpt lat="44.3128117" lon="9.3340283"><ele>1.0</ele><time>2026-03-28T14:50:40.012Z</time></trkpt><trkpt lat="44.3129133" lon="9.3341817"><ele>1.3333333333333333</ele><time>2026-03-28T14:50:42.012Z</time></trkpt><trkpt lat="44.3129617" lon="9.3342867"><ele>1.6666666666666665</ele><time>2026-03-28T14:50:43.012Z</time></trkpt><trkpt lat="44.3129967" lon="9.3343717"><ele>2.0</ele><time>2026-03-28T14:50:44.012Z</time></trkpt><trkpt lat="44.3130383" lon="9.3344483"><ele>2.3333333333333335</ele><time>2026-03-28T14:50:45.012Z</time></trkpt><trkpt lat="44.313085" lon="9.3345133"><ele>2.6666666666666665</ele><time>2026-03-28T14:50:46.012Z</time></trkpt><trkpt lat="44.3131583" lon="9.334645"><ele>3.0</ele><time>2026-03-28T14:50:48.012Z</time></trkpt><trkpt lat="44.3132033" lon="9.334745"><ele>3.833333333333333</ele><time>2026-03-28T14:50:50.011Z</time></trkpt><trkpt lat="44.3132517" lon="9.3348167"><ele>4.666666666666666</ele><time>2026-03-28T14:50:52.012Z</time></trkpt><trkpt lat="44.3132883" lon="9.3349567"><ele>5.5</ele><time>2026-03-28T14:50:54.012Z</time></trkpt><trkpt lat="44.3133283" lon="9.3350483"><ele>6.333333333333333</ele><time>2026-03-28T14:50:55.012Z</time></trkpt><trkpt lat="44.3133833" lon="9.33515"><ele>7.166666666666666</ele><time>2026-03-28T14:50:56.011Z</time></trkpt><trkpt lat="44.31344" lon="9.335265"><ele>8.0</ele><time>2026-03-28T14:50:57.012Z</time></trkpt><trkpt lat="44.3135017" lon="9.3353867"><ele>8.0</ele><time>2026-03-28T14:50:58.012Z</time></trkpt><trkpt lat="44.3135717" lon="9.335515"><ele>8.0</ele><time>2026-03-28T14:50:59.012Z</time></trkpt><trkpt lat="44.3136533" lon="9.33565"><ele>8.0</ele><time>2026-03-28T14:51:00.012Z</time></trkpt><trkpt lat="44.31373" lon="9.3357983"><ele>8.0</ele><time>2026-03-28T14:51:01.011Z</time></trkpt><trkpt lat="44.3138017" lon="9.3359483"><ele>8.0</ele><time>2026-03-28T14:51:02.012Z</time></trkpt><trkpt lat="44.3138767" lon="9.3361017"><ele>8.0</ele><time>2026-03-28T14:51:03.012Z</time></trkpt><trkpt lat="44.3139533" lon="9.336265"><ele>8.0</ele><time>2026-03-28T14:51:04.012Z</time></trkpt><trkpt lat="44.3140283" lon="9.336425"><ele>8.0</ele><time>2026-03-28T14:51:05.012Z</time></trkpt><trkpt lat="44.3141083" lon="9.3365883"><ele>7.0</ele><time>2026-03-28T14:51:06.012Z</time></trkpt><trkpt lat="44.3141833" lon="9.3367583"><ele>6.0</ele><time>2026-03-28T14:51:07.012Z</time></trkpt><trkpt lat="44.3142733" lon="9.3369267"><ele>5.0</ele><time>2026-03-28T14:51:08.012Z</time></trkpt><trkpt lat="44.31436" lon="9.3370933"><ele>4.0</ele><time>2026-03-28T14:51:09.012Z</time></trkpt><trkpt lat="44.3144483" lon="9.33726"><ele>3.5</ele><time>2026-03-28T14:51:10.012Z</time></trkpt><trkpt lat="44.31453" lon="9.3374383"><ele>3.0</ele><time>2026-03-28T14:51:11.011Z</time></trkpt><trkpt lat="44.3146067" lon="9.3376017"><ele>2.5</ele><time>2026-03-28T14:51:12.012Z</time></trkpt><trkpt lat="44.31469" lon="9.3377633"><ele>2.0</ele><time>2026-03-28T14:51:13.012Z</time></trkpt><trkpt lat="44.3147767" lon="9.3379267"><ele>1.75</ele><time>2026-03-28T14:51:14.011Z</time></trkpt><trkpt lat="44.314855" lon="9.3380967"><ele>1.5</ele><time>2026-03-28T14:51:15.012Z</time></trkpt><trkpt lat="44.314945" lon="9.3382617"><ele>1.25</ele><time>2026-03-28T14:51:16.012Z</time></trkpt><trkpt lat="44.31503" lon="9.3384283"><ele>1.0</ele><time>2026-03-28T14:51:17.012Z</time></trkpt><trkpt lat="44.3151217" lon="9.3386017"><ele>1.0</ele><time>2026-03-28T14:51:18.011Z</time></trkpt><trkpt lat="44.3152217" lon="9.3387633"><ele>1.0</ele><time>2026-03-28T14:51:19.012Z</time></trkpt><trkpt lat="44.3153283" lon="9.3389267"><ele>1.0</ele><time>2026-03-28T14:51:20.012Z</time></trkpt><trkpt lat="44.3154317" lon="9.3390883"><ele>2.0</ele><time>2026-03-28T14:51:21.012Z</time></trkpt><trkpt lat="44.315545" lon="9.3392467"><ele>3.0</ele><time>2026-03-28T14:51:22.012Z</time></trkpt><trkpt lat="44.3156583" lon="9.3393967"><ele>4.0</ele><time>2026-03-28T14:51:23.011Z</time></trkpt><trkpt lat="44.3157817" lon="9.3395467"><ele>4.0</ele><time>2026-03-28T14:51:24.012Z</time></trkpt><trkpt lat="44.3159167" lon="9.3396933"><ele>4.0</ele><time>2026-03-28T14:51:25.012Z</time></trkpt><trkpt lat="44.31606" lon="9.33983"><ele>4.0</ele><time>2026-03-28T14:51:26.011Z</time></trkpt><trkpt lat="44.3162117" lon="9.3399667"><ele>3.6666666666666665</ele><time>2026-03-28T14:51:27.012Z</time></trkpt><trkpt lat="44.3163617" lon="9.340115"><ele>3.333333333333333</ele><time>2026-03-28T14:51:28.012Z</time></trkpt><trkpt lat="44.31651" lon="9.3402517"><ele>3.0</ele><time>2026-03-28T14:51:29.012Z</time></trkpt><trkpt lat="44.3166533" lon="9.3404083"><ele>3.333333333333333</ele><time>2026-03-28T14:51:30.012Z</time></trkpt><trkpt lat="44.3168" lon="9.3405517"><ele>3.6666666666666665</ele><time>2026-03-28T14:51:31.012Z</time></trkpt><trkpt lat="44.316945" lon="9.3406967"><ele>4.0</ele><time>2026-03-28T14:51:32.012Z</time></trkpt><trkpt lat="44.317085" lon="9.3408417"><ele>4.0</ele><time>2026-03-28T14:51:33.012Z</time></trkpt><trkpt lat="44.3172233" lon="9.34098"><ele>4.0</ele><time>2026-03-28T14:51:34.011Z</time></trkpt><trkpt lat="44.317355" lon="9.3411133"><ele>4.0</ele><time>2026-03-28T14:51:35.012Z</time></trkpt><trkpt lat="44.3174833" lon="9.3412417"><ele>4.25</ele><time>2026-03-28T14:51:36.012Z</time></trkpt><trkpt lat="44.3176067" lon="9.3413533"><ele>4.5</ele><time>2026-03-28T14:51:37.012Z</time></trkpt><trkpt lat="44.317725" lon="9.34146"><ele>4.75</ele><time>2026-03-28T14:51:38.012Z</time></trkpt><trkpt lat="44.3178333" lon="9.3415583"><ele>5.0</ele><time>2026-03-28T14:51:39.012Z</time></trkpt><trkpt lat="44.3179333" lon="9.3416533"><ele>5.0</ele><time>2026-03-28T14:51:40.012Z</time></trkpt><trkpt lat="44.3180267" lon="9.34174"><ele>5.0</ele><time>2026-03-28T14:51:41.011Z</time></trkpt><trkpt lat="44.3181067" lon="9.3418167"><ele>5.0</ele><time>2026-03-28T14:51:42.012Z</time></trkpt><trkpt lat="44.318175" lon="9.34189"><ele>5.0</ele><time>2026-03-28T14:51:43.012Z</time></trkpt><trkpt lat="44.3182283" lon="9.3419383"><ele>5.0</ele><time>2026-03-28T14:51:44.011Z</time></trkpt><trkpt lat="44.3182933" lon="9.3419867"><ele>5.0</ele><time>2026-03-28T14:51:46.012Z</time></trkpt><trkpt lat="44.3183583" lon="9.3420433"><ele>5.4</ele><time>2026-03-28T14:51:48.012Z</time></trkpt><trkpt lat="44.31845" lon="9.34202"><ele>5.8</ele><time>2026-03-28T14:51:51.012Z</time></trkpt><trkpt lat="44.3185133" lon="9.3418917"><ele>6.199999999999999</ele><time>2026-03-28T14:51:53.011Z</time></trkpt><trkpt lat="44.31856" lon="9.3417867"><ele>6.6</ele><time>2026-03-28T14:51:54.012Z</time></trkpt><trkpt lat="44.318605" lon="9.341675"><ele>7.0</ele><time>2026-03-28T14:51:55.012Z</time></trkpt><trkpt lat="44.31865" lon="9.3415567"><ele>7.0</ele><time>2026-03-28T14:51:56.012Z</time></trkpt><trkpt lat="44.318695" lon="9.34143"><ele>6.999999999999999</ele><time>2026-03-28T14:51:57.012Z</time></trkpt><trkpt lat="44.31874" lon="9.3413033"><ele>6.999999999999999</ele><time>2026-03-28T14:51:58.012Z</time></trkpt><trkpt lat="44.31878" lon="9.3411833"><ele>7.0</ele><time>2026-03-28T14:51:59.011Z</time></trkpt><trkpt lat="44.318825" lon="9.34108"><ele>7.0</ele><time>2026-03-28T14:52:00.012Z</time></trkpt><trkpt lat="44.3188683" lon="9.341"><ele>7.199999999999999</ele><time>2026-03-28T14:52:01.012Z</time></trkpt><trkpt lat="44.3189517" lon="9.34088"><ele>7.3999999999999995</ele><time>2026-03-28T14:52:03.012Z</time></trkpt><trkpt lat="44.3190483" lon="9.340795"><ele>7.6000000000000005</ele><time>2026-03-28T14:52:05.012Z</time></trkpt><trkpt lat="44.3191117" lon="9.340785"><ele>7.800000000000001</ele><time>2026-03-28T14:52:06.012Z</time></trkpt><trkpt lat="44.3191917" lon="9.3407983"><ele>8.0</ele><time>2026-03-28T14:52:07.012Z</time></trkpt><trkpt lat="44.319265" lon="9.3408467"><ele>8.0</ele><time>2026-03-28T14:52:08.012Z</time></trkpt><trkpt lat="44.3193333" lon="9.3409117"><ele>8.0</ele><time>2026-03-28T14:52:09.012Z</time></trkpt><trkpt lat="44.31942" lon="9.34099"><ele>8.0</ele><time>2026-03-28T14:52:10.012Z</time></trkpt><trkpt lat="44.3195067" lon="9.3410483"><ele>8.0</ele><time>2026-03-28T14:52:11.011Z</time></trkpt><trkpt lat="44.3195983" lon="9.3410917"><ele>8.0</ele><time>2026-03-28T14:52:12.012Z</time></trkpt><trkpt lat="44.3196883" lon="9.3411067"><ele>8.200000000000001</ele><time>2026-03-28T14:52:13.012Z</time></trkpt><trkpt lat="44.3197917" lon="9.3411483"><ele>8.4</ele><time>2026-03-28T14:52:14.012Z</time></trkpt><trkpt lat="44.3198783" lon="9.3412017"><ele>8.600000000000001</ele><time>2026-03-28T14:52:15.012Z</time></trkpt><trkpt lat="44.3199617" lon="9.3412667"><ele>8.8</ele><time>2026-03-28T14:52:16.012Z</time></trkpt><trkpt lat="44.3200483" lon="9.34132"><ele>9.0</ele><time>2026-03-28T14:52:17.012Z</time></trkpt><trkpt lat="44.3201233" lon="9.3413883"><ele>9.0</ele><time>2026-03-28T14:52:18.011Z</time></trkpt><trkpt lat="44.3202033" lon="9.3414767"><ele>9.0</ele><time>2026-03-28T14:52:19.012Z</time></trkpt><trkpt lat="44.3202733" lon="9.34157"><ele>9.0</ele><time>2026-03-28T14:52:20.012Z</time></trkpt><trkpt lat="44.320375" lon="9.3416817"><ele>9.0</ele><time>2026-03-28T14:52:21.012Z</time></trkpt><trkpt lat="44.3204567" lon="9.341775"><ele>9.0</ele><time>2026-03-28T14:52:22.011Z</time></trkpt><trkpt lat="44.3205483" lon="9.3418917"><ele>9.25</ele><time>2026-03-28T14:52:23.012Z</time></trkpt><trkpt lat="44.3206367" lon="9.3419783"><ele>9.5</ele><time>2026-03-28T14:52:24.012Z</time></trkpt><trkpt lat="44.3207267" lon="9.342055"><ele>9.75</ele><time>2026-03-28T14:52:25.012Z</time></trkpt><trkpt lat="44.3208333" lon="9.34213"><ele>10.0</ele><time>2026-03-28T14:52:26.012Z</time></trkpt><trkpt lat="44.3209467" lon="9.3421983"><ele>8.75</ele><time>2026-03-28T14:52:27.011Z</time></trkpt><trkpt lat="44.3210483" lon="9.3422483"><ele>7.5</ele><time>2026-03-28T14:52:28.012Z</time></trkpt><trkpt lat="44.321145" lon="9.342325"><ele>6.25</ele><time>2026-03-28T14:52:29.012Z</time></trkpt><trkpt lat="44.3212567" lon="9.3424033"><ele>5.0</ele><time>2026-03-28T14:52:30.012Z</time></trkpt><trkpt lat="44.3213533" lon="9.3424833"><ele>5.6</ele><time>2026-03-28T14:52:31.012Z</time></trkpt><trkpt lat="44.32145" lon="9.3425767"><ele>6.2</ele><time>2026-03-28T14:52:32.012Z</time></trkpt><trkpt lat="44.3215417" lon="9.342665"><ele>6.800000000000001</ele><time>2026-03-28T14:52:33.011Z</time></trkpt><trkpt lat="44.3216233" lon="9.34275"><ele>7.4</ele><time>2026-03-28T14:52:34.012Z</time></trkpt><trkpt lat="44.3217033" lon="9.34284"><ele>8.0</ele><time>2026-03-28T14:52:35.012Z</time></trkpt><trkpt lat="44.3217867" lon="9.3429283"><ele>8.0</ele><time>2026-03-28T14:52:36.012Z</time></trkpt><trkpt lat="44.3218733" lon="9.343015"><ele>8.0</ele><time>2026-03-28T14:52:37.012Z</time></trkpt><trkpt lat="44.3219533" lon="9.3431"><ele>8.0</ele><time>2026-03-28T14:52:38.012Z</time></trkpt><trkpt lat="44.3220367" lon="9.3431917"><ele>8.0</ele><time>2026-03-28T14:52:39.012Z</time></trkpt><trkpt lat="44.32212" lon="9.3432633"><ele>8.0</ele><time>2026-03-28T14:52:40.012Z</time></trkpt><trkpt lat="44.3222117" lon="9.3433183"><ele>9.600000000000001</ele><time>2026-03-28T14:52:41.012Z</time></trkpt><trkpt lat="44.3223067" lon="9.3433767"><ele>11.200000000000001</ele><time>2026-03-28T14:52:42.011Z</time></trkpt><trkpt lat="44.322405" lon="9.3434317"><ele>12.8</ele><time>2026-03-28T14:52:43.012Z</time></trkpt><trkpt lat="44.3225083" lon="9.3434817"><ele>14.4</ele><time>2026-03-28T14:52:44.012Z</time></trkpt><trkpt lat="44.32262" lon="9.3435383"><ele>16.0</ele><time>2026-03-28T14:52:45.012Z</time></trkpt><trkpt lat="44.322695" lon="9.3435983"><ele>16.0</ele><time>2026-03-28T14:52:46.012Z</time></trkpt><trkpt lat="44.32277" lon="9.34367"><ele>16.0</ele><time>2026-03-28T14:52:47.012Z</time></trkpt><trkpt lat="44.322855" lon="9.3437467"><ele>16.0</ele><time>2026-03-28T14:52:48.012Z</time></trkpt><trkpt lat="44.32294" lon="9.34383"><ele>16.0</ele><time>2026-03-28T14:52:49.012Z</time></trkpt><trkpt lat="44.3230317" lon="9.3438933"><ele>16.0</ele><time>2026-03-28T14:52:50.012Z</time></trkpt><trkpt lat="44.323115" lon="9.343945"><ele>15.8</ele><time>2026-03-28T14:52:51.011Z</time></trkpt><trkpt lat="44.323195" lon="9.3440033"><ele>15.600000000000001</ele><time>2026-03-28T14:52:52.011Z</time></trkpt><trkpt lat="44.32327" lon="9.3440717"><ele>15.4</ele><time>2026-03-28T14:52:53.012Z</time></trkpt><trkpt lat="44.3233583" lon="9.3441267"><ele>15.2</ele><time>2026-03-28T14:52:54.012Z</time></trkpt><trkpt lat="44.3234467" lon="9.3441933"><ele>15.0</ele><time>2026-03-28T14:52:55.012Z</time></trkpt><trkpt lat="44.3235417" lon="9.344255"><ele>15.0</ele><time>2026-03-28T14:52:56.012Z</time></trkpt><trkpt lat="44.3236367" lon="9.3443067"><ele>15.0</ele><time>2026-03-28T14:52:57.012Z</time></trkpt><trkpt lat="44.32373" lon="9.3443533"><ele>15.0</ele><time>2026-03-28T14:52:58.012Z</time></trkpt><trkpt lat="44.3238283" lon="9.3443967"><ele>15.0</ele><time>2026-03-28T14:52:59.012Z</time></trkpt><trkpt lat="44.3239267" lon="9.3444483"><ele>15.0</ele><time>2026-03-28T14:53:00.012Z</time></trkpt><trkpt lat="44.3240233" lon="9.3444833"><ele>16.2</ele><time>2026-03-28T14:53:01.012Z</time></trkpt><trkpt lat="44.3241133" lon="9.3445167"><ele>17.4</ele><time>2026-03-28T14:53:02.012Z</time></trkpt><trkpt lat="44.3241967" lon="9.3445317"><ele>18.6</ele><time>2026-03-28T14:53:03.012Z</time></trkpt><trkpt lat="44.3243017" lon="9.3445567"><ele>19.8</ele><time>2026-03-28T14:53:04.012Z</time></trkpt><trkpt lat="44.32442" lon="9.3445817"><ele>21.0</ele><time>2026-03-28T14:53:05.012Z</time></trkpt><trkpt lat="44.3245367" lon="9.3446267"><ele>21.0</ele><time>2026-03-28T14:53:06.012Z</time></trkpt><trkpt lat="44.32464" lon="9.34466"><ele>21.0</ele><time>2026-03-28T14:53:07.012Z</time></trkpt><trkpt lat="44.3247333" lon="9.3447183"><ele>21.0</ele><time>2026-03-28T14:53:08.012Z</time></trkpt><trkpt lat="44.32482" lon="9.3447767"><ele>21.0</ele><time>2026-03-28T14:53:09.012Z</time></trkpt><trkpt lat="44.3249083" lon="9.3448167"><ele>21.0</ele><time>2026-03-28T14:53:10.012Z</time></trkpt><trkpt lat="44.3249917" lon="9.3448583"><ele>19.2</ele><time>2026-03-28T14:53:11.012Z</time></trkpt><trkpt lat="44.3250717" lon="9.3448883"><ele>17.400000000000002</ele><time>2026-03-28T14:53:12.012Z</time></trkpt><trkpt lat="44.3251533" lon="9.34492"><ele>15.6</ele><time>2026-03-28T14:53:13.012Z</time></trkpt><trkpt lat="44.3252517" lon="9.3449317"><ele>13.8</ele><time>2026-03-28T14:53:14.012Z</time></trkpt><trkpt lat="44.3253467" lon="9.3449333"><ele>12.0</ele><time>2026-03-28T14:53:15.012Z</time></trkpt><trkpt lat="44.32545" lon="9.344945"><ele>12.0</ele><time>2026-03-28T14:53:16.012Z</time></trkpt><trkpt lat="44.3255533" lon="9.344975"><ele>12.0</ele><time>2026-03-28T14:53:17.012Z</time></trkpt><trkpt lat="44.3256567" lon="9.3450117"><ele>12.0</ele><time>2026-03-28T14:53:18.012Z</time></trkpt><trkpt lat="44.32576" lon="9.3450667"><ele>12.0</ele><time>2026-03-28T14:53:19.012Z</time></trkpt><trkpt lat="44.3258383" lon="9.3451083"><ele>12.0</ele><time>2026-03-28T14:53:20.012Z</time></trkpt><trkpt lat="44.325915" lon="9.3451583"><ele>12.399999999999999</ele><time>2026-03-28T14:53:21.012Z</time></trkpt><trkpt lat="44.3260033" lon="9.3452117"><ele>12.799999999999999</ele><time>2026-03-28T14:53:22.012Z</time></trkpt><trkpt lat="44.3260983" lon="9.345265"><ele>13.2</ele><time>2026-03-28T14:53:23.012Z</time></trkpt><trkpt lat="44.326185" lon="9.3453183"><ele>13.6</ele><time>2026-03-28T14:53:24.012Z</time></trkpt><trkpt lat="44.3262817" lon="9.3453717"><ele>14.0</ele><time>2026-03-28T14:53:25.012Z</time></trkpt><trkpt lat="44.3263717" lon="9.34542"><ele>13.25</ele><time>2026-03-28T14:53:26.012Z</time></trkpt><trkpt lat="44.3264867" lon="9.3454767"><ele>12.5</ele><time>2026-03-28T14:53:27.012Z</time></trkpt><trkpt lat="44.3266117" lon="9.345545"><ele>11.75</ele><time>2026-03-28T14:53:28.012Z</time></trkpt><trkpt lat="44.3267467" lon="9.3456083"><ele>11.0</ele><time>2026-03-28T14:53:29.011Z</time></trkpt><trkpt lat="44.3268817" lon="9.34568"><ele>11.0</ele><time>2026-03-28T14:53:30.012Z</time></trkpt><trkpt lat="44.3270117" lon="9.345725"><ele>11.0</ele><time>2026-03-28T14:53:31.012Z</time></trkpt><trkpt lat="44.3271333" lon="9.34579"><ele>11.0</ele><time>2026-03-28T14:53:32.011Z</time></trkpt><trkpt lat="44.32726" lon="9.345835"><ele>11.0</ele><time>2026-03-28T14:53:33.012Z</time></trkpt><trkpt lat="44.3273817" lon="9.345875"><ele>11.0</ele><time>2026-03-28T14:53:34.012Z</time></trkpt><trkpt lat="44.32754" lon="9.3458983"><ele>11.0</ele><time>2026-03-28T14:53:35.012Z</time></trkpt><trkpt lat="44.3276767" lon="9.345885"><ele>11.0</ele><time>2026-03-28T14:53:36.012Z</time></trkpt><trkpt lat="44.3278117" lon="9.3458617"><ele>11.0</ele><time>2026-03-28T14:53:37.011Z</time></trkpt><trkpt lat="44.3279533" lon="9.3458767"><ele>11.25</ele><time>2026-03-28T14:53:38.012Z</time></trkpt><trkpt lat="44.3280867" lon="9.3458783"><ele>11.5</ele><time>2026-03-28T14:53:39.012Z</time></trkpt><trkpt lat="44.3282117" lon="9.3458817"><ele>11.75</ele><time>2026-03-28T14:53:40.012Z</time></trkpt><trkpt lat="44.3283483" lon="9.3458983"><ele>12.0</ele><time>2026-03-28T14:53:41.011Z</time></trkpt><trkpt lat="44.3284817" lon="9.3459083"><ele>12.0</ele><time>2026-03-28T14:53:42.012Z</time></trkpt><trkpt lat="44.3286033" lon="9.3459183"><ele>12.0</ele><time>2026-03-28T14:53:43.012Z</time></trkpt><trkpt lat="44.32872" lon="9.345905"><ele>12.0</ele><time>2026-03-28T14:53:44.012Z</time></trkpt><trkpt lat="44.32883" lon="9.345855"><ele>12.0</ele><time>2026-03-28T14:53:45.011Z</time></trkpt><trkpt lat="44.328935" lon="9.3458"><ele>11.25</ele><time>2026-03-28T14:53:46.012Z</time></trkpt><trkpt lat="44.3290467" lon="9.34574"><ele>10.5</ele><time>2026-03-28T14:53:47.012Z</time></trkpt><trkpt lat="44.32916" lon="9.345665"><ele>9.75</ele><time>2026-03-28T14:53:48.012Z</time></trkpt><trkpt lat="44.32927" lon="9.3456"><ele>9.0</ele><time>2026-03-28T14:53:49.012Z</time></trkpt><trkpt lat="44.3294" lon="9.345545"><ele>12.5</ele><time>2026-03-28T14:53:50.011Z</time></trkpt><trkpt lat="44.3295433" lon="9.345495"><ele>16.0</ele><time>2026-03-28T14:53:51.012Z</time></trkpt><trkpt lat="44.3296817" lon="9.3454733"><ele>19.5</ele><time>2026-03-28T14:53:52.011Z</time></trkpt><trkpt lat="44.3298133" lon="9.3454633"><ele>23.0</ele><time>2026-03-28T14:53:53.012Z</time></trkpt><trkpt lat="44.3299417" lon="9.3454733"><ele>23.0</ele><time>2026-03-28T14:53:54.012Z</time></trkpt><trkpt lat="44.3300633" lon="9.3454833"><ele>23.0</ele><time>2026-03-28T14:53:55.012Z</time></trkpt><trkpt lat="44.3301783" lon="9.3455167"><ele>23.0</ele><time>2026-03-28T14:53:56.012Z</time></trkpt><trkpt lat="44.3302783" lon="9.3455467"><ele>23.0</ele><time>2026-03-28T14:53:57.012Z</time></trkpt><trkpt lat="44.3303767" lon="9.345545"><ele>23.0</ele><time>2026-03-28T14:53:58.012Z</time></trkpt><trkpt lat="44.3304817" lon="9.345545"><ele>23.833333333333336</ele><time>2026-03-28T14:53:59.012Z</time></trkpt><trkpt lat="44.3305783" lon="9.3455217"><ele>24.666666666666668</ele><time>2026-03-28T14:54:00.012Z</time></trkpt><trkpt lat="44.3306667" lon="9.3454917"><ele>25.5</ele><time>2026-03-28T14:54:01.011Z</time></trkpt><trkpt lat="44.330745" lon="9.3454733"><ele>26.333333333333336</ele><time>2026-03-28T14:54:02.011Z</time></trkpt><trkpt lat="44.3308267" lon="9.3454567"><ele>27.166666666666668</ele><time>2026-03-28T14:54:03.012Z</time></trkpt><trkpt lat="44.3309067" lon="9.345455"><ele>28.0</ele><time>2026-03-28T14:54:04.012Z</time></trkpt><trkpt lat="44.330995" lon="9.345465"><ele>28.000000000000004</ele><time>2026-03-28T14:54:05.012Z</time></trkpt><trkpt lat="44.3310783" lon="9.34548"><ele>28.0</ele><time>2026-03-28T14:54:06.012Z</time></trkpt><trkpt lat="44.33116" lon="9.3455033"><ele>28.0</ele><time>2026-03-28T14:54:07.011Z</time></trkpt><trkpt lat="44.331235" lon="9.3455217"><ele>28.0</ele><time>2026-03-28T14:54:08.012Z</time></trkpt><trkpt lat="44.3313067" lon="9.3455333"><ele>28.000000000000004</ele><time>2026-03-28T14:54:09.012Z</time></trkpt><trkpt lat="44.331375" lon="9.3455317"><ele>28.0</ele><time>2026-03-28T14:54:10.012Z</time></trkpt><trkpt lat="44.3314433" lon="9.34554"><ele>27.833333333333336</ele><time>2026-03-28T14:54:11.012Z</time></trkpt><trkpt lat="44.3315167" lon="9.3455367"><ele>27.666666666666668</ele><time>2026-03-28T14:54:12.012Z</time></trkpt><trkpt lat="44.3316033" lon="9.3455383"><ele>27.5</ele><time>2026-03-28T14:54:13.011Z</time></trkpt><trkpt lat="44.33168" lon="9.3455383"><ele>27.333333333333336</ele><time>2026-03-28T14:54:14.012Z</time></trkpt><trkpt lat="44.3317483" lon="9.3455367"><ele>27.166666666666668</ele><time>2026-03-28T14:54:15.012Z</time></trkpt><trkpt lat="44.3318167" lon="9.3455383"><ele>27.0</ele><time>2026-03-28T14:54:16.012Z</time></trkpt><trkpt lat="44.3319417" lon="9.3455333"><ele>24.857142857142858</ele><time>2026-03-28T14:54:18.012Z</time></trkpt><trkpt lat="44.3320083" lon="9.345555"><ele>22.71428571428571</ele><time>2026-03-28T14:54:19.012Z</time></trkpt><trkpt lat="44.3320733" lon="9.3455783"><ele>20.57142857142857</ele><time>2026-03-28T14:54:20.012Z</time></trkpt><trkpt lat="44.3321367" lon="9.345605"><ele>18.428571428571427</ele><time>2026-03-28T14:54:21.012Z</time></trkpt><trkpt lat="44.3322067" lon="9.34563"><ele>16.285714285714285</ele><time>2026-03-28T14:54:22.012Z</time></trkpt><trkpt lat="44.3322733" lon="9.3456433"><ele>14.142857142857142</ele><time>2026-03-28T14:54:23.012Z</time></trkpt><trkpt lat="44.3323417" lon="9.3456467"><ele>12.0</ele><time>2026-03-28T14:54:24.012Z</time></trkpt><trkpt lat="44.3324717" lon="9.34565"><ele>12.0</ele><time>2026-03-28T14:54:26.012Z</time></trkpt><trkpt lat="44.3325533" lon="9.34566"><ele>12.0</ele><time>2026-03-28T14:54:27.012Z</time></trkpt><trkpt lat="44.3326433" lon="9.3456517"><ele>12.0</ele><time>2026-03-28T14:54:28.011Z</time></trkpt><trkpt lat="44.33273" lon="9.3456483"><ele>12.0</ele><time>2026-03-28T14:54:29.012Z</time></trkpt><trkpt lat="44.33282" lon="9.3456417"><ele>12.0</ele><time>2026-03-28T14:54:30.012Z</time></trkpt><trkpt lat="44.3329133" lon="9.3456483"><ele>12.0</ele><time>2026-03-28T14:54:31.012Z</time></trkpt><trkpt lat="44.3329917" lon="9.3456567"><ele>12.399999999999999</ele><time>2026-03-28T14:54:32.012Z</time></trkpt><trkpt lat="44.333105" lon="9.3456617"><ele>12.799999999999999</ele><time>2026-03-28T14:54:34.012Z</time></trkpt><trkpt lat="44.33321" lon="9.3456567"><ele>13.2</ele><time>2026-03-28T14:54:36.011Z</time></trkpt><trkpt lat="44.3332967" lon="9.3456383"><ele>13.6</ele><time>2026-03-28T14:54:38.012Z</time></trkpt><trkpt lat="44.3333817" lon="9.3456567"><ele>14.0</ele><time>2026-03-28T14:54:40.012Z</time></trkpt><trkpt lat="44.3334533" lon="9.3456867"><ele>14.000000000000002</ele><time>2026-03-28T14:54:42.012Z</time></trkpt><trkpt lat="44.333545" lon="9.3457283"><ele>14.0</ele><time>2026-03-28T14:54:44.012Z</time></trkpt><trkpt lat="44.3336583" lon="9.3458017"><ele>14.0</ele><time>2026-03-28T14:54:46.012Z</time></trkpt><trkpt lat="44.3337217" lon="9.34583"><ele>14.0</ele><time>2026-03-28T14:54:47.012Z</time></trkpt><trkpt lat="44.3337933" lon="9.34584"><ele>14.000000000000002</ele><time>2026-03-28T14:54:48.011Z</time></trkpt><trkpt lat="44.3338583" lon="9.3458817"><ele>14.0</ele><time>2026-03-28T14:54:49.012Z</time></trkpt><trkpt lat="44.3339233" lon="9.3459183"><ele>13.833333333333334</ele><time>2026-03-28T14:54:50.012Z</time></trkpt><trkpt lat="44.3339833" lon="9.3459517"><ele>13.666666666666668</ele><time>2026-03-28T14:54:51.012Z</time></trkpt><trkpt lat="44.334055" lon="9.3459767"><ele>13.5</ele><time>2026-03-28T14:54:52.012Z</time></trkpt><trkpt lat="44.33413" lon="9.3460067"><ele>13.333333333333332</ele><time>2026-03-28T14:54:53.012Z</time></trkpt><trkpt lat="44.3342133" lon="9.3460383"><ele>13.166666666666666</ele><time>2026-03-28T14:54:54.012Z</time></trkpt><trkpt lat="44.3343017" lon="9.3460883"><ele>13.0</ele><time>2026-03-28T14:54:55.012Z</time></trkpt><trkpt lat="44.3343917" lon="9.3461333"><ele>13.0</ele><time>2026-03-28T14:54:56.012Z</time></trkpt><trkpt lat="44.33449" lon="9.346185"><ele>13.0</ele><time>2026-03-28T14:54:57.011Z</time></trkpt><trkpt lat="44.334605" lon="9.3462617"><ele>13.0</ele><time>2026-03-28T14:54:58.012Z</time></trkpt><trkpt lat="44.33473" lon="9.346335"><ele>13.0</ele><time>2026-03-28T14:54:59.012Z</time></trkpt><trkpt lat="44.3348517" lon="9.3463983"><ele>12.5</ele><time>2026-03-28T14:55:00.012Z</time></trkpt><trkpt lat="44.334985" lon="9.3464833"><ele>12.0</ele><time>2026-03-28T14:55:01.012Z</time></trkpt><trkpt lat="44.3351033" lon="9.3465817"><ele>11.5</ele><time>2026-03-28T14:55:02.012Z</time></trkpt><trkpt lat="44.3352033" lon="9.3466883"><ele>11.0</ele><time>2026-03-28T14:55:03.012Z</time></trkpt><trkpt lat="44.3352917" lon="9.346835"><ele>11.0</ele><time>2026-03-28T14:55:04.011Z</time></trkpt><trkpt lat="44.3353683" lon="9.3469733"><ele>11.0</ele><time>2026-03-28T14:55:05.011Z</time></trkpt><trkpt lat="44.335445" lon="9.347095"><ele>11.0</ele><time>2026-03-28T14:55:06.011Z</time></trkpt><trkpt lat="44.335525" lon="9.3472217"><ele>11.0</ele><time>2026-03-28T14:55:07.012Z</time></trkpt><trkpt lat="44.3356" lon="9.3473317"><ele>11.25</ele><time>2026-03-28T14:55:08.012Z</time></trkpt><trkpt lat="44.3356883" lon="9.347445"><ele>11.5</ele><time>2026-03-28T14:55:09.012Z</time></trkpt><trkpt lat="44.3357883" lon="9.3475483"><ele>11.75</ele><time>2026-03-28T14:55:10.012Z</time></trkpt><trkpt lat="44.33589" lon="9.3476267"><ele>12.0</ele><time>2026-03-28T14:55:11.012Z</time></trkpt><trkpt lat="44.3359917" lon="9.3477"><ele>12.0</ele><time>2026-03-28T14:55:12.012Z</time></trkpt><trkpt lat="44.3360933" lon="9.3477633"><ele>12.0</ele><time>2026-03-28T14:55:13.012Z</time></trkpt><trkpt lat="44.3362" lon="9.3478283"><ele>12.0</ele><time>2026-03-28T14:55:14.012Z</time></trkpt><trkpt lat="44.3363067" lon="9.347895"><ele>12.0</ele><time>2026-03-28T14:55:15.012Z</time></trkpt><trkpt lat="44.3364133" lon="9.3479667"><ele>12.0</ele><time>2026-03-28T14:55:16.011Z</time></trkpt><trkpt lat="44.3365133" lon="9.3480317"><ele>12.0</ele><time>2026-03-28T14:55:17.012Z</time></trkpt><trkpt lat="44.3366117" lon="9.3480933"><ele>12.0</ele><time>2026-03-28T14:55:18.011Z</time></trkpt><trkpt lat="44.3367217" lon="9.34815"><ele>12.0</ele><time>2026-03-28T14:55:19.012Z</time></trkpt><trkpt lat="44.3368317" lon="9.3481917"><ele>12.0</ele><time>2026-03-28T14:55:20.011Z</time></trkpt><trkpt lat="44.3369367" lon="9.3482617"><ele>12.0</ele><time>2026-03-28T14:55:21.012Z</time></trkpt><trkpt lat="44.3370283" lon="9.348335"><ele>12.0</ele><time>2026-03-28T14:55:22.012Z</time></trkpt><trkpt lat="44.337125" lon="9.3484083"><ele>12.0</ele><time>2026-03-28T14:55:23.011Z</time></trkpt><trkpt lat="44.33722" lon="9.348475"><ele>12.0</ele><time>2026-03-28T14:55:24.011Z</time></trkpt><trkpt lat="44.337315" lon="9.3485283"><ele>12.0</ele><time>2026-03-28T14:55:25.012Z</time></trkpt><trkpt lat="44.3374217" lon="9.348575"><ele>13.75</ele><time>2026-03-28T14:55:26.011Z</time></trkpt><trkpt lat="44.3375283" lon="9.348615"><ele>15.5</ele><time>2026-03-28T14:55:27.012Z</time></trkpt><trkpt lat="44.3376383" lon="9.3486467"><ele>17.25</ele><time>2026-03-28T14:55:28.012Z</time></trkpt><trkpt lat="44.3377467" lon="9.3486733"><ele>19.0</ele><time>2026-03-28T14:55:29.012Z</time></trkpt><trkpt lat="44.3378633" lon="9.3486883"><ele>19.0</ele><time>2026-03-28T14:55:30.011Z</time></trkpt><trkpt lat="44.33797" lon="9.3487"><ele>19.0</ele><time>2026-03-28T14:55:31.012Z</time></trkpt><trkpt lat="44.3380767" lon="9.3487167"><ele>19.0</ele><time>2026-03-28T14:55:32.011Z</time></trkpt><trkpt lat="44.3381867" lon="9.3487267"><ele>19.0</ele><time>2026-03-28T14:55:33.012Z</time></trkpt><trkpt lat="44.3383033" lon="9.34874"><ele>19.0</ele><time>2026-03-28T14:55:34.012Z</time></trkpt><trkpt lat="44.338415" lon="9.3487617"><ele>18.2</ele><time>2026-03-28T14:55:35.012Z</time></trkpt><trkpt lat="44.33852" lon="9.348785"><ele>17.4</ele><time>2026-03-28T14:55:36.012Z</time></trkpt><trkpt lat="44.3386317" lon="9.34882"><ele>16.6</ele><time>2026-03-28T14:55:37.012Z</time></trkpt><trkpt lat="44.33873" lon="9.3488567"><ele>15.8</ele><time>2026-03-28T14:55:38.012Z</time></trkpt><trkpt lat="44.33883" lon="9.3488683"><ele>15.0</ele><time>2026-03-28T14:55:39.012Z</time></trkpt><trkpt lat="44.3389333" lon="9.3488817"><ele>15.0</ele><time>2026-03-28T14:55:40.012Z</time></trkpt><trkpt lat="44.339035" lon="9.348915"><ele>15.0</ele><time>2026-03-28T14:55:41.012Z</time></trkpt><trkpt lat="44.33913" lon="9.3489467"><ele>15.0</ele><time>2026-03-28T14:55:42.012Z</time></trkpt><trkpt lat="44.3392233" lon="9.348975"><ele>15.0</ele><time>2026-03-28T14:55:43.012Z</time></trkpt><trkpt lat="44.3393033" lon="9.3489967"><ele>15.0</ele><time>2026-03-28T14:55:44.012Z</time></trkpt><trkpt lat="44.33939" lon="9.3490133"><ele>15.0</ele><time>2026-03-28T14:55:45.012Z</time></trkpt><trkpt lat="44.3394717" lon="9.3490317"><ele>15.0</ele><time>2026-03-28T14:55:46.012Z</time></trkpt><trkpt lat="44.3395517" lon="9.349045"><ele>15.0</ele><time>2026-03-28T14:55:47.011Z</time></trkpt><trkpt lat="44.3396283" lon="9.3490617"><ele>15.0</ele><time>2026-03-28T14:55:48.012Z</time></trkpt><trkpt lat="44.3396967" lon="9.3490867"><ele>15.0</ele><time>2026-03-28T14:55:49.012Z</time></trkpt><trkpt lat="44.33977" lon="9.34911"><ele>15.0</ele><time>2026-03-28T14:55:50.012Z</time></trkpt><trkpt lat="44.3398367" lon="9.349145"><ele>15.666666666666666</ele><time>2026-03-28T14:55:51.011Z</time></trkpt><trkpt lat="44.3398983" lon="9.3491933"><ele>16.333333333333332</ele><time>2026-03-28T14:55:52.012Z</time></trkpt><trkpt lat="44.3399667" lon="9.3492567"><ele>17.0</ele><time>2026-03-28T14:55:53.011Z</time></trkpt><trkpt lat="44.3400317" lon="9.3493267"><ele>17.666666666666664</ele><time>2026-03-28T14:55:54.012Z</time></trkpt><trkpt lat="44.340105" lon="9.349385"><ele>18.333333333333332</ele><time>2026-03-28T14:55:55.012Z</time></trkpt><trkpt lat="44.3401667" lon="9.3494483"><ele>19.0</ele><time>2026-03-28T14:55:56.012Z</time></trkpt><trkpt lat="44.340225" lon="9.3495083"><ele>19.0</ele><time>2026-03-28T14:55:57.012Z</time></trkpt><trkpt lat="44.3402833" lon="9.3495817"><ele>19.0</ele><time>2026-03-28T14:55:58.012Z</time></trkpt><trkpt lat="44.340345" lon="9.349655"><ele>19.0</ele><time>2026-03-28T14:55:59.012Z</time></trkpt><trkpt lat="44.3404133" lon="9.34973"><ele>19.0</ele><time>2026-03-28T14:56:00.012Z</time></trkpt><trkpt lat="44.3404767" lon="9.3498133"><ele>19.0</ele><time>2026-03-28T14:56:01.012Z</time></trkpt><trkpt lat="44.34055" lon="9.3499067"><ele>19.0</ele><time>2026-03-28T14:56:02.012Z</time></trkpt><trkpt lat="44.3406383" lon="9.3500017"><ele>19.2</ele><time>2026-03-28T14:56:03.012Z</time></trkpt><trkpt lat="44.3407367" lon="9.3500633"><ele>19.4</ele><time>2026-03-28T14:56:04.012Z</time></trkpt><trkpt lat="44.3408417" lon="9.3501167"><ele>19.6</ele><time>2026-03-28T14:56:05.011Z</time></trkpt><trkpt lat="44.3409367" lon="9.3501633"><ele>19.8</ele><time>2026-03-28T14:56:06.012Z</time></trkpt><trkpt lat="44.341025" lon="9.3501983"><ele>20.0</ele><time>2026-03-28T14:56:07.012Z</time></trkpt><trkpt lat="44.3411" lon="9.350235"><ele>20.0</ele><time>2026-03-28T14:56:08.012Z</time></trkpt><trkpt lat="44.3411917" lon="9.3502567"><ele>20.0</ele><time>2026-03-28T14:56:09.011Z</time></trkpt><trkpt lat="44.34129" lon="9.3502183"><ele>20.0</ele><time>2026-03-28T14:56:10.012Z</time></trkpt><trkpt lat="44.3413717" lon="9.3501483"><ele>20.0</ele><time>2026-03-28T14:56:11.012Z</time></trkpt><trkpt lat="44.341445" lon="9.3500867"><ele>20.0</ele><time>2026-03-28T14:56:12.011Z</time></trkpt><trkpt lat="44.3414933" lon="9.3499633"><ele>19.4</ele><time>2026-03-28T14:56:13.012Z</time></trkpt><trkpt lat="44.3415283" lon="9.3498383"><ele>18.8</ele><time>2026-03-28T14:56:14.012Z</time></trkpt><trkpt lat="44.3415283" lon="9.3496883"><ele>18.2</ele><time>2026-03-28T14:56:15.012Z</time></trkpt><trkpt lat="44.341505" lon="9.3495283"><ele>17.6</ele><time>2026-03-28T14:56:16.011Z</time></trkpt><trkpt lat="44.3414667" lon="9.3493567"><ele>17.0</ele><time>2026-03-28T14:56:17.012Z</time></trkpt><trkpt lat="44.3414167" lon="9.3492017"><ele>19.833333333333336</ele><time>2026-03-28T14:56:18.011Z</time></trkpt><trkpt lat="44.34137" lon="9.3490533"><ele>22.666666666666668</ele><time>2026-03-28T14:56:19.012Z</time></trkpt><trkpt lat="44.3413333" lon="9.3489317"><ele>25.5</ele><time>2026-03-28T14:56:20.012Z</time></trkpt><trkpt lat="44.341325" lon="9.3488233"><ele>28.333333333333336</ele><time>2026-03-28T14:56:21.012Z</time></trkpt><trkpt lat="44.3413383" lon="9.3487217"><ele>31.166666666666668</ele><time>2026-03-28T14:56:22.012Z</time></trkpt><trkpt lat="44.34138" lon="9.3486467"><ele>34.0</ele><time>2026-03-28T14:56:23.011Z</time></trkpt><trkpt lat="44.3414517" lon="9.3486183"><ele>34.75</ele><time>2026-03-28T14:56:24.012Z</time></trkpt><trkpt lat="44.3415383" lon="9.3486367"><ele>35.5</ele><time>2026-03-28T14:56:25.012Z</time></trkpt><trkpt lat="44.341615" lon="9.34869"><ele>36.25</ele><time>2026-03-28T14:56:26.012Z</time></trkpt><trkpt lat="44.3416917" lon="9.348845"><ele>37.0</ele><time>2026-03-28T14:56:27.012Z</time></trkpt><trkpt lat="44.341765" lon="9.3490417"><ele>34.0</ele><time>2026-03-28T14:56:28.012Z</time></trkpt><trkpt lat="44.3418467" lon="9.34924"><ele>31.0</ele><time>2026-03-28T14:56:29.012Z</time></trkpt><trkpt lat="44.3419283" lon="9.349375"><ele>28.0</ele><time>2026-03-28T14:56:30.012Z</time></trkpt><trkpt lat="44.3420283" lon="9.34949"><ele>25.0</ele><time>2026-03-28T14:56:31.012Z</time></trkpt><trkpt lat="44.342135" lon="9.3496017"><ele>26.75</ele><time>2026-03-28T14:56:32.012Z</time></trkpt><trkpt lat="44.3422417" lon="9.3497183"><ele>28.5</ele><time>2026-03-28T14:56:33.011Z</time></trkpt><trkpt lat="44.3423433" lon="9.3498317"><ele>30.25</ele><time>2026-03-28T14:56:34.012Z</time></trkpt><trkpt lat="44.342445" lon="9.349945"><ele>32.0</ele><time>2026-03-28T14:56:35.012Z</time></trkpt><trkpt lat="44.34255" lon="9.3500633"><ele>32.0</ele><time>2026-03-28T14:56:36.012Z</time></trkpt><trkpt lat="44.3426583" lon="9.3501417"><ele>32.0</ele><time>2026-03-28T14:56:37.012Z</time></trkpt><trkpt lat="44.3427733" lon="9.3501883"><ele>32.0</ele><time>2026-03-28T14:56:38.012Z</time></trkpt><trkpt lat="44.3428983" lon="9.350215"><ele>32.0</ele><time>2026-03-28T14:56:39.012Z</time></trkpt><trkpt lat="44.3430317" lon="9.35018"><ele>34.0</ele><time>2026-03-28T14:56:40.012Z</time></trkpt><trkpt lat="44.3431583" lon="9.35008"><ele>36.0</ele><time>2026-03-28T14:56:41.012Z</time></trkpt><trkpt lat="44.3432867" lon="9.3500283"><ele>38.0</ele><time>2026-03-28T14:56:42.012Z</time></trkpt><trkpt lat="44.34343" lon="9.34997"><ele>40.0</ele><time>2026-03-28T14:56:43.011Z</time></trkpt><trkpt lat="44.3435733" lon="9.3499133"><ele>40.0</ele><time>2026-03-28T14:56:44.012Z</time></trkpt><trkpt lat="44.3437133" lon="9.34986"><ele>40.0</ele><time>2026-03-28T14:56:45.012Z</time></trkpt><trkpt lat="44.3438567" lon="9.3498"><ele>40.0</ele><time>2026-03-28T14:56:46.012Z</time></trkpt><trkpt lat="44.3439883" lon="9.3497483"><ele>40.0</ele><time>2026-03-28T14:56:47.012Z</time></trkpt><trkpt lat="44.3441033" lon="9.3496967"><ele>38.5</ele><time>2026-03-28T14:56:48.012Z</time></trkpt><trkpt lat="44.3442283" lon="9.3496667"><ele>37.0</ele><time>2026-03-28T14:56:49.012Z</time></trkpt><trkpt lat="44.3443517" lon="9.3496233"><ele>35.5</ele><time>2026-03-28T14:56:50.012Z</time></trkpt><trkpt lat="44.34447" lon="9.34958"><ele>34.0</ele><time>2026-03-28T14:56:51.012Z</time></trkpt><trkpt lat="44.34459" lon="9.3495317"><ele>34.0</ele><time>2026-03-28T14:56:52.012Z</time></trkpt><trkpt lat="44.3447067" lon="9.349475"><ele>34.0</ele><time>2026-03-28T14:56:53.012Z</time></trkpt><trkpt lat="44.344815" lon="9.349395"><ele>34.0</ele><time>2026-03-28T14:56:54.012Z</time></trkpt><trkpt lat="44.3449083" lon="9.3492967"><ele>34.0</ele><time>2026-03-28T14:56:55.012Z</time></trkpt><trkpt lat="44.3449967" lon="9.3491967"><ele>34.6</ele><time>2026-03-28T14:56:56.011Z</time></trkpt><trkpt lat="44.34508" lon="9.3490883"><ele>35.2</ele><time>2026-03-28T14:56:57.012Z</time></trkpt><trkpt lat="44.3451583" lon="9.3489883"><ele>35.800000000000004</ele><time>2026-03-28T14:56:58.012Z</time></trkpt><trkpt lat="44.3452233" lon="9.3489"><ele>36.4</ele><time>2026-03-28T14:56:59.012Z</time></trkpt><trkpt lat="44.3452883" lon="9.3488033"><ele>37.0</ele><time>2026-03-28T14:57:00.012Z</time></trkpt><trkpt lat="44.3453517" lon="9.3487333"><ele>37.0</ele><time>2026-03-28T14:57:01.011Z</time></trkpt><trkpt lat="44.3454183" lon="9.3486717"><ele>37.0</ele><time>2026-03-28T14:57:02.012Z</time></trkpt><trkpt lat="44.3454817" lon="9.3486217"><ele>37.0</ele><time>2026-03-28T14:57:03.011Z</time></trkpt><trkpt lat="44.3455483" lon="9.34856"><ele>37.0</ele><time>2026-03-28T14:57:05.012Z</time></trkpt><trkpt lat="44.3456483" lon="9.3484933"><ele>37.0</ele><time>2026-03-28T14:58:28.012Z</time></trkpt><trkpt lat="44.3457233" lon="9.3484567"><ele>37.0</ele><time>2026-03-28T14:58:29.012Z</time></trkpt><trkpt lat="44.3458133" lon="9.3484133"><ele>32.75</ele><time>2026-03-28T14:58:30.011Z</time></trkpt><trkpt lat="44.3459133" lon="9.3483767"><ele>28.5</ele><time>2026-03-28T14:58:31.012Z</time></trkpt><trkpt lat="44.346025" lon="9.3483433"><ele>24.25</ele><time>2026-03-28T14:58:32.012Z</time></trkpt><trkpt lat="44.3461483" lon="9.348305"><ele>20.0</ele><time>2026-03-28T14:58:33.012Z</time></trkpt><trkpt lat="44.34628" lon="9.3482717"><ele>20.0</ele><time>2026-03-28T14:58:34.012Z</time></trkpt><trkpt lat="44.3464083" lon="9.3482417"><ele>20.0</ele><time>2026-03-28T14:58:35.012Z</time></trkpt><trkpt lat="44.34654" lon="9.3482167"><ele>20.0</ele><time>2026-03-28T14:58:36.012Z</time></trkpt><trkpt lat="44.3466683" lon="9.3481867"><ele>20.0</ele><time>2026-03-28T14:58:37.012Z</time></trkpt><trkpt lat="44.3468017" lon="9.3481567"><ele>20.0</ele><time>2026-03-28T14:58:38.012Z</time></trkpt><trkpt lat="44.3469317" lon="9.348135"><ele>20.0</ele><time>2026-03-28T14:58:39.012Z</time></trkpt><trkpt lat="44.34705" lon="9.348115"><ele>20.0</ele><time>2026-03-28T14:58:40.012Z</time></trkpt><trkpt lat="44.347175" lon="9.3481"><ele>20.0</ele><time>2026-03-28T14:58:41.012Z</time></trkpt><trkpt lat="44.3473" lon="9.3480783"><ele>20.5</ele><time>2026-03-28T14:58:42.012Z</time></trkpt><trkpt lat="44.3474267" lon="9.34806"><ele>21.0</ele><time>2026-03-28T14:58:43.012Z</time></trkpt><trkpt lat="44.3475517" lon="9.3480283"><ele>21.5</ele><time>2026-03-28T14:58:44.012Z</time></trkpt><trkpt lat="44.347665" lon="9.348"><ele>22.0</ele><time>2026-03-28T14:58:45.012Z</time></trkpt><trkpt lat="44.3477783" lon="9.34798"><ele>22.0</ele><time>2026-03-28T14:58:46.012Z</time></trkpt><trkpt lat="44.3478883" lon="9.3479533"><ele>22.0</ele><time>2026-03-28T14:58:47.011Z</time></trkpt><trkpt lat="44.3480083" lon="9.3479167"><ele>22.0</ele><time>2026-03-28T14:58:48.012Z</time></trkpt><trkpt lat="44.3481233" lon="9.347885"><ele>22.0</ele><time>2026-03-28T14:58:49.012Z</time></trkpt><trkpt lat="44.34824" lon="9.34785"><ele>22.200000000000003</ele><time>2026-03-28T14:58:50.012Z</time></trkpt><trkpt lat="44.3483583" lon="9.347815"><ele>22.4</ele><time>2026-03-28T14:58:51.012Z</time></trkpt><trkpt lat="44.3484617" lon="9.34779"><ele>22.6</ele><time>2026-03-28T14:58:52.011Z</time></trkpt><trkpt lat="44.34855" lon="9.3477583"><ele>22.799999999999997</ele><time>2026-03-28T14:58:53.012Z</time></trkpt><trkpt lat="44.3486183" lon="9.3477433"><ele>23.0</ele><time>2026-03-28T14:58:54.012Z</time></trkpt><trkpt lat="44.3487133" lon="9.3477183"><ele>23.0</ele><time>2026-03-28T14:58:56.012Z</time></trkpt><trkpt lat="44.348855" lon="9.3476983"><ele>23.0</ele><time>2026-03-28T14:58:58.012Z</time></trkpt><trkpt lat="44.3489567" lon="9.347675"><ele>23.0</ele><time>2026-03-28T14:58:59.012Z</time></trkpt><trkpt lat="44.3490667" lon="9.3476483"><ele>23.0</ele><time>2026-03-28T14:59:00.012Z</time></trkpt><trkpt lat="44.349175" lon="9.3476233"><ele>22.799999999999997</ele><time>2026-03-28T14:59:01.012Z</time></trkpt><trkpt lat="44.34929" lon="9.3475933"><ele>22.6</ele><time>2026-03-28T14:59:02.012Z</time></trkpt><trkpt lat="44.3493967" lon="9.347565"><ele>22.4</ele><time>2026-03-28T14:59:03.012Z</time></trkpt><trkpt lat="44.349485" lon="9.34755"><ele>22.200000000000003</ele><time>2026-03-28T14:59:04.012Z</time></trkpt><trkpt lat="44.3495717" lon="9.3474983"><ele>22.0</ele><time>2026-03-28T14:59:05.012Z</time></trkpt><trkpt lat="44.349655" lon="9.3474483"><ele>23.0</ele><time>2026-03-28T14:59:06.012Z</time></trkpt><trkpt lat="44.3497283" lon="9.347375"><ele>24.0</ele><time>2026-03-28T14:59:07.012Z</time></trkpt><trkpt lat="44.3498083" lon="9.3472667"><ele>25.000000000000004</ele><time>2026-03-28T14:59:08.012Z</time></trkpt><trkpt lat="44.3498683" lon="9.3471267"><ele>26.0</ele><time>2026-03-28T14:59:09.012Z</time></trkpt><trkpt lat="44.3499017" lon="9.3469783"><ele>27.0</ele><time>2026-03-28T14:59:10.012Z</time></trkpt><trkpt lat="44.3499217" lon="9.3468233"><ele>27.0</ele><time>2026-03-28T14:59:11.012Z</time></trkpt><trkpt lat="44.3499383" lon="9.34666"><ele>27.0</ele><time>2026-03-28T14:59:12.012Z</time></trkpt><trkpt lat="44.3499467" lon="9.3464833"><ele>27.0</ele><time>2026-03-28T14:59:13.012Z</time></trkpt><trkpt lat="44.34995" lon="9.346305"><ele>27.0</ele><time>2026-03-28T14:59:14.012Z</time></trkpt><trkpt lat="44.34997" lon="9.346115"><ele>27.0</ele><time>2026-03-28T14:59:15.011Z</time></trkpt><trkpt lat="44.3499833" lon="9.345925"><ele>27.0</ele><time>2026-03-28T14:59:16.012Z</time></trkpt><trkpt lat="44.349995" lon="9.3457267"><ele>27.0</ele><time>2026-03-28T14:59:17.012Z</time></trkpt><trkpt lat="44.350005" lon="9.3455433"><ele>27.0</ele><time>2026-03-28T14:59:18.012Z</time></trkpt><trkpt lat="44.3500033" lon="9.3453817"><ele>27.0</ele><time>2026-03-28T14:59:19.012Z</time></trkpt><trkpt lat="44.350015" lon="9.3452267"><ele>27.0</ele><time>2026-03-28T14:59:20.011Z</time></trkpt><trkpt lat="44.35004" lon="9.34507"><ele>27.0</ele><time>2026-03-28T14:59:21.012Z</time></trkpt><trkpt lat="44.3500617" lon="9.344905"><ele>27.0</ele><time>2026-03-28T14:59:22.012Z</time></trkpt><trkpt lat="44.35008" lon="9.3447417"><ele>26.75</ele><time>2026-03-28T14:59:23.012Z</time></trkpt><trkpt lat="44.350085" lon="9.3445717"><ele>26.5</ele><time>2026-03-28T14:59:24.012Z</time></trkpt><trkpt lat="44.3500983" lon="9.3444083"><ele>26.25</ele><time>2026-03-28T14:59:25.012Z</time></trkpt><trkpt lat="44.350105" lon="9.344245"><ele>26.0</ele><time>2026-03-28T14:59:26.012Z</time></trkpt><trkpt lat="44.3501217" lon="9.344085"><ele>26.0</ele><time>2026-03-28T14:59:27.011Z</time></trkpt><trkpt lat="44.35014" lon="9.3439283"><ele>26.0</ele><time>2026-03-28T14:59:28.012Z</time></trkpt><trkpt lat="44.3501667" lon="9.343785"><ele>26.0</ele><time>2026-03-28T14:59:29.012Z</time></trkpt><trkpt lat="44.35021" lon="9.34367"><ele>26.0</ele><time>2026-03-28T14:59:30.012Z</time></trkpt><trkpt lat="44.350245" lon="9.34357"><ele>26.0</ele><time>2026-03-28T14:59:31.012Z</time></trkpt><trkpt lat="44.35027" lon="9.34346"><ele>26.0</ele><time>2026-03-28T14:59:32.012Z</time></trkpt><trkpt lat="44.3503" lon="9.3433333"><ele>26.0</ele><time>2026-03-28T14:59:33.012Z</time></trkpt><trkpt lat="44.3503317" lon="9.3432"><ele>26.0</ele><time>2026-03-28T14:59:34.012Z</time></trkpt><trkpt lat="44.3503767" lon="9.3430867"><ele>26.0</ele><time>2026-03-28T14:59:35.012Z</time></trkpt><trkpt lat="44.3504617" lon="9.3430017"><ele>26.0</ele><time>2026-03-28T14:59:36.012Z</time></trkpt><trkpt lat="44.350555" lon="9.3429317"><ele>26.0</ele><time>2026-03-28T14:59:37.012Z</time></trkpt><trkpt lat="44.3506683" lon="9.3428733"><ele>26.0</ele><time>2026-03-28T14:59:38.012Z</time></trkpt><trkpt lat="44.3507867" lon="9.34285"><ele>26.0</ele><time>2026-03-28T14:59:39.011Z</time></trkpt><trkpt lat="44.3509017" lon="9.34286"><ele>26.0</ele><time>2026-03-28T14:59:40.012Z</time></trkpt><trkpt lat="44.3510133" lon="9.3428817"><ele>26.0</ele><time>2026-03-28T14:59:41.012Z</time></trkpt><trkpt lat="44.3511317" lon="9.3429317"><ele>26.0</ele><time>2026-03-28T14:59:42.011Z</time></trkpt><trkpt lat="44.351245" lon="9.3429933"><ele>26.0</ele><time>2026-03-28T14:59:43.012Z</time></trkpt><trkpt lat="44.3513633" lon="9.3430683"><ele>26.0</ele><time>2026-03-28T14:59:44.012Z</time></trkpt><trkpt lat="44.3514783" lon="9.343145"><ele>26.25</ele><time>2026-03-28T14:59:45.012Z</time></trkpt><trkpt lat="44.3515883" lon="9.3432183"><ele>26.5</ele><time>2026-03-28T14:59:46.012Z</time></trkpt><trkpt lat="44.35169" lon="9.3432967"><ele>26.75</ele><time>2026-03-28T14:59:47.012Z</time></trkpt><trkpt lat="44.3517917" lon="9.3433567"><ele>27.0</ele><time>2026-03-28T14:59:48.012Z</time></trkpt><trkpt lat="44.3518883" lon="9.34342"><ele>27.0</ele><time>2026-03-28T14:59:49.012Z</time></trkpt><trkpt lat="44.35195" lon="9.3434783"><ele>27.000000000000004</ele><time>2026-03-28T14:59:50.012Z</time></trkpt><trkpt lat="44.352015" lon="9.3436183"><ele>27.000000000000004</ele><time>2026-03-28T14:59:52.012Z</time></trkpt><trkpt lat="44.3520783" lon="9.34377"><ele>27.0</ele><time>2026-03-28T14:59:54.012Z</time></trkpt><trkpt lat="44.3521267" lon="9.3438483"><ele>27.0</ele><time>2026-03-28T14:59:55.012Z</time></trkpt><trkpt lat="44.35218" lon="9.3439333"><ele>26.8</ele><time>2026-03-28T14:59:56.012Z</time></trkpt><trkpt lat="44.352215" lon="9.3440467"><ele>26.6</ele><time>2026-03-28T14:59:57.012Z</time></trkpt><trkpt lat="44.3522533" lon="9.344185"><ele>26.400000000000002</ele><time>2026-03-28T14:59:58.012Z</time></trkpt><trkpt lat="44.3522783" lon="9.3443417"><ele>26.200000000000003</ele><time>2026-03-28T14:59:59.011Z</time></trkpt><trkpt lat="44.3523083" lon="9.3445033"><ele>26.0</ele><time>2026-03-28T15:00:00.012Z</time></trkpt><trkpt lat="44.35233" lon="9.3446633"><ele>27.75</ele><time>2026-03-28T15:00:01.011Z</time></trkpt><trkpt lat="44.3523483" lon="9.34484"><ele>29.5</ele><time>2026-03-28T15:00:02.012Z</time></trkpt><trkpt lat="44.352385" lon="9.345025"><ele>31.25</ele><time>2026-03-28T15:00:03.012Z</time></trkpt><trkpt lat="44.3524333" lon="9.3451983"><ele>33.0</ele><time>2026-03-28T15:00:04.012Z</time></trkpt><trkpt lat="44.3524967" lon="9.3453583"><ele>33.0</ele><time>2026-03-28T15:00:05.012Z</time></trkpt><trkpt lat="44.3525783" lon="9.345505"><ele>33.0</ele><time>2026-03-28T15:00:06.012Z</time></trkpt><trkpt lat="44.3526467" lon="9.3456567"><ele>33.0</ele><time>2026-03-28T15:00:07.012Z</time></trkpt><trkpt lat="44.35273" lon="9.3458183"><ele>33.0</ele><time>2026-03-28T15:00:08.012Z</time></trkpt><trkpt lat="44.3527983" lon="9.3459883"><ele>40.0</ele><time>2026-03-28T15:00:09.011Z</time></trkpt><trkpt lat="44.3528617" lon="9.3461767"><ele>47.0</ele><time>2026-03-28T15:00:10.012Z</time></trkpt><trkpt lat="44.3529267" lon="9.3463617"><ele>54.0</ele><time>2026-03-28T15:00:11.012Z</time></trkpt><trkpt lat="44.353005" lon="9.3465617"><ele>49.333333333333336</ele><time>2026-03-28T15:00:12.012Z</time></trkpt><trkpt lat="44.3530817" lon="9.3467567"><ele>44.66666666666667</ele><time>2026-03-28T15:00:13.012Z</time></trkpt><trkpt lat="44.3531783" lon="9.346955"><ele>40.0</ele><time>2026-03-28T15:00:14.012Z</time></trkpt><trkpt lat="44.3532567" lon="9.347135"><ele>48.66666666666667</ele><time>2026-03-28T15:00:15.012Z</time></trkpt><trkpt lat="44.353375" lon="9.34731"><ele>57.333333333333336</ele><time>2026-03-28T15:00:16.012Z</time></trkpt><trkpt lat="44.3534867" lon="9.3474817"><ele>66.0</ele><time>2026-03-28T15:00:17.012Z</time></trkpt><trkpt lat="44.3536017" lon="9.3476683"><ele>66.0</ele><time>2026-03-28T15:00:18.012Z</time></trkpt><trkpt lat="44.35373" lon="9.3478567"><ele>66.0</ele><time>2026-03-28T15:00:19.012Z</time></trkpt><trkpt lat="44.3538567" lon="9.3480433"><ele>66.0</ele><time>2026-03-28T15:00:20.012Z</time></trkpt><trkpt lat="44.353965" lon="9.34822"><ele>59.333333333333336</ele><time>2026-03-28T15:00:21.012Z</time></trkpt><trkpt lat="44.35407" lon="9.34841"><ele>52.66666666666667</ele><time>2026-03-28T15:00:22.012Z</time></trkpt><trkpt lat="44.3541867" lon="9.3486"><ele>46.0</ele><time>2026-03-28T15:00:23.012Z</time></trkpt><trkpt lat="44.354295" lon="9.3487833"><ele>45.333333333333336</ele><time>2026-03-28T15:00:24.012Z</time></trkpt><trkpt lat="44.354415" lon="9.3489583"><ele>44.666666666666664</ele><time>2026-03-28T15:00:25.012Z</time></trkpt><trkpt lat="44.35455" lon="9.34911"><ele>44.0</ele><time>2026-03-28T15:00:26.012Z</time></trkpt><trkpt lat="44.3547183" lon="9.349235"><ele>44.0</ele><time>2026-03-28T15:00:27.011Z</time></trkpt><trkpt lat="44.3548533" lon="9.3493583"><ele>44.0</ele><time>2026-03-28T15:00:28.011Z</time></trkpt><trkpt lat="44.3550033" lon="9.3494883"><ele>44.0</ele><time>2026-03-28T15:00:29.012Z</time></trkpt><trkpt lat="44.3551617" lon="9.3496033"><ele>46.0</ele><time>2026-03-28T15:00:30.012Z</time></trkpt><trkpt lat="44.3553267" lon="9.34972"><ele>48.0</ele><time>2026-03-28T15:00:31.012Z</time></trkpt><trkpt lat="44.355475" lon="9.34983"><ele>50.0</ele><time>2026-03-28T15:00:32.011Z</time></trkpt><trkpt lat="44.3556283" lon="9.3499467"><ele>50.0</ele><time>2026-03-28T15:00:33.012Z</time></trkpt><trkpt lat="44.3558017" lon="9.35006"><ele>50.0</ele><time>2026-03-28T15:00:34.012Z</time></trkpt><trkpt lat="44.3559867" lon="9.3501583"><ele>50.0</ele><time>2026-03-28T15:00:35.011Z</time></trkpt><trkpt lat="44.35617" lon="9.35025"><ele>50.0</ele><time>2026-03-28T15:00:36.012Z</time></trkpt><trkpt lat="44.35635" lon="9.35034"><ele>50.0</ele><time>2026-03-28T15:00:37.012Z</time></trkpt><trkpt lat="44.356515" lon="9.3504267"><ele>50.0</ele><time>2026-03-28T15:00:38.012Z</time></trkpt><trkpt lat="44.3566717" lon="9.3504967"><ele>52.0</ele><time>2026-03-28T15:00:39.012Z</time></trkpt><trkpt lat="44.3568267" lon="9.3505567"><ele>54.0</ele><time>2026-03-28T15:00:40.012Z</time></trkpt><trkpt lat="44.35698" lon="9.35059"><ele>56.0</ele><time>2026-03-28T15:00:41.012Z</time></trkpt><trkpt lat="44.3571467" lon="9.3505917"><ele>53.0</ele><time>2026-03-28T15:00:42.012Z</time></trkpt><trkpt lat="44.35731" lon="9.3505633"><ele>50.0</ele><time>2026-03-28T15:00:43.012Z</time></trkpt><trkpt lat="44.357485" lon="9.3505167"><ele>47.0</ele><time>2026-03-28T15:00:44.011Z</time></trkpt><trkpt lat="44.3576533" lon="9.35047"><ele>43.33333333333333</ele><time>2026-03-28T15:00:45.012Z</time></trkpt><trkpt lat="44.3578117" lon="9.350415"><ele>39.666666666666664</ele><time>2026-03-28T15:00:46.011Z</time></trkpt><trkpt lat="44.3579583" lon="9.3503767"><ele>36.0</ele><time>2026-03-28T15:00:47.011Z</time></trkpt><trkpt lat="44.3581083" lon="9.3503583"><ele>36.0</ele><time>2026-03-28T15:00:48.012Z</time></trkpt><trkpt lat="44.3582567" lon="9.3503817"><ele>36.0</ele><time>2026-03-28T15:00:49.012Z</time></trkpt><trkpt lat="44.3584117" lon="9.350415"><ele>36.0</ele><time>2026-03-28T15:00:50.012Z</time></trkpt><trkpt lat="44.3585583" lon="9.3505117"><ele>36.0</ele><time>2026-03-28T15:00:51.012Z</time></trkpt><trkpt lat="44.3586867" lon="9.3506533"><ele>36.0</ele><time>2026-03-28T15:00:52.011Z</time></trkpt><trkpt lat="44.3588033" lon="9.35083"><ele>36.0</ele><time>2026-03-28T15:00:53.012Z</time></trkpt><trkpt lat="44.358895" lon="9.3510267"><ele>36.0</ele><time>2026-03-28T15:00:54.012Z</time></trkpt><trkpt lat="44.3589867" lon="9.351235"><ele>36.0</ele><time>2026-03-28T15:00:55.012Z</time></trkpt><trkpt lat="44.3590733" lon="9.3514483"><ele>36.0</ele><time>2026-03-28T15:00:56.012Z</time></trkpt><trkpt lat="44.3591583" lon="9.3516667"><ele>37.333333333333336</ele><time>2026-03-28T15:00:57.011Z</time></trkpt><trkpt lat="44.359255" lon="9.35187"><ele>38.66666666666667</ele><time>2026-03-28T15:00:58.012Z</time></trkpt><trkpt lat="44.35937" lon="9.3520667"><ele>40.0</ele><time>2026-03-28T15:00:59.012Z</time></trkpt><trkpt lat="44.3595017" lon="9.3522567"><ele>40.0</ele><time>2026-03-28T15:01:00.011Z</time></trkpt><trkpt lat="44.359635" lon="9.3524267"><ele>40.0</ele><time>2026-03-28T15:01:01.012Z</time></trkpt><trkpt lat="44.3597783" lon="9.352595"><ele>40.0</ele><time>2026-03-28T15:01:02.012Z</time></trkpt><trkpt lat="44.3599367" lon="9.3527567"><ele>40.0</ele><time>2026-03-28T15:01:03.012Z</time></trkpt><trkpt lat="44.36008" lon="9.3529233"><ele>40.0</ele><time>2026-03-28T15:01:04.012Z</time></trkpt><trkpt lat="44.3602233" lon="9.3530783"><ele>40.0</ele><time>2026-03-28T15:01:05.012Z</time></trkpt><trkpt lat="44.36036" lon="9.3532433"><ele>39.66666666666667</ele><time>2026-03-28T15:01:06.012Z</time></trkpt><trkpt lat="44.36048" lon="9.3534317"><ele>39.333333333333336</ele><time>2026-03-28T15:01:07.012Z</time></trkpt><trkpt lat="44.36056" lon="9.3536517"><ele>39.0</ele><time>2026-03-28T15:01:08.011Z</time></trkpt><trkpt lat="44.360645" lon="9.3538783"><ele>42.66666666666667</ele><time>2026-03-28T15:01:09.012Z</time></trkpt><trkpt lat="44.3607217" lon="9.3540933"><ele>46.333333333333336</ele><time>2026-03-28T15:01:10.012Z</time></trkpt><trkpt lat="44.3607917" lon="9.3543167"><ele>50.0</ele><time>2026-03-28T15:01:11.012Z</time></trkpt><trkpt lat="44.3608617" lon="9.35453"><ele>57.333333333333336</ele><time>2026-03-28T15:01:12.012Z</time></trkpt><trkpt lat="44.3609383" lon="9.354755"><ele>64.66666666666667</ele><time>2026-03-28T15:01:13.012Z</time></trkpt><trkpt lat="44.3610183" lon="9.3549733"><ele>72.0</ele><time>2026-03-28T15:01:14.012Z</time></trkpt><trkpt lat="44.3611183" lon="9.355175"><ele>72.0</ele><time>2026-03-28T15:01:15.012Z</time></trkpt><trkpt lat="44.36122" lon="9.3553683"><ele>72.0</ele><time>2026-03-28T15:01:16.012Z</time></trkpt><trkpt lat="44.3613167" lon="9.355565"><ele>72.0</ele><time>2026-03-28T15:01:17.012Z</time></trkpt><trkpt lat="44.3614" lon="9.3557867"><ele>67.33333333333333</ele><time>2026-03-28T15:01:18.012Z</time></trkpt><trkpt lat="44.3614667" lon="9.35602"><ele>62.666666666666664</ele><time>2026-03-28T15:01:19.012Z</time></trkpt><trkpt lat="44.3615233" lon="9.3562517"><ele>58.0</ele><time>2026-03-28T15:01:20.012Z</time></trkpt><trkpt lat="44.3615717" lon="9.3564817"><ele>58.0</ele><time>2026-03-28T15:01:21.012Z</time></trkpt><trkpt lat="44.36162" lon="9.3567133"><ele>58.0</ele><time>2026-03-28T15:01:22.012Z</time></trkpt><trkpt lat="44.3616717" lon="9.35692"><ele>58.0</ele><time>2026-03-28T15:01:23.011Z</time></trkpt><trkpt lat="44.36175" lon="9.3570883"><ele>59.25</ele><time>2026-03-28T15:01:24.012Z</time></trkpt><trkpt lat="44.3618483" lon="9.35721"><ele>60.5</ele><time>2026-03-28T15:01:25.012Z</time></trkpt><trkpt lat="44.3619783" lon="9.3573117"><ele>61.75</ele><time>2026-03-28T15:01:26.011Z</time></trkpt><trkpt lat="44.36211" lon="9.3573783"><ele>63.0</ele><time>2026-03-28T15:01:27.011Z</time></trkpt><trkpt lat="44.3622617" lon="9.3574083"><ele>63.0</ele><time>2026-03-28T15:01:28.011Z</time></trkpt><trkpt lat="44.3624233" lon="9.3574133"><ele>63.0</ele><time>2026-03-28T15:01:29.012Z</time></trkpt><trkpt lat="44.3625883" lon="9.3574117"><ele>63.0</ele><time>2026-03-28T15:01:30.012Z</time></trkpt><trkpt lat="44.3627667" lon="9.3574233"><ele>63.0</ele><time>2026-03-28T15:01:31.012Z</time></trkpt><trkpt lat="44.3629767" lon="9.3574283"><ele>63.0</ele><time>2026-03-28T15:01:32.012Z</time></trkpt><trkpt lat="44.36316" lon="9.35744"><ele>63.0</ele><time>2026-03-28T15:01:33.012Z</time></trkpt><trkpt lat="44.3633267" lon="9.35746"><ele>58.0</ele><time>2026-03-28T15:01:34.012Z</time></trkpt><trkpt lat="44.3635083" lon="9.3574833"><ele>53.0</ele><time>2026-03-28T15:01:35.012Z</time></trkpt><trkpt lat="44.3636883" lon="9.3575117"><ele>48.0</ele><time>2026-03-28T15:01:36.012Z</time></trkpt><trkpt lat="44.363865" lon="9.3575217"><ele>47.333333333333336</ele><time>2026-03-28T15:01:37.012Z</time></trkpt><trkpt lat="44.3640383" lon="9.3575183"><ele>46.66666666666667</ele><time>2026-03-28T15:01:38.011Z</time></trkpt><trkpt lat="44.3642067" lon="9.35754"><ele>46.0</ele><time>2026-03-28T15:01:39.012Z</time></trkpt><trkpt lat="44.364365" lon="9.35756"><ele>46.0</ele><time>2026-03-28T15:01:40.012Z</time></trkpt><trkpt lat="44.3645267" lon="9.357575"><ele>46.0</ele><time>2026-03-28T15:01:41.012Z</time></trkpt><trkpt lat="44.3646833" lon="9.357585"><ele>46.0</ele><time>2026-03-28T15:01:42.012Z</time></trkpt><trkpt lat="44.3648367" lon="9.3576033"><ele>48.0</ele><time>2026-03-28T15:01:43.012Z</time></trkpt><trkpt lat="44.3649733" lon="9.35762"><ele>50.0</ele><time>2026-03-28T15:01:44.012Z</time></trkpt><trkpt lat="44.3651267" lon="9.3576383"><ele>52.0</ele><time>2026-03-28T15:01:45.011Z</time></trkpt><trkpt lat="44.365285" lon="9.357655"><ele>52.0</ele><time>2026-03-28T15:01:46.012Z</time></trkpt><trkpt lat="44.365445" lon="9.357675"><ele>52.0</ele><time>2026-03-28T15:01:47.012Z</time></trkpt><trkpt lat="44.3656067" lon="9.35768"><ele>52.0</ele><time>2026-03-28T15:01:48.012Z</time></trkpt><trkpt lat="44.3657517" lon="9.357695"><ele>53.0</ele><time>2026-03-28T15:01:49.012Z</time></trkpt><trkpt lat="44.3659033" lon="9.3576867"><ele>54.0</ele><time>2026-03-28T15:01:50.012Z</time></trkpt><trkpt lat="44.36604" lon="9.3576467"><ele>55.0</ele><time>2026-03-28T15:01:51.012Z</time></trkpt><trkpt lat="44.36617" lon="9.3575583"><ele>56.0</ele><time>2026-03-28T15:01:52.012Z</time></trkpt><trkpt lat="44.3662933" lon="9.3574417"><ele>56.25</ele><time>2026-03-28T15:01:53.012Z</time></trkpt><trkpt lat="44.3664233" lon="9.3573333"><ele>56.5</ele><time>2026-03-28T15:01:54.012Z</time></trkpt><trkpt lat="44.36654" lon="9.35723"><ele>56.75</ele><time>2026-03-28T15:01:55.012Z</time></trkpt><trkpt lat="44.3666567" lon="9.3571333"><ele>57.0</ele><time>2026-03-28T15:01:56.012Z</time></trkpt><trkpt lat="44.3667917" lon="9.35705"><ele>57.0</ele><time>2026-03-28T15:01:57.012Z</time></trkpt><trkpt lat="44.36693" lon="9.3569667"><ele>57.0</ele><time>2026-03-28T15:01:58.012Z</time></trkpt><trkpt lat="44.3670817" lon="9.35691"><ele>57.0</ele><time>2026-03-28T15:01:59.012Z</time></trkpt><trkpt lat="44.3672467" lon="9.3568617"><ele>61.0</ele><time>2026-03-28T15:02:00.011Z</time></trkpt><trkpt lat="44.36741" lon="9.35682"><ele>65.0</ele><time>2026-03-28T15:02:01.012Z</time></trkpt><trkpt lat="44.3675767" lon="9.3567833"><ele>69.0</ele><time>2026-03-28T15:02:02.012Z</time></trkpt><trkpt lat="44.367735" lon="9.3567517"><ele>69.0</ele><time>2026-03-28T15:02:03.012Z</time></trkpt><trkpt lat="44.3678933" lon="9.3567283"><ele>69.0</ele><time>2026-03-28T15:02:04.012Z</time></trkpt><trkpt lat="44.36804" lon="9.3567033"><ele>69.0</ele><time>2026-03-28T15:02:05.012Z</time></trkpt><trkpt lat="44.3681817" lon="9.3566383"><ele>69.25</ele><time>2026-03-28T15:02:06.012Z</time></trkpt><trkpt lat="44.3683217" lon="9.3565633"><ele>69.5</ele><time>2026-03-28T15:02:07.012Z</time></trkpt><trkpt lat="44.3684483" lon="9.3564517"><ele>69.75</ele><time>2026-03-28T15:02:08.012Z</time></trkpt><trkpt lat="44.3685567" lon="9.35632"><ele>70.0</ele><time>2026-03-28T15:02:09.012Z</time></trkpt><trkpt lat="44.3686617" lon="9.3561967"><ele>70.0</ele><time>2026-03-28T15:02:10.012Z</time></trkpt><trkpt lat="44.3687617" lon="9.3561033"><ele>70.0</ele><time>2026-03-28T15:02:11.011Z</time></trkpt><trkpt lat="44.3688533" lon="9.356055"><ele>70.0</ele><time>2026-03-28T15:02:12.011Z</time></trkpt><trkpt lat="44.3689483" lon="9.35605"><ele>70.0</ele><time>2026-03-28T15:02:13.012Z</time></trkpt><trkpt lat="44.3690433" lon="9.3561217"><ele>70.0</ele><time>2026-03-28T15:02:14.011Z</time></trkpt><trkpt lat="44.3691433" lon="9.3561917"><ele>68.5</ele><time>2026-03-28T15:02:15.012Z</time></trkpt><trkpt lat="44.3692483" lon="9.3562817"><ele>67.0</ele><time>2026-03-28T15:02:16.012Z</time></trkpt><trkpt lat="44.3693667" lon="9.3563633"><ele>65.5</ele><time>2026-03-28T15:02:17.012Z</time></trkpt><trkpt lat="44.3694867" lon="9.356455"><ele>64.0</ele><time>2026-03-28T15:02:18.012Z</time></trkpt><trkpt lat="44.3696133" lon="9.3565267"><ele>70.5</ele><time>2026-03-28T15:02:19.012Z</time></trkpt><trkpt lat="44.3697567" lon="9.35658"><ele>77.0</ele><time>2026-03-28T15:02:20.012Z</time></trkpt><trkpt lat="44.3698933" lon="9.35664"><ele>83.5</ele><time>2026-03-28T15:02:21.012Z</time></trkpt><trkpt lat="44.37004" lon="9.3566583"><ele>90.0</ele><time>2026-03-28T15:02:22.011Z</time></trkpt><trkpt lat="44.3701867" lon="9.3566833"><ele>90.0</ele><time>2026-03-28T15:02:23.012Z</time></trkpt><trkpt lat="44.3703333" lon="9.3567183"><ele>90.0</ele><time>2026-03-28T15:02:24.012Z</time></trkpt><trkpt lat="44.37047" lon="9.3567667"><ele>90.0</ele><time>2026-03-28T15:02:25.012Z</time></trkpt><trkpt lat="44.37057" lon="9.3568367"><ele>90.0</ele><time>2026-03-28T15:02:26.012Z</time></trkpt><trkpt lat="44.3706767" lon="9.35694"><ele>90.75</ele><time>2026-03-28T15:02:27.012Z</time></trkpt><trkpt lat="44.3707617" lon="9.357105"><ele>91.5</ele><time>2026-03-28T15:02:28.012Z</time></trkpt><trkpt lat="44.3708267" lon="9.357285"><ele>92.25</ele><time>2026-03-28T15:02:29.012Z</time></trkpt><trkpt lat="44.370885" lon="9.35747"><ele>93.0</ele><time>2026-03-28T15:02:30.012Z</time></trkpt><trkpt lat="44.3709317" lon="9.35765"><ele>93.0</ele><time>2026-03-28T15:02:31.012Z</time></trkpt><trkpt lat="44.37096" lon="9.3578267"><ele>93.0</ele><time>2026-03-28T15:02:32.011Z</time></trkpt><trkpt lat="44.370955" lon="9.3580267"><ele>93.0</ele><time>2026-03-28T15:02:33.012Z</time></trkpt><trkpt lat="44.370945" lon="9.3582367"><ele>93.0</ele><time>2026-03-28T15:02:34.012Z</time></trkpt><trkpt lat="44.3709217" lon="9.3584517"><ele>95.0</ele><time>2026-03-28T15:02:35.011Z</time></trkpt><trkpt lat="44.3708883" lon="9.358645"><ele>97.0</ele><time>2026-03-28T15:02:36.012Z</time></trkpt><trkpt lat="44.3708583" lon="9.3588117"><ele>99.0</ele><time>2026-03-28T15:02:37.011Z</time></trkpt><trkpt lat="44.37088" lon="9.3589883"><ele>101.0</ele><time>2026-03-28T15:02:38.011Z</time></trkpt><trkpt lat="44.370905" lon="9.3591717"><ele>102.75</ele><time>2026-03-28T15:02:39.012Z</time></trkpt><trkpt lat="44.3709617" lon="9.3593533"><ele>104.5</ele><time>2026-03-28T15:02:40.012Z</time></trkpt><trkpt lat="44.3710333" lon="9.3595467"><ele>106.25</ele><time>2026-03-28T15:02:41.012Z</time></trkpt><trkpt lat="44.3710933" lon="9.359735"><ele>108.0</ele><time>2026-03-28T15:02:42.012Z</time></trkpt><trkpt lat="44.37113" lon="9.3599217"><ele>109.5</ele><time>2026-03-28T15:02:43.012Z</time></trkpt><trkpt lat="44.3711383" lon="9.3601083"><ele>111.0</ele><time>2026-03-28T15:02:44.012Z</time></trkpt><trkpt lat="44.371165" lon="9.3602867"><ele>112.5</ele><time>2026-03-28T15:02:45.012Z</time></trkpt><trkpt lat="44.3711967" lon="9.36044"><ele>114.0</ele><time>2026-03-28T15:02:46.011Z</time></trkpt><trkpt lat="44.371255" lon="9.36059"><ele>109.25</ele><time>2026-03-28T15:02:47.012Z</time></trkpt><trkpt lat="44.3713617" lon="9.3606983"><ele>104.5</ele><time>2026-03-28T15:02:48.012Z</time></trkpt><trkpt lat="44.37146" lon="9.3607933"><ele>99.75</ele><time>2026-03-28T15:02:49.012Z</time></trkpt><trkpt lat="44.3715817" lon="9.3608583"><ele>95.0</ele><time>2026-03-28T15:02:50.012Z</time></trkpt><trkpt lat="44.3717217" lon="9.360875"><ele>95.0</ele><time>2026-03-28T15:02:51.012Z</time></trkpt><trkpt lat="44.3718833" lon="9.3608617"><ele>95.0</ele><time>2026-03-28T15:02:52.012Z</time></trkpt><trkpt lat="44.372045" lon="9.3608483"><ele>95.0</ele><time>2026-03-28T15:02:53.012Z</time></trkpt><trkpt lat="44.3721967" lon="9.36085"><ele>92.0</ele><time>2026-03-28T15:02:54.012Z</time></trkpt><trkpt lat="44.3723567" lon="9.3608583"><ele>89.0</ele><time>2026-03-28T15:02:55.012Z</time></trkpt><trkpt lat="44.3724983" lon="9.3608633"><ele>86.0</ele><time>2026-03-28T15:02:56.012Z</time></trkpt><trkpt lat="44.372645" lon="9.3608567"><ele>83.0</ele><time>2026-03-28T15:02:57.012Z</time></trkpt><trkpt lat="44.372795" lon="9.3608433"><ele>83.0</ele><time>2026-03-28T15:02:58.012Z</time></trkpt><trkpt lat="44.3729567" lon="9.3608483"><ele>83.0</ele><time>2026-03-28T15:02:59.011Z</time></trkpt><trkpt lat="44.3731033" lon="9.3608517"><ele>83.0</ele><time>2026-03-28T15:03:00.012Z</time></trkpt><trkpt lat="44.3732533" lon="9.3608433"><ele>81.0</ele><time>2026-03-28T15:03:01.012Z</time></trkpt><trkpt lat="44.373395" lon="9.3608283"><ele>79.0</ele><time>2026-03-28T15:03:02.011Z</time></trkpt><trkpt lat="44.3735317" lon="9.360825"><ele>77.0</ele><time>2026-03-28T15:03:03.011Z</time></trkpt><trkpt lat="44.3736667" lon="9.3608033"><ele>75.0</ele><time>2026-03-28T15:03:04.012Z</time></trkpt><trkpt lat="44.373765" lon="9.3608733"><ele>75.0</ele><time>2026-03-28T15:03:05.011Z</time></trkpt><trkpt lat="44.3738467" lon="9.3609617"><ele>75.0</ele><time>2026-03-28T15:03:06.012Z</time></trkpt><trkpt lat="44.3738067" lon="9.3611533"><ele>75.0</ele><time>2026-03-28T15:03:07.012Z</time></trkpt><trkpt lat="44.3737217" lon="9.3613367"><ele>75.0</ele><time>2026-03-28T15:03:08.012Z</time></trkpt><trkpt lat="44.3736433" lon="9.361515"><ele>79.75</ele><time>2026-03-28T15:03:09.012Z</time></trkpt><trkpt lat="44.3735833" lon="9.3616917"><ele>84.5</ele><time>2026-03-28T15:03:10.012Z</time></trkpt><trkpt lat="44.3735217" lon="9.361875"><ele>89.25</ele><time>2026-03-28T15:03:11.012Z</time></trkpt><trkpt lat="44.3734633" lon="9.3620433"><ele>94.0</ele><time>2026-03-28T15:03:12.012Z</time></trkpt><trkpt lat="44.3734117" lon="9.362185"><ele>94.80000000000001</ele><time>2026-03-28T15:03:13.012Z</time></trkpt><trkpt lat="44.3733783" lon="9.36232"><ele>95.60000000000001</ele><time>2026-03-28T15:03:14.012Z</time></trkpt><trkpt lat="44.373385" lon="9.3624917"><ele>96.4</ele><time>2026-03-28T15:03:15.012Z</time></trkpt><trkpt lat="44.3734183" lon="9.36264"><ele>97.2</ele><time>2026-03-28T15:03:16.011Z</time></trkpt><trkpt lat="44.3734967" lon="9.3627467"><ele>98.0</ele><time>2026-03-28T15:03:17.012Z</time></trkpt><trkpt lat="44.3736017" lon="9.3628367"><ele>98.0</ele><time>2026-03-28T15:03:18.012Z</time></trkpt><trkpt lat="44.3737183" lon="9.362905"><ele>98.0</ele><time>2026-03-28T15:03:19.012Z</time></trkpt><trkpt lat="44.3738383" lon="9.3629883"><ele>98.0</ele><time>2026-03-28T15:03:20.012Z</time></trkpt><trkpt lat="44.3739717" lon="9.3630683"><ele>98.0</ele><time>2026-03-28T15:03:21.012Z</time></trkpt><trkpt lat="44.3741033" lon="9.363165"><ele>96.0</ele><time>2026-03-28T15:03:22.012Z</time></trkpt><trkpt lat="44.3742317" lon="9.363275"><ele>94.0</ele><time>2026-03-28T15:03:23.012Z</time></trkpt><trkpt lat="44.3743483" lon="9.3633833"><ele>92.0</ele><time>2026-03-28T15:03:24.011Z</time></trkpt><trkpt lat="44.3744383" lon="9.3634983"><ele>90.0</ele><time>2026-03-28T15:03:25.012Z</time></trkpt><trkpt lat="44.3745067" lon="9.3636183"><ele>90.0</ele><time>2026-03-28T15:03:26.012Z</time></trkpt><trkpt lat="44.3745567" lon="9.3637383"><ele>90.0</ele><time>2026-03-28T15:03:27.012Z</time></trkpt><trkpt lat="44.3745917" lon="9.3638767"><ele>90.0</ele><time>2026-03-28T15:03:28.012Z</time></trkpt><trkpt lat="44.374605" lon="9.3640433"><ele>90.0</ele><time>2026-03-28T15:03:29.012Z</time></trkpt><trkpt lat="44.374635" lon="9.364195"><ele>90.0</ele><time>2026-03-28T15:03:30.012Z</time></trkpt><trkpt lat="44.3746917" lon="9.3643333"><ele>87.5</ele><time>2026-03-28T15:03:31.012Z</time></trkpt><trkpt lat="44.3747717" lon="9.3644533"><ele>85.0</ele><time>2026-03-28T15:03:32.011Z</time></trkpt><trkpt lat="44.3748733" lon="9.3645617"><ele>82.5</ele><time>2026-03-28T15:03:33.012Z</time></trkpt><trkpt lat="44.3749917" lon="9.3646633"><ele>80.0</ele><time>2026-03-28T15:03:34.012Z</time></trkpt><trkpt lat="44.3751183" lon="9.364765"><ele>78.25</ele><time>2026-03-28T15:03:35.012Z</time></trkpt><trkpt lat="44.37525" lon="9.3648733"><ele>76.5</ele><time>2026-03-28T15:03:36.012Z</time></trkpt><trkpt lat="44.3753767" lon="9.364975"><ele>74.75</ele><time>2026-03-28T15:03:37.012Z</time></trkpt><trkpt lat="44.3754867" lon="9.365095"><ele>73.0</ele><time>2026-03-28T15:03:38.012Z</time></trkpt><trkpt lat="44.3755733" lon="9.3652383"><ele>73.0</ele><time>2026-03-28T15:03:39.012Z</time></trkpt><trkpt lat="44.3756467" lon="9.3653817"><ele>73.0</ele><time>2026-03-28T15:03:40.012Z</time></trkpt><trkpt lat="44.3756867" lon="9.36556"><ele>73.0</ele><time>2026-03-28T15:03:41.012Z</time></trkpt><trkpt lat="44.3757417" lon="9.3657317"><ele>73.0</ele><time>2026-03-28T15:03:42.012Z</time></trkpt><trkpt lat="44.37581" lon="9.365885"><ele>76.5</ele><time>2026-03-28T15:03:43.012Z</time></trkpt><trkpt lat="44.375905" lon="9.366015"><ele>80.0</ele><time>2026-03-28T15:03:44.012Z</time></trkpt><trkpt lat="44.3760167" lon="9.3661233"><ele>83.5</ele><time>2026-03-28T15:03:45.012Z</time></trkpt><trkpt lat="44.3761433" lon="9.36622"><ele>87.0</ele><time>2026-03-28T15:03:46.012Z</time></trkpt><trkpt lat="44.3762683" lon="9.3663183"><ele>84.33333333333333</ele><time>2026-03-28T15:03:47.012Z</time></trkpt><trkpt lat="44.3763883" lon="9.36644"><ele>81.66666666666666</ele><time>2026-03-28T15:03:48.012Z</time></trkpt><trkpt lat="44.3765167" lon="9.3665667"><ele>79.0</ele><time>2026-03-28T15:03:49.011Z</time></trkpt><trkpt lat="44.3766367" lon="9.3667133"><ele>79.0</ele><time>2026-03-28T15:03:50.012Z</time></trkpt><trkpt lat="44.3767717" lon="9.3668467"><ele>79.0</ele><time>2026-03-28T15:03:51.011Z</time></trkpt><trkpt lat="44.3769" lon="9.3669683"><ele>79.0</ele><time>2026-03-28T15:03:52.012Z</time></trkpt><trkpt lat="44.37704" lon="9.3670833"><ele>77.5</ele><time>2026-03-28T15:03:53.011Z</time></trkpt><trkpt lat="44.37716" lon="9.367205"><ele>76.0</ele><time>2026-03-28T15:03:54.012Z</time></trkpt><trkpt lat="44.3772783" lon="9.3673367"><ele>74.5</ele><time>2026-03-28T15:03:55.012Z</time></trkpt><trkpt lat="44.3773883" lon="9.3674567"><ele>73.0</ele><time>2026-03-28T15:03:56.012Z</time></trkpt><trkpt lat="44.3774867" lon="9.3676033"><ele>73.0</ele><time>2026-03-28T15:03:57.012Z</time></trkpt><trkpt lat="44.3775883" lon="9.3677483"><ele>73.0</ele><time>2026-03-28T15:03:58.011Z</time></trkpt><trkpt lat="44.3776867" lon="9.3679033"><ele>73.0</ele><time>2026-03-28T15:03:59.012Z</time></trkpt><trkpt lat="44.3777817" lon="9.368085"><ele>70.66666666666666</ele><time>2026-03-28T15:04:00.012Z</time></trkpt><trkpt lat="44.3778767" lon="9.3682717"><ele>68.33333333333333</ele><time>2026-03-28T15:04:01.011Z</time></trkpt><trkpt lat="44.377975" lon="9.3684483"><ele>66.0</ele><time>2026-03-28T15:04:02.012Z</time></trkpt><trkpt lat="44.3780817" lon="9.368615"><ele>66.0</ele><time>2026-03-28T15:04:03.012Z</time></trkpt><trkpt lat="44.3782017" lon="9.3687833"><ele>66.0</ele><time>2026-03-28T15:04:04.012Z</time></trkpt><trkpt lat="44.3783183" lon="9.3689533"><ele>66.0</ele><time>2026-03-28T15:04:05.012Z</time></trkpt><trkpt lat="44.3784117" lon="9.3691317"><ele>71.33333333333333</ele><time>2026-03-28T15:04:06.012Z</time></trkpt><trkpt lat="44.37853" lon="9.3693033"><ele>76.66666666666666</ele><time>2026-03-28T15:04:07.012Z</time></trkpt><trkpt lat="44.3786467" lon="9.369475"><ele>82.0</ele><time>2026-03-28T15:04:08.012Z</time></trkpt><trkpt lat="44.3787583" lon="9.36965"><ele>80.33333333333333</ele><time>2026-03-28T15:04:09.012Z</time></trkpt><trkpt lat="44.37887" lon="9.3698167"><ele>78.66666666666667</ele><time>2026-03-28T15:04:10.011Z</time></trkpt><trkpt lat="44.37898" lon="9.3699833"><ele>77.0</ele><time>2026-03-28T15:04:11.012Z</time></trkpt><trkpt lat="44.379085" lon="9.37015"><ele>77.0</ele><time>2026-03-28T15:04:12.012Z</time></trkpt><trkpt lat="44.3792017" lon="9.3703217"><ele>77.0</ele><time>2026-03-28T15:04:13.011Z</time></trkpt><trkpt lat="44.37932" lon="9.370485"><ele>77.0</ele><time>2026-03-28T15:04:14.012Z</time></trkpt><trkpt lat="44.3794417" lon="9.3706517"><ele>76.66666666666667</ele><time>2026-03-28T15:04:15.012Z</time></trkpt><trkpt lat="44.3795617" lon="9.3708117"><ele>76.33333333333333</ele><time>2026-03-28T15:04:16.012Z</time></trkpt><trkpt lat="44.3796883" lon="9.3709767"><ele>76.0</ele><time>2026-03-28T15:04:17.012Z</time></trkpt><trkpt lat="44.3798283" lon="9.37114"><ele>76.0</ele><time>2026-03-28T15:04:18.012Z</time></trkpt><trkpt lat="44.379955" lon="9.3713167"><ele>76.0</ele><time>2026-03-28T15:04:19.012Z</time></trkpt><trkpt lat="44.3800933" lon="9.3714917"><ele>76.0</ele><time>2026-03-28T15:04:20.011Z</time></trkpt><trkpt lat="44.38021" lon="9.3716567"><ele>73.0</ele><time>2026-03-28T15:04:21.012Z</time></trkpt><trkpt lat="44.38032" lon="9.371825"><ele>70.0</ele><time>2026-03-28T15:04:22.012Z</time></trkpt><trkpt lat="44.3804317" lon="9.3719883"><ele>67.0</ele><time>2026-03-28T15:04:23.012Z</time></trkpt><trkpt lat="44.3805267" lon="9.37215"><ele>69.25</ele><time>2026-03-28T15:04:24.012Z</time></trkpt><trkpt lat="44.3806383" lon="9.3723"><ele>71.5</ele><time>2026-03-28T15:04:25.011Z</time></trkpt><trkpt lat="44.380745" lon="9.3724417"><ele>73.75</ele><time>2026-03-28T15:04:26.012Z</time></trkpt><trkpt lat="44.3808483" lon="9.3725817"><ele>76.0</ele><time>2026-03-28T15:04:27.012Z</time></trkpt><trkpt lat="44.3809417" lon="9.372715"><ele>76.0</ele><time>2026-03-28T15:04:28.012Z</time></trkpt><trkpt lat="44.3810283" lon="9.3728417"><ele>76.0</ele><time>2026-03-28T15:04:29.012Z</time></trkpt><trkpt lat="44.3811067" lon="9.372965"><ele>76.0</ele><time>2026-03-28T15:04:30.012Z</time></trkpt><trkpt lat="44.38118" lon="9.373095"><ele>76.0</ele><time>2026-03-28T15:04:31.012Z</time></trkpt><trkpt lat="44.3812433" lon="9.3732217"><ele>76.75</ele><time>2026-03-28T15:04:32.012Z</time></trkpt><trkpt lat="44.3812967" lon="9.37338"><ele>77.5</ele><time>2026-03-28T15:04:33.012Z</time></trkpt><trkpt lat="44.381345" lon="9.3735533"><ele>78.25</ele><time>2026-03-28T15:04:34.012Z</time></trkpt><trkpt lat="44.381385" lon="9.3737233"><ele>79.0</ele><time>2026-03-28T15:04:35.011Z</time></trkpt><trkpt lat="44.3814317" lon="9.3738833"><ele>79.0</ele><time>2026-03-28T15:04:36.012Z</time></trkpt><trkpt lat="44.381495" lon="9.3740417"><ele>79.0</ele><time>2026-03-28T15:04:37.012Z</time></trkpt><trkpt lat="44.3815567" lon="9.3741867"><ele>79.0</ele><time>2026-03-28T15:04:38.012Z</time></trkpt><trkpt lat="44.3816283" lon="9.37433"><ele>79.0</ele><time>2026-03-28T15:04:39.011Z</time></trkpt><trkpt lat="44.381695" lon="9.3744783"><ele>79.0</ele><time>2026-03-28T15:04:40.012Z</time></trkpt><trkpt lat="44.3817533" lon="9.3746233"><ele>79.0</ele><time>2026-03-28T15:04:41.012Z</time></trkpt><trkpt lat="44.3818133" lon="9.374755"><ele>79.0</ele><time>2026-03-28T15:04:42.011Z</time></trkpt><trkpt lat="44.3818617" lon="9.37489"><ele>79.0</ele><time>2026-03-28T15:04:43.012Z</time></trkpt><trkpt lat="44.3818967" lon="9.375035"><ele>79.0</ele><time>2026-03-28T15:04:44.012Z</time></trkpt><trkpt lat="44.38193" lon="9.3751817"><ele>78.0</ele><time>2026-03-28T15:04:45.011Z</time></trkpt><trkpt lat="44.3819533" lon="9.3753167"><ele>77.0</ele><time>2026-03-28T15:04:46.012Z</time></trkpt><trkpt lat="44.38199" lon="9.3754333"><ele>76.0</ele><time>2026-03-28T15:04:47.011Z</time></trkpt><trkpt lat="44.3820317" lon="9.37555"><ele>75.0</ele><time>2026-03-28T15:04:48.012Z</time></trkpt><trkpt lat="44.382095" lon="9.3756617"><ele>74.0</ele><time>2026-03-28T15:04:49.012Z</time></trkpt><trkpt lat="44.3821833" lon="9.3757733"><ele>74.0</ele><time>2026-03-28T15:04:50.012Z</time></trkpt><trkpt lat="44.3822883" lon="9.3758817"><ele>74.0</ele><time>2026-03-28T15:04:51.012Z</time></trkpt><trkpt lat="44.3823917" lon="9.3759917"><ele>74.0</ele><time>2026-03-28T15:04:52.012Z</time></trkpt><trkpt lat="44.3825033" lon="9.3761017"><ele>74.0</ele><time>2026-03-28T15:04:53.012Z</time></trkpt><trkpt lat="44.382615" lon="9.376235"><ele>76.0</ele><time>2026-03-28T15:04:54.012Z</time></trkpt><trkpt lat="44.3827317" lon="9.3763533"><ele>78.0</ele><time>2026-03-28T15:04:55.012Z</time></trkpt><trkpt lat="44.3828467" lon="9.3765017"><ele>80.0</ele><time>2026-03-28T15:04:56.012Z</time></trkpt><trkpt lat="44.3829617" lon="9.3766517"><ele>80.0</ele><time>2026-03-28T15:04:57.012Z</time></trkpt><trkpt lat="44.383075" lon="9.3767967"><ele>80.0</ele><time>2026-03-28T15:04:58.011Z</time></trkpt><trkpt lat="44.3832" lon="9.3769417"><ele>80.0</ele><time>2026-03-28T15:04:59.012Z</time></trkpt><trkpt lat="44.3833267" lon="9.37708"><ele>83.33333333333334</ele><time>2026-03-28T15:05:00.011Z</time></trkpt><trkpt lat="44.383455" lon="9.377225"><ele>86.66666666666667</ele><time>2026-03-28T15:05:01.012Z</time></trkpt><trkpt lat="44.3835733" lon="9.3773667"><ele>90.0</ele><time>2026-03-28T15:05:02.012Z</time></trkpt><trkpt lat="44.3836833" lon="9.3775083"><ele>90.0</ele><time>2026-03-28T15:05:03.012Z</time></trkpt><trkpt lat="44.3838117" lon="9.3776217"><ele>90.0</ele><time>2026-03-28T15:05:04.012Z</time></trkpt><trkpt lat="44.3839267" lon="9.3777633"><ele>90.0</ele><time>2026-03-28T15:05:05.011Z</time></trkpt><trkpt lat="44.38403" lon="9.3779083"><ele>89.75</ele><time>2026-03-28T15:05:06.012Z</time></trkpt><trkpt lat="44.3841367" lon="9.3780517"><ele>89.5</ele><time>2026-03-28T15:05:07.011Z</time></trkpt><trkpt lat="44.3842467" lon="9.3781633"><ele>89.25</ele><time>2026-03-28T15:05:08.012Z</time></trkpt><trkpt lat="44.3843583" lon="9.3782683"><ele>89.0</ele><time>2026-03-28T15:05:09.011Z</time></trkpt><trkpt lat="44.3844867" lon="9.3783283"><ele>89.0</ele><time>2026-03-28T15:05:10.012Z</time></trkpt><trkpt lat="44.3846317" lon="9.3783767"><ele>89.0</ele><time>2026-03-28T15:05:11.012Z</time></trkpt><trkpt lat="44.3847633" lon="9.378425"><ele>89.0</ele><time>2026-03-28T15:05:12.012Z</time></trkpt><trkpt lat="44.38487" lon="9.3784717"><ele>89.0</ele><time>2026-03-28T15:05:13.012Z</time></trkpt><trkpt lat="44.3849817" lon="9.3785083"><ele>87.25</ele><time>2026-03-28T15:05:14.012Z</time></trkpt><trkpt lat="44.3851" lon="9.3785467"><ele>85.5</ele><time>2026-03-28T15:05:15.012Z</time></trkpt><trkpt lat="44.3852267" lon="9.378595"><ele>83.75</ele><time>2026-03-28T15:05:16.012Z</time></trkpt><trkpt lat="44.3853517" lon="9.3786367"><ele>82.0</ele><time>2026-03-28T15:05:17.012Z</time></trkpt><trkpt lat="44.38547" lon="9.378695"><ele>81.25</ele><time>2026-03-28T15:05:18.012Z</time></trkpt><trkpt lat="44.385615" lon="9.3787317"><ele>80.5</ele><time>2026-03-28T15:05:19.012Z</time></trkpt><trkpt lat="44.38575" lon="9.378795"><ele>79.75</ele><time>2026-03-28T15:05:20.012Z</time></trkpt><trkpt lat="44.38589" lon="9.37887"><ele>79.0</ele><time>2026-03-28T15:05:21.012Z</time></trkpt><trkpt lat="44.3860267" lon="9.3789567"><ele>80.0</ele><time>2026-03-28T15:05:22.012Z</time></trkpt><trkpt lat="44.3861583" lon="9.379035"><ele>81.0</ele><time>2026-03-28T15:05:23.012Z</time></trkpt><trkpt lat="44.3862783" lon="9.3791183"><ele>82.0</ele><time>2026-03-28T15:05:24.012Z</time></trkpt><trkpt lat="44.386385" lon="9.3792083"><ele>83.0</ele><time>2026-03-28T15:05:25.011Z</time></trkpt><trkpt lat="44.3864867" lon="9.3793"><ele>83.0</ele><time>2026-03-28T15:05:26.011Z</time></trkpt><trkpt lat="44.3865817" lon="9.3793883"><ele>83.0</ele><time>2026-03-28T15:05:27.012Z</time></trkpt><trkpt lat="44.3866683" lon="9.379485"><ele>83.0</ele><time>2026-03-28T15:05:28.012Z</time></trkpt><trkpt lat="44.3867467" lon="9.3795983"><ele>83.0</ele><time>2026-03-28T15:05:29.012Z</time></trkpt><trkpt lat="44.3868217" lon="9.3797533"><ele>84.5</ele><time>2026-03-28T15:05:30.011Z</time></trkpt><trkpt lat="44.3868917" lon="9.37991"><ele>86.0</ele><time>2026-03-28T15:05:31.012Z</time></trkpt><trkpt lat="44.3869617" lon="9.380065"><ele>87.5</ele><time>2026-03-28T15:05:32.012Z</time></trkpt><trkpt lat="44.387035" lon="9.3802067"><ele>89.0</ele><time>2026-03-28T15:05:33.012Z</time></trkpt><trkpt lat="44.38711" lon="9.3803183"><ele>90.25</ele><time>2026-03-28T15:05:34.011Z</time></trkpt><trkpt lat="44.3871883" lon="9.3804267"><ele>91.5</ele><time>2026-03-28T15:05:35.012Z</time></trkpt><trkpt lat="44.3872933" lon="9.380505"><ele>92.75</ele><time>2026-03-28T15:05:36.012Z</time></trkpt><trkpt lat="44.38741" lon="9.3805583"><ele>94.0</ele><time>2026-03-28T15:05:37.012Z</time></trkpt><trkpt lat="44.3875267" lon="9.3806083"><ele>94.0</ele><time>2026-03-28T15:05:38.011Z</time></trkpt><trkpt lat="44.3876417" lon="9.380645"><ele>94.0</ele><time>2026-03-28T15:05:39.012Z</time></trkpt><trkpt lat="44.3877467" lon="9.380675"><ele>94.0</ele><time>2026-03-28T15:05:40.011Z</time></trkpt><trkpt lat="44.3878633" lon="9.380685"><ele>94.0</ele><time>2026-03-28T15:05:41.012Z</time></trkpt><trkpt lat="44.38798" lon="9.380695"><ele>94.0</ele><time>2026-03-28T15:05:42.012Z</time></trkpt><trkpt lat="44.3880983" lon="9.3806983"><ele>94.0</ele><time>2026-03-28T15:05:43.011Z</time></trkpt><trkpt lat="44.3882167" lon="9.3806867"><ele>94.0</ele><time>2026-03-28T15:05:44.011Z</time></trkpt><trkpt lat="44.3883417" lon="9.3806717"><ele>94.0</ele><time>2026-03-28T15:05:45.012Z</time></trkpt><trkpt lat="44.3884583" lon="9.380645"><ele>94.0</ele><time>2026-03-28T15:05:46.012Z</time></trkpt><trkpt lat="44.3885833" lon="9.3805983"><ele>94.0</ele><time>2026-03-28T15:05:47.012Z</time></trkpt><trkpt lat="44.3887117" lon="9.3805417"><ele>94.0</ele><time>2026-03-28T15:05:48.012Z</time></trkpt><trkpt lat="44.3888383" lon="9.3804583"><ele>94.0</ele><time>2026-03-28T15:05:49.012Z</time></trkpt><trkpt lat="44.3889683" lon="9.38036"><ele>94.0</ele><time>2026-03-28T15:05:50.012Z</time></trkpt><trkpt lat="44.3890967" lon="9.3802417"><ele>94.0</ele><time>2026-03-28T15:05:51.012Z</time></trkpt><trkpt lat="44.3892383" lon="9.380145"><ele>94.0</ele><time>2026-03-28T15:05:52.012Z</time></trkpt><trkpt lat="44.3893767" lon="9.3800383"><ele>94.0</ele><time>2026-03-28T15:05:53.012Z</time></trkpt><trkpt lat="44.3894817" lon="9.3799117"><ele>94.0</ele><time>2026-03-28T15:05:54.012Z</time></trkpt><trkpt lat="44.3896017" lon="9.3797967"><ele>94.0</ele><time>2026-03-28T15:05:55.012Z</time></trkpt><trkpt lat="44.389695" lon="9.3796567"><ele>94.0</ele><time>2026-03-28T15:05:56.012Z</time></trkpt><trkpt lat="44.38979" lon="9.3795317"><ele>94.5</ele><time>2026-03-28T15:05:57.012Z</time></trkpt><trkpt lat="44.3899" lon="9.37941"><ele>95.0</ele><time>2026-03-28T15:05:58.012Z</time></trkpt><trkpt lat="44.3899933" lon="9.37926"><ele>95.5</ele><time>2026-03-28T15:05:59.011Z</time></trkpt><trkpt lat="44.390095" lon="9.379115"><ele>96.0</ele><time>2026-03-28T15:06:00.012Z</time></trkpt><trkpt lat="44.3902083" lon="9.3789733"><ele>96.0</ele><time>2026-03-28T15:06:01.012Z</time></trkpt><trkpt lat="44.3903333" lon="9.3788517"><ele>96.0</ele><time>2026-03-28T15:06:02.012Z</time></trkpt><trkpt lat="44.3904517" lon="9.3787183"><ele>96.0</ele><time>2026-03-28T15:06:03.012Z</time></trkpt><trkpt lat="44.3905733" lon="9.3785883"><ele>96.75</ele><time>2026-03-28T15:06:04.011Z</time></trkpt><trkpt lat="44.3906983" lon="9.37846"><ele>97.5</ele><time>2026-03-28T15:06:05.012Z</time></trkpt><trkpt lat="44.3908133" lon="9.37833"><ele>98.25</ele><time>2026-03-28T15:06:06.011Z</time></trkpt><trkpt lat="44.390925" lon="9.378205"><ele>99.0</ele><time>2026-03-28T15:06:07.012Z</time></trkpt><trkpt lat="44.39103" lon="9.3781117"><ele>99.0</ele><time>2026-03-28T15:06:08.012Z</time></trkpt><trkpt lat="44.3911383" lon="9.3780433"><ele>99.0</ele><time>2026-03-28T15:06:09.012Z</time></trkpt><trkpt lat="44.39124" lon="9.3780283"><ele>99.0</ele><time>2026-03-28T15:06:10.011Z</time></trkpt><trkpt lat="44.3913467" lon="9.3780417"><ele>99.0</ele><time>2026-03-28T15:06:11.011Z</time></trkpt><trkpt lat="44.3914517" lon="9.37813"><ele>99.0</ele><time>2026-03-28T15:06:12.012Z</time></trkpt><trkpt lat="44.3915483" lon="9.378235"><ele>99.0</ele><time>2026-03-28T15:06:13.011Z</time></trkpt><trkpt lat="44.3916333" lon="9.3783333"><ele>99.0</ele><time>2026-03-28T15:06:14.012Z</time></trkpt><trkpt lat="44.3917067" lon="9.3784133"><ele>99.0</ele><time>2026-03-28T15:06:15.012Z</time></trkpt><trkpt lat="44.3917633" lon="9.3784767"><ele>99.0</ele><time>2026-03-28T15:06:16.011Z</time></trkpt><trkpt lat="44.39184" lon="9.3785733"><ele>99.0</ele><time>2026-03-28T15:06:18.012Z</time></trkpt><trkpt lat="44.391905" lon="9.378685"><ele>99.0</ele><time>2026-03-28T15:06:20.012Z</time></trkpt><trkpt lat="44.3919667" lon="9.3788367"><ele>99.0</ele><time>2026-03-28T15:06:22.012Z</time></trkpt><trkpt lat="44.3920167" lon="9.3789117"><ele>99.0</ele><time>2026-03-28T15:06:23.012Z</time></trkpt><trkpt lat="44.3920883" lon="9.3789583"><ele>99.0</ele><time>2026-03-28T15:06:24.011Z</time></trkpt><trkpt lat="44.392195" lon="9.3789883"><ele>99.75</ele><time>2026-03-28T15:06:25.011Z</time></trkpt><trkpt lat="44.3923033" lon="9.3790067"><ele>100.5</ele><time>2026-03-28T15:06:26.012Z</time></trkpt><trkpt lat="44.3924383" lon="9.3790017"><ele>101.25</ele><time>2026-03-28T15:06:27.012Z</time></trkpt><trkpt lat="44.3925717" lon="9.379"><ele>102.0</ele><time>2026-03-28T15:06:28.012Z</time></trkpt><trkpt lat="44.3926967" lon="9.3789983"><ele>102.0</ele><time>2026-03-28T15:06:29.012Z</time></trkpt><trkpt lat="44.3928217" lon="9.3789933"><ele>102.0</ele><time>2026-03-28T15:06:30.012Z</time></trkpt><trkpt lat="44.3929417" lon="9.3789567"><ele>102.0</ele><time>2026-03-28T15:06:31.012Z</time></trkpt><trkpt lat="44.393055" lon="9.37893"><ele>102.0</ele><time>2026-03-28T15:06:32.012Z</time></trkpt><trkpt lat="44.3931617" lon="9.3789083"><ele>103.39999999999999</ele><time>2026-03-28T15:06:33.012Z</time></trkpt><trkpt lat="44.3932667" lon="9.3789017"><ele>104.8</ele><time>2026-03-28T15:06:34.012Z</time></trkpt><trkpt lat="44.39337" lon="9.3788967"><ele>106.2</ele><time>2026-03-28T15:06:35.011Z</time></trkpt><trkpt lat="44.3934683" lon="9.3789"><ele>107.6</ele><time>2026-03-28T15:06:36.012Z</time></trkpt><trkpt lat="44.393575" lon="9.3789283"><ele>109.0</ele><time>2026-03-28T15:06:37.011Z</time></trkpt><trkpt lat="44.3936833" lon="9.3789417"><ele>109.0</ele><time>2026-03-28T15:06:38.012Z</time></trkpt><trkpt lat="44.3937983" lon="9.3789867"><ele>109.0</ele><time>2026-03-28T15:06:39.012Z</time></trkpt><trkpt lat="44.3939083" lon="9.3789933"><ele>109.0</ele><time>2026-03-28T15:06:40.012Z</time></trkpt><trkpt lat="44.3940317" lon="9.3790083"><ele>109.0</ele><time>2026-03-28T15:06:41.012Z</time></trkpt><trkpt lat="44.3941517" lon="9.3790383"><ele>110.0</ele><time>2026-03-28T15:06:42.011Z</time></trkpt><trkpt lat="44.3942583" lon="9.3790983"><ele>111.0</ele><time>2026-03-28T15:06:43.012Z</time></trkpt><trkpt lat="44.39436" lon="9.3791433"><ele>112.0</ele><time>2026-03-28T15:06:44.012Z</time></trkpt><trkpt lat="44.3944583" lon="9.379195"><ele>113.0</ele><time>2026-03-28T15:06:45.012Z</time></trkpt><trkpt lat="44.39456" lon="9.3792383"><ele>114.0</ele><time>2026-03-28T15:06:46.012Z</time></trkpt><trkpt lat="44.39467" lon="9.3792867"><ele>112.25</ele><time>2026-03-28T15:06:47.012Z</time></trkpt><trkpt lat="44.3947783" lon="9.3793317"><ele>110.5</ele><time>2026-03-28T15:06:48.012Z</time></trkpt><trkpt lat="44.3948967" lon="9.3793633"><ele>108.75</ele><time>2026-03-28T15:06:49.012Z</time></trkpt><trkpt lat="44.395015" lon="9.3793983"><ele>107.0</ele><time>2026-03-28T15:06:50.012Z</time></trkpt><trkpt lat="44.3951483" lon="9.37943"><ele>107.0</ele><time>2026-03-28T15:06:51.012Z</time></trkpt><trkpt lat="44.3952817" lon="9.379455"><ele>107.0</ele><time>2026-03-28T15:06:52.012Z</time></trkpt><trkpt lat="44.39542" lon="9.3794767"><ele>107.0</ele><time>2026-03-28T15:06:53.012Z</time></trkpt><trkpt lat="44.395545" lon="9.3794983"><ele>107.0</ele><time>2026-03-28T15:06:54.012Z</time></trkpt><trkpt lat="44.395675" lon="9.3795467"><ele>106.0</ele><time>2026-03-28T15:06:55.012Z</time></trkpt><trkpt lat="44.3958083" lon="9.3795867"><ele>105.0</ele><time>2026-03-28T15:06:56.012Z</time></trkpt><trkpt lat="44.39593" lon="9.37967"><ele>104.0</ele><time>2026-03-28T15:06:57.012Z</time></trkpt><trkpt lat="44.3960183" lon="9.3797683"><ele>103.0</ele><time>2026-03-28T15:06:58.012Z</time></trkpt><trkpt lat="44.396095" lon="9.37991"><ele>103.2</ele><time>2026-03-28T15:06:59.011Z</time></trkpt><trkpt lat="44.3961517" lon="9.3800567"><ele>103.4</ele><time>2026-03-28T15:07:00.012Z</time></trkpt><trkpt lat="44.3962083" lon="9.38018"><ele>103.60000000000001</ele><time>2026-03-28T15:07:01.012Z</time></trkpt><trkpt lat="44.3962767" lon="9.380265"><ele>103.80000000000001</ele><time>2026-03-28T15:07:02.012Z</time></trkpt><trkpt lat="44.3963633" lon="9.3803133"><ele>104.0</ele><time>2026-03-28T15:07:03.012Z</time></trkpt><trkpt lat="44.3964533" lon="9.3803317"><ele>104.0</ele><time>2026-03-28T15:07:04.011Z</time></trkpt><trkpt lat="44.3965417" lon="9.3803217"><ele>104.0</ele><time>2026-03-28T15:07:05.011Z</time></trkpt><trkpt lat="44.396655" lon="9.3802533"><ele>104.0</ele><time>2026-03-28T15:07:06.012Z</time></trkpt><trkpt lat="44.39677" lon="9.3801317"><ele>104.0</ele><time>2026-03-28T15:07:07.012Z</time></trkpt><trkpt lat="44.3968783" lon="9.3800167"><ele>104.0</ele><time>2026-03-28T15:07:08.012Z</time></trkpt><trkpt lat="44.3969833" lon="9.37992"><ele>104.0</ele><time>2026-03-28T15:07:09.012Z</time></trkpt><trkpt lat="44.3970983" lon="9.3798533"><ele>104.0</ele><time>2026-03-28T15:07:10.012Z</time></trkpt><trkpt lat="44.3971967" lon="9.3798"><ele>104.0</ele><time>2026-03-28T15:07:11.012Z</time></trkpt><trkpt lat="44.397315" lon="9.37976"><ele>105.0</ele><time>2026-03-28T15:07:12.011Z</time></trkpt><trkpt lat="44.39743" lon="9.379765"><ele>106.0</ele><time>2026-03-28T15:07:13.012Z</time></trkpt><trkpt lat="44.3975467" lon="9.3797933"><ele>107.0</ele><time>2026-03-28T15:07:14.012Z</time></trkpt><trkpt lat="44.3976633" lon="9.3798517"><ele>108.0</ele><time>2026-03-28T15:07:15.012Z</time></trkpt><trkpt lat="44.3977733" lon="9.37995"><ele>108.0</ele><time>2026-03-28T15:07:16.012Z</time></trkpt><trkpt lat="44.3978767" lon="9.38007"><ele>108.0</ele><time>2026-03-28T15:07:17.012Z</time></trkpt><trkpt lat="44.3979883" lon="9.3801933"><ele>108.0</ele><time>2026-03-28T15:07:18.011Z</time></trkpt><trkpt lat="44.3981033" lon="9.380315"><ele>108.0</ele><time>2026-03-28T15:07:19.012Z</time></trkpt><trkpt lat="44.3982167" lon="9.3804267"><ele>108.25</ele><time>2026-03-28T15:07:20.012Z</time></trkpt><trkpt lat="44.39833" lon="9.3805417"><ele>108.5</ele><time>2026-03-28T15:07:21.012Z</time></trkpt><trkpt lat="44.3984517" lon="9.380635"><ele>108.75</ele><time>2026-03-28T15:07:22.012Z</time></trkpt><trkpt lat="44.3985783" lon="9.38073"><ele>109.0</ele><time>2026-03-28T15:07:23.012Z</time></trkpt><trkpt lat="44.398715" lon="9.3808117"><ele>111.0</ele><time>2026-03-28T15:07:24.011Z</time></trkpt><trkpt lat="44.39885" lon="9.3808833"><ele>113.0</ele><time>2026-03-28T15:07:25.012Z</time></trkpt><trkpt lat="44.3989883" lon="9.3809583"><ele>115.0</ele><time>2026-03-28T15:07:26.012Z</time></trkpt><trkpt lat="44.3991217" lon="9.3810283"><ele>117.0</ele><time>2026-03-28T15:07:27.011Z</time></trkpt><trkpt lat="44.39926" lon="9.3810967"><ele>117.0</ele><time>2026-03-28T15:07:28.012Z</time></trkpt><trkpt lat="44.3994033" lon="9.3811583"><ele>117.0</ele><time>2026-03-28T15:07:29.011Z</time></trkpt><trkpt lat="44.3995417" lon="9.3812167"><ele>117.0</ele><time>2026-03-28T15:07:30.011Z</time></trkpt><trkpt lat="44.3996983" lon="9.3812833"><ele>116.0</ele><time>2026-03-28T15:07:31.012Z</time></trkpt><trkpt lat="44.3998533" lon="9.3813483"><ele>115.0</ele><time>2026-03-28T15:07:32.012Z</time></trkpt><trkpt lat="44.4000133" lon="9.3814133"><ele>114.0</ele><time>2026-03-28T15:07:33.012Z</time></trkpt><trkpt lat="44.400175" lon="9.3814817"><ele>114.0</ele><time>2026-03-28T15:07:34.012Z</time></trkpt><trkpt lat="44.400335" lon="9.3815467"><ele>114.0</ele><time>2026-03-28T15:07:35.011Z</time></trkpt><trkpt lat="44.4004983" lon="9.38161"><ele>114.0</ele><time>2026-03-28T15:07:36.012Z</time></trkpt><trkpt lat="44.4006583" lon="9.3816833"><ele>117.66666666666666</ele><time>2026-03-28T15:07:37.012Z</time></trkpt><trkpt lat="44.4008167" lon="9.3817417"><ele>121.33333333333333</ele><time>2026-03-28T15:07:38.012Z</time></trkpt><trkpt lat="44.4009767" lon="9.38178"><ele>125.0</ele><time>2026-03-28T15:07:39.012Z</time></trkpt><trkpt lat="44.40114" lon="9.3817767"><ele>125.0</ele><time>2026-03-28T15:07:40.012Z</time></trkpt><trkpt lat="44.4012933" lon="9.3817467"><ele>125.0</ele><time>2026-03-28T15:07:41.012Z</time></trkpt><trkpt lat="44.4014433" lon="9.3817283"><ele>125.0</ele><time>2026-03-28T15:07:42.012Z</time></trkpt><trkpt lat="44.4015933" lon="9.38174"><ele>126.75</ele><time>2026-03-28T15:07:43.012Z</time></trkpt><trkpt lat="44.4017383" lon="9.3817967"><ele>128.5</ele><time>2026-03-28T15:07:44.012Z</time></trkpt><trkpt lat="44.4018817" lon="9.38184"><ele>130.25</ele><time>2026-03-28T15:07:45.012Z</time></trkpt><trkpt lat="44.4020267" lon="9.3818633"><ele>132.0</ele><time>2026-03-28T15:07:46.012Z</time></trkpt><trkpt lat="44.4021783" lon="9.381885"><ele>140.0</ele><time>2026-03-28T15:07:47.011Z</time></trkpt><trkpt lat="44.4023283" lon="9.3819233"><ele>148.0</ele><time>2026-03-28T15:07:48.012Z</time></trkpt><trkpt lat="44.4024733" lon="9.38199"><ele>156.0</ele><time>2026-03-28T15:07:49.012Z</time></trkpt><trkpt lat="44.4026083" lon="9.3820917"><ele>145.66666666666666</ele><time>2026-03-28T15:07:50.012Z</time></trkpt><trkpt lat="44.4027367" lon="9.38224"><ele>135.33333333333331</ele><time>2026-03-28T15:07:51.012Z</time></trkpt><trkpt lat="44.4028633" lon="9.3823917"><ele>125.0</ele><time>2026-03-28T15:07:52.012Z</time></trkpt><trkpt lat="44.4029883" lon="9.3825433"><ele>135.0</ele><time>2026-03-28T15:07:53.012Z</time></trkpt><trkpt lat="44.4031167" lon="9.3826917"><ele>145.0</ele><time>2026-03-28T15:07:54.012Z</time></trkpt><trkpt lat="44.4032283" lon="9.382835"><ele>155.0</ele><time>2026-03-28T15:07:55.012Z</time></trkpt><trkpt lat="44.4033417" lon="9.38299"><ele>145.66666666666666</ele><time>2026-03-28T15:07:56.012Z</time></trkpt><trkpt lat="44.403445" lon="9.38316"><ele>136.33333333333334</ele><time>2026-03-28T15:07:57.012Z</time></trkpt><trkpt lat="44.4035383" lon="9.3833467"><ele>127.0</ele><time>2026-03-28T15:07:58.012Z</time></trkpt><trkpt lat="44.4036117" lon="9.3835683"><ele>127.0</ele><time>2026-03-28T15:07:59.012Z</time></trkpt><trkpt lat="44.403675" lon="9.383785"><ele>127.0</ele><time>2026-03-28T15:08:00.012Z</time></trkpt><trkpt lat="44.4037417" lon="9.3839833"><ele>127.0</ele><time>2026-03-28T15:08:01.012Z</time></trkpt><trkpt lat="44.403825" lon="9.3841817"><ele>133.0</ele><time>2026-03-28T15:08:02.012Z</time></trkpt><trkpt lat="44.40393" lon="9.3843483"><ele>139.0</ele><time>2026-03-28T15:08:03.012Z</time></trkpt><trkpt lat="44.4040533" lon="9.3844817"><ele>145.0</ele><time>2026-03-28T15:08:04.012Z</time></trkpt><trkpt lat="44.4041783" lon="9.3845933"><ele>137.33333333333334</ele><time>2026-03-28T15:08:05.011Z</time></trkpt><trkpt lat="44.4043133" lon="9.3847417"><ele>129.66666666666666</ele><time>2026-03-28T15:08:06.012Z</time></trkpt><trkpt lat="44.4044517" lon="9.3848783"><ele>122.0</ele><time>2026-03-28T15:08:07.012Z</time></trkpt><trkpt lat="44.4045917" lon="9.3850067"><ele>128.0</ele><time>2026-03-28T15:08:08.012Z</time></trkpt><trkpt lat="44.40474" lon="9.385105"><ele>134.0</ele><time>2026-03-28T15:08:09.012Z</time></trkpt><trkpt lat="44.4049" lon="9.385175"><ele>140.0</ele><time>2026-03-28T15:08:10.012Z</time></trkpt><trkpt lat="44.4050767" lon="9.385245"><ele>140.0</ele><time>2026-03-28T15:08:11.012Z</time></trkpt><trkpt lat="44.405235" lon="9.385315"><ele>140.0</ele><time>2026-03-28T15:08:12.011Z</time></trkpt><trkpt lat="44.4053883" lon="9.3853883"><ele>140.0</ele><time>2026-03-28T15:08:13.012Z</time></trkpt><trkpt lat="44.4055367" lon="9.3854617"><ele>133.66666666666666</ele><time>2026-03-28T15:08:14.012Z</time></trkpt><trkpt lat="44.4056733" lon="9.385565"><ele>127.33333333333334</ele><time>2026-03-28T15:08:15.012Z</time></trkpt><trkpt lat="44.4057967" lon="9.3856883"><ele>121.0</ele><time>2026-03-28T15:08:16.012Z</time></trkpt><trkpt lat="44.4059017" lon="9.3858417"><ele>121.0</ele><time>2026-03-28T15:08:17.012Z</time></trkpt><trkpt lat="44.4059867" lon="9.3860033"><ele>121.0</ele><time>2026-03-28T15:08:18.012Z</time></trkpt><trkpt lat="44.40606" lon="9.3861817"><ele>121.0</ele><time>2026-03-28T15:08:19.012Z</time></trkpt><trkpt lat="44.4061417" lon="9.3863533"><ele>121.0</ele><time>2026-03-28T15:08:20.012Z</time></trkpt><trkpt lat="44.406235" lon="9.3864933"><ele>122.5</ele><time>2026-03-28T15:08:21.011Z</time></trkpt><trkpt lat="44.4063467" lon="9.3866033"><ele>124.0</ele><time>2026-03-28T15:08:22.012Z</time></trkpt><trkpt lat="44.406465" lon="9.3866817"><ele>125.5</ele><time>2026-03-28T15:08:23.012Z</time></trkpt><trkpt lat="44.406595" lon="9.3867333"><ele>127.0</ele><time>2026-03-28T15:08:24.012Z</time></trkpt><trkpt lat="44.406745" lon="9.3867567"><ele>127.0</ele><time>2026-03-28T15:08:25.011Z</time></trkpt><trkpt lat="44.4069033" lon="9.3867717"><ele>127.0</ele><time>2026-03-28T15:08:26.012Z</time></trkpt><trkpt lat="44.40706" lon="9.3867967"><ele>127.0</ele><time>2026-03-28T15:08:27.012Z</time></trkpt><trkpt lat="44.4072167" lon="9.3868383"><ele>127.66666666666667</ele><time>2026-03-28T15:08:28.012Z</time></trkpt><trkpt lat="44.40736" lon="9.38692"><ele>128.33333333333334</ele><time>2026-03-28T15:08:29.012Z</time></trkpt><trkpt lat="44.407505" lon="9.387025"><ele>129.0</ele><time>2026-03-28T15:08:30.012Z</time></trkpt><trkpt lat="44.407645" lon="9.3871367"><ele>128.33333333333334</ele><time>2026-03-28T15:08:31.012Z</time></trkpt><trkpt lat="44.4077883" lon="9.387265"><ele>127.66666666666667</ele><time>2026-03-28T15:08:32.012Z</time></trkpt><trkpt lat="44.407935" lon="9.3873917"><ele>127.0</ele><time>2026-03-28T15:08:33.012Z</time></trkpt><trkpt lat="44.4080783" lon="9.387515"><ele>131.33333333333334</ele><time>2026-03-28T15:08:34.012Z</time></trkpt><trkpt lat="44.4082183" lon="9.387635"><ele>135.66666666666666</ele><time>2026-03-28T15:08:35.012Z</time></trkpt><trkpt lat="44.4083617" lon="9.387765"><ele>140.0</ele><time>2026-03-28T15:08:36.012Z</time></trkpt><trkpt lat="44.408495" lon="9.3878917"><ele>140.0</ele><time>2026-03-28T15:08:37.012Z</time></trkpt><trkpt lat="44.40862" lon="9.3879933"><ele>140.0</ele><time>2026-03-28T15:08:38.012Z</time></trkpt><trkpt lat="44.4087483" lon="9.388065"><ele>140.0</ele><time>2026-03-28T15:08:39.012Z</time></trkpt><trkpt lat="44.40889" lon="9.3881"><ele>140.0</ele><time>2026-03-28T15:08:40.012Z</time></trkpt><trkpt lat="44.4090483" lon="9.3881217"><ele>137.33333333333331</ele><time>2026-03-28T15:08:41.012Z</time></trkpt><trkpt lat="44.40921" lon="9.3881317"><ele>134.66666666666666</ele><time>2026-03-28T15:08:42.011Z</time></trkpt><trkpt lat="44.4093767" lon="9.3881417"><ele>132.0</ele><time>2026-03-28T15:08:43.012Z</time></trkpt><trkpt lat="44.4095383" lon="9.38816"><ele>136.0</ele><time>2026-03-28T15:08:44.012Z</time></trkpt><trkpt lat="44.4097033" lon="9.3881683"><ele>140.0</ele><time>2026-03-28T15:08:45.012Z</time></trkpt><trkpt lat="44.4098683" lon="9.38819"><ele>144.0</ele><time>2026-03-28T15:08:46.012Z</time></trkpt><trkpt lat="44.410035" lon="9.388225"><ele>144.0</ele><time>2026-03-28T15:08:47.011Z</time></trkpt><trkpt lat="44.4102017" lon="9.3882617"><ele>144.0</ele><time>2026-03-28T15:08:48.012Z</time></trkpt><trkpt lat="44.41037" lon="9.38831"><ele>144.0</ele><time>2026-03-28T15:08:49.011Z</time></trkpt><trkpt lat="44.4105367" lon="9.3883533"><ele>146.0</ele><time>2026-03-28T15:08:50.012Z</time></trkpt><trkpt lat="44.4107067" lon="9.3883933"><ele>148.0</ele><time>2026-03-28T15:08:51.012Z</time></trkpt><trkpt lat="44.4108783" lon="9.388435"><ele>150.0</ele><time>2026-03-28T15:08:52.012Z</time></trkpt><trkpt lat="44.4110483" lon="9.38846"><ele>150.0</ele><time>2026-03-28T15:08:53.012Z</time></trkpt><trkpt lat="44.4112033" lon="9.3884833"><ele>150.0</ele><time>2026-03-28T15:08:54.012Z</time></trkpt><trkpt lat="44.4113483" lon="9.388505"><ele>150.0</ele><time>2026-03-28T15:08:55.012Z</time></trkpt><trkpt lat="44.4114933" lon="9.3885"><ele>150.0</ele><time>2026-03-28T15:08:56.012Z</time></trkpt><trkpt lat="44.41163" lon="9.388455"><ele>150.0</ele><time>2026-03-28T15:08:57.012Z</time></trkpt><trkpt lat="44.411765" lon="9.3883783"><ele>150.0</ele><time>2026-03-28T15:08:58.012Z</time></trkpt><trkpt lat="44.4119" lon="9.38827"><ele>150.0</ele><time>2026-03-28T15:08:59.011Z</time></trkpt><trkpt lat="44.41203" lon="9.3881483"><ele>147.0</ele><time>2026-03-28T15:09:00.012Z</time></trkpt><trkpt lat="44.4121617" lon="9.3880217"><ele>144.0</ele><time>2026-03-28T15:09:01.012Z</time></trkpt><trkpt lat="44.4122967" lon="9.3878867"><ele>141.0</ele><time>2026-03-28T15:09:02.012Z</time></trkpt><trkpt lat="44.4124183" lon="9.3877567"><ele>150.25</ele><time>2026-03-28T15:09:03.012Z</time></trkpt><trkpt lat="44.41252" lon="9.387605"><ele>159.5</ele><time>2026-03-28T15:09:04.012Z</time></trkpt><trkpt lat="44.41262" lon="9.3875233"><ele>168.75</ele><time>2026-03-28T15:09:05.012Z</time></trkpt><trkpt lat="44.41273" lon="9.387485"><ele>178.0</ele><time>2026-03-28T15:09:06.012Z</time></trkpt><trkpt lat="44.41284" lon="9.3874883"><ele>178.0</ele><time>2026-03-28T15:09:07.012Z</time></trkpt><trkpt lat="44.412955" lon="9.3875367"><ele>178.0</ele><time>2026-03-28T15:09:08.012Z</time></trkpt><trkpt lat="44.413075" lon="9.3876417"><ele>178.0</ele><time>2026-03-28T15:09:09.011Z</time></trkpt><trkpt lat="44.4131933" lon="9.3877633"><ele>178.0</ele><time>2026-03-28T15:09:10.012Z</time></trkpt><trkpt lat="44.4133017" lon="9.3878917"><ele>168.75</ele><time>2026-03-28T15:09:11.012Z</time></trkpt><trkpt lat="44.4133983" lon="9.3880383"><ele>159.5</ele><time>2026-03-28T15:09:12.012Z</time></trkpt><trkpt lat="44.4135" lon="9.3881883"><ele>150.25</ele><time>2026-03-28T15:09:13.012Z</time></trkpt><trkpt lat="44.41359" lon="9.38831"><ele>141.0</ele><time>2026-03-28T15:09:14.012Z</time></trkpt><trkpt lat="44.413675" lon="9.3884233"><ele>141.0</ele><time>2026-03-28T15:09:15.011Z</time></trkpt><trkpt lat="44.41376" lon="9.3885333"><ele>141.0</ele><time>2026-03-28T15:09:16.012Z</time></trkpt><trkpt lat="44.41385" lon="9.38863"><ele>141.0</ele><time>2026-03-28T15:09:17.012Z</time></trkpt><trkpt lat="44.4139417" lon="9.3887367"><ele>141.0</ele><time>2026-03-28T15:09:18.012Z</time></trkpt><trkpt lat="44.4140433" lon="9.38884"><ele>141.75</ele><time>2026-03-28T15:09:19.012Z</time></trkpt><trkpt lat="44.4141517" lon="9.3889467"><ele>142.5</ele><time>2026-03-28T15:09:20.012Z</time></trkpt><trkpt lat="44.4142517" lon="9.3890533"><ele>143.25</ele><time>2026-03-28T15:09:21.011Z</time></trkpt><trkpt lat="44.414345" lon="9.3891483"><ele>144.0</ele><time>2026-03-28T15:09:22.012Z</time></trkpt><trkpt lat="44.41446" lon="9.389215"><ele>144.0</ele><time>2026-03-28T15:09:23.012Z</time></trkpt><trkpt lat="44.4145783" lon="9.38924"><ele>144.0</ele><time>2026-03-28T15:09:24.012Z</time></trkpt><trkpt lat="44.4147067" lon="9.38925"><ele>144.0</ele><time>2026-03-28T15:09:25.012Z</time></trkpt><trkpt lat="44.414845" lon="9.3892517"><ele>144.0</ele><time>2026-03-28T15:09:26.012Z</time></trkpt><trkpt lat="44.4149783" lon="9.389275"><ele>144.0</ele><time>2026-03-28T15:09:27.012Z</time></trkpt><trkpt lat="44.415115" lon="9.3893033"><ele>144.0</ele><time>2026-03-28T15:09:28.011Z</time></trkpt><trkpt lat="44.4152617" lon="9.3893283"><ele>144.0</ele><time>2026-03-28T15:09:29.012Z</time></trkpt><trkpt lat="44.4154033" lon="9.3893567"><ele>144.0</ele><time>2026-03-28T15:09:30.011Z</time></trkpt><trkpt lat="44.4155483" lon="9.3893833"><ele>144.5</ele><time>2026-03-28T15:09:31.012Z</time></trkpt><trkpt lat="44.4156917" lon="9.38941"><ele>145.0</ele><time>2026-03-28T15:09:32.012Z</time></trkpt><trkpt lat="44.4158267" lon="9.389435"><ele>145.5</ele><time>2026-03-28T15:09:33.012Z</time></trkpt><trkpt lat="44.4159567" lon="9.389465"><ele>146.0</ele><time>2026-03-28T15:09:34.012Z</time></trkpt><trkpt lat="44.4160833" lon="9.3895017"><ele>146.0</ele><time>2026-03-28T15:09:35.012Z</time></trkpt><trkpt lat="44.416205" lon="9.38955"><ele>146.0</ele><time>2026-03-28T15:09:36.012Z</time></trkpt><trkpt lat="44.41632" lon="9.3896117"><ele>146.0</ele><time>2026-03-28T15:09:37.012Z</time></trkpt><trkpt lat="44.4164217" lon="9.38969"><ele>146.0</ele><time>2026-03-28T15:09:38.012Z</time></trkpt><trkpt lat="44.4165233" lon="9.3897767"><ele>148.5</ele><time>2026-03-28T15:09:39.011Z</time></trkpt><trkpt lat="44.416625" lon="9.38989"><ele>151.0</ele><time>2026-03-28T15:09:40.012Z</time></trkpt><trkpt lat="44.4167267" lon="9.3899883"><ele>153.5</ele><time>2026-03-28T15:09:41.012Z</time></trkpt><trkpt lat="44.41684" lon="9.3900983"><ele>156.0</ele><time>2026-03-28T15:09:42.012Z</time></trkpt><trkpt lat="44.416955" lon="9.3901867"><ele>156.0</ele><time>2026-03-28T15:09:43.012Z</time></trkpt><trkpt lat="44.4170717" lon="9.390275"><ele>156.0</ele><time>2026-03-28T15:09:44.012Z</time></trkpt><trkpt lat="44.4171867" lon="9.3903217"><ele>156.0</ele><time>2026-03-28T15:09:45.012Z</time></trkpt><trkpt lat="44.4173017" lon="9.3903283"><ele>156.0</ele><time>2026-03-28T15:09:46.012Z</time></trkpt><trkpt lat="44.4174233" lon="9.3903217"><ele>154.0</ele><time>2026-03-28T15:09:47.012Z</time></trkpt><trkpt lat="44.4175517" lon="9.3902967"><ele>152.0</ele><time>2026-03-28T15:09:48.011Z</time></trkpt><trkpt lat="44.4176783" lon="9.3902717"><ele>150.0</ele><time>2026-03-28T15:09:49.012Z</time></trkpt><trkpt lat="44.4178033" lon="9.3902483"><ele>148.0</ele><time>2026-03-28T15:09:50.012Z</time></trkpt><trkpt lat="44.4179367" lon="9.3902167"><ele>149.5</ele><time>2026-03-28T15:09:51.011Z</time></trkpt><trkpt lat="44.4180733" lon="9.3902067"><ele>151.0</ele><time>2026-03-28T15:09:52.012Z</time></trkpt><trkpt lat="44.4182117" lon="9.3901767"><ele>152.5</ele><time>2026-03-28T15:09:53.012Z</time></trkpt><trkpt lat="44.41836" lon="9.3901533"><ele>154.0</ele><time>2026-03-28T15:09:54.012Z</time></trkpt><trkpt lat="44.4184983" lon="9.390115"><ele>154.0</ele><time>2026-03-28T15:09:55.011Z</time></trkpt><trkpt lat="44.4186417" lon="9.3900733"><ele>154.0</ele><time>2026-03-28T15:09:56.012Z</time></trkpt><trkpt lat="44.4187783" lon="9.39004"><ele>154.0</ele><time>2026-03-28T15:09:57.012Z</time></trkpt><trkpt lat="44.4189133" lon="9.390005"><ele>154.0</ele><time>2026-03-28T15:09:58.012Z</time></trkpt><trkpt lat="44.41903" lon="9.389965"><ele>155.75</ele><time>2026-03-28T15:09:59.012Z</time></trkpt><trkpt lat="44.41914" lon="9.389935"><ele>157.5</ele><time>2026-03-28T15:10:00.012Z</time></trkpt><trkpt lat="44.419255" lon="9.3898967"><ele>159.25</ele><time>2026-03-28T15:10:01.012Z</time></trkpt><trkpt lat="44.4193717" lon="9.389865"><ele>161.0</ele><time>2026-03-28T15:10:02.012Z</time></trkpt><trkpt lat="44.41949" lon="9.3898383"><ele>161.0</ele><time>2026-03-28T15:10:03.012Z</time></trkpt><trkpt lat="44.4195983" lon="9.38983"><ele>161.0</ele><time>2026-03-28T15:10:04.012Z</time></trkpt><trkpt lat="44.4197067" lon="9.38982"><ele>161.0</ele><time>2026-03-28T15:10:05.012Z</time></trkpt><trkpt lat="44.4198133" lon="9.38982"><ele>161.0</ele><time>2026-03-28T15:10:06.011Z</time></trkpt><trkpt lat="44.419905" lon="9.389815"><ele>161.0</ele><time>2026-03-28T15:10:07.011Z</time></trkpt><trkpt lat="44.41999" lon="9.3898067"><ele>161.83333333333331</ele><time>2026-03-28T15:10:08.012Z</time></trkpt><trkpt lat="44.4200733" lon="9.38979"><ele>162.66666666666666</ele><time>2026-03-28T15:10:09.012Z</time></trkpt><trkpt lat="44.4201417" lon="9.38974"><ele>163.5</ele><time>2026-03-28T15:10:10.012Z</time></trkpt><trkpt lat="44.4201983" lon="9.3896583"><ele>164.33333333333334</ele><time>2026-03-28T15:10:11.012Z</time></trkpt><trkpt lat="44.42024" lon="9.389555"><ele>165.16666666666669</ele><time>2026-03-28T15:10:12.012Z</time></trkpt><trkpt lat="44.4202583" lon="9.3894317"><ele>166.0</ele><time>2026-03-28T15:10:13.012Z</time></trkpt><trkpt lat="44.4202667" lon="9.3892717"><ele>164.5</ele><time>2026-03-28T15:10:14.012Z</time></trkpt><trkpt lat="44.420265" lon="9.38911"><ele>163.0</ele><time>2026-03-28T15:10:15.012Z</time></trkpt><trkpt lat="44.42027" lon="9.3889417"><ele>161.5</ele><time>2026-03-28T15:10:16.012Z</time></trkpt><trkpt lat="44.4202917" lon="9.388765"><ele>160.0</ele><time>2026-03-28T15:10:17.012Z</time></trkpt><trkpt lat="44.4203267" lon="9.3885983"><ele>160.0</ele><time>2026-03-28T15:10:18.012Z</time></trkpt><trkpt lat="44.4203717" lon="9.3884433"><ele>160.0</ele><time>2026-03-28T15:10:19.012Z</time></trkpt><trkpt lat="44.4204367" lon="9.3882967"><ele>160.0</ele><time>2026-03-28T15:10:20.012Z</time></trkpt><trkpt lat="44.4205133" lon="9.38816"><ele>160.0</ele><time>2026-03-28T15:10:21.012Z</time></trkpt><trkpt lat="44.4205833" lon="9.3880333"><ele>160.2</ele><time>2026-03-28T15:10:22.012Z</time></trkpt><trkpt lat="44.42065" lon="9.3879183"><ele>160.4</ele><time>2026-03-28T15:10:23.012Z</time></trkpt><trkpt lat="44.4207133" lon="9.3878183"><ele>160.60000000000002</ele><time>2026-03-28T15:10:24.011Z</time></trkpt><trkpt lat="44.420775" lon="9.387715"><ele>160.8</ele><time>2026-03-28T15:10:25.012Z</time></trkpt><trkpt lat="44.42084" lon="9.38763"><ele>161.0</ele><time>2026-03-28T15:10:26.012Z</time></trkpt><trkpt lat="44.42091" lon="9.3875467"><ele>161.0</ele><time>2026-03-28T15:10:27.012Z</time></trkpt><trkpt lat="44.42099" lon="9.38749"><ele>161.0</ele><time>2026-03-28T15:10:28.011Z</time></trkpt><trkpt lat="44.4210933" lon="9.38748"><ele>161.0</ele><time>2026-03-28T15:10:29.012Z</time></trkpt><trkpt lat="44.4211983" lon="9.3874533"><ele>161.0</ele><time>2026-03-28T15:10:30.012Z</time></trkpt><trkpt lat="44.4213017" lon="9.3874333"><ele>161.0</ele><time>2026-03-28T15:10:31.011Z</time></trkpt><trkpt lat="44.421395" lon="9.3874117"><ele>161.66666666666666</ele><time>2026-03-28T15:10:32.012Z</time></trkpt><trkpt lat="44.4214867" lon="9.3874017"><ele>162.33333333333331</ele><time>2026-03-28T15:10:33.012Z</time></trkpt><trkpt lat="44.4215783" lon="9.3873917"><ele>163.0</ele><time>2026-03-28T15:10:34.012Z</time></trkpt><trkpt lat="44.4216617" lon="9.3873717"><ele>163.66666666666666</ele><time>2026-03-28T15:10:35.012Z</time></trkpt><trkpt lat="44.4217533" lon="9.3873517"><ele>164.33333333333334</ele><time>2026-03-28T15:10:36.012Z</time></trkpt><trkpt lat="44.4218367" lon="9.38732"><ele>165.0</ele><time>2026-03-28T15:10:37.012Z</time></trkpt><trkpt lat="44.4219133" lon="9.3872883"><ele>165.0</ele><time>2026-03-28T15:10:38.012Z</time></trkpt><trkpt lat="44.42198" lon="9.38729"><ele>165.0</ele><time>2026-03-28T15:10:39.011Z</time></trkpt><trkpt lat="44.422065" lon="9.3872283"><ele>165.0</ele><time>2026-03-28T15:10:40.011Z</time></trkpt><trkpt lat="44.42215" lon="9.387165"><ele>165.0</ele><time>2026-03-28T15:10:41.012Z</time></trkpt><trkpt lat="44.4222317" lon="9.3871183"><ele>165.0</ele><time>2026-03-28T15:10:42.012Z</time></trkpt><trkpt lat="44.422325" lon="9.3870867"><ele>165.0</ele><time>2026-03-28T15:10:43.012Z</time></trkpt><trkpt lat="44.4224233" lon="9.3870767"><ele>165.6</ele><time>2026-03-28T15:10:44.012Z</time></trkpt><trkpt lat="44.4225267" lon="9.387045"><ele>166.2</ele><time>2026-03-28T15:10:45.011Z</time></trkpt><trkpt lat="44.42262" lon="9.3869933"><ele>166.8</ele><time>2026-03-28T15:10:46.012Z</time></trkpt><trkpt lat="44.4227133" lon="9.3869383"><ele>167.4</ele><time>2026-03-28T15:10:47.012Z</time></trkpt><trkpt lat="44.4227917" lon="9.38685"><ele>168.0</ele><time>2026-03-28T15:10:48.012Z</time></trkpt><trkpt lat="44.4228583" lon="9.3867283"><ele>168.0</ele><time>2026-03-28T15:10:49.011Z</time></trkpt><trkpt lat="44.4229367" lon="9.3866167"><ele>168.0</ele><time>2026-03-28T15:10:50.012Z</time></trkpt><trkpt lat="44.4230217" lon="9.3865033"><ele>168.0</ele><time>2026-03-28T15:10:51.012Z</time></trkpt><trkpt lat="44.4230917" lon="9.38637"><ele>168.0</ele><time>2026-03-28T15:10:52.012Z</time></trkpt><trkpt lat="44.4231567" lon="9.3862167"><ele>169.2</ele><time>2026-03-28T15:10:53.012Z</time></trkpt><trkpt lat="44.42323" lon="9.38609"><ele>170.4</ele><time>2026-03-28T15:10:54.012Z</time></trkpt><trkpt lat="44.42331" lon="9.3859883"><ele>171.6</ele><time>2026-03-28T15:10:55.012Z</time></trkpt><trkpt lat="44.4233833" lon="9.3858833"><ele>172.79999999999998</ele><time>2026-03-28T15:10:56.012Z</time></trkpt><trkpt lat="44.4234517" lon="9.3857833"><ele>174.0</ele><time>2026-03-28T15:10:57.012Z</time></trkpt><trkpt lat="44.4235167" lon="9.3856817"><ele>174.0</ele><time>2026-03-28T15:10:58.012Z</time></trkpt><trkpt lat="44.4235683" lon="9.3855717"><ele>174.0</ele><time>2026-03-28T15:10:59.011Z</time></trkpt><trkpt lat="44.4236317" lon="9.3854667"><ele>174.0</ele><time>2026-03-28T15:11:00.011Z</time></trkpt><trkpt lat="44.4236983" lon="9.38537"><ele>174.0</ele><time>2026-03-28T15:11:01.012Z</time></trkpt><trkpt lat="44.4237667" lon="9.3852883"><ele>174.0</ele><time>2026-03-28T15:11:02.012Z</time></trkpt><trkpt lat="44.4238383" lon="9.3852133"><ele>176.6</ele><time>2026-03-28T15:11:03.012Z</time></trkpt><trkpt lat="44.4239183" lon="9.38514"><ele>179.2</ele><time>2026-03-28T15:11:04.012Z</time></trkpt><trkpt lat="44.424005" lon="9.3850683"><ele>181.79999999999998</ele><time>2026-03-28T15:11:05.012Z</time></trkpt><trkpt lat="44.42409" lon="9.38498"><ele>184.39999999999998</ele><time>2026-03-28T15:11:06.012Z</time></trkpt><trkpt lat="44.4241733" lon="9.384905"><ele>187.0</ele><time>2026-03-28T15:11:07.012Z</time></trkpt><trkpt lat="44.4242517" lon="9.3848233"><ele>187.0</ele><time>2026-03-28T15:11:08.012Z</time></trkpt><trkpt lat="44.424335" lon="9.3847383"><ele>187.0</ele><time>2026-03-28T15:11:09.012Z</time></trkpt><trkpt lat="44.4244283" lon="9.3846683"><ele>187.0</ele><time>2026-03-28T15:11:10.012Z</time></trkpt><trkpt lat="44.4245217" lon="9.3845917"><ele>187.0</ele><time>2026-03-28T15:11:11.012Z</time></trkpt><trkpt lat="44.4246217" lon="9.3845183"><ele>187.0</ele><time>2026-03-28T15:11:12.012Z</time></trkpt><trkpt lat="44.4247317" lon="9.3844617"><ele>188.5</ele><time>2026-03-28T15:11:13.012Z</time></trkpt><trkpt lat="44.4248467" lon="9.3844083"><ele>190.0</ele><time>2026-03-28T15:11:14.012Z</time></trkpt><trkpt lat="44.424955" lon="9.3843417"><ele>191.5</ele><time>2026-03-28T15:11:15.012Z</time></trkpt><trkpt lat="44.4250467" lon="9.3842083"><ele>193.0</ele><time>2026-03-28T15:11:16.012Z</time></trkpt><trkpt lat="44.4251383" lon="9.3841033"><ele>193.0</ele><time>2026-03-28T15:11:17.012Z</time></trkpt><trkpt lat="44.4252317" lon="9.38401"><ele>193.0</ele><time>2026-03-28T15:11:18.011Z</time></trkpt><trkpt lat="44.42532" lon="9.383905"><ele>193.0</ele><time>2026-03-28T15:11:19.012Z</time></trkpt><trkpt lat="44.4254083" lon="9.38379"><ele>193.0</ele><time>2026-03-28T15:11:20.012Z</time></trkpt><trkpt lat="44.4254917" lon="9.3836567"><ele>198.75</ele><time>2026-03-28T15:11:21.012Z</time></trkpt><trkpt lat="44.425555" lon="9.38352"><ele>204.5</ele><time>2026-03-28T15:11:22.012Z</time></trkpt><trkpt lat="44.4256117" lon="9.383365"><ele>210.25</ele><time>2026-03-28T15:11:23.011Z</time></trkpt><trkpt lat="44.4256733" lon="9.3832017"><ele>216.0</ele><time>2026-03-28T15:11:24.012Z</time></trkpt><trkpt lat="44.4257367" lon="9.383045"><ele>212.0</ele><time>2026-03-28T15:11:25.012Z</time></trkpt><trkpt lat="44.4257983" lon="9.38288"><ele>208.0</ele><time>2026-03-28T15:11:26.012Z</time></trkpt><trkpt lat="44.4258567" lon="9.3827167"><ele>204.0</ele><time>2026-03-28T15:11:27.011Z</time></trkpt><trkpt lat="44.4259183" lon="9.3825683"><ele>200.0</ele><time>2026-03-28T15:11:28.011Z</time></trkpt><trkpt lat="44.4259817" lon="9.382425"><ele>200.0</ele><time>2026-03-28T15:11:29.012Z</time></trkpt><trkpt lat="44.4260433" lon="9.3823"><ele>200.0</ele><time>2026-03-28T15:11:30.011Z</time></trkpt><trkpt lat="44.4261183" lon="9.3821933"><ele>200.0</ele><time>2026-03-28T15:11:31.011Z</time></trkpt><trkpt lat="44.4262017" lon="9.3821"><ele>200.0</ele><time>2026-03-28T15:11:32.012Z</time></trkpt><trkpt lat="44.4262983" lon="9.3820017"><ele>200.0</ele><time>2026-03-28T15:11:33.011Z</time></trkpt><trkpt lat="44.4263917" lon="9.3818867"><ele>204.75</ele><time>2026-03-28T15:11:34.012Z</time></trkpt><trkpt lat="44.4264717" lon="9.3817633"><ele>209.5</ele><time>2026-03-28T15:11:35.012Z</time></trkpt><trkpt lat="44.4265483" lon="9.3816383"><ele>214.25</ele><time>2026-03-28T15:11:36.012Z</time></trkpt><trkpt lat="44.4266233" lon="9.38151"><ele>219.0</ele><time>2026-03-28T15:11:37.012Z</time></trkpt><trkpt lat="44.4267167" lon="9.38139"><ele>214.5</ele><time>2026-03-28T15:11:38.012Z</time></trkpt><trkpt lat="44.42682" lon="9.3812883"><ele>210.0</ele><time>2026-03-28T15:11:39.012Z</time></trkpt><trkpt lat="44.426915" lon="9.38118"><ele>205.5</ele><time>2026-03-28T15:11:40.012Z</time></trkpt><trkpt lat="44.4270167" lon="9.3810633"><ele>201.0</ele><time>2026-03-28T15:11:41.012Z</time></trkpt><trkpt lat="44.4271217" lon="9.3809383"><ele>205.75</ele><time>2026-03-28T15:11:42.012Z</time></trkpt><trkpt lat="44.4272117" lon="9.3807817"><ele>210.5</ele><time>2026-03-28T15:11:43.011Z</time></trkpt><trkpt lat="44.4273" lon="9.38065"><ele>215.25</ele><time>2026-03-28T15:11:44.012Z</time></trkpt><trkpt lat="44.4273917" lon="9.3804967"><ele>220.0</ele><time>2026-03-28T15:11:45.012Z</time></trkpt><trkpt lat="44.4274633" lon="9.3803283"><ele>220.0</ele><time>2026-03-28T15:11:46.012Z</time></trkpt><trkpt lat="44.42753" lon="9.38016"><ele>220.0</ele><time>2026-03-28T15:11:47.011Z</time></trkpt><trkpt lat="44.4275933" lon="9.3800033"><ele>220.0</ele><time>2026-03-28T15:11:48.011Z</time></trkpt><trkpt lat="44.4276533" lon="9.379835"><ele>220.0</ele><time>2026-03-28T15:11:49.012Z</time></trkpt><trkpt lat="44.4277067" lon="9.379675"><ele>217.25</ele><time>2026-03-28T15:11:50.011Z</time></trkpt><trkpt lat="44.427755" lon="9.3795267"><ele>214.5</ele><time>2026-03-28T15:11:51.012Z</time></trkpt><trkpt lat="44.4278067" lon="9.3793833"><ele>211.75</ele><time>2026-03-28T15:11:52.012Z</time></trkpt><trkpt lat="44.4278667" lon="9.3792467"><ele>209.0</ele><time>2026-03-28T15:11:53.012Z</time></trkpt><trkpt lat="44.4279267" lon="9.3791267"><ele>213.33333333333334</ele><time>2026-03-28T15:11:54.012Z</time></trkpt><trkpt lat="44.4279883" lon="9.37903"><ele>217.66666666666669</ele><time>2026-03-28T15:11:55.012Z</time></trkpt><trkpt lat="44.4280583" lon="9.37894"><ele>222.0</ele><time>2026-03-28T15:11:56.011Z</time></trkpt><trkpt lat="44.428125" lon="9.3788583"><ele>226.33333333333331</ele><time>2026-03-28T15:11:57.011Z</time></trkpt><trkpt lat="44.4281817" lon="9.3787717"><ele>230.66666666666666</ele><time>2026-03-28T15:11:58.012Z</time></trkpt><trkpt lat="44.4282383" lon="9.378695"><ele>235.0</ele><time>2026-03-28T15:11:59.012Z</time></trkpt><trkpt lat="44.4282833" lon="9.3785683"><ele>235.0</ele><time>2026-03-28T15:12:01.012Z</time></trkpt><trkpt lat="44.4282867" lon="9.3784617"><ele>235.0</ele><time>2026-03-28T15:14:23.012Z</time></trkpt><trkpt lat="44.4283433" lon="9.378375"><ele>235.0</ele><time>2026-03-28T15:14:25.012Z</time></trkpt><trkpt lat="44.4284383" lon="9.3782683"><ele>235.0</ele><time>2026-03-28T15:14:27.011Z</time></trkpt><trkpt lat="44.4285033" lon="9.3781967"><ele>235.0</ele><time>2026-03-28T15:14:28.011Z</time></trkpt><trkpt lat="44.4285833" lon="9.378125"><ele>235.0</ele><time>2026-03-28T15:14:29.012Z</time></trkpt><trkpt lat="44.428675" lon="9.37804"><ele>235.0</ele><time>2026-03-28T15:14:30.012Z</time></trkpt><trkpt lat="44.4287617" lon="9.37793"><ele>235.0</ele><time>2026-03-28T15:14:31.012Z</time></trkpt><trkpt lat="44.4288383" lon="9.3778133"><ele>235.0</ele><time>2026-03-28T15:14:32.012Z</time></trkpt><trkpt lat="44.4289033" lon="9.3776767"><ele>240.25</ele><time>2026-03-28T15:14:33.012Z</time></trkpt><trkpt lat="44.4289667" lon="9.3775433"><ele>245.5</ele><time>2026-03-28T15:14:34.012Z</time></trkpt><trkpt lat="44.42902" lon="9.3774033"><ele>250.75</ele><time>2026-03-28T15:14:35.012Z</time></trkpt><trkpt lat="44.4290667" lon="9.3772567"><ele>256.0</ele><time>2026-03-28T15:14:36.012Z</time></trkpt><trkpt lat="44.4290967" lon="9.3770817"><ele>256.0</ele><time>2026-03-28T15:14:37.012Z</time></trkpt><trkpt lat="44.4291133" lon="9.3769067"><ele>256.0</ele><time>2026-03-28T15:14:38.012Z</time></trkpt><trkpt lat="44.429125" lon="9.3767233"><ele>256.0</ele><time>2026-03-28T15:14:39.011Z</time></trkpt><trkpt lat="44.429125" lon="9.376535"><ele>256.0</ele><time>2026-03-28T15:14:40.012Z</time></trkpt><trkpt lat="44.4291283" lon="9.37634"><ele>251.75</ele><time>2026-03-28T15:14:41.011Z</time></trkpt><trkpt lat="44.429145" lon="9.3761533"><ele>247.5</ele><time>2026-03-28T15:14:42.011Z</time></trkpt><trkpt lat="44.42917" lon="9.3759767"><ele>243.25</ele><time>2026-03-28T15:14:43.012Z</time></trkpt><trkpt lat="44.4291967" lon="9.3758267"><ele>239.0</ele><time>2026-03-28T15:14:44.012Z</time></trkpt><trkpt lat="44.4292317" lon="9.37568"><ele>239.0</ele><time>2026-03-28T15:14:45.011Z</time></trkpt><trkpt lat="44.4292717" lon="9.37556"><ele>238.99999999999997</ele><time>2026-03-28T15:14:46.012Z</time></trkpt><trkpt lat="44.4293183" lon="9.375465"><ele>238.99999999999997</ele><time>2026-03-28T15:14:47.012Z</time></trkpt><trkpt lat="44.4293633" lon="9.3753867"><ele>239.0</ele><time>2026-03-28T15:14:48.012Z</time></trkpt><trkpt lat="44.42949" lon="9.375355"><ele>239.0</ele><time>2026-03-28T15:14:50.011Z</time></trkpt><trkpt lat="44.4296067" lon="9.3754117"><ele>238.5</ele><time>2026-03-28T15:14:51.012Z</time></trkpt><trkpt lat="44.4297417" lon="9.3754417"><ele>238.0</ele><time>2026-03-28T15:14:52.012Z</time></trkpt><trkpt lat="44.4298833" lon="9.3754417"><ele>237.5</ele><time>2026-03-28T15:14:53.012Z</time></trkpt><trkpt lat="44.4300183" lon="9.3754133"><ele>237.0</ele><time>2026-03-28T15:14:54.012Z</time></trkpt><trkpt lat="44.4301567" lon="9.37534"><ele>237.0</ele><time>2026-03-28T15:14:55.011Z</time></trkpt><trkpt lat="44.4302817" lon="9.3752467"><ele>237.0</ele><time>2026-03-28T15:14:56.012Z</time></trkpt><trkpt lat="44.4304" lon="9.3751233"><ele>237.0</ele><time>2026-03-28T15:14:57.012Z</time></trkpt><trkpt lat="44.4305067" lon="9.3750083"><ele>237.0</ele><time>2026-03-28T15:14:58.012Z</time></trkpt><trkpt lat="44.4305967" lon="9.374875"><ele>245.5</ele><time>2026-03-28T15:14:59.012Z</time></trkpt><trkpt lat="44.43067" lon="9.3747467"><ele>254.0</ele><time>2026-03-28T15:15:00.012Z</time></trkpt><trkpt lat="44.4307217" lon="9.374605"><ele>262.5</ele><time>2026-03-28T15:15:01.012Z</time></trkpt><trkpt lat="44.4307483" lon="9.37444"><ele>271.0</ele><time>2026-03-28T15:15:02.011Z</time></trkpt><trkpt lat="44.430765" lon="9.3742683"><ele>271.0</ele><time>2026-03-28T15:15:03.012Z</time></trkpt><trkpt lat="44.4308" lon="9.3740967"><ele>271.0</ele><time>2026-03-28T15:15:04.012Z</time></trkpt><trkpt lat="44.4308383" lon="9.373925"><ele>271.0</ele><time>2026-03-28T15:15:05.012Z</time></trkpt><trkpt lat="44.4308917" lon="9.3737683"><ele>271.0</ele><time>2026-03-28T15:15:06.012Z</time></trkpt><trkpt lat="44.43095" lon="9.3735867"><ele>266.0</ele><time>2026-03-28T15:15:07.012Z</time></trkpt><trkpt lat="44.43102" lon="9.3734067"><ele>261.0</ele><time>2026-03-28T15:15:08.012Z</time></trkpt><trkpt lat="44.4310933" lon="9.37322"><ele>256.0</ele><time>2026-03-28T15:15:09.012Z</time></trkpt><trkpt lat="44.4311917" lon="9.3730667"><ele>251.0</ele><time>2026-03-28T15:15:10.012Z</time></trkpt><trkpt lat="44.43129" lon="9.3729033"><ele>262.0</ele><time>2026-03-28T15:15:11.012Z</time></trkpt><trkpt lat="44.4313867" lon="9.3727433"><ele>273.0</ele><time>2026-03-28T15:15:12.012Z</time></trkpt><trkpt lat="44.431465" lon="9.3725467"><ele>284.0</ele><time>2026-03-28T15:15:13.012Z</time></trkpt><trkpt lat="44.4315367" lon="9.3723533"><ele>278.0</ele><time>2026-03-28T15:15:14.012Z</time></trkpt><trkpt lat="44.43161" lon="9.3721517"><ele>272.0</ele><time>2026-03-28T15:15:15.012Z</time></trkpt><trkpt lat="44.4316767" lon="9.371945"><ele>266.0</ele><time>2026-03-28T15:15:16.012Z</time></trkpt><trkpt lat="44.4317483" lon="9.3717467"><ele>266.0</ele><time>2026-03-28T15:15:17.012Z</time></trkpt><trkpt lat="44.431775" lon="9.3715433"><ele>266.0</ele><time>2026-03-28T15:15:18.011Z</time></trkpt><trkpt lat="44.431845" lon="9.3714167"><ele>266.0</ele><time>2026-03-28T15:15:19.011Z</time></trkpt><trkpt lat="44.4319167" lon="9.3713233"><ele>266.0</ele><time>2026-03-28T15:15:20.013Z</time></trkpt><trkpt lat="44.4320033" lon="9.371305"><ele>266.0</ele><time>2026-03-28T15:15:21.013Z</time></trkpt><trkpt lat="44.4321" lon="9.3713167"><ele>265.75</ele><time>2026-03-28T15:15:22.013Z</time></trkpt><trkpt lat="44.4322017" lon="9.3713417"><ele>265.5</ele><time>2026-03-28T15:15:23.013Z</time></trkpt><trkpt lat="44.4323117" lon="9.3713717"><ele>265.25</ele><time>2026-03-28T15:15:24.013Z</time></trkpt><trkpt lat="44.4324317" lon="9.3713917"><ele>265.0</ele><time>2026-03-28T15:15:25.013Z</time></trkpt><trkpt lat="44.4325567" lon="9.3714"><ele>270.75</ele><time>2026-03-28T15:15:26.013Z</time></trkpt><trkpt lat="44.43268" lon="9.3714067"><ele>276.5</ele><time>2026-03-28T15:15:27.013Z</time></trkpt><trkpt lat="44.4328017" lon="9.37142"><ele>282.25</ele><time>2026-03-28T15:15:28.013Z</time></trkpt><trkpt lat="44.4329183" lon="9.37142"><ele>288.0</ele><time>2026-03-28T15:15:29.013Z</time></trkpt><trkpt lat="44.4330283" lon="9.371395"><ele>286.0</ele><time>2026-03-28T15:15:30.013Z</time></trkpt><trkpt lat="44.4331417" lon="9.3713117"><ele>284.0</ele><time>2026-03-28T15:15:31.012Z</time></trkpt><trkpt lat="44.4332417" lon="9.37121"><ele>282.0</ele><time>2026-03-28T15:15:32.013Z</time></trkpt><trkpt lat="44.4333483" lon="9.3711117"><ele>280.0</ele><time>2026-03-28T15:15:33.012Z</time></trkpt><trkpt lat="44.433455" lon="9.3709983"><ele>280.0</ele><time>2026-03-28T15:15:34.013Z</time></trkpt><trkpt lat="44.433555" lon="9.37089"><ele>280.0</ele><time>2026-03-28T15:15:35.013Z</time></trkpt><trkpt lat="44.4336467" lon="9.3707683"><ele>280.0</ele><time>2026-03-28T15:15:36.013Z</time></trkpt><trkpt lat="44.4337267" lon="9.370645"><ele>280.0</ele><time>2026-03-28T15:15:37.013Z</time></trkpt><trkpt lat="44.43381" lon="9.370535"><ele>280.2</ele><time>2026-03-28T15:15:38.013Z</time></trkpt><trkpt lat="44.4339067" lon="9.3704583"><ele>280.4</ele><time>2026-03-28T15:15:39.012Z</time></trkpt><trkpt lat="44.433995" lon="9.370425"><ele>280.6</ele><time>2026-03-28T15:15:40.013Z</time></trkpt><trkpt lat="44.4340933" lon="9.370455"><ele>280.8</ele><time>2026-03-28T15:15:41.013Z</time></trkpt><trkpt lat="44.4341883" lon="9.3705317"><ele>281.0</ele><time>2026-03-28T15:15:42.013Z</time></trkpt><trkpt lat="44.434285" lon="9.370605"><ele>284.6</ele><time>2026-03-28T15:15:43.013Z</time></trkpt><trkpt lat="44.434375" lon="9.3706833"><ele>288.20000000000005</ele><time>2026-03-28T15:15:44.012Z</time></trkpt><trkpt lat="44.4344733" lon="9.3707583"><ele>291.79999999999995</ele><time>2026-03-28T15:15:45.013Z</time></trkpt><trkpt lat="44.434565" lon="9.3708117"><ele>295.4</ele><time>2026-03-28T15:15:46.012Z</time></trkpt><trkpt lat="44.4346517" lon="9.3708217"><ele>299.0</ele><time>2026-03-28T15:15:47.012Z</time></trkpt><trkpt lat="44.434725" lon="9.37079"><ele>300.2</ele><time>2026-03-28T15:15:48.012Z</time></trkpt><trkpt lat="44.43479" lon="9.37073"><ele>301.4</ele><time>2026-03-28T15:15:49.013Z</time></trkpt><trkpt lat="44.43484" lon="9.370625"><ele>302.6</ele><time>2026-03-28T15:15:50.013Z</time></trkpt><trkpt lat="44.4348633" lon="9.3704867"><ele>303.8</ele><time>2026-03-28T15:15:51.013Z</time></trkpt><trkpt lat="44.434855" lon="9.3703083"><ele>305.0</ele><time>2026-03-28T15:15:52.013Z</time></trkpt><trkpt lat="44.4348167" lon="9.3701033"><ele>305.0</ele><time>2026-03-28T15:15:53.013Z</time></trkpt><trkpt lat="44.434815" lon="9.3699233"><ele>305.0</ele><time>2026-03-28T15:15:54.013Z</time></trkpt><trkpt lat="44.434825" lon="9.3697567"><ele>305.0</ele><time>2026-03-28T15:15:55.013Z</time></trkpt><trkpt lat="44.434845" lon="9.36959"><ele>305.0</ele><time>2026-03-28T15:15:56.012Z</time></trkpt><trkpt lat="44.4348833" lon="9.3694233"><ele>304.25</ele><time>2026-03-28T15:15:57.013Z</time></trkpt><trkpt lat="44.4349417" lon="9.3692617"><ele>303.5</ele><time>2026-03-28T15:15:58.013Z</time></trkpt><trkpt lat="44.4349967" lon="9.36909"><ele>302.75</ele><time>2026-03-28T15:15:59.013Z</time></trkpt><trkpt lat="44.4350533" lon="9.3689117"><ele>302.0</ele><time>2026-03-28T15:16:00.013Z</time></trkpt><trkpt lat="44.4351167" lon="9.3687467"><ele>303.75</ele><time>2026-03-28T15:16:01.013Z</time></trkpt><trkpt lat="44.4351917" lon="9.36861"><ele>305.5</ele><time>2026-03-28T15:16:02.013Z</time></trkpt><trkpt lat="44.4352783" lon="9.3684917"><ele>307.25</ele><time>2026-03-28T15:16:03.013Z</time></trkpt><trkpt lat="44.4353717" lon="9.3683867"><ele>309.0</ele><time>2026-03-28T15:16:04.012Z</time></trkpt><trkpt lat="44.435485" lon="9.3683017"><ele>309.0</ele><time>2026-03-28T15:16:05.012Z</time></trkpt><trkpt lat="44.435615" lon="9.368245"><ele>309.0</ele><time>2026-03-28T15:16:06.013Z</time></trkpt><trkpt lat="44.4357483" lon="9.3681967"><ele>309.0</ele><time>2026-03-28T15:16:07.013Z</time></trkpt><trkpt lat="44.4358783" lon="9.3681533"><ele>309.0</ele><time>2026-03-28T15:16:08.012Z</time></trkpt><trkpt lat="44.4359917" lon="9.36809"><ele>310.25</ele><time>2026-03-28T15:16:09.013Z</time></trkpt><trkpt lat="44.4360883" lon="9.3680017"><ele>311.5</ele><time>2026-03-28T15:16:10.013Z</time></trkpt><trkpt lat="44.4361717" lon="9.3678917"><ele>312.75</ele><time>2026-03-28T15:16:11.012Z</time></trkpt><trkpt lat="44.436245" lon="9.367775"><ele>314.0</ele><time>2026-03-28T15:16:12.012Z</time></trkpt><trkpt lat="44.4363233" lon="9.3676667"><ele>314.0</ele><time>2026-03-28T15:16:13.013Z</time></trkpt><trkpt lat="44.43641" lon="9.3675817"><ele>314.0</ele><time>2026-03-28T15:16:14.013Z</time></trkpt><trkpt lat="44.4365083" lon="9.367525"><ele>314.0</ele><time>2026-03-28T15:16:15.013Z</time></trkpt><trkpt lat="44.4366167" lon="9.3674817"><ele>314.0</ele><time>2026-03-28T15:16:16.013Z</time></trkpt><trkpt lat="44.4367383" lon="9.3674333"><ele>314.0</ele><time>2026-03-28T15:16:17.013Z</time></trkpt><trkpt lat="44.43687" lon="9.3673883"><ele>314.0</ele><time>2026-03-28T15:16:18.013Z</time></trkpt><trkpt lat="44.4369983" lon="9.367335"><ele>314.0</ele><time>2026-03-28T15:16:19.013Z</time></trkpt><trkpt lat="44.4371317" lon="9.36728"><ele>314.0</ele><time>2026-03-28T15:16:20.013Z</time></trkpt><trkpt lat="44.4372567" lon="9.3672333"><ele>313.75</ele><time>2026-03-28T15:16:21.012Z</time></trkpt><trkpt lat="44.437385" lon="9.3671733"><ele>313.5</ele><time>2026-03-28T15:16:22.013Z</time></trkpt><trkpt lat="44.437525" lon="9.367105"><ele>313.25</ele><time>2026-03-28T15:16:23.012Z</time></trkpt><trkpt lat="44.43766" lon="9.367035"><ele>313.0</ele><time>2026-03-28T15:16:24.013Z</time></trkpt><trkpt lat="44.437785" lon="9.3669417"><ele>313.0</ele><time>2026-03-28T15:16:25.013Z</time></trkpt><trkpt lat="44.4379" lon="9.3668283"><ele>313.0</ele><time>2026-03-28T15:16:26.013Z</time></trkpt><trkpt lat="44.4380067" lon="9.3667067"><ele>313.0</ele><time>2026-03-28T15:16:27.013Z</time></trkpt><trkpt lat="44.4381283" lon="9.3666233"><ele>313.0</ele><time>2026-03-28T15:16:28.013Z</time></trkpt><trkpt lat="44.438245" lon="9.366545"><ele>312.8</ele><time>2026-03-28T15:16:29.012Z</time></trkpt><trkpt lat="44.4383333" lon="9.36645"><ele>312.6</ele><time>2026-03-28T15:16:30.013Z</time></trkpt><trkpt lat="44.4384233" lon="9.366385"><ele>312.4</ele><time>2026-03-28T15:16:31.013Z</time></trkpt><trkpt lat="44.4385" lon="9.366345"><ele>312.2</ele><time>2026-03-28T15:16:32.013Z</time></trkpt><trkpt lat="44.4386033" lon="9.3663567"><ele>312.0</ele><time>2026-03-28T15:16:33.013Z</time></trkpt><trkpt lat="44.4387017" lon="9.3663917"><ele>317.4</ele><time>2026-03-28T15:16:34.013Z</time></trkpt><trkpt lat="44.43881" lon="9.3664417"><ele>322.79999999999995</ele><time>2026-03-28T15:16:35.012Z</time></trkpt><trkpt lat="44.4389167" lon="9.3664733"><ele>328.2</ele><time>2026-03-28T15:16:36.013Z</time></trkpt><trkpt lat="44.439025" lon="9.366475"><ele>333.59999999999997</ele><time>2026-03-28T15:16:37.013Z</time></trkpt><trkpt lat="44.4391367" lon="9.366445"><ele>339.0</ele><time>2026-03-28T15:16:38.013Z</time></trkpt><trkpt lat="44.4392483" lon="9.36639"><ele>340.5</ele><time>2026-03-28T15:16:39.013Z</time></trkpt><trkpt lat="44.4393617" lon="9.3663083"><ele>342.0</ele><time>2026-03-28T15:16:40.013Z</time></trkpt><trkpt lat="44.4394717" lon="9.3662117"><ele>343.5</ele><time>2026-03-28T15:16:41.013Z</time></trkpt><trkpt lat="44.4395783" lon="9.3660967"><ele>345.0</ele><time>2026-03-28T15:16:42.013Z</time></trkpt><trkpt lat="44.439685" lon="9.3659917"><ele>345.0</ele><time>2026-03-28T15:16:43.013Z</time></trkpt><trkpt lat="44.4397983" lon="9.3658817"><ele>345.0</ele><time>2026-03-28T15:16:44.012Z</time></trkpt><trkpt lat="44.4399133" lon="9.365765"><ele>345.0</ele><time>2026-03-28T15:16:45.012Z</time></trkpt><trkpt lat="44.4400417" lon="9.3656483"><ele>345.0</ele><time>2026-03-28T15:16:46.013Z</time></trkpt><trkpt lat="44.440165" lon="9.3655433"><ele>344.5</ele><time>2026-03-28T15:16:47.013Z</time></trkpt><trkpt lat="44.4402917" lon="9.3654433"><ele>344.0</ele><time>2026-03-28T15:16:48.013Z</time></trkpt><trkpt lat="44.440415" lon="9.36536"><ele>343.5</ele><time>2026-03-28T15:16:49.013Z</time></trkpt><trkpt lat="44.440525" lon="9.3653217"><ele>343.0</ele><time>2026-03-28T15:16:50.013Z</time></trkpt><trkpt lat="44.4406133" lon="9.3653233"><ele>343.0</ele><time>2026-03-28T15:16:51.012Z</time></trkpt><trkpt lat="44.4407033" lon="9.3653633"><ele>343.0</ele><time>2026-03-28T15:16:52.013Z</time></trkpt><trkpt lat="44.4408017" lon="9.3653983"><ele>343.0</ele><time>2026-03-28T15:16:53.013Z</time></trkpt><trkpt lat="44.4409067" lon="9.3653917"><ele>343.0</ele><time>2026-03-28T15:16:54.013Z</time></trkpt><trkpt lat="44.4409967" lon="9.3653467"><ele>343.0</ele><time>2026-03-28T15:16:55.013Z</time></trkpt><trkpt lat="44.44109" lon="9.3652567"><ele>343.0</ele><time>2026-03-28T15:16:56.013Z</time></trkpt><trkpt lat="44.4411633" lon="9.3651267"><ele>343.0</ele><time>2026-03-28T15:16:57.013Z</time></trkpt><trkpt lat="44.4412417" lon="9.3649817"><ele>343.0</ele><time>2026-03-28T15:16:58.013Z</time></trkpt><trkpt lat="44.4413133" lon="9.3648333"><ele>343.0</ele><time>2026-03-28T15:16:59.013Z</time></trkpt><trkpt lat="44.44138" lon="9.36469"><ele>343.0</ele><time>2026-03-28T15:17:00.012Z</time></trkpt><trkpt lat="44.4414633" lon="9.3645833"><ele>343.0</ele><time>2026-03-28T15:17:01.013Z</time></trkpt><trkpt lat="44.44156" lon="9.364485"><ele>343.0</ele><time>2026-03-28T15:17:02.012Z</time></trkpt><trkpt lat="44.4416683" lon="9.3644217"><ele>343.0</ele><time>2026-03-28T15:17:03.013Z</time></trkpt><trkpt lat="44.44175" lon="9.3643083"><ele>343.0</ele><time>2026-03-28T15:17:04.012Z</time></trkpt><trkpt lat="44.441815" lon="9.36417"><ele>343.0</ele><time>2026-03-28T15:17:05.013Z</time></trkpt><trkpt lat="44.4418717" lon="9.3640233"><ele>343.0</ele><time>2026-03-28T15:17:06.013Z</time></trkpt><trkpt lat="44.4419383" lon="9.3639067"><ele>343.0</ele><time>2026-03-28T15:17:07.013Z</time></trkpt><trkpt lat="44.4420133" lon="9.36382"><ele>343.0</ele><time>2026-03-28T15:17:08.013Z</time></trkpt><trkpt lat="44.4421133" lon="9.3637833"><ele>340.5</ele><time>2026-03-28T15:17:09.013Z</time></trkpt><trkpt lat="44.4422317" lon="9.3638033"><ele>338.0</ele><time>2026-03-28T15:17:10.013Z</time></trkpt><trkpt lat="44.4423517" lon="9.3638467"><ele>335.5</ele><time>2026-03-28T15:17:11.013Z</time></trkpt><trkpt lat="44.44248" lon="9.3638967"><ele>333.0</ele><time>2026-03-28T15:17:12.013Z</time></trkpt><trkpt lat="44.4426067" lon="9.3639317"><ele>339.0</ele><time>2026-03-28T15:17:13.013Z</time></trkpt><trkpt lat="44.4427383" lon="9.36395"><ele>345.0</ele><time>2026-03-28T15:17:14.012Z</time></trkpt><trkpt lat="44.44286" lon="9.3639533"><ele>351.0</ele><time>2026-03-28T15:17:15.013Z</time></trkpt><trkpt lat="44.4429917" lon="9.3639417"><ele>357.0</ele><time>2026-03-28T15:17:16.013Z</time></trkpt><trkpt lat="44.4431233" lon="9.3639383"><ele>358.20000000000005</ele><time>2026-03-28T15:17:17.013Z</time></trkpt><trkpt lat="44.4432467" lon="9.363925"><ele>359.4</ele><time>2026-03-28T15:17:18.013Z</time></trkpt><trkpt lat="44.4433533" lon="9.3639333"><ele>360.6</ele><time>2026-03-28T15:17:19.013Z</time></trkpt><trkpt lat="44.443455" lon="9.3639717"><ele>361.79999999999995</ele><time>2026-03-28T15:17:20.013Z</time></trkpt><trkpt lat="44.4435467" lon="9.36406"><ele>363.0</ele><time>2026-03-28T15:17:21.013Z</time></trkpt><trkpt lat="44.443635" lon="9.3641583"><ele>363.0</ele><time>2026-03-28T15:17:22.013Z</time></trkpt><trkpt lat="44.4437083" lon="9.364255"><ele>363.0</ele><time>2026-03-28T15:17:23.013Z</time></trkpt><trkpt lat="44.44378" lon="9.3643517"><ele>363.0</ele><time>2026-03-28T15:17:24.013Z</time></trkpt><trkpt lat="44.4438683" lon="9.3644283"><ele>363.0</ele><time>2026-03-28T15:17:25.013Z</time></trkpt><trkpt lat="44.4439917" lon="9.364475"><ele>363.0</ele><time>2026-03-28T15:17:26.013Z</time></trkpt><trkpt lat="44.4441133" lon="9.3645"><ele>362.2</ele><time>2026-03-28T15:17:27.012Z</time></trkpt><trkpt lat="44.444245" lon="9.3645183"><ele>361.4</ele><time>2026-03-28T15:17:28.013Z</time></trkpt><trkpt lat="44.44436" lon="9.3645467"><ele>360.59999999999997</ele><time>2026-03-28T15:17:29.012Z</time></trkpt><trkpt lat="44.44446" lon="9.364585"><ele>359.79999999999995</ele><time>2026-03-28T15:17:30.013Z</time></trkpt><trkpt lat="44.4445467" lon="9.3646"><ele>359.0</ele><time>2026-03-28T15:17:31.013Z</time></trkpt><trkpt lat="44.4446233" lon="9.3645983"><ele>360.79999999999995</ele><time>2026-03-28T15:17:32.013Z</time></trkpt><trkpt lat="44.444705" lon="9.36457"><ele>362.59999999999997</ele><time>2026-03-28T15:17:33.013Z</time></trkpt><trkpt lat="44.4447783" lon="9.3644967"><ele>364.4</ele><time>2026-03-28T15:17:34.012Z</time></trkpt><trkpt lat="44.4448517" lon="9.3644217"><ele>366.2</ele><time>2026-03-28T15:17:35.013Z</time></trkpt><trkpt lat="44.44494" lon="9.3643367"><ele>368.0</ele><time>2026-03-28T15:17:36.013Z</time></trkpt><trkpt lat="44.4450383" lon="9.3642967"><ele>368.0</ele><time>2026-03-28T15:17:37.013Z</time></trkpt><trkpt lat="44.445145" lon="9.364255"><ele>368.0</ele><time>2026-03-28T15:17:38.013Z</time></trkpt><trkpt lat="44.4452517" lon="9.364255"><ele>368.0</ele><time>2026-03-28T15:17:39.013Z</time></trkpt><trkpt lat="44.44536" lon="9.3642833"><ele>368.0</ele><time>2026-03-28T15:17:40.012Z</time></trkpt><trkpt lat="44.4454667" lon="9.36432"><ele>368.0</ele><time>2026-03-28T15:17:41.013Z</time></trkpt><trkpt lat="44.4455767" lon="9.36435"><ele>369.25</ele><time>2026-03-28T15:17:42.013Z</time></trkpt><trkpt lat="44.445695" lon="9.3643917"><ele>370.5</ele><time>2026-03-28T15:17:43.013Z</time></trkpt><trkpt lat="44.4458233" lon="9.3644183"><ele>371.75</ele><time>2026-03-28T15:17:44.013Z</time></trkpt><trkpt lat="44.4459533" lon="9.364445"><ele>373.0</ele><time>2026-03-28T15:17:45.013Z</time></trkpt><trkpt lat="44.4460883" lon="9.3644667"><ele>373.0</ele><time>2026-03-28T15:17:46.013Z</time></trkpt><trkpt lat="44.4462367" lon="9.36449"><ele>373.0</ele><time>2026-03-28T15:17:47.013Z</time></trkpt><trkpt lat="44.4463833" lon="9.364515"><ele>373.0</ele><time>2026-03-28T15:17:48.013Z</time></trkpt><trkpt lat="44.4465283" lon="9.3645533"><ele>373.0</ele><time>2026-03-28T15:17:49.013Z</time></trkpt><trkpt lat="44.4466817" lon="9.3645967"><ele>370.0</ele><time>2026-03-28T15:17:50.013Z</time></trkpt><trkpt lat="44.4468367" lon="9.364635"><ele>367.0</ele><time>2026-03-28T15:17:51.013Z</time></trkpt><trkpt lat="44.44699" lon="9.3646967"><ele>364.0</ele><time>2026-03-28T15:17:52.013Z</time></trkpt><trkpt lat="44.4471367" lon="9.3647967"><ele>371.75</ele><time>2026-03-28T15:17:53.013Z</time></trkpt><trkpt lat="44.44729" lon="9.3648567"><ele>379.5</ele><time>2026-03-28T15:17:54.013Z</time></trkpt><trkpt lat="44.4474283" lon="9.36491"><ele>387.25</ele><time>2026-03-28T15:17:55.013Z</time></trkpt><trkpt lat="44.44756" lon="9.3649433"><ele>395.0</ele><time>2026-03-28T15:17:56.013Z</time></trkpt><trkpt lat="44.4476983" lon="9.36495"><ele>395.0</ele><time>2026-03-28T15:17:57.013Z</time></trkpt><trkpt lat="44.4478183" lon="9.36492"><ele>395.0</ele><time>2026-03-28T15:17:58.013Z</time></trkpt><trkpt lat="44.4479467" lon="9.3649133"><ele>395.0</ele><time>2026-03-28T15:17:59.013Z</time></trkpt><trkpt lat="44.44808" lon="9.3649283"><ele>395.0</ele><time>2026-03-28T15:18:00.013Z</time></trkpt><trkpt lat="44.4482" lon="9.3649867"><ele>394.5</ele><time>2026-03-28T15:18:01.012Z</time></trkpt><trkpt lat="44.448325" lon="9.365045"><ele>394.0</ele><time>2026-03-28T15:18:02.013Z</time></trkpt><trkpt lat="44.44844" lon="9.365105"><ele>393.5</ele><time>2026-03-28T15:18:03.013Z</time></trkpt><trkpt lat="44.4485533" lon="9.3651383"><ele>393.0</ele><time>2026-03-28T15:18:04.013Z</time></trkpt><trkpt lat="44.4486733" lon="9.36518"><ele>393.0</ele><time>2026-03-28T15:18:05.013Z</time></trkpt><trkpt lat="44.4487767" lon="9.3652217"><ele>393.0</ele><time>2026-03-28T15:18:06.012Z</time></trkpt><trkpt lat="44.4488717" lon="9.3652633"><ele>393.0</ele><time>2026-03-28T15:18:07.013Z</time></trkpt><trkpt lat="44.448975" lon="9.3652717"><ele>393.0</ele><time>2026-03-28T15:18:08.013Z</time></trkpt><trkpt lat="44.4490567" lon="9.365225"><ele>393.0</ele><time>2026-03-28T15:18:09.013Z</time></trkpt><trkpt lat="44.44911" lon="9.3651067"><ele>393.0</ele><time>2026-03-28T15:18:10.013Z</time></trkpt><trkpt lat="44.4491583" lon="9.3650117"><ele>393.0</ele><time>2026-03-28T15:18:11.013Z</time></trkpt><trkpt lat="44.4491867" lon="9.3648967"><ele>393.0</ele><time>2026-03-28T15:18:12.013Z</time></trkpt><trkpt lat="44.449195" lon="9.364775"><ele>393.0</ele><time>2026-03-28T15:18:13.012Z</time></trkpt><trkpt lat="44.449145" lon="9.3646317"><ele>393.0</ele><time>2026-03-28T15:18:14.013Z</time></trkpt><trkpt lat="44.4490533" lon="9.364515"><ele>393.0</ele><time>2026-03-28T15:18:15.013Z</time></trkpt><trkpt lat="44.44897" lon="9.3644167"><ele>393.0</ele><time>2026-03-28T15:18:16.013Z</time></trkpt><trkpt lat="44.4489183" lon="9.3643083"><ele>393.0</ele><time>2026-03-28T15:18:17.013Z</time></trkpt><trkpt lat="44.4488983" lon="9.36418"><ele>393.0</ele><time>2026-03-28T15:18:18.013Z</time></trkpt><trkpt lat="44.4489183" lon="9.3640617"><ele>393.0</ele><time>2026-03-28T15:18:19.013Z</time></trkpt><trkpt lat="44.4489583" lon="9.3639567"><ele>393.0</ele><time>2026-03-28T15:18:20.013Z</time></trkpt><trkpt lat="44.4490383" lon="9.3638833"><ele>393.0</ele><time>2026-03-28T15:18:21.013Z</time></trkpt><trkpt lat="44.449135" lon="9.36381"><ele>393.0</ele><time>2026-03-28T15:18:22.013Z</time></trkpt><trkpt lat="44.4492733" lon="9.3637483"><ele>393.0</ele><time>2026-03-28T15:18:23.013Z</time></trkpt><trkpt lat="44.4494133" lon="9.3637217"><ele>391.75</ele><time>2026-03-28T15:18:24.013Z</time></trkpt><trkpt lat="44.449545" lon="9.363705"><ele>390.5</ele><time>2026-03-28T15:18:25.013Z</time></trkpt><trkpt lat="44.4496617" lon="9.3636917"><ele>389.25</ele><time>2026-03-28T15:18:26.013Z</time></trkpt><trkpt lat="44.4497633" lon="9.3636433"><ele>388.0</ele><time>2026-03-28T15:18:27.013Z</time></trkpt><trkpt lat="44.4498367" lon="9.3635383"><ele>391.2</ele><time>2026-03-28T15:18:28.013Z</time></trkpt><trkpt lat="44.4498833" lon="9.3634083"><ele>394.4</ele><time>2026-03-28T15:18:29.013Z</time></trkpt><trkpt lat="44.4499017" lon="9.36326"><ele>397.59999999999997</ele><time>2026-03-28T15:18:30.013Z</time></trkpt><trkpt lat="44.449895" lon="9.3630983"><ele>400.79999999999995</ele><time>2026-03-28T15:18:31.012Z</time></trkpt><trkpt lat="44.4498667" lon="9.3629383"><ele>404.0</ele><time>2026-03-28T15:18:32.013Z</time></trkpt><trkpt lat="44.4498317" lon="9.36278"><ele>404.0</ele><time>2026-03-28T15:18:33.013Z</time></trkpt><trkpt lat="44.44982" lon="9.36261"><ele>404.0</ele><time>2026-03-28T15:18:34.013Z</time></trkpt><trkpt lat="44.4498467" lon="9.3624483"><ele>404.0</ele><time>2026-03-28T15:18:35.013Z</time></trkpt><trkpt lat="44.449905" lon="9.36231"><ele>404.0</ele><time>2026-03-28T15:18:36.013Z</time></trkpt><trkpt lat="44.4499833" lon="9.3622133"><ele>404.0</ele><time>2026-03-28T15:18:37.013Z</time></trkpt><trkpt lat="44.45008" lon="9.36216"><ele>404.0</ele><time>2026-03-28T15:18:38.012Z</time></trkpt><trkpt lat="44.450215" lon="9.362195"><ele>404.0</ele><time>2026-03-28T15:18:39.013Z</time></trkpt><trkpt lat="44.4503583" lon="9.3622183"><ele>404.0</ele><time>2026-03-28T15:18:40.013Z</time></trkpt><trkpt lat="44.4504983" lon="9.3622367"><ele>406.0</ele><time>2026-03-28T15:18:41.013Z</time></trkpt><trkpt lat="44.45061" lon="9.3622317"><ele>408.0</ele><time>2026-03-28T15:18:42.013Z</time></trkpt><trkpt lat="44.4507167" lon="9.3622"><ele>410.0</ele><time>2026-03-28T15:18:43.013Z</time></trkpt><trkpt lat="44.4507967" lon="9.36213"><ele>412.0</ele><time>2026-03-28T15:18:44.013Z</time></trkpt><trkpt lat="44.4508567" lon="9.3620517"><ele>414.0</ele><time>2026-03-28T15:18:45.012Z</time></trkpt><trkpt lat="44.4508933" lon="9.361945"><ele>414.0</ele><time>2026-03-28T15:18:46.012Z</time></trkpt><trkpt lat="44.4509133" lon="9.3617967"><ele>414.0</ele><time>2026-03-28T15:18:47.012Z</time></trkpt><trkpt lat="44.4509133" lon="9.36164"><ele>414.0</ele><time>2026-03-28T15:18:48.013Z</time></trkpt><trkpt lat="44.450925" lon="9.3614917"><ele>414.0</ele><time>2026-03-28T15:18:49.013Z</time></trkpt><trkpt lat="44.45094" lon="9.36134"><ele>414.0</ele><time>2026-03-28T15:18:50.013Z</time></trkpt><trkpt lat="44.4509883" lon="9.3611933"><ele>411.75</ele><time>2026-03-28T15:18:51.013Z</time></trkpt><trkpt lat="44.4510417" lon="9.361065"><ele>409.5</ele><time>2026-03-28T15:18:52.013Z</time></trkpt><trkpt lat="44.4511033" lon="9.3609567"><ele>407.25</ele><time>2026-03-28T15:18:53.013Z</time></trkpt><trkpt lat="44.45116" lon="9.360795"><ele>405.0</ele><time>2026-03-28T15:18:54.013Z</time></trkpt><trkpt lat="44.4512217" lon="9.36064"><ele>407.75</ele><time>2026-03-28T15:18:55.013Z</time></trkpt><trkpt lat="44.451305" lon="9.3604967"><ele>410.5</ele><time>2026-03-28T15:18:56.013Z</time></trkpt><trkpt lat="44.4514067" lon="9.3603767"><ele>413.25</ele><time>2026-03-28T15:18:57.013Z</time></trkpt><trkpt lat="44.4515117" lon="9.3602767"><ele>416.0</ele><time>2026-03-28T15:18:58.013Z</time></trkpt><trkpt lat="44.4516183" lon="9.3601933"><ele>416.0</ele><time>2026-03-28T15:18:59.012Z</time></trkpt><trkpt lat="44.4517133" lon="9.360115"><ele>416.0</ele><time>2026-03-28T15:19:00.013Z</time></trkpt><trkpt lat="44.4518017" lon="9.3600633"><ele>416.0</ele><time>2026-03-28T15:19:01.013Z</time></trkpt><trkpt lat="44.45189" lon="9.3600483"><ele>416.0</ele><time>2026-03-28T15:19:02.012Z</time></trkpt><trkpt lat="44.4519717" lon="9.3600617"><ele>416.0</ele><time>2026-03-28T15:19:03.013Z</time></trkpt><trkpt lat="44.4520567" lon="9.36011"><ele>416.0</ele><time>2026-03-28T15:19:04.013Z</time></trkpt><trkpt lat="44.4521233" lon="9.3602083"><ele>416.0</ele><time>2026-03-28T15:19:05.013Z</time></trkpt><trkpt lat="44.45219" lon="9.3603333"><ele>416.0</ele><time>2026-03-28T15:19:06.013Z</time></trkpt><trkpt lat="44.4522433" lon="9.3604767"><ele>416.0</ele><time>2026-03-28T15:19:07.012Z</time></trkpt><trkpt lat="44.4523167" lon="9.3605983"><ele>416.0</ele><time>2026-03-28T15:19:08.013Z</time></trkpt><trkpt lat="44.452395" lon="9.3606867"><ele>419.20000000000005</ele><time>2026-03-28T15:19:09.013Z</time></trkpt><trkpt lat="44.4524933" lon="9.36073"><ele>422.40000000000003</ele><time>2026-03-28T15:19:10.013Z</time></trkpt><trkpt lat="44.4525867" lon="9.3607233"><ele>425.6</ele><time>2026-03-28T15:19:11.012Z</time></trkpt><trkpt lat="44.45269" lon="9.3607"><ele>428.8</ele><time>2026-03-28T15:19:12.013Z</time></trkpt><trkpt lat="44.45277" lon="9.3607133"><ele>432.0</ele><time>2026-03-28T15:19:13.013Z</time></trkpt><trkpt lat="44.45284" lon="9.3607583"><ele>432.0</ele><time>2026-03-28T15:19:14.013Z</time></trkpt><trkpt lat="44.45288" lon="9.3608333"><ele>432.0</ele><time>2026-03-28T15:19:15.013Z</time></trkpt><trkpt lat="44.452895" lon="9.3609217"><ele>432.0</ele><time>2026-03-28T15:19:16.013Z</time></trkpt><trkpt lat="44.452875" lon="9.3610167"><ele>432.0</ele><time>2026-03-28T15:19:17.013Z</time></trkpt><trkpt lat="44.4528233" lon="9.3610983"><ele>432.0</ele><time>2026-03-28T15:19:18.013Z</time></trkpt><trkpt lat="44.452735" lon="9.3611433"><ele>432.0</ele><time>2026-03-28T15:19:19.012Z</time></trkpt><trkpt lat="44.4526283" lon="9.36114"><ele>432.0</ele><time>2026-03-28T15:19:20.013Z</time></trkpt><trkpt lat="44.452505" lon="9.3610783"><ele>432.0</ele><time>2026-03-28T15:19:21.012Z</time></trkpt><trkpt lat="44.4523767" lon="9.3609933"><ele>432.0</ele><time>2026-03-28T15:19:22.013Z</time></trkpt><trkpt lat="44.4522333" lon="9.360925"><ele>432.0</ele><time>2026-03-28T15:19:23.013Z</time></trkpt><trkpt lat="44.452125" lon="9.3608983"><ele>430.8</ele><time>2026-03-28T15:19:24.013Z</time></trkpt><trkpt lat="44.45202" lon="9.3609083"><ele>429.6</ele><time>2026-03-28T15:19:25.013Z</time></trkpt><trkpt lat="44.4519183" lon="9.3609517"><ele>428.40000000000003</ele><time>2026-03-28T15:19:26.013Z</time></trkpt><trkpt lat="44.45182" lon="9.3610333"><ele>427.20000000000005</ele><time>2026-03-28T15:19:27.013Z</time></trkpt><trkpt lat="44.451735" lon="9.3611317"><ele>426.0</ele><time>2026-03-28T15:19:28.013Z</time></trkpt><trkpt lat="44.451645" lon="9.36126"><ele>428.25</ele><time>2026-03-28T15:19:29.012Z</time></trkpt><trkpt lat="44.4515833" lon="9.3613967"><ele>430.5</ele><time>2026-03-28T15:19:30.013Z</time></trkpt><trkpt lat="44.4515217" lon="9.3615417"><ele>432.75</ele><time>2026-03-28T15:19:31.012Z</time></trkpt><trkpt lat="44.4514617" lon="9.36167"><ele>435.0</ele><time>2026-03-28T15:19:32.013Z</time></trkpt><trkpt lat="44.4513867" lon="9.3618133"><ele>435.0</ele><time>2026-03-28T15:19:33.013Z</time></trkpt><trkpt lat="44.4513083" lon="9.3619317"><ele>435.0</ele><time>2026-03-28T15:19:34.012Z</time></trkpt><trkpt lat="44.45124" lon="9.3620317"><ele>435.0</ele><time>2026-03-28T15:19:35.013Z</time></trkpt><trkpt lat="44.4511967" lon="9.362145"><ele>435.0</ele><time>2026-03-28T15:19:36.013Z</time></trkpt><trkpt lat="44.4511917" lon="9.3622483"><ele>435.0</ele><time>2026-03-28T15:19:37.013Z</time></trkpt><trkpt lat="44.4512167" lon="9.3623667"><ele>436.6</ele><time>2026-03-28T15:19:38.013Z</time></trkpt><trkpt lat="44.451275" lon="9.36246"><ele>438.2</ele><time>2026-03-28T15:19:39.013Z</time></trkpt><trkpt lat="44.451345" lon="9.3625067"><ele>439.79999999999995</ele><time>2026-03-28T15:19:40.013Z</time></trkpt><trkpt lat="44.451445" lon="9.3624967"><ele>441.4</ele><time>2026-03-28T15:19:41.012Z</time></trkpt><trkpt lat="44.45154" lon="9.36243"><ele>443.0</ele><time>2026-03-28T15:19:42.013Z</time></trkpt><trkpt lat="44.4516133" lon="9.3623083"><ele>441.0</ele><time>2026-03-28T15:19:43.013Z</time></trkpt><trkpt lat="44.45167" lon="9.3621167"><ele>439.0</ele><time>2026-03-28T15:19:44.013Z</time></trkpt><trkpt lat="44.451715" lon="9.361935"><ele>437.0</ele><time>2026-03-28T15:19:45.013Z</time></trkpt><trkpt lat="44.4517767" lon="9.36178"><ele>435.0</ele><time>2026-03-28T15:19:46.013Z</time></trkpt><trkpt lat="44.45186" lon="9.3616717"><ele>435.0</ele><time>2026-03-28T15:19:47.013Z</time></trkpt><trkpt lat="44.4519617" lon="9.36159"><ele>435.0</ele><time>2026-03-28T15:19:48.013Z</time></trkpt><trkpt lat="44.4520667" lon="9.361525"><ele>435.0</ele><time>2026-03-28T15:19:49.013Z</time></trkpt><trkpt lat="44.452165" lon="9.3614683"><ele>435.0</ele><time>2026-03-28T15:19:50.013Z</time></trkpt><trkpt lat="44.45226" lon="9.3614183"><ele>435.0</ele><time>2026-03-28T15:19:51.013Z</time></trkpt><trkpt lat="44.45235" lon="9.3614017"><ele>437.8</ele><time>2026-03-28T15:19:52.013Z</time></trkpt><trkpt lat="44.4524383" lon="9.36142"><ele>440.6</ele><time>2026-03-28T15:19:53.013Z</time></trkpt><trkpt lat="44.4525283" lon="9.3614683"><ele>443.4</ele><time>2026-03-28T15:19:54.013Z</time></trkpt><trkpt lat="44.45262" lon="9.361525"><ele>446.2</ele><time>2026-03-28T15:19:55.013Z</time></trkpt><trkpt lat="44.4527167" lon="9.3615883"><ele>449.0</ele><time>2026-03-28T15:19:56.012Z</time></trkpt><trkpt lat="44.4528" lon="9.3616233"><ele>449.0</ele><time>2026-03-28T15:19:57.013Z</time></trkpt><trkpt lat="44.4528917" lon="9.3616183"><ele>449.0</ele><time>2026-03-28T15:19:58.013Z</time></trkpt><trkpt lat="44.453" lon="9.3615767"><ele>449.0</ele><time>2026-03-28T15:19:59.012Z</time></trkpt><trkpt lat="44.4531133" lon="9.361515"><ele>449.0</ele><time>2026-03-28T15:20:00.013Z</time></trkpt><trkpt lat="44.453195" lon="9.36142"><ele>449.0</ele><time>2026-03-28T15:20:01.012Z</time></trkpt><trkpt lat="44.4532667" lon="9.3613383"><ele>449.99999999999994</ele><time>2026-03-28T15:20:02.013Z</time></trkpt><trkpt lat="44.4533433" lon="9.361285"><ele>451.0</ele><time>2026-03-28T15:20:03.013Z</time></trkpt><trkpt lat="44.4534233" lon="9.3612683"><ele>452.0</ele><time>2026-03-28T15:20:04.013Z</time></trkpt><trkpt lat="44.4534983" lon="9.3612983"><ele>453.0</ele><time>2026-03-28T15:20:05.012Z</time></trkpt><trkpt lat="44.4535583" lon="9.3613917"><ele>453.99999999999994</ele><time>2026-03-28T15:20:06.013Z</time></trkpt><trkpt lat="44.453615" lon="9.3615283"><ele>455.0</ele><time>2026-03-28T15:20:07.013Z</time></trkpt><trkpt lat="44.45369" lon="9.3616567"><ele>455.0</ele><time>2026-03-28T15:20:08.013Z</time></trkpt><trkpt lat="44.453775" lon="9.36178"><ele>455.0</ele><time>2026-03-28T15:20:09.013Z</time></trkpt><trkpt lat="44.4538617" lon="9.3619017"><ele>455.0</ele><time>2026-03-28T15:20:10.013Z</time></trkpt><trkpt lat="44.4539633" lon="9.36202"><ele>455.0</ele><time>2026-03-28T15:20:11.013Z</time></trkpt><trkpt lat="44.4540683" lon="9.36212"><ele>457.25</ele><time>2026-03-28T15:20:12.013Z</time></trkpt><trkpt lat="44.45418" lon="9.3622183"><ele>459.5</ele><time>2026-03-28T15:20:13.013Z</time></trkpt><trkpt lat="44.454295" lon="9.3623"><ele>461.75</ele><time>2026-03-28T15:20:14.013Z</time></trkpt><trkpt lat="44.454415" lon="9.3623633"><ele>464.0</ele><time>2026-03-28T15:20:15.012Z</time></trkpt><trkpt lat="44.4545467" lon="9.3624033"><ele>463.5</ele><time>2026-03-28T15:20:16.012Z</time></trkpt><trkpt lat="44.4546717" lon="9.3624317"><ele>463.0</ele><time>2026-03-28T15:20:17.012Z</time></trkpt><trkpt lat="44.454805" lon="9.3624667"><ele>462.5</ele><time>2026-03-28T15:20:18.013Z</time></trkpt><trkpt lat="44.45493" lon="9.3625183"><ele>462.0</ele><time>2026-03-28T15:20:19.013Z</time></trkpt><trkpt lat="44.4550533" lon="9.3625583"><ele>462.0</ele><time>2026-03-28T15:20:20.013Z</time></trkpt><trkpt lat="44.45517" lon="9.3625867"><ele>462.00000000000006</ele><time>2026-03-28T15:20:21.013Z</time></trkpt><trkpt lat="44.4552717" lon="9.3626333"><ele>462.00000000000006</ele><time>2026-03-28T15:20:22.012Z</time></trkpt><trkpt lat="44.4553533" lon="9.3627383"><ele>462.0</ele><time>2026-03-28T15:20:23.013Z</time></trkpt><trkpt lat="44.455425" lon="9.3628267"><ele>462.0</ele><time>2026-03-28T15:20:24.013Z</time></trkpt><trkpt lat="44.45546" lon="9.3629883"><ele>462.5</ele><time>2026-03-28T15:20:25.013Z</time></trkpt><trkpt lat="44.455525" lon="9.3631683"><ele>463.0</ele><time>2026-03-28T15:20:26.012Z</time></trkpt><trkpt lat="44.4555883" lon="9.36334"><ele>463.5</ele><time>2026-03-28T15:20:27.013Z</time></trkpt><trkpt lat="44.45566" lon="9.3635033"><ele>464.0</ele><time>2026-03-28T15:20:28.013Z</time></trkpt><trkpt lat="44.45572" lon="9.3636683"><ele>464.0</ele><time>2026-03-28T15:20:29.013Z</time></trkpt><trkpt lat="44.4557883" lon="9.3638283"><ele>464.0</ele><time>2026-03-28T15:20:30.013Z</time></trkpt><trkpt lat="44.4558467" lon="9.3639717"><ele>464.0</ele><time>2026-03-28T15:20:31.013Z</time></trkpt><trkpt lat="44.4558833" lon="9.3640967"><ele>464.0</ele><time>2026-03-28T15:20:32.013Z</time></trkpt><trkpt lat="44.4559017" lon="9.36423"><ele>464.0</ele><time>2026-03-28T15:20:33.013Z</time></trkpt><trkpt lat="44.4558867" lon="9.3643467"><ele>465.49999999999994</ele><time>2026-03-28T15:20:34.012Z</time></trkpt><trkpt lat="44.4558617" lon="9.36444"><ele>467.0</ele><time>2026-03-28T15:20:35.013Z</time></trkpt><trkpt lat="44.455815" lon="9.3645017"><ele>468.5</ele><time>2026-03-28T15:20:36.012Z</time></trkpt><trkpt lat="44.4557467" lon="9.3645083"><ele>470.0</ele><time>2026-03-28T15:20:37.013Z</time></trkpt><trkpt lat="44.4556717" lon="9.364445"><ele>471.49999999999994</ele><time>2026-03-28T15:20:38.013Z</time></trkpt><trkpt lat="44.4555983" lon="9.3643333"><ele>473.0</ele><time>2026-03-28T15:20:39.013Z</time></trkpt><trkpt lat="44.4555283" lon="9.3641517"><ele>473.0</ele><time>2026-03-28T15:20:40.012Z</time></trkpt><trkpt lat="44.4554883" lon="9.3639767"><ele>473.0</ele><time>2026-03-28T15:20:41.013Z</time></trkpt><trkpt lat="44.4554517" lon="9.3638067"><ele>473.0</ele><time>2026-03-28T15:20:42.013Z</time></trkpt><trkpt lat="44.4554117" lon="9.3636567"><ele>473.0</ele><time>2026-03-28T15:20:43.012Z</time></trkpt><trkpt lat="44.455395" lon="9.3634317"><ele>473.59999999999997</ele><time>2026-03-28T15:20:44.013Z</time></trkpt><trkpt lat="44.4553517" lon="9.3632867"><ele>474.19999999999993</ele><time>2026-03-28T15:20:45.013Z</time></trkpt><trkpt lat="44.4553" lon="9.3631633"><ele>474.8</ele><time>2026-03-28T15:20:46.013Z</time></trkpt><trkpt lat="44.455235" lon="9.3630583"><ele>475.4</ele><time>2026-03-28T15:20:47.013Z</time></trkpt><trkpt lat="44.4551583" lon="9.36298"><ele>476.0</ele><time>2026-03-28T15:20:48.012Z</time></trkpt><trkpt lat="44.4550767" lon="9.362925"><ele>476.0</ele><time>2026-03-28T15:20:49.013Z</time></trkpt><trkpt lat="44.4549767" lon="9.3628967"><ele>476.0</ele><time>2026-03-28T15:20:50.013Z</time></trkpt><trkpt lat="44.4548883" lon="9.362935"><ele>476.0</ele><time>2026-03-28T15:20:51.013Z</time></trkpt><trkpt lat="44.4548167" lon="9.363025"><ele>476.0</ele><time>2026-03-28T15:20:52.012Z</time></trkpt><trkpt lat="44.454745" lon="9.3631367"><ele>476.0</ele><time>2026-03-28T15:20:53.013Z</time></trkpt><trkpt lat="44.4546767" lon="9.3633"><ele>475.0</ele><time>2026-03-28T15:20:54.013Z</time></trkpt><trkpt lat="44.4546033" lon="9.3634333"><ele>474.0</ele><time>2026-03-28T15:20:55.013Z</time></trkpt><trkpt lat="44.4545217" lon="9.36357"><ele>473.0</ele><time>2026-03-28T15:20:56.013Z</time></trkpt><trkpt lat="44.4544433" lon="9.3636967"><ele>472.0</ele><time>2026-03-28T15:20:57.012Z</time></trkpt><trkpt lat="44.45436" lon="9.3638267"><ele>474.75</ele><time>2026-03-28T15:20:58.013Z</time></trkpt><trkpt lat="44.4542817" lon="9.3639583"><ele>477.5</ele><time>2026-03-28T15:20:59.013Z</time></trkpt><trkpt lat="44.4542117" lon="9.3641017"><ele>480.25</ele><time>2026-03-28T15:21:00.012Z</time></trkpt><trkpt lat="44.454165" lon="9.3642483"><ele>483.0</ele><time>2026-03-28T15:21:01.013Z</time></trkpt><trkpt lat="44.4541367" lon="9.3644"><ele>483.0</ele><time>2026-03-28T15:21:02.013Z</time></trkpt><trkpt lat="44.4541367" lon="9.3645617"><ele>482.99999999999994</ele><time>2026-03-28T15:21:03.013Z</time></trkpt><trkpt lat="44.4541417" lon="9.3647267"><ele>482.99999999999994</ele><time>2026-03-28T15:21:04.013Z</time></trkpt><trkpt lat="44.454145" lon="9.3648717"><ele>483.0</ele><time>2026-03-28T15:21:05.013Z</time></trkpt><trkpt lat="44.45412" lon="9.3650117"><ele>483.0</ele><time>2026-03-28T15:21:06.013Z</time></trkpt><trkpt lat="44.4540817" lon="9.3651383"><ele>483.0</ele><time>2026-03-28T15:21:07.013Z</time></trkpt><trkpt lat="44.454015" lon="9.365235"><ele>482.99999999999994</ele><time>2026-03-28T15:21:08.013Z</time></trkpt><trkpt lat="44.453935" lon="9.36529"><ele>482.99999999999994</ele><time>2026-03-28T15:21:09.013Z</time></trkpt><trkpt lat="44.4538283" lon="9.3653017"><ele>483.0</ele><time>2026-03-28T15:21:10.012Z</time></trkpt><trkpt lat="44.4537017" lon="9.3653"><ele>483.0</ele><time>2026-03-28T15:21:11.012Z</time></trkpt><trkpt lat="44.45359" lon="9.3653133"><ele>483.0</ele><time>2026-03-28T15:21:12.013Z</time></trkpt><trkpt lat="44.453505" lon="9.36536"><ele>482.99999999999994</ele><time>2026-03-28T15:21:13.013Z</time></trkpt><trkpt lat="44.4534417" lon="9.365435"><ele>482.99999999999994</ele><time>2026-03-28T15:21:14.013Z</time></trkpt><trkpt lat="44.4534033" lon="9.365545"><ele>483.0</ele><time>2026-03-28T15:21:15.013Z</time></trkpt><trkpt lat="44.4534033" lon="9.365675"><ele>483.0</ele><time>2026-03-28T15:21:16.012Z</time></trkpt><trkpt lat="44.45345" lon="9.3658117"><ele>484.2</ele><time>2026-03-28T15:21:17.013Z</time></trkpt><trkpt lat="44.4535233" lon="9.36593"><ele>485.4</ele><time>2026-03-28T15:21:18.013Z</time></trkpt><trkpt lat="44.4536" lon="9.3660367"><ele>486.59999999999997</ele><time>2026-03-28T15:21:19.013Z</time></trkpt><trkpt lat="44.453685" lon="9.3661067"><ele>487.79999999999995</ele><time>2026-03-28T15:21:20.013Z</time></trkpt><trkpt lat="44.4537817" lon="9.366145"><ele>489.0</ele><time>2026-03-28T15:21:21.013Z</time></trkpt><trkpt lat="44.45391" lon="9.3661433"><ele>492.0</ele><time>2026-03-28T15:21:22.013Z</time></trkpt><trkpt lat="44.454025" lon="9.3660967"><ele>495.0</ele><time>2026-03-28T15:21:23.013Z</time></trkpt><trkpt lat="44.454135" lon="9.3659917"><ele>498.0</ele><time>2026-03-28T15:21:24.012Z</time></trkpt><trkpt lat="44.4542333" lon="9.3658517"><ele>501.0</ele><time>2026-03-28T15:21:25.012Z</time></trkpt><trkpt lat="44.45432" lon="9.365695"><ele>501.0</ele><time>2026-03-28T15:21:26.013Z</time></trkpt><trkpt lat="44.454405" lon="9.3655383"><ele>501.0</ele><time>2026-03-28T15:21:27.012Z</time></trkpt><trkpt lat="44.4544667" lon="9.365355"><ele>501.0</ele><time>2026-03-28T15:21:28.013Z</time></trkpt><trkpt lat="44.4545033" lon="9.3652067"><ele>501.0</ele><time>2026-03-28T15:21:29.013Z</time></trkpt><trkpt lat="44.454525" lon="9.3650733"><ele>501.5</ele><time>2026-03-28T15:21:30.013Z</time></trkpt><trkpt lat="44.4545667" lon="9.364965"><ele>502.0</ele><time>2026-03-28T15:21:31.012Z</time></trkpt><trkpt lat="44.4546167" lon="9.3648733"><ele>502.5</ele><time>2026-03-28T15:21:32.013Z</time></trkpt><trkpt lat="44.4546883" lon="9.36481"><ele>503.0</ele><time>2026-03-28T15:21:33.013Z</time></trkpt><trkpt lat="44.45476" lon="9.36481"><ele>503.5</ele><time>2026-03-28T15:21:34.013Z</time></trkpt><trkpt lat="44.4548467" lon="9.364845"><ele>504.0</ele><time>2026-03-28T15:21:35.013Z</time></trkpt><trkpt lat="44.454935" lon="9.3649167"><ele>504.0</ele><time>2026-03-28T15:21:36.013Z</time></trkpt><trkpt lat="44.45502" lon="9.365"><ele>504.0</ele><time>2026-03-28T15:21:37.013Z</time></trkpt><trkpt lat="44.4551033" lon="9.365135"><ele>504.0</ele><time>2026-03-28T15:21:38.013Z</time></trkpt><trkpt lat="44.455175" lon="9.3652917"><ele>504.0</ele><time>2026-03-28T15:21:39.013Z</time></trkpt><trkpt lat="44.455255" lon="9.3654717"><ele>503.0</ele><time>2026-03-28T15:21:40.012Z</time></trkpt><trkpt lat="44.4553267" lon="9.365645"><ele>502.0</ele><time>2026-03-28T15:21:41.013Z</time></trkpt><trkpt lat="44.4553933" lon="9.3658233"><ele>501.0</ele><time>2026-03-28T15:21:42.013Z</time></trkpt><trkpt lat="44.4554717" lon="9.3659733"><ele>500.0</ele><time>2026-03-28T15:21:43.013Z</time></trkpt><trkpt lat="44.4555483" lon="9.3661383"><ele>500.0</ele><time>2026-03-28T15:21:44.013Z</time></trkpt><trkpt lat="44.45563" lon="9.3662933"><ele>500.0</ele><time>2026-03-28T15:21:45.013Z</time></trkpt><trkpt lat="44.455715" lon="9.36645"><ele>500.0</ele><time>2026-03-28T15:21:46.013Z</time></trkpt><trkpt lat="44.4557883" lon="9.3665967"><ele>500.0</ele><time>2026-03-28T15:21:47.013Z</time></trkpt><trkpt lat="44.4558367" lon="9.3667583"><ele>504.25</ele><time>2026-03-28T15:21:48.013Z</time></trkpt><trkpt lat="44.4558733" lon="9.366925"><ele>508.5</ele><time>2026-03-28T15:21:49.013Z</time></trkpt><trkpt lat="44.4558967" lon="9.36709"><ele>512.75</ele><time>2026-03-28T15:21:50.013Z</time></trkpt><trkpt lat="44.455945" lon="9.367255"><ele>517.0</ele><time>2026-03-28T15:21:51.013Z</time></trkpt><trkpt lat="44.4559883" lon="9.3674217"><ele>516.25</ele><time>2026-03-28T15:21:52.012Z</time></trkpt><trkpt lat="44.4560417" lon="9.3675633"><ele>515.5</ele><time>2026-03-28T15:21:53.013Z</time></trkpt><trkpt lat="44.4561067" lon="9.36768"><ele>514.75</ele><time>2026-03-28T15:21:54.013Z</time></trkpt><trkpt lat="44.4562017" lon="9.36776"><ele>514.0</ele><time>2026-03-28T15:21:55.012Z</time></trkpt><trkpt lat="44.456345" lon="9.3677883"><ele>514.0</ele><time>2026-03-28T15:21:56.012Z</time></trkpt><trkpt lat="44.4564767" lon="9.36778"><ele>514.0</ele><time>2026-03-28T15:21:57.013Z</time></trkpt><trkpt lat="44.456605" lon="9.36774"><ele>514.0</ele><time>2026-03-28T15:21:58.013Z</time></trkpt><trkpt lat="44.4567217" lon="9.3676967"><ele>514.0</ele><time>2026-03-28T15:21:59.013Z</time></trkpt><trkpt lat="44.4568317" lon="9.36766"><ele>514.0</ele><time>2026-03-28T15:22:00.013Z</time></trkpt><trkpt lat="44.45694" lon="9.3676883"><ele>514.0</ele><time>2026-03-28T15:22:01.013Z</time></trkpt><trkpt lat="44.4570383" lon="9.3677517"><ele>514.0</ele><time>2026-03-28T15:22:02.013Z</time></trkpt><trkpt lat="44.45713" lon="9.367835"><ele>514.0</ele><time>2026-03-28T15:22:03.012Z</time></trkpt><trkpt lat="44.4572333" lon="9.36791"><ele>514.0</ele><time>2026-03-28T15:22:04.013Z</time></trkpt><trkpt lat="44.4573367" lon="9.3679617"><ele>514.6</ele><time>2026-03-28T15:22:05.013Z</time></trkpt><trkpt lat="44.4574483" lon="9.3679883"><ele>515.2</ele><time>2026-03-28T15:22:06.013Z</time></trkpt><trkpt lat="44.457575" lon="9.3680017"><ele>515.8000000000001</ele><time>2026-03-28T15:22:07.012Z</time></trkpt><trkpt lat="44.4576783" lon="9.368"><ele>516.4</ele><time>2026-03-28T15:22:08.013Z</time></trkpt><trkpt lat="44.4577817" lon="9.3680283"><ele>517.0</ele><time>2026-03-28T15:22:09.013Z</time></trkpt><trkpt lat="44.457875" lon="9.3680917"><ele>521.4</ele><time>2026-03-28T15:22:10.013Z</time></trkpt><trkpt lat="44.457955" lon="9.3681767"><ele>525.8000000000001</ele><time>2026-03-28T15:22:11.013Z</time></trkpt><trkpt lat="44.4580483" lon="9.3682383"><ele>530.2</ele><time>2026-03-28T15:22:12.012Z</time></trkpt><trkpt lat="44.4581533" lon="9.3682783"><ele>534.6</ele><time>2026-03-28T15:22:13.013Z</time></trkpt><trkpt lat="44.4582583" lon="9.3682833"><ele>539.0</ele><time>2026-03-28T15:22:14.012Z</time></trkpt><trkpt lat="44.458375" lon="9.3683083"><ele>539.0</ele><time>2026-03-28T15:22:15.013Z</time></trkpt><trkpt lat="44.458485" lon="9.36833"><ele>539.0</ele><time>2026-03-28T15:22:16.013Z</time></trkpt><trkpt lat="44.4585767" lon="9.3683733"><ele>539.0</ele><time>2026-03-28T15:22:17.013Z</time></trkpt><trkpt lat="44.4586767" lon="9.368445"><ele>539.0</ele><time>2026-03-28T15:22:18.013Z</time></trkpt><trkpt lat="44.4587567" lon="9.3685167"><ele>539.0</ele><time>2026-03-28T15:22:19.012Z</time></trkpt><trkpt lat="44.4588583" lon="9.3686167"><ele>540.4</ele><time>2026-03-28T15:22:20.013Z</time></trkpt><trkpt lat="44.4589483" lon="9.3687033"><ele>541.8</ele><time>2026-03-28T15:22:21.013Z</time></trkpt><trkpt lat="44.4590333" lon="9.368765"><ele>543.2</ele><time>2026-03-28T15:22:22.013Z</time></trkpt><trkpt lat="44.45913" lon="9.3687867"><ele>544.6</ele><time>2026-03-28T15:22:23.013Z</time></trkpt><trkpt lat="44.4592133" lon="9.368745"><ele>546.0</ele><time>2026-03-28T15:22:24.013Z</time></trkpt><trkpt lat="44.45929" lon="9.36867"><ele>546.0</ele><time>2026-03-28T15:22:25.012Z</time></trkpt><trkpt lat="44.4593583" lon="9.3685667"><ele>546.0</ele><time>2026-03-28T15:22:26.013Z</time></trkpt><trkpt lat="44.4593933" lon="9.3684083"><ele>546.0</ele><time>2026-03-28T15:22:27.013Z</time></trkpt><trkpt lat="44.459385" lon="9.36826"><ele>546.0</ele><time>2026-03-28T15:22:28.013Z</time></trkpt><trkpt lat="44.45935" lon="9.3680833"><ele>546.75</ele><time>2026-03-28T15:22:29.013Z</time></trkpt><trkpt lat="44.459315" lon="9.3679133"><ele>547.5</ele><time>2026-03-28T15:22:30.012Z</time></trkpt><trkpt lat="44.4592767" lon="9.3677383"><ele>548.25</ele><time>2026-03-28T15:22:31.013Z</time></trkpt><trkpt lat="44.4592383" lon="9.3675633"><ele>549.0</ele><time>2026-03-28T15:22:32.013Z</time></trkpt><trkpt lat="44.4592083" lon="9.367385"><ele>549.0</ele><time>2026-03-28T15:22:33.012Z</time></trkpt><trkpt lat="44.4591933" lon="9.3672217"><ele>549.0</ele><time>2026-03-28T15:22:34.013Z</time></trkpt><trkpt lat="44.4591717" lon="9.3670433"><ele>549.0</ele><time>2026-03-28T15:22:35.013Z</time></trkpt><trkpt lat="44.4591667" lon="9.366845"><ele>549.0</ele><time>2026-03-28T15:22:36.012Z</time></trkpt><trkpt lat="44.459155" lon="9.3666583"><ele>548.75</ele><time>2026-03-28T15:22:37.012Z</time></trkpt><trkpt lat="44.4591233" lon="9.366485"><ele>548.5</ele><time>2026-03-28T15:22:38.012Z</time></trkpt><trkpt lat="44.4590717" lon="9.3663167"><ele>548.25</ele><time>2026-03-28T15:22:39.013Z</time></trkpt><trkpt lat="44.4589683" lon="9.3661267"><ele>548.0</ele><time>2026-03-28T15:22:40.013Z</time></trkpt><trkpt lat="44.4589033" lon="9.3659867"><ele>548.0</ele><time>2026-03-28T15:22:41.013Z</time></trkpt><trkpt lat="44.45884" lon="9.3658417"><ele>548.0</ele><time>2026-03-28T15:22:42.013Z</time></trkpt><trkpt lat="44.4588117" lon="9.36571"><ele>548.0</ele><time>2026-03-28T15:22:43.013Z</time></trkpt><trkpt lat="44.4588033" lon="9.3655883"><ele>548.0</ele><time>2026-03-28T15:22:44.013Z</time></trkpt><trkpt lat="44.4588267" lon="9.36548"><ele>548.0</ele><time>2026-03-28T15:22:45.013Z</time></trkpt><trkpt lat="44.45886" lon="9.3653883"><ele>548.0</ele><time>2026-03-28T15:22:46.013Z</time></trkpt><trkpt lat="44.4589267" lon="9.3653483"><ele>548.0</ele><time>2026-03-28T15:22:47.013Z</time></trkpt><trkpt lat="44.4590067" lon="9.3653733"><ele>548.0</ele><time>2026-03-28T15:22:48.013Z</time></trkpt><trkpt lat="44.4590917" lon="9.3654667"><ele>548.0</ele><time>2026-03-28T15:22:49.013Z</time></trkpt><trkpt lat="44.4591833" lon="9.3655717"><ele>548.0</ele><time>2026-03-28T15:22:50.013Z</time></trkpt><trkpt lat="44.4592817" lon="9.3656817"><ele>548.0</ele><time>2026-03-28T15:22:51.013Z</time></trkpt><trkpt lat="44.4593717" lon="9.3657867"><ele>548.0</ele><time>2026-03-28T15:22:52.013Z</time></trkpt><trkpt lat="44.4594867" lon="9.3659"><ele>548.0</ele><time>2026-03-28T15:22:53.013Z</time></trkpt><trkpt lat="44.4595967" lon="9.3659933"><ele>548.0</ele><time>2026-03-28T15:22:54.013Z</time></trkpt><trkpt lat="44.4597133" lon="9.3660883"><ele>549.0</ele><time>2026-03-28T15:22:55.013Z</time></trkpt><trkpt lat="44.4598417" lon="9.3661667"><ele>550.0</ele><time>2026-03-28T15:22:56.013Z</time></trkpt><trkpt lat="44.459985" lon="9.36621"><ele>551.0</ele><time>2026-03-28T15:22:57.013Z</time></trkpt><trkpt lat="44.4601317" lon="9.366265"><ele>552.0</ele><time>2026-03-28T15:22:58.013Z</time></trkpt><trkpt lat="44.460265" lon="9.3663167"><ele>558.25</ele><time>2026-03-28T15:22:59.013Z</time></trkpt><trkpt lat="44.4603983" lon="9.3663783"><ele>564.5</ele><time>2026-03-28T15:23:00.013Z</time></trkpt><trkpt lat="44.460525" lon="9.36643"><ele>570.75</ele><time>2026-03-28T15:23:01.013Z</time></trkpt><trkpt lat="44.4606517" lon="9.3664867"><ele>577.0</ele><time>2026-03-28T15:23:02.013Z</time></trkpt><trkpt lat="44.4607683" lon="9.3665517"><ele>577.0</ele><time>2026-03-28T15:23:03.013Z</time></trkpt><trkpt lat="44.4608867" lon="9.3666067"><ele>577.0</ele><time>2026-03-28T15:23:04.013Z</time></trkpt><trkpt lat="44.46101" lon="9.36663"><ele>577.0</ele><time>2026-03-28T15:23:05.013Z</time></trkpt><trkpt lat="44.4611467" lon="9.36661"><ele>577.0</ele><time>2026-03-28T15:23:06.012Z</time></trkpt><trkpt lat="44.461285" lon="9.3665983"><ele>576.5</ele><time>2026-03-28T15:23:07.013Z</time></trkpt><trkpt lat="44.461435" lon="9.3665817"><ele>576.0</ele><time>2026-03-28T15:23:08.013Z</time></trkpt><trkpt lat="44.461575" lon="9.3665517"><ele>575.5</ele><time>2026-03-28T15:23:09.013Z</time></trkpt><trkpt lat="44.4617083" lon="9.3665067"><ele>575.0</ele><time>2026-03-28T15:23:10.013Z</time></trkpt><trkpt lat="44.4618317" lon="9.3664567"><ele>575.0</ele><time>2026-03-28T15:23:11.012Z</time></trkpt><trkpt lat="44.46196" lon="9.3663883"><ele>575.0</ele><time>2026-03-28T15:23:12.013Z</time></trkpt><trkpt lat="44.4621" lon="9.3663183"><ele>575.0</ele><time>2026-03-28T15:23:13.013Z</time></trkpt><trkpt lat="44.4622417" lon="9.36626"><ele>575.0</ele><time>2026-03-28T15:23:14.013Z</time></trkpt><trkpt lat="44.4623633" lon="9.3662033"><ele>573.0</ele><time>2026-03-28T15:23:15.013Z</time></trkpt><trkpt lat="44.4624767" lon="9.3661383"><ele>571.0</ele><time>2026-03-28T15:23:16.013Z</time></trkpt><trkpt lat="44.4625967" lon="9.3660717"><ele>569.0</ele><time>2026-03-28T15:23:17.013Z</time></trkpt><trkpt lat="44.4627283" lon="9.3659667"><ele>567.0</ele><time>2026-03-28T15:23:18.013Z</time></trkpt><trkpt lat="44.4628283" lon="9.36584"><ele>567.0</ele><time>2026-03-28T15:23:19.013Z</time></trkpt><trkpt lat="44.4629167" lon="9.3657"><ele>567.0</ele><time>2026-03-28T15:23:20.013Z</time></trkpt><trkpt lat="44.462995" lon="9.365575"><ele>567.0</ele><time>2026-03-28T15:23:21.013Z</time></trkpt><trkpt lat="44.4630867" lon="9.3655167"><ele>567.0</ele><time>2026-03-28T15:23:22.013Z</time></trkpt><trkpt lat="44.463175" lon="9.3654917"><ele>567.0</ele><time>2026-03-28T15:23:23.013Z</time></trkpt><trkpt lat="44.463275" lon="9.3655083"><ele>570.4</ele><time>2026-03-28T15:23:24.013Z</time></trkpt><trkpt lat="44.4633833" lon="9.3655467"><ele>573.8000000000001</ele><time>2026-03-28T15:23:25.013Z</time></trkpt><trkpt lat="44.463495" lon="9.365575"><ele>577.2</ele><time>2026-03-28T15:23:26.013Z</time></trkpt><trkpt lat="44.4636" lon="9.3655883"><ele>580.6</ele><time>2026-03-28T15:23:27.013Z</time></trkpt><trkpt lat="44.4637" lon="9.365595"><ele>584.0</ele><time>2026-03-28T15:23:28.013Z</time></trkpt><trkpt lat="44.4637883" lon="9.3655583"><ele>583.2</ele><time>2026-03-28T15:23:29.012Z</time></trkpt><trkpt lat="44.46387" lon="9.365465"><ele>582.4</ele><time>2026-03-28T15:23:30.013Z</time></trkpt><trkpt lat="44.4639367" lon="9.3653617"><ele>581.6</ele><time>2026-03-28T15:23:31.013Z</time></trkpt><trkpt lat="44.4639967" lon="9.3652333"><ele>580.8</ele><time>2026-03-28T15:23:32.013Z</time></trkpt><trkpt lat="44.4640667" lon="9.3651067"><ele>580.0</ele><time>2026-03-28T15:23:33.012Z</time></trkpt><trkpt lat="44.46414" lon="9.36498"><ele>580.0</ele><time>2026-03-28T15:23:34.013Z</time></trkpt><trkpt lat="44.46421" lon="9.3648533"><ele>580.0</ele><time>2026-03-28T15:23:35.013Z</time></trkpt><trkpt lat="44.4642817" lon="9.364735"><ele>580.0</ele><time>2026-03-28T15:23:36.012Z</time></trkpt><trkpt lat="44.4643533" lon="9.3646283"><ele>580.0</ele><time>2026-03-28T15:23:37.013Z</time></trkpt><trkpt lat="44.46443" lon="9.3645333"><ele>580.0</ele><time>2026-03-28T15:23:38.013Z</time></trkpt><trkpt lat="44.4645133" lon="9.364485"><ele>580.2</ele><time>2026-03-28T15:23:39.013Z</time></trkpt><trkpt lat="44.4645983" lon="9.364465"><ele>580.4</ele><time>2026-03-28T15:23:40.012Z</time></trkpt><trkpt lat="44.4646933" lon="9.36445"><ele>580.6</ele><time>2026-03-28T15:23:41.013Z</time></trkpt><trkpt lat="44.464795" lon="9.3644433"><ele>580.8</ele><time>2026-03-28T15:23:42.013Z</time></trkpt><trkpt lat="44.4649017" lon="9.3644367"><ele>581.0</ele><time>2026-03-28T15:23:43.013Z</time></trkpt><trkpt lat="44.4650133" lon="9.3644317"><ele>581.0</ele><time>2026-03-28T15:23:44.013Z</time></trkpt><trkpt lat="44.4651383" lon="9.3644267"><ele>581.0</ele><time>2026-03-28T15:23:45.013Z</time></trkpt><trkpt lat="44.4652633" lon="9.3644133"><ele>581.0</ele><time>2026-03-28T15:23:46.013Z</time></trkpt><trkpt lat="44.4653983" lon="9.3643933"><ele>581.0</ele><time>2026-03-28T15:23:47.012Z</time></trkpt><trkpt lat="44.4655333" lon="9.36439"><ele>582.0</ele><time>2026-03-28T15:23:48.013Z</time></trkpt><trkpt lat="44.4656533" lon="9.36441"><ele>583.0</ele><time>2026-03-28T15:23:49.013Z</time></trkpt><trkpt lat="44.4657783" lon="9.36445"><ele>584.0</ele><time>2026-03-28T15:23:50.013Z</time></trkpt><trkpt lat="44.4659083" lon="9.36449"><ele>585.0</ele><time>2026-03-28T15:23:51.013Z</time></trkpt><trkpt lat="44.46603" lon="9.36454"><ele>585.0</ele><time>2026-03-28T15:23:52.013Z</time></trkpt><trkpt lat="44.4661583" lon="9.3646017"><ele>585.0</ele><time>2026-03-28T15:23:53.013Z</time></trkpt><trkpt lat="44.4662883" lon="9.36466"><ele>585.0</ele><time>2026-03-28T15:23:54.013Z</time></trkpt><trkpt lat="44.466425" lon="9.364725"><ele>585.0</ele><time>2026-03-28T15:23:55.013Z</time></trkpt><trkpt lat="44.4665567" lon="9.3647967"><ele>590.25</ele><time>2026-03-28T15:23:56.013Z</time></trkpt><trkpt lat="44.4666867" lon="9.3648617"><ele>595.5</ele><time>2026-03-28T15:23:57.013Z</time></trkpt><trkpt lat="44.4668033" lon="9.3649117"><ele>600.75</ele><time>2026-03-28T15:23:58.012Z</time></trkpt><trkpt lat="44.466915" lon="9.364945"><ele>606.0</ele><time>2026-03-28T15:23:59.012Z</time></trkpt><trkpt lat="44.4670183" lon="9.36496"><ele>605.25</ele><time>2026-03-28T15:24:00.013Z</time></trkpt><trkpt lat="44.467125" lon="9.3649317"><ele>604.5</ele><time>2026-03-28T15:24:01.013Z</time></trkpt><trkpt lat="44.4672283" lon="9.36487"><ele>603.75</ele><time>2026-03-28T15:24:02.013Z</time></trkpt><trkpt lat="44.4673217" lon="9.364775"><ele>603.0</ele><time>2026-03-28T15:24:03.013Z</time></trkpt><trkpt lat="44.4673933" lon="9.364635"><ele>601.6666666666666</ele><time>2026-03-28T15:24:04.013Z</time></trkpt><trkpt lat="44.4674683" lon="9.3645167"><ele>600.3333333333334</ele><time>2026-03-28T15:24:05.013Z</time></trkpt><trkpt lat="44.4675433" lon="9.364425"><ele>599.0</ele><time>2026-03-28T15:24:06.012Z</time></trkpt><trkpt lat="44.46762" lon="9.3643883"><ele>597.6666666666667</ele><time>2026-03-28T15:24:07.012Z</time></trkpt><trkpt lat="44.4677" lon="9.364395"><ele>596.3333333333334</ele><time>2026-03-28T15:24:08.013Z</time></trkpt><trkpt lat="44.4677683" lon="9.364435"><ele>595.0</ele><time>2026-03-28T15:24:09.013Z</time></trkpt><trkpt lat="44.4678183" lon="9.3645933"><ele>597.0</ele><time>2026-03-28T15:24:11.013Z</time></trkpt><trkpt lat="44.467765" lon="9.364715"><ele>599.0</ele><time>2026-03-28T15:24:12.013Z</time></trkpt><trkpt lat="44.4676733" lon="9.36484"><ele>601.0</ele><time>2026-03-28T15:24:13.013Z</time></trkpt><trkpt lat="44.4675483" lon="9.3649317"><ele>603.0</ele><time>2026-03-28T15:24:14.012Z</time></trkpt><trkpt lat="44.46739" lon="9.365015"><ele>603.0</ele><time>2026-03-28T15:24:15.013Z</time></trkpt><trkpt lat="44.4672233" lon="9.36507"><ele>603.0</ele><time>2026-03-28T15:24:16.013Z</time></trkpt><trkpt lat="44.4670867" lon="9.3651167"><ele>603.0</ele><time>2026-03-28T15:24:17.013Z</time></trkpt><trkpt lat="44.4669567" lon="9.36513"><ele>603.0</ele><time>2026-03-28T15:24:18.012Z</time></trkpt><trkpt lat="44.4668333" lon="9.36511"><ele>603.75</ele><time>2026-03-28T15:24:19.013Z</time></trkpt><trkpt lat="44.4667" lon="9.36507"><ele>604.5</ele><time>2026-03-28T15:24:20.013Z</time></trkpt><trkpt lat="44.4665733" lon="9.3650267"><ele>605.25</ele><time>2026-03-28T15:24:21.013Z</time></trkpt><trkpt lat="44.4664417" lon="9.3649883"><ele>606.0</ele><time>2026-03-28T15:24:22.013Z</time></trkpt><trkpt lat="44.4663067" lon="9.3649717"><ele>606.25</ele><time>2026-03-28T15:24:23.013Z</time></trkpt><trkpt lat="44.4661767" lon="9.3649367"><ele>606.5</ele><time>2026-03-28T15:24:24.013Z</time></trkpt><trkpt lat="44.4660467" lon="9.3649083"><ele>606.75</ele><time>2026-03-28T15:24:25.013Z</time></trkpt><trkpt lat="44.4659283" lon="9.3648783"><ele>607.0</ele><time>2026-03-28T15:24:26.013Z</time></trkpt><trkpt lat="44.4658117" lon="9.3648467"><ele>607.0</ele><time>2026-03-28T15:24:27.013Z</time></trkpt><trkpt lat="44.4657217" lon="9.3648433"><ele>607.0</ele><time>2026-03-28T15:24:28.013Z</time></trkpt><trkpt lat="44.4656483" lon="9.3648683"><ele>607.0</ele><time>2026-03-28T15:24:29.013Z</time></trkpt><trkpt lat="44.4655783" lon="9.36493"><ele>607.0</ele><time>2026-03-28T15:24:30.013Z</time></trkpt><trkpt lat="44.4655317" lon="9.3650417"><ele>607.0</ele><time>2026-03-28T15:24:31.013Z</time></trkpt><trkpt lat="44.4655017" lon="9.3651667"><ele>607.0</ele><time>2026-03-28T15:24:32.013Z</time></trkpt><trkpt lat="44.4654933" lon="9.365305"><ele>607.0</ele><time>2026-03-28T15:24:33.013Z</time></trkpt><trkpt lat="44.4654967" lon="9.3654433"><ele>607.0</ele><time>2026-03-28T15:24:34.012Z</time></trkpt><trkpt lat="44.465495" lon="9.3655917"><ele>607.0</ele><time>2026-03-28T15:24:35.013Z</time></trkpt><trkpt lat="44.4655017" lon="9.3657317"><ele>607.0</ele><time>2026-03-28T15:24:36.013Z</time></trkpt><trkpt lat="44.4654817" lon="9.3658783"><ele>607.0</ele><time>2026-03-28T15:24:37.013Z</time></trkpt><trkpt lat="44.4654283" lon="9.366005"><ele>607.4</ele><time>2026-03-28T15:24:38.013Z</time></trkpt><trkpt lat="44.4653717" lon="9.366135"><ele>607.8000000000001</ele><time>2026-03-28T15:24:39.013Z</time></trkpt><trkpt lat="44.46533" lon="9.3662533"><ele>608.2</ele><time>2026-03-28T15:24:40.013Z</time></trkpt><trkpt lat="44.4653167" lon="9.3663883"><ele>608.6</ele><time>2026-03-28T15:24:41.012Z</time></trkpt><trkpt lat="44.4653283" lon="9.3665367"><ele>609.0</ele><time>2026-03-28T15:24:42.012Z</time></trkpt><trkpt lat="44.4653483" lon="9.366675"><ele>610.6666666666666</ele><time>2026-03-28T15:24:43.013Z</time></trkpt><trkpt lat="44.46536" lon="9.3667967"><ele>612.3333333333334</ele><time>2026-03-28T15:24:44.013Z</time></trkpt><trkpt lat="44.4653583" lon="9.3669"><ele>614.0</ele><time>2026-03-28T15:24:45.013Z</time></trkpt><trkpt lat="44.4653433" lon="9.3669967"><ele>615.6666666666667</ele><time>2026-03-28T15:24:46.013Z</time></trkpt><trkpt lat="44.465305" lon="9.3670733"><ele>617.3333333333334</ele><time>2026-03-28T15:24:47.013Z</time></trkpt><trkpt lat="44.4652433" lon="9.3671133"><ele>619.0</ele><time>2026-03-28T15:24:48.013Z</time></trkpt><trkpt lat="44.4651567" lon="9.3670883"><ele>619.0</ele><time>2026-03-28T15:24:49.013Z</time></trkpt><trkpt lat="44.4650783" lon="9.3670133"><ele>619.0</ele><time>2026-03-28T15:24:50.013Z</time></trkpt><trkpt lat="44.464995" lon="9.3668683"><ele>619.0</ele><time>2026-03-28T15:24:51.012Z</time></trkpt><trkpt lat="44.4649067" lon="9.3667517"><ele>619.0</ele><time>2026-03-28T15:24:52.013Z</time></trkpt><trkpt lat="44.46483" lon="9.36669"><ele>619.0</ele><time>2026-03-28T15:24:53.013Z</time></trkpt><trkpt lat="44.4647467" lon="9.3667"><ele>619.0</ele><time>2026-03-28T15:24:54.013Z</time></trkpt><trkpt lat="44.4646717" lon="9.3667583"><ele>619.0</ele><time>2026-03-28T15:24:55.013Z</time></trkpt><trkpt lat="44.4646317" lon="9.3668567"><ele>619.0</ele><time>2026-03-28T15:24:56.013Z</time></trkpt><trkpt lat="44.464635" lon="9.36696"><ele>619.0</ele><time>2026-03-28T15:24:57.013Z</time></trkpt><trkpt lat="44.46467" lon="9.3670917"><ele>619.0</ele><time>2026-03-28T15:24:58.013Z</time></trkpt><trkpt lat="44.4647367" lon="9.3672383"><ele>620.75</ele><time>2026-03-28T15:24:59.013Z</time></trkpt><trkpt lat="44.4648067" lon="9.3673767"><ele>622.5</ele><time>2026-03-28T15:25:00.013Z</time></trkpt><trkpt lat="44.464885" lon="9.3675083"><ele>624.25</ele><time>2026-03-28T15:25:01.012Z</time></trkpt><trkpt lat="44.4649683" lon="9.3676217"><ele>626.0</ele><time>2026-03-28T15:25:02.012Z</time></trkpt><trkpt lat="44.4650683" lon="9.3677183"><ele>626.0</ele><time>2026-03-28T15:25:03.013Z</time></trkpt><trkpt lat="44.4651717" lon="9.3678033"><ele>626.0</ele><time>2026-03-28T15:25:04.013Z</time></trkpt><trkpt lat="44.465275" lon="9.3678667"><ele>626.0</ele><time>2026-03-28T15:25:05.013Z</time></trkpt><trkpt lat="44.4653833" lon="9.3679033"><ele>626.0</ele><time>2026-03-28T15:25:06.013Z</time></trkpt><trkpt lat="44.4654983" lon="9.3678983"><ele>628.6</ele><time>2026-03-28T15:25:07.012Z</time></trkpt><trkpt lat="44.4656017" lon="9.367865"><ele>631.2</ele><time>2026-03-28T15:25:08.013Z</time></trkpt><trkpt lat="44.4657067" lon="9.36781"><ele>633.8</ele><time>2026-03-28T15:25:09.013Z</time></trkpt><trkpt lat="44.4658033" lon="9.3677433"><ele>636.4</ele><time>2026-03-28T15:25:10.013Z</time></trkpt><trkpt lat="44.4658833" lon="9.3676367"><ele>639.0</ele><time>2026-03-28T15:25:11.013Z</time></trkpt><trkpt lat="44.4659483" lon="9.3675183"><ele>639.0</ele><time>2026-03-28T15:25:12.013Z</time></trkpt><trkpt lat="44.4659883" lon="9.36738"><ele>639.0</ele><time>2026-03-28T15:25:13.013Z</time></trkpt><trkpt lat="44.46603" lon="9.3672383"><ele>639.0</ele><time>2026-03-28T15:25:14.013Z</time></trkpt><trkpt lat="44.4660683" lon="9.3670833"><ele>639.0</ele><time>2026-03-28T15:25:15.012Z</time></trkpt><trkpt lat="44.46611" lon="9.3669383"><ele>639.0</ele><time>2026-03-28T15:25:16.013Z</time></trkpt><trkpt lat="44.4661517" lon="9.36679"><ele>639.5</ele><time>2026-03-28T15:25:17.013Z</time></trkpt><trkpt lat="44.4662033" lon="9.3666417"><ele>640.0</ele><time>2026-03-28T15:25:18.013Z</time></trkpt><trkpt lat="44.4662683" lon="9.3665"><ele>640.5</ele><time>2026-03-28T15:25:19.012Z</time></trkpt><trkpt lat="44.4663267" lon="9.3663683"><ele>641.0</ele><time>2026-03-28T15:25:20.013Z</time></trkpt><trkpt lat="44.466385" lon="9.36625"><ele>637.8</ele><time>2026-03-28T15:25:21.013Z</time></trkpt><trkpt lat="44.46646" lon="9.3661433"><ele>634.5999999999999</ele><time>2026-03-28T15:25:22.013Z</time></trkpt><trkpt lat="44.4665567" lon="9.3660567"><ele>631.4</ele><time>2026-03-28T15:25:23.013Z</time></trkpt><trkpt lat="44.4666533" lon="9.3660033"><ele>628.2</ele><time>2026-03-28T15:25:24.013Z</time></trkpt><trkpt lat="44.466745" lon="9.3659817"><ele>625.0</ele><time>2026-03-28T15:25:25.012Z</time></trkpt><trkpt lat="44.4668183" lon="9.3660383"><ele>625.0</ele><time>2026-03-28T15:25:26.012Z</time></trkpt><trkpt lat="44.4668817" lon="9.3661367"><ele>625.0</ele><time>2026-03-28T15:25:27.012Z</time></trkpt><trkpt lat="44.466915" lon="9.3662433"><ele>625.0</ele><time>2026-03-28T15:25:28.013Z</time></trkpt><trkpt lat="44.46691" lon="9.3663717"><ele>625.0</ele><time>2026-03-28T15:25:29.013Z</time></trkpt><trkpt lat="44.4668667" lon="9.3664667"><ele>625.0</ele><time>2026-03-28T15:25:30.013Z</time></trkpt><trkpt lat="44.4667817" lon="9.366545"><ele>629.0</ele><time>2026-03-28T15:25:31.013Z</time></trkpt><trkpt lat="44.466675" lon="9.3666067"><ele>633.0</ele><time>2026-03-28T15:25:32.013Z</time></trkpt><trkpt lat="44.4665417" lon="9.366665"><ele>637.0</ele><time>2026-03-28T15:25:33.013Z</time></trkpt><trkpt lat="44.466435" lon="9.3667683"><ele>641.0</ele><time>2026-03-28T15:25:34.013Z</time></trkpt><trkpt lat="44.466345" lon="9.3669167"><ele>640.5</ele><time>2026-03-28T15:25:35.013Z</time></trkpt><trkpt lat="44.466275" lon="9.3670617"><ele>640.0</ele><time>2026-03-28T15:25:36.013Z</time></trkpt><trkpt lat="44.4662317" lon="9.36723"><ele>639.5</ele><time>2026-03-28T15:25:37.012Z</time></trkpt><trkpt lat="44.4662" lon="9.367405"><ele>639.0</ele><time>2026-03-28T15:25:38.013Z</time></trkpt><trkpt lat="44.4661767" lon="9.3675767"><ele>639.0</ele><time>2026-03-28T15:25:39.013Z</time></trkpt><trkpt lat="44.466155" lon="9.3677617"><ele>639.0</ele><time>2026-03-28T15:25:40.013Z</time></trkpt><trkpt lat="44.4661317" lon="9.3679517"><ele>639.0</ele><time>2026-03-28T15:25:41.012Z</time></trkpt><trkpt lat="44.4661017" lon="9.3681483"><ele>639.0</ele><time>2026-03-28T15:25:42.013Z</time></trkpt><trkpt lat="44.4660717" lon="9.3683217"><ele>641.0</ele><time>2026-03-28T15:25:43.013Z</time></trkpt><trkpt lat="44.4660467" lon="9.3684833"><ele>643.0</ele><time>2026-03-28T15:25:44.013Z</time></trkpt><trkpt lat="44.46599" lon="9.3686283"><ele>645.0</ele><time>2026-03-28T15:25:45.013Z</time></trkpt><trkpt lat="44.4659133" lon="9.36875"><ele>647.0</ele><time>2026-03-28T15:25:46.013Z</time></trkpt><trkpt lat="44.4658167" lon="9.3688433"><ele>646.5</ele><time>2026-03-28T15:25:47.013Z</time></trkpt><trkpt lat="44.465705" lon="9.3689467"><ele>646.0</ele><time>2026-03-28T15:25:48.013Z</time></trkpt><trkpt lat="44.4655933" lon="9.3690267"><ele>645.5</ele><time>2026-03-28T15:25:49.012Z</time></trkpt><trkpt lat="44.4654833" lon="9.3690917"><ele>645.0</ele><time>2026-03-28T15:25:50.013Z</time></trkpt><trkpt lat="44.46538" lon="9.3691667"><ele>645.0</ele><time>2026-03-28T15:25:51.012Z</time></trkpt><trkpt lat="44.4653133" lon="9.3692667"><ele>645.0</ele><time>2026-03-28T15:25:52.013Z</time></trkpt><trkpt lat="44.465285" lon="9.3694033"><ele>645.0</ele><time>2026-03-28T15:25:53.013Z</time></trkpt><trkpt lat="44.4652933" lon="9.36955"><ele>645.0</ele><time>2026-03-28T15:25:54.013Z</time></trkpt><trkpt lat="44.46531" lon="9.3697083"><ele>645.0</ele><time>2026-03-28T15:25:55.013Z</time></trkpt><trkpt lat="44.4653233" lon="9.3698833"><ele>648.4</ele><time>2026-03-28T15:25:56.013Z</time></trkpt><trkpt lat="44.4653083" lon="9.3700333"><ele>651.8</ele><time>2026-03-28T15:25:57.013Z</time></trkpt><trkpt lat="44.4652767" lon="9.3701767"><ele>655.2</ele><time>2026-03-28T15:25:58.013Z</time></trkpt><trkpt lat="44.4652117" lon="9.370275"><ele>658.6</ele><time>2026-03-28T15:25:59.013Z</time></trkpt><trkpt lat="44.46514" lon="9.3703367"><ele>662.0</ele><time>2026-03-28T15:26:00.013Z</time></trkpt><trkpt lat="44.4650633" lon="9.3703367"><ele>662.0</ele><time>2026-03-28T15:26:01.013Z</time></trkpt><trkpt lat="44.464975" lon="9.3703017"><ele>662.0</ele><time>2026-03-28T15:26:02.012Z</time></trkpt><trkpt lat="44.4648783" lon="9.3701983"><ele>662.0</ele><time>2026-03-28T15:26:03.013Z</time></trkpt><trkpt lat="44.4647967" lon="9.370075"><ele>662.0</ele><time>2026-03-28T15:26:04.013Z</time></trkpt><trkpt lat="44.464705" lon="9.369985"><ele>662.0</ele><time>2026-03-28T15:26:05.013Z</time></trkpt><trkpt lat="44.4646033" lon="9.3699117"><ele>661.4000000000001</ele><time>2026-03-28T15:26:06.013Z</time></trkpt><trkpt lat="44.4645067" lon="9.369885"><ele>660.8000000000001</ele><time>2026-03-28T15:26:07.012Z</time></trkpt><trkpt lat="44.4644" lon="9.36991"><ele>660.2</ele><time>2026-03-28T15:26:08.013Z</time></trkpt><trkpt lat="44.4642917" lon="9.3699517"><ele>659.6</ele><time>2026-03-28T15:26:09.013Z</time></trkpt><trkpt lat="44.4641783" lon="9.3700033"><ele>659.0</ele><time>2026-03-28T15:26:10.013Z</time></trkpt><trkpt lat="44.4640717" lon="9.3700667"><ele>659.0</ele><time>2026-03-28T15:26:11.013Z</time></trkpt><trkpt lat="44.4639583" lon="9.3701233"><ele>659.0</ele><time>2026-03-28T15:26:12.013Z</time></trkpt><trkpt lat="44.4638483" lon="9.3701633"><ele>659.0</ele><time>2026-03-28T15:26:13.013Z</time></trkpt><trkpt lat="44.4637567" lon="9.3701867"><ele>659.0</ele><time>2026-03-28T15:26:14.013Z</time></trkpt><trkpt lat="44.46367" lon="9.370215"><ele>659.0</ele><time>2026-03-28T15:26:15.013Z</time></trkpt><trkpt lat="44.4636" lon="9.3702517"><ele>661.2</ele><time>2026-03-28T15:26:16.012Z</time></trkpt><trkpt lat="44.463495" lon="9.3703683"><ele>663.4000000000001</ele><time>2026-03-28T15:26:18.013Z</time></trkpt><trkpt lat="44.4634817" lon="9.3705333"><ele>665.6</ele><time>2026-03-28T15:26:20.012Z</time></trkpt><trkpt lat="44.4635067" lon="9.3706217"><ele>667.8</ele><time>2026-03-28T15:26:21.013Z</time></trkpt><trkpt lat="44.4635617" lon="9.37068"><ele>670.0</ele><time>2026-03-28T15:26:22.013Z</time></trkpt><trkpt lat="44.4636333" lon="9.3706983"><ele>672.25</ele><time>2026-03-28T15:26:23.013Z</time></trkpt><trkpt lat="44.4637133" lon="9.370685"><ele>674.5</ele><time>2026-03-28T15:26:24.013Z</time></trkpt><trkpt lat="44.4638167" lon="9.37062"><ele>676.75</ele><time>2026-03-28T15:26:25.013Z</time></trkpt><trkpt lat="44.463925" lon="9.37051"><ele>679.0</ele><time>2026-03-28T15:26:26.013Z</time></trkpt><trkpt lat="44.464065" lon="9.3703817"><ele>674.0</ele><time>2026-03-28T15:26:27.012Z</time></trkpt><trkpt lat="44.4641867" lon="9.3702967"><ele>669.0</ele><time>2026-03-28T15:26:28.013Z</time></trkpt><trkpt lat="44.4643167" lon="9.3702383"><ele>664.0</ele><time>2026-03-28T15:26:29.013Z</time></trkpt><trkpt lat="44.4644367" lon="9.3702167"><ele>659.0</ele><time>2026-03-28T15:26:30.013Z</time></trkpt><trkpt lat="44.4645433" lon="9.3702167"><ele>659.6</ele><time>2026-03-28T15:26:31.012Z</time></trkpt><trkpt lat="44.46464" lon="9.3702583"><ele>660.2</ele><time>2026-03-28T15:26:32.013Z</time></trkpt><trkpt lat="44.4647133" lon="9.37035"><ele>660.8000000000001</ele><time>2026-03-28T15:26:33.013Z</time></trkpt><trkpt lat="44.4647583" lon="9.3704717"><ele>661.4000000000001</ele><time>2026-03-28T15:26:34.013Z</time></trkpt><trkpt lat="44.4647767" lon="9.3706183"><ele>662.0</ele><time>2026-03-28T15:26:35.012Z</time></trkpt><trkpt lat="44.4647833" lon="9.3707833"><ele>664.4000000000001</ele><time>2026-03-28T15:26:36.012Z</time></trkpt><trkpt lat="44.4647733" lon="9.37094"><ele>666.8000000000001</ele><time>2026-03-28T15:26:37.012Z</time></trkpt><trkpt lat="44.4647933" lon="9.3710783"><ele>669.2</ele><time>2026-03-28T15:26:38.013Z</time></trkpt><trkpt lat="44.4648583" lon="9.3712083"><ele>671.6</ele><time>2026-03-28T15:26:39.013Z</time></trkpt><trkpt lat="44.4649517" lon="9.3713067"><ele>674.0</ele><time>2026-03-28T15:26:40.013Z</time></trkpt><trkpt lat="44.465055" lon="9.3713883"><ele>676.2</ele><time>2026-03-28T15:26:41.013Z</time></trkpt><trkpt lat="44.4651417" lon="9.37145"><ele>678.4000000000001</ele><time>2026-03-28T15:26:42.013Z</time></trkpt><trkpt lat="44.465235" lon="9.3714733"><ele>680.6</ele><time>2026-03-28T15:26:43.013Z</time></trkpt><trkpt lat="44.4653483" lon="9.3714533"><ele>682.8</ele><time>2026-03-28T15:26:44.013Z</time></trkpt><trkpt lat="44.46544" lon="9.371375"><ele>685.0</ele><time>2026-03-28T15:26:45.013Z</time></trkpt><trkpt lat="44.4654867" lon="9.3712467"><ele>685.0</ele><time>2026-03-28T15:26:46.013Z</time></trkpt><trkpt lat="44.4655117" lon="9.3710817"><ele>685.0</ele><time>2026-03-28T15:26:47.013Z</time></trkpt><trkpt lat="44.465535" lon="9.370905"><ele>685.0</ele><time>2026-03-28T15:26:48.013Z</time></trkpt><trkpt lat="44.4655517" lon="9.3707167"><ele>685.0</ele><time>2026-03-28T15:26:49.013Z</time></trkpt><trkpt lat="44.4655817" lon="9.3705467"><ele>682.75</ele><time>2026-03-28T15:26:50.012Z</time></trkpt><trkpt lat="44.465625" lon="9.3703733"><ele>680.5</ele><time>2026-03-28T15:26:51.013Z</time></trkpt><trkpt lat="44.4656717" lon="9.3702067"><ele>678.25</ele><time>2026-03-28T15:26:52.013Z</time></trkpt><trkpt lat="44.4657167" lon="9.370035"><ele>676.0</ele><time>2026-03-28T15:26:53.012Z</time></trkpt><trkpt lat="44.4657667" lon="9.3698933"><ele>676.0</ele><time>2026-03-28T15:26:54.013Z</time></trkpt><trkpt lat="44.4658367" lon="9.3697983"><ele>676.0</ele><time>2026-03-28T15:26:55.012Z</time></trkpt><trkpt lat="44.4659383" lon="9.36974"><ele>676.0</ele><time>2026-03-28T15:26:56.013Z</time></trkpt><trkpt lat="44.4660383" lon="9.36969"><ele>676.0</ele><time>2026-03-28T15:26:57.013Z</time></trkpt><trkpt lat="44.4661533" lon="9.3696683"><ele>676.0</ele><time>2026-03-28T15:26:58.013Z</time></trkpt><trkpt lat="44.46627" lon="9.369675"><ele>678.25</ele><time>2026-03-28T15:26:59.013Z</time></trkpt><trkpt lat="44.466395" lon="9.369695"><ele>680.5</ele><time>2026-03-28T15:27:00.012Z</time></trkpt><trkpt lat="44.46653" lon="9.3697333"><ele>682.75</ele><time>2026-03-28T15:27:01.012Z</time></trkpt><trkpt lat="44.46667" lon="9.3697583"><ele>685.0</ele><time>2026-03-28T15:27:02.012Z</time></trkpt><trkpt lat="44.4668033" lon="9.369785"><ele>685.0</ele><time>2026-03-28T15:27:03.013Z</time></trkpt><trkpt lat="44.4669267" lon="9.3697933"><ele>685.0</ele><time>2026-03-28T15:27:04.013Z</time></trkpt><trkpt lat="44.46705" lon="9.3697333"><ele>685.0</ele><time>2026-03-28T15:27:05.013Z</time></trkpt><trkpt lat="44.4671683" lon="9.3696133"><ele>685.0</ele><time>2026-03-28T15:27:06.013Z</time></trkpt><trkpt lat="44.4672667" lon="9.3694883"><ele>684.0</ele><time>2026-03-28T15:27:07.013Z</time></trkpt><trkpt lat="44.46737" lon="9.3693683"><ele>683.0</ele><time>2026-03-28T15:27:08.013Z</time></trkpt><trkpt lat="44.4674867" lon="9.3692717"><ele>682.0</ele><time>2026-03-28T15:27:09.012Z</time></trkpt><trkpt lat="44.4676117" lon="9.369215"><ele>681.0</ele><time>2026-03-28T15:27:10.013Z</time></trkpt><trkpt lat="44.4677433" lon="9.36917"><ele>681.0</ele><time>2026-03-28T15:27:11.013Z</time></trkpt><trkpt lat="44.4678717" lon="9.369115"><ele>681.0</ele><time>2026-03-28T15:27:12.012Z</time></trkpt><trkpt lat="44.468" lon="9.3690483"><ele>681.0</ele><time>2026-03-28T15:27:13.013Z</time></trkpt><trkpt lat="44.46813" lon="9.36897"><ele>681.0</ele><time>2026-03-28T15:27:14.012Z</time></trkpt><trkpt lat="44.468255" lon="9.368885"><ele>680.5</ele><time>2026-03-28T15:27:15.013Z</time></trkpt><trkpt lat="44.4683767" lon="9.36879"><ele>680.0</ele><time>2026-03-28T15:27:16.013Z</time></trkpt><trkpt lat="44.4684883" lon="9.3687167"><ele>679.5</ele><time>2026-03-28T15:27:17.013Z</time></trkpt><trkpt lat="44.4685933" lon="9.3686617"><ele>679.0</ele><time>2026-03-28T15:27:18.013Z</time></trkpt><trkpt lat="44.4687433" lon="9.3686117"><ele>681.0</ele><time>2026-03-28T15:27:19.013Z</time></trkpt><trkpt lat="44.4688817" lon="9.3685817"><ele>683.0</ele><time>2026-03-28T15:27:20.013Z</time></trkpt><trkpt lat="44.469035" lon="9.3685567"><ele>685.0</ele><time>2026-03-28T15:27:21.013Z</time></trkpt><trkpt lat="44.4691867" lon="9.368535"><ele>687.0</ele><time>2026-03-28T15:27:22.012Z</time></trkpt><trkpt lat="44.4693317" lon="9.3685217"><ele>687.0</ele><time>2026-03-28T15:27:23.012Z</time></trkpt><trkpt lat="44.4694767" lon="9.36853"><ele>687.0</ele><time>2026-03-28T15:27:24.013Z</time></trkpt><trkpt lat="44.4696217" lon="9.368545"><ele>687.0</ele><time>2026-03-28T15:27:25.013Z</time></trkpt><trkpt lat="44.4697733" lon="9.3685667"><ele>687.0</ele><time>2026-03-28T15:27:26.012Z</time></trkpt><trkpt lat="44.4699317" lon="9.368585"><ele>688.25</ele><time>2026-03-28T15:27:27.013Z</time></trkpt><trkpt lat="44.4700817" lon="9.368615"><ele>689.5</ele><time>2026-03-28T15:27:28.013Z</time></trkpt><trkpt lat="44.47022" lon="9.3685883"><ele>690.75</ele><time>2026-03-28T15:27:29.012Z</time></trkpt><trkpt lat="44.4703467" lon="9.3685667"><ele>692.0</ele><time>2026-03-28T15:27:30.013Z</time></trkpt><trkpt lat="44.4704717" lon="9.3685367"><ele>695.2</ele><time>2026-03-28T15:27:31.013Z</time></trkpt><trkpt lat="44.4705817" lon="9.36846"><ele>698.4000000000001</ele><time>2026-03-28T15:27:32.013Z</time></trkpt><trkpt lat="44.4706683" lon="9.368375"><ele>701.5999999999999</ele><time>2026-03-28T15:27:33.013Z</time></trkpt><trkpt lat="44.470735" lon="9.3682967"><ele>704.8</ele><time>2026-03-28T15:27:34.013Z</time></trkpt><trkpt lat="44.470785" lon="9.3682217"><ele>708.0</ele><time>2026-03-28T15:27:35.013Z</time></trkpt><trkpt lat="44.47081" lon="9.36814"><ele>708.0</ele><time>2026-03-28T15:27:37.013Z</time></trkpt><trkpt lat="44.47086" lon="9.3680383"><ele>708.0</ele><time>2026-03-28T15:28:34.013Z</time></trkpt><trkpt lat="44.4709133" lon="9.3679583"><ele>708.0</ele><time>2026-03-28T15:28:35.013Z</time></trkpt><trkpt lat="44.4709833" lon="9.36789"><ele>708.0</ele><time>2026-03-28T15:28:36.013Z</time></trkpt><trkpt lat="44.4710683" lon="9.3678383"><ele>708.0</ele><time>2026-03-28T15:28:37.013Z</time></trkpt><trkpt lat="44.4711767" lon="9.36782"><ele>706.25</ele><time>2026-03-28T15:28:38.013Z</time></trkpt><trkpt lat="44.4712883" lon="9.3678217"><ele>704.5</ele><time>2026-03-28T15:28:39.013Z</time></trkpt><trkpt lat="44.471405" lon="9.3678133"><ele>702.75</ele><time>2026-03-28T15:28:40.013Z</time></trkpt><trkpt lat="44.4715183" lon="9.3677833"><ele>701.0</ele><time>2026-03-28T15:28:41.013Z</time></trkpt><trkpt lat="44.47163" lon="9.3677417"><ele>701.0</ele><time>2026-03-28T15:28:42.013Z</time></trkpt><trkpt lat="44.47174" lon="9.367665"><ele>701.0</ele><time>2026-03-28T15:28:43.013Z</time></trkpt><trkpt lat="44.4718317" lon="9.36756"><ele>701.0</ele><time>2026-03-28T15:28:44.012Z</time></trkpt><trkpt lat="44.47191" lon="9.3674117"><ele>701.0</ele><time>2026-03-28T15:28:45.013Z</time></trkpt><trkpt lat="44.4719633" lon="9.3672467"><ele>702.0</ele><time>2026-03-28T15:28:46.013Z</time></trkpt><trkpt lat="44.4719917" lon="9.367065"><ele>703.0</ele><time>2026-03-28T15:28:47.013Z</time></trkpt><trkpt lat="44.472025" lon="9.3668667"><ele>704.0</ele><time>2026-03-28T15:28:48.013Z</time></trkpt><trkpt lat="44.472045" lon="9.3666633"><ele>705.0</ele><time>2026-03-28T15:28:49.013Z</time></trkpt><trkpt lat="44.4720583" lon="9.366455"><ele>705.5</ele><time>2026-03-28T15:28:50.012Z</time></trkpt><trkpt lat="44.4720583" lon="9.3662483"><ele>706.0</ele><time>2026-03-28T15:28:51.013Z</time></trkpt><trkpt lat="44.4720533" lon="9.3660483"><ele>706.5</ele><time>2026-03-28T15:28:52.013Z</time></trkpt><trkpt lat="44.47207" lon="9.3658433"><ele>707.0</ele><time>2026-03-28T15:28:53.012Z</time></trkpt><trkpt lat="44.47209" lon="9.3656417"><ele>708.75</ele><time>2026-03-28T15:28:54.013Z</time></trkpt><trkpt lat="44.4721083" lon="9.36544"><ele>710.5</ele><time>2026-03-28T15:28:55.012Z</time></trkpt><trkpt lat="44.4721233" lon="9.3652633"><ele>712.25</ele><time>2026-03-28T15:28:56.013Z</time></trkpt><trkpt lat="44.4721617" lon="9.3651033"><ele>714.0</ele><time>2026-03-28T15:28:57.013Z</time></trkpt><trkpt lat="44.4722067" lon="9.3649467"><ele>714.0</ele><time>2026-03-28T15:28:58.013Z</time></trkpt><trkpt lat="44.472265" lon="9.3648033"><ele>714.0</ele><time>2026-03-28T15:28:59.013Z</time></trkpt><trkpt lat="44.4723383" lon="9.3646767"><ele>714.0</ele><time>2026-03-28T15:29:00.013Z</time></trkpt><trkpt lat="44.4724333" lon="9.3645833"><ele>714.0</ele><time>2026-03-28T15:29:01.012Z</time></trkpt><trkpt lat="44.4725633" lon="9.3645283"><ele>711.5</ele><time>2026-03-28T15:29:02.013Z</time></trkpt><trkpt lat="44.47271" lon="9.3644967"><ele>709.0</ele><time>2026-03-28T15:29:03.013Z</time></trkpt><trkpt lat="44.472845" lon="9.364495"><ele>706.5</ele><time>2026-03-28T15:29:04.012Z</time></trkpt><trkpt lat="44.4729733" lon="9.36449"><ele>704.0</ele><time>2026-03-28T15:29:05.012Z</time></trkpt><trkpt lat="44.473085" lon="9.3644933"><ele>708.0</ele><time>2026-03-28T15:29:06.013Z</time></trkpt><trkpt lat="44.4731733" lon="9.3644267"><ele>712.0</ele><time>2026-03-28T15:29:07.013Z</time></trkpt><trkpt lat="44.4732467" lon="9.3643683"><ele>716.0</ele><time>2026-03-28T15:29:08.013Z</time></trkpt><trkpt lat="44.4733" lon="9.36426"><ele>720.0</ele><time>2026-03-28T15:29:09.013Z</time></trkpt><trkpt lat="44.473325" lon="9.3641317"><ele>724.0</ele><time>2026-03-28T15:29:10.013Z</time></trkpt><trkpt lat="44.4733083" lon="9.363965"><ele>725.25</ele><time>2026-03-28T15:29:11.012Z</time></trkpt><trkpt lat="44.4732767" lon="9.3638"><ele>726.5</ele><time>2026-03-28T15:29:12.013Z</time></trkpt><trkpt lat="44.4732217" lon="9.363605"><ele>727.75</ele><time>2026-03-28T15:29:13.013Z</time></trkpt><trkpt lat="44.473175" lon="9.363385"><ele>729.0</ele><time>2026-03-28T15:29:14.013Z</time></trkpt><trkpt lat="44.4731383" lon="9.3631767"><ele>731.25</ele><time>2026-03-28T15:29:15.013Z</time></trkpt><trkpt lat="44.47311" lon="9.3629733"><ele>733.5</ele><time>2026-03-28T15:29:16.013Z</time></trkpt><trkpt lat="44.4730667" lon="9.3627783"><ele>735.75</ele><time>2026-03-28T15:29:17.013Z</time></trkpt><trkpt lat="44.47304" lon="9.362575"><ele>738.0</ele><time>2026-03-28T15:29:18.013Z</time></trkpt><trkpt lat="44.473" lon="9.3623833"><ele>738.0</ele><time>2026-03-28T15:29:19.013Z</time></trkpt><trkpt lat="44.4729467" lon="9.3621983"><ele>738.0</ele><time>2026-03-28T15:29:20.012Z</time></trkpt><trkpt lat="44.4728683" lon="9.3620133"><ele>738.0</ele><time>2026-03-28T15:29:21.013Z</time></trkpt><trkpt lat="44.4727717" lon="9.3618417"><ele>731.6666666666666</ele><time>2026-03-28T15:29:22.013Z</time></trkpt><trkpt lat="44.47265" lon="9.3616817"><ele>725.3333333333333</ele><time>2026-03-28T15:29:23.013Z</time></trkpt><trkpt lat="44.4725483" lon="9.3615267"><ele>719.0</ele><time>2026-03-28T15:29:24.013Z</time></trkpt><trkpt lat="44.4724567" lon="9.36138"><ele>717.5</ele><time>2026-03-28T15:29:25.013Z</time></trkpt><trkpt lat="44.4723617" lon="9.361235"><ele>716.0</ele><time>2026-03-28T15:29:26.013Z</time></trkpt><trkpt lat="44.4722417" lon="9.3611367"><ele>714.5</ele><time>2026-03-28T15:29:27.013Z</time></trkpt><trkpt lat="44.4721167" lon="9.3610617"><ele>713.0</ele><time>2026-03-28T15:29:28.013Z</time></trkpt><trkpt lat="44.4720017" lon="9.3609967"><ele>713.0</ele><time>2026-03-28T15:29:29.013Z</time></trkpt><trkpt lat="44.471905" lon="9.3609"><ele>713.0</ele><time>2026-03-28T15:29:30.013Z</time></trkpt><trkpt lat="44.4718283" lon="9.360755"><ele>713.0</ele><time>2026-03-28T15:29:31.013Z</time></trkpt><trkpt lat="44.4717583" lon="9.3606"><ele>713.0</ele><time>2026-03-28T15:29:32.012Z</time></trkpt><trkpt lat="44.471685" lon="9.36046"><ele>715.0</ele><time>2026-03-28T15:29:33.013Z</time></trkpt><trkpt lat="44.47159" lon="9.3603317"><ele>717.0</ele><time>2026-03-28T15:29:34.012Z</time></trkpt><trkpt lat="44.4714733" lon="9.3602183"><ele>719.0</ele><time>2026-03-28T15:29:35.013Z</time></trkpt><trkpt lat="44.47135" lon="9.36015"><ele>721.0</ele><time>2026-03-28T15:29:36.013Z</time></trkpt><trkpt lat="44.4712283" lon="9.3600783"><ele>721.0</ele><time>2026-03-28T15:29:37.012Z</time></trkpt><trkpt lat="44.471115" lon="9.3599933"><ele>721.0</ele><time>2026-03-28T15:29:38.013Z</time></trkpt><trkpt lat="44.4709983" lon="9.359905"><ele>721.0</ele><time>2026-03-28T15:29:39.013Z</time></trkpt><trkpt lat="44.4709167" lon="9.3598317"><ele>721.0</ele><time>2026-03-28T15:29:40.013Z</time></trkpt><trkpt lat="44.470875" lon="9.3597217"><ele>721.0</ele><time>2026-03-28T15:29:41.013Z</time></trkpt><trkpt lat="44.4708667" lon="9.3595883"><ele>721.5</ele><time>2026-03-28T15:29:42.013Z</time></trkpt><trkpt lat="44.4708883" lon="9.359435"><ele>722.0</ele><time>2026-03-28T15:29:43.013Z</time></trkpt><trkpt lat="44.4709333" lon="9.3592683"><ele>722.5</ele><time>2026-03-28T15:29:44.013Z</time></trkpt><trkpt lat="44.4709517" lon="9.3591017"><ele>723.0</ele><time>2026-03-28T15:29:45.013Z</time></trkpt><trkpt lat="44.4709483" lon="9.3589317"><ele>724.5999999999999</ele><time>2026-03-28T15:29:46.012Z</time></trkpt><trkpt lat="44.4709383" lon="9.3587717"><ele>726.1999999999999</ele><time>2026-03-28T15:29:47.013Z</time></trkpt><trkpt lat="44.4709383" lon="9.3586133"><ele>727.8</ele><time>2026-03-28T15:29:48.013Z</time></trkpt><trkpt lat="44.4709483" lon="9.358465"><ele>729.4</ele><time>2026-03-28T15:29:49.012Z</time></trkpt><trkpt lat="44.47095" lon="9.3583383"><ele>731.0</ele><time>2026-03-28T15:29:50.013Z</time></trkpt><trkpt lat="44.470935" lon="9.3582333"><ele>731.0</ele><time>2026-03-28T15:29:51.013Z</time></trkpt><trkpt lat="44.47089" lon="9.3581183"><ele>731.0</ele><time>2026-03-28T15:29:52.013Z</time></trkpt><trkpt lat="44.4708233" lon="9.3580383"><ele>731.0</ele><time>2026-03-28T15:29:53.013Z</time></trkpt><trkpt lat="44.4707333" lon="9.3579867"><ele>731.0</ele><time>2026-03-28T15:29:54.013Z</time></trkpt><trkpt lat="44.47064" lon="9.3579783"><ele>731.0</ele><time>2026-03-28T15:29:55.012Z</time></trkpt><trkpt lat="44.470545" lon="9.35797"><ele>732.4</ele><time>2026-03-28T15:29:56.012Z</time></trkpt><trkpt lat="44.4704583" lon="9.3579383"><ele>733.8</ele><time>2026-03-28T15:29:57.013Z</time></trkpt><trkpt lat="44.4703933" lon="9.357855"><ele>735.1999999999999</ele><time>2026-03-28T15:29:58.013Z</time></trkpt><trkpt lat="44.47036" lon="9.3577383"><ele>736.5999999999999</ele><time>2026-03-28T15:29:59.012Z</time></trkpt><trkpt lat="44.4703417" lon="9.357615"><ele>738.0</ele><time>2026-03-28T15:30:00.013Z</time></trkpt><trkpt lat="44.4703567" lon="9.3574667"><ele>738.0</ele><time>2026-03-28T15:30:01.013Z</time></trkpt><trkpt lat="44.470385" lon="9.3573283"><ele>738.0</ele><time>2026-03-28T15:30:02.013Z</time></trkpt><trkpt lat="44.4704517" lon="9.357225"><ele>738.0</ele><time>2026-03-28T15:30:03.012Z</time></trkpt><trkpt lat="44.4705267" lon="9.35712"><ele>738.0</ele><time>2026-03-28T15:30:04.013Z</time></trkpt><trkpt lat="44.470645" lon="9.3570467"><ele>738.0</ele><time>2026-03-28T15:30:05.012Z</time></trkpt><trkpt lat="44.47076" lon="9.3569717"><ele>736.25</ele><time>2026-03-28T15:30:06.013Z</time></trkpt><trkpt lat="44.4708617" lon="9.356885"><ele>734.5</ele><time>2026-03-28T15:30:07.012Z</time></trkpt><trkpt lat="44.4709617" lon="9.3567767"><ele>732.75</ele><time>2026-03-28T15:30:08.013Z</time></trkpt><trkpt lat="44.47106" lon="9.356655"><ele>731.0</ele><time>2026-03-28T15:30:09.013Z</time></trkpt><trkpt lat="44.4711583" lon="9.3565483"><ele>731.0</ele><time>2026-03-28T15:30:10.012Z</time></trkpt><trkpt lat="44.4712533" lon="9.3564533"><ele>731.0</ele><time>2026-03-28T15:30:11.013Z</time></trkpt><trkpt lat="44.47134" lon="9.356345"><ele>731.0</ele><time>2026-03-28T15:30:12.013Z</time></trkpt><trkpt lat="44.471385" lon="9.3562267"><ele>731.0</ele><time>2026-03-28T15:30:13.013Z</time></trkpt><trkpt lat="44.4714133" lon="9.356115"><ele>731.0</ele><time>2026-03-28T15:30:14.013Z</time></trkpt><trkpt lat="44.47143" lon="9.3559967"><ele>733.5</ele><time>2026-03-28T15:30:15.013Z</time></trkpt><trkpt lat="44.471415" lon="9.35584"><ele>736.0</ele><time>2026-03-28T15:30:16.013Z</time></trkpt><trkpt lat="44.4713633" lon="9.3556883"><ele>738.5</ele><time>2026-03-28T15:30:17.012Z</time></trkpt><trkpt lat="44.47126" lon="9.3555617"><ele>741.0</ele><time>2026-03-28T15:30:18.013Z</time></trkpt><trkpt lat="44.47108" lon="9.355515"><ele>749.5999999999999</ele><time>2026-03-28T15:30:19.013Z</time></trkpt><trkpt lat="44.4709617" lon="9.3554917"><ele>758.2</ele><time>2026-03-28T15:30:20.013Z</time></trkpt><trkpt lat="44.4708667" lon="9.3555133"><ele>766.8</ele><time>2026-03-28T15:30:21.013Z</time></trkpt><trkpt lat="44.4707833" lon="9.3555033"><ele>775.4000000000001</ele><time>2026-03-28T15:30:22.013Z</time></trkpt><trkpt lat="44.4706717" lon="9.355515"><ele>784.0</ele><time>2026-03-28T15:30:23.013Z</time></trkpt><trkpt lat="44.470555" lon="9.355485"><ele>781.5</ele><time>2026-03-28T15:30:24.013Z</time></trkpt><trkpt lat="44.4704383" lon="9.355465"><ele>779.0</ele><time>2026-03-28T15:30:25.013Z</time></trkpt><trkpt lat="44.4703367" lon="9.35543"><ele>776.5</ele><time>2026-03-28T15:30:26.013Z</time></trkpt><trkpt lat="44.4702267" lon="9.355385"><ele>774.0</ele><time>2026-03-28T15:30:27.013Z</time></trkpt><trkpt lat="44.4701083" lon="9.3553267"><ele>774.0</ele><time>2026-03-28T15:30:28.013Z</time></trkpt><trkpt lat="44.46998" lon="9.35528"><ele>774.0</ele><time>2026-03-28T15:30:29.013Z</time></trkpt><trkpt lat="44.4698583" lon="9.35524"><ele>774.0</ele><time>2026-03-28T15:30:30.013Z</time></trkpt><trkpt lat="44.469755" lon="9.355195"><ele>774.0</ele><time>2026-03-28T15:30:31.012Z</time></trkpt><trkpt lat="44.469655" lon="9.355145"><ele>772.2</ele><time>2026-03-28T15:30:32.013Z</time></trkpt><trkpt lat="44.469575" lon="9.35509"><ele>770.4000000000001</ele><time>2026-03-28T15:30:33.013Z</time></trkpt><trkpt lat="44.4694833" lon="9.3550417"><ele>768.6</ele><time>2026-03-28T15:30:34.013Z</time></trkpt><trkpt lat="44.46939" lon="9.3550433"><ele>766.8</ele><time>2026-03-28T15:30:35.012Z</time></trkpt><trkpt lat="44.4692967" lon="9.355105"><ele>765.0</ele><time>2026-03-28T15:30:36.013Z</time></trkpt><trkpt lat="44.4691867" lon="9.3551767"><ele>765.0</ele><time>2026-03-28T15:30:37.013Z</time></trkpt><trkpt lat="44.4690683" lon="9.3552317"><ele>765.0</ele><time>2026-03-28T15:30:38.013Z</time></trkpt><trkpt lat="44.468945" lon="9.3552783"><ele>765.0</ele><time>2026-03-28T15:30:39.013Z</time></trkpt><trkpt lat="44.468815" lon="9.3553067"><ele>765.0</ele><time>2026-03-28T15:30:40.013Z</time></trkpt><trkpt lat="44.4686767" lon="9.3553067"><ele>762.0</ele><time>2026-03-28T15:30:41.013Z</time></trkpt><trkpt lat="44.4685333" lon="9.355315"><ele>759.0</ele><time>2026-03-28T15:30:42.013Z</time></trkpt><trkpt lat="44.4683967" lon="9.355315"><ele>756.0</ele><time>2026-03-28T15:30:43.013Z</time></trkpt><trkpt lat="44.4682733" lon="9.3553117"><ele>753.0</ele><time>2026-03-28T15:30:44.013Z</time></trkpt><trkpt lat="44.4681583" lon="9.3553067"><ele>753.0</ele><time>2026-03-28T15:30:45.012Z</time></trkpt><trkpt lat="44.4680467" lon="9.3553017"><ele>753.0</ele><time>2026-03-28T15:30:46.013Z</time></trkpt><trkpt lat="44.46794" lon="9.3552633"><ele>753.0</ele><time>2026-03-28T15:30:47.013Z</time></trkpt><trkpt lat="44.467855" lon="9.3552033"><ele>753.0</ele><time>2026-03-28T15:30:48.012Z</time></trkpt><trkpt lat="44.4677833" lon="9.355165"><ele>753.0</ele><time>2026-03-28T15:30:49.013Z</time></trkpt><trkpt lat="44.4677433" lon="9.3550717"><ele>753.0</ele><time>2026-03-28T15:30:50.013Z</time></trkpt><trkpt lat="44.4677283" lon="9.3549767"><ele>753.0</ele><time>2026-03-28T15:30:51.013Z</time></trkpt><trkpt lat="44.46775" lon="9.3548733"><ele>753.0</ele><time>2026-03-28T15:30:52.012Z</time></trkpt><trkpt lat="44.46782" lon="9.3547783"><ele>753.0</ele><time>2026-03-28T15:30:53.013Z</time></trkpt><trkpt lat="44.467925" lon="9.35468"><ele>753.0</ele><time>2026-03-28T15:30:54.012Z</time></trkpt><trkpt lat="44.468065" lon="9.35456"><ele>753.0</ele><time>2026-03-28T15:30:55.013Z</time></trkpt><trkpt lat="44.4682083" lon="9.35444"><ele>753.0</ele><time>2026-03-28T15:30:56.013Z</time></trkpt><trkpt lat="44.46837" lon="9.3543267"><ele>753.0</ele><time>2026-03-28T15:30:57.013Z</time></trkpt><trkpt lat="44.4685183" lon="9.3542317"><ele>753.0</ele><time>2026-03-28T15:30:58.013Z</time></trkpt><trkpt lat="44.4686633" lon="9.3541417"><ele>753.0</ele><time>2026-03-28T15:30:59.013Z</time></trkpt><trkpt lat="44.4688117" lon="9.35407"><ele>753.0</ele><time>2026-03-28T15:31:00.013Z</time></trkpt><trkpt lat="44.46894" lon="9.35396"><ele>752.5</ele><time>2026-03-28T15:31:01.013Z</time></trkpt><trkpt lat="44.469055" lon="9.3538383"><ele>752.0</ele><time>2026-03-28T15:31:02.013Z</time></trkpt><trkpt lat="44.469165" lon="9.3537283"><ele>751.5</ele><time>2026-03-28T15:31:03.013Z</time></trkpt><trkpt lat="44.4692567" lon="9.3536167"><ele>751.0</ele><time>2026-03-28T15:31:04.013Z</time></trkpt><trkpt lat="44.4693567" lon="9.3535433"><ele>751.0</ele><time>2026-03-28T15:31:05.012Z</time></trkpt><trkpt lat="44.46947" lon="9.35348"><ele>751.0</ele><time>2026-03-28T15:31:06.013Z</time></trkpt><trkpt lat="44.4695967" lon="9.3534267"><ele>751.0</ele><time>2026-03-28T15:31:07.013Z</time></trkpt><trkpt lat="44.4697167" lon="9.35339"><ele>751.0</ele><time>2026-03-28T15:31:08.012Z</time></trkpt><trkpt lat="44.4698417" lon="9.353335"><ele>753.25</ele><time>2026-03-28T15:31:09.013Z</time></trkpt><trkpt lat="44.46996" lon="9.3532733"><ele>755.5</ele><time>2026-03-28T15:31:10.013Z</time></trkpt><trkpt lat="44.47007" lon="9.3531733"><ele>757.75</ele><time>2026-03-28T15:31:11.013Z</time></trkpt><trkpt lat="44.47017" lon="9.353015"><ele>760.0</ele><time>2026-03-28T15:31:12.013Z</time></trkpt><trkpt lat="44.4702533" lon="9.3528767"><ele>760.0</ele><time>2026-03-28T15:31:13.013Z</time></trkpt><trkpt lat="44.4703133" lon="9.35272"><ele>760.0</ele><time>2026-03-28T15:31:14.013Z</time></trkpt><trkpt lat="44.4703833" lon="9.352575"><ele>760.0</ele><time>2026-03-28T15:31:15.013Z</time></trkpt><trkpt lat="44.4704317" lon="9.35243"><ele>760.0</ele><time>2026-03-28T15:31:16.013Z</time></trkpt><trkpt lat="44.4704717" lon="9.3522767"><ele>759.0</ele><time>2026-03-28T15:31:17.013Z</time></trkpt><trkpt lat="44.4704783" lon="9.3521183"><ele>758.0</ele><time>2026-03-28T15:31:18.013Z</time></trkpt><trkpt lat="44.470465" lon="9.3519617"><ele>757.0</ele><time>2026-03-28T15:31:19.013Z</time></trkpt><trkpt lat="44.4704433" lon="9.35181"><ele>756.0</ele><time>2026-03-28T15:31:20.012Z</time></trkpt><trkpt lat="44.47042" lon="9.35165"><ele>756.0</ele><time>2026-03-28T15:31:21.013Z</time></trkpt><trkpt lat="44.4704" lon="9.3514867"><ele>756.0</ele><time>2026-03-28T15:31:22.012Z</time></trkpt><trkpt lat="44.4703967" lon="9.3513233"><ele>756.0</ele><time>2026-03-28T15:31:23.013Z</time></trkpt><trkpt lat="44.470405" lon="9.351165"><ele>756.0</ele><time>2026-03-28T15:31:24.013Z</time></trkpt><trkpt lat="44.4704267" lon="9.351"><ele>761.75</ele><time>2026-03-28T15:31:25.013Z</time></trkpt><trkpt lat="44.4704767" lon="9.35084"><ele>767.5</ele><time>2026-03-28T15:31:26.013Z</time></trkpt><trkpt lat="44.470535" lon="9.35067"><ele>773.25</ele><time>2026-03-28T15:31:27.013Z</time></trkpt><trkpt lat="44.470595" lon="9.35051"><ele>779.0</ele><time>2026-03-28T15:31:28.012Z</time></trkpt><trkpt lat="44.47067" lon="9.35036"><ele>779.0</ele><time>2026-03-28T15:31:29.013Z</time></trkpt><trkpt lat="44.4707317" lon="9.3501917"><ele>779.0</ele><time>2026-03-28T15:31:30.013Z</time></trkpt><trkpt lat="44.4707817" lon="9.35002"><ele>779.0</ele><time>2026-03-28T15:31:31.013Z</time></trkpt><trkpt lat="44.4708283" lon="9.34984"><ele>779.0</ele><time>2026-03-28T15:31:32.013Z</time></trkpt><trkpt lat="44.4708683" lon="9.34966"><ele>777.75</ele><time>2026-03-28T15:31:33.013Z</time></trkpt><trkpt lat="44.4709233" lon="9.34949"><ele>776.5</ele><time>2026-03-28T15:31:34.013Z</time></trkpt><trkpt lat="44.4709733" lon="9.34931"><ele>775.25</ele><time>2026-03-28T15:31:35.013Z</time></trkpt><trkpt lat="44.4710233" lon="9.3491233"><ele>774.0</ele><time>2026-03-28T15:31:36.013Z</time></trkpt><trkpt lat="44.47106" lon="9.34893"><ele>775.0</ele><time>2026-03-28T15:31:37.013Z</time></trkpt><trkpt lat="44.4710833" lon="9.3487417"><ele>776.0</ele><time>2026-03-28T15:31:38.012Z</time></trkpt><trkpt lat="44.471085" lon="9.3485567"><ele>777.0</ele><time>2026-03-28T15:31:39.012Z</time></trkpt><trkpt lat="44.4710783" lon="9.3483983"><ele>778.0</ele><time>2026-03-28T15:31:40.013Z</time></trkpt><trkpt lat="44.4710617" lon="9.3482367"><ele>778.0</ele><time>2026-03-28T15:31:41.013Z</time></trkpt><trkpt lat="44.4710283" lon="9.3480833"><ele>778.0</ele><time>2026-03-28T15:31:42.013Z</time></trkpt><trkpt lat="44.470985" lon="9.34794"><ele>778.0</ele><time>2026-03-28T15:31:43.013Z</time></trkpt><trkpt lat="44.4709533" lon="9.3478183"><ele>778.0</ele><time>2026-03-28T15:31:44.013Z</time></trkpt><trkpt lat="44.4709517" lon="9.3476867"><ele>778.0</ele><time>2026-03-28T15:31:45.013Z</time></trkpt><trkpt lat="44.4709767" lon="9.3475467"><ele>779.75</ele><time>2026-03-28T15:31:46.013Z</time></trkpt><trkpt lat="44.4709717" lon="9.3473917"><ele>781.5</ele><time>2026-03-28T15:31:47.012Z</time></trkpt><trkpt lat="44.4709517" lon="9.3472217"><ele>783.25</ele><time>2026-03-28T15:31:48.012Z</time></trkpt><trkpt lat="44.4709167" lon="9.3470483"><ele>785.0</ele><time>2026-03-28T15:31:49.013Z</time></trkpt><trkpt lat="44.47088" lon="9.3468767"><ele>787.0</ele><time>2026-03-28T15:31:50.012Z</time></trkpt><trkpt lat="44.4708367" lon="9.3466933"><ele>789.0</ele><time>2026-03-28T15:31:51.013Z</time></trkpt><trkpt lat="44.4707917" lon="9.3465167"><ele>791.0</ele><time>2026-03-28T15:31:52.013Z</time></trkpt><trkpt lat="44.47075" lon="9.3463533"><ele>793.0</ele><time>2026-03-28T15:31:53.013Z</time></trkpt><trkpt lat="44.470705" lon="9.346185"><ele>797.25</ele><time>2026-03-28T15:31:54.013Z</time></trkpt><trkpt lat="44.470655" lon="9.3460333"><ele>801.5</ele><time>2026-03-28T15:31:55.013Z</time></trkpt><trkpt lat="44.4705967" lon="9.3458917"><ele>805.75</ele><time>2026-03-28T15:31:56.013Z</time></trkpt><trkpt lat="44.47053" lon="9.3457467"><ele>810.0</ele><time>2026-03-28T15:31:57.012Z</time></trkpt><trkpt lat="44.470475" lon="9.3455933"><ele>809.6</ele><time>2026-03-28T15:31:58.013Z</time></trkpt><trkpt lat="44.4703983" lon="9.3454683"><ele>809.2</ele><time>2026-03-28T15:31:59.013Z</time></trkpt><trkpt lat="44.4703233" lon="9.34536"><ele>808.8</ele><time>2026-03-28T15:32:00.013Z</time></trkpt><trkpt lat="44.47024" lon="9.34528"><ele>808.4</ele><time>2026-03-28T15:32:01.013Z</time></trkpt><trkpt lat="44.47015" lon="9.3452383"><ele>808.0</ele><time>2026-03-28T15:32:02.013Z</time></trkpt><trkpt lat="44.470045" lon="9.3452217"><ele>808.0</ele><time>2026-03-28T15:32:03.013Z</time></trkpt><trkpt lat="44.4699283" lon="9.3452467"><ele>808.0</ele><time>2026-03-28T15:32:04.013Z</time></trkpt><trkpt lat="44.4698233" lon="9.345305"><ele>808.0</ele><time>2026-03-28T15:32:05.013Z</time></trkpt><trkpt lat="44.46973" lon="9.3453567"><ele>808.0</ele><time>2026-03-28T15:32:06.012Z</time></trkpt><trkpt lat="44.4696367" lon="9.3454133"><ele>808.0</ele><time>2026-03-28T15:32:07.013Z</time></trkpt><trkpt lat="44.469545" lon="9.3454317"><ele>803.0</ele><time>2026-03-28T15:32:08.012Z</time></trkpt><trkpt lat="44.469485" lon="9.345365"><ele>798.0</ele><time>2026-03-28T15:32:09.012Z</time></trkpt><trkpt lat="44.4694433" lon="9.34527"><ele>793.0</ele><time>2026-03-28T15:32:10.013Z</time></trkpt><trkpt lat="44.4694567" lon="9.3451383"><ele>788.0</ele><time>2026-03-28T15:32:11.013Z</time></trkpt><trkpt lat="44.4694883" lon="9.344985"><ele>783.0</ele><time>2026-03-28T15:32:12.013Z</time></trkpt><trkpt lat="44.4695317" lon="9.3448233"><ele>781.5</ele><time>2026-03-28T15:32:13.013Z</time></trkpt><trkpt lat="44.46958" lon="9.3446567"><ele>780.0</ele><time>2026-03-28T15:32:14.013Z</time></trkpt><trkpt lat="44.4696583" lon="9.3444917"><ele>778.5</ele><time>2026-03-28T15:32:15.013Z</time></trkpt><trkpt lat="44.4697267" lon="9.344345"><ele>777.0</ele><time>2026-03-28T15:32:16.012Z</time></trkpt><trkpt lat="44.4697983" lon="9.34421"><ele>784.75</ele><time>2026-03-28T15:32:17.013Z</time></trkpt><trkpt lat="44.4699033" lon="9.344085"><ele>792.5</ele><time>2026-03-28T15:32:18.013Z</time></trkpt><trkpt lat="44.469995" lon="9.3439533"><ele>800.25</ele><time>2026-03-28T15:32:19.012Z</time></trkpt><trkpt lat="44.47007" lon="9.343815"><ele>808.0</ele><time>2026-03-28T15:32:20.013Z</time></trkpt><trkpt lat="44.470145" lon="9.3436883"><ele>808.0</ele><time>2026-03-28T15:32:21.013Z</time></trkpt><trkpt lat="44.4701983" lon="9.3435767"><ele>808.0</ele><time>2026-03-28T15:32:22.012Z</time></trkpt><trkpt lat="44.47023" lon="9.3434483"><ele>808.0</ele><time>2026-03-28T15:32:23.013Z</time></trkpt><trkpt lat="44.47025" lon="9.3433283"><ele>808.0</ele><time>2026-03-28T15:32:24.013Z</time></trkpt><trkpt lat="44.4702233" lon="9.343195"><ele>808.0</ele><time>2026-03-28T15:32:25.012Z</time></trkpt><trkpt lat="44.47019" lon="9.3430633"><ele>809.0</ele><time>2026-03-28T15:32:26.013Z</time></trkpt><trkpt lat="44.4701467" lon="9.3429117"><ele>810.0</ele><time>2026-03-28T15:32:27.013Z</time></trkpt><trkpt lat="44.47011" lon="9.3427633"><ele>811.0</ele><time>2026-03-28T15:32:28.013Z</time></trkpt><trkpt lat="44.470095" lon="9.3426117"><ele>812.0</ele><time>2026-03-28T15:32:29.013Z</time></trkpt><trkpt lat="44.4700883" lon="9.34247"><ele>813.0</ele><time>2026-03-28T15:32:30.013Z</time></trkpt><trkpt lat="44.4700667" lon="9.3423417"><ele>816.5999999999999</ele><time>2026-03-28T15:32:31.013Z</time></trkpt><trkpt lat="44.470025" lon="9.3422033"><ele>820.1999999999999</ele><time>2026-03-28T15:32:32.014Z</time></trkpt><trkpt lat="44.46997" lon="9.3420967"><ele>823.8</ele><time>2026-03-28T15:32:33.014Z</time></trkpt><trkpt lat="44.4699" lon="9.3420017"><ele>827.4</ele><time>2026-03-28T15:32:34.014Z</time></trkpt><trkpt lat="44.4698217" lon="9.341925"><ele>831.0</ele><time>2026-03-28T15:32:35.014Z</time></trkpt><trkpt lat="44.469725" lon="9.3418217"><ele>831.0</ele><time>2026-03-28T15:32:36.014Z</time></trkpt><trkpt lat="44.4696233" lon="9.3417183"><ele>831.0</ele><time>2026-03-28T15:32:37.014Z</time></trkpt><trkpt lat="44.469545" lon="9.3416283"><ele>831.0</ele><time>2026-03-28T15:32:38.014Z</time></trkpt><trkpt lat="44.4694767" lon="9.3415367"><ele>831.0</ele><time>2026-03-28T15:32:39.014Z</time></trkpt><trkpt lat="44.4694283" lon="9.3414333"><ele>831.0</ele><time>2026-03-28T15:32:40.014Z</time></trkpt><trkpt lat="44.4694183" lon="9.341325"><ele>829.5714285714286</ele><time>2026-03-28T15:32:41.014Z</time></trkpt><trkpt lat="44.4694267" lon="9.34123"><ele>828.1428571428571</ele><time>2026-03-28T15:32:42.014Z</time></trkpt><trkpt lat="44.4694667" lon="9.3411433"><ele>826.7142857142858</ele><time>2026-03-28T15:32:43.013Z</time></trkpt><trkpt lat="44.4694983" lon="9.341035"><ele>825.2857142857142</ele><time>2026-03-28T15:32:44.014Z</time></trkpt><trkpt lat="44.4695333" lon="9.3409417"><ele>823.8571428571429</ele><time>2026-03-28T15:32:45.014Z</time></trkpt><trkpt lat="44.469535" lon="9.3408367"><ele>822.4285714285714</ele><time>2026-03-28T15:32:46.014Z</time></trkpt><trkpt lat="44.4695067" lon="9.3407417"><ele>821.0</ele><time>2026-03-28T15:32:47.014Z</time></trkpt><trkpt lat="44.4694533" lon="9.34066"><ele>821.0</ele><time>2026-03-28T15:32:48.013Z</time></trkpt><trkpt lat="44.4693783" lon="9.3406083"><ele>821.0</ele><time>2026-03-28T15:32:49.014Z</time></trkpt><trkpt lat="44.4692733" lon="9.340575"><ele>821.0</ele><time>2026-03-28T15:32:50.014Z</time></trkpt><trkpt lat="44.46917" lon="9.3405733"><ele>821.0</ele><time>2026-03-28T15:32:51.014Z</time></trkpt><trkpt lat="44.4690533" lon="9.3405267"><ele>821.0</ele><time>2026-03-28T15:32:52.014Z</time></trkpt><trkpt lat="44.4689533" lon="9.3404583"><ele>823.1999999999999</ele><time>2026-03-28T15:32:53.014Z</time></trkpt><trkpt lat="44.4688567" lon="9.34038"><ele>825.4</ele><time>2026-03-28T15:32:54.014Z</time></trkpt><trkpt lat="44.4687667" lon="9.3403183"><ele>827.6</ele><time>2026-03-28T15:32:55.014Z</time></trkpt><trkpt lat="44.4686833" lon="9.340275"><ele>829.8</ele><time>2026-03-28T15:32:56.014Z</time></trkpt><trkpt lat="44.4686033" lon="9.3402583"><ele>832.0</ele><time>2026-03-28T15:32:57.014Z</time></trkpt><trkpt lat="44.4685217" lon="9.3402833"><ele>832.0</ele><time>2026-03-28T15:32:58.014Z</time></trkpt><trkpt lat="44.4684383" lon="9.34033"><ele>832.0</ele><time>2026-03-28T15:32:59.014Z</time></trkpt><trkpt lat="44.4683567" lon="9.3403767"><ele>832.0</ele><time>2026-03-28T15:33:00.013Z</time></trkpt><trkpt lat="44.4682683" lon="9.3404083"><ele>832.0</ele><time>2026-03-28T15:33:01.013Z</time></trkpt><trkpt lat="44.4681783" lon="9.34041"><ele>832.0</ele><time>2026-03-28T15:33:02.014Z</time></trkpt><trkpt lat="44.4680933" lon="9.3403483"><ele>832.0</ele><time>2026-03-28T15:33:03.014Z</time></trkpt><trkpt lat="44.468005" lon="9.3402733"><ele>832.0</ele><time>2026-03-28T15:33:04.014Z</time></trkpt><trkpt lat="44.4679233" lon="9.34022"><ele>832.0</ele><time>2026-03-28T15:33:05.014Z</time></trkpt><trkpt lat="44.4678233" lon="9.34022"><ele>832.0</ele><time>2026-03-28T15:33:06.014Z</time></trkpt><trkpt lat="44.4677267" lon="9.340255"><ele>832.0</ele><time>2026-03-28T15:33:07.014Z</time></trkpt><trkpt lat="44.4676317" lon="9.3403167"><ele>832.2</ele><time>2026-03-28T15:33:08.014Z</time></trkpt><trkpt lat="44.4675317" lon="9.3403667"><ele>832.4000000000001</ele><time>2026-03-28T15:33:09.014Z</time></trkpt><trkpt lat="44.46743" lon="9.3403933"><ele>832.5999999999999</ele><time>2026-03-28T15:33:10.014Z</time></trkpt><trkpt lat="44.467325" lon="9.34039"><ele>832.8</ele><time>2026-03-28T15:33:11.013Z</time></trkpt><trkpt lat="44.46721" lon="9.34032"><ele>833.0</ele><time>2026-03-28T15:33:12.014Z</time></trkpt><trkpt lat="44.4670983" lon="9.34023"><ele>834.25</ele><time>2026-03-28T15:33:13.014Z</time></trkpt><trkpt lat="44.4669833" lon="9.3401417"><ele>835.5</ele><time>2026-03-28T15:33:14.013Z</time></trkpt><trkpt lat="44.466865" lon="9.34009"><ele>836.75</ele><time>2026-03-28T15:33:15.014Z</time></trkpt><trkpt lat="44.4667517" lon="9.3400583"><ele>838.0</ele><time>2026-03-28T15:33:16.014Z</time></trkpt><trkpt lat="44.4666417" lon="9.34007"><ele>838.0</ele><time>2026-03-28T15:33:17.014Z</time></trkpt><trkpt lat="44.46653" lon="9.34013"><ele>838.0</ele><time>2026-03-28T15:33:18.014Z</time></trkpt><trkpt lat="44.4664217" lon="9.340185"><ele>838.0</ele><time>2026-03-28T15:33:19.014Z</time></trkpt><trkpt lat="44.466325" lon="9.34025"><ele>838.0</ele><time>2026-03-28T15:33:20.014Z</time></trkpt><trkpt lat="44.4662217" lon="9.3402867"><ele>838.0</ele><time>2026-03-28T15:33:21.013Z</time></trkpt><trkpt lat="44.4660983" lon="9.34029"><ele>838.5</ele><time>2026-03-28T15:33:22.014Z</time></trkpt><trkpt lat="44.46598" lon="9.3402433"><ele>839.0</ele><time>2026-03-28T15:33:23.014Z</time></trkpt><trkpt lat="44.4658733" lon="9.3401767"><ele>839.5</ele><time>2026-03-28T15:33:24.014Z</time></trkpt><trkpt lat="44.4657683" lon="9.3400967"><ele>840.0</ele><time>2026-03-28T15:33:25.014Z</time></trkpt><trkpt lat="44.4656617" lon="9.3400117"><ele>840.0</ele><time>2026-03-28T15:33:26.014Z</time></trkpt><trkpt lat="44.4655517" lon="9.3399683"><ele>840.0</ele><time>2026-03-28T15:33:27.014Z</time></trkpt><trkpt lat="44.46544" lon="9.33995"><ele>840.0</ele><time>2026-03-28T15:33:28.014Z</time></trkpt><trkpt lat="44.4653183" lon="9.339965"><ele>840.0</ele><time>2026-03-28T15:33:29.014Z</time></trkpt><trkpt lat="44.4651983" lon="9.3399867"><ele>838.4</ele><time>2026-03-28T15:33:30.014Z</time></trkpt><trkpt lat="44.4650917" lon="9.3399817"><ele>836.8</ele><time>2026-03-28T15:33:31.013Z</time></trkpt><trkpt lat="44.464995" lon="9.3399483"><ele>835.2</ele><time>2026-03-28T15:33:32.014Z</time></trkpt><trkpt lat="44.4649317" lon="9.3398567"><ele>833.6</ele><time>2026-03-28T15:33:33.014Z</time></trkpt><trkpt lat="44.46487" lon="9.3397733"><ele>832.0</ele><time>2026-03-28T15:33:34.014Z</time></trkpt><trkpt lat="44.4647983" lon="9.3397"><ele>835.8333333333333</ele><time>2026-03-28T15:33:35.014Z</time></trkpt><trkpt lat="44.4647267" lon="9.3396683"><ele>839.6666666666666</ele><time>2026-03-28T15:33:36.014Z</time></trkpt><trkpt lat="44.46465" lon="9.3396817"><ele>843.5</ele><time>2026-03-28T15:33:37.014Z</time></trkpt><trkpt lat="44.4645667" lon="9.3397383"><ele>847.3333333333333</ele><time>2026-03-28T15:33:38.014Z</time></trkpt><trkpt lat="44.4645" lon="9.3398317"><ele>851.1666666666666</ele><time>2026-03-28T15:33:39.014Z</time></trkpt><trkpt lat="44.46446" lon="9.339945"><ele>855.0</ele><time>2026-03-28T15:33:40.014Z</time></trkpt><trkpt lat="44.4644083" lon="9.340075"><ele>855.0</ele><time>2026-03-28T15:33:41.014Z</time></trkpt><trkpt lat="44.46434" lon="9.3401883"><ele>855.0</ele><time>2026-03-28T15:33:42.014Z</time></trkpt><trkpt lat="44.4642583" lon="9.3402883"><ele>855.0</ele><time>2026-03-28T15:33:43.014Z</time></trkpt><trkpt lat="44.4641633" lon="9.3403417"><ele>855.0</ele><time>2026-03-28T15:33:44.013Z</time></trkpt><trkpt lat="44.4640467" lon="9.3404183"><ele>855.0</ele><time>2026-03-28T15:33:45.014Z</time></trkpt><trkpt lat="44.4639383" lon="9.3404933"><ele>854.75</ele><time>2026-03-28T15:33:46.014Z</time></trkpt><trkpt lat="44.4638333" lon="9.34059"><ele>854.5</ele><time>2026-03-28T15:33:47.014Z</time></trkpt><trkpt lat="44.46373" lon="9.3406967"><ele>854.25</ele><time>2026-03-28T15:33:48.014Z</time></trkpt><trkpt lat="44.463625" lon="9.3408033"><ele>854.0</ele><time>2026-03-28T15:33:49.014Z</time></trkpt><trkpt lat="44.463525" lon="9.3409717"><ele>854.0</ele><time>2026-03-28T15:33:50.014Z</time></trkpt><trkpt lat="44.4634283" lon="9.3411133"><ele>854.0</ele><time>2026-03-28T15:33:51.014Z</time></trkpt><trkpt lat="44.463335" lon="9.3412283"><ele>854.0</ele><time>2026-03-28T15:33:52.014Z</time></trkpt><trkpt lat="44.4632517" lon="9.3413367"><ele>854.0</ele><time>2026-03-28T15:33:53.014Z</time></trkpt><trkpt lat="44.4631767" lon="9.3414417"><ele>850.8000000000001</ele><time>2026-03-28T15:33:54.013Z</time></trkpt><trkpt lat="44.46309" lon="9.34152"><ele>847.6000000000001</ele><time>2026-03-28T15:33:55.014Z</time></trkpt><trkpt lat="44.4630017" lon="9.3415817"><ele>844.4</ele><time>2026-03-28T15:33:56.014Z</time></trkpt><trkpt lat="44.4628983" lon="9.341605"><ele>841.2</ele><time>2026-03-28T15:33:57.013Z</time></trkpt><trkpt lat="44.4627883" lon="9.3415833"><ele>838.0</ele><time>2026-03-28T15:33:58.014Z</time></trkpt><trkpt lat="44.4626733" lon="9.3415383"><ele>838.0</ele><time>2026-03-28T15:33:59.014Z</time></trkpt><trkpt lat="44.4625533" lon="9.3415"><ele>838.0</ele><time>2026-03-28T15:34:00.014Z</time></trkpt><trkpt lat="44.462445" lon="9.3414783"><ele>838.0</ele><time>2026-03-28T15:34:01.014Z</time></trkpt><trkpt lat="44.4623533" lon="9.34145"><ele>838.0</ele><time>2026-03-28T15:34:02.014Z</time></trkpt><trkpt lat="44.46228" lon="9.34137"><ele>838.0</ele><time>2026-03-28T15:34:03.014Z</time></trkpt><trkpt lat="44.46223" lon="9.3412833"><ele>840.1666666666666</ele><time>2026-03-28T15:34:04.014Z</time></trkpt><trkpt lat="44.4621933" lon="9.3411933"><ele>842.3333333333333</ele><time>2026-03-28T15:34:05.014Z</time></trkpt><trkpt lat="44.4621967" lon="9.3410967"><ele>844.5</ele><time>2026-03-28T15:34:06.014Z</time></trkpt><trkpt lat="44.4622383" lon="9.3410033"><ele>846.6666666666667</ele><time>2026-03-28T15:34:07.013Z</time></trkpt><trkpt lat="44.4623117" lon="9.3409183"><ele>848.8333333333334</ele><time>2026-03-28T15:34:08.014Z</time></trkpt><trkpt lat="44.4623783" lon="9.3408183"><ele>851.0</ele><time>2026-03-28T15:34:09.014Z</time></trkpt><trkpt lat="44.4624633" lon="9.34068"><ele>842.3333333333334</ele><time>2026-03-28T15:34:10.014Z</time></trkpt><trkpt lat="44.4625667" lon="9.3405417"><ele>833.6666666666667</ele><time>2026-03-28T15:34:11.014Z</time></trkpt><trkpt lat="44.4627" lon="9.340405"><ele>825.0</ele><time>2026-03-28T15:34:12.014Z</time></trkpt><trkpt lat="44.4628317" lon="9.3402967"><ele>825.0</ele><time>2026-03-28T15:34:13.014Z</time></trkpt><trkpt lat="44.4629467" lon="9.3401783"><ele>825.0</ele><time>2026-03-28T15:34:14.014Z</time></trkpt><trkpt lat="44.46303" lon="9.3400667"><ele>825.0</ele><time>2026-03-28T15:34:15.014Z</time></trkpt><trkpt lat="44.4631167" lon="9.3399433"><ele>825.0</ele><time>2026-03-28T15:34:16.014Z</time></trkpt><trkpt lat="44.463185" lon="9.3397883"><ele>833.5</ele><time>2026-03-28T15:34:17.014Z</time></trkpt><trkpt lat="44.463225" lon="9.3396017"><ele>842.0</ele><time>2026-03-28T15:34:18.014Z</time></trkpt><trkpt lat="44.46326" lon="9.33942"><ele>850.5</ele><time>2026-03-28T15:34:19.014Z</time></trkpt><trkpt lat="44.4632983" lon="9.3392517"><ele>859.0</ele><time>2026-03-28T15:34:20.014Z</time></trkpt><trkpt lat="44.463355" lon="9.33909"><ele>859.0</ele><time>2026-03-28T15:34:21.013Z</time></trkpt><trkpt lat="44.4633817" lon="9.338915"><ele>859.0</ele><time>2026-03-28T15:34:22.013Z</time></trkpt><trkpt lat="44.4634433" lon="9.338745"><ele>859.0</ele><time>2026-03-28T15:34:23.014Z</time></trkpt><trkpt lat="44.4634867" lon="9.3385733"><ele>859.0</ele><time>2026-03-28T15:34:24.013Z</time></trkpt><trkpt lat="44.463505" lon="9.3384017"><ele>858.0</ele><time>2026-03-28T15:34:25.013Z</time></trkpt><trkpt lat="44.4635033" lon="9.3382217"><ele>857.0</ele><time>2026-03-28T15:34:26.014Z</time></trkpt><trkpt lat="44.4634967" lon="9.3380433"><ele>856.0</ele><time>2026-03-28T15:34:27.014Z</time></trkpt><trkpt lat="44.4635183" lon="9.3378783"><ele>855.0</ele><time>2026-03-28T15:34:28.014Z</time></trkpt><trkpt lat="44.4635617" lon="9.337725"><ele>855.0</ele><time>2026-03-28T15:34:29.014Z</time></trkpt><trkpt lat="44.4636217" lon="9.337585"><ele>855.0</ele><time>2026-03-28T15:34:30.014Z</time></trkpt><trkpt lat="44.4636467" lon="9.3374417"><ele>855.0</ele><time>2026-03-28T15:34:31.014Z</time></trkpt><trkpt lat="44.4636533" lon="9.3372933"><ele>855.0</ele><time>2026-03-28T15:34:32.014Z</time></trkpt><trkpt lat="44.46363" lon="9.3371483"><ele>855.0</ele><time>2026-03-28T15:34:33.014Z</time></trkpt><trkpt lat="44.463585" lon="9.33701"><ele>861.25</ele><time>2026-03-28T15:34:34.014Z</time></trkpt><trkpt lat="44.4635167" lon="9.336885"><ele>867.5</ele><time>2026-03-28T15:34:35.014Z</time></trkpt><trkpt lat="44.4634267" lon="9.3367683"><ele>873.75</ele><time>2026-03-28T15:34:36.014Z</time></trkpt><trkpt lat="44.4633217" lon="9.3366683"><ele>880.0</ele><time>2026-03-28T15:34:37.014Z</time></trkpt><trkpt lat="44.4632133" lon="9.3365767"><ele>880.0</ele><time>2026-03-28T15:34:38.014Z</time></trkpt><trkpt lat="44.4631083" lon="9.3364867"><ele>880.0</ele><time>2026-03-28T15:34:39.014Z</time></trkpt><trkpt lat="44.4630083" lon="9.3363967"><ele>880.0</ele><time>2026-03-28T15:34:40.014Z</time></trkpt><trkpt lat="44.46291" lon="9.3363167"><ele>880.0</ele><time>2026-03-28T15:34:41.013Z</time></trkpt><trkpt lat="44.462825" lon="9.33623"><ele>877.2</ele><time>2026-03-28T15:34:42.014Z</time></trkpt><trkpt lat="44.4627417" lon="9.3361333"><ele>874.4</ele><time>2026-03-28T15:34:43.014Z</time></trkpt><trkpt lat="44.4626683" lon="9.3360383"><ele>871.5999999999999</ele><time>2026-03-28T15:34:44.014Z</time></trkpt><trkpt lat="44.46261" lon="9.33591"><ele>868.8</ele><time>2026-03-28T15:34:45.013Z</time></trkpt><trkpt lat="44.4625717" lon="9.3357783"><ele>866.0</ele><time>2026-03-28T15:34:46.014Z</time></trkpt><trkpt lat="44.4625583" lon="9.33565"><ele>869.8</ele><time>2026-03-28T15:34:47.014Z</time></trkpt><trkpt lat="44.4625617" lon="9.3355383"><ele>873.5999999999999</ele><time>2026-03-28T15:34:48.014Z</time></trkpt><trkpt lat="44.4625883" lon="9.33543"><ele>877.4</ele><time>2026-03-28T15:34:49.014Z</time></trkpt><trkpt lat="44.46263" lon="9.3353183"><ele>881.2</ele><time>2026-03-28T15:34:50.014Z</time></trkpt><trkpt lat="44.4626983" lon="9.335205"><ele>885.0</ele><time>2026-03-28T15:34:51.014Z</time></trkpt><trkpt lat="44.4627717" lon="9.335085"><ele>885.0</ele><time>2026-03-28T15:34:52.014Z</time></trkpt><trkpt lat="44.4628583" lon="9.3349567"><ele>885.0</ele><time>2026-03-28T15:34:53.013Z</time></trkpt><trkpt lat="44.4629317" lon="9.3348067"><ele>885.0</ele><time>2026-03-28T15:34:54.014Z</time></trkpt><trkpt lat="44.4630067" lon="9.3346467"><ele>885.0</ele><time>2026-03-28T15:34:55.014Z</time></trkpt><trkpt lat="44.4630717" lon="9.3344667"><ele>884.75</ele><time>2026-03-28T15:34:56.014Z</time></trkpt><trkpt lat="44.4631183" lon="9.3342767"><ele>884.5</ele><time>2026-03-28T15:34:57.014Z</time></trkpt><trkpt lat="44.46317" lon="9.3340917"><ele>884.25</ele><time>2026-03-28T15:34:58.014Z</time></trkpt><trkpt lat="44.46321" lon="9.33391"><ele>884.0</ele><time>2026-03-28T15:34:59.014Z</time></trkpt><trkpt lat="44.4632267" lon="9.3337317"><ele>882.0</ele><time>2026-03-28T15:35:00.014Z</time></trkpt><trkpt lat="44.4632117" lon="9.3335333"><ele>880.0</ele><time>2026-03-28T15:35:01.014Z</time></trkpt><trkpt lat="44.4631917" lon="9.33335"><ele>878.0</ele><time>2026-03-28T15:35:02.014Z</time></trkpt><trkpt lat="44.46317" lon="9.3331833"><ele>876.0</ele><time>2026-03-28T15:35:03.014Z</time></trkpt><trkpt lat="44.463165" lon="9.333025"><ele>874.0</ele><time>2026-03-28T15:35:04.014Z</time></trkpt><trkpt lat="44.4631917" lon="9.3328783"><ele>871.9999999999999</ele><time>2026-03-28T15:35:05.014Z</time></trkpt><trkpt lat="44.4632333" lon="9.3327517"><ele>869.9999999999999</ele><time>2026-03-28T15:35:06.014Z</time></trkpt><trkpt lat="44.463305" lon="9.332665"><ele>868.0</ele><time>2026-03-28T15:35:07.014Z</time></trkpt><trkpt lat="44.4634217" lon="9.3326067"><ele>866.0</ele><time>2026-03-28T15:35:08.014Z</time></trkpt><trkpt lat="44.463605" lon="9.332625"><ele>866.0</ele><time>2026-03-28T15:35:09.013Z</time></trkpt><trkpt lat="44.4637283" lon="9.3325783"><ele>866.0</ele><time>2026-03-28T15:35:10.014Z</time></trkpt><trkpt lat="44.4638417" lon="9.3325267"><ele>866.0</ele><time>2026-03-28T15:35:11.014Z</time></trkpt><trkpt lat="44.46395" lon="9.3325"><ele>866.0</ele><time>2026-03-28T15:35:12.013Z</time></trkpt><trkpt lat="44.4640633" lon="9.3325117"><ele>867.4</ele><time>2026-03-28T15:35:13.014Z</time></trkpt><trkpt lat="44.4641783" lon="9.332535"><ele>868.8</ele><time>2026-03-28T15:35:14.014Z</time></trkpt><trkpt lat="44.4642933" lon="9.33254"><ele>870.1999999999999</ele><time>2026-03-28T15:35:15.014Z</time></trkpt><trkpt lat="44.4643967" lon="9.3325217"><ele>871.5999999999999</ele><time>2026-03-28T15:35:16.014Z</time></trkpt><trkpt lat="44.4644983" lon="9.33249"><ele>873.0</ele><time>2026-03-28T15:35:17.014Z</time></trkpt><trkpt lat="44.4645967" lon="9.3324367"><ele>873.5</ele><time>2026-03-28T15:35:18.014Z</time></trkpt><trkpt lat="44.464685" lon="9.332365"><ele>874.0</ele><time>2026-03-28T15:35:19.014Z</time></trkpt><trkpt lat="44.4647867" lon="9.332275"><ele>874.5</ele><time>2026-03-28T15:35:20.014Z</time></trkpt><trkpt lat="44.4648983" lon="9.3321983"><ele>875.0</ele><time>2026-03-28T15:35:21.014Z</time></trkpt><trkpt lat="44.4650117" lon="9.332125"><ele>871.0</ele><time>2026-03-28T15:35:22.014Z</time></trkpt><trkpt lat="44.465125" lon="9.332055"><ele>867.0</ele><time>2026-03-28T15:35:23.014Z</time></trkpt><trkpt lat="44.4652333" lon="9.3319833"><ele>863.0</ele><time>2026-03-28T15:35:24.014Z</time></trkpt><trkpt lat="44.4653383" lon="9.3319167"><ele>859.0</ele><time>2026-03-28T15:35:25.014Z</time></trkpt><trkpt lat="44.465425" lon="9.3317917"><ele>858.5</ele><time>2026-03-28T15:35:26.014Z</time></trkpt><trkpt lat="44.4654967" lon="9.3316517"><ele>858.0</ele><time>2026-03-28T15:35:27.014Z</time></trkpt><trkpt lat="44.4655417" lon="9.3314883"><ele>857.5</ele><time>2026-03-28T15:35:28.014Z</time></trkpt><trkpt lat="44.4655633" lon="9.33133"><ele>857.0</ele><time>2026-03-28T15:35:29.013Z</time></trkpt><trkpt lat="44.4655983" lon="9.3312"><ele>857.0</ele><time>2026-03-28T15:35:30.014Z</time></trkpt><trkpt lat="44.46567" lon="9.3310917"><ele>857.0</ele><time>2026-03-28T15:35:31.014Z</time></trkpt><trkpt lat="44.465755" lon="9.3309983"><ele>857.0</ele><time>2026-03-28T15:35:32.014Z</time></trkpt><trkpt lat="44.4658633" lon="9.330925"><ele>857.0</ele><time>2026-03-28T15:35:33.014Z</time></trkpt><trkpt lat="44.4659767" lon="9.3308917"><ele>857.0</ele><time>2026-03-28T15:35:34.014Z</time></trkpt><trkpt lat="44.466085" lon="9.3308483"><ele>857.0</ele><time>2026-03-28T15:35:35.014Z</time></trkpt><trkpt lat="44.4661933" lon="9.3307683"><ele>857.0</ele><time>2026-03-28T15:35:36.014Z</time></trkpt><trkpt lat="44.46629" lon="9.3306483"><ele>857.0</ele><time>2026-03-28T15:35:37.014Z</time></trkpt><trkpt lat="44.4663667" lon="9.330495"><ele>855.75</ele><time>2026-03-28T15:35:38.014Z</time></trkpt><trkpt lat="44.4664317" lon="9.330335"><ele>854.5</ele><time>2026-03-28T15:35:39.014Z</time></trkpt><trkpt lat="44.4664917" lon="9.3301833"><ele>853.25</ele><time>2026-03-28T15:35:40.013Z</time></trkpt><trkpt lat="44.466535" lon="9.330025"><ele>852.0</ele><time>2026-03-28T15:35:41.014Z</time></trkpt><trkpt lat="44.46657" lon="9.3298817"><ele>852.0</ele><time>2026-03-28T15:35:42.014Z</time></trkpt><trkpt lat="44.4665717" lon="9.3297467"><ele>852.0</ele><time>2026-03-28T15:35:43.014Z</time></trkpt><trkpt lat="44.4665417" lon="9.329605"><ele>852.0</ele><time>2026-03-28T15:35:44.014Z</time></trkpt><trkpt lat="44.4664967" lon="9.3294583"><ele>852.0</ele><time>2026-03-28T15:35:45.014Z</time></trkpt><trkpt lat="44.4664517" lon="9.32932"><ele>852.0</ele><time>2026-03-28T15:35:46.014Z</time></trkpt><trkpt lat="44.4664267" lon="9.32917"><ele>851.6</ele><time>2026-03-28T15:35:47.014Z</time></trkpt><trkpt lat="44.4664233" lon="9.3290283"><ele>851.2</ele><time>2026-03-28T15:35:48.014Z</time></trkpt><trkpt lat="44.466475" lon="9.328915"><ele>850.8</ele><time>2026-03-28T15:35:49.014Z</time></trkpt><trkpt lat="44.4665517" lon="9.3288267"><ele>850.4</ele><time>2026-03-28T15:35:50.013Z</time></trkpt><trkpt lat="44.4666483" lon="9.3287667"><ele>850.0</ele><time>2026-03-28T15:35:51.014Z</time></trkpt><trkpt lat="44.4667767" lon="9.3287233"><ele>850.5</ele><time>2026-03-28T15:35:52.014Z</time></trkpt><trkpt lat="44.4669183" lon="9.3286833"><ele>851.0</ele><time>2026-03-28T15:35:53.014Z</time></trkpt><trkpt lat="44.4670433" lon="9.3286217"><ele>851.5</ele><time>2026-03-28T15:35:54.014Z</time></trkpt><trkpt lat="44.46716" lon="9.328565"><ele>852.0</ele><time>2026-03-28T15:35:55.014Z</time></trkpt><trkpt lat="44.46726" lon="9.32849"><ele>852.0</ele><time>2026-03-28T15:35:56.013Z</time></trkpt><trkpt lat="44.46734" lon="9.3283983"><ele>852.0</ele><time>2026-03-28T15:35:57.014Z</time></trkpt><trkpt lat="44.4674017" lon="9.32826"><ele>852.0</ele><time>2026-03-28T15:35:58.014Z</time></trkpt><trkpt lat="44.4674417" lon="9.328085"><ele>852.0</ele><time>2026-03-28T15:35:59.013Z</time></trkpt><trkpt lat="44.4674617" lon="9.3279283"><ele>850.2</ele><time>2026-03-28T15:36:00.014Z</time></trkpt><trkpt lat="44.4674667" lon="9.3277783"><ele>848.4000000000001</ele><time>2026-03-28T15:36:01.014Z</time></trkpt><trkpt lat="44.4674917" lon="9.3276383"><ele>846.5999999999999</ele><time>2026-03-28T15:36:02.014Z</time></trkpt><trkpt lat="44.4675133" lon="9.327525"><ele>844.8</ele><time>2026-03-28T15:36:03.014Z</time></trkpt><trkpt lat="44.4675517" lon="9.3274433"><ele>843.0</ele><time>2026-03-28T15:36:04.013Z</time></trkpt><trkpt lat="44.46766" lon="9.3273767"><ele>843.0</ele><time>2026-03-28T15:36:06.014Z</time></trkpt><trkpt lat="44.4677317" lon="9.327415"><ele>843.0</ele><time>2026-03-28T15:36:07.014Z</time></trkpt><trkpt lat="44.4678" lon="9.3275117"><ele>843.0</ele><time>2026-03-28T15:36:08.014Z</time></trkpt><trkpt lat="44.467895" lon="9.3276417"><ele>843.0</ele><time>2026-03-28T15:36:09.014Z</time></trkpt><trkpt lat="44.4680067" lon="9.3277617"><ele>843.0</ele><time>2026-03-28T15:36:10.014Z</time></trkpt><trkpt lat="44.4681233" lon="9.32788"><ele>842.75</ele><time>2026-03-28T15:36:11.013Z</time></trkpt><trkpt lat="44.4682383" lon="9.3279283"><ele>842.5</ele><time>2026-03-28T15:36:12.014Z</time></trkpt><trkpt lat="44.4683617" lon="9.327925"><ele>842.25</ele><time>2026-03-28T15:36:13.014Z</time></trkpt><trkpt lat="44.46848" lon="9.3278933"><ele>842.0</ele><time>2026-03-28T15:36:14.014Z</time></trkpt><trkpt lat="44.4686067" lon="9.3278533"><ele>842.0</ele><time>2026-03-28T15:36:15.014Z</time></trkpt><trkpt lat="44.4687333" lon="9.3278133"><ele>842.0</ele><time>2026-03-28T15:36:16.014Z</time></trkpt><trkpt lat="44.468845" lon="9.32774"><ele>842.0</ele><time>2026-03-28T15:36:17.014Z</time></trkpt><trkpt lat="44.4689467" lon="9.3276433"><ele>842.0</ele><time>2026-03-28T15:36:18.014Z</time></trkpt><trkpt lat="44.4690333" lon="9.327505"><ele>842.5</ele><time>2026-03-28T15:36:19.014Z</time></trkpt><trkpt lat="44.469115" lon="9.32736"><ele>843.0</ele><time>2026-03-28T15:36:20.013Z</time></trkpt><trkpt lat="44.4692083" lon="9.3272133"><ele>843.5</ele><time>2026-03-28T15:36:21.014Z</time></trkpt><trkpt lat="44.4692983" lon="9.3270483"><ele>844.0</ele><time>2026-03-28T15:36:22.014Z</time></trkpt><trkpt lat="44.46939" lon="9.326915"><ele>844.25</ele><time>2026-03-28T15:36:23.014Z</time></trkpt><trkpt lat="44.4694833" lon="9.3267833"><ele>844.5</ele><time>2026-03-28T15:36:24.014Z</time></trkpt><trkpt lat="44.4695733" lon="9.326655"><ele>844.75</ele><time>2026-03-28T15:36:25.014Z</time></trkpt><trkpt lat="44.4696617" lon="9.3265267"><ele>845.0</ele><time>2026-03-28T15:36:26.014Z</time></trkpt><trkpt lat="44.4697567" lon="9.3264233"><ele>845.0</ele><time>2026-03-28T15:36:27.014Z</time></trkpt><trkpt lat="44.4698683" lon="9.3263583"><ele>845.0</ele><time>2026-03-28T15:36:28.014Z</time></trkpt><trkpt lat="44.4699883" lon="9.3263333"><ele>845.0</ele><time>2026-03-28T15:36:29.013Z</time></trkpt><trkpt lat="44.4701167" lon="9.32635"><ele>845.0</ele><time>2026-03-28T15:36:30.014Z</time></trkpt><trkpt lat="44.4702483" lon="9.3264"><ele>845.0</ele><time>2026-03-28T15:36:31.014Z</time></trkpt><trkpt lat="44.4703767" lon="9.32647"><ele>845.0</ele><time>2026-03-28T15:36:32.013Z</time></trkpt><trkpt lat="44.4704967" lon="9.3265333"><ele>845.0</ele><time>2026-03-28T15:36:33.014Z</time></trkpt><trkpt lat="44.4706367" lon="9.326565"><ele>845.0</ele><time>2026-03-28T15:36:34.014Z</time></trkpt><trkpt lat="44.4707733" lon="9.3265583"><ele>845.5</ele><time>2026-03-28T15:36:35.013Z</time></trkpt><trkpt lat="44.470905" lon="9.3265117"><ele>846.0</ele><time>2026-03-28T15:36:36.014Z</time></trkpt><trkpt lat="44.4710317" lon="9.3264383"><ele>846.5</ele><time>2026-03-28T15:36:37.014Z</time></trkpt><trkpt lat="44.4711417" lon="9.3263333"><ele>847.0</ele><time>2026-03-28T15:36:38.014Z</time></trkpt><trkpt lat="44.4712333" lon="9.326195"><ele>847.5</ele><time>2026-03-28T15:36:39.014Z</time></trkpt><trkpt lat="44.4713" lon="9.3260283"><ele>848.0</ele><time>2026-03-28T15:36:40.014Z</time></trkpt><trkpt lat="44.4713433" lon="9.3258517"><ele>848.5</ele><time>2026-03-28T15:36:41.014Z</time></trkpt><trkpt lat="44.4713767" lon="9.32567"><ele>849.0</ele><time>2026-03-28T15:36:42.014Z</time></trkpt><trkpt lat="44.47141" lon="9.3254917"><ele>847.5</ele><time>2026-03-28T15:36:43.014Z</time></trkpt><trkpt lat="44.4714433" lon="9.3253167"><ele>846.0</ele><time>2026-03-28T15:36:44.014Z</time></trkpt><trkpt lat="44.471485" lon="9.3251567"><ele>844.5</ele><time>2026-03-28T15:36:45.014Z</time></trkpt><trkpt lat="44.4715267" lon="9.3250083"><ele>843.0</ele><time>2026-03-28T15:36:46.014Z</time></trkpt><trkpt lat="44.4715817" lon="9.3248683"><ele>843.0</ele><time>2026-03-28T15:36:47.014Z</time></trkpt><trkpt lat="44.471625" lon="9.3247417"><ele>843.0</ele><time>2026-03-28T15:36:48.014Z</time></trkpt><trkpt lat="44.4717067" lon="9.3246583"><ele>843.0</ele><time>2026-03-28T15:36:49.014Z</time></trkpt><trkpt lat="44.4718183" lon="9.3246317"><ele>843.0</ele><time>2026-03-28T15:36:50.014Z</time></trkpt><trkpt lat="44.4719367" lon="9.3246083"><ele>843.0</ele><time>2026-03-28T15:36:51.014Z</time></trkpt><trkpt lat="44.4720567" lon="9.3245983"><ele>840.75</ele><time>2026-03-28T15:36:52.014Z</time></trkpt><trkpt lat="44.4721917" lon="9.32458"><ele>838.5</ele><time>2026-03-28T15:36:53.014Z</time></trkpt><trkpt lat="44.4723333" lon="9.32454"><ele>836.25</ele><time>2026-03-28T15:36:54.014Z</time></trkpt><trkpt lat="44.47247" lon="9.3244883"><ele>834.0</ele><time>2026-03-28T15:36:55.014Z</time></trkpt><trkpt lat="44.4726083" lon="9.3244067"><ele>834.0</ele><time>2026-03-28T15:36:56.013Z</time></trkpt><trkpt lat="44.47276" lon="9.3243333"><ele>834.0</ele><time>2026-03-28T15:36:57.014Z</time></trkpt><trkpt lat="44.4728983" lon="9.3242717"><ele>834.0</ele><time>2026-03-28T15:36:58.013Z</time></trkpt><trkpt lat="44.4730317" lon="9.324195"><ele>834.5</ele><time>2026-03-28T15:36:59.014Z</time></trkpt><trkpt lat="44.4731667" lon="9.3241267"><ele>835.0</ele><time>2026-03-28T15:37:00.013Z</time></trkpt><trkpt lat="44.4733067" lon="9.324065"><ele>835.5</ele><time>2026-03-28T15:37:01.013Z</time></trkpt><trkpt lat="44.4734417" lon="9.3240283"><ele>836.0</ele><time>2026-03-28T15:37:02.014Z</time></trkpt><trkpt lat="44.473585" lon="9.32402"><ele>836.0</ele><time>2026-03-28T15:37:03.014Z</time></trkpt><trkpt lat="44.47373" lon="9.324045"><ele>836.0</ele><time>2026-03-28T15:37:04.014Z</time></trkpt><trkpt lat="44.473865" lon="9.3241"><ele>836.0</ele><time>2026-03-28T15:37:05.014Z</time></trkpt><trkpt lat="44.47399" lon="9.32417"><ele>836.0</ele><time>2026-03-28T15:37:06.014Z</time></trkpt><trkpt lat="44.4741283" lon="9.3242533"><ele>835.25</ele><time>2026-03-28T15:37:07.014Z</time></trkpt><trkpt lat="44.474255" lon="9.3243567"><ele>834.5</ele><time>2026-03-28T15:37:08.014Z</time></trkpt><trkpt lat="44.47438" lon="9.3244583"><ele>833.75</ele><time>2026-03-28T15:37:09.014Z</time></trkpt><trkpt lat="44.4745117" lon="9.3245567"><ele>833.0</ele><time>2026-03-28T15:37:10.014Z</time></trkpt><trkpt lat="44.4746417" lon="9.3246467"><ele>833.75</ele><time>2026-03-28T15:37:11.014Z</time></trkpt><trkpt lat="44.47478" lon="9.32473"><ele>834.5</ele><time>2026-03-28T15:37:12.014Z</time></trkpt><trkpt lat="44.4749067" lon="9.324815"><ele>835.25</ele><time>2026-03-28T15:37:13.014Z</time></trkpt><trkpt lat="44.4750267" lon="9.3248783"><ele>836.0</ele><time>2026-03-28T15:37:14.014Z</time></trkpt><trkpt lat="44.4751517" lon="9.3249233"><ele>836.0</ele><time>2026-03-28T15:37:15.014Z</time></trkpt><trkpt lat="44.47528" lon="9.3249317"><ele>836.0</ele><time>2026-03-28T15:37:16.013Z</time></trkpt><trkpt lat="44.4754083" lon="9.3249083"><ele>836.0</ele><time>2026-03-28T15:37:17.014Z</time></trkpt><trkpt lat="44.47553" lon="9.3248333"><ele>836.0</ele><time>2026-03-28T15:37:18.013Z</time></trkpt><trkpt lat="44.4756533" lon="9.3247483"><ele>833.25</ele><time>2026-03-28T15:37:19.013Z</time></trkpt><trkpt lat="44.4757767" lon="9.32465"><ele>830.5</ele><time>2026-03-28T15:37:20.014Z</time></trkpt><trkpt lat="44.4759017" lon="9.3245483"><ele>827.75</ele><time>2026-03-28T15:37:21.014Z</time></trkpt><trkpt lat="44.476025" lon="9.3244483"><ele>825.0</ele><time>2026-03-28T15:37:22.014Z</time></trkpt><trkpt lat="44.4761533" lon="9.3243417"><ele>826.5</ele><time>2026-03-28T15:37:23.014Z</time></trkpt><trkpt lat="44.4762783" lon="9.324255"><ele>828.0</ele><time>2026-03-28T15:37:24.014Z</time></trkpt><trkpt lat="44.4763933" lon="9.32422"><ele>829.5</ele><time>2026-03-28T15:37:25.014Z</time></trkpt><trkpt lat="44.4765217" lon="9.3242333"><ele>831.0</ele><time>2026-03-28T15:37:26.014Z</time></trkpt><trkpt lat="44.476655" lon="9.3242633"><ele>831.0</ele><time>2026-03-28T15:37:27.014Z</time></trkpt><trkpt lat="44.4767833" lon="9.3243417"><ele>831.0</ele><time>2026-03-28T15:37:28.014Z</time></trkpt><trkpt lat="44.4769167" lon="9.3244083"><ele>831.0</ele><time>2026-03-28T15:37:29.013Z</time></trkpt><trkpt lat="44.4770533" lon="9.3244717"><ele>831.0</ele><time>2026-03-28T15:37:30.014Z</time></trkpt><trkpt lat="44.4771933" lon="9.32454"><ele>829.6666666666667</ele><time>2026-03-28T15:37:31.014Z</time></trkpt><trkpt lat="44.4773433" lon="9.3246267"><ele>828.3333333333334</ele><time>2026-03-28T15:37:32.014Z</time></trkpt><trkpt lat="44.4774917" lon="9.32471"><ele>827.0</ele><time>2026-03-28T15:37:33.014Z</time></trkpt><trkpt lat="44.47763" lon="9.32479"><ele>827.0</ele><time>2026-03-28T15:37:34.014Z</time></trkpt><trkpt lat="44.4777633" lon="9.3248617"><ele>827.0</ele><time>2026-03-28T15:37:35.014Z</time></trkpt><trkpt lat="44.4778883" lon="9.32494"><ele>827.0</ele><time>2026-03-28T15:37:36.013Z</time></trkpt><trkpt lat="44.478" lon="9.3250367"><ele>827.0</ele><time>2026-03-28T15:37:37.014Z</time></trkpt><trkpt lat="44.478105" lon="9.3251583"><ele>826.25</ele><time>2026-03-28T15:37:38.014Z</time></trkpt><trkpt lat="44.4782" lon="9.3252967"><ele>825.5</ele><time>2026-03-28T15:37:39.014Z</time></trkpt><trkpt lat="44.4782833" lon="9.3254633"><ele>824.75</ele><time>2026-03-28T15:37:40.013Z</time></trkpt><trkpt lat="44.4783633" lon="9.3256433"><ele>824.0</ele><time>2026-03-28T15:37:41.014Z</time></trkpt><trkpt lat="44.4784533" lon="9.3258"><ele>824.0</ele><time>2026-03-28T15:37:42.014Z</time></trkpt><trkpt lat="44.4785467" lon="9.325935"><ele>824.0</ele><time>2026-03-28T15:37:43.014Z</time></trkpt><trkpt lat="44.47865" lon="9.32602"><ele>824.0</ele><time>2026-03-28T15:37:44.014Z</time></trkpt><trkpt lat="44.4787567" lon="9.3260683"><ele>824.0</ele><time>2026-03-28T15:37:45.014Z</time></trkpt><trkpt lat="44.4788783" lon="9.3260967"><ele>823.5</ele><time>2026-03-28T15:37:46.014Z</time></trkpt><trkpt lat="44.4790083" lon="9.3261167"><ele>823.0</ele><time>2026-03-28T15:37:47.013Z</time></trkpt><trkpt lat="44.4791433" lon="9.326155"><ele>822.5</ele><time>2026-03-28T15:37:48.013Z</time></trkpt><trkpt lat="44.4792767" lon="9.326215"><ele>822.0</ele><time>2026-03-28T15:37:49.014Z</time></trkpt><trkpt lat="44.479415" lon="9.32628"><ele>822.0</ele><time>2026-03-28T15:37:50.014Z</time></trkpt><trkpt lat="44.4795517" lon="9.3263383"><ele>822.0</ele><time>2026-03-28T15:37:51.014Z</time></trkpt><trkpt lat="44.47969" lon="9.3264033"><ele>822.0</ele><time>2026-03-28T15:37:52.014Z</time></trkpt><trkpt lat="44.4798167" lon="9.326465"><ele>822.0</ele><time>2026-03-28T15:37:53.014Z</time></trkpt><trkpt lat="44.47995" lon="9.3265217"><ele>822.5</ele><time>2026-03-28T15:37:54.013Z</time></trkpt><trkpt lat="44.480085" lon="9.3265767"><ele>823.0</ele><time>2026-03-28T15:37:55.014Z</time></trkpt><trkpt lat="44.4802117" lon="9.32666"><ele>823.5</ele><time>2026-03-28T15:37:56.013Z</time></trkpt><trkpt lat="44.4803367" lon="9.3267667"><ele>824.0</ele><time>2026-03-28T15:37:57.014Z</time></trkpt><trkpt lat="44.4804533" lon="9.32688"><ele>825.5</ele><time>2026-03-28T15:37:58.014Z</time></trkpt><trkpt lat="44.4805633" lon="9.3270067"><ele>827.0</ele><time>2026-03-28T15:37:59.013Z</time></trkpt><trkpt lat="44.4806683" lon="9.3271317"><ele>828.5</ele><time>2026-03-28T15:38:00.014Z</time></trkpt><trkpt lat="44.48078" lon="9.3272633"><ele>830.0</ele><time>2026-03-28T15:38:01.013Z</time></trkpt><trkpt lat="44.4808917" lon="9.3274067"><ele>830.0</ele><time>2026-03-28T15:38:02.014Z</time></trkpt><trkpt lat="44.48101" lon="9.327545"><ele>830.0</ele><time>2026-03-28T15:38:03.014Z</time></trkpt><trkpt lat="44.481115" lon="9.3276833"><ele>830.0</ele><time>2026-03-28T15:38:04.014Z</time></trkpt><trkpt lat="44.4812367" lon="9.327825"><ele>830.0</ele><time>2026-03-28T15:38:05.014Z</time></trkpt><trkpt lat="44.4813567" lon="9.3279617"><ele>830.0</ele><time>2026-03-28T15:38:06.014Z</time></trkpt><trkpt lat="44.481475" lon="9.3280933"><ele>830.0</ele><time>2026-03-28T15:38:07.014Z</time></trkpt><trkpt lat="44.4815933" lon="9.3282233"><ele>830.0</ele><time>2026-03-28T15:38:08.014Z</time></trkpt><trkpt lat="44.4817233" lon="9.32835"><ele>830.0</ele><time>2026-03-28T15:38:09.014Z</time></trkpt><trkpt lat="44.4818517" lon="9.3284617"><ele>830.0</ele><time>2026-03-28T15:38:10.014Z</time></trkpt><trkpt lat="44.481985" lon="9.3285583"><ele>832.25</ele><time>2026-03-28T15:38:11.014Z</time></trkpt><trkpt lat="44.4821183" lon="9.3286367"><ele>834.5</ele><time>2026-03-28T15:38:12.014Z</time></trkpt><trkpt lat="44.4822583" lon="9.3287167"><ele>836.75</ele><time>2026-03-28T15:38:13.014Z</time></trkpt><trkpt lat="44.4823933" lon="9.3287867"><ele>839.0</ele><time>2026-03-28T15:38:14.013Z</time></trkpt><trkpt lat="44.4825317" lon="9.3288667"><ele>839.5</ele><time>2026-03-28T15:38:15.014Z</time></trkpt><trkpt lat="44.482675" lon="9.32894"><ele>840.0</ele><time>2026-03-28T15:38:16.014Z</time></trkpt><trkpt lat="44.4828117" lon="9.3290167"><ele>840.5</ele><time>2026-03-28T15:38:17.014Z</time></trkpt><trkpt lat="44.48294" lon="9.32912"><ele>841.0</ele><time>2026-03-28T15:38:18.014Z</time></trkpt><trkpt lat="44.4830583" lon="9.3292817"><ele>841.0</ele><time>2026-03-28T15:38:19.014Z</time></trkpt><trkpt lat="44.483175" lon="9.3294633"><ele>841.0</ele><time>2026-03-28T15:38:20.014Z</time></trkpt><trkpt lat="44.4832917" lon="9.3296333"><ele>841.0</ele><time>2026-03-28T15:38:21.014Z</time></trkpt><trkpt lat="44.4834133" lon="9.3298017"><ele>841.3333333333333</ele><time>2026-03-28T15:38:22.014Z</time></trkpt><trkpt lat="44.4835267" lon="9.3299967"><ele>841.6666666666667</ele><time>2026-03-28T15:38:23.013Z</time></trkpt><trkpt lat="44.4836333" lon="9.33017"><ele>842.0</ele><time>2026-03-28T15:38:24.013Z</time></trkpt><trkpt lat="44.4837717" lon="9.33034"><ele>842.0</ele><time>2026-03-28T15:38:25.013Z</time></trkpt><trkpt lat="44.48392" lon="9.3304983"><ele>842.0</ele><time>2026-03-28T15:38:26.013Z</time></trkpt><trkpt lat="44.484065" lon="9.3306633"><ele>842.0</ele><time>2026-03-28T15:38:27.014Z</time></trkpt><trkpt lat="44.4842183" lon="9.3308317"><ele>839.0</ele><time>2026-03-28T15:38:28.014Z</time></trkpt><trkpt lat="44.4843567" lon="9.33099"><ele>836.0</ele><time>2026-03-28T15:38:29.014Z</time></trkpt><trkpt lat="44.4844983" lon="9.3311567"><ele>833.0</ele><time>2026-03-28T15:38:30.013Z</time></trkpt><trkpt lat="44.4846433" lon="9.3313267"><ele>834.3333333333334</ele><time>2026-03-28T15:38:31.014Z</time></trkpt><trkpt lat="44.4847867" lon="9.3314783"><ele>835.6666666666667</ele><time>2026-03-28T15:38:32.013Z</time></trkpt><trkpt lat="44.48493" lon="9.33164"><ele>837.0</ele><time>2026-03-28T15:38:33.014Z</time></trkpt><trkpt lat="44.48507" lon="9.3318067"><ele>837.0</ele><time>2026-03-28T15:38:34.013Z</time></trkpt><trkpt lat="44.485195" lon="9.3319567"><ele>837.0</ele><time>2026-03-28T15:38:35.014Z</time></trkpt><trkpt lat="44.4853183" lon="9.33214"><ele>837.0</ele><time>2026-03-28T15:38:36.013Z</time></trkpt><trkpt lat="44.4854367" lon="9.3323567"><ele>837.6666666666667</ele><time>2026-03-28T15:38:37.014Z</time></trkpt><trkpt lat="44.48555" lon="9.3325717"><ele>838.3333333333334</ele><time>2026-03-28T15:38:38.014Z</time></trkpt><trkpt lat="44.4856567" lon="9.332785"><ele>839.0</ele><time>2026-03-28T15:38:39.014Z</time></trkpt><trkpt lat="44.48573" lon="9.3329767"><ele>835.3333333333334</ele><time>2026-03-28T15:38:40.014Z</time></trkpt><trkpt lat="44.48582" lon="9.3331867"><ele>831.6666666666667</ele><time>2026-03-28T15:38:41.013Z</time></trkpt><trkpt lat="44.485905" lon="9.33344"><ele>828.0</ele><time>2026-03-28T15:38:42.014Z</time></trkpt><trkpt lat="44.485985" lon="9.3336767"><ele>825.3333333333333</ele><time>2026-03-28T15:38:43.014Z</time></trkpt><trkpt lat="44.486065" lon="9.333895"><ele>822.6666666666666</ele><time>2026-03-28T15:38:44.014Z</time></trkpt><trkpt lat="44.4861433" lon="9.334095"><ele>820.0</ele><time>2026-03-28T15:38:45.014Z</time></trkpt><trkpt lat="44.4862233" lon="9.3342817"><ele>821.6666666666666</ele><time>2026-03-28T15:38:46.014Z</time></trkpt><trkpt lat="44.486325" lon="9.3344483"><ele>823.3333333333333</ele><time>2026-03-28T15:38:47.014Z</time></trkpt><trkpt lat="44.4864533" lon="9.334585"><ele>825.0</ele><time>2026-03-28T15:38:48.013Z</time></trkpt><trkpt lat="44.4865817" lon="9.3347233"><ele>825.0</ele><time>2026-03-28T15:38:49.013Z</time></trkpt><trkpt lat="44.4867067" lon="9.3348517"><ele>825.0</ele><time>2026-03-28T15:38:50.014Z</time></trkpt><trkpt lat="44.4868333" lon="9.3350033"><ele>825.0</ele><time>2026-03-28T15:38:51.014Z</time></trkpt><trkpt lat="44.4869617" lon="9.3351583"><ele>830.6666666666667</ele><time>2026-03-28T15:38:52.014Z</time></trkpt><trkpt lat="44.4871" lon="9.33528"><ele>836.3333333333334</ele><time>2026-03-28T15:38:53.013Z</time></trkpt><trkpt lat="44.4872467" lon="9.3353883"><ele>842.0</ele><time>2026-03-28T15:38:54.014Z</time></trkpt><trkpt lat="44.48741" lon="9.3354967"><ele>836.3333333333334</ele><time>2026-03-28T15:38:55.014Z</time></trkpt><trkpt lat="44.4875733" lon="9.3355817"><ele>830.6666666666667</ele><time>2026-03-28T15:38:56.014Z</time></trkpt><trkpt lat="44.4877317" lon="9.3356917"><ele>825.0</ele><time>2026-03-28T15:38:57.014Z</time></trkpt><trkpt lat="44.4878767" lon="9.3357917"><ele>830.6666666666667</ele><time>2026-03-28T15:38:58.014Z</time></trkpt><trkpt lat="44.488035" lon="9.3358933"><ele>836.3333333333334</ele><time>2026-03-28T15:38:59.014Z</time></trkpt><trkpt lat="44.4881967" lon="9.3360083"><ele>842.0</ele><time>2026-03-28T15:39:00.013Z</time></trkpt><trkpt lat="44.488345" lon="9.3361183"><ele>842.0</ele><time>2026-03-28T15:39:01.014Z</time></trkpt><trkpt lat="44.4884883" lon="9.3362617"><ele>842.0</ele><time>2026-03-28T15:39:02.013Z</time></trkpt><trkpt lat="44.488635" lon="9.3364467"><ele>842.0</ele><time>2026-03-28T15:39:03.013Z</time></trkpt><trkpt lat="44.4887667" lon="9.3366133"><ele>836.6666666666667</ele><time>2026-03-28T15:39:04.013Z</time></trkpt><trkpt lat="44.4889" lon="9.3367767"><ele>831.3333333333333</ele><time>2026-03-28T15:39:05.013Z</time></trkpt><trkpt lat="44.4890367" lon="9.3369733"><ele>826.0</ele><time>2026-03-28T15:39:06.014Z</time></trkpt><trkpt lat="44.489165" lon="9.3371617"><ele>824.3333333333333</ele><time>2026-03-28T15:39:07.014Z</time></trkpt><trkpt lat="44.4892967" lon="9.337335"><ele>822.6666666666667</ele><time>2026-03-28T15:39:08.014Z</time></trkpt><trkpt lat="44.4894367" lon="9.3375233"><ele>821.0</ele><time>2026-03-28T15:39:09.013Z</time></trkpt><trkpt lat="44.4895633" lon="9.3377"><ele>821.0</ele><time>2026-03-28T15:39:10.014Z</time></trkpt><trkpt lat="44.4896883" lon="9.3378867"><ele>821.0</ele><time>2026-03-28T15:39:11.014Z</time></trkpt><trkpt lat="44.4898133" lon="9.3380733"><ele>821.0</ele><time>2026-03-28T15:39:12.014Z</time></trkpt><trkpt lat="44.4899317" lon="9.338295"><ele>821.0</ele><time>2026-03-28T15:39:13.013Z</time></trkpt><trkpt lat="44.4900567" lon="9.3384933"><ele>821.0</ele><time>2026-03-28T15:39:14.014Z</time></trkpt><trkpt lat="44.4901767" lon="9.3386783"><ele>821.0</ele><time>2026-03-28T15:39:15.014Z</time></trkpt><trkpt lat="44.49028" lon="9.3388633"><ele>820.5</ele><time>2026-03-28T15:39:16.014Z</time></trkpt><trkpt lat="44.4903867" lon="9.3390317"><ele>820.0</ele><time>2026-03-28T15:39:17.014Z</time></trkpt><trkpt lat="44.4905033" lon="9.3391433"><ele>819.5</ele><time>2026-03-28T15:39:18.014Z</time></trkpt><trkpt lat="44.4906267" lon="9.33925"><ele>819.0</ele><time>2026-03-28T15:39:19.014Z</time></trkpt><trkpt lat="44.4907567" lon="9.339335"><ele>819.0</ele><time>2026-03-28T15:39:20.014Z</time></trkpt><trkpt lat="44.4908967" lon="9.3394083"><ele>819.0</ele><time>2026-03-28T15:39:21.014Z</time></trkpt><trkpt lat="44.4910383" lon="9.339465"><ele>819.0</ele><time>2026-03-28T15:39:22.014Z</time></trkpt><trkpt lat="44.491175" lon="9.3395117"><ele>819.0</ele><time>2026-03-28T15:39:23.014Z</time></trkpt><trkpt lat="44.4913233" lon="9.33956"><ele>819.6666666666667</ele><time>2026-03-28T15:39:24.014Z</time></trkpt><trkpt lat="44.4914683" lon="9.3396183"><ele>820.3333333333334</ele><time>2026-03-28T15:39:25.013Z</time></trkpt><trkpt lat="44.491615" lon="9.33968"><ele>821.0</ele><time>2026-03-28T15:39:26.014Z</time></trkpt><trkpt lat="44.491755" lon="9.3397883"><ele>821.3333333333334</ele><time>2026-03-28T15:39:27.013Z</time></trkpt><trkpt lat="44.4918883" lon="9.3398933"><ele>821.6666666666667</ele><time>2026-03-28T15:39:28.014Z</time></trkpt><trkpt lat="44.4920117" lon="9.3400117"><ele>822.0</ele><time>2026-03-28T15:39:29.013Z</time></trkpt><trkpt lat="44.492135" lon="9.340135"><ele>822.0</ele><time>2026-03-28T15:39:30.014Z</time></trkpt><trkpt lat="44.492255" lon="9.3402383"><ele>822.0</ele><time>2026-03-28T15:39:31.013Z</time></trkpt><trkpt lat="44.492365" lon="9.3403783"><ele>822.0</ele><time>2026-03-28T15:39:32.014Z</time></trkpt><trkpt lat="44.49247" lon="9.34055"><ele>820.0</ele><time>2026-03-28T15:39:33.014Z</time></trkpt><trkpt lat="44.4925683" lon="9.3407283"><ele>818.0</ele><time>2026-03-28T15:39:34.014Z</time></trkpt><trkpt lat="44.4926617" lon="9.3408983"><ele>816.0</ele><time>2026-03-28T15:39:35.014Z</time></trkpt><trkpt lat="44.492745" lon="9.3410767"><ele>816.0</ele><time>2026-03-28T15:39:36.014Z</time></trkpt><trkpt lat="44.4928167" lon="9.341255"><ele>816.0</ele><time>2026-03-28T15:39:37.013Z</time></trkpt><trkpt lat="44.49288" lon="9.3414417"><ele>816.0</ele><time>2026-03-28T15:39:38.014Z</time></trkpt><trkpt lat="44.4929367" lon="9.3416033"><ele>816.0</ele><time>2026-03-28T15:39:39.013Z</time></trkpt><trkpt lat="44.4929467" lon="9.34176"><ele>816.25</ele><time>2026-03-28T15:39:40.014Z</time></trkpt><trkpt lat="44.4929833" lon="9.34195"><ele>816.5</ele><time>2026-03-28T15:39:41.014Z</time></trkpt><trkpt lat="44.4930133" lon="9.3421467"><ele>816.75</ele><time>2026-03-28T15:39:42.014Z</time></trkpt><trkpt lat="44.4930417" lon="9.342345"><ele>817.0</ele><time>2026-03-28T15:39:43.014Z</time></trkpt><trkpt lat="44.4930733" lon="9.3425367"><ele>818.0</ele><time>2026-03-28T15:39:44.014Z</time></trkpt><trkpt lat="44.4931033" lon="9.342725"><ele>819.0</ele><time>2026-03-28T15:39:45.014Z</time></trkpt><trkpt lat="44.49314" lon="9.3429083"><ele>820.0</ele><time>2026-03-28T15:39:46.013Z</time></trkpt><trkpt lat="44.4931667" lon="9.3430833"><ele>821.0</ele><time>2026-03-28T15:39:47.014Z</time></trkpt><trkpt lat="44.4931867" lon="9.343255"><ele>821.5999999999999</ele><time>2026-03-28T15:39:48.013Z</time></trkpt><trkpt lat="44.4932083" lon="9.3434167"><ele>822.2</ele><time>2026-03-28T15:39:49.014Z</time></trkpt><trkpt lat="44.493235" lon="9.3435567"><ele>822.8</ele><time>2026-03-28T15:39:50.014Z</time></trkpt><trkpt lat="44.493265" lon="9.34369"><ele>823.4000000000001</ele><time>2026-03-28T15:39:51.014Z</time></trkpt><trkpt lat="44.4933083" lon="9.3438167"><ele>824.0</ele><time>2026-03-28T15:39:52.014Z</time></trkpt><trkpt lat="44.4933767" lon="9.3439283"><ele>822.5</ele><time>2026-03-28T15:39:53.014Z</time></trkpt><trkpt lat="44.4934567" lon="9.3440233"><ele>821.0</ele><time>2026-03-28T15:39:54.014Z</time></trkpt><trkpt lat="44.493555" lon="9.34411"><ele>819.5</ele><time>2026-03-28T15:39:55.013Z</time></trkpt><trkpt lat="44.4936567" lon="9.3441983"><ele>818.0</ele><time>2026-03-28T15:39:56.014Z</time></trkpt><trkpt lat="44.493765" lon="9.3442967"><ele>821.25</ele><time>2026-03-28T15:39:57.014Z</time></trkpt><trkpt lat="44.4938783" lon="9.3443983"><ele>824.5</ele><time>2026-03-28T15:39:58.014Z</time></trkpt><trkpt lat="44.4939967" lon="9.3444833"><ele>827.75</ele><time>2026-03-28T15:39:59.014Z</time></trkpt><trkpt lat="44.49411" lon="9.344585"><ele>831.0</ele><time>2026-03-28T15:40:00.014Z</time></trkpt><trkpt lat="44.49422" lon="9.3446667"><ele>827.5</ele><time>2026-03-28T15:40:01.013Z</time></trkpt><trkpt lat="44.49432" lon="9.3447567"><ele>824.0</ele><time>2026-03-28T15:40:02.014Z</time></trkpt><trkpt lat="44.4944133" lon="9.344855"><ele>820.5</ele><time>2026-03-28T15:40:03.014Z</time></trkpt><trkpt lat="44.4944967" lon="9.34499"><ele>817.0</ele><time>2026-03-28T15:40:04.014Z</time></trkpt><trkpt lat="44.494585" lon="9.3451017"><ele>818.0</ele><time>2026-03-28T15:40:05.013Z</time></trkpt><trkpt lat="44.4946683" lon="9.3452483"><ele>819.0</ele><time>2026-03-28T15:40:06.014Z</time></trkpt><trkpt lat="44.49475" lon="9.345375"><ele>820.0</ele><time>2026-03-28T15:40:07.014Z</time></trkpt><trkpt lat="44.49483" lon="9.3455033"><ele>821.0</ele><time>2026-03-28T15:40:08.014Z</time></trkpt><trkpt lat="44.4949033" lon="9.3456267"><ele>818.25</ele><time>2026-03-28T15:40:09.014Z</time></trkpt><trkpt lat="44.4949717" lon="9.3457583"><ele>815.5</ele><time>2026-03-28T15:40:10.014Z</time></trkpt><trkpt lat="44.495035" lon="9.3458767"><ele>812.75</ele><time>2026-03-28T15:40:11.014Z</time></trkpt><trkpt lat="44.4950967" lon="9.3460167"><ele>810.0</ele><time>2026-03-28T15:40:12.014Z</time></trkpt><trkpt lat="44.4951417" lon="9.3461617"><ele>810.0</ele><time>2026-03-28T15:40:13.013Z</time></trkpt><trkpt lat="44.495185" lon="9.346305"><ele>810.0</ele><time>2026-03-28T15:40:14.014Z</time></trkpt><trkpt lat="44.4952233" lon="9.34644"><ele>810.0</ele><time>2026-03-28T15:40:15.013Z</time></trkpt><trkpt lat="44.495265" lon="9.3465683"><ele>810.0</ele><time>2026-03-28T15:40:16.014Z</time></trkpt><trkpt lat="44.4953" lon="9.3466933"><ele>810.0</ele><time>2026-03-28T15:40:17.014Z</time></trkpt><trkpt lat="44.4953467" lon="9.3467983"><ele>810.4</ele><time>2026-03-28T15:40:18.014Z</time></trkpt><trkpt lat="44.495415" lon="9.3468783"><ele>810.8</ele><time>2026-03-28T15:40:19.014Z</time></trkpt><trkpt lat="44.4955033" lon="9.3469467"><ele>811.2</ele><time>2026-03-28T15:40:20.014Z</time></trkpt><trkpt lat="44.49561" lon="9.3469883"><ele>811.6</ele><time>2026-03-28T15:40:21.014Z</time></trkpt><trkpt lat="44.4957167" lon="9.3470083"><ele>812.0</ele><time>2026-03-28T15:40:22.014Z</time></trkpt><trkpt lat="44.49584" lon="9.3470217"><ele>812.0</ele><time>2026-03-28T15:40:23.014Z</time></trkpt><trkpt lat="44.4959533" lon="9.3470517"><ele>812.0</ele><time>2026-03-28T15:40:24.014Z</time></trkpt><trkpt lat="44.496075" lon="9.3471233"><ele>812.0</ele><time>2026-03-28T15:40:25.013Z</time></trkpt><trkpt lat="44.4961883" lon="9.347225"><ele>812.0</ele><time>2026-03-28T15:40:26.014Z</time></trkpt><trkpt lat="44.4963" lon="9.347325"><ele>811.5</ele><time>2026-03-28T15:40:27.013Z</time></trkpt><trkpt lat="44.4963933" lon="9.3474567"><ele>811.0</ele><time>2026-03-28T15:40:28.014Z</time></trkpt><trkpt lat="44.4964617" lon="9.3475967"><ele>810.5</ele><time>2026-03-28T15:40:29.014Z</time></trkpt><trkpt lat="44.4965167" lon="9.347765"><ele>810.0</ele><time>2026-03-28T15:40:30.014Z</time></trkpt><trkpt lat="44.4965517" lon="9.34797"><ele>812.0</ele><time>2026-03-28T15:40:31.014Z</time></trkpt><trkpt lat="44.4965817" lon="9.3481683"><ele>814.0</ele><time>2026-03-28T15:40:32.014Z</time></trkpt><trkpt lat="44.4966183" lon="9.348385"><ele>816.0</ele><time>2026-03-28T15:40:33.014Z</time></trkpt><trkpt lat="44.49666" lon="9.34861"><ele>816.0</ele><time>2026-03-28T15:40:34.014Z</time></trkpt><trkpt lat="44.4967033" lon="9.348835"><ele>816.0</ele><time>2026-03-28T15:40:35.014Z</time></trkpt><trkpt lat="44.4967367" lon="9.34906"><ele>816.0</ele><time>2026-03-28T15:40:36.014Z</time></trkpt><trkpt lat="44.49677" lon="9.3492867"><ele>817.25</ele><time>2026-03-28T15:40:37.014Z</time></trkpt><trkpt lat="44.4968117" lon="9.3494933"><ele>818.5</ele><time>2026-03-28T15:40:38.014Z</time></trkpt><trkpt lat="44.49686" lon="9.3496617"><ele>819.75</ele><time>2026-03-28T15:40:39.014Z</time></trkpt><trkpt lat="44.4969217" lon="9.3498083"><ele>821.0</ele><time>2026-03-28T15:40:40.014Z</time></trkpt><trkpt lat="44.4969883" lon="9.3499433"><ele>821.5</ele><time>2026-03-28T15:40:41.014Z</time></trkpt><trkpt lat="44.49708" lon="9.3500667"><ele>822.0</ele><time>2026-03-28T15:40:42.013Z</time></trkpt><trkpt lat="44.4971833" lon="9.3501567"><ele>822.5</ele><time>2026-03-28T15:40:43.014Z</time></trkpt><trkpt lat="44.4972933" lon="9.35025"><ele>823.0</ele><time>2026-03-28T15:40:44.014Z</time></trkpt><trkpt lat="44.4974017" lon="9.35036"><ele>823.3333333333333</ele><time>2026-03-28T15:40:45.014Z</time></trkpt><trkpt lat="44.497505" lon="9.3504983"><ele>823.6666666666667</ele><time>2026-03-28T15:40:46.014Z</time></trkpt><trkpt lat="44.4976167" lon="9.35064"><ele>824.0</ele><time>2026-03-28T15:40:47.014Z</time></trkpt><trkpt lat="44.4977417" lon="9.3507717"><ele>824.0</ele><time>2026-03-28T15:40:48.014Z</time></trkpt><trkpt lat="44.4978683" lon="9.3508967"><ele>824.0</ele><time>2026-03-28T15:40:49.014Z</time></trkpt><trkpt lat="44.4979883" lon="9.3510283"><ele>824.0</ele><time>2026-03-28T15:40:50.014Z</time></trkpt><trkpt lat="44.4981083" lon="9.35117"><ele>822.5</ele><time>2026-03-28T15:40:51.014Z</time></trkpt><trkpt lat="44.4982133" lon="9.3513183"><ele>821.0</ele><time>2026-03-28T15:40:52.014Z</time></trkpt><trkpt lat="44.4982967" lon="9.3514533"><ele>819.5</ele><time>2026-03-28T15:40:53.013Z</time></trkpt><trkpt lat="44.49838" lon="9.3515667"><ele>818.0</ele><time>2026-03-28T15:40:54.014Z</time></trkpt><trkpt lat="44.4984667" lon="9.35165"><ele>818.0</ele><time>2026-03-28T15:40:55.014Z</time></trkpt><trkpt lat="44.4985683" lon="9.3516667"><ele>818.0</ele><time>2026-03-28T15:40:56.014Z</time></trkpt><trkpt lat="44.4986917" lon="9.3516467"><ele>818.0</ele><time>2026-03-28T15:40:57.014Z</time></trkpt><trkpt lat="44.4988083" lon="9.3515833"><ele>818.0</ele><time>2026-03-28T15:40:58.014Z</time></trkpt><trkpt lat="44.4989433" lon="9.351505"><ele>816.75</ele><time>2026-03-28T15:40:59.014Z</time></trkpt><trkpt lat="44.4990617" lon="9.35144"><ele>815.5</ele><time>2026-03-28T15:41:00.014Z</time></trkpt><trkpt lat="44.499175" lon="9.3513567"><ele>814.25</ele><time>2026-03-28T15:41:01.014Z</time></trkpt><trkpt lat="44.4992967" lon="9.3512367"><ele>813.0</ele><time>2026-03-28T15:41:02.014Z</time></trkpt><trkpt lat="44.4994133" lon="9.3511367"><ele>812.6666666666667</ele><time>2026-03-28T15:41:03.014Z</time></trkpt><trkpt lat="44.4995383" lon="9.351035"><ele>812.3333333333334</ele><time>2026-03-28T15:41:04.014Z</time></trkpt><trkpt lat="44.4996733" lon="9.3509383"><ele>812.0</ele><time>2026-03-28T15:41:05.014Z</time></trkpt><trkpt lat="44.4998133" lon="9.3508433"><ele>812.0</ele><time>2026-03-28T15:41:06.013Z</time></trkpt><trkpt lat="44.4999483" lon="9.35075"><ele>812.0</ele><time>2026-03-28T15:41:07.014Z</time></trkpt><trkpt lat="44.50008" lon="9.3506667"><ele>812.0</ele><time>2026-03-28T15:41:08.014Z</time></trkpt><trkpt lat="44.500205" lon="9.350615"><ele>812.0</ele><time>2026-03-28T15:41:09.014Z</time></trkpt><trkpt lat="44.5003267" lon="9.3506183"><ele>812.0</ele><time>2026-03-28T15:41:10.014Z</time></trkpt><trkpt lat="44.5004583" lon="9.350625"><ele>812.0</ele><time>2026-03-28T15:41:11.014Z</time></trkpt><trkpt lat="44.500595" lon="9.35063"><ele>812.0</ele><time>2026-03-28T15:41:12.014Z</time></trkpt><trkpt lat="44.500735" lon="9.3506217"><ele>812.0</ele><time>2026-03-28T15:41:13.015Z</time></trkpt><trkpt lat="44.500855" lon="9.350625"><ele>812.0</ele><time>2026-03-28T15:41:14.015Z</time></trkpt><trkpt lat="44.50097" lon="9.3506517"><ele>812.0</ele><time>2026-03-28T15:41:15.015Z</time></trkpt><trkpt lat="44.5010733" lon="9.3507267"><ele>812.0</ele><time>2026-03-28T15:41:16.015Z</time></trkpt><trkpt lat="44.5011467" lon="9.350845"><ele>812.0</ele><time>2026-03-28T15:41:17.015Z</time></trkpt><trkpt lat="44.5011933" lon="9.35099"><ele>812.0</ele><time>2026-03-28T15:41:18.015Z</time></trkpt><trkpt lat="44.501245" lon="9.3511417"><ele>812.0</ele><time>2026-03-28T15:41:19.015Z</time></trkpt><trkpt lat="44.5012933" lon="9.35129"><ele>812.0</ele><time>2026-03-28T15:41:20.015Z</time></trkpt><trkpt lat="44.5013667" lon="9.3514383"><ele>812.0</ele><time>2026-03-28T15:41:21.015Z</time></trkpt><trkpt lat="44.5014567" lon="9.3515983"><ele>812.25</ele><time>2026-03-28T15:41:22.015Z</time></trkpt><trkpt lat="44.501555" lon="9.3517467"><ele>812.5</ele><time>2026-03-28T15:41:23.014Z</time></trkpt><trkpt lat="44.501665" lon="9.3519017"><ele>812.75</ele><time>2026-03-28T15:41:24.015Z</time></trkpt><trkpt lat="44.50177" lon="9.35205"><ele>813.0</ele><time>2026-03-28T15:41:25.015Z</time></trkpt><trkpt lat="44.501885" lon="9.3521783"><ele>813.5</ele><time>2026-03-28T15:41:26.015Z</time></trkpt><trkpt lat="44.5020117" lon="9.3522883"><ele>814.0</ele><time>2026-03-28T15:41:27.015Z</time></trkpt><trkpt lat="44.5021433" lon="9.3523833"><ele>814.5</ele><time>2026-03-28T15:41:28.015Z</time></trkpt><trkpt lat="44.5022867" lon="9.352455"><ele>815.0</ele><time>2026-03-28T15:41:29.015Z</time></trkpt><trkpt lat="44.50243" lon="9.3525217"><ele>815.0</ele><time>2026-03-28T15:41:30.015Z</time></trkpt><trkpt lat="44.50257" lon="9.352585"><ele>815.0</ele><time>2026-03-28T15:41:31.015Z</time></trkpt><trkpt lat="44.5027133" lon="9.3526583"><ele>815.0</ele><time>2026-03-28T15:41:32.015Z</time></trkpt><trkpt lat="44.502865" lon="9.3527167"><ele>812.6666666666667</ele><time>2026-03-28T15:41:33.015Z</time></trkpt><trkpt lat="44.503015" lon="9.3527633"><ele>810.3333333333333</ele><time>2026-03-28T15:41:34.015Z</time></trkpt><trkpt lat="44.5031767" lon="9.3528117"><ele>808.0</ele><time>2026-03-28T15:41:35.015Z</time></trkpt><trkpt lat="44.5033367" lon="9.352875"><ele>808.0</ele><time>2026-03-28T15:41:36.015Z</time></trkpt><trkpt lat="44.5035017" lon="9.3529617"><ele>808.0</ele><time>2026-03-28T15:41:37.015Z</time></trkpt><trkpt lat="44.503665" lon="9.3530483"><ele>808.0</ele><time>2026-03-28T15:41:38.015Z</time></trkpt><trkpt lat="44.50383" lon="9.3531317"><ele>808.6666666666666</ele><time>2026-03-28T15:41:39.014Z</time></trkpt><trkpt lat="44.5039867" lon="9.3532217"><ele>809.3333333333333</ele><time>2026-03-28T15:41:40.015Z</time></trkpt><trkpt lat="44.50415" lon="9.353305"><ele>810.0</ele><time>2026-03-28T15:41:41.015Z</time></trkpt><trkpt lat="44.504315" lon="9.3533817"><ele>810.0</ele><time>2026-03-28T15:41:42.015Z</time></trkpt><trkpt lat="44.50447" lon="9.353465"><ele>810.0</ele><time>2026-03-28T15:41:43.015Z</time></trkpt><trkpt lat="44.50462" lon="9.3535333"><ele>810.0</ele><time>2026-03-28T15:41:44.015Z</time></trkpt><trkpt lat="44.5047583" lon="9.353605"><ele>810.0</ele><time>2026-03-28T15:41:45.015Z</time></trkpt><trkpt lat="44.5048867" lon="9.353715"><ele>810.0</ele><time>2026-03-28T15:41:46.015Z</time></trkpt><trkpt lat="44.5050183" lon="9.3538067"><ele>810.0</ele><time>2026-03-28T15:41:47.014Z</time></trkpt><trkpt lat="44.505155" lon="9.3539"><ele>810.0</ele><time>2026-03-28T15:41:48.015Z</time></trkpt><trkpt lat="44.5052967" lon="9.3539717"><ele>810.5</ele><time>2026-03-28T15:41:49.015Z</time></trkpt><trkpt lat="44.5054317" lon="9.35403"><ele>811.0</ele><time>2026-03-28T15:41:50.015Z</time></trkpt><trkpt lat="44.5055633" lon="9.3540783"><ele>811.5</ele><time>2026-03-28T15:41:51.015Z</time></trkpt><trkpt lat="44.505675" lon="9.354125"><ele>812.0</ele><time>2026-03-28T15:41:52.015Z</time></trkpt><trkpt lat="44.5057833" lon="9.35419"><ele>812.0</ele><time>2026-03-28T15:41:53.015Z</time></trkpt><trkpt lat="44.505875" lon="9.3542917"><ele>812.0</ele><time>2026-03-28T15:41:54.015Z</time></trkpt><trkpt lat="44.50594" lon="9.354415"><ele>812.0</ele><time>2026-03-28T15:41:55.015Z</time></trkpt><trkpt lat="44.50599" lon="9.3545417"><ele>812.0</ele><time>2026-03-28T15:41:56.014Z</time></trkpt><trkpt lat="44.5060583" lon="9.354675"><ele>812.0</ele><time>2026-03-28T15:41:57.014Z</time></trkpt><trkpt lat="44.5061383" lon="9.3548233"><ele>812.5</ele><time>2026-03-28T15:41:58.015Z</time></trkpt><trkpt lat="44.5062117" lon="9.35496"><ele>813.0</ele><time>2026-03-28T15:41:59.014Z</time></trkpt><trkpt lat="44.5062983" lon="9.3550767"><ele>813.5</ele><time>2026-03-28T15:42:00.015Z</time></trkpt><trkpt lat="44.5063867" lon="9.3551767"><ele>814.0</ele><time>2026-03-28T15:42:01.015Z</time></trkpt><trkpt lat="44.5064933" lon="9.3552533"><ele>814.0</ele><time>2026-03-28T15:42:02.014Z</time></trkpt><trkpt lat="44.5066217" lon="9.35531"><ele>814.0</ele><time>2026-03-28T15:42:03.014Z</time></trkpt><trkpt lat="44.5067683" lon="9.3553117"><ele>814.0</ele><time>2026-03-28T15:42:04.015Z</time></trkpt><trkpt lat="44.5069333" lon="9.355335"><ele>814.0</ele><time>2026-03-28T15:42:05.014Z</time></trkpt><trkpt lat="44.5070983" lon="9.355335"><ele>813.3333333333333</ele><time>2026-03-28T15:42:06.014Z</time></trkpt><trkpt lat="44.50725" lon="9.3553167"><ele>812.6666666666667</ele><time>2026-03-28T15:42:07.015Z</time></trkpt><trkpt lat="44.5074083" lon="9.3552583"><ele>812.0</ele><time>2026-03-28T15:42:08.014Z</time></trkpt><trkpt lat="44.507575" lon="9.3551933"><ele>812.0</ele><time>2026-03-28T15:42:09.015Z</time></trkpt><trkpt lat="44.5077383" lon="9.3551"><ele>812.0</ele><time>2026-03-28T15:42:10.015Z</time></trkpt><trkpt lat="44.5078917" lon="9.354995"><ele>812.0</ele><time>2026-03-28T15:42:11.014Z</time></trkpt><trkpt lat="44.5080317" lon="9.3548833"><ele>811.0</ele><time>2026-03-28T15:42:12.015Z</time></trkpt><trkpt lat="44.5081633" lon="9.3547617"><ele>810.0</ele><time>2026-03-28T15:42:13.014Z</time></trkpt><trkpt lat="44.50829" lon="9.3546367"><ele>809.0</ele><time>2026-03-28T15:42:14.015Z</time></trkpt><trkpt lat="44.5084067" lon="9.354515"><ele>809.0</ele><time>2026-03-28T15:42:15.014Z</time></trkpt><trkpt lat="44.5085267" lon="9.3544133"><ele>809.0</ele><time>2026-03-28T15:42:16.015Z</time></trkpt><trkpt lat="44.5086383" lon="9.3542883"><ele>809.0</ele><time>2026-03-28T15:42:17.014Z</time></trkpt><trkpt lat="44.508765" lon="9.354235"><ele>809.0</ele><time>2026-03-28T15:42:18.015Z</time></trkpt><trkpt lat="44.5088933" lon="9.3541967"><ele>808.0</ele><time>2026-03-28T15:42:19.015Z</time></trkpt><trkpt lat="44.50903" lon="9.3541883"><ele>807.0</ele><time>2026-03-28T15:42:20.015Z</time></trkpt><trkpt lat="44.5091767" lon="9.3541967"><ele>806.0</ele><time>2026-03-28T15:42:21.015Z</time></trkpt><trkpt lat="44.50932" lon="9.3542317"><ele>805.0</ele><time>2026-03-28T15:42:22.015Z</time></trkpt><trkpt lat="44.509465" lon="9.3542583"><ele>802.25</ele><time>2026-03-28T15:42:23.015Z</time></trkpt><trkpt lat="44.509605" lon="9.3542867"><ele>799.5</ele><time>2026-03-28T15:42:24.015Z</time></trkpt><trkpt lat="44.5097333" lon="9.3543183"><ele>796.75</ele><time>2026-03-28T15:42:25.015Z</time></trkpt><trkpt lat="44.5098583" lon="9.3543667"><ele>794.0</ele><time>2026-03-28T15:42:26.015Z</time></trkpt><trkpt lat="44.5099683" lon="9.3544467"><ele>794.0</ele><time>2026-03-28T15:42:27.014Z</time></trkpt><trkpt lat="44.5100483" lon="9.354565"><ele>794.0</ele><time>2026-03-28T15:42:28.015Z</time></trkpt><trkpt lat="44.510105" lon="9.3547033"><ele>794.0</ele><time>2026-03-28T15:42:29.015Z</time></trkpt><trkpt lat="44.510155" lon="9.3548867"><ele>794.0</ele><time>2026-03-28T15:42:30.015Z</time></trkpt><trkpt lat="44.5102033" lon="9.3550617"><ele>795.6</ele><time>2026-03-28T15:42:31.015Z</time></trkpt><trkpt lat="44.5102467" lon="9.355225"><ele>797.2</ele><time>2026-03-28T15:42:32.015Z</time></trkpt><trkpt lat="44.5103" lon="9.3553667"><ele>798.8000000000001</ele><time>2026-03-28T15:42:33.015Z</time></trkpt><trkpt lat="44.5103583" lon="9.3554833"><ele>800.4000000000001</ele><time>2026-03-28T15:42:34.015Z</time></trkpt><trkpt lat="44.51044" lon="9.3555667"><ele>802.0</ele><time>2026-03-28T15:42:35.015Z</time></trkpt><trkpt lat="44.5105383" lon="9.35565"><ele>802.0</ele><time>2026-03-28T15:42:36.014Z</time></trkpt><trkpt lat="44.510665" lon="9.3557133"><ele>802.0</ele><time>2026-03-28T15:42:37.015Z</time></trkpt><trkpt lat="44.5107983" lon="9.3557583"><ele>802.0</ele><time>2026-03-28T15:42:38.015Z</time></trkpt><trkpt lat="44.5109433" lon="9.3557833"><ele>802.0</ele><time>2026-03-28T15:42:39.015Z</time></trkpt><trkpt lat="44.5111" lon="9.3557983"><ele>802.0</ele><time>2026-03-28T15:42:40.015Z</time></trkpt><trkpt lat="44.5112383" lon="9.355835"><ele>802.0</ele><time>2026-03-28T15:42:41.015Z</time></trkpt><trkpt lat="44.5113683" lon="9.3558817"><ele>802.0</ele><time>2026-03-28T15:42:42.015Z</time></trkpt><trkpt lat="44.5114983" lon="9.355975"><ele>802.0</ele><time>2026-03-28T15:42:43.015Z</time></trkpt><trkpt lat="44.5115717" lon="9.3561367"><ele>796.6666666666666</ele><time>2026-03-28T15:42:44.015Z</time></trkpt><trkpt lat="44.511655" lon="9.356315"><ele>791.3333333333333</ele><time>2026-03-28T15:42:45.015Z</time></trkpt><trkpt lat="44.5117617" lon="9.356485"><ele>786.0</ele><time>2026-03-28T15:42:46.015Z</time></trkpt><trkpt lat="44.5118467" lon="9.3566567"><ele>786.0</ele><time>2026-03-28T15:42:47.015Z</time></trkpt><trkpt lat="44.511915" lon="9.356825"><ele>786.0</ele><time>2026-03-28T15:42:48.015Z</time></trkpt><trkpt lat="44.5119733" lon="9.356995"><ele>786.0</ele><time>2026-03-28T15:42:49.015Z</time></trkpt><trkpt lat="44.5119967" lon="9.3571667"><ele>786.0</ele><time>2026-03-28T15:42:50.015Z</time></trkpt><trkpt lat="44.5119883" lon="9.35736"><ele>786.0</ele><time>2026-03-28T15:42:51.015Z</time></trkpt><trkpt lat="44.5119617" lon="9.3575717"><ele>786.0</ele><time>2026-03-28T15:42:52.015Z</time></trkpt><trkpt lat="44.511945" lon="9.357795"><ele>786.0</ele><time>2026-03-28T15:42:53.015Z</time></trkpt><trkpt lat="44.5119233" lon="9.357995"><ele>785.75</ele><time>2026-03-28T15:42:54.015Z</time></trkpt><trkpt lat="44.5118867" lon="9.358195"><ele>785.5</ele><time>2026-03-28T15:42:55.015Z</time></trkpt><trkpt lat="44.5118283" lon="9.3583733"><ele>785.25</ele><time>2026-03-28T15:42:56.015Z</time></trkpt><trkpt lat="44.5117633" lon="9.358565"><ele>785.0</ele><time>2026-03-28T15:42:57.015Z</time></trkpt><trkpt lat="44.5117167" lon="9.3587533"><ele>782.25</ele><time>2026-03-28T15:42:58.015Z</time></trkpt><trkpt lat="44.5116917" lon="9.3589583"><ele>779.5</ele><time>2026-03-28T15:42:59.015Z</time></trkpt><trkpt lat="44.511685" lon="9.3591467"><ele>776.75</ele><time>2026-03-28T15:43:00.014Z</time></trkpt><trkpt lat="44.51167" lon="9.359335"><ele>774.0</ele><time>2026-03-28T15:43:01.015Z</time></trkpt><trkpt lat="44.5116383" lon="9.3595183"><ele>774.0</ele><time>2026-03-28T15:43:02.015Z</time></trkpt><trkpt lat="44.5115967" lon="9.359695"><ele>774.0</ele><time>2026-03-28T15:43:03.015Z</time></trkpt><trkpt lat="44.5115383" lon="9.359855"><ele>774.0</ele><time>2026-03-28T15:43:04.014Z</time></trkpt><trkpt lat="44.5114817" lon="9.3600083"><ele>774.0</ele><time>2026-03-28T15:43:05.014Z</time></trkpt><trkpt lat="44.5114433" lon="9.360145"><ele>774.2</ele><time>2026-03-28T15:43:06.015Z</time></trkpt><trkpt lat="44.5114383" lon="9.3602783"><ele>774.4000000000001</ele><time>2026-03-28T15:43:07.015Z</time></trkpt><trkpt lat="44.5114583" lon="9.3604117"><ele>774.6</ele><time>2026-03-28T15:43:08.014Z</time></trkpt><trkpt lat="44.5115133" lon="9.3605167"><ele>774.8</ele><time>2026-03-28T15:43:09.015Z</time></trkpt><trkpt lat="44.5115983" lon="9.36059"><ele>775.0</ele><time>2026-03-28T15:43:10.015Z</time></trkpt><trkpt lat="44.5116983" lon="9.3606567"><ele>775.0</ele><time>2026-03-28T15:43:11.015Z</time></trkpt><trkpt lat="44.51178" lon="9.3607383"><ele>775.0</ele><time>2026-03-28T15:43:12.014Z</time></trkpt><trkpt lat="44.51184" lon="9.360835"><ele>775.0</ele><time>2026-03-28T15:43:13.014Z</time></trkpt><trkpt lat="44.5119" lon="9.3609683"><ele>775.0</ele><time>2026-03-28T15:43:14.015Z</time></trkpt><trkpt lat="44.511945" lon="9.361105"><ele>775.0</ele><time>2026-03-28T15:43:15.015Z</time></trkpt><trkpt lat="44.5119633" lon="9.3612583"><ele>779.0</ele><time>2026-03-28T15:43:16.014Z</time></trkpt><trkpt lat="44.511955" lon="9.3614917"><ele>783.0</ele><time>2026-03-28T15:43:17.015Z</time></trkpt><trkpt lat="44.5119883" lon="9.3617"><ele>787.0</ele><time>2026-03-28T15:43:18.014Z</time></trkpt><trkpt lat="44.5120367" lon="9.3619183"><ele>787.0</ele><time>2026-03-28T15:43:19.015Z</time></trkpt><trkpt lat="44.5120683" lon="9.3621183"><ele>787.0</ele><time>2026-03-28T15:43:20.014Z</time></trkpt><trkpt lat="44.5120817" lon="9.3623"><ele>787.0</ele><time>2026-03-28T15:43:21.015Z</time></trkpt><trkpt lat="44.5120683" lon="9.3624783"><ele>787.0</ele><time>2026-03-28T15:43:22.015Z</time></trkpt><trkpt lat="44.5120167" lon="9.36266"><ele>784.25</ele><time>2026-03-28T15:43:23.015Z</time></trkpt><trkpt lat="44.5119667" lon="9.3628383"><ele>781.5</ele><time>2026-03-28T15:43:24.015Z</time></trkpt><trkpt lat="44.51192" lon="9.36301"><ele>778.75</ele><time>2026-03-28T15:43:25.014Z</time></trkpt><trkpt lat="44.5118817" lon="9.3631683"><ele>776.0</ele><time>2026-03-28T15:43:26.015Z</time></trkpt><trkpt lat="44.5118667" lon="9.3633333"><ele>775.0</ele><time>2026-03-28T15:43:27.015Z</time></trkpt><trkpt lat="44.5119133" lon="9.3634967"><ele>774.0</ele><time>2026-03-28T15:43:28.014Z</time></trkpt><trkpt lat="44.51199" lon="9.36365"><ele>773.0</ele><time>2026-03-28T15:43:29.015Z</time></trkpt><trkpt lat="44.51206" lon="9.3637817"><ele>772.0</ele><time>2026-03-28T15:43:30.015Z</time></trkpt><trkpt lat="44.51212" lon="9.3639317"><ele>763.5</ele><time>2026-03-28T15:43:31.015Z</time></trkpt><trkpt lat="44.5121683" lon="9.3640933"><ele>755.0</ele><time>2026-03-28T15:43:32.015Z</time></trkpt><trkpt lat="44.5121967" lon="9.364275"><ele>746.5</ele><time>2026-03-28T15:43:33.014Z</time></trkpt><trkpt lat="44.5122133" lon="9.36447"><ele>738.0</ele><time>2026-03-28T15:43:34.015Z</time></trkpt><trkpt lat="44.5121983" lon="9.3646667"><ele>737.5</ele><time>2026-03-28T15:43:35.015Z</time></trkpt><trkpt lat="44.51217" lon="9.3648567"><ele>737.0</ele><time>2026-03-28T15:43:36.014Z</time></trkpt><trkpt lat="44.51214" lon="9.365045"><ele>736.5</ele><time>2026-03-28T15:43:37.015Z</time></trkpt><trkpt lat="44.5121183" lon="9.3651933"><ele>736.0</ele><time>2026-03-28T15:43:38.015Z</time></trkpt><trkpt lat="44.5121433" lon="9.3653433"><ele>736.0</ele><time>2026-03-28T15:43:39.015Z</time></trkpt><trkpt lat="44.5121883" lon="9.3654983"><ele>736.0</ele><time>2026-03-28T15:43:40.015Z</time></trkpt><trkpt lat="44.512245" lon="9.3656617"><ele>736.0</ele><time>2026-03-28T15:43:41.015Z</time></trkpt><trkpt lat="44.5123133" lon="9.3658233"><ele>736.0</ele><time>2026-03-28T15:43:42.015Z</time></trkpt><trkpt lat="44.5123967" lon="9.36598"><ele>738.25</ele><time>2026-03-28T15:43:43.015Z</time></trkpt><trkpt lat="44.5124917" lon="9.3661467"><ele>740.5</ele><time>2026-03-28T15:43:44.015Z</time></trkpt><trkpt lat="44.5125867" lon="9.3663067"><ele>742.75</ele><time>2026-03-28T15:43:45.014Z</time></trkpt><trkpt lat="44.51268" lon="9.36646"><ele>745.0</ele><time>2026-03-28T15:43:46.015Z</time></trkpt><trkpt lat="44.51278" lon="9.3666167"><ele>744.75</ele><time>2026-03-28T15:43:47.015Z</time></trkpt><trkpt lat="44.5128683" lon="9.3667733"><ele>744.5</ele><time>2026-03-28T15:43:48.015Z</time></trkpt><trkpt lat="44.51295" lon="9.366945"><ele>744.25</ele><time>2026-03-28T15:43:49.015Z</time></trkpt><trkpt lat="44.513005" lon="9.3671167"><ele>744.0</ele><time>2026-03-28T15:43:50.015Z</time></trkpt><trkpt lat="44.5130633" lon="9.3672783"><ele>744.0</ele><time>2026-03-28T15:43:51.014Z</time></trkpt><trkpt lat="44.5131267" lon="9.367425"><ele>744.0</ele><time>2026-03-28T15:43:52.015Z</time></trkpt><trkpt lat="44.51321" lon="9.3675483"><ele>744.0</ele><time>2026-03-28T15:43:53.014Z</time></trkpt><trkpt lat="44.5133133" lon="9.3676617"><ele>744.0</ele><time>2026-03-28T15:43:54.015Z</time></trkpt><trkpt lat="44.51343" lon="9.3677633"><ele>744.0</ele><time>2026-03-28T15:43:55.015Z</time></trkpt><trkpt lat="44.5135617" lon="9.3678633"><ele>744.0</ele><time>2026-03-28T15:43:56.014Z</time></trkpt><trkpt lat="44.5137017" lon="9.3679717"><ele>744.0</ele><time>2026-03-28T15:43:57.015Z</time></trkpt><trkpt lat="44.5138433" lon="9.368085"><ele>742.6666666666666</ele><time>2026-03-28T15:43:58.015Z</time></trkpt><trkpt lat="44.5139867" lon="9.3682033"><ele>741.3333333333333</ele><time>2026-03-28T15:43:59.015Z</time></trkpt><trkpt lat="44.51414" lon="9.368325"><ele>740.0</ele><time>2026-03-28T15:44:00.015Z</time></trkpt><trkpt lat="44.5142883" lon="9.3684433"><ele>740.0</ele><time>2026-03-28T15:44:01.015Z</time></trkpt><trkpt lat="44.5144167" lon="9.3685683"><ele>740.0</ele><time>2026-03-28T15:44:02.014Z</time></trkpt><trkpt lat="44.51455" lon="9.3686867"><ele>740.0</ele><time>2026-03-28T15:44:03.015Z</time></trkpt><trkpt lat="44.5146783" lon="9.3687983"><ele>737.6666666666666</ele><time>2026-03-28T15:44:04.015Z</time></trkpt><trkpt lat="44.514805" lon="9.36892"><ele>735.3333333333334</ele><time>2026-03-28T15:44:05.014Z</time></trkpt><trkpt lat="44.5149233" lon="9.3690583"><ele>733.0</ele><time>2026-03-28T15:44:06.015Z</time></trkpt><trkpt lat="44.5150283" lon="9.3691983"><ele>733.0</ele><time>2026-03-28T15:44:07.015Z</time></trkpt><trkpt lat="44.515125" lon="9.369365"><ele>733.0</ele><time>2026-03-28T15:44:08.015Z</time></trkpt><trkpt lat="44.5152017" lon="9.3695683"><ele>733.0</ele><time>2026-03-28T15:44:09.015Z</time></trkpt><trkpt lat="44.5152717" lon="9.3697633"><ele>728.6666666666667</ele><time>2026-03-28T15:44:10.015Z</time></trkpt><trkpt lat="44.515365" lon="9.369985"><ele>724.3333333333334</ele><time>2026-03-28T15:44:11.015Z</time></trkpt><trkpt lat="44.5154633" lon="9.3701867"><ele>720.0</ele><time>2026-03-28T15:44:12.015Z</time></trkpt><trkpt lat="44.5155567" lon="9.3703733"><ele>723.6666666666666</ele><time>2026-03-28T15:44:13.015Z</time></trkpt><trkpt lat="44.5156733" lon="9.370585"><ele>727.3333333333333</ele><time>2026-03-28T15:44:14.015Z</time></trkpt><trkpt lat="44.5157733" lon="9.3707867"><ele>731.0</ele><time>2026-03-28T15:44:15.014Z</time></trkpt><trkpt lat="44.51587" lon="9.3709767"><ele>731.0</ele><time>2026-03-28T15:44:16.014Z</time></trkpt><trkpt lat="44.51597" lon="9.3711617"><ele>731.0</ele><time>2026-03-28T15:44:17.015Z</time></trkpt><trkpt lat="44.5160733" lon="9.371335"><ele>731.0</ele><time>2026-03-28T15:44:18.014Z</time></trkpt><trkpt lat="44.51619" lon="9.3714917"><ele>728.5</ele><time>2026-03-28T15:44:19.014Z</time></trkpt><trkpt lat="44.516315" lon="9.3716183"><ele>726.0</ele><time>2026-03-28T15:44:20.015Z</time></trkpt><trkpt lat="44.51644" lon="9.3717267"><ele>723.5</ele><time>2026-03-28T15:44:21.015Z</time></trkpt><trkpt lat="44.5165717" lon="9.3718133"><ele>721.0</ele><time>2026-03-28T15:44:22.015Z</time></trkpt><trkpt lat="44.5167117" lon="9.3718533"><ele>721.0</ele><time>2026-03-28T15:44:23.015Z</time></trkpt><trkpt lat="44.5168833" lon="9.3718783"><ele>721.0</ele><time>2026-03-28T15:44:24.015Z</time></trkpt><trkpt lat="44.5170433" lon="9.371895"><ele>721.0</ele><time>2026-03-28T15:44:25.015Z</time></trkpt><trkpt lat="44.517205" lon="9.37192"><ele>720.0</ele><time>2026-03-28T15:44:26.014Z</time></trkpt><trkpt lat="44.517365" lon="9.3719683"><ele>719.0</ele><time>2026-03-28T15:44:27.015Z</time></trkpt><trkpt lat="44.5175433" lon="9.3720117"><ele>718.0</ele><time>2026-03-28T15:44:28.015Z</time></trkpt><trkpt lat="44.5177233" lon="9.3720383"><ele>718.0</ele><time>2026-03-28T15:44:29.015Z</time></trkpt><trkpt lat="44.51789" lon="9.3720733"><ele>718.0</ele><time>2026-03-28T15:44:30.015Z</time></trkpt><trkpt lat="44.5180467" lon="9.3721117"><ele>718.0</ele><time>2026-03-28T15:44:31.015Z</time></trkpt><trkpt lat="44.51821" lon="9.3721417"><ele>717.25</ele><time>2026-03-28T15:44:32.015Z</time></trkpt><trkpt lat="44.5183583" lon="9.372165"><ele>716.5</ele><time>2026-03-28T15:44:33.015Z</time></trkpt><trkpt lat="44.5184967" lon="9.37218"><ele>715.75</ele><time>2026-03-28T15:44:34.015Z</time></trkpt><trkpt lat="44.51863" lon="9.3722183"><ele>715.0</ele><time>2026-03-28T15:44:35.014Z</time></trkpt><trkpt lat="44.5187567" lon="9.3722567"><ele>722.0</ele><time>2026-03-28T15:44:36.014Z</time></trkpt><trkpt lat="44.5188833" lon="9.3723483"><ele>729.0</ele><time>2026-03-28T15:44:37.015Z</time></trkpt><trkpt lat="44.5190017" lon="9.3724833"><ele>736.0</ele><time>2026-03-28T15:44:38.015Z</time></trkpt><trkpt lat="44.5190833" lon="9.37267"><ele>736.0</ele><time>2026-03-28T15:44:39.015Z</time></trkpt><trkpt lat="44.5191617" lon="9.37286"><ele>736.0</ele><time>2026-03-28T15:44:40.015Z</time></trkpt><trkpt lat="44.51923" lon="9.3730567"><ele>736.0</ele><time>2026-03-28T15:44:41.015Z</time></trkpt><trkpt lat="44.5193183" lon="9.3732117"><ele>738.75</ele><time>2026-03-28T15:44:42.015Z</time></trkpt><trkpt lat="44.51941" lon="9.3733583"><ele>741.5</ele><time>2026-03-28T15:44:43.015Z</time></trkpt><trkpt lat="44.5195167" lon="9.37347"><ele>744.25</ele><time>2026-03-28T15:44:44.015Z</time></trkpt><trkpt lat="44.5196383" lon="9.37359"><ele>747.0</ele><time>2026-03-28T15:44:45.015Z</time></trkpt><trkpt lat="44.5197717" lon="9.373695"><ele>747.0</ele><time>2026-03-28T15:44:46.015Z</time></trkpt><trkpt lat="44.5199067" lon="9.3738017"><ele>747.0</ele><time>2026-03-28T15:44:47.015Z</time></trkpt><trkpt lat="44.5200367" lon="9.3739233"><ele>747.0</ele><time>2026-03-28T15:44:48.015Z</time></trkpt><trkpt lat="44.520145" lon="9.3740567"><ele>745.5</ele><time>2026-03-28T15:44:49.015Z</time></trkpt><trkpt lat="44.52024" lon="9.3742067"><ele>744.0</ele><time>2026-03-28T15:44:50.015Z</time></trkpt><trkpt lat="44.52033" lon="9.3743817"><ele>742.5</ele><time>2026-03-28T15:44:51.015Z</time></trkpt><trkpt lat="44.5204" lon="9.3745433"><ele>741.0</ele><time>2026-03-28T15:44:52.015Z</time></trkpt><trkpt lat="44.5204367" lon="9.3747233"><ele>741.0</ele><time>2026-03-28T15:44:53.015Z</time></trkpt><trkpt lat="44.5204467" lon="9.3749067"><ele>741.0</ele><time>2026-03-28T15:44:54.015Z</time></trkpt><trkpt lat="44.5204117" lon="9.375095"><ele>741.0</ele><time>2026-03-28T15:44:55.014Z</time></trkpt><trkpt lat="44.520375" lon="9.3752583"><ele>741.0</ele><time>2026-03-28T15:44:56.015Z</time></trkpt><trkpt lat="44.5203067" lon="9.3753733"><ele>735.5999999999999</ele><time>2026-03-28T15:44:57.015Z</time></trkpt><trkpt lat="44.520235" lon="9.3755017"><ele>730.2</ele><time>2026-03-28T15:44:58.015Z</time></trkpt><trkpt lat="44.5202083" lon="9.375635"><ele>724.8</ele><time>2026-03-28T15:44:59.015Z</time></trkpt><trkpt lat="44.5202083" lon="9.3757583"><ele>719.4000000000001</ele><time>2026-03-28T15:45:00.014Z</time></trkpt><trkpt lat="44.52025" lon="9.3758583"><ele>714.0</ele><time>2026-03-28T15:45:01.014Z</time></trkpt><trkpt lat="44.5203083" lon="9.375945"><ele>713.25</ele><time>2026-03-28T15:45:02.015Z</time></trkpt><trkpt lat="44.5203933" lon="9.3760283"><ele>712.5</ele><time>2026-03-28T15:45:03.015Z</time></trkpt><trkpt lat="44.5204917" lon="9.3760917"><ele>711.75</ele><time>2026-03-28T15:45:04.015Z</time></trkpt><trkpt lat="44.5206383" lon="9.3761017"><ele>711.0</ele><time>2026-03-28T15:45:05.015Z</time></trkpt><trkpt lat="44.5207767" lon="9.3761317"><ele>714.75</ele><time>2026-03-28T15:45:06.015Z</time></trkpt><trkpt lat="44.52091" lon="9.3761717"><ele>718.5</ele><time>2026-03-28T15:45:07.015Z</time></trkpt><trkpt lat="44.5210533" lon="9.3762133"><ele>722.25</ele><time>2026-03-28T15:45:08.015Z</time></trkpt><trkpt lat="44.5212033" lon="9.3762583"><ele>726.0</ele><time>2026-03-28T15:45:09.014Z</time></trkpt><trkpt lat="44.5213533" lon="9.3763017"><ele>728.6666666666666</ele><time>2026-03-28T15:45:10.015Z</time></trkpt><trkpt lat="44.5215133" lon="9.376345"><ele>731.3333333333333</ele><time>2026-03-28T15:45:11.015Z</time></trkpt><trkpt lat="44.5216767" lon="9.376385"><ele>734.0</ele><time>2026-03-28T15:45:12.015Z</time></trkpt><trkpt lat="44.5218383" lon="9.3764233"><ele>727.6666666666666</ele><time>2026-03-28T15:45:13.015Z</time></trkpt><trkpt lat="44.522005" lon="9.376445"><ele>721.3333333333334</ele><time>2026-03-28T15:45:14.015Z</time></trkpt><trkpt lat="44.5221767" lon="9.3764833"><ele>715.0</ele><time>2026-03-28T15:45:15.015Z</time></trkpt><trkpt lat="44.5223517" lon="9.3765233"><ele>715.0</ele><time>2026-03-28T15:45:16.015Z</time></trkpt><trkpt lat="44.5225267" lon="9.376565"><ele>715.0</ele><time>2026-03-28T15:45:17.015Z</time></trkpt><trkpt lat="44.5226933" lon="9.37662"><ele>715.0</ele><time>2026-03-28T15:45:18.015Z</time></trkpt><trkpt lat="44.52285" lon="9.376685"><ele>718.0</ele><time>2026-03-28T15:45:19.015Z</time></trkpt><trkpt lat="44.5229983" lon="9.376745"><ele>721.0</ele><time>2026-03-28T15:45:20.015Z</time></trkpt><trkpt lat="44.523145" lon="9.3768133"><ele>724.0</ele><time>2026-03-28T15:45:21.015Z</time></trkpt><trkpt lat="44.5233033" lon="9.37689"><ele>724.0</ele><time>2026-03-28T15:45:22.015Z</time></trkpt><trkpt lat="44.5234717" lon="9.3769783"><ele>724.0</ele><time>2026-03-28T15:45:23.015Z</time></trkpt><trkpt lat="44.523635" lon="9.3770633"><ele>724.0</ele><time>2026-03-28T15:45:24.015Z</time></trkpt><trkpt lat="44.5237933" lon="9.37716"><ele>719.6666666666667</ele><time>2026-03-28T15:45:25.015Z</time></trkpt><trkpt lat="44.523975" lon="9.3772617"><ele>715.3333333333334</ele><time>2026-03-28T15:45:26.015Z</time></trkpt><trkpt lat="44.52413" lon="9.37738"><ele>711.0</ele><time>2026-03-28T15:45:27.015Z</time></trkpt><trkpt lat="44.5242767" lon="9.3775183"><ele>711.0</ele><time>2026-03-28T15:45:28.015Z</time></trkpt><trkpt lat="44.5244067" lon="9.377635"><ele>711.0</ele><time>2026-03-28T15:45:29.015Z</time></trkpt><trkpt lat="44.5245317" lon="9.3777683"><ele>711.0</ele><time>2026-03-28T15:45:30.015Z</time></trkpt><trkpt lat="44.524665" lon="9.3778833"><ele>709.6666666666666</ele><time>2026-03-28T15:45:31.015Z</time></trkpt><trkpt lat="44.5248033" lon="9.3779817"><ele>708.3333333333333</ele><time>2026-03-28T15:45:32.015Z</time></trkpt><trkpt lat="44.5249317" lon="9.3781117"><ele>707.0</ele><time>2026-03-28T15:45:33.015Z</time></trkpt><trkpt lat="44.52506" lon="9.3782133"><ele>707.0</ele><time>2026-03-28T15:45:34.015Z</time></trkpt><trkpt lat="44.5251917" lon="9.378295"><ele>707.0</ele><time>2026-03-28T15:45:35.015Z</time></trkpt><trkpt lat="44.525315" lon="9.3783917"><ele>707.0</ele><time>2026-03-28T15:45:36.015Z</time></trkpt><trkpt lat="44.5254233" lon="9.378485"><ele>707.0</ele><time>2026-03-28T15:45:37.015Z</time></trkpt><trkpt lat="44.5254967" lon="9.3785717"><ele>706.4000000000001</ele><time>2026-03-28T15:45:38.015Z</time></trkpt><trkpt lat="44.5255567" lon="9.378675"><ele>705.8000000000001</ele><time>2026-03-28T15:45:39.015Z</time></trkpt><trkpt lat="44.5255917" lon="9.3788017"><ele>705.2</ele><time>2026-03-28T15:45:40.015Z</time></trkpt><trkpt lat="44.52559" lon="9.37893"><ele>704.6</ele><time>2026-03-28T15:45:41.015Z</time></trkpt><trkpt lat="44.52555" lon="9.379065"><ele>704.0</ele><time>2026-03-28T15:45:42.015Z</time></trkpt><trkpt lat="44.5254967" lon="9.3792167"><ele>704.0</ele><time>2026-03-28T15:45:43.015Z</time></trkpt><trkpt lat="44.525445" lon="9.37937"><ele>704.0</ele><time>2026-03-28T15:45:44.015Z</time></trkpt><trkpt lat="44.525385" lon="9.3795433"><ele>704.0</ele><time>2026-03-28T15:45:45.015Z</time></trkpt><trkpt lat="44.525315" lon="9.37972"><ele>704.0</ele><time>2026-03-28T15:45:46.015Z</time></trkpt><trkpt lat="44.5252333" lon="9.379905"><ele>705.6666666666666</ele><time>2026-03-28T15:45:47.015Z</time></trkpt><trkpt lat="44.5251417" lon="9.3800717"><ele>707.3333333333334</ele><time>2026-03-28T15:45:48.015Z</time></trkpt><trkpt lat="44.525035" lon="9.3802483"><ele>709.0</ele><time>2026-03-28T15:45:49.015Z</time></trkpt><trkpt lat="44.524925" lon="9.380425"><ele>705.6666666666667</ele><time>2026-03-28T15:45:50.015Z</time></trkpt><trkpt lat="44.52481" lon="9.380585"><ele>702.3333333333334</ele><time>2026-03-28T15:45:51.015Z</time></trkpt><trkpt lat="44.5246867" lon="9.3807783"><ele>699.0</ele><time>2026-03-28T15:45:52.015Z</time></trkpt><trkpt lat="44.5245667" lon="9.38097"><ele>699.0</ele><time>2026-03-28T15:45:53.015Z</time></trkpt><trkpt lat="44.5244367" lon="9.3811483"><ele>699.0</ele><time>2026-03-28T15:45:54.015Z</time></trkpt><trkpt lat="44.5243133" lon="9.38132"><ele>699.0</ele><time>2026-03-28T15:45:55.015Z</time></trkpt><trkpt lat="44.52419" lon="9.3814967"><ele>699.0</ele><time>2026-03-28T15:45:56.015Z</time></trkpt><trkpt lat="44.5240817" lon="9.381655"><ele>699.0</ele><time>2026-03-28T15:45:57.015Z</time></trkpt><trkpt lat="44.5239667" lon="9.3818183"><ele>699.0</ele><time>2026-03-28T15:45:58.015Z</time></trkpt><trkpt lat="44.5238417" lon="9.3819867"><ele>701.0</ele><time>2026-03-28T15:45:59.015Z</time></trkpt><trkpt lat="44.5237233" lon="9.3821633"><ele>703.0</ele><time>2026-03-28T15:46:00.015Z</time></trkpt><trkpt lat="44.5236167" lon="9.3823133"><ele>705.0</ele><time>2026-03-28T15:46:01.015Z</time></trkpt><trkpt lat="44.5235233" lon="9.38247"><ele>705.0</ele><time>2026-03-28T15:46:02.015Z</time></trkpt><trkpt lat="44.5234317" lon="9.3826117"><ele>705.0</ele><time>2026-03-28T15:46:03.015Z</time></trkpt><trkpt lat="44.52334" lon="9.3827433"><ele>705.0</ele><time>2026-03-28T15:46:04.015Z</time></trkpt><trkpt lat="44.5232667" lon="9.3828933"><ele>705.0</ele><time>2026-03-28T15:46:05.015Z</time></trkpt><trkpt lat="44.52322" lon="9.38303"><ele>705.6</ele><time>2026-03-28T15:46:06.015Z</time></trkpt><trkpt lat="44.5232017" lon="9.3831617"><ele>706.2</ele><time>2026-03-28T15:46:07.015Z</time></trkpt><trkpt lat="44.523215" lon="9.3833133"><ele>706.8</ele><time>2026-03-28T15:46:08.015Z</time></trkpt><trkpt lat="44.52326" lon="9.3834617"><ele>707.4</ele><time>2026-03-28T15:46:09.015Z</time></trkpt><trkpt lat="44.52332" lon="9.3836"><ele>708.0</ele><time>2026-03-28T15:46:10.015Z</time></trkpt><trkpt lat="44.5233967" lon="9.38375"><ele>705.5</ele><time>2026-03-28T15:46:11.015Z</time></trkpt><trkpt lat="44.5234867" lon="9.3839067"><ele>703.0</ele><time>2026-03-28T15:46:12.015Z</time></trkpt><trkpt lat="44.5235833" lon="9.3840683"><ele>700.5</ele><time>2026-03-28T15:46:13.014Z</time></trkpt><trkpt lat="44.523655" lon="9.38423"><ele>698.0</ele><time>2026-03-28T15:46:14.015Z</time></trkpt><trkpt lat="44.5237417" lon="9.3843833"><ele>698.0</ele><time>2026-03-28T15:46:15.015Z</time></trkpt><trkpt lat="44.52384" lon="9.384535"><ele>698.0</ele><time>2026-03-28T15:46:16.014Z</time></trkpt><trkpt lat="44.523955" lon="9.3846817"><ele>698.0</ele><time>2026-03-28T15:46:17.014Z</time></trkpt><trkpt lat="44.5240617" lon="9.3848033"><ele>698.0</ele><time>2026-03-28T15:46:18.015Z</time></trkpt><trkpt lat="44.5242" lon="9.3848967"><ele>701.6666666666666</ele><time>2026-03-28T15:46:19.015Z</time></trkpt><trkpt lat="44.5243383" lon="9.384985"><ele>705.3333333333334</ele><time>2026-03-28T15:46:20.015Z</time></trkpt><trkpt lat="44.524515" lon="9.38509"><ele>709.0</ele><time>2026-03-28T15:46:21.015Z</time></trkpt><trkpt lat="44.5246617" lon="9.385165"><ele>709.0</ele><time>2026-03-28T15:46:22.015Z</time></trkpt><trkpt lat="44.5248017" lon="9.3852217"><ele>709.0</ele><time>2026-03-28T15:46:23.015Z</time></trkpt><trkpt lat="44.5249433" lon="9.3852583"><ele>709.0</ele><time>2026-03-28T15:46:24.015Z</time></trkpt><trkpt lat="44.52507" lon="9.3852583"><ele>709.0</ele><time>2026-03-28T15:46:25.015Z</time></trkpt><trkpt lat="44.52521" lon="9.385255"><ele>709.0</ele><time>2026-03-28T15:46:26.015Z</time></trkpt><trkpt lat="44.525345" lon="9.3852317"><ele>709.0</ele><time>2026-03-28T15:46:27.015Z</time></trkpt><trkpt lat="44.52546" lon="9.3851517"><ele>709.0</ele><time>2026-03-28T15:46:28.014Z</time></trkpt><trkpt lat="44.5255533" lon="9.3850817"><ele>709.0</ele><time>2026-03-28T15:46:29.015Z</time></trkpt><trkpt lat="44.5256433" lon="9.3850533"><ele>708.8333333333334</ele><time>2026-03-28T15:46:30.015Z</time></trkpt><trkpt lat="44.5257117" lon="9.3850267"><ele>708.6666666666667</ele><time>2026-03-28T15:46:31.015Z</time></trkpt><trkpt lat="44.5258067" lon="9.3849633"><ele>708.5</ele><time>2026-03-28T15:46:33.014Z</time></trkpt><trkpt lat="44.5258817" lon="9.384975"><ele>708.3333333333334</ele><time>2026-03-28T15:46:37.014Z</time></trkpt><trkpt lat="44.5258817" lon="9.385105"><ele>708.1666666666666</ele><time>2026-03-28T15:50:37.016Z</time></trkpt><trkpt lat="44.525935" lon="9.3851967"><ele>708.0</ele><time>2026-03-28T15:50:39.016Z</time></trkpt><trkpt lat="44.52596" lon="9.3852833"><ele>708.0</ele><time>2026-03-28T15:50:40.015Z</time></trkpt><trkpt lat="44.525995" lon="9.3853633"><ele>708.0</ele><time>2026-03-28T15:50:41.016Z</time></trkpt><trkpt lat="44.5260217" lon="9.3854617"><ele>708.0</ele><time>2026-03-28T15:50:42.016Z</time></trkpt><trkpt lat="44.526035" lon="9.3855517"><ele>708.0</ele><time>2026-03-28T15:50:43.016Z</time></trkpt><trkpt lat="44.526025" lon="9.385715"><ele>708.0</ele><time>2026-03-28T15:50:45.016Z</time></trkpt><trkpt lat="44.526" lon="9.3857967"><ele>708.0</ele><time>2026-03-28T15:50:46.016Z</time></trkpt><trkpt lat="44.525925" lon="9.3859733"><ele>709.0</ele><time>2026-03-28T15:50:48.016Z</time></trkpt><trkpt lat="44.5259" lon="9.386085"><ele>710.0</ele><time>2026-03-28T15:50:49.016Z</time></trkpt><trkpt lat="44.5258567" lon="9.386165"><ele>711.0</ele><time>2026-03-28T15:50:50.016Z</time></trkpt><trkpt lat="44.525795" lon="9.3862617"><ele>712.0</ele><time>2026-03-28T15:50:52.016Z</time></trkpt><trkpt lat="44.5257617" lon="9.386345"><ele>713.0</ele><time>2026-03-28T15:50:57.015Z</time></trkpt><trkpt lat="44.525785" lon="9.3864983"><ele>714.0</ele><time>2026-03-28T15:51:00.016Z</time></trkpt><trkpt lat="44.5257817" lon="9.3866467"><ele>714.0</ele><time>2026-03-28T15:51:02.016Z</time></trkpt><trkpt lat="44.525765" lon="9.38675"><ele>714.0</ele><time>2026-03-28T15:51:03.016Z</time></trkpt><trkpt lat="44.52574" lon="9.3868833"><ele>714.0</ele><time>2026-03-28T15:51:04.016Z</time></trkpt><trkpt lat="44.52572" lon="9.3870267"><ele>714.0</ele><time>2026-03-28T15:51:05.016Z</time></trkpt><trkpt lat="44.5257067" lon="9.3871817"><ele>714.0</ele><time>2026-03-28T15:51:06.016Z</time></trkpt><trkpt lat="44.5257083" lon="9.38733"><ele>713.6</ele><time>2026-03-28T15:51:07.016Z</time></trkpt><trkpt lat="44.5257217" lon="9.38749"><ele>713.2</ele><time>2026-03-28T15:51:08.015Z</time></trkpt><trkpt lat="44.525755" lon="9.3876233"><ele>712.8000000000001</ele><time>2026-03-28T15:51:09.016Z</time></trkpt><trkpt lat="44.5258267" lon="9.3877217"><ele>712.4000000000001</ele><time>2026-03-28T15:51:10.016Z</time></trkpt><trkpt lat="44.5259167" lon="9.3878133"><ele>712.0</ele><time>2026-03-28T15:51:11.015Z</time></trkpt><trkpt lat="44.5260217" lon="9.387895"><ele>712.0</ele><time>2026-03-28T15:51:12.016Z</time></trkpt><trkpt lat="44.5261317" lon="9.3879867"><ele>712.0</ele><time>2026-03-28T15:51:13.016Z</time></trkpt><trkpt lat="44.5262517" lon="9.3880767"><ele>712.0</ele><time>2026-03-28T15:51:14.016Z</time></trkpt><trkpt lat="44.5263583" lon="9.3881583"><ele>712.0</ele><time>2026-03-28T15:51:15.016Z</time></trkpt><trkpt lat="44.526465" lon="9.3882583"><ele>708.0</ele><time>2026-03-28T15:51:16.016Z</time></trkpt><trkpt lat="44.52655" lon="9.3883683"><ele>704.0</ele><time>2026-03-28T15:51:17.016Z</time></trkpt><trkpt lat="44.5266233" lon="9.3884967"><ele>700.0</ele><time>2026-03-28T15:51:18.016Z</time></trkpt><trkpt lat="44.52668" lon="9.3886567"><ele>696.0</ele><time>2026-03-28T15:51:19.016Z</time></trkpt><trkpt lat="44.5267267" lon="9.3888417"><ele>699.0</ele><time>2026-03-28T15:51:20.016Z</time></trkpt><trkpt lat="44.5267633" lon="9.3890333"><ele>702.0</ele><time>2026-03-28T15:51:21.016Z</time></trkpt><trkpt lat="44.5268133" lon="9.389225"><ele>705.0</ele><time>2026-03-28T15:51:22.016Z</time></trkpt><trkpt lat="44.5268733" lon="9.389415"><ele>708.0</ele><time>2026-03-28T15:51:23.016Z</time></trkpt><trkpt lat="44.526935" lon="9.3896"><ele>710.5</ele><time>2026-03-28T15:51:24.016Z</time></trkpt><trkpt lat="44.527005" lon="9.389785"><ele>713.0</ele><time>2026-03-28T15:51:25.016Z</time></trkpt><trkpt lat="44.5270617" lon="9.38997"><ele>715.5</ele><time>2026-03-28T15:51:26.016Z</time></trkpt><trkpt lat="44.5270933" lon="9.39016"><ele>718.0</ele><time>2026-03-28T15:51:27.016Z</time></trkpt><trkpt lat="44.527105" lon="9.3903617"><ele>708.3333333333334</ele><time>2026-03-28T15:51:28.016Z</time></trkpt><trkpt lat="44.5271317" lon="9.3905883"><ele>698.6666666666666</ele><time>2026-03-28T15:51:29.016Z</time></trkpt><trkpt lat="44.5271617" lon="9.3908083"><ele>689.0</ele><time>2026-03-28T15:51:30.016Z</time></trkpt><trkpt lat="44.5271883" lon="9.391025"><ele>689.0</ele><time>2026-03-28T15:51:31.016Z</time></trkpt><trkpt lat="44.5272617" lon="9.3912567"><ele>689.0</ele><time>2026-03-28T15:51:32.016Z</time></trkpt><trkpt lat="44.52726" lon="9.3914683"><ele>689.0</ele><time>2026-03-28T15:51:33.016Z</time></trkpt><trkpt lat="44.5272583" lon="9.3916683"><ele>689.25</ele><time>2026-03-28T15:51:34.016Z</time></trkpt><trkpt lat="44.5272667" lon="9.3918633"><ele>689.5</ele><time>2026-03-28T15:51:35.016Z</time></trkpt><trkpt lat="44.5272883" lon="9.39204"><ele>689.75</ele><time>2026-03-28T15:51:36.015Z</time></trkpt><trkpt lat="44.5273283" lon="9.3922267"><ele>690.0</ele><time>2026-03-28T15:51:37.016Z</time></trkpt><trkpt lat="44.527385" lon="9.39241"><ele>690.0</ele><time>2026-03-28T15:51:38.015Z</time></trkpt><trkpt lat="44.527465" lon="9.3925917"><ele>690.0</ele><time>2026-03-28T15:51:39.016Z</time></trkpt><trkpt lat="44.5275467" lon="9.3927683"><ele>690.0</ele><time>2026-03-28T15:51:40.016Z</time></trkpt><trkpt lat="44.5276267" lon="9.392945"><ele>688.0</ele><time>2026-03-28T15:51:41.016Z</time></trkpt><trkpt lat="44.527715" lon="9.3931083"><ele>686.0</ele><time>2026-03-28T15:51:42.016Z</time></trkpt><trkpt lat="44.5278267" lon="9.3932567"><ele>684.0</ele><time>2026-03-28T15:51:43.016Z</time></trkpt><trkpt lat="44.5279533" lon="9.3933917"><ele>684.0</ele><time>2026-03-28T15:51:44.015Z</time></trkpt><trkpt lat="44.5280817" lon="9.3935183"><ele>684.0</ele><time>2026-03-28T15:51:45.016Z</time></trkpt><trkpt lat="44.5282233" lon="9.3936267"><ele>684.0</ele><time>2026-03-28T15:51:46.016Z</time></trkpt><trkpt lat="44.5283767" lon="9.3937033"><ele>684.0</ele><time>2026-03-28T15:51:47.016Z</time></trkpt><trkpt lat="44.52853" lon="9.3937617"><ele>684.0</ele><time>2026-03-28T15:51:48.015Z</time></trkpt><trkpt lat="44.5286917" lon="9.3938167"><ele>684.0</ele><time>2026-03-28T15:51:49.016Z</time></trkpt><trkpt lat="44.52885" lon="9.393875"><ele>683.3333333333334</ele><time>2026-03-28T15:51:50.016Z</time></trkpt><trkpt lat="44.5290067" lon="9.3939417"><ele>682.6666666666667</ele><time>2026-03-28T15:51:51.015Z</time></trkpt><trkpt lat="44.5291583" lon="9.3940067"><ele>682.0</ele><time>2026-03-28T15:51:52.016Z</time></trkpt><trkpt lat="44.5292883" lon="9.394075"><ele>682.0</ele><time>2026-03-28T15:51:53.015Z</time></trkpt><trkpt lat="44.5293833" lon="9.3941417"><ele>682.0</ele><time>2026-03-28T15:51:54.016Z</time></trkpt><trkpt lat="44.52947" lon="9.394195"><ele>682.0</ele><time>2026-03-28T15:51:55.015Z</time></trkpt><trkpt lat="44.5295417" lon="9.3942783"><ele>682.0</ele><time>2026-03-28T15:51:56.016Z</time></trkpt><trkpt lat="44.52961" lon="9.3943833"><ele>682.0</ele><time>2026-03-28T15:51:57.016Z</time></trkpt><trkpt lat="44.529675" lon="9.394495"><ele>682.0</ele><time>2026-03-28T15:51:58.015Z</time></trkpt><trkpt lat="44.5297417" lon="9.394625"><ele>682.0</ele><time>2026-03-28T15:51:59.016Z</time></trkpt><trkpt lat="44.5298117" lon="9.3947583"><ele>682.0</ele><time>2026-03-28T15:52:00.016Z</time></trkpt><trkpt lat="44.5298933" lon="9.3949"><ele>682.0</ele><time>2026-03-28T15:52:01.016Z</time></trkpt><trkpt lat="44.5299833" lon="9.395045"><ele>682.0</ele><time>2026-03-28T15:52:02.016Z</time></trkpt><trkpt lat="44.5300783" lon="9.3952"><ele>682.0</ele><time>2026-03-28T15:52:03.016Z</time></trkpt><trkpt lat="44.5301767" lon="9.3953583"><ele>682.0</ele><time>2026-03-28T15:52:04.016Z</time></trkpt><trkpt lat="44.5302767" lon="9.3955233"><ele>681.6666666666667</ele><time>2026-03-28T15:52:05.016Z</time></trkpt><trkpt lat="44.5303783" lon="9.3956967"><ele>681.3333333333334</ele><time>2026-03-28T15:52:06.015Z</time></trkpt><trkpt lat="44.5304817" lon="9.3958667"><ele>681.0</ele><time>2026-03-28T15:52:07.015Z</time></trkpt><trkpt lat="44.5305833" lon="9.3960333"><ele>681.0</ele><time>2026-03-28T15:52:08.016Z</time></trkpt><trkpt lat="44.5306767" lon="9.3962033"><ele>681.0</ele><time>2026-03-28T15:52:09.016Z</time></trkpt><trkpt lat="44.530775" lon="9.3963933"><ele>681.0</ele><time>2026-03-28T15:52:10.015Z</time></trkpt><trkpt lat="44.5308433" lon="9.3966017"><ele>682.0</ele><time>2026-03-28T15:52:11.016Z</time></trkpt><trkpt lat="44.5308883" lon="9.396805"><ele>683.0</ele><time>2026-03-28T15:52:12.016Z</time></trkpt><trkpt lat="44.5309183" lon="9.397035"><ele>684.0</ele><time>2026-03-28T15:52:13.016Z</time></trkpt><trkpt lat="44.53092" lon="9.3972867"><ele>686.0</ele><time>2026-03-28T15:52:14.016Z</time></trkpt><trkpt lat="44.530955" lon="9.3975"><ele>688.0</ele><time>2026-03-28T15:52:15.016Z</time></trkpt><trkpt lat="44.53098" lon="9.3977117"><ele>690.0</ele><time>2026-03-28T15:52:16.016Z</time></trkpt><trkpt lat="44.531" lon="9.3979067"><ele>692.0</ele><time>2026-03-28T15:52:17.016Z</time></trkpt><trkpt lat="44.5310183" lon="9.3980833"><ele>692.25</ele><time>2026-03-28T15:52:18.015Z</time></trkpt><trkpt lat="44.531045" lon="9.3982617"><ele>692.5</ele><time>2026-03-28T15:52:19.016Z</time></trkpt><trkpt lat="44.5310233" lon="9.39842"><ele>692.75</ele><time>2026-03-28T15:52:20.016Z</time></trkpt><trkpt lat="44.5309667" lon="9.39858"><ele>693.0</ele><time>2026-03-28T15:52:21.015Z</time></trkpt><trkpt lat="44.5309017" lon="9.39873"><ele>691.25</ele><time>2026-03-28T15:52:22.016Z</time></trkpt><trkpt lat="44.5308267" lon="9.39889"><ele>689.5</ele><time>2026-03-28T15:52:23.016Z</time></trkpt><trkpt lat="44.5307533" lon="9.3990583"><ele>687.75</ele><time>2026-03-28T15:52:24.015Z</time></trkpt><trkpt lat="44.53068" lon="9.399225"><ele>686.0</ele><time>2026-03-28T15:52:25.016Z</time></trkpt><trkpt lat="44.5306117" lon="9.399385"><ele>686.0</ele><time>2026-03-28T15:52:26.016Z</time></trkpt><trkpt lat="44.53056" lon="9.3995667"><ele>686.0</ele><time>2026-03-28T15:52:27.016Z</time></trkpt><trkpt lat="44.5305217" lon="9.3997583"><ele>686.0</ele><time>2026-03-28T15:52:28.016Z</time></trkpt><trkpt lat="44.530535" lon="9.3999567"><ele>686.0</ele><time>2026-03-28T15:52:29.016Z</time></trkpt><trkpt lat="44.5305383" lon="9.4001517"><ele>685.25</ele><time>2026-03-28T15:52:30.015Z</time></trkpt><trkpt lat="44.5305433" lon="9.400355"><ele>684.5</ele><time>2026-03-28T15:52:31.016Z</time></trkpt><trkpt lat="44.5305633" lon="9.40056"><ele>683.75</ele><time>2026-03-28T15:52:32.016Z</time></trkpt><trkpt lat="44.5305833" lon="9.400775"><ele>683.0</ele><time>2026-03-28T15:52:33.015Z</time></trkpt><trkpt lat="44.530615" lon="9.4009967"><ele>683.0</ele><time>2026-03-28T15:52:34.016Z</time></trkpt><trkpt lat="44.53065" lon="9.4012233"><ele>683.0</ele><time>2026-03-28T15:52:35.016Z</time></trkpt><trkpt lat="44.5306833" lon="9.401455"><ele>683.0</ele><time>2026-03-28T15:52:36.016Z</time></trkpt><trkpt lat="44.5307167" lon="9.40169"><ele>683.0</ele><time>2026-03-28T15:52:37.016Z</time></trkpt><trkpt lat="44.5307583" lon="9.4019317"><ele>683.0</ele><time>2026-03-28T15:52:38.016Z</time></trkpt><trkpt lat="44.5307917" lon="9.4021733"><ele>683.0</ele><time>2026-03-28T15:52:39.016Z</time></trkpt><trkpt lat="44.5308217" lon="9.402415"><ele>684.0</ele><time>2026-03-28T15:52:40.016Z</time></trkpt><trkpt lat="44.53085" lon="9.4026483"><ele>685.0</ele><time>2026-03-28T15:52:41.016Z</time></trkpt><trkpt lat="44.53088" lon="9.40288"><ele>686.0</ele><time>2026-03-28T15:52:42.016Z</time></trkpt><trkpt lat="44.5309133" lon="9.4031133"><ele>689.0</ele><time>2026-03-28T15:52:43.015Z</time></trkpt><trkpt lat="44.5309383" lon="9.40334"><ele>692.0</ele><time>2026-03-28T15:52:44.016Z</time></trkpt><trkpt lat="44.5309833" lon="9.403555"><ele>695.0</ele><time>2026-03-28T15:52:45.015Z</time></trkpt><trkpt lat="44.5310183" lon="9.4037567"><ele>698.0</ele><time>2026-03-28T15:52:46.016Z</time></trkpt><trkpt lat="44.5310617" lon="9.403955"><ele>701.0</ele><time>2026-03-28T15:52:47.015Z</time></trkpt><trkpt lat="44.53112" lon="9.4041283"><ele>704.0</ele><time>2026-03-28T15:52:48.016Z</time></trkpt><trkpt lat="44.5312017" lon="9.4042833"><ele>707.0</ele><time>2026-03-28T15:52:49.016Z</time></trkpt><trkpt lat="44.5312967" lon="9.40443"><ele>702.3333333333333</ele><time>2026-03-28T15:52:50.016Z</time></trkpt><trkpt lat="44.5314083" lon="9.40458"><ele>697.6666666666666</ele><time>2026-03-28T15:52:51.016Z</time></trkpt><trkpt lat="44.5315267" lon="9.4047283"><ele>693.0</ele><time>2026-03-28T15:52:52.016Z</time></trkpt><trkpt lat="44.5316233" lon="9.404885"><ele>693.0</ele><time>2026-03-28T15:52:53.015Z</time></trkpt><trkpt lat="44.531715" lon="9.4050417"><ele>693.0</ele><time>2026-03-28T15:52:54.016Z</time></trkpt><trkpt lat="44.53181" lon="9.405185"><ele>693.0</ele><time>2026-03-28T15:52:55.016Z</time></trkpt><trkpt lat="44.53191" lon="9.4053067"><ele>693.0</ele><time>2026-03-28T15:52:56.015Z</time></trkpt><trkpt lat="44.5320217" lon="9.40541"><ele>694.5</ele><time>2026-03-28T15:52:57.016Z</time></trkpt><trkpt lat="44.532145" lon="9.4055017"><ele>696.0</ele><time>2026-03-28T15:52:58.016Z</time></trkpt><trkpt lat="44.5322867" lon="9.4055767"><ele>697.5</ele><time>2026-03-28T15:52:59.016Z</time></trkpt><trkpt lat="44.5324133" lon="9.40566"><ele>699.0</ele><time>2026-03-28T15:53:00.015Z</time></trkpt><trkpt lat="44.53254" lon="9.4057367"><ele>699.0</ele><time>2026-03-28T15:53:01.015Z</time></trkpt><trkpt lat="44.5326883" lon="9.4058033"><ele>699.0</ele><time>2026-03-28T15:53:02.016Z</time></trkpt><trkpt lat="44.5328533" lon="9.4058333"><ele>699.0</ele><time>2026-03-28T15:53:03.016Z</time></trkpt><trkpt lat="44.5330083" lon="9.4058783"><ele>693.3333333333334</ele><time>2026-03-28T15:53:04.016Z</time></trkpt><trkpt lat="44.53316" lon="9.40593"><ele>687.6666666666667</ele><time>2026-03-28T15:53:05.015Z</time></trkpt><trkpt lat="44.53331" lon="9.40598"><ele>682.0</ele><time>2026-03-28T15:53:06.015Z</time></trkpt><trkpt lat="44.5334533" lon="9.4060333"><ele>682.0</ele><time>2026-03-28T15:53:07.016Z</time></trkpt><trkpt lat="44.5335917" lon="9.4060767"><ele>682.0</ele><time>2026-03-28T15:53:08.016Z</time></trkpt><trkpt lat="44.5337133" lon="9.4061083"><ele>682.0</ele><time>2026-03-28T15:53:09.016Z</time></trkpt><trkpt lat="44.5338133" lon="9.4061433"><ele>682.0</ele><time>2026-03-28T15:53:10.016Z</time></trkpt><trkpt lat="44.5338917" lon="9.4062083"><ele>680.6</ele><time>2026-03-28T15:53:11.016Z</time></trkpt><trkpt lat="44.5339467" lon="9.406305"><ele>679.2</ele><time>2026-03-28T15:53:12.015Z</time></trkpt><trkpt lat="44.5339817" lon="9.4064233"><ele>677.8</ele><time>2026-03-28T15:53:13.016Z</time></trkpt><trkpt lat="44.5339917" lon="9.4065867"><ele>676.4</ele><time>2026-03-28T15:53:14.016Z</time></trkpt><trkpt lat="44.534" lon="9.406755"><ele>675.0</ele><time>2026-03-28T15:53:15.016Z</time></trkpt><trkpt lat="44.5340233" lon="9.4069317"><ele>675.0</ele><time>2026-03-28T15:53:16.015Z</time></trkpt><trkpt lat="44.534045" lon="9.4071017"><ele>675.0</ele><time>2026-03-28T15:53:17.015Z</time></trkpt><trkpt lat="44.5340717" lon="9.407295"><ele>675.0</ele><time>2026-03-28T15:53:18.015Z</time></trkpt><trkpt lat="44.5341" lon="9.4074883"><ele>675.0</ele><time>2026-03-28T15:53:19.016Z</time></trkpt><trkpt lat="44.53412" lon="9.4076567"><ele>674.8</ele><time>2026-03-28T15:53:20.016Z</time></trkpt><trkpt lat="44.5341583" lon="9.4078"><ele>674.6</ele><time>2026-03-28T15:53:21.015Z</time></trkpt><trkpt lat="44.5342117" lon="9.4079233"><ele>674.4000000000001</ele><time>2026-03-28T15:53:22.016Z</time></trkpt><trkpt lat="44.5342717" lon="9.408015"><ele>674.2</ele><time>2026-03-28T15:53:23.016Z</time></trkpt><trkpt lat="44.5343533" lon="9.4080883"><ele>674.0</ele><time>2026-03-28T15:53:24.016Z</time></trkpt><trkpt lat="44.534455" lon="9.4081233"><ele>675.5</ele><time>2026-03-28T15:53:25.016Z</time></trkpt><trkpt lat="44.5345683" lon="9.4081133"><ele>677.0</ele><time>2026-03-28T15:53:26.016Z</time></trkpt><trkpt lat="44.5346867" lon="9.40808"><ele>678.5</ele><time>2026-03-28T15:53:27.016Z</time></trkpt><trkpt lat="44.5348033" lon="9.408035"><ele>680.0</ele><time>2026-03-28T15:53:28.016Z</time></trkpt><trkpt lat="44.5349217" lon="9.4079383"><ele>680.0</ele><time>2026-03-28T15:53:29.016Z</time></trkpt><trkpt lat="44.53505" lon="9.4078217"><ele>680.0</ele><time>2026-03-28T15:53:30.016Z</time></trkpt><trkpt lat="44.5351683" lon="9.4077233"><ele>680.0</ele><time>2026-03-28T15:53:31.016Z</time></trkpt><trkpt lat="44.5352767" lon="9.4076067"><ele>680.0</ele><time>2026-03-28T15:53:32.016Z</time></trkpt><trkpt lat="44.5353883" lon="9.407475"><ele>678.75</ele><time>2026-03-28T15:53:33.015Z</time></trkpt><trkpt lat="44.5354967" lon="9.4073517"><ele>677.5</ele><time>2026-03-28T15:53:34.015Z</time></trkpt><trkpt lat="44.5355983" lon="9.4072417"><ele>676.25</ele><time>2026-03-28T15:53:35.016Z</time></trkpt><trkpt lat="44.5356967" lon="9.4071567"><ele>675.0</ele><time>2026-03-28T15:53:36.016Z</time></trkpt><trkpt lat="44.5357967" lon="9.407105"><ele>675.0</ele><time>2026-03-28T15:53:37.016Z</time></trkpt><trkpt lat="44.5358967" lon="9.4070917"><ele>675.0</ele><time>2026-03-28T15:53:38.016Z</time></trkpt><trkpt lat="44.535985" lon="9.407125"><ele>675.0</ele><time>2026-03-28T15:53:39.016Z</time></trkpt><trkpt lat="44.5360717" lon="9.4071783"><ele>675.0</ele><time>2026-03-28T15:53:40.015Z</time></trkpt><trkpt lat="44.53616" lon="9.40729"><ele>675.0</ele><time>2026-03-28T15:53:41.016Z</time></trkpt><trkpt lat="44.536255" lon="9.4074117"><ele>677.5</ele><time>2026-03-28T15:53:42.016Z</time></trkpt><trkpt lat="44.5363533" lon="9.407525"><ele>680.0</ele><time>2026-03-28T15:53:43.016Z</time></trkpt><trkpt lat="44.536465" lon="9.4075883"><ele>682.5</ele><time>2026-03-28T15:53:44.016Z</time></trkpt><trkpt lat="44.53659" lon="9.4076217"><ele>685.0</ele><time>2026-03-28T15:53:45.016Z</time></trkpt><trkpt lat="44.5367217" lon="9.4076133"><ele>685.0</ele><time>2026-03-28T15:53:46.016Z</time></trkpt><trkpt lat="44.5368567" lon="9.40757"><ele>685.0</ele><time>2026-03-28T15:53:47.016Z</time></trkpt><trkpt lat="44.5369883" lon="9.4074883"><ele>685.0</ele><time>2026-03-28T15:53:48.016Z</time></trkpt><trkpt lat="44.5371267" lon="9.4073783"><ele>685.0</ele><time>2026-03-28T15:53:49.016Z</time></trkpt><trkpt lat="44.5372517" lon="9.4072683"><ele>682.0</ele><time>2026-03-28T15:53:50.016Z</time></trkpt><trkpt lat="44.5373783" lon="9.40715"><ele>679.0</ele><time>2026-03-28T15:53:51.016Z</time></trkpt><trkpt lat="44.5375" lon="9.4070367"><ele>676.0</ele><time>2026-03-28T15:53:52.015Z</time></trkpt><trkpt lat="44.5376183" lon="9.4069217"><ele>673.0</ele><time>2026-03-28T15:53:53.016Z</time></trkpt><trkpt lat="44.5377283" lon="9.4068067"><ele>673.0</ele><time>2026-03-28T15:53:54.016Z</time></trkpt><trkpt lat="44.5378367" lon="9.4067133"><ele>673.0</ele><time>2026-03-28T15:53:55.016Z</time></trkpt><trkpt lat="44.5379417" lon="9.4066533"><ele>673.0</ele><time>2026-03-28T15:53:56.016Z</time></trkpt><trkpt lat="44.5380433" lon="9.40664"><ele>673.0</ele><time>2026-03-28T15:53:57.015Z</time></trkpt><trkpt lat="44.5381467" lon="9.406675"><ele>673.0</ele><time>2026-03-28T15:53:58.015Z</time></trkpt><trkpt lat="44.53823" lon="9.4067767"><ele>673.5</ele><time>2026-03-28T15:53:59.016Z</time></trkpt><trkpt lat="44.5382933" lon="9.4069117"><ele>674.0</ele><time>2026-03-28T15:54:00.016Z</time></trkpt><trkpt lat="44.5383283" lon="9.407085"><ele>674.5</ele><time>2026-03-28T15:54:01.016Z</time></trkpt><trkpt lat="44.5383633" lon="9.40726"><ele>675.0</ele><time>2026-03-28T15:54:02.016Z</time></trkpt><trkpt lat="44.5383983" lon="9.4074533"><ele>677.0</ele><time>2026-03-28T15:54:03.016Z</time></trkpt><trkpt lat="44.5384383" lon="9.4076317"><ele>679.0</ele><time>2026-03-28T15:54:04.016Z</time></trkpt><trkpt lat="44.53848" lon="9.4077683"><ele>681.0</ele><time>2026-03-28T15:54:05.016Z</time></trkpt><trkpt lat="44.53853" lon="9.4078917"><ele>683.0</ele><time>2026-03-28T15:54:06.016Z</time></trkpt><trkpt lat="44.5385767" lon="9.4079783"><ele>685.0</ele><time>2026-03-28T15:54:07.016Z</time></trkpt><trkpt lat="44.5386633" lon="9.40805"><ele>683.8</ele><time>2026-03-28T15:54:08.016Z</time></trkpt><trkpt lat="44.5387683" lon="9.408075"><ele>682.6</ele><time>2026-03-28T15:54:09.015Z</time></trkpt><trkpt lat="44.538865" lon="9.4080833"><ele>681.4000000000001</ele><time>2026-03-28T15:54:10.015Z</time></trkpt><trkpt lat="44.5389567" lon="9.4080133"><ele>680.2</ele><time>2026-03-28T15:54:11.016Z</time></trkpt><trkpt lat="44.5390467" lon="9.4079267"><ele>679.0</ele><time>2026-03-28T15:54:12.016Z</time></trkpt><trkpt lat="44.5391367" lon="9.4078617"><ele>679.0</ele><time>2026-03-28T15:54:13.016Z</time></trkpt><trkpt lat="44.5392467" lon="9.4078617"><ele>679.0</ele><time>2026-03-28T15:54:14.016Z</time></trkpt><trkpt lat="44.539365" lon="9.4078967"><ele>679.0</ele><time>2026-03-28T15:54:15.016Z</time></trkpt><trkpt lat="44.539485" lon="9.4079767"><ele>679.0</ele><time>2026-03-28T15:54:16.016Z</time></trkpt><trkpt lat="44.5396117" lon="9.4080667"><ele>682.0</ele><time>2026-03-28T15:54:17.016Z</time></trkpt><trkpt lat="44.5397367" lon="9.408165"><ele>685.0</ele><time>2026-03-28T15:54:18.016Z</time></trkpt><trkpt lat="44.5398567" lon="9.408265"><ele>688.0</ele><time>2026-03-28T15:54:19.016Z</time></trkpt><trkpt lat="44.53999" lon="9.4083567"><ele>691.0</ele><time>2026-03-28T15:54:20.016Z</time></trkpt><trkpt lat="44.540115" lon="9.40843"><ele>691.0</ele><time>2026-03-28T15:54:21.016Z</time></trkpt><trkpt lat="44.5402583" lon="9.408485"><ele>691.0</ele><time>2026-03-28T15:54:22.016Z</time></trkpt><trkpt lat="44.5404167" lon="9.408535"><ele>691.0</ele><time>2026-03-28T15:54:23.016Z</time></trkpt><trkpt lat="44.5405833" lon="9.408575"><ele>686.3333333333334</ele><time>2026-03-28T15:54:24.016Z</time></trkpt><trkpt lat="44.5407533" lon="9.4085967"><ele>681.6666666666666</ele><time>2026-03-28T15:54:25.016Z</time></trkpt><trkpt lat="44.540925" lon="9.408625"><ele>677.0</ele><time>2026-03-28T15:54:26.016Z</time></trkpt><trkpt lat="44.5410933" lon="9.4086583"><ele>678.3333333333333</ele><time>2026-03-28T15:54:27.016Z</time></trkpt><trkpt lat="44.541265" lon="9.408665"><ele>679.6666666666666</ele><time>2026-03-28T15:54:28.016Z</time></trkpt><trkpt lat="44.54143" lon="9.4086483"><ele>681.0</ele><time>2026-03-28T15:54:29.016Z</time></trkpt><trkpt lat="44.5415867" lon="9.4086167"><ele>681.0</ele><time>2026-03-28T15:54:30.016Z</time></trkpt><trkpt lat="44.5417433" lon="9.4085583"><ele>681.0</ele><time>2026-03-28T15:54:31.015Z</time></trkpt><trkpt lat="44.5418967" lon="9.4084833"><ele>681.0</ele><time>2026-03-28T15:54:32.016Z</time></trkpt><trkpt lat="44.5420517" lon="9.40838"><ele>686.0</ele><time>2026-03-28T15:54:33.016Z</time></trkpt><trkpt lat="44.5421933" lon="9.4082667"><ele>691.0</ele><time>2026-03-28T15:54:34.015Z</time></trkpt><trkpt lat="44.5423317" lon="9.4081383"><ele>696.0</ele><time>2026-03-28T15:54:35.016Z</time></trkpt><trkpt lat="44.5424733" lon="9.4080317"><ele>689.0</ele><time>2026-03-28T15:54:36.016Z</time></trkpt><trkpt lat="44.5426267" lon="9.4079383"><ele>682.0</ele><time>2026-03-28T15:54:37.015Z</time></trkpt><trkpt lat="44.542795" lon="9.4078617"><ele>675.0</ele><time>2026-03-28T15:54:38.016Z</time></trkpt><trkpt lat="44.542965" lon="9.40781"><ele>675.0</ele><time>2026-03-28T15:54:39.016Z</time></trkpt><trkpt lat="44.5431383" lon="9.4077567"><ele>675.0</ele><time>2026-03-28T15:54:40.016Z</time></trkpt><trkpt lat="44.5433133" lon="9.40772"><ele>675.0</ele><time>2026-03-28T15:54:41.016Z</time></trkpt><trkpt lat="44.543485" lon="9.407675"><ele>675.0</ele><time>2026-03-28T15:54:42.016Z</time></trkpt><trkpt lat="44.5436267" lon="9.4076267"><ele>675.0</ele><time>2026-03-28T15:54:43.016Z</time></trkpt><trkpt lat="44.5437617" lon="9.4075583"><ele>675.0</ele><time>2026-03-28T15:54:44.016Z</time></trkpt><trkpt lat="44.5438683" lon="9.4074967"><ele>675.0</ele><time>2026-03-28T15:54:45.016Z</time></trkpt><trkpt lat="44.54396" lon="9.4074"><ele>676.25</ele><time>2026-03-28T15:54:46.016Z</time></trkpt><trkpt lat="44.544035" lon="9.407265"><ele>677.5</ele><time>2026-03-28T15:54:47.016Z</time></trkpt><trkpt lat="44.54409" lon="9.4071033"><ele>678.75</ele><time>2026-03-28T15:54:48.016Z</time></trkpt><trkpt lat="44.5441483" lon="9.4069517"><ele>680.0</ele><time>2026-03-28T15:54:49.016Z</time></trkpt><trkpt lat="44.54422" lon="9.4068217"><ele>680.0</ele><time>2026-03-28T15:54:50.016Z</time></trkpt><trkpt lat="44.544305" lon="9.4066917"><ele>680.0</ele><time>2026-03-28T15:54:51.016Z</time></trkpt><trkpt lat="44.5444" lon="9.4065667"><ele>680.0</ele><time>2026-03-28T15:54:52.016Z</time></trkpt><trkpt lat="44.5445033" lon="9.4064783"><ele>680.0</ele><time>2026-03-28T15:54:53.016Z</time></trkpt><trkpt lat="44.5446083" lon="9.4064017"><ele>679.5</ele><time>2026-03-28T15:54:54.015Z</time></trkpt><trkpt lat="44.5447317" lon="9.4063567"><ele>679.0</ele><time>2026-03-28T15:54:55.016Z</time></trkpt><trkpt lat="44.5448667" lon="9.4063267"><ele>678.5</ele><time>2026-03-28T15:54:56.016Z</time></trkpt><trkpt lat="44.5449967" lon="9.4063033"><ele>678.0</ele><time>2026-03-28T15:54:57.016Z</time></trkpt><trkpt lat="44.5451233" lon="9.406275"><ele>678.0</ele><time>2026-03-28T15:54:58.016Z</time></trkpt><trkpt lat="44.54524" lon="9.406255"><ele>678.0</ele><time>2026-03-28T15:54:59.016Z</time></trkpt><trkpt lat="44.5453567" lon="9.4062417"><ele>678.0</ele><time>2026-03-28T15:55:00.016Z</time></trkpt><trkpt lat="44.5454517" lon="9.4062567"><ele>678.0</ele><time>2026-03-28T15:55:01.016Z</time></trkpt><trkpt lat="44.545545" lon="9.406295"><ele>678.0</ele><time>2026-03-28T15:55:02.016Z</time></trkpt><trkpt lat="44.5456517" lon="9.4063633"><ele>680.75</ele><time>2026-03-28T15:55:03.015Z</time></trkpt><trkpt lat="44.5457583" lon="9.4064367"><ele>683.5</ele><time>2026-03-28T15:55:04.016Z</time></trkpt><trkpt lat="44.5458767" lon="9.40652"><ele>686.25</ele><time>2026-03-28T15:55:05.016Z</time></trkpt><trkpt lat="44.5459967" lon="9.406615"><ele>689.0</ele><time>2026-03-28T15:55:06.016Z</time></trkpt><trkpt lat="44.54612" lon="9.4067183"><ele>684.75</ele><time>2026-03-28T15:55:07.015Z</time></trkpt><trkpt lat="44.5462367" lon="9.4068233"><ele>680.5</ele><time>2026-03-28T15:55:08.016Z</time></trkpt><trkpt lat="44.5463633" lon="9.4068867"><ele>676.25</ele><time>2026-03-28T15:55:09.016Z</time></trkpt><trkpt lat="44.54648" lon="9.4069683"><ele>672.0</ele><time>2026-03-28T15:55:10.015Z</time></trkpt><trkpt lat="44.54657" lon="9.4070883"><ele>675.5</ele><time>2026-03-28T15:55:11.016Z</time></trkpt><trkpt lat="44.5466467" lon="9.407245"><ele>679.0</ele><time>2026-03-28T15:55:12.015Z</time></trkpt><trkpt lat="44.5467117" lon="9.407425"><ele>682.5</ele><time>2026-03-28T15:55:13.016Z</time></trkpt><trkpt lat="44.5467567" lon="9.4076117"><ele>686.0</ele><time>2026-03-28T15:55:14.016Z</time></trkpt><trkpt lat="44.5468267" lon="9.4077983"><ele>686.0</ele><time>2026-03-28T15:55:15.016Z</time></trkpt><trkpt lat="44.5469217" lon="9.4079567"><ele>686.0</ele><time>2026-03-28T15:55:16.016Z</time></trkpt><trkpt lat="44.54705" lon="9.4080833"><ele>686.0</ele><time>2026-03-28T15:55:17.016Z</time></trkpt><trkpt lat="44.5471833" lon="9.408195"><ele>682.6666666666666</ele><time>2026-03-28T15:55:18.016Z</time></trkpt><trkpt lat="44.547305" lon="9.4083233"><ele>679.3333333333334</ele><time>2026-03-28T15:55:19.016Z</time></trkpt><trkpt lat="44.5474083" lon="9.408475"><ele>676.0</ele><time>2026-03-28T15:55:20.016Z</time></trkpt><trkpt lat="44.5475017" lon="9.4086383"><ele>676.0</ele><time>2026-03-28T15:55:21.016Z</time></trkpt><trkpt lat="44.5475917" lon="9.408805"><ele>676.0</ele><time>2026-03-28T15:55:22.016Z</time></trkpt><trkpt lat="44.5476833" lon="9.4089567"><ele>676.0</ele><time>2026-03-28T15:55:23.016Z</time></trkpt><trkpt lat="44.54779" lon="9.4090767"><ele>676.0</ele><time>2026-03-28T15:55:24.016Z</time></trkpt><trkpt lat="44.5479067" lon="9.4091883"><ele>674.75</ele><time>2026-03-28T15:55:25.016Z</time></trkpt><trkpt lat="44.5480183" lon="9.4093033"><ele>673.5</ele><time>2026-03-28T15:55:26.015Z</time></trkpt><trkpt lat="44.54814" lon="9.4094167"><ele>672.25</ele><time>2026-03-28T15:55:27.016Z</time></trkpt><trkpt lat="44.5482817" lon="9.4095183"><ele>671.0</ele><time>2026-03-28T15:55:28.016Z</time></trkpt><trkpt lat="44.54841" lon="9.4096067"><ele>671.0</ele><time>2026-03-28T15:55:29.016Z</time></trkpt><trkpt lat="44.5485367" lon="9.4096467"><ele>671.0</ele><time>2026-03-28T15:55:30.016Z</time></trkpt><trkpt lat="44.5486683" lon="9.40965"><ele>671.0</ele><time>2026-03-28T15:55:31.016Z</time></trkpt><trkpt lat="44.548795" lon="9.4096583"><ele>671.0</ele><time>2026-03-28T15:55:32.016Z</time></trkpt><trkpt lat="44.5489233" lon="9.409685"><ele>674.0</ele><time>2026-03-28T15:55:33.016Z</time></trkpt><trkpt lat="44.5490283" lon="9.409795"><ele>677.0</ele><time>2026-03-28T15:55:34.016Z</time></trkpt><trkpt lat="44.5491367" lon="9.4099"><ele>680.0</ele><time>2026-03-28T15:55:35.016Z</time></trkpt><trkpt lat="44.5492367" lon="9.4099883"><ele>683.0</ele><time>2026-03-28T15:55:36.016Z</time></trkpt><trkpt lat="44.5493283" lon="9.4100833"><ele>683.0</ele><time>2026-03-28T15:55:37.015Z</time></trkpt><trkpt lat="44.549395" lon="9.4102067"><ele>683.0</ele><time>2026-03-28T15:55:38.016Z</time></trkpt><trkpt lat="44.549455" lon="9.4103467"><ele>683.0</ele><time>2026-03-28T15:55:39.016Z</time></trkpt><trkpt lat="44.549505" lon="9.4104933"><ele>683.0</ele><time>2026-03-28T15:55:40.016Z</time></trkpt><trkpt lat="44.5495667" lon="9.4106433"><ele>681.0</ele><time>2026-03-28T15:55:41.016Z</time></trkpt><trkpt lat="44.54963" lon="9.4108017"><ele>679.0</ele><time>2026-03-28T15:55:42.016Z</time></trkpt><trkpt lat="44.5496933" lon="9.4109617"><ele>677.0</ele><time>2026-03-28T15:55:43.016Z</time></trkpt><trkpt lat="44.549755" lon="9.4111183"><ele>675.0</ele><time>2026-03-28T15:55:44.016Z</time></trkpt><trkpt lat="44.5498317" lon="9.4112483"><ele>681.25</ele><time>2026-03-28T15:55:45.016Z</time></trkpt><trkpt lat="44.5499167" lon="9.4113517"><ele>687.5</ele><time>2026-03-28T15:55:46.015Z</time></trkpt><trkpt lat="44.550025" lon="9.4114333"><ele>693.75</ele><time>2026-03-28T15:55:47.016Z</time></trkpt><trkpt lat="44.550145" lon="9.411495"><ele>700.0</ele><time>2026-03-28T15:55:48.016Z</time></trkpt><trkpt lat="44.5502817" lon="9.4115533"><ele>694.25</ele><time>2026-03-28T15:55:49.016Z</time></trkpt><trkpt lat="44.5504183" lon="9.4116"><ele>688.5</ele><time>2026-03-28T15:55:50.016Z</time></trkpt><trkpt lat="44.5505467" lon="9.4116567"><ele>682.75</ele><time>2026-03-28T15:55:51.016Z</time></trkpt><trkpt lat="44.5507033" lon="9.41174"><ele>677.0</ele><time>2026-03-28T15:55:52.015Z</time></trkpt><trkpt lat="44.550825" lon="9.4118483"><ele>677.0</ele><time>2026-03-28T15:55:53.016Z</time></trkpt><trkpt lat="44.5509383" lon="9.4119683"><ele>677.0</ele><time>2026-03-28T15:55:54.016Z</time></trkpt><trkpt lat="44.55106" lon="9.4120533"><ele>677.0</ele><time>2026-03-28T15:55:55.016Z</time></trkpt><trkpt lat="44.55117" lon="9.4121217"><ele>677.0</ele><time>2026-03-28T15:55:56.015Z</time></trkpt><trkpt lat="44.5512817" lon="9.4121717"><ele>682.25</ele><time>2026-03-28T15:55:57.016Z</time></trkpt><trkpt lat="44.5513867" lon="9.4122183"><ele>687.5</ele><time>2026-03-28T15:55:58.016Z</time></trkpt><trkpt lat="44.5515017" lon="9.4122417"><ele>692.75</ele><time>2026-03-28T15:55:59.016Z</time></trkpt><trkpt lat="44.5516117" lon="9.4122483"><ele>698.0</ele><time>2026-03-28T15:56:00.016Z</time></trkpt><trkpt lat="44.5517233" lon="9.4122033"><ele>693.8</ele><time>2026-03-28T15:56:01.017Z</time></trkpt><trkpt lat="44.5518017" lon="9.4121283"><ele>689.5999999999999</ele><time>2026-03-28T15:56:02.017Z</time></trkpt><trkpt lat="44.5518683" lon="9.4120133"><ele>685.4000000000001</ele><time>2026-03-28T15:56:03.017Z</time></trkpt><trkpt lat="44.5519117" lon="9.411865"><ele>681.2</ele><time>2026-03-28T15:56:04.017Z</time></trkpt><trkpt lat="44.55194" lon="9.41173"><ele>677.0</ele><time>2026-03-28T15:56:05.017Z</time></trkpt><trkpt lat="44.5519683" lon="9.411605"><ele>677.0</ele><time>2026-03-28T15:56:06.017Z</time></trkpt><trkpt lat="44.5520233" lon="9.4115017"><ele>677.0</ele><time>2026-03-28T15:56:07.016Z</time></trkpt><trkpt lat="44.5521067" lon="9.4114117"><ele>677.0</ele><time>2026-03-28T15:56:08.017Z</time></trkpt><trkpt lat="44.55221" lon="9.411335"><ele>677.0</ele><time>2026-03-28T15:56:09.017Z</time></trkpt><trkpt lat="44.552315" lon="9.4112433"><ele>677.0</ele><time>2026-03-28T15:56:10.017Z</time></trkpt><trkpt lat="44.552435" lon="9.411165"><ele>676.5</ele><time>2026-03-28T15:56:11.017Z</time></trkpt><trkpt lat="44.5525617" lon="9.4110817"><ele>676.0</ele><time>2026-03-28T15:56:12.016Z</time></trkpt><trkpt lat="44.5526783" lon="9.4109867"><ele>675.5</ele><time>2026-03-28T15:56:13.017Z</time></trkpt><trkpt lat="44.5528083" lon="9.4109067"><ele>675.0</ele><time>2026-03-28T15:56:14.016Z</time></trkpt><trkpt lat="44.552935" lon="9.4108517"><ele>678.0</ele><time>2026-03-28T15:56:15.017Z</time></trkpt><trkpt lat="44.5530567" lon="9.4107733"><ele>681.0</ele><time>2026-03-28T15:56:16.016Z</time></trkpt><trkpt lat="44.553175" lon="9.4107017"><ele>684.0</ele><time>2026-03-28T15:56:17.017Z</time></trkpt><trkpt lat="44.5532817" lon="9.4106717"><ele>687.0</ele><time>2026-03-28T15:56:18.017Z</time></trkpt><trkpt lat="44.5533917" lon="9.4107217"><ele>687.0</ele><time>2026-03-28T15:56:19.017Z</time></trkpt><trkpt lat="44.5534833" lon="9.4108083"><ele>687.0</ele><time>2026-03-28T15:56:20.017Z</time></trkpt><trkpt lat="44.553545" lon="9.410945"><ele>687.0</ele><time>2026-03-28T15:56:21.017Z</time></trkpt><trkpt lat="44.55359" lon="9.411105"><ele>687.0</ele><time>2026-03-28T15:56:22.017Z</time></trkpt><trkpt lat="44.553625" lon="9.41129"><ele>690.5</ele><time>2026-03-28T15:56:23.017Z</time></trkpt><trkpt lat="44.5536567" lon="9.4114833"><ele>694.0</ele><time>2026-03-28T15:56:24.017Z</time></trkpt><trkpt lat="44.5536983" lon="9.411675"><ele>697.5</ele><time>2026-03-28T15:56:25.017Z</time></trkpt><trkpt lat="44.5537433" lon="9.4118617"><ele>701.0</ele><time>2026-03-28T15:56:26.017Z</time></trkpt><trkpt lat="44.5537867" lon="9.412055"><ele>695.0</ele><time>2026-03-28T15:56:27.016Z</time></trkpt><trkpt lat="44.553835" lon="9.4122383"><ele>689.0</ele><time>2026-03-28T15:56:28.017Z</time></trkpt><trkpt lat="44.5538867" lon="9.4124283"><ele>683.0</ele><time>2026-03-28T15:56:29.017Z</time></trkpt><trkpt lat="44.5539433" lon="9.4126183"><ele>677.0</ele><time>2026-03-28T15:56:30.017Z</time></trkpt><trkpt lat="44.5539967" lon="9.4128117"><ele>681.0</ele><time>2026-03-28T15:56:31.017Z</time></trkpt><trkpt lat="44.5540517" lon="9.4130033"><ele>685.0</ele><time>2026-03-28T15:56:32.017Z</time></trkpt><trkpt lat="44.55412" lon="9.4131883"><ele>689.0</ele><time>2026-03-28T15:56:33.017Z</time></trkpt><trkpt lat="44.5541917" lon="9.413375"><ele>693.0</ele><time>2026-03-28T15:56:34.016Z</time></trkpt><trkpt lat="44.5542667" lon="9.413555"><ele>693.0</ele><time>2026-03-28T15:56:35.017Z</time></trkpt><trkpt lat="44.5543467" lon="9.4137283"><ele>693.0</ele><time>2026-03-28T15:56:36.017Z</time></trkpt><trkpt lat="44.554425" lon="9.4139"><ele>693.0</ele><time>2026-03-28T15:56:37.017Z</time></trkpt><trkpt lat="44.5545083" lon="9.41406"><ele>693.0</ele><time>2026-03-28T15:56:38.017Z</time></trkpt><trkpt lat="44.5545883" lon="9.4142283"><ele>695.5</ele><time>2026-03-28T15:56:39.017Z</time></trkpt><trkpt lat="44.5546583" lon="9.414405"><ele>698.0</ele><time>2026-03-28T15:56:40.017Z</time></trkpt><trkpt lat="44.5547083" lon="9.4146117"><ele>700.5</ele><time>2026-03-28T15:56:41.017Z</time></trkpt><trkpt lat="44.5547567" lon="9.414805"><ele>703.0</ele><time>2026-03-28T15:56:42.017Z</time></trkpt><trkpt lat="44.5548033" lon="9.4149783"><ele>703.0</ele><time>2026-03-28T15:56:43.017Z</time></trkpt><trkpt lat="44.5548483" lon="9.4151283"><ele>703.0</ele><time>2026-03-28T15:56:44.017Z</time></trkpt><trkpt lat="44.554905" lon="9.4152417"><ele>703.0</ele><time>2026-03-28T15:56:45.017Z</time></trkpt><trkpt lat="44.5549667" lon="9.415315"><ele>703.0</ele><time>2026-03-28T15:56:46.016Z</time></trkpt><trkpt lat="44.555075" lon="9.4153533"><ele>703.0</ele><time>2026-03-28T15:56:47.017Z</time></trkpt><trkpt lat="44.555175" lon="9.4153317"><ele>703.0</ele><time>2026-03-28T15:56:48.017Z</time></trkpt><trkpt lat="44.5552633" lon="9.4152633"><ele>703.0</ele><time>2026-03-28T15:56:49.017Z</time></trkpt><trkpt lat="44.5553217" lon="9.41515"><ele>703.0</ele><time>2026-03-28T15:56:50.016Z</time></trkpt><trkpt lat="44.5553683" lon="9.4150267"><ele>703.0</ele><time>2026-03-28T15:56:51.017Z</time></trkpt><trkpt lat="44.5554083" lon="9.4149"><ele>703.0</ele><time>2026-03-28T15:56:52.017Z</time></trkpt><trkpt lat="44.5554767" lon="9.4147867"><ele>706.25</ele><time>2026-03-28T15:56:53.017Z</time></trkpt><trkpt lat="44.5555417" lon="9.4146867"><ele>709.5</ele><time>2026-03-28T15:56:54.017Z</time></trkpt><trkpt lat="44.5556333" lon="9.41458"><ele>712.75</ele><time>2026-03-28T15:56:55.017Z</time></trkpt><trkpt lat="44.5557467" lon="9.4145267"><ele>716.0</ele><time>2026-03-28T15:56:56.017Z</time></trkpt><trkpt lat="44.555865" lon="9.4144467"><ele>711.5</ele><time>2026-03-28T15:56:57.017Z</time></trkpt><trkpt lat="44.5559967" lon="9.4143867"><ele>707.0</ele><time>2026-03-28T15:56:58.017Z</time></trkpt><trkpt lat="44.55613" lon="9.4143217"><ele>702.5</ele><time>2026-03-28T15:56:59.017Z</time></trkpt><trkpt lat="44.5562667" lon="9.4142583"><ele>698.0</ele><time>2026-03-28T15:57:00.017Z</time></trkpt><trkpt lat="44.5564117" lon="9.414205"><ele>698.0</ele><time>2026-03-28T15:57:01.017Z</time></trkpt><trkpt lat="44.5565517" lon="9.4141733"><ele>698.0</ele><time>2026-03-28T15:57:02.017Z</time></trkpt><trkpt lat="44.5566983" lon="9.41415"><ele>698.0</ele><time>2026-03-28T15:57:03.017Z</time></trkpt><trkpt lat="44.5568417" lon="9.414105"><ele>698.0</ele><time>2026-03-28T15:57:04.017Z</time></trkpt><trkpt lat="44.556985" lon="9.4140383"><ele>694.0</ele><time>2026-03-28T15:57:05.017Z</time></trkpt><trkpt lat="44.5571017" lon="9.4138667"><ele>690.0</ele><time>2026-03-28T15:57:06.017Z</time></trkpt><trkpt lat="44.5572433" lon="9.413785"><ele>686.0</ele><time>2026-03-28T15:57:07.017Z</time></trkpt><trkpt lat="44.557385" lon="9.413685"><ele>686.0</ele><time>2026-03-28T15:57:08.017Z</time></trkpt><trkpt lat="44.5575233" lon="9.4135883"><ele>686.0</ele><time>2026-03-28T15:57:09.017Z</time></trkpt><trkpt lat="44.5576683" lon="9.4134983"><ele>686.0</ele><time>2026-03-28T15:57:10.017Z</time></trkpt><trkpt lat="44.5578217" lon="9.413445"><ele>693.25</ele><time>2026-03-28T15:57:11.017Z</time></trkpt><trkpt lat="44.55796" lon="9.4133767"><ele>700.5</ele><time>2026-03-28T15:57:12.017Z</time></trkpt><trkpt lat="44.5580833" lon="9.4133067"><ele>707.75</ele><time>2026-03-28T15:57:13.017Z</time></trkpt><trkpt lat="44.5581933" lon="9.41322"><ele>715.0</ele><time>2026-03-28T15:57:14.017Z</time></trkpt><trkpt lat="44.5582783" lon="9.4131167"><ele>705.5</ele><time>2026-03-28T15:57:15.017Z</time></trkpt><trkpt lat="44.5583483" lon="9.4129717"><ele>696.0</ele><time>2026-03-28T15:57:16.017Z</time></trkpt><trkpt lat="44.5584133" lon="9.4128267"><ele>686.5</ele><time>2026-03-28T15:57:17.017Z</time></trkpt><trkpt lat="44.55849" lon="9.4126967"><ele>677.0</ele><time>2026-03-28T15:57:18.017Z</time></trkpt><trkpt lat="44.558585" lon="9.4125867"><ele>677.0</ele><time>2026-03-28T15:57:19.017Z</time></trkpt><trkpt lat="44.5586817" lon="9.4124933"><ele>677.0</ele><time>2026-03-28T15:57:20.017Z</time></trkpt><trkpt lat="44.5587667" lon="9.41238"><ele>677.0</ele><time>2026-03-28T15:57:21.017Z</time></trkpt><trkpt lat="44.558845" lon="9.4122417"><ele>677.0</ele><time>2026-03-28T15:57:22.017Z</time></trkpt><trkpt lat="44.558915" lon="9.4120833"><ele>679.5</ele><time>2026-03-28T15:57:23.017Z</time></trkpt><trkpt lat="44.5589667" lon="9.41191"><ele>682.0</ele><time>2026-03-28T15:57:24.016Z</time></trkpt><trkpt lat="44.5590117" lon="9.4117317"><ele>684.5</ele><time>2026-03-28T15:57:25.017Z</time></trkpt><trkpt lat="44.5590583" lon="9.4115567"><ele>687.0</ele><time>2026-03-28T15:57:26.017Z</time></trkpt><trkpt lat="44.5590933" lon="9.411385"><ele>683.6</ele><time>2026-03-28T15:57:27.017Z</time></trkpt><trkpt lat="44.55914" lon="9.4112467"><ele>680.2</ele><time>2026-03-28T15:57:28.017Z</time></trkpt><trkpt lat="44.5592033" lon="9.4111517"><ele>676.8</ele><time>2026-03-28T15:57:29.017Z</time></trkpt><trkpt lat="44.5592767" lon="9.411095"><ele>673.4</ele><time>2026-03-28T15:57:30.017Z</time></trkpt><trkpt lat="44.5593683" lon="9.411075"><ele>670.0</ele><time>2026-03-28T15:57:31.017Z</time></trkpt><trkpt lat="44.5594667" lon="9.41109"><ele>667.8</ele><time>2026-03-28T15:57:32.017Z</time></trkpt><trkpt lat="44.5595517" lon="9.4111367"><ele>665.6</ele><time>2026-03-28T15:57:33.017Z</time></trkpt><trkpt lat="44.5596267" lon="9.4112083"><ele>663.4000000000001</ele><time>2026-03-28T15:57:34.017Z</time></trkpt><trkpt lat="44.55968" lon="9.4113433"><ele>661.2</ele><time>2026-03-28T15:57:35.017Z</time></trkpt><trkpt lat="44.5597067" lon="9.4114783"><ele>659.0</ele><time>2026-03-28T15:57:36.017Z</time></trkpt><trkpt lat="44.559695" lon="9.411655"><ele>659.0</ele><time>2026-03-28T15:57:37.017Z</time></trkpt><trkpt lat="44.5596583" lon="9.411845"><ele>659.0</ele><time>2026-03-28T15:57:38.017Z</time></trkpt><trkpt lat="44.5595833" lon="9.412095"><ele>659.0</ele><time>2026-03-28T15:57:39.017Z</time></trkpt><trkpt lat="44.55953" lon="9.4123217"><ele>670.5</ele><time>2026-03-28T15:57:40.017Z</time></trkpt><trkpt lat="44.55948" lon="9.4125383"><ele>682.0</ele><time>2026-03-28T15:57:41.017Z</time></trkpt><trkpt lat="44.5594517" lon="9.4127283"><ele>693.5</ele><time>2026-03-28T15:57:42.017Z</time></trkpt><trkpt lat="44.5594283" lon="9.4129283"><ele>705.0</ele><time>2026-03-28T15:57:43.017Z</time></trkpt><trkpt lat="44.5594317" lon="9.41313"><ele>709.25</ele><time>2026-03-28T15:57:44.017Z</time></trkpt><trkpt lat="44.5594517" lon="9.413325"><ele>713.5</ele><time>2026-03-28T15:57:45.017Z</time></trkpt><trkpt lat="44.5594783" lon="9.4135317"><ele>717.75</ele><time>2026-03-28T15:57:46.017Z</time></trkpt><trkpt lat="44.5595033" lon="9.4137433"><ele>722.0</ele><time>2026-03-28T15:57:47.017Z</time></trkpt><trkpt lat="44.5595283" lon="9.4139533"><ele>708.75</ele><time>2026-03-28T15:57:48.017Z</time></trkpt><trkpt lat="44.5595517" lon="9.4141517"><ele>695.5</ele><time>2026-03-28T15:57:49.017Z</time></trkpt><trkpt lat="44.559565" lon="9.4143517"><ele>682.25</ele><time>2026-03-28T15:57:50.017Z</time></trkpt><trkpt lat="44.559575" lon="9.41455"><ele>669.0</ele><time>2026-03-28T15:57:51.017Z</time></trkpt><trkpt lat="44.55959" lon="9.4147517"><ele>669.0</ele><time>2026-03-28T15:57:52.017Z</time></trkpt><trkpt lat="44.5596167" lon="9.4149417"><ele>669.0</ele><time>2026-03-28T15:57:53.016Z</time></trkpt><trkpt lat="44.5596667" lon="9.4151367"><ele>669.0</ele><time>2026-03-28T15:57:54.017Z</time></trkpt><trkpt lat="44.5597233" lon="9.4153267"><ele>669.0</ele><time>2026-03-28T15:57:55.016Z</time></trkpt><trkpt lat="44.5597817" lon="9.4154967"><ele>678.75</ele><time>2026-03-28T15:57:56.017Z</time></trkpt><trkpt lat="44.559825" lon="9.4156567"><ele>688.5</ele><time>2026-03-28T15:57:57.017Z</time></trkpt><trkpt lat="44.5598883" lon="9.4157683"><ele>698.25</ele><time>2026-03-28T15:57:58.017Z</time></trkpt><trkpt lat="44.5599733" lon="9.4158783"><ele>708.0</ele><time>2026-03-28T15:57:59.017Z</time></trkpt><trkpt lat="44.5600833" lon="9.415975"><ele>708.0</ele><time>2026-03-28T15:58:00.017Z</time></trkpt><trkpt lat="44.5602017" lon="9.41604"><ele>708.0</ele><time>2026-03-28T15:58:01.017Z</time></trkpt><trkpt lat="44.5603367" lon="9.4161"><ele>708.0</ele><time>2026-03-28T15:58:02.017Z</time></trkpt><trkpt lat="44.5604683" lon="9.4161417"><ele>708.0</ele><time>2026-03-28T15:58:03.016Z</time></trkpt><trkpt lat="44.560565" lon="9.41623"><ele>705.5</ele><time>2026-03-28T15:58:04.017Z</time></trkpt><trkpt lat="44.5606667" lon="9.4163167"><ele>703.0</ele><time>2026-03-28T15:58:05.017Z</time></trkpt><trkpt lat="44.5607617" lon="9.4164183"><ele>700.5</ele><time>2026-03-28T15:58:06.017Z</time></trkpt><trkpt lat="44.56083" lon="9.4165433"><ele>698.0</ele><time>2026-03-28T15:58:07.016Z</time></trkpt><trkpt lat="44.5609" lon="9.4166617"><ele>698.0</ele><time>2026-03-28T15:58:08.017Z</time></trkpt><trkpt lat="44.5609633" lon="9.4167517"><ele>698.0</ele><time>2026-03-28T15:58:09.017Z</time></trkpt><trkpt lat="44.561055" lon="9.4168033"><ele>698.0</ele><time>2026-03-28T15:58:10.016Z</time></trkpt><trkpt lat="44.5611783" lon="9.4168583"><ele>698.0</ele><time>2026-03-28T15:58:11.017Z</time></trkpt><trkpt lat="44.5613183" lon="9.416865"><ele>691.5</ele><time>2026-03-28T15:58:12.017Z</time></trkpt><trkpt lat="44.5614517" lon="9.416875"><ele>685.0</ele><time>2026-03-28T15:58:13.016Z</time></trkpt><trkpt lat="44.5615733" lon="9.4169"><ele>678.5</ele><time>2026-03-28T15:58:14.017Z</time></trkpt><trkpt lat="44.5616967" lon="9.416935"><ele>672.0</ele><time>2026-03-28T15:58:15.017Z</time></trkpt><trkpt lat="44.56182" lon="9.41699"><ele>672.0</ele><time>2026-03-28T15:58:16.017Z</time></trkpt><trkpt lat="44.5619417" lon="9.41705"><ele>672.0</ele><time>2026-03-28T15:58:17.017Z</time></trkpt><trkpt lat="44.562065" lon="9.4171217"><ele>672.0</ele><time>2026-03-28T15:58:18.017Z</time></trkpt><trkpt lat="44.5621967" lon="9.4172133"><ele>672.0</ele><time>2026-03-28T15:58:19.016Z</time></trkpt><trkpt lat="44.5623383" lon="9.4172967"><ele>670.75</ele><time>2026-03-28T15:58:20.016Z</time></trkpt><trkpt lat="44.5624733" lon="9.4173717"><ele>669.5</ele><time>2026-03-28T15:58:21.016Z</time></trkpt><trkpt lat="44.5626083" lon="9.4174483"><ele>668.25</ele><time>2026-03-28T15:58:22.017Z</time></trkpt><trkpt lat="44.5627367" lon="9.417515"><ele>667.0</ele><time>2026-03-28T15:58:23.017Z</time></trkpt><trkpt lat="44.5628667" lon="9.4175933"><ele>667.0</ele><time>2026-03-28T15:58:24.017Z</time></trkpt><trkpt lat="44.5629833" lon="9.4176867"><ele>667.0</ele><time>2026-03-28T15:58:25.017Z</time></trkpt><trkpt lat="44.5630783" lon="9.4178017"><ele>667.0</ele><time>2026-03-28T15:58:26.017Z</time></trkpt><trkpt lat="44.5631683" lon="9.4179417"><ele>667.0</ele><time>2026-03-28T15:58:27.017Z</time></trkpt><trkpt lat="44.563255" lon="9.4180717"><ele>673.0</ele><time>2026-03-28T15:58:28.017Z</time></trkpt><trkpt lat="44.5633417" lon="9.4181933"><ele>679.0</ele><time>2026-03-28T15:58:29.017Z</time></trkpt><trkpt lat="44.5634333" lon="9.4182683"><ele>685.0</ele><time>2026-03-28T15:58:30.017Z</time></trkpt><trkpt lat="44.5635217" lon="9.4183067"><ele>691.0</ele><time>2026-03-28T15:58:31.016Z</time></trkpt><trkpt lat="44.5636417" lon="9.4183167"><ele>697.0</ele><time>2026-03-28T15:58:32.017Z</time></trkpt><trkpt lat="44.5637567" lon="9.4183267"><ele>697.0</ele><time>2026-03-28T15:58:33.017Z</time></trkpt><trkpt lat="44.5638683" lon="9.4183567"><ele>697.0</ele><time>2026-03-28T15:58:34.016Z</time></trkpt><trkpt lat="44.5639767" lon="9.4184183"><ele>697.0</ele><time>2026-03-28T15:58:35.017Z</time></trkpt><trkpt lat="44.5640833" lon="9.4184567"><ele>697.0</ele><time>2026-03-28T15:58:36.017Z</time></trkpt><trkpt lat="44.5641833" lon="9.4184783"><ele>697.0</ele><time>2026-03-28T15:58:37.017Z</time></trkpt><trkpt lat="44.5642867" lon="9.418485"><ele>697.0</ele><time>2026-03-28T15:58:38.017Z</time></trkpt><trkpt lat="44.564385" lon="9.4184483"><ele>697.0</ele><time>2026-03-28T15:58:39.016Z</time></trkpt><trkpt lat="44.5644733" lon="9.4183933"><ele>697.0</ele><time>2026-03-28T15:58:40.016Z</time></trkpt><trkpt lat="44.5645617" lon="9.4183067"><ele>697.0</ele><time>2026-03-28T15:58:41.016Z</time></trkpt><trkpt lat="44.5646433" lon="9.41815"><ele>697.0</ele><time>2026-03-28T15:58:42.017Z</time></trkpt><trkpt lat="44.5647367" lon="9.4180017"><ele>691.5</ele><time>2026-03-28T15:58:43.017Z</time></trkpt><trkpt lat="44.564835" lon="9.4178733"><ele>686.0</ele><time>2026-03-28T15:58:44.016Z</time></trkpt><trkpt lat="44.564935" lon="9.4177533"><ele>680.5</ele><time>2026-03-28T15:58:45.017Z</time></trkpt><trkpt lat="44.56505" lon="9.4176733"><ele>675.0</ele><time>2026-03-28T15:58:46.017Z</time></trkpt><trkpt lat="44.5651633" lon="9.4176417"><ele>675.0</ele><time>2026-03-28T15:58:47.017Z</time></trkpt><trkpt lat="44.5652617" lon="9.4176317"><ele>675.0</ele><time>2026-03-28T15:58:48.017Z</time></trkpt><trkpt lat="44.5653533" lon="9.4176"><ele>675.0</ele><time>2026-03-28T15:58:49.016Z</time></trkpt><trkpt lat="44.565435" lon="9.4175183"><ele>675.0</ele><time>2026-03-28T15:58:50.017Z</time></trkpt><trkpt lat="44.5655017" lon="9.4173983"><ele>675.0</ele><time>2026-03-28T15:58:51.017Z</time></trkpt><trkpt lat="44.5655517" lon="9.41726"><ele>676.25</ele><time>2026-03-28T15:58:52.016Z</time></trkpt><trkpt lat="44.5656117" lon="9.417115"><ele>677.5</ele><time>2026-03-28T15:58:53.017Z</time></trkpt><trkpt lat="44.5656783" lon="9.4169717"><ele>678.75</ele><time>2026-03-28T15:58:54.017Z</time></trkpt><trkpt lat="44.5657583" lon="9.41684"><ele>680.0</ele><time>2026-03-28T15:58:55.017Z</time></trkpt><trkpt lat="44.565855" lon="9.41671"><ele>680.0</ele><time>2026-03-28T15:58:56.017Z</time></trkpt><trkpt lat="44.5659517" lon="9.4165833"><ele>680.0</ele><time>2026-03-28T15:58:57.017Z</time></trkpt><trkpt lat="44.5660483" lon="9.4164733"><ele>680.0</ele><time>2026-03-28T15:58:58.016Z</time></trkpt><trkpt lat="44.5661533" lon="9.41638"><ele>680.0</ele><time>2026-03-28T15:58:59.017Z</time></trkpt><trkpt lat="44.566275" lon="9.416325"><ele>682.75</ele><time>2026-03-28T15:59:00.017Z</time></trkpt><trkpt lat="44.5663933" lon="9.4162933"><ele>685.5</ele><time>2026-03-28T15:59:01.017Z</time></trkpt><trkpt lat="44.566505" lon="9.416255"><ele>688.25</ele><time>2026-03-28T15:59:02.017Z</time></trkpt><trkpt lat="44.56662" lon="9.4162733"><ele>691.0</ele><time>2026-03-28T15:59:03.017Z</time></trkpt><trkpt lat="44.5667483" lon="9.4163267"><ele>691.0</ele><time>2026-03-28T15:59:04.017Z</time></trkpt><trkpt lat="44.566855" lon="9.4164"><ele>691.0</ele><time>2026-03-28T15:59:05.017Z</time></trkpt><trkpt lat="44.5669367" lon="9.4165617"><ele>691.0</ele><time>2026-03-28T15:59:06.017Z</time></trkpt><trkpt lat="44.56698" lon="9.41677"><ele>691.0</ele><time>2026-03-28T15:59:07.016Z</time></trkpt><trkpt lat="44.5670033" lon="9.417"><ele>685.0</ele><time>2026-03-28T15:59:08.017Z</time></trkpt><trkpt lat="44.5670333" lon="9.41723"><ele>679.0</ele><time>2026-03-28T15:59:09.016Z</time></trkpt><trkpt lat="44.56708" lon="9.4174167"><ele>673.0</ele><time>2026-03-28T15:59:10.017Z</time></trkpt><trkpt lat="44.5671233" lon="9.4175583"><ele>667.0</ele><time>2026-03-28T15:59:11.017Z</time></trkpt><trkpt lat="44.5671533" lon="9.417685"><ele>667.0</ele><time>2026-03-28T15:59:12.017Z</time></trkpt><trkpt lat="44.567165" lon="9.4178083"><ele>667.0</ele><time>2026-03-28T15:59:13.016Z</time></trkpt><trkpt lat="44.5671283" lon="9.4179517"><ele>667.0</ele><time>2026-03-28T15:59:14.017Z</time></trkpt><trkpt lat="44.567075" lon="9.4180933"><ele>667.0</ele><time>2026-03-28T15:59:15.016Z</time></trkpt><trkpt lat="44.5670383" lon="9.41825"><ele>667.0</ele><time>2026-03-28T15:59:16.017Z</time></trkpt><trkpt lat="44.567005" lon="9.4184033"><ele>669.6</ele><time>2026-03-28T15:59:17.017Z</time></trkpt><trkpt lat="44.5669967" lon="9.4185567"><ele>672.2</ele><time>2026-03-28T15:59:18.017Z</time></trkpt><trkpt lat="44.5670133" lon="9.4186967"><ele>674.8</ele><time>2026-03-28T15:59:19.017Z</time></trkpt><trkpt lat="44.56706" lon="9.4187967"><ele>677.4</ele><time>2026-03-28T15:59:20.016Z</time></trkpt><trkpt lat="44.5671167" lon="9.4188917"><ele>680.0</ele><time>2026-03-28T15:59:21.017Z</time></trkpt><trkpt lat="44.5672183" lon="9.4189633"><ele>682.4</ele><time>2026-03-28T15:59:22.017Z</time></trkpt><trkpt lat="44.56731" lon="9.4189867"><ele>684.8</ele><time>2026-03-28T15:59:23.016Z</time></trkpt><trkpt lat="44.567415" lon="9.418955"><ele>687.2</ele><time>2026-03-28T15:59:24.017Z</time></trkpt><trkpt lat="44.5675267" lon="9.4188983"><ele>689.6</ele><time>2026-03-28T15:59:25.017Z</time></trkpt><trkpt lat="44.5676467" lon="9.41885"><ele>692.0</ele><time>2026-03-28T15:59:26.017Z</time></trkpt><trkpt lat="44.56776" lon="9.41883"><ele>690.0</ele><time>2026-03-28T15:59:27.016Z</time></trkpt><trkpt lat="44.567885" lon="9.41886"><ele>688.0</ele><time>2026-03-28T15:59:28.017Z</time></trkpt><trkpt lat="44.5680033" lon="9.4189083"><ele>686.0</ele><time>2026-03-28T15:59:29.017Z</time></trkpt><trkpt lat="44.5681283" lon="9.4189733"><ele>684.0</ele><time>2026-03-28T15:59:30.017Z</time></trkpt><trkpt lat="44.5682483" lon="9.419025"><ele>684.0</ele><time>2026-03-28T15:59:31.017Z</time></trkpt><trkpt lat="44.5683783" lon="9.4190817"><ele>684.0</ele><time>2026-03-28T15:59:32.017Z</time></trkpt><trkpt lat="44.5685" lon="9.419155"><ele>684.0</ele><time>2026-03-28T15:59:33.017Z</time></trkpt><trkpt lat="44.5686167" lon="9.4192617"><ele>684.0</ele><time>2026-03-28T15:59:34.016Z</time></trkpt><trkpt lat="44.568735" lon="9.4193767"><ele>681.0</ele><time>2026-03-28T15:59:35.016Z</time></trkpt><trkpt lat="44.5688583" lon="9.419485"><ele>678.0</ele><time>2026-03-28T15:59:36.017Z</time></trkpt><trkpt lat="44.56898" lon="9.4195517"><ele>675.0</ele><time>2026-03-28T15:59:37.017Z</time></trkpt><trkpt lat="44.5691133" lon="9.4195867"><ele>672.0</ele><time>2026-03-28T15:59:38.016Z</time></trkpt><trkpt lat="44.5692283" lon="9.41961"><ele>672.0</ele><time>2026-03-28T15:59:39.017Z</time></trkpt><trkpt lat="44.5693383" lon="9.41963"><ele>672.0</ele><time>2026-03-28T15:59:40.017Z</time></trkpt><trkpt lat="44.569435" lon="9.419655"><ele>672.0</ele><time>2026-03-28T15:59:41.017Z</time></trkpt><trkpt lat="44.5695117" lon="9.4197117"><ele>672.0</ele><time>2026-03-28T15:59:42.017Z</time></trkpt><trkpt lat="44.5695867" lon="9.4197933"><ele>672.0</ele><time>2026-03-28T15:59:43.017Z</time></trkpt><trkpt lat="44.56965" lon="9.419905"><ele>673.4000000000001</ele><time>2026-03-28T15:59:44.016Z</time></trkpt><trkpt lat="44.569725" lon="9.4200217"><ele>674.8000000000001</ele><time>2026-03-28T15:59:45.017Z</time></trkpt><trkpt lat="44.5698133" lon="9.42012"><ele>676.2</ele><time>2026-03-28T15:59:46.016Z</time></trkpt><trkpt lat="44.5699067" lon="9.420195"><ele>677.6</ele><time>2026-03-28T15:59:47.017Z</time></trkpt><trkpt lat="44.5699983" lon="9.4202567"><ele>679.0</ele><time>2026-03-28T15:59:48.017Z</time></trkpt><trkpt lat="44.570085" lon="9.4203217"><ele>679.0</ele><time>2026-03-28T15:59:49.016Z</time></trkpt><trkpt lat="44.5701717" lon="9.420405"><ele>679.0</ele><time>2026-03-28T15:59:50.017Z</time></trkpt><trkpt lat="44.570265" lon="9.4204917"><ele>679.0</ele><time>2026-03-28T15:59:51.017Z</time></trkpt><trkpt lat="44.5703683" lon="9.42056"><ele>679.0</ele><time>2026-03-28T15:59:52.017Z</time></trkpt><trkpt lat="44.5704683" lon="9.420615"><ele>679.0</ele><time>2026-03-28T15:59:53.017Z</time></trkpt><trkpt lat="44.570605" lon="9.4206367"><ele>685.0</ele><time>2026-03-28T15:59:54.017Z</time></trkpt><trkpt lat="44.57074" lon="9.4206383"><ele>691.0</ele><time>2026-03-28T15:59:55.016Z</time></trkpt><trkpt lat="44.5708967" lon="9.420615"><ele>697.0</ele><time>2026-03-28T15:59:56.017Z</time></trkpt><trkpt lat="44.5710383" lon="9.42062"><ele>703.0</ele><time>2026-03-28T15:59:57.017Z</time></trkpt><trkpt lat="44.57118" lon="9.42064"><ele>699.75</ele><time>2026-03-28T15:59:58.017Z</time></trkpt><trkpt lat="44.5713017" lon="9.4206783"><ele>696.5</ele><time>2026-03-28T15:59:59.016Z</time></trkpt><trkpt lat="44.5714167" lon="9.420735"><ele>693.25</ele><time>2026-03-28T16:00:00.017Z</time></trkpt><trkpt lat="44.5715333" lon="9.4208083"><ele>690.0</ele><time>2026-03-28T16:00:01.016Z</time></trkpt><trkpt lat="44.5716483" lon="9.420885"><ele>690.0</ele><time>2026-03-28T16:00:02.017Z</time></trkpt><trkpt lat="44.57176" lon="9.4209567"><ele>690.0</ele><time>2026-03-28T16:00:03.017Z</time></trkpt><trkpt lat="44.5718883" lon="9.4210417"><ele>690.0</ele><time>2026-03-28T16:00:04.017Z</time></trkpt><trkpt lat="44.5720167" lon="9.421145"><ele>690.0</ele><time>2026-03-28T16:00:05.017Z</time></trkpt><trkpt lat="44.5721533" lon="9.42123"><ele>692.0</ele><time>2026-03-28T16:00:06.017Z</time></trkpt><trkpt lat="44.5722933" lon="9.4213017"><ele>694.0</ele><time>2026-03-28T16:00:07.017Z</time></trkpt><trkpt lat="44.5724317" lon="9.4213633"><ele>696.0</ele><time>2026-03-28T16:00:08.017Z</time></trkpt><trkpt lat="44.5725467" lon="9.4214067"><ele>698.0</ele><time>2026-03-28T16:00:09.017Z</time></trkpt><trkpt lat="44.5726533" lon="9.4214717"><ele>698.0</ele><time>2026-03-28T16:00:10.017Z</time></trkpt><trkpt lat="44.5727567" lon="9.4215683"><ele>698.0</ele><time>2026-03-28T16:00:11.017Z</time></trkpt><trkpt lat="44.5728633" lon="9.4216967"><ele>698.0</ele><time>2026-03-28T16:00:12.017Z</time></trkpt><trkpt lat="44.5729733" lon="9.4218333"><ele>698.0</ele><time>2026-03-28T16:00:13.017Z</time></trkpt><trkpt lat="44.573085" lon="9.4219517"><ele>697.5</ele><time>2026-03-28T16:00:14.016Z</time></trkpt><trkpt lat="44.5731967" lon="9.4220467"><ele>697.0</ele><time>2026-03-28T16:00:15.017Z</time></trkpt><trkpt lat="44.5733133" lon="9.42214"><ele>696.5</ele><time>2026-03-28T16:00:16.016Z</time></trkpt><trkpt lat="44.5734233" lon="9.4222383"><ele>696.0</ele><time>2026-03-28T16:00:17.016Z</time></trkpt><trkpt lat="44.5735283" lon="9.42235"><ele>696.0</ele><time>2026-03-28T16:00:18.017Z</time></trkpt><trkpt lat="44.5736267" lon="9.4224667"><ele>696.0</ele><time>2026-03-28T16:00:19.017Z</time></trkpt><trkpt lat="44.573695" lon="9.42262"><ele>696.0</ele><time>2026-03-28T16:00:20.017Z</time></trkpt><trkpt lat="44.5737517" lon="9.4227933"><ele>696.0</ele><time>2026-03-28T16:00:21.017Z</time></trkpt><trkpt lat="44.5738167" lon="9.4229333"><ele>692.8</ele><time>2026-03-28T16:00:22.017Z</time></trkpt><trkpt lat="44.57388" lon="9.4230533"><ele>689.5999999999999</ele><time>2026-03-28T16:00:23.017Z</time></trkpt><trkpt lat="44.57397" lon="9.423155"><ele>686.4</ele><time>2026-03-28T16:00:24.017Z</time></trkpt><trkpt lat="44.574055" lon="9.423235"><ele>683.2</ele><time>2026-03-28T16:00:25.017Z</time></trkpt><trkpt lat="44.5741383" lon="9.4233267"><ele>680.0</ele><time>2026-03-28T16:00:26.017Z</time></trkpt><trkpt lat="44.5742383" lon="9.423425"><ele>680.0</ele><time>2026-03-28T16:00:27.017Z</time></trkpt><trkpt lat="44.5743217" lon="9.4235367"><ele>680.0</ele><time>2026-03-28T16:00:28.017Z</time></trkpt><trkpt lat="44.574435" lon="9.4236383"><ele>680.0</ele><time>2026-03-28T16:00:29.017Z</time></trkpt><trkpt lat="44.5745467" lon="9.42374"><ele>680.0</ele><time>2026-03-28T16:00:30.017Z</time></trkpt><trkpt lat="44.574655" lon="9.4238333"><ele>677.25</ele><time>2026-03-28T16:00:31.017Z</time></trkpt><trkpt lat="44.5747717" lon="9.4239217"><ele>674.5</ele><time>2026-03-28T16:00:32.017Z</time></trkpt><trkpt lat="44.57488" lon="9.4240183"><ele>671.75</ele><time>2026-03-28T16:00:33.017Z</time></trkpt><trkpt lat="44.5749617" lon="9.4241517"><ele>669.0</ele><time>2026-03-28T16:00:34.017Z</time></trkpt><trkpt lat="44.5750367" lon="9.424285"><ele>669.0</ele><time>2026-03-28T16:00:35.017Z</time></trkpt><trkpt lat="44.575115" lon="9.42443"><ele>669.0</ele><time>2026-03-28T16:00:36.017Z</time></trkpt><trkpt lat="44.5751783" lon="9.4246067"><ele>669.0</ele><time>2026-03-28T16:00:37.017Z</time></trkpt><trkpt lat="44.575265" lon="9.4247967"><ele>669.0</ele><time>2026-03-28T16:00:38.016Z</time></trkpt><trkpt lat="44.57534" lon="9.4249717"><ele>671.4000000000001</ele><time>2026-03-28T16:00:39.017Z</time></trkpt><trkpt lat="44.5754117" lon="9.4251267"><ele>673.8</ele><time>2026-03-28T16:00:40.017Z</time></trkpt><trkpt lat="44.5754917" lon="9.4252533"><ele>676.2</ele><time>2026-03-28T16:00:41.017Z</time></trkpt><trkpt lat="44.5755417" lon="9.425355"><ele>678.5999999999999</ele><time>2026-03-28T16:00:42.017Z</time></trkpt><trkpt lat="44.575595" lon="9.4254333"><ele>681.0</ele><time>2026-03-28T16:00:43.017Z</time></trkpt><trkpt lat="44.5756667" lon="9.4254817"><ele>681.0</ele><time>2026-03-28T16:00:44.017Z</time></trkpt><trkpt lat="44.57574" lon="9.4255033"><ele>681.0</ele><time>2026-03-28T16:00:45.017Z</time></trkpt><trkpt lat="44.575815" lon="9.42549"><ele>681.0</ele><time>2026-03-28T16:00:46.017Z</time></trkpt><trkpt lat="44.5759017" lon="9.4254467"><ele>681.0</ele><time>2026-03-28T16:00:47.017Z</time></trkpt><trkpt lat="44.5760017" lon="9.425365"><ele>681.0</ele><time>2026-03-28T16:00:48.017Z</time></trkpt><trkpt lat="44.5760967" lon="9.4252433"><ele>679.75</ele><time>2026-03-28T16:00:49.016Z</time></trkpt><trkpt lat="44.5761933" lon="9.425135"><ele>678.5</ele><time>2026-03-28T16:00:50.017Z</time></trkpt><trkpt lat="44.5762967" lon="9.4250367"><ele>677.25</ele><time>2026-03-28T16:00:51.017Z</time></trkpt><trkpt lat="44.5764017" lon="9.4249567"><ele>676.0</ele><time>2026-03-28T16:00:52.017Z</time></trkpt><trkpt lat="44.5765183" lon="9.4249133"><ele>676.0</ele><time>2026-03-28T16:00:53.016Z</time></trkpt><trkpt lat="44.576625" lon="9.4249017"><ele>676.0</ele><time>2026-03-28T16:00:54.017Z</time></trkpt><trkpt lat="44.5767167" lon="9.4249433"><ele>676.0</ele><time>2026-03-28T16:00:55.017Z</time></trkpt><trkpt lat="44.5768117" lon="9.424995"><ele>676.0</ele><time>2026-03-28T16:00:56.017Z</time></trkpt><trkpt lat="44.5769067" lon="9.4250133"><ele>676.0</ele><time>2026-03-28T16:00:57.017Z</time></trkpt><trkpt lat="44.57701" lon="9.4249783"><ele>678.1999999999999</ele><time>2026-03-28T16:00:58.017Z</time></trkpt><trkpt lat="44.577105" lon="9.424895"><ele>680.4</ele><time>2026-03-28T16:00:59.017Z</time></trkpt><trkpt lat="44.5771717" lon="9.42478"><ele>682.6</ele><time>2026-03-28T16:01:00.017Z</time></trkpt><trkpt lat="44.5772333" lon="9.424675"><ele>684.8</ele><time>2026-03-28T16:01:01.017Z</time></trkpt><trkpt lat="44.577305" lon="9.4246"><ele>687.0</ele><time>2026-03-28T16:01:02.017Z</time></trkpt><trkpt lat="44.5774017" lon="9.4245667"><ele>680.25</ele><time>2026-03-28T16:01:03.017Z</time></trkpt><trkpt lat="44.5775017" lon="9.4245183"><ele>673.5</ele><time>2026-03-28T16:01:04.016Z</time></trkpt><trkpt lat="44.5776033" lon="9.4244383"><ele>666.75</ele><time>2026-03-28T16:01:05.017Z</time></trkpt><trkpt lat="44.577695" lon="9.424355"><ele>660.0</ele><time>2026-03-28T16:01:06.017Z</time></trkpt><trkpt lat="44.57779" lon="9.42425"><ele>667.5</ele><time>2026-03-28T16:01:07.016Z</time></trkpt><trkpt lat="44.577885" lon="9.4241633"><ele>675.0</ele><time>2026-03-28T16:01:08.017Z</time></trkpt><trkpt lat="44.5779917" lon="9.4240833"><ele>682.5</ele><time>2026-03-28T16:01:09.017Z</time></trkpt><trkpt lat="44.5781" lon="9.4240067"><ele>690.0</ele><time>2026-03-28T16:01:10.017Z</time></trkpt><trkpt lat="44.5782183" lon="9.4239383"><ele>690.0</ele><time>2026-03-28T16:01:11.017Z</time></trkpt><trkpt lat="44.5783217" lon="9.4238433"><ele>690.0</ele><time>2026-03-28T16:01:12.017Z</time></trkpt><trkpt lat="44.5784133" lon="9.423735"><ele>690.0</ele><time>2026-03-28T16:01:13.017Z</time></trkpt><trkpt lat="44.5785" lon="9.4236133"><ele>690.0</ele><time>2026-03-28T16:01:14.017Z</time></trkpt><trkpt lat="44.5785833" lon="9.4234917"><ele>692.5</ele><time>2026-03-28T16:01:15.017Z</time></trkpt><trkpt lat="44.578665" lon="9.4233583"><ele>695.0</ele><time>2026-03-28T16:01:16.017Z</time></trkpt><trkpt lat="44.578755" lon="9.4232283"><ele>697.5</ele><time>2026-03-28T16:01:17.017Z</time></trkpt><trkpt lat="44.5788517" lon="9.4231133"><ele>700.0</ele><time>2026-03-28T16:01:18.016Z</time></trkpt><trkpt lat="44.5789517" lon="9.4230083"><ele>698.5</ele><time>2026-03-28T16:01:19.017Z</time></trkpt><trkpt lat="44.579055" lon="9.422915"><ele>697.0</ele><time>2026-03-28T16:01:20.017Z</time></trkpt><trkpt lat="44.5791517" lon="9.422835"><ele>695.5</ele><time>2026-03-28T16:01:21.017Z</time></trkpt><trkpt lat="44.5792583" lon="9.4227567"><ele>694.0</ele><time>2026-03-28T16:01:22.017Z</time></trkpt><trkpt lat="44.5793717" lon="9.4226833"><ele>694.0</ele><time>2026-03-28T16:01:23.017Z</time></trkpt><trkpt lat="44.57948" lon="9.4226"><ele>694.0</ele><time>2026-03-28T16:01:24.017Z</time></trkpt><trkpt lat="44.579595" lon="9.42255"><ele>694.0</ele><time>2026-03-28T16:01:25.017Z</time></trkpt><trkpt lat="44.579705" lon="9.422495"><ele>694.0</ele><time>2026-03-28T16:01:26.016Z</time></trkpt><trkpt lat="44.57987" lon="9.42249"><ele>692.4000000000001</ele><time>2026-03-28T16:01:27.017Z</time></trkpt><trkpt lat="44.5800067" lon="9.422505"><ele>690.8</ele><time>2026-03-28T16:01:28.017Z</time></trkpt><trkpt lat="44.58012" lon="9.4224767"><ele>689.2</ele><time>2026-03-28T16:01:29.017Z</time></trkpt><trkpt lat="44.5802133" lon="9.422475"><ele>687.5999999999999</ele><time>2026-03-28T16:01:30.017Z</time></trkpt><trkpt lat="44.58031" lon="9.42252"><ele>686.0</ele><time>2026-03-28T16:01:32.017Z</time></trkpt><trkpt lat="44.5803967" lon="9.422565"><ele>685.1428571428571</ele><time>2026-03-28T16:01:37.017Z</time></trkpt><trkpt lat="44.5804617" lon="9.4225467"><ele>684.2857142857142</ele><time>2026-03-28T16:01:38.017Z</time></trkpt><trkpt lat="44.5805417" lon="9.42253"><ele>683.4285714285714</ele><time>2026-03-28T16:01:39.017Z</time></trkpt><trkpt lat="44.5806217" lon="9.422515"><ele>682.5714285714286</ele><time>2026-03-28T16:01:40.017Z</time></trkpt><trkpt lat="44.58069" lon="9.4225117"><ele>681.7142857142857</ele><time>2026-03-28T16:01:41.017Z</time></trkpt><trkpt lat="44.5807633" lon="9.4225167"><ele>680.8571428571429</ele><time>2026-03-28T16:01:42.017Z</time></trkpt><trkpt lat="44.580835" lon="9.4225317"><ele>680.0</ele><time>2026-03-28T16:01:43.017Z</time></trkpt><trkpt lat="44.5809117" lon="9.42257"><ele>680.0</ele><time>2026-03-28T16:01:44.017Z</time></trkpt><trkpt lat="44.580985" lon="9.4226067"><ele>680.0</ele><time>2026-03-28T16:01:45.016Z</time></trkpt><trkpt lat="44.58106" lon="9.4226217"><ele>680.0</ele><time>2026-03-28T16:01:46.017Z</time></trkpt><trkpt lat="44.581175" lon="9.4226233"><ele>680.0</ele><time>2026-03-28T16:01:47.017Z</time></trkpt><trkpt lat="44.58128" lon="9.4226033"><ele>680.0</ele><time>2026-03-28T16:01:48.017Z</time></trkpt><trkpt lat="44.5813883" lon="9.4225833"><ele>678.8</ele><time>2026-03-28T16:01:49.017Z</time></trkpt><trkpt lat="44.5814917" lon="9.4225817"><ele>677.6</ele><time>2026-03-28T16:01:50.017Z</time></trkpt><trkpt lat="44.58159" lon="9.4225967"><ele>676.4000000000001</ele><time>2026-03-28T16:01:51.017Z</time></trkpt><trkpt lat="44.5816767" lon="9.422635"><ele>675.2</ele><time>2026-03-28T16:01:52.016Z</time></trkpt><trkpt lat="44.5817517" lon="9.4226983"><ele>674.0</ele><time>2026-03-28T16:01:53.017Z</time></trkpt><trkpt lat="44.5818283" lon="9.4227567"><ele>674.0</ele><time>2026-03-28T16:01:54.017Z</time></trkpt><trkpt lat="44.581915" lon="9.4227883"><ele>674.0</ele><time>2026-03-28T16:01:55.017Z</time></trkpt><trkpt lat="44.582035" lon="9.4227783"><ele>674.0</ele><time>2026-03-28T16:01:57.017Z</time></trkpt><trkpt lat="44.5821133" lon="9.4227083"><ele>674.0</ele><time>2026-03-28T16:01:58.017Z</time></trkpt><trkpt lat="44.58216" lon="9.422615"><ele>674.0</ele><time>2026-03-28T16:01:59.017Z</time></trkpt><trkpt lat="44.5822367" lon="9.42248"><ele>675.25</ele><time>2026-03-28T16:02:00.016Z</time></trkpt><trkpt lat="44.582325" lon="9.4223617"><ele>676.5</ele><time>2026-03-28T16:02:01.017Z</time></trkpt><trkpt lat="44.5824133" lon="9.42225"><ele>677.75</ele><time>2026-03-28T16:02:02.017Z</time></trkpt><trkpt lat="44.5825133" lon="9.422125"><ele>679.0</ele><time>2026-03-28T16:02:03.016Z</time></trkpt><trkpt lat="44.5825933" lon="9.421985"><ele>679.5</ele><time>2026-03-28T16:02:04.017Z</time></trkpt><trkpt lat="44.5826617" lon="9.42183"><ele>680.0</ele><time>2026-03-28T16:02:05.016Z</time></trkpt><trkpt lat="44.5827367" lon="9.4216583"><ele>680.5</ele><time>2026-03-28T16:02:06.016Z</time></trkpt><trkpt lat="44.582805" lon="9.42148"><ele>681.0</ele><time>2026-03-28T16:02:07.017Z</time></trkpt><trkpt lat="44.582875" lon="9.4213217"><ele>671.75</ele><time>2026-03-28T16:02:08.017Z</time></trkpt><trkpt lat="44.582935" lon="9.4211683"><ele>662.5</ele><time>2026-03-28T16:02:09.017Z</time></trkpt><trkpt lat="44.5829817" lon="9.4209983"><ele>653.25</ele><time>2026-03-28T16:02:10.017Z</time></trkpt><trkpt lat="44.583035" lon="9.4208433"><ele>644.0</ele><time>2026-03-28T16:02:11.017Z</time></trkpt><trkpt lat="44.58309" lon="9.4207"><ele>644.0</ele><time>2026-03-28T16:02:12.017Z</time></trkpt><trkpt lat="44.5831917" lon="9.4205833"><ele>644.0</ele><time>2026-03-28T16:02:13.017Z</time></trkpt><trkpt lat="44.58326" lon="9.4204817"><ele>644.0</ele><time>2026-03-28T16:02:14.016Z</time></trkpt><trkpt lat="44.583355" lon="9.4204067"><ele>644.0</ele><time>2026-03-28T16:02:15.017Z</time></trkpt><trkpt lat="44.5834633" lon="9.4203433"><ele>645.0</ele><time>2026-03-28T16:02:16.017Z</time></trkpt><trkpt lat="44.583595" lon="9.420285"><ele>646.0</ele><time>2026-03-28T16:02:17.017Z</time></trkpt><trkpt lat="44.583735" lon="9.4202133"><ele>647.0</ele><time>2026-03-28T16:02:18.017Z</time></trkpt><trkpt lat="44.583875" lon="9.4201267"><ele>648.0</ele><time>2026-03-28T16:02:19.017Z</time></trkpt><trkpt lat="44.5840067" lon="9.420035"><ele>648.0</ele><time>2026-03-28T16:02:20.016Z</time></trkpt><trkpt lat="44.5841267" lon="9.4199283"><ele>648.0</ele><time>2026-03-28T16:02:21.016Z</time></trkpt><trkpt lat="44.5842433" lon="9.4198283"><ele>648.0</ele><time>2026-03-28T16:02:22.017Z</time></trkpt><trkpt lat="44.5843633" lon="9.4197317"><ele>648.0</ele><time>2026-03-28T16:02:23.016Z</time></trkpt><trkpt lat="44.5844783" lon="9.4196633"><ele>643.25</ele><time>2026-03-28T16:02:24.017Z</time></trkpt><trkpt lat="44.5846067" lon="9.4196217"><ele>638.5</ele><time>2026-03-28T16:02:25.017Z</time></trkpt><trkpt lat="44.584745" lon="9.4195883"><ele>633.75</ele><time>2026-03-28T16:02:26.017Z</time></trkpt><trkpt lat="44.5848817" lon="9.4195983"><ele>629.0</ele><time>2026-03-28T16:02:27.017Z</time></trkpt><trkpt lat="44.5850083" lon="9.4196433"><ele>628.0</ele><time>2026-03-28T16:02:28.017Z</time></trkpt><trkpt lat="44.5851267" lon="9.4197"><ele>627.0</ele><time>2026-03-28T16:02:29.017Z</time></trkpt><trkpt lat="44.585245" lon="9.419765"><ele>626.0</ele><time>2026-03-28T16:02:30.017Z</time></trkpt><trkpt lat="44.58536" lon="9.41984"><ele>625.0</ele><time>2026-03-28T16:02:31.017Z</time></trkpt><trkpt lat="44.58547" lon="9.4199267"><ele>625.0</ele><time>2026-03-28T16:02:32.017Z</time></trkpt><trkpt lat="44.5855483" lon="9.42006"><ele>625.0</ele><time>2026-03-28T16:02:33.016Z</time></trkpt><trkpt lat="44.5856217" lon="9.4202083"><ele>625.0</ele><time>2026-03-28T16:02:34.017Z</time></trkpt><trkpt lat="44.5857283" lon="9.4203267"><ele>625.0</ele><time>2026-03-28T16:02:35.016Z</time></trkpt><trkpt lat="44.5858367" lon="9.42041"><ele>629.75</ele><time>2026-03-28T16:02:36.017Z</time></trkpt><trkpt lat="44.5859533" lon="9.420485"><ele>634.5</ele><time>2026-03-28T16:02:37.017Z</time></trkpt><trkpt lat="44.5860667" lon="9.4205617"><ele>639.25</ele><time>2026-03-28T16:02:38.017Z</time></trkpt><trkpt lat="44.586175" lon="9.4206367"><ele>644.0</ele><time>2026-03-28T16:02:39.017Z</time></trkpt><trkpt lat="44.58628" lon="9.4207033"><ele>644.0</ele><time>2026-03-28T16:02:40.017Z</time></trkpt><trkpt lat="44.5863617" lon="9.420775"><ele>644.0</ele><time>2026-03-28T16:02:41.016Z</time></trkpt><trkpt lat="44.586435" lon="9.42084"><ele>644.0</ele><time>2026-03-28T16:02:42.017Z</time></trkpt><trkpt lat="44.5865033" lon="9.4208667"><ele>644.0</ele><time>2026-03-28T16:02:43.017Z</time></trkpt><trkpt lat="44.5866133" lon="9.4209067"><ele>644.0</ele><time>2026-03-28T16:02:45.016Z</time></trkpt><trkpt lat="44.58668" lon="9.4209233"><ele>644.0</ele><time>2026-03-28T16:02:47.017Z</time></trkpt><trkpt lat="44.5867567" lon="9.4209517"><ele>644.0</ele><time>2026-03-28T16:02:51.017Z</time></trkpt><trkpt lat="44.586695" lon="9.42091"><ele>644.0</ele><time>2026-03-28T16:03:05.017Z</time></trkpt><trkpt lat="44.5866167" lon="9.4208833"><ele>644.0</ele><time>2026-03-28T16:03:07.017Z</time></trkpt><trkpt lat="44.5865567" lon="9.4208533"><ele>644.0</ele><time>2026-03-28T16:03:19.017Z</time></trkpt><trkpt lat="44.586445" lon="9.420805"><ele>644.0</ele><time>2026-03-28T16:03:21.017Z</time></trkpt><trkpt lat="44.5863783" lon="9.4207717"><ele>644.0</ele><time>2026-03-28T16:03:22.016Z</time></trkpt><trkpt lat="44.586315" lon="9.4207183"><ele>644.0</ele><time>2026-03-28T16:03:23.016Z</time></trkpt><trkpt lat="44.5862333" lon="9.4206533"><ele>644.0</ele><time>2026-03-28T16:03:24.017Z</time></trkpt><trkpt lat="44.5861583" lon="9.4205817"><ele>644.0</ele><time>2026-03-28T16:03:25.017Z</time></trkpt><trkpt lat="44.5860717" lon="9.4205183"><ele>644.0</ele><time>2026-03-28T16:03:26.017Z</time></trkpt><trkpt lat="44.5859767" lon="9.4204733"><ele>644.0</ele><time>2026-03-28T16:03:27.017Z</time></trkpt><trkpt lat="44.5858883" lon="9.4204283"><ele>640.2</ele><time>2026-03-28T16:03:28.017Z</time></trkpt><trkpt lat="44.5857933" lon="9.4203667"><ele>636.4000000000001</ele><time>2026-03-28T16:03:29.016Z</time></trkpt><trkpt lat="44.5857017" lon="9.4203033"><ele>632.6</ele><time>2026-03-28T16:03:30.017Z</time></trkpt><trkpt lat="44.5856083" lon="9.420225"><ele>628.8</ele><time>2026-03-28T16:03:31.017Z</time></trkpt><trkpt lat="44.5855217" lon="9.420145"><ele>625.0</ele><time>2026-03-28T16:03:32.016Z</time></trkpt><trkpt lat="44.5854333" lon="9.4200583"><ele>625.0</ele><time>2026-03-28T16:03:33.017Z</time></trkpt><trkpt lat="44.5853483" lon="9.4199767"><ele>625.0</ele><time>2026-03-28T16:03:34.017Z</time></trkpt><trkpt lat="44.5852433" lon="9.419915"><ele>625.0</ele><time>2026-03-28T16:03:35.017Z</time></trkpt><trkpt lat="44.585125" lon="9.4198733"><ele>625.0</ele><time>2026-03-28T16:03:36.017Z</time></trkpt><trkpt lat="44.58501" lon="9.4198433"><ele>631.75</ele><time>2026-03-28T16:03:37.017Z</time></trkpt><trkpt lat="44.5848917" lon="9.4198217"><ele>638.5</ele><time>2026-03-28T16:03:38.017Z</time></trkpt><trkpt lat="44.58477" lon="9.4197967"><ele>645.25</ele><time>2026-03-28T16:03:39.017Z</time></trkpt><trkpt lat="44.5846583" lon="9.4198183"><ele>652.0</ele><time>2026-03-28T16:03:40.017Z</time></trkpt><trkpt lat="44.5845433" lon="9.41982"><ele>651.2</ele><time>2026-03-28T16:03:41.017Z</time></trkpt><trkpt lat="44.5844417" lon="9.41984"><ele>650.4000000000001</ele><time>2026-03-28T16:03:42.017Z</time></trkpt><trkpt lat="44.58434" lon="9.4198817"><ele>649.5999999999999</ele><time>2026-03-28T16:03:43.017Z</time></trkpt><trkpt lat="44.5842383" lon="9.4199483"><ele>648.8</ele><time>2026-03-28T16:03:44.017Z</time></trkpt><trkpt lat="44.58414" lon="9.4200383"><ele>648.0</ele><time>2026-03-28T16:03:45.016Z</time></trkpt><trkpt lat="44.5840367" lon="9.4201333"><ele>648.0</ele><time>2026-03-28T16:03:46.017Z</time></trkpt><trkpt lat="44.5839383" lon="9.4202283"><ele>648.0</ele><time>2026-03-28T16:03:47.017Z</time></trkpt><trkpt lat="44.58383" lon="9.42031"><ele>648.0</ele><time>2026-03-28T16:03:48.017Z</time></trkpt><trkpt lat="44.5837217" lon="9.4203917"><ele>648.0</ele><time>2026-03-28T16:03:49.017Z</time></trkpt><trkpt lat="44.5836067" lon="9.4204517"><ele>647.2</ele><time>2026-03-28T16:03:50.017Z</time></trkpt><trkpt lat="44.5834867" lon="9.4205083"><ele>646.4</ele><time>2026-03-28T16:03:51.017Z</time></trkpt><trkpt lat="44.5833783" lon="9.4205717"><ele>645.6</ele><time>2026-03-28T16:03:52.017Z</time></trkpt><trkpt lat="44.5832867" lon="9.420605"><ele>644.8000000000001</ele><time>2026-03-28T16:03:53.017Z</time></trkpt><trkpt lat="44.583215" lon="9.4206617"><ele>644.0</ele><time>2026-03-28T16:03:54.017Z</time></trkpt><trkpt lat="44.5831517" lon="9.4207683"><ele>644.0</ele><time>2026-03-28T16:03:55.017Z</time></trkpt><trkpt lat="44.5831067" lon="9.4209"><ele>644.0</ele><time>2026-03-28T16:03:56.017Z</time></trkpt><trkpt lat="44.5830617" lon="9.42105"><ele>644.0</ele><time>2026-03-28T16:03:57.016Z</time></trkpt><trkpt lat="44.5830167" lon="9.4212067"><ele>644.0</ele><time>2026-03-28T16:03:58.017Z</time></trkpt><trkpt lat="44.58296" lon="9.4213683"><ele>645.5</ele><time>2026-03-28T16:03:59.017Z</time></trkpt><trkpt lat="44.5828917" lon="9.4215333"><ele>647.0</ele><time>2026-03-28T16:04:00.017Z</time></trkpt><trkpt lat="44.582815" lon="9.4217017"><ele>648.5</ele><time>2026-03-28T16:04:01.017Z</time></trkpt><trkpt lat="44.5827417" lon="9.4218633"><ele>650.0</ele><time>2026-03-28T16:04:02.016Z</time></trkpt><trkpt lat="44.5826733" lon="9.4219933"><ele>650.0</ele><time>2026-03-28T16:04:03.018Z</time></trkpt><trkpt lat="44.5826017" lon="9.4221167"><ele>650.0</ele><time>2026-03-28T16:04:04.018Z</time></trkpt><trkpt lat="44.5825083" lon="9.4222333"><ele>650.0</ele><time>2026-03-28T16:04:05.018Z</time></trkpt><trkpt lat="44.5824117" lon="9.42231"><ele>650.0</ele><time>2026-03-28T16:04:06.018Z</time></trkpt><trkpt lat="44.5823217" lon="9.42241"><ele>654.8</ele><time>2026-03-28T16:04:07.018Z</time></trkpt><trkpt lat="44.5822417" lon="9.422535"><ele>659.6</ele><time>2026-03-28T16:04:08.018Z</time></trkpt><trkpt lat="44.58218" lon="9.4226567"><ele>664.4000000000001</ele><time>2026-03-28T16:04:09.018Z</time></trkpt><trkpt lat="44.5821" lon="9.422745"><ele>669.2</ele><time>2026-03-28T16:04:10.018Z</time></trkpt><trkpt lat="44.582005" lon="9.4228083"><ele>674.0</ele><time>2026-03-28T16:04:11.018Z</time></trkpt><trkpt lat="44.5819117" lon="9.4228333"><ele>674.0</ele><time>2026-03-28T16:04:12.018Z</time></trkpt><trkpt lat="44.58181" lon="9.4228317"><ele>674.0</ele><time>2026-03-28T16:04:13.018Z</time></trkpt><trkpt lat="44.5816617" lon="9.4226583"><ele>674.0</ele><time>2026-03-28T16:04:14.018Z</time></trkpt><trkpt lat="44.5815783" lon="9.422555"><ele>674.0</ele><time>2026-03-28T16:04:15.017Z</time></trkpt><trkpt lat="44.5814883" lon="9.4225167"><ele>674.0</ele><time>2026-03-28T16:04:16.018Z</time></trkpt><trkpt lat="44.581385" lon="9.42251"><ele>674.0</ele><time>2026-03-28T16:04:17.018Z</time></trkpt><trkpt lat="44.5812667" lon="9.42254"><ele>674.0</ele><time>2026-03-28T16:04:18.018Z</time></trkpt><trkpt lat="44.5811467" lon="9.4225633"><ele>674.0</ele><time>2026-03-28T16:04:19.018Z</time></trkpt><trkpt lat="44.5810333" lon="9.4225617"><ele>675.2</ele><time>2026-03-28T16:04:20.018Z</time></trkpt><trkpt lat="44.5809233" lon="9.4225183"><ele>676.4000000000001</ele><time>2026-03-28T16:04:21.018Z</time></trkpt><trkpt lat="44.58082" lon="9.422465"><ele>677.6</ele><time>2026-03-28T16:04:22.018Z</time></trkpt><trkpt lat="44.580725" lon="9.4224233"><ele>678.8</ele><time>2026-03-28T16:04:23.018Z</time></trkpt><trkpt lat="44.5806233" lon="9.4224083"><ele>680.0</ele><time>2026-03-28T16:04:24.018Z</time></trkpt><trkpt lat="44.5805133" lon="9.4224333"><ele>680.0</ele><time>2026-03-28T16:04:25.018Z</time></trkpt><trkpt lat="44.5803883" lon="9.4224633"><ele>680.0</ele><time>2026-03-28T16:04:26.017Z</time></trkpt><trkpt lat="44.58027" lon="9.4224933"><ele>680.0</ele><time>2026-03-28T16:04:27.018Z</time></trkpt><trkpt lat="44.5801367" lon="9.4225367"><ele>680.0</ele><time>2026-03-28T16:04:28.018Z</time></trkpt><trkpt lat="44.5799983" lon="9.4225733"><ele>681.5</ele><time>2026-03-28T16:04:29.018Z</time></trkpt><trkpt lat="44.57986" lon="9.4226117"><ele>683.0</ele><time>2026-03-28T16:04:30.018Z</time></trkpt><trkpt lat="44.5797217" lon="9.42265"><ele>684.5</ele><time>2026-03-28T16:04:31.018Z</time></trkpt><trkpt lat="44.5795933" lon="9.4226867"><ele>686.0</ele><time>2026-03-28T16:04:32.018Z</time></trkpt><trkpt lat="44.57947" lon="9.42273"><ele>688.6666666666666</ele><time>2026-03-28T16:04:33.018Z</time></trkpt><trkpt lat="44.5793467" lon="9.42277"><ele>691.3333333333334</ele><time>2026-03-28T16:04:34.018Z</time></trkpt><trkpt lat="44.5792833" lon="9.4227533"><ele>694.0</ele><time>2026-03-28T16:04:35.017Z</time></trkpt><trkpt lat="44.57889" lon="9.422825"><ele>694.0</ele><time>2026-03-28T16:04:38.011Z</time></trkpt><trkpt lat="44.5787567" lon="9.4228467"><ele>694.0</ele><time>2026-03-28T16:04:39.011Z</time></trkpt><trkpt lat="44.5786333" lon="9.423065"><ele>694.0</ele><time>2026-03-28T16:04:40.011Z</time></trkpt><trkpt lat="44.5785267" lon="9.4232583"><ele>687.0</ele><time>2026-03-28T16:04:41.011Z</time></trkpt><trkpt lat="44.5784583" lon="9.4233717"><ele>680.0</ele><time>2026-03-28T16:04:42.011Z</time></trkpt><trkpt lat="44.5783767" lon="9.42352"><ele>673.0</ele><time>2026-03-28T16:04:43.011Z</time></trkpt><trkpt lat="44.5782767" lon="9.42367"><ele>666.0</ele><time>2026-03-28T16:04:44.011Z</time></trkpt><trkpt lat="44.5781533" lon="9.4237967"><ele>664.0</ele><time>2026-03-28T16:04:45.011Z</time></trkpt><trkpt lat="44.5780183" lon="9.423915"><ele>662.0</ele><time>2026-03-28T16:04:46.011Z</time></trkpt><trkpt lat="44.5778717" lon="9.4239983"><ele>660.0</ele><time>2026-03-28T16:04:47.01Z</time></trkpt><trkpt lat="44.5777283" lon="9.424095"><ele>660.0</ele><time>2026-03-28T16:04:48.011Z</time></trkpt><trkpt lat="44.5775867" lon="9.4242067"><ele>660.0</ele><time>2026-03-28T16:04:49.011Z</time></trkpt><trkpt lat="44.5774833" lon="9.4243083"><ele>660.0</ele><time>2026-03-28T16:04:50.011Z</time></trkpt><trkpt lat="44.5773583" lon="9.4243967"><ele>660.0</ele><time>2026-03-28T16:04:51.01Z</time></trkpt><trkpt lat="44.5772383" lon="9.4244283"><ele>660.0</ele><time>2026-03-28T16:04:52.011Z</time></trkpt><trkpt lat="44.5771417" lon="9.4244317"><ele>660.0</ele><time>2026-03-28T16:04:53.01Z</time></trkpt><trkpt lat="44.5770583" lon="9.4244867"><ele>660.0</ele><time>2026-03-28T16:04:54.011Z</time></trkpt><trkpt lat="44.5769933" lon="9.4245517"><ele>660.0</ele><time>2026-03-28T16:04:55.011Z</time></trkpt><trkpt lat="44.5769267" lon="9.4246483"><ele>660.0</ele><time>2026-03-28T16:04:56.011Z</time></trkpt><trkpt lat="44.576865" lon="9.4247567"><ele>663.2</ele><time>2026-03-28T16:04:57.011Z</time></trkpt><trkpt lat="44.576795" lon="9.4248417"><ele>666.4</ele><time>2026-03-28T16:04:58.011Z</time></trkpt><trkpt lat="44.5767133" lon="9.4248833"><ele>669.5999999999999</ele><time>2026-03-28T16:04:59.011Z</time></trkpt><trkpt lat="44.5766117" lon="9.4248817"><ele>672.8</ele><time>2026-03-28T16:05:00.01Z</time></trkpt><trkpt lat="44.5765117" lon="9.4248467"><ele>676.0</ele><time>2026-03-28T16:05:01.011Z</time></trkpt><trkpt lat="44.5764167" lon="9.4247883"><ele>676.0</ele><time>2026-03-28T16:05:02.011Z</time></trkpt><trkpt lat="44.5763283" lon="9.4247433"><ele>676.0</ele><time>2026-03-28T16:05:03.011Z</time></trkpt><trkpt lat="44.5762433" lon="9.424725"><ele>676.0</ele><time>2026-03-28T16:05:04.011Z</time></trkpt><trkpt lat="44.5761533" lon="9.424745"><ele>676.0</ele><time>2026-03-28T16:05:05.011Z</time></trkpt><trkpt lat="44.576065" lon="9.424815"><ele>676.0</ele><time>2026-03-28T16:05:06.011Z</time></trkpt><trkpt lat="44.57597" lon="9.4248967"><ele>670.25</ele><time>2026-03-28T16:05:07.011Z</time></trkpt><trkpt lat="44.5758667" lon="9.424995"><ele>664.5</ele><time>2026-03-28T16:05:08.011Z</time></trkpt><trkpt lat="44.575765" lon="9.42509"><ele>658.75</ele><time>2026-03-28T16:05:09.01Z</time></trkpt><trkpt lat="44.575665" lon="9.4251917"><ele>653.0</ele><time>2026-03-28T16:05:10.011Z</time></trkpt><trkpt lat="44.5755783" lon="9.42525"><ele>653.0</ele><time>2026-03-28T16:05:11.011Z</time></trkpt><trkpt lat="44.5755" lon="9.4253033"><ele>653.0</ele><time>2026-03-28T16:05:12.01Z</time></trkpt><trkpt lat="44.5754283" lon="9.4253183"><ele>653.0</ele><time>2026-03-28T16:05:13.011Z</time></trkpt><trkpt lat="44.5753617" lon="9.4253033"><ele>653.0</ele><time>2026-03-28T16:05:14.011Z</time></trkpt><trkpt lat="44.575295" lon="9.4252467"><ele>653.0</ele><time>2026-03-28T16:05:15.011Z</time></trkpt><trkpt lat="44.5752283" lon="9.4251333"><ele>653.0</ele><time>2026-03-28T16:05:16.011Z</time></trkpt><trkpt lat="44.575165" lon="9.4249733"><ele>654.25</ele><time>2026-03-28T16:05:17.011Z</time></trkpt><trkpt lat="44.575105" lon="9.42477"><ele>655.5</ele><time>2026-03-28T16:05:18.011Z</time></trkpt><trkpt lat="44.5750467" lon="9.4245733"><ele>656.75</ele><time>2026-03-28T16:05:19.011Z</time></trkpt><trkpt lat="44.5749767" lon="9.4244167"><ele>658.0</ele><time>2026-03-28T16:05:20.01Z</time></trkpt><trkpt lat="44.5749" lon="9.4242617"><ele>660.2</ele><time>2026-03-28T16:05:21.01Z</time></trkpt><trkpt lat="44.574825" lon="9.424125"><ele>662.4</ele><time>2026-03-28T16:05:22.011Z</time></trkpt><trkpt lat="44.5747617" lon="9.4239917"><ele>664.6</ele><time>2026-03-28T16:05:23.01Z</time></trkpt><trkpt lat="44.5746983" lon="9.42388"><ele>666.8000000000001</ele><time>2026-03-28T16:05:24.011Z</time></trkpt><trkpt lat="44.5746133" lon="9.4237867"><ele>669.0</ele><time>2026-03-28T16:05:25.011Z</time></trkpt><trkpt lat="44.5745167" lon="9.4237067"><ele>671.75</ele><time>2026-03-28T16:05:26.011Z</time></trkpt><trkpt lat="44.574415" lon="9.4236133"><ele>674.5</ele><time>2026-03-28T16:05:27.011Z</time></trkpt><trkpt lat="44.5743233" lon="9.42352"><ele>677.25</ele><time>2026-03-28T16:05:28.011Z</time></trkpt><trkpt lat="44.5742317" lon="9.4234133"><ele>680.0</ele><time>2026-03-28T16:05:29.011Z</time></trkpt><trkpt lat="44.57413" lon="9.4233"><ele>680.0</ele><time>2026-03-28T16:05:30.011Z</time></trkpt><trkpt lat="44.5740367" lon="9.423185"><ele>680.0</ele><time>2026-03-28T16:05:31.011Z</time></trkpt><trkpt lat="44.5739333" lon="9.423065"><ele>680.0</ele><time>2026-03-28T16:05:32.011Z</time></trkpt><trkpt lat="44.5738283" lon="9.4229667"><ele>680.0</ele><time>2026-03-28T16:05:33.011Z</time></trkpt><trkpt lat="44.573735" lon="9.4228733"><ele>684.0</ele><time>2026-03-28T16:05:34.011Z</time></trkpt><trkpt lat="44.5736467" lon="9.422755"><ele>688.0</ele><time>2026-03-28T16:05:35.011Z</time></trkpt><trkpt lat="44.5735833" lon="9.4226167"><ele>692.0</ele><time>2026-03-28T16:05:36.01Z</time></trkpt><trkpt lat="44.5735267" lon="9.4224733"><ele>696.0</ele><time>2026-03-28T16:05:37.011Z</time></trkpt><trkpt lat="44.57346" lon="9.4223367"><ele>696.0</ele><time>2026-03-28T16:05:38.01Z</time></trkpt><trkpt lat="44.57337" lon="9.4222317"><ele>696.0</ele><time>2026-03-28T16:05:39.011Z</time></trkpt><trkpt lat="44.5732733" lon="9.4221533"><ele>696.0</ele><time>2026-03-28T16:05:40.011Z</time></trkpt><trkpt lat="44.5731667" lon="9.4220833"><ele>696.0</ele><time>2026-03-28T16:05:41.011Z</time></trkpt><trkpt lat="44.5730533" lon="9.422005"><ele>696.5</ele><time>2026-03-28T16:05:42.011Z</time></trkpt><trkpt lat="44.57294" lon="9.421915"><ele>697.0</ele><time>2026-03-28T16:05:43.011Z</time></trkpt><trkpt lat="44.5728283" lon="9.4218117"><ele>697.5</ele><time>2026-03-28T16:05:44.011Z</time></trkpt><trkpt lat="44.5727317" lon="9.4217017"><ele>698.0</ele><time>2026-03-28T16:05:45.011Z</time></trkpt><trkpt lat="44.5726417" lon="9.4215833"><ele>698.0</ele><time>2026-03-28T16:05:46.011Z</time></trkpt><trkpt lat="44.572545" lon="9.4214833"><ele>698.0</ele><time>2026-03-28T16:05:47.011Z</time></trkpt><trkpt lat="44.572445" lon="9.4214033"><ele>698.0</ele><time>2026-03-28T16:05:48.01Z</time></trkpt><trkpt lat="44.572335" lon="9.42135"><ele>698.0</ele><time>2026-03-28T16:05:49.011Z</time></trkpt><trkpt lat="44.5722233" lon="9.4213"><ele>696.0</ele><time>2026-03-28T16:05:50.011Z</time></trkpt><trkpt lat="44.5721083" lon="9.4212383"><ele>694.0</ele><time>2026-03-28T16:05:51.011Z</time></trkpt><trkpt lat="44.571985" lon="9.4211583"><ele>692.0</ele><time>2026-03-28T16:05:52.011Z</time></trkpt><trkpt lat="44.571865" lon="9.42107"><ele>690.0</ele><time>2026-03-28T16:05:53.011Z</time></trkpt><trkpt lat="44.5717417" lon="9.4209833"><ele>690.0</ele><time>2026-03-28T16:05:54.011Z</time></trkpt><trkpt lat="44.5716267" lon="9.4208967"><ele>690.0</ele><time>2026-03-28T16:05:55.011Z</time></trkpt><trkpt lat="44.5715067" lon="9.42081"><ele>690.0</ele><time>2026-03-28T16:05:56.011Z</time></trkpt><trkpt lat="44.5713883" lon="9.4207317"><ele>690.0</ele><time>2026-03-28T16:05:57.01Z</time></trkpt><trkpt lat="44.5712733" lon="9.4206567"><ele>693.25</ele><time>2026-03-28T16:05:58.011Z</time></trkpt><trkpt lat="44.571145" lon="9.420605"><ele>696.5</ele><time>2026-03-28T16:05:59.011Z</time></trkpt><trkpt lat="44.5710067" lon="9.4205767"><ele>699.75</ele><time>2026-03-28T16:06:00.011Z</time></trkpt><trkpt lat="44.5708717" lon="9.4205517"><ele>703.0</ele><time>2026-03-28T16:06:01.011Z</time></trkpt><trkpt lat="44.570745" lon="9.420535"><ele>703.0</ele><time>2026-03-28T16:06:02.011Z</time></trkpt><trkpt lat="44.5706117" lon="9.4205517"><ele>703.0</ele><time>2026-03-28T16:06:03.011Z</time></trkpt><trkpt lat="44.57049" lon="9.4205517"><ele>703.0</ele><time>2026-03-28T16:06:04.011Z</time></trkpt><trkpt lat="44.5703833" lon="9.4205383"><ele>703.0</ele><time>2026-03-28T16:06:05.01Z</time></trkpt><trkpt lat="44.5702867" lon="9.42049"><ele>697.0</ele><time>2026-03-28T16:06:06.011Z</time></trkpt><trkpt lat="44.5701967" lon="9.4203867"><ele>691.0</ele><time>2026-03-28T16:06:07.011Z</time></trkpt><trkpt lat="44.57008" lon="9.420275"><ele>685.0</ele><time>2026-03-28T16:06:08.011Z</time></trkpt><trkpt lat="44.5699617" lon="9.4201783"><ele>679.0</ele><time>2026-03-28T16:06:09.01Z</time></trkpt><trkpt lat="44.5698383" lon="9.4201017"><ele>679.0</ele><time>2026-03-28T16:06:10.011Z</time></trkpt><trkpt lat="44.5697167" lon="9.420025"><ele>679.0</ele><time>2026-03-28T16:06:11.011Z</time></trkpt><trkpt lat="44.56961" lon="9.4199567"><ele>679.0</ele><time>2026-03-28T16:06:12.011Z</time></trkpt><trkpt lat="44.5695167" lon="9.4198717"><ele>679.0</ele><time>2026-03-28T16:06:13.011Z</time></trkpt><trkpt lat="44.5694567" lon="9.41977"><ele>677.6</ele><time>2026-03-28T16:06:14.011Z</time></trkpt><trkpt lat="44.569415" lon="9.41969"><ele>676.2</ele><time>2026-03-28T16:06:15.011Z</time></trkpt><trkpt lat="44.5693517" lon="9.419635"><ele>674.8000000000001</ele><time>2026-03-28T16:06:16.011Z</time></trkpt><trkpt lat="44.56925" lon="9.4196017"><ele>673.4000000000001</ele><time>2026-03-28T16:06:17.011Z</time></trkpt><trkpt lat="44.5691467" lon="9.4195783"><ele>672.0</ele><time>2026-03-28T16:06:18.01Z</time></trkpt><trkpt lat="44.56904" lon="9.419575"><ele>672.0</ele><time>2026-03-28T16:06:19.011Z</time></trkpt><trkpt lat="44.5689183" lon="9.4195533"><ele>672.0</ele><time>2026-03-28T16:06:20.011Z</time></trkpt><trkpt lat="44.5688017" lon="9.4195083"><ele>672.0</ele><time>2026-03-28T16:06:21.011Z</time></trkpt><trkpt lat="44.5686967" lon="9.4194483"><ele>672.0</ele><time>2026-03-28T16:06:22.011Z</time></trkpt><trkpt lat="44.5686033" lon="9.4193583"><ele>675.0</ele><time>2026-03-28T16:06:23.011Z</time></trkpt><trkpt lat="44.5685183" lon="9.41926"><ele>678.0</ele><time>2026-03-28T16:06:24.011Z</time></trkpt><trkpt lat="44.5684167" lon="9.4191567"><ele>681.0</ele><time>2026-03-28T16:06:25.011Z</time></trkpt><trkpt lat="44.5683083" lon="9.4190467"><ele>684.0</ele><time>2026-03-28T16:06:26.01Z</time></trkpt><trkpt lat="44.5681867" lon="9.418935"><ele>684.0</ele><time>2026-03-28T16:06:27.011Z</time></trkpt><trkpt lat="44.5680733" lon="9.4188417"><ele>684.0</ele><time>2026-03-28T16:06:28.011Z</time></trkpt><trkpt lat="44.5679767" lon="9.4187517"><ele>684.0</ele><time>2026-03-28T16:06:29.011Z</time></trkpt><trkpt lat="44.567885" lon="9.418675"><ele>684.0</ele><time>2026-03-28T16:06:30.011Z</time></trkpt><trkpt lat="44.5677733" lon="9.4186667"><ele>683.2</ele><time>2026-03-28T16:06:31.01Z</time></trkpt><trkpt lat="44.5676517" lon="9.41867"><ele>682.4000000000001</ele><time>2026-03-28T16:06:32.011Z</time></trkpt><trkpt lat="44.5675417" lon="9.41871"><ele>681.6</ele><time>2026-03-28T16:06:33.011Z</time></trkpt><trkpt lat="44.5674467" lon="9.41876"><ele>680.8</ele><time>2026-03-28T16:06:34.011Z</time></trkpt><trkpt lat="44.5673667" lon="9.418775"><ele>680.0</ele><time>2026-03-28T16:06:35.011Z</time></trkpt><trkpt lat="44.5672967" lon="9.418815"><ele>680.0</ele><time>2026-03-28T16:06:36.011Z</time></trkpt><trkpt lat="44.56722" lon="9.4188183"><ele>680.0</ele><time>2026-03-28T16:06:37.011Z</time></trkpt><trkpt lat="44.567145" lon="9.4187917"><ele>680.0</ele><time>2026-03-28T16:06:38.01Z</time></trkpt><trkpt lat="44.5670667" lon="9.4187533"><ele>680.0</ele><time>2026-03-28T16:06:39.011Z</time></trkpt><trkpt lat="44.5669867" lon="9.4186883"><ele>680.0</ele><time>2026-03-28T16:06:40.011Z</time></trkpt><trkpt lat="44.56693" lon="9.41859"><ele>680.0</ele><time>2026-03-28T16:06:41.011Z</time></trkpt><trkpt lat="44.5668883" lon="9.4184617"><ele>688.25</ele><time>2026-03-28T16:06:42.011Z</time></trkpt><trkpt lat="44.5668833" lon="9.4183167"><ele>696.5</ele><time>2026-03-28T16:06:43.011Z</time></trkpt><trkpt lat="44.5668967" lon="9.4181617"><ele>704.75</ele><time>2026-03-28T16:06:44.011Z</time></trkpt><trkpt lat="44.56693" lon="9.4179867"><ele>713.0</ele><time>2026-03-28T16:06:45.011Z</time></trkpt><trkpt lat="44.5669683" lon="9.417835"><ele>713.0</ele><time>2026-03-28T16:06:46.011Z</time></trkpt><trkpt lat="44.5669617" lon="9.41768"><ele>713.0</ele><time>2026-03-28T16:06:47.011Z</time></trkpt><trkpt lat="44.5669383" lon="9.417535"><ele>713.0</ele><time>2026-03-28T16:06:48.011Z</time></trkpt><trkpt lat="44.5668967" lon="9.4174"><ele>713.0</ele><time>2026-03-28T16:06:49.011Z</time></trkpt><trkpt lat="44.5668517" lon="9.4172517"><ele>713.0</ele><time>2026-03-28T16:06:50.011Z</time></trkpt><trkpt lat="44.5668167" lon="9.4170933"><ele>708.5999999999999</ele><time>2026-03-28T16:06:51.01Z</time></trkpt><trkpt lat="44.5667917" lon="9.4169317"><ele>704.1999999999999</ele><time>2026-03-28T16:06:52.011Z</time></trkpt><trkpt lat="44.5667633" lon="9.4167867"><ele>699.8</ele><time>2026-03-28T16:06:53.011Z</time></trkpt><trkpt lat="44.5667117" lon="9.41666"><ele>695.4</ele><time>2026-03-28T16:06:54.011Z</time></trkpt><trkpt lat="44.5666383" lon="9.4165567"><ele>691.0</ele><time>2026-03-28T16:06:55.01Z</time></trkpt><trkpt lat="44.5665417" lon="9.4164833"><ele>691.0</ele><time>2026-03-28T16:06:56.011Z</time></trkpt><trkpt lat="44.566435" lon="9.41642"><ele>691.0</ele><time>2026-03-28T16:06:57.011Z</time></trkpt><trkpt lat="44.5663283" lon="9.4163733"><ele>691.0</ele><time>2026-03-28T16:06:58.011Z</time></trkpt><trkpt lat="44.56623" lon="9.4163517"><ele>691.0</ele><time>2026-03-28T16:06:59.011Z</time></trkpt><trkpt lat="44.5661367" lon="9.41636"><ele>691.0</ele><time>2026-03-28T16:07:00.011Z</time></trkpt><trkpt lat="44.5660483" lon="9.4164083"><ele>688.25</ele><time>2026-03-28T16:07:01.011Z</time></trkpt><trkpt lat="44.5659583" lon="9.416485"><ele>685.5</ele><time>2026-03-28T16:07:02.011Z</time></trkpt><trkpt lat="44.5658633" lon="9.4165933"><ele>682.75</ele><time>2026-03-28T16:07:03.011Z</time></trkpt><trkpt lat="44.565765" lon="9.41672"><ele>680.0</ele><time>2026-03-28T16:07:04.011Z</time></trkpt><trkpt lat="44.56566" lon="9.4168517"><ele>680.0</ele><time>2026-03-28T16:07:05.011Z</time></trkpt><trkpt lat="44.5655733" lon="9.4169967"><ele>680.0</ele><time>2026-03-28T16:07:06.011Z</time></trkpt><trkpt lat="44.5654933" lon="9.4171583"><ele>680.0</ele><time>2026-03-28T16:07:07.011Z</time></trkpt><trkpt lat="44.5654267" lon="9.4173167"><ele>680.0</ele><time>2026-03-28T16:07:08.01Z</time></trkpt><trkpt lat="44.565305" lon="9.4174367"><ele>679.0</ele><time>2026-03-28T16:07:09.011Z</time></trkpt><trkpt lat="44.5652467" lon="9.4175633"><ele>678.0</ele><time>2026-03-28T16:07:10.011Z</time></trkpt><trkpt lat="44.5651617" lon="9.4176267"><ele>677.0</ele><time>2026-03-28T16:07:11.011Z</time></trkpt><trkpt lat="44.5650833" lon="9.4176533"><ele>676.0</ele><time>2026-03-28T16:07:12.011Z</time></trkpt><trkpt lat="44.5649967" lon="9.4176567"><ele>675.0</ele><time>2026-03-28T16:07:13.011Z</time></trkpt><trkpt lat="44.5649017" lon="9.41764"><ele>675.0</ele><time>2026-03-28T16:07:14.011Z</time></trkpt><trkpt lat="44.564805" lon="9.4176617"><ele>675.0</ele><time>2026-03-28T16:07:15.011Z</time></trkpt><trkpt lat="44.56471" lon="9.41771"><ele>675.0</ele><time>2026-03-28T16:07:16.011Z</time></trkpt><trkpt lat="44.56461" lon="9.4178017"><ele>675.0</ele><time>2026-03-28T16:07:17.011Z</time></trkpt><trkpt lat="44.5645083" lon="9.41791"><ele>675.0</ele><time>2026-03-28T16:07:18.011Z</time></trkpt><trkpt lat="44.5644067" lon="9.418025"><ele>680.5</ele><time>2026-03-28T16:07:19.011Z</time></trkpt><trkpt lat="44.5643033" lon="9.4181367"><ele>686.0</ele><time>2026-03-28T16:07:20.011Z</time></trkpt><trkpt lat="44.564215" lon="9.41825"><ele>691.5</ele><time>2026-03-28T16:07:21.011Z</time></trkpt><trkpt lat="44.5641217" lon="9.4183433"><ele>697.0</ele><time>2026-03-28T16:07:22.011Z</time></trkpt><trkpt lat="44.5640333" lon="9.4184133"><ele>697.0</ele><time>2026-03-28T16:07:23.011Z</time></trkpt><trkpt lat="44.5639367" lon="9.4184517"><ele>697.0</ele><time>2026-03-28T16:07:24.011Z</time></trkpt><trkpt lat="44.5638367" lon="9.41844"><ele>697.0</ele><time>2026-03-28T16:07:25.011Z</time></trkpt><trkpt lat="44.5637417" lon="9.4183883"><ele>697.0</ele><time>2026-03-28T16:07:26.011Z</time></trkpt><trkpt lat="44.5636367" lon="9.4182933"><ele>697.0</ele><time>2026-03-28T16:07:27.011Z</time></trkpt><trkpt lat="44.56353" lon="9.4182433"><ele>699.2</ele><time>2026-03-28T16:07:28.011Z</time></trkpt><trkpt lat="44.5634217" lon="9.4182133"><ele>701.4000000000001</ele><time>2026-03-28T16:07:29.011Z</time></trkpt><trkpt lat="44.56331" lon="9.4182083"><ele>703.5999999999999</ele><time>2026-03-28T16:07:30.011Z</time></trkpt><trkpt lat="44.5631967" lon="9.4181867"><ele>705.8</ele><time>2026-03-28T16:07:31.011Z</time></trkpt><trkpt lat="44.5630933" lon="9.4181483"><ele>708.0</ele><time>2026-03-28T16:07:32.011Z</time></trkpt><trkpt lat="44.5629983" lon="9.4180933"><ele>706.0</ele><time>2026-03-28T16:07:33.01Z</time></trkpt><trkpt lat="44.5629267" lon="9.4179517"><ele>704.0</ele><time>2026-03-28T16:07:34.011Z</time></trkpt><trkpt lat="44.5628367" lon="9.4178017"><ele>702.0</ele><time>2026-03-28T16:07:35.011Z</time></trkpt><trkpt lat="44.5627733" lon="9.4176633"><ele>700.0</ele><time>2026-03-28T16:07:36.01Z</time></trkpt><trkpt lat="44.5626967" lon="9.4175533"><ele>700.0</ele><time>2026-03-28T16:07:37.011Z</time></trkpt><trkpt lat="44.56259" lon="9.4174617"><ele>700.0</ele><time>2026-03-28T16:07:38.011Z</time></trkpt><trkpt lat="44.562465" lon="9.4173917"><ele>700.0</ele><time>2026-03-28T16:07:39.011Z</time></trkpt><trkpt lat="44.5623433" lon="9.4173267"><ele>700.0</ele><time>2026-03-28T16:07:40.011Z</time></trkpt><trkpt lat="44.562205" lon="9.41725"><ele>700.0</ele><time>2026-03-28T16:07:41.011Z</time></trkpt><trkpt lat="44.5620733" lon="9.41716"><ele>700.0</ele><time>2026-03-28T16:07:42.01Z</time></trkpt><trkpt lat="44.56195" lon="9.4170583"><ele>700.0</ele><time>2026-03-28T16:07:43.011Z</time></trkpt><trkpt lat="44.5618233" lon="9.4169583"><ele>700.0</ele><time>2026-03-28T16:07:44.011Z</time></trkpt><trkpt lat="44.5616983" lon="9.4168683"><ele>693.0</ele><time>2026-03-28T16:07:45.011Z</time></trkpt><trkpt lat="44.561565" lon="9.4167833"><ele>686.0</ele><time>2026-03-28T16:07:46.011Z</time></trkpt><trkpt lat="44.5614483" lon="9.4167717"><ele>679.0</ele><time>2026-03-28T16:07:47.011Z</time></trkpt><trkpt lat="44.56133" lon="9.4167233"><ele>672.0</ele><time>2026-03-28T16:07:48.011Z</time></trkpt><trkpt lat="44.5612117" lon="9.4167233"><ele>677.2</ele><time>2026-03-28T16:07:49.01Z</time></trkpt><trkpt lat="44.5611" lon="9.4167417"><ele>682.4000000000001</ele><time>2026-03-28T16:07:50.011Z</time></trkpt><trkpt lat="44.5609917" lon="9.4167283"><ele>687.5999999999999</ele><time>2026-03-28T16:07:51.011Z</time></trkpt><trkpt lat="44.560895" lon="9.41668"><ele>692.8</ele><time>2026-03-28T16:07:52.011Z</time></trkpt><trkpt lat="44.5608083" lon="9.4165833"><ele>698.0</ele><time>2026-03-28T16:07:53.011Z</time></trkpt><trkpt lat="44.5607167" lon="9.4164633"><ele>698.0</ele><time>2026-03-28T16:07:54.011Z</time></trkpt><trkpt lat="44.560625" lon="9.4163217"><ele>698.0</ele><time>2026-03-28T16:07:55.011Z</time></trkpt><trkpt lat="44.560545" lon="9.416185"><ele>698.0</ele><time>2026-03-28T16:07:56.011Z</time></trkpt><trkpt lat="44.5604717" lon="9.4160617"><ele>698.0</ele><time>2026-03-28T16:07:57.011Z</time></trkpt><trkpt lat="44.5603867" lon="9.4159583"><ele>700.5</ele><time>2026-03-28T16:07:58.011Z</time></trkpt><trkpt lat="44.5602983" lon="9.4158817"><ele>703.0</ele><time>2026-03-28T16:07:59.011Z</time></trkpt><trkpt lat="44.5601833" lon="9.4158283"><ele>705.5</ele><time>2026-03-28T16:08:00.011Z</time></trkpt><trkpt lat="44.560065" lon="9.4157783"><ele>708.0</ele><time>2026-03-28T16:08:01.011Z</time></trkpt><trkpt lat="44.559955" lon="9.415705"><ele>708.0</ele><time>2026-03-28T16:08:02.011Z</time></trkpt><trkpt lat="44.5598683" lon="9.415605"><ele>708.0</ele><time>2026-03-28T16:08:03.01Z</time></trkpt><trkpt lat="44.5598033" lon="9.4154717"><ele>708.0</ele><time>2026-03-28T16:08:04.01Z</time></trkpt><trkpt lat="44.5597583" lon="9.4153033"><ele>708.0</ele><time>2026-03-28T16:08:05.011Z</time></trkpt><trkpt lat="44.5597067" lon="9.4151367"><ele>698.25</ele><time>2026-03-28T16:08:06.011Z</time></trkpt><trkpt lat="44.5596567" lon="9.4149733"><ele>688.5</ele><time>2026-03-28T16:08:07.011Z</time></trkpt><trkpt lat="44.5596083" lon="9.4147983"><ele>678.75</ele><time>2026-03-28T16:08:08.011Z</time></trkpt><trkpt lat="44.5595617" lon="9.41461"><ele>669.0</ele><time>2026-03-28T16:08:09.011Z</time></trkpt><trkpt lat="44.55954" lon="9.41442"><ele>682.25</ele><time>2026-03-28T16:08:10.011Z</time></trkpt><trkpt lat="44.5595217" lon="9.414235"><ele>695.5</ele><time>2026-03-28T16:08:11.01Z</time></trkpt><trkpt lat="44.559465" lon="9.4140533"><ele>708.75</ele><time>2026-03-28T16:08:12.011Z</time></trkpt><trkpt lat="44.5594633" lon="9.4138467"><ele>722.0</ele><time>2026-03-28T16:08:13.01Z</time></trkpt><trkpt lat="44.5594483" lon="9.413645"><ele>722.0</ele><time>2026-03-28T16:08:14.011Z</time></trkpt><trkpt lat="44.5594317" lon="9.41344"><ele>722.0</ele><time>2026-03-28T16:08:15.011Z</time></trkpt><trkpt lat="44.559415" lon="9.4132333"><ele>722.0</ele><time>2026-03-28T16:08:16.011Z</time></trkpt><trkpt lat="44.5594083" lon="9.4130317"><ele>722.0</ele><time>2026-03-28T16:08:17.011Z</time></trkpt><trkpt lat="44.559405" lon="9.4128317"><ele>717.75</ele><time>2026-03-28T16:08:18.011Z</time></trkpt><trkpt lat="44.55941" lon="9.4126383"><ele>713.5</ele><time>2026-03-28T16:08:19.011Z</time></trkpt><trkpt lat="44.5594333" lon="9.4124433"><ele>709.25</ele><time>2026-03-28T16:08:20.01Z</time></trkpt><trkpt lat="44.5594617" lon="9.412245"><ele>705.0</ele><time>2026-03-28T16:08:21.011Z</time></trkpt><trkpt lat="44.55949" lon="9.412055"><ele>701.4</ele><time>2026-03-28T16:08:22.011Z</time></trkpt><trkpt lat="44.559515" lon="9.4118833"><ele>697.8</ele><time>2026-03-28T16:08:23.011Z</time></trkpt><trkpt lat="44.55954" lon="9.41172"><ele>694.2</ele><time>2026-03-28T16:08:24.011Z</time></trkpt><trkpt lat="44.5595383" lon="9.411575"><ele>690.6</ele><time>2026-03-28T16:08:25.011Z</time></trkpt><trkpt lat="44.55953" lon="9.41145"><ele>687.0</ele><time>2026-03-28T16:08:26.011Z</time></trkpt><trkpt lat="44.55951" lon="9.411325"><ele>684.1666666666666</ele><time>2026-03-28T16:08:27.011Z</time></trkpt><trkpt lat="44.5594667" lon="9.4112167"><ele>681.3333333333334</ele><time>2026-03-28T16:08:28.011Z</time></trkpt><trkpt lat="44.5594333" lon="9.4111283"><ele>678.5</ele><time>2026-03-28T16:08:29.011Z</time></trkpt><trkpt lat="44.5593817" lon="9.411055"><ele>675.6666666666667</ele><time>2026-03-28T16:08:30.011Z</time></trkpt><trkpt lat="44.5593167" lon="9.411"><ele>672.8333333333334</ele><time>2026-03-28T16:08:31.011Z</time></trkpt><trkpt lat="44.5592333" lon="9.4110017"><ele>670.0</ele><time>2026-03-28T16:08:32.011Z</time></trkpt><trkpt lat="44.5591583" lon="9.4110567"><ele>670.0</ele><time>2026-03-28T16:08:33.011Z</time></trkpt><trkpt lat="44.5590917" lon="9.411175"><ele>670.0</ele><time>2026-03-28T16:08:34.011Z</time></trkpt><trkpt lat="44.55904" lon="9.411325"><ele>670.0</ele><time>2026-03-28T16:08:35.01Z</time></trkpt><trkpt lat="44.55899" lon="9.4114983"><ele>670.0</ele><time>2026-03-28T16:08:36.011Z</time></trkpt><trkpt lat="44.5589417" lon="9.4116733"><ele>675.6666666666667</ele><time>2026-03-28T16:08:37.011Z</time></trkpt><trkpt lat="44.5588883" lon="9.4118533"><ele>681.3333333333334</ele><time>2026-03-28T16:08:38.011Z</time></trkpt><trkpt lat="44.5588033" lon="9.412095"><ele>687.0</ele><time>2026-03-28T16:08:39.011Z</time></trkpt><trkpt lat="44.5587367" lon="9.41226"><ele>684.5</ele><time>2026-03-28T16:08:40.011Z</time></trkpt><trkpt lat="44.5586567" lon="9.4124083"><ele>682.0</ele><time>2026-03-28T16:08:41.011Z</time></trkpt><trkpt lat="44.55856" lon="9.41253"><ele>679.5</ele><time>2026-03-28T16:08:42.011Z</time></trkpt><trkpt lat="44.5584483" lon="9.412615"><ele>677.0</ele><time>2026-03-28T16:08:43.011Z</time></trkpt><trkpt lat="44.558345" lon="9.4127017"><ele>677.0</ele><time>2026-03-28T16:08:44.011Z</time></trkpt><trkpt lat="44.5582683" lon="9.4128167"><ele>677.0</ele><time>2026-03-28T16:08:45.011Z</time></trkpt><trkpt lat="44.5582067" lon="9.4129417"><ele>677.0</ele><time>2026-03-28T16:08:46.011Z</time></trkpt><trkpt lat="44.558155" lon="9.4130667"><ele>677.0</ele><time>2026-03-28T16:08:47.011Z</time></trkpt><trkpt lat="44.5580883" lon="9.4131717"><ele>677.0</ele><time>2026-03-28T16:08:48.011Z</time></trkpt><trkpt lat="44.557985" lon="9.4132483"><ele>679.25</ele><time>2026-03-28T16:08:49.011Z</time></trkpt><trkpt lat="44.5578667" lon="9.41332"><ele>681.5</ele><time>2026-03-28T16:08:50.011Z</time></trkpt><trkpt lat="44.55775" lon="9.413385"><ele>683.75</ele><time>2026-03-28T16:08:51.011Z</time></trkpt><trkpt lat="44.5575817" lon="9.4133983"><ele>686.0</ele><time>2026-03-28T16:08:52.011Z</time></trkpt><trkpt lat="44.55746" lon="9.4134817"><ele>686.0</ele><time>2026-03-28T16:08:53.011Z</time></trkpt><trkpt lat="44.5573433" lon="9.41356"><ele>686.0</ele><time>2026-03-28T16:08:54.011Z</time></trkpt><trkpt lat="44.55722" lon="9.41365"><ele>686.0</ele><time>2026-03-28T16:08:55.011Z</time></trkpt><trkpt lat="44.5570783" lon="9.4137533"><ele>686.0</ele><time>2026-03-28T16:08:56.011Z</time></trkpt><trkpt lat="44.556955" lon="9.4138333"><ele>689.0</ele><time>2026-03-28T16:08:57.011Z</time></trkpt><trkpt lat="44.5568267" lon="9.4139133"><ele>692.0</ele><time>2026-03-28T16:08:58.011Z</time></trkpt><trkpt lat="44.556695" lon="9.41397"><ele>695.0</ele><time>2026-03-28T16:08:59.011Z</time></trkpt><trkpt lat="44.5565617" lon="9.414035"><ele>698.0</ele><time>2026-03-28T16:09:00.011Z</time></trkpt><trkpt lat="44.556435" lon="9.4140683"><ele>698.0</ele><time>2026-03-28T16:09:01.011Z</time></trkpt><trkpt lat="44.5563067" lon="9.4141"><ele>698.0</ele><time>2026-03-28T16:09:02.011Z</time></trkpt><trkpt lat="44.5561683" lon="9.4141483"><ele>698.0</ele><time>2026-03-28T16:09:03.011Z</time></trkpt><trkpt lat="44.5560317" lon="9.4142233"><ele>698.0</ele><time>2026-03-28T16:09:04.011Z</time></trkpt><trkpt lat="44.5558917" lon="9.4142967"><ele>693.25</ele><time>2026-03-28T16:09:05.011Z</time></trkpt><trkpt lat="44.5557783" lon="9.41439"><ele>688.5</ele><time>2026-03-28T16:09:06.011Z</time></trkpt><trkpt lat="44.5556483" lon="9.4144567"><ele>683.75</ele><time>2026-03-28T16:09:07.011Z</time></trkpt><trkpt lat="44.5555" lon="9.41445"><ele>679.0</ele><time>2026-03-28T16:09:08.011Z</time></trkpt><trkpt lat="44.5553783" lon="9.4144467"><ele>677.8000000000001</ele><time>2026-03-28T16:09:09.011Z</time></trkpt><trkpt lat="44.555285" lon="9.4145017"><ele>676.6</ele><time>2026-03-28T16:09:10.011Z</time></trkpt><trkpt lat="44.555225" lon="9.414615"><ele>675.4</ele><time>2026-03-28T16:09:11.011Z</time></trkpt><trkpt lat="44.5551833" lon="9.4147567"><ele>674.2</ele><time>2026-03-28T16:09:12.011Z</time></trkpt><trkpt lat="44.5551483" lon="9.4149"><ele>673.0</ele><time>2026-03-28T16:09:13.011Z</time></trkpt><trkpt lat="44.5551217" lon="9.4150267"><ele>678.0</ele><time>2026-03-28T16:09:14.011Z</time></trkpt><trkpt lat="44.5550817" lon="9.4151333"><ele>683.0</ele><time>2026-03-28T16:09:15.011Z</time></trkpt><trkpt lat="44.5550267" lon="9.4152083"><ele>688.0</ele><time>2026-03-28T16:09:16.011Z</time></trkpt><trkpt lat="44.554965" lon="9.4152383"><ele>693.0</ele><time>2026-03-28T16:09:17.011Z</time></trkpt><trkpt lat="44.5549017" lon="9.4152117"><ele>698.0</ele><time>2026-03-28T16:09:18.011Z</time></trkpt><trkpt lat="44.5548283" lon="9.4151783"><ele>703.0</ele><time>2026-03-28T16:09:19.011Z</time></trkpt><trkpt lat="44.5547583" lon="9.4150533"><ele>703.0</ele><time>2026-03-28T16:09:20.011Z</time></trkpt><trkpt lat="44.55469" lon="9.414915"><ele>703.0</ele><time>2026-03-28T16:09:21.011Z</time></trkpt><trkpt lat="44.55463" lon="9.4147033"><ele>703.0</ele><time>2026-03-28T16:09:22.011Z</time></trkpt><trkpt lat="44.55457" lon="9.414475"><ele>708.0</ele><time>2026-03-28T16:09:23.011Z</time></trkpt><trkpt lat="44.55453" lon="9.41423"><ele>713.0</ele><time>2026-03-28T16:09:24.011Z</time></trkpt><trkpt lat="44.554445" lon="9.4140467"><ele>718.0</ele><time>2026-03-28T16:09:25.01Z</time></trkpt><trkpt lat="44.5543567" lon="9.41387"><ele>709.6666666666667</ele><time>2026-03-28T16:09:26.01Z</time></trkpt><trkpt lat="44.554275" lon="9.4136917"><ele>701.3333333333334</ele><time>2026-03-28T16:09:27.011Z</time></trkpt><trkpt lat="44.5542133" lon="9.4134883"><ele>693.0</ele><time>2026-03-28T16:09:28.011Z</time></trkpt><trkpt lat="44.55414" lon="9.4132917"><ele>693.0</ele><time>2026-03-28T16:09:29.011Z</time></trkpt><trkpt lat="44.5540717" lon="9.4130983"><ele>693.0</ele><time>2026-03-28T16:09:30.011Z</time></trkpt><trkpt lat="44.55401" lon="9.4128967"><ele>693.0</ele><time>2026-03-28T16:09:31.011Z</time></trkpt><trkpt lat="44.5539483" lon="9.4126983"><ele>689.0</ele><time>2026-03-28T16:09:32.01Z</time></trkpt><trkpt lat="44.5538917" lon="9.4125017"><ele>685.0</ele><time>2026-03-28T16:09:33.011Z</time></trkpt><trkpt lat="44.55384" lon="9.41231"><ele>681.0</ele><time>2026-03-28T16:09:34.01Z</time></trkpt><trkpt lat="44.5537883" lon="9.4121383"><ele>677.0</ele><time>2026-03-28T16:09:35.01Z</time></trkpt><trkpt lat="44.5537467" lon="9.4119883"><ele>681.8</ele><time>2026-03-28T16:09:36.011Z</time></trkpt><trkpt lat="44.5537033" lon="9.4118533"><ele>686.6</ele><time>2026-03-28T16:09:37.011Z</time></trkpt><trkpt lat="44.5536683" lon="9.4117267"><ele>691.4</ele><time>2026-03-28T16:09:38.011Z</time></trkpt><trkpt lat="44.5536383" lon="9.4116083"><ele>696.1999999999999</ele><time>2026-03-28T16:09:39.011Z</time></trkpt><trkpt lat="44.553615" lon="9.4114817"><ele>701.0</ele><time>2026-03-28T16:09:40.011Z</time></trkpt><trkpt lat="44.553585" lon="9.4113483"><ele>698.1999999999999</ele><time>2026-03-28T16:09:41.011Z</time></trkpt><trkpt lat="44.5535533" lon="9.4112017"><ele>695.4</ele><time>2026-03-28T16:09:42.011Z</time></trkpt><trkpt lat="44.5535167" lon="9.4110517"><ele>692.6</ele><time>2026-03-28T16:09:43.01Z</time></trkpt><trkpt lat="44.5534683" lon="9.4109067"><ele>689.8</ele><time>2026-03-28T16:09:44.011Z</time></trkpt><trkpt lat="44.55342" lon="9.4107883"><ele>687.0</ele><time>2026-03-28T16:09:45.011Z</time></trkpt><trkpt lat="44.5533633" lon="9.4107"><ele>687.0</ele><time>2026-03-28T16:09:46.01Z</time></trkpt><trkpt lat="44.5532733" lon="9.4106433"><ele>687.0</ele><time>2026-03-28T16:09:47.011Z</time></trkpt><trkpt lat="44.5531667" lon="9.410615"><ele>687.0</ele><time>2026-03-28T16:09:48.011Z</time></trkpt><trkpt lat="44.553065" lon="9.410625"><ele>687.0</ele><time>2026-03-28T16:09:49.011Z</time></trkpt><trkpt lat="44.552955" lon="9.4106867"><ele>687.0</ele><time>2026-03-28T16:09:50.011Z</time></trkpt><trkpt lat="44.5528467" lon="9.4107683"><ele>683.0</ele><time>2026-03-28T16:09:51.01Z</time></trkpt><trkpt lat="44.552725" lon="9.41086"><ele>679.0</ele><time>2026-03-28T16:09:52.011Z</time></trkpt><trkpt lat="44.5525967" lon="9.410945"><ele>675.0</ele><time>2026-03-28T16:09:53.011Z</time></trkpt><trkpt lat="44.5524317" lon="9.4110817"><ele>675.0</ele><time>2026-03-28T16:09:54.011Z</time></trkpt><trkpt lat="44.5523017" lon="9.4111867"><ele>675.0</ele><time>2026-03-28T16:09:55.01Z</time></trkpt><trkpt lat="44.5521567" lon="9.4113167"><ele>675.0</ele><time>2026-03-28T16:09:56.011Z</time></trkpt><trkpt lat="44.5520267" lon="9.4114467"><ele>675.4</ele><time>2026-03-28T16:09:57.01Z</time></trkpt><trkpt lat="44.55193" lon="9.4115383"><ele>675.8</ele><time>2026-03-28T16:09:58.011Z</time></trkpt><trkpt lat="44.55186" lon="9.4116117"><ele>676.2</ele><time>2026-03-28T16:09:59.011Z</time></trkpt><trkpt lat="44.551815" lon="9.411715"><ele>676.6</ele><time>2026-03-28T16:10:00.011Z</time></trkpt><trkpt lat="44.5517817" lon="9.4118367"><ele>677.0</ele><time>2026-03-28T16:10:01.011Z</time></trkpt><trkpt lat="44.5517533" lon="9.41197"><ele>677.0</ele><time>2026-03-28T16:10:02.011Z</time></trkpt><trkpt lat="44.5517133" lon="9.4120783"><ele>677.0</ele><time>2026-03-28T16:10:03.011Z</time></trkpt><trkpt lat="44.5516717" lon="9.4121683"><ele>677.0</ele><time>2026-03-28T16:10:04.01Z</time></trkpt><trkpt lat="44.5516017" lon="9.4122217"><ele>677.0</ele><time>2026-03-28T16:10:05.011Z</time></trkpt><trkpt lat="44.5515267" lon="9.41226"><ele>677.0</ele><time>2026-03-28T16:10:06.011Z</time></trkpt><trkpt lat="44.55144" lon="9.412265"><ele>677.0</ele><time>2026-03-28T16:10:07.011Z</time></trkpt><trkpt lat="44.5513533" lon="9.4122417"><ele>677.0</ele><time>2026-03-28T16:10:08.011Z</time></trkpt><trkpt lat="44.55128" lon="9.412205"><ele>677.0</ele><time>2026-03-28T16:10:09.011Z</time></trkpt><trkpt lat="44.5512067" lon="9.412145"><ele>677.0</ele><time>2026-03-28T16:10:10.011Z</time></trkpt><trkpt lat="44.5511483" lon="9.412085"><ele>677.0</ele><time>2026-03-28T16:10:11.011Z</time></trkpt><trkpt lat="44.5510833" lon="9.4120283"><ele>677.0</ele><time>2026-03-28T16:10:12.011Z</time></trkpt><trkpt lat="44.5510083" lon="9.411975"><ele>677.0</ele><time>2026-03-28T16:10:13.011Z</time></trkpt><trkpt lat="44.55094" lon="9.411905"><ele>677.0</ele><time>2026-03-28T16:10:14.011Z</time></trkpt><trkpt lat="44.550875" lon="9.411805"><ele>677.0</ele><time>2026-03-28T16:10:15.011Z</time></trkpt><trkpt lat="44.5508" lon="9.4116867"><ele>677.0</ele><time>2026-03-28T16:10:16.01Z</time></trkpt><trkpt lat="44.550725" lon="9.4115583"><ele>677.0</ele><time>2026-03-28T16:10:17.011Z</time></trkpt><trkpt lat="44.550655" lon="9.411445"><ele>677.0</ele><time>2026-03-28T16:10:18.011Z</time></trkpt><trkpt lat="44.5505933" lon="9.41134"><ele>676.6</ele><time>2026-03-28T16:10:19.011Z</time></trkpt><trkpt lat="44.550525" lon="9.4112533"><ele>676.2</ele><time>2026-03-28T16:10:20.011Z</time></trkpt><trkpt lat="44.5504567" lon="9.4111633"><ele>675.8</ele><time>2026-03-28T16:10:21.011Z</time></trkpt><trkpt lat="44.55038" lon="9.4111017"><ele>675.4</ele><time>2026-03-28T16:10:22.011Z</time></trkpt><trkpt lat="44.550295" lon="9.41107"><ele>675.0</ele><time>2026-03-28T16:10:23.011Z</time></trkpt><trkpt lat="44.5502017" lon="9.4110717"><ele>675.0</ele><time>2026-03-28T16:10:24.011Z</time></trkpt><trkpt lat="44.550105" lon="9.4110417"><ele>675.0</ele><time>2026-03-28T16:10:25.011Z</time></trkpt><trkpt lat="44.55002" lon="9.4109717"><ele>675.0</ele><time>2026-03-28T16:10:26.011Z</time></trkpt><trkpt lat="44.5499533" lon="9.4108833"><ele>675.0</ele><time>2026-03-28T16:10:27.01Z</time></trkpt><trkpt lat="44.5498917" lon="9.410825"><ele>675.0</ele><time>2026-03-28T16:10:28.011Z</time></trkpt><trkpt lat="44.5498417" lon="9.410755"><ele>675.0</ele><time>2026-03-28T16:10:29.01Z</time></trkpt><trkpt lat="44.5499517" lon="9.4107033"><ele>675.0</ele><time>2026-03-28T16:10:33.011Z</time></trkpt><trkpt lat="44.550055" lon="9.4107167"><ele>675.0</ele><time>2026-03-28T16:10:34.011Z</time></trkpt><trkpt lat="44.5501717" lon="9.4106933"><ele>675.0</ele><time>2026-03-28T16:10:35.011Z</time></trkpt><trkpt lat="44.5502833" lon="9.4106367"><ele>675.0</ele><time>2026-03-28T16:10:36.011Z</time></trkpt><trkpt lat="44.55038" lon="9.4105533"><ele>669.75</ele><time>2026-03-28T16:10:37.011Z</time></trkpt><trkpt lat="44.55047" lon="9.410445"><ele>664.5</ele><time>2026-03-28T16:10:38.011Z</time></trkpt><trkpt lat="44.55056" lon="9.410315"><ele>659.25</ele><time>2026-03-28T16:10:39.011Z</time></trkpt><trkpt lat="44.5506567" lon="9.41018"><ele>654.0</ele><time>2026-03-28T16:10:40.011Z</time></trkpt><trkpt lat="44.5507483" lon="9.41005"><ele>654.0</ele><time>2026-03-28T16:10:41.011Z</time></trkpt><trkpt lat="44.5508383" lon="9.409925"><ele>654.0</ele><time>2026-03-28T16:10:42.011Z</time></trkpt><trkpt lat="44.5509233" lon="9.4098217"><ele>654.0</ele><time>2026-03-28T16:10:43.011Z</time></trkpt><trkpt lat="44.55102" lon="9.40972"><ele>654.0</ele><time>2026-03-28T16:10:44.01Z</time></trkpt><trkpt lat="44.551105" lon="9.4096317"><ele>654.6</ele><time>2026-03-28T16:10:45.011Z</time></trkpt><trkpt lat="44.551175" lon="9.4095317"><ele>655.2</ele><time>2026-03-28T16:10:46.011Z</time></trkpt><trkpt lat="44.5512367" lon="9.409405"><ele>655.8000000000001</ele><time>2026-03-28T16:10:47.011Z</time></trkpt><trkpt lat="44.5512933" lon="9.4092717"><ele>656.4000000000001</ele><time>2026-03-28T16:10:48.01Z</time></trkpt><trkpt lat="44.5513433" lon="9.40913"><ele>657.0</ele><time>2026-03-28T16:10:49.011Z</time></trkpt><trkpt lat="44.5513833" lon="9.4089683"><ele>659.25</ele><time>2026-03-28T16:10:50.011Z</time></trkpt><trkpt lat="44.55141" lon="9.4088083"><ele>661.5</ele><time>2026-03-28T16:10:51.011Z</time></trkpt><trkpt lat="44.551435" lon="9.40865"><ele>663.75</ele><time>2026-03-28T16:10:52.01Z</time></trkpt><trkpt lat="44.551445" lon="9.4084867"><ele>666.0</ele><time>2026-03-28T16:10:53.011Z</time></trkpt><trkpt lat="44.551465" lon="9.408315"><ele>666.0</ele><time>2026-03-28T16:10:54.011Z</time></trkpt><trkpt lat="44.5514983" lon="9.4081633"><ele>666.0</ele><time>2026-03-28T16:10:55.011Z</time></trkpt><trkpt lat="44.5515433" lon="9.4080367"><ele>666.0</ele><time>2026-03-28T16:10:56.01Z</time></trkpt><trkpt lat="44.5515833" lon="9.4079283"><ele>666.0</ele><time>2026-03-28T16:10:57.011Z</time></trkpt><trkpt lat="44.551615" lon="9.407845"><ele>666.0</ele><time>2026-03-28T16:10:58.011Z</time></trkpt><trkpt lat="44.5516017" lon="9.4077267"><ele>668.5999999999999</ele><time>2026-03-28T16:11:00.011Z</time></trkpt><trkpt lat="44.5514917" lon="9.4077133"><ele>671.2</ele><time>2026-03-28T16:11:02.011Z</time></trkpt><trkpt lat="44.5514217" lon="9.4077467"><ele>673.8</ele><time>2026-03-28T16:11:03.011Z</time></trkpt><trkpt lat="44.5513367" lon="9.4077983"><ele>676.4000000000001</ele><time>2026-03-28T16:11:04.011Z</time></trkpt><trkpt lat="44.5512417" lon="9.4078467"><ele>679.0</ele><time>2026-03-28T16:11:05.011Z</time></trkpt><trkpt lat="44.5511267" lon="9.4078917"><ele>681.75</ele><time>2026-03-28T16:11:06.011Z</time></trkpt><trkpt lat="44.5510117" lon="9.407905"><ele>684.5</ele><time>2026-03-28T16:11:07.01Z</time></trkpt><trkpt lat="44.550885" lon="9.4079017"><ele>687.25</ele><time>2026-03-28T16:11:08.011Z</time></trkpt><trkpt lat="44.55077" lon="9.4079017"><ele>690.0</ele><time>2026-03-28T16:11:09.01Z</time></trkpt><trkpt lat="44.550655" lon="9.4078933"><ele>690.0</ele><time>2026-03-28T16:11:10.011Z</time></trkpt><trkpt lat="44.5505433" lon="9.4078767"><ele>690.0</ele><time>2026-03-28T16:11:11.011Z</time></trkpt><trkpt lat="44.5504333" lon="9.4078567"><ele>690.0</ele><time>2026-03-28T16:11:12.011Z</time></trkpt><trkpt lat="44.5503533" lon="9.40782"><ele>690.0</ele><time>2026-03-28T16:11:13.01Z</time></trkpt><trkpt lat="44.55028" lon="9.4077867"><ele>690.0</ele><time>2026-03-28T16:11:14.011Z</time></trkpt><trkpt lat="44.5502233" lon="9.40769"><ele>690.0</ele><time>2026-03-28T16:11:16.011Z</time></trkpt><trkpt lat="44.5503383" lon="9.4075683"><ele>690.0</ele><time>2026-03-28T16:11:18.011Z</time></trkpt><trkpt lat="44.550445" lon="9.4075133"><ele>690.0</ele><time>2026-03-28T16:11:19.011Z</time></trkpt><trkpt lat="44.5505733" lon="9.4074233"><ele>690.0</ele><time>2026-03-28T16:11:20.01Z</time></trkpt><trkpt lat="44.550685" lon="9.4073183"><ele>690.0</ele><time>2026-03-28T16:11:21.011Z</time></trkpt><trkpt lat="44.5507667" lon="9.4072017"><ele>690.0</ele><time>2026-03-28T16:11:22.01Z</time></trkpt><trkpt lat="44.5508233" lon="9.4070667"><ele>690.0</ele><time>2026-03-28T16:11:23.011Z</time></trkpt><trkpt lat="44.55087" lon="9.4069117"><ele>690.0</ele><time>2026-03-28T16:11:24.011Z</time></trkpt><trkpt lat="44.550915" lon="9.4067667"><ele>689.25</ele><time>2026-03-28T16:11:25.011Z</time></trkpt><trkpt lat="44.5509567" lon="9.4066133"><ele>688.5</ele><time>2026-03-28T16:11:26.011Z</time></trkpt><trkpt lat="44.5509817" lon="9.4064583"><ele>687.75</ele><time>2026-03-28T16:11:27.011Z</time></trkpt><trkpt lat="44.55101" lon="9.4062967"><ele>687.0</ele><time>2026-03-28T16:11:28.011Z</time></trkpt><trkpt lat="44.55104" lon="9.406135"><ele>686.75</ele><time>2026-03-28T16:11:29.011Z</time></trkpt><trkpt lat="44.5510767" lon="9.405985"><ele>686.5</ele><time>2026-03-28T16:11:30.011Z</time></trkpt><trkpt lat="44.55109" lon="9.4058283"><ele>686.25</ele><time>2026-03-28T16:11:31.011Z</time></trkpt><trkpt lat="44.55108" lon="9.40567"><ele>686.0</ele><time>2026-03-28T16:11:32.011Z</time></trkpt><trkpt lat="44.5510717" lon="9.4055117"><ele>690.0</ele><time>2026-03-28T16:11:33.011Z</time></trkpt><trkpt lat="44.55106" lon="9.405355"><ele>694.0</ele><time>2026-03-28T16:11:34.011Z</time></trkpt><trkpt lat="44.5510417" lon="9.4052033"><ele>698.0</ele><time>2026-03-28T16:11:35.01Z</time></trkpt><trkpt lat="44.55101" lon="9.4050517"><ele>702.0</ele><time>2026-03-28T16:11:36.011Z</time></trkpt><trkpt lat="44.550965" lon="9.4048883"><ele>702.0</ele><time>2026-03-28T16:11:37.01Z</time></trkpt><trkpt lat="44.5509167" lon="9.4047317"><ele>702.0</ele><time>2026-03-28T16:11:38.01Z</time></trkpt><trkpt lat="44.5508633" lon="9.40459"><ele>702.0</ele><time>2026-03-28T16:11:39.011Z</time></trkpt><trkpt lat="44.55081" lon="9.404445"><ele>702.0</ele><time>2026-03-28T16:11:40.011Z</time></trkpt><trkpt lat="44.5507667" lon="9.4043"><ele>706.0</ele><time>2026-03-28T16:11:41.01Z</time></trkpt><trkpt lat="44.550725" lon="9.4041533"><ele>710.0</ele><time>2026-03-28T16:11:42.01Z</time></trkpt><trkpt lat="44.5506817" lon="9.403995"><ele>714.0</ele><time>2026-03-28T16:11:43.011Z</time></trkpt><trkpt lat="44.55064" lon="9.4038367"><ele>718.0</ele><time>2026-03-28T16:11:44.011Z</time></trkpt><trkpt lat="44.5506117" lon="9.4036967"><ele>720.2</ele><time>2026-03-28T16:11:45.011Z</time></trkpt><trkpt lat="44.5505967" lon="9.403565"><ele>722.4</ele><time>2026-03-28T16:11:46.011Z</time></trkpt><trkpt lat="44.5505983" lon="9.40342"><ele>724.6</ele><time>2026-03-28T16:11:47.011Z</time></trkpt><trkpt lat="44.5506017" lon="9.4032633"><ele>726.8000000000001</ele><time>2026-03-28T16:11:48.01Z</time></trkpt><trkpt lat="44.55059" lon="9.4030933"><ele>729.0</ele><time>2026-03-28T16:11:49.011Z</time></trkpt><trkpt lat="44.5505567" lon="9.402925"><ele>730.0</ele><time>2026-03-28T16:11:50.011Z</time></trkpt><trkpt lat="44.550535" lon="9.402775"><ele>731.0</ele><time>2026-03-28T16:11:51.011Z</time></trkpt><trkpt lat="44.5505217" lon="9.40262"><ele>732.0</ele><time>2026-03-28T16:11:52.011Z</time></trkpt><trkpt lat="44.5505283" lon="9.4025017"><ele>733.0</ele><time>2026-03-28T16:11:53.011Z</time></trkpt><trkpt lat="44.550555" lon="9.4024183"><ele>734.0</ele><time>2026-03-28T16:11:54.01Z</time></trkpt><trkpt lat="44.5506217" lon="9.402365"><ele>735.0</ele><time>2026-03-28T16:11:56.011Z</time></trkpt><trkpt lat="44.550705" lon="9.4024717"><ele>735.0</ele><time>2026-03-28T16:11:58.01Z</time></trkpt><trkpt lat="44.55074" lon="9.402575"><ele>735.0</ele><time>2026-03-28T16:11:59.011Z</time></trkpt><trkpt lat="44.5507817" lon="9.402705"><ele>735.0</ele><time>2026-03-28T16:12:00.011Z</time></trkpt><trkpt lat="44.5508233" lon="9.4028483"><ele>735.0</ele><time>2026-03-28T16:12:01.011Z</time></trkpt><trkpt lat="44.5508567" lon="9.4030233"><ele>735.0</ele><time>2026-03-28T16:12:02.011Z</time></trkpt><trkpt lat="44.5508733" lon="9.4031983"><ele>733.8</ele><time>2026-03-28T16:12:03.011Z</time></trkpt><trkpt lat="44.55087" lon="9.4033683"><ele>732.6</ele><time>2026-03-28T16:12:04.01Z</time></trkpt><trkpt lat="44.55085" lon="9.40352"><ele>731.4000000000001</ele><time>2026-03-28T16:12:05.011Z</time></trkpt><trkpt lat="44.5508267" lon="9.4036583"><ele>730.2</ele><time>2026-03-28T16:12:06.01Z</time></trkpt><trkpt lat="44.5508217" lon="9.4037883"><ele>729.0</ele><time>2026-03-28T16:12:07.011Z</time></trkpt><trkpt lat="44.5508483" lon="9.4039033"><ele>726.8000000000001</ele><time>2026-03-28T16:12:08.011Z</time></trkpt><trkpt lat="44.550905" lon="9.403995"><ele>724.6</ele><time>2026-03-28T16:12:09.011Z</time></trkpt><trkpt lat="44.550985" lon="9.4040683"><ele>722.4</ele><time>2026-03-28T16:12:10.011Z</time></trkpt><trkpt lat="44.5510767" lon="9.4041267"><ele>720.2</ele><time>2026-03-28T16:12:11.01Z</time></trkpt><trkpt lat="44.551165" lon="9.404195"><ele>718.0</ele><time>2026-03-28T16:12:12.011Z</time></trkpt><trkpt lat="44.5512383" lon="9.40429"><ele>723.0</ele><time>2026-03-28T16:12:13.011Z</time></trkpt><trkpt lat="44.5513067" lon="9.4043783"><ele>728.0</ele><time>2026-03-28T16:12:14.011Z</time></trkpt><trkpt lat="44.5513767" lon="9.4044483"><ele>733.0</ele><time>2026-03-28T16:12:15.012Z</time></trkpt><trkpt lat="44.5514533" lon="9.4045117"><ele>738.0</ele><time>2026-03-28T16:12:16.012Z</time></trkpt><trkpt lat="44.5515367" lon="9.4045533"><ele>743.0</ele><time>2026-03-28T16:12:17.011Z</time></trkpt><trkpt lat="44.5516333" lon="9.4045567"><ele>743.0</ele><time>2026-03-28T16:12:18.012Z</time></trkpt><trkpt lat="44.55173" lon="9.40453"><ele>743.0</ele><time>2026-03-28T16:12:19.012Z</time></trkpt><trkpt lat="44.5518267" lon="9.4044783"><ele>743.0</ele><time>2026-03-28T16:12:20.012Z</time></trkpt><trkpt lat="44.5519217" lon="9.404395"><ele>743.0</ele><time>2026-03-28T16:12:21.012Z</time></trkpt><trkpt lat="44.5520067" lon="9.4043083"><ele>743.0</ele><time>2026-03-28T16:12:22.012Z</time></trkpt><trkpt lat="44.552075" lon="9.4042167"><ele>736.8</ele><time>2026-03-28T16:12:23.012Z</time></trkpt><trkpt lat="44.5521117" lon="9.4041117"><ele>730.5999999999999</ele><time>2026-03-28T16:12:24.012Z</time></trkpt><trkpt lat="44.5521233" lon="9.403975"><ele>724.4000000000001</ele><time>2026-03-28T16:12:25.011Z</time></trkpt><trkpt lat="44.5521167" lon="9.40384"><ele>718.2</ele><time>2026-03-28T16:12:26.012Z</time></trkpt><trkpt lat="44.552085" lon="9.4036967"><ele>712.0</ele><time>2026-03-28T16:12:27.012Z</time></trkpt><trkpt lat="44.55204" lon="9.40356"><ele>719.6</ele><time>2026-03-28T16:12:28.012Z</time></trkpt><trkpt lat="44.5519983" lon="9.403425"><ele>727.2</ele><time>2026-03-28T16:12:29.012Z</time></trkpt><trkpt lat="44.551965" lon="9.4033067"><ele>734.8</ele><time>2026-03-28T16:12:30.012Z</time></trkpt><trkpt lat="44.5519317" lon="9.40318"><ele>742.4</ele><time>2026-03-28T16:12:31.011Z</time></trkpt><trkpt lat="44.551905" lon="9.403035"><ele>750.0</ele><time>2026-03-28T16:12:32.012Z</time></trkpt><trkpt lat="44.5518983" lon="9.4028783"><ele>750.8</ele><time>2026-03-28T16:12:33.012Z</time></trkpt><trkpt lat="44.5518883" lon="9.4027233"><ele>751.6</ele><time>2026-03-28T16:12:34.012Z</time></trkpt><trkpt lat="44.5518667" lon="9.4025717"><ele>752.4000000000001</ele><time>2026-03-28T16:12:35.012Z</time></trkpt><trkpt lat="44.5518233" lon="9.4024233"><ele>753.2</ele><time>2026-03-28T16:12:36.011Z</time></trkpt><trkpt lat="44.5517867" lon="9.4022883"><ele>754.0</ele><time>2026-03-28T16:12:37.012Z</time></trkpt><trkpt lat="44.5517583" lon="9.4021433"><ele>756.4000000000001</ele><time>2026-03-28T16:12:38.011Z</time></trkpt><trkpt lat="44.55175" lon="9.40201"><ele>758.8</ele><time>2026-03-28T16:12:39.012Z</time></trkpt><trkpt lat="44.5517717" lon="9.4018883"><ele>761.2</ele><time>2026-03-28T16:12:40.012Z</time></trkpt><trkpt lat="44.5518133" lon="9.4017817"><ele>763.5999999999999</ele><time>2026-03-28T16:12:41.012Z</time></trkpt><trkpt lat="44.5518717" lon="9.4016783"><ele>766.0</ele><time>2026-03-28T16:12:42.012Z</time></trkpt><trkpt lat="44.5519483" lon="9.401575"><ele>763.25</ele><time>2026-03-28T16:12:43.012Z</time></trkpt><trkpt lat="44.5520433" lon="9.40148"><ele>760.5</ele><time>2026-03-28T16:12:44.011Z</time></trkpt><trkpt lat="44.5521567" lon="9.40141"><ele>757.75</ele><time>2026-03-28T16:12:45.012Z</time></trkpt><trkpt lat="44.5522767" lon="9.4013333"><ele>755.0</ele><time>2026-03-28T16:12:46.012Z</time></trkpt><trkpt lat="44.5523717" lon="9.40125"><ele>761.0</ele><time>2026-03-28T16:12:47.012Z</time></trkpt><trkpt lat="44.5524383" lon="9.40116"><ele>767.0</ele><time>2026-03-28T16:12:48.012Z</time></trkpt><trkpt lat="44.5525167" lon="9.40105"><ele>773.0</ele><time>2026-03-28T16:12:49.012Z</time></trkpt><trkpt lat="44.5525817" lon="9.4009183"><ele>779.0</ele><time>2026-03-28T16:12:50.012Z</time></trkpt><trkpt lat="44.5526467" lon="9.4007833"><ele>785.0</ele><time>2026-03-28T16:12:51.011Z</time></trkpt><trkpt lat="44.5527183" lon="9.4006383"><ele>785.0</ele><time>2026-03-28T16:12:52.012Z</time></trkpt><trkpt lat="44.5528133" lon="9.4005233"><ele>785.0</ele><time>2026-03-28T16:12:53.012Z</time></trkpt><trkpt lat="44.5529183" lon="9.4004117"><ele>785.0</ele><time>2026-03-28T16:12:54.012Z</time></trkpt><trkpt lat="44.5530267" lon="9.4003133"><ele>785.0</ele><time>2026-03-28T16:12:55.012Z</time></trkpt><trkpt lat="44.5531433" lon="9.4002183"><ele>787.5</ele><time>2026-03-28T16:12:56.011Z</time></trkpt><trkpt lat="44.5532717" lon="9.4001483"><ele>790.0</ele><time>2026-03-28T16:12:57.012Z</time></trkpt><trkpt lat="44.5534067" lon="9.4001017"><ele>792.5</ele><time>2026-03-28T16:12:58.012Z</time></trkpt><trkpt lat="44.5535267" lon="9.40004"><ele>795.0</ele><time>2026-03-28T16:12:59.012Z</time></trkpt><trkpt lat="44.553615" lon="9.3999783"><ele>795.0</ele><time>2026-03-28T16:13:00.012Z</time></trkpt><trkpt lat="44.553675" lon="9.3999"><ele>795.0</ele><time>2026-03-28T16:13:01.012Z</time></trkpt><trkpt lat="44.55371" lon="9.39979"><ele>795.0</ele><time>2026-03-28T16:13:02.012Z</time></trkpt><trkpt lat="44.5537717" lon="9.39969"><ele>795.0</ele><time>2026-03-28T16:13:03.011Z</time></trkpt><trkpt lat="44.5538483" lon="9.3996233"><ele>795.0</ele><time>2026-03-28T16:13:04.012Z</time></trkpt><trkpt lat="44.553935" lon="9.3996033"><ele>795.0</ele><time>2026-03-28T16:13:05.012Z</time></trkpt><trkpt lat="44.554035" lon="9.399615"><ele>799.0</ele><time>2026-03-28T16:13:06.012Z</time></trkpt><trkpt lat="44.5541417" lon="9.399615"><ele>803.0</ele><time>2026-03-28T16:13:07.012Z</time></trkpt><trkpt lat="44.5542367" lon="9.39961"><ele>807.0</ele><time>2026-03-28T16:13:08.012Z</time></trkpt><trkpt lat="44.55432" lon="9.399585"><ele>811.0</ele><time>2026-03-28T16:13:09.012Z</time></trkpt><trkpt lat="44.5544" lon="9.3995417"><ele>815.0</ele><time>2026-03-28T16:13:10.012Z</time></trkpt><trkpt lat="44.5544883" lon="9.3994783"><ele>810.25</ele><time>2026-03-28T16:13:11.012Z</time></trkpt><trkpt lat="44.5545867" lon="9.399415"><ele>805.5</ele><time>2026-03-28T16:13:12.012Z</time></trkpt><trkpt lat="44.5546917" lon="9.399355"><ele>800.75</ele><time>2026-03-28T16:13:13.012Z</time></trkpt><trkpt lat="44.5548083" lon="9.3992883"><ele>796.0</ele><time>2026-03-28T16:13:14.012Z</time></trkpt><trkpt lat="44.5549233" lon="9.3992033"><ele>796.0</ele><time>2026-03-28T16:13:15.012Z</time></trkpt><trkpt lat="44.5550367" lon="9.3990867"><ele>796.0</ele><time>2026-03-28T16:13:16.012Z</time></trkpt><trkpt lat="44.5551417" lon="9.3989617"><ele>796.0</ele><time>2026-03-28T16:13:17.012Z</time></trkpt><trkpt lat="44.555245" lon="9.3988117"><ele>796.0</ele><time>2026-03-28T16:13:18.012Z</time></trkpt><trkpt lat="44.5553417" lon="9.39867"><ele>796.5</ele><time>2026-03-28T16:13:19.011Z</time></trkpt><trkpt lat="44.5554317" lon="9.3985267"><ele>797.0</ele><time>2026-03-28T16:13:20.011Z</time></trkpt><trkpt lat="44.555525" lon="9.3983717"><ele>797.5</ele><time>2026-03-28T16:13:21.012Z</time></trkpt><trkpt lat="44.5556233" lon="9.3982033"><ele>798.0</ele><time>2026-03-28T16:13:22.012Z</time></trkpt><trkpt lat="44.5557317" lon="9.39804"><ele>802.25</ele><time>2026-03-28T16:13:23.012Z</time></trkpt><trkpt lat="44.55583" lon="9.3979"><ele>806.5</ele><time>2026-03-28T16:13:24.012Z</time></trkpt><trkpt lat="44.55592" lon="9.3977533"><ele>810.75</ele><time>2026-03-28T16:13:25.012Z</time></trkpt><trkpt lat="44.5559933" lon="9.397605"><ele>815.0</ele><time>2026-03-28T16:13:26.011Z</time></trkpt><trkpt lat="44.556065" lon="9.3974533"><ele>815.0</ele><time>2026-03-28T16:13:27.012Z</time></trkpt><trkpt lat="44.55613" lon="9.397295"><ele>815.0</ele><time>2026-03-28T16:13:28.011Z</time></trkpt><trkpt lat="44.556195" lon="9.39712"><ele>815.0</ele><time>2026-03-28T16:13:29.012Z</time></trkpt><trkpt lat="44.5562683" lon="9.3969517"><ele>815.0</ele><time>2026-03-28T16:13:30.012Z</time></trkpt><trkpt lat="44.5563433" lon="9.396795"><ele>813.5</ele><time>2026-03-28T16:13:31.011Z</time></trkpt><trkpt lat="44.5564067" lon="9.3966383"><ele>812.0</ele><time>2026-03-28T16:13:32.011Z</time></trkpt><trkpt lat="44.5564917" lon="9.3964933"><ele>810.5</ele><time>2026-03-28T16:13:33.012Z</time></trkpt><trkpt lat="44.5565833" lon="9.3963733"><ele>809.0</ele><time>2026-03-28T16:13:34.012Z</time></trkpt><trkpt lat="44.5566883" lon="9.3962783"><ele>811.6666666666667</ele><time>2026-03-28T16:13:35.012Z</time></trkpt><trkpt lat="44.5567817" lon="9.3962067"><ele>814.3333333333334</ele><time>2026-03-28T16:13:36.012Z</time></trkpt><trkpt lat="44.5568617" lon="9.3961417"><ele>817.0</ele><time>2026-03-28T16:13:37.012Z</time></trkpt><trkpt lat="44.5569167" lon="9.3960733"><ele>819.6666666666667</ele><time>2026-03-28T16:13:38.012Z</time></trkpt><trkpt lat="44.5569567" lon="9.3959883"><ele>822.3333333333334</ele><time>2026-03-28T16:13:39.011Z</time></trkpt><trkpt lat="44.55699" lon="9.3958883"><ele>825.0</ele><time>2026-03-28T16:13:40.012Z</time></trkpt><trkpt lat="44.557005" lon="9.395775"><ele>825.0</ele><time>2026-03-28T16:13:41.012Z</time></trkpt><trkpt lat="44.55699" lon="9.3956383"><ele>825.0</ele><time>2026-03-28T16:13:42.012Z</time></trkpt><trkpt lat="44.5569467" lon="9.395515"><ele>825.0</ele><time>2026-03-28T16:13:43.012Z</time></trkpt><trkpt lat="44.5568917" lon="9.3953983"><ele>825.0</ele><time>2026-03-28T16:13:44.012Z</time></trkpt><trkpt lat="44.5568317" lon="9.3952883"><ele>825.0</ele><time>2026-03-28T16:13:45.012Z</time></trkpt><trkpt lat="44.55674" lon="9.39517"><ele>825.5</ele><time>2026-03-28T16:13:46.012Z</time></trkpt><trkpt lat="44.5566483" lon="9.3950333"><ele>826.0</ele><time>2026-03-28T16:13:47.012Z</time></trkpt><trkpt lat="44.5565617" lon="9.3949033"><ele>826.5</ele><time>2026-03-28T16:13:48.012Z</time></trkpt><trkpt lat="44.5564933" lon="9.394775"><ele>827.0</ele><time>2026-03-28T16:13:49.011Z</time></trkpt><trkpt lat="44.5564467" lon="9.394655"><ele>829.8333333333334</ele><time>2026-03-28T16:13:50.012Z</time></trkpt><trkpt lat="44.5564167" lon="9.3945333"><ele>832.6666666666667</ele><time>2026-03-28T16:13:51.012Z</time></trkpt><trkpt lat="44.556425" lon="9.39443"><ele>835.5</ele><time>2026-03-28T16:13:52.012Z</time></trkpt><trkpt lat="44.5564533" lon="9.3943417"><ele>838.3333333333333</ele><time>2026-03-28T16:13:53.012Z</time></trkpt><trkpt lat="44.5565117" lon="9.3942767"><ele>841.1666666666666</ele><time>2026-03-28T16:13:54.012Z</time></trkpt><trkpt lat="44.556615" lon="9.3942617"><ele>844.0</ele><time>2026-03-28T16:13:55.012Z</time></trkpt><trkpt lat="44.5567433" lon="9.3942767"><ele>844.0</ele><time>2026-03-28T16:13:56.012Z</time></trkpt><trkpt lat="44.5568583" lon="9.39431"><ele>844.0</ele><time>2026-03-28T16:13:57.012Z</time></trkpt><trkpt lat="44.5569817" lon="9.3943667"><ele>844.0</ele><time>2026-03-28T16:13:58.012Z</time></trkpt><trkpt lat="44.55709" lon="9.3943933"><ele>844.0</ele><time>2026-03-28T16:13:59.012Z</time></trkpt><trkpt lat="44.5572017" lon="9.394375"><ele>843.6</ele><time>2026-03-28T16:14:00.012Z</time></trkpt><trkpt lat="44.5572967" lon="9.3943267"><ele>843.2</ele><time>2026-03-28T16:14:01.011Z</time></trkpt><trkpt lat="44.55739" lon="9.3942717"><ele>842.8000000000001</ele><time>2026-03-28T16:14:02.012Z</time></trkpt><trkpt lat="44.5574667" lon="9.3942017"><ele>842.4000000000001</ele><time>2026-03-28T16:14:03.012Z</time></trkpt><trkpt lat="44.5575367" lon="9.394105"><ele>842.0</ele><time>2026-03-28T16:14:04.012Z</time></trkpt><trkpt lat="44.5576083" lon="9.3939933"><ele>842.0</ele><time>2026-03-28T16:14:05.012Z</time></trkpt><trkpt lat="44.5576867" lon="9.3938767"><ele>842.0</ele><time>2026-03-28T16:14:06.012Z</time></trkpt><trkpt lat="44.557775" lon="9.3937767"><ele>842.0</ele><time>2026-03-28T16:14:07.012Z</time></trkpt><trkpt lat="44.557865" lon="9.39368"><ele>842.0</ele><time>2026-03-28T16:14:08.012Z</time></trkpt><trkpt lat="44.55794" lon="9.3936"><ele>842.0</ele><time>2026-03-28T16:14:09.011Z</time></trkpt><trkpt lat="44.5580083" lon="9.3935467"><ele>842.0000000000001</ele><time>2026-03-28T16:14:10.012Z</time></trkpt><trkpt lat="44.5580717" lon="9.3935417"><ele>842.0</ele><time>2026-03-28T16:14:11.012Z</time></trkpt><trkpt lat="44.55813" lon="9.3935933"><ele>842.0</ele><time>2026-03-28T16:14:12.012Z</time></trkpt><trkpt lat="44.5581817" lon="9.3936933"><ele>842.0</ele><time>2026-03-28T16:14:13.011Z</time></trkpt><trkpt lat="44.55823" lon="9.3938217"><ele>842.0000000000001</ele><time>2026-03-28T16:14:14.011Z</time></trkpt><trkpt lat="44.5582667" lon="9.3939717"><ele>842.0</ele><time>2026-03-28T16:14:15.012Z</time></trkpt><trkpt lat="44.5582883" lon="9.3941417"><ele>842.0</ele><time>2026-03-28T16:14:16.012Z</time></trkpt><trkpt lat="44.55828" lon="9.3942917"><ele>842.0</ele><time>2026-03-28T16:14:17.012Z</time></trkpt><trkpt lat="44.5583033" lon="9.39439"><ele>842.0</ele><time>2026-03-28T16:14:18.012Z</time></trkpt><trkpt lat="44.5583717" lon="9.39449"><ele>842.0</ele><time>2026-03-28T16:14:20.012Z</time></trkpt><trkpt lat="44.55844" lon="9.3944267"><ele>842.0</ele><time>2026-03-28T16:14:22.012Z</time></trkpt><trkpt lat="44.5584717" lon="9.394255"><ele>842.0</ele><time>2026-03-28T16:14:24.012Z</time></trkpt><trkpt lat="44.55848" lon="9.3941317"><ele>842.0</ele><time>2026-03-28T16:14:25.012Z</time></trkpt><trkpt lat="44.5585283" lon="9.3939483"><ele>842.0</ele><time>2026-03-28T16:14:26.012Z</time></trkpt><trkpt lat="44.5585833" lon="9.3938"><ele>842.0</ele><time>2026-03-28T16:14:27.012Z</time></trkpt><trkpt lat="44.5586533" lon="9.3936717"><ele>844.75</ele><time>2026-03-28T16:14:28.012Z</time></trkpt><trkpt lat="44.5587317" lon="9.3935417"><ele>847.5</ele><time>2026-03-28T16:14:29.012Z</time></trkpt><trkpt lat="44.5588217" lon="9.3934233"><ele>850.25</ele><time>2026-03-28T16:14:30.012Z</time></trkpt><trkpt lat="44.5589033" lon="9.393295"><ele>853.0</ele><time>2026-03-28T16:14:31.012Z</time></trkpt><trkpt lat="44.5589833" lon="9.39317"><ele>853.0</ele><time>2026-03-28T16:14:32.012Z</time></trkpt><trkpt lat="44.55905" lon="9.3930333"><ele>853.0</ele><time>2026-03-28T16:14:33.011Z</time></trkpt><trkpt lat="44.5591083" lon="9.3928683"><ele>853.0</ele><time>2026-03-28T16:14:34.012Z</time></trkpt><trkpt lat="44.5591567" lon="9.3927183"><ele>853.0</ele><time>2026-03-28T16:14:35.011Z</time></trkpt><trkpt lat="44.5591867" lon="9.39257"><ele>853.5999999999999</ele><time>2026-03-28T16:14:36.012Z</time></trkpt><trkpt lat="44.5592167" lon="9.3924367"><ele>854.1999999999999</ele><time>2026-03-28T16:14:37.012Z</time></trkpt><trkpt lat="44.5592567" lon="9.3923117"><ele>854.8</ele><time>2026-03-28T16:14:38.012Z</time></trkpt><trkpt lat="44.559295" lon="9.3922383"><ele>855.4</ele><time>2026-03-28T16:14:39.012Z</time></trkpt><trkpt lat="44.5593817" lon="9.3921917"><ele>856.0</ele><time>2026-03-28T16:14:41.012Z</time></trkpt><trkpt lat="44.5594483" lon="9.3923283"><ele>856.0</ele><time>2026-03-28T16:14:43.012Z</time></trkpt><trkpt lat="44.5594567" lon="9.39246"><ele>855.9999999999999</ele><time>2026-03-28T16:14:44.012Z</time></trkpt><trkpt lat="44.5594483" lon="9.3926067"><ele>855.9999999999999</ele><time>2026-03-28T16:14:45.012Z</time></trkpt><trkpt lat="44.5594433" lon="9.3927667"><ele>856.0</ele><time>2026-03-28T16:14:46.012Z</time></trkpt><trkpt lat="44.5594417" lon="9.3929267"><ele>856.0</ele><time>2026-03-28T16:14:47.012Z</time></trkpt><trkpt lat="44.5594433" lon="9.3930633"><ele>855.4</ele><time>2026-03-28T16:14:48.012Z</time></trkpt><trkpt lat="44.5594567" lon="9.3931583"><ele>854.8</ele><time>2026-03-28T16:14:49.012Z</time></trkpt><trkpt lat="44.5595033" lon="9.3932667"><ele>854.1999999999999</ele><time>2026-03-28T16:14:51.011Z</time></trkpt><trkpt lat="44.5595983" lon="9.3932517"><ele>853.5999999999999</ele><time>2026-03-28T16:14:53.012Z</time></trkpt><trkpt lat="44.5596783" lon="9.393165"><ele>853.0</ele><time>2026-03-28T16:14:54.011Z</time></trkpt><trkpt lat="44.5597617" lon="9.3930467"><ele>857.25</ele><time>2026-03-28T16:14:55.012Z</time></trkpt><trkpt lat="44.5598283" lon="9.3929267"><ele>861.5</ele><time>2026-03-28T16:14:56.012Z</time></trkpt><trkpt lat="44.5599" lon="9.392795"><ele>865.75</ele><time>2026-03-28T16:14:57.012Z</time></trkpt><trkpt lat="44.5599767" lon="9.3926767"><ele>870.0</ele><time>2026-03-28T16:14:58.012Z</time></trkpt><trkpt lat="44.5600633" lon="9.3925567"><ele>870.0</ele><time>2026-03-28T16:14:59.012Z</time></trkpt><trkpt lat="44.56016" lon="9.392435"><ele>870.0</ele><time>2026-03-28T16:15:00.012Z</time></trkpt><trkpt lat="44.5602433" lon="9.3923133"><ele>870.0</ele><time>2026-03-28T16:15:01.012Z</time></trkpt><trkpt lat="44.5603183" lon="9.3921883"><ele>870.0</ele><time>2026-03-28T16:15:02.012Z</time></trkpt><trkpt lat="44.5603733" lon="9.3920483"><ele>872.4</ele><time>2026-03-28T16:15:03.012Z</time></trkpt><trkpt lat="44.5604117" lon="9.3918967"><ele>874.8</ele><time>2026-03-28T16:15:04.012Z</time></trkpt><trkpt lat="44.5604617" lon="9.39176"><ele>877.2</ele><time>2026-03-28T16:15:05.012Z</time></trkpt><trkpt lat="44.560525" lon="9.39164"><ele>879.6</ele><time>2026-03-28T16:15:06.011Z</time></trkpt><trkpt lat="44.5605917" lon="9.39155"><ele>882.0</ele><time>2026-03-28T16:15:07.012Z</time></trkpt><trkpt lat="44.5606767" lon="9.3915033"><ele>882.0</ele><time>2026-03-28T16:15:08.012Z</time></trkpt><trkpt lat="44.5607617" lon="9.3914817"><ele>882.0</ele><time>2026-03-28T16:15:09.011Z</time></trkpt><trkpt lat="44.5608533" lon="9.3915033"><ele>882.0</ele><time>2026-03-28T16:15:10.012Z</time></trkpt><trkpt lat="44.5609333" lon="9.3915517"><ele>882.0</ele><time>2026-03-28T16:15:11.012Z</time></trkpt><trkpt lat="44.5610267" lon="9.39161"><ele>882.0</ele><time>2026-03-28T16:15:12.012Z</time></trkpt><trkpt lat="44.5611233" lon="9.3916367"><ele>883.6</ele><time>2026-03-28T16:15:13.012Z</time></trkpt><trkpt lat="44.5612183" lon="9.3916333"><ele>885.2</ele><time>2026-03-28T16:15:14.012Z</time></trkpt><trkpt lat="44.561305" lon="9.3915883"><ele>886.8</ele><time>2026-03-28T16:15:15.012Z</time></trkpt><trkpt lat="44.5613867" lon="9.39149"><ele>888.4</ele><time>2026-03-28T16:15:16.012Z</time></trkpt><trkpt lat="44.561465" lon="9.3913817"><ele>890.0</ele><time>2026-03-28T16:15:17.012Z</time></trkpt><trkpt lat="44.5615483" lon="9.39126"><ele>890.75</ele><time>2026-03-28T16:15:18.012Z</time></trkpt><trkpt lat="44.5616317" lon="9.3911383"><ele>891.5</ele><time>2026-03-28T16:15:19.012Z</time></trkpt><trkpt lat="44.5617233" lon="9.3910133"><ele>892.25</ele><time>2026-03-28T16:15:20.012Z</time></trkpt><trkpt lat="44.5618167" lon="9.390895"><ele>893.0</ele><time>2026-03-28T16:15:21.012Z</time></trkpt><trkpt lat="44.5619117" lon="9.3907833"><ele>893.0</ele><time>2026-03-28T16:15:22.011Z</time></trkpt><trkpt lat="44.5620067" lon="9.3906783"><ele>893.0</ele><time>2026-03-28T16:15:23.012Z</time></trkpt><trkpt lat="44.5620933" lon="9.3905833"><ele>893.0</ele><time>2026-03-28T16:15:24.012Z</time></trkpt><trkpt lat="44.5621783" lon="9.3905117"><ele>893.0</ele><time>2026-03-28T16:15:25.011Z</time></trkpt><trkpt lat="44.5622583" lon="9.39047"><ele>893.0</ele><time>2026-03-28T16:15:26.012Z</time></trkpt><trkpt lat="44.5623633" lon="9.3904583"><ele>895.8</ele><time>2026-03-28T16:15:28.012Z</time></trkpt><trkpt lat="44.5623817" lon="9.390585"><ele>898.5999999999999</ele><time>2026-03-28T16:15:31.012Z</time></trkpt><trkpt lat="44.56235" lon="9.3907467"><ele>901.4000000000001</ele><time>2026-03-28T16:15:33.012Z</time></trkpt><trkpt lat="44.56235" lon="9.3908617"><ele>904.2</ele><time>2026-03-28T16:15:34.011Z</time></trkpt><trkpt lat="44.5623633" lon="9.3909833"><ele>907.0</ele><time>2026-03-28T16:15:35.012Z</time></trkpt><trkpt lat="44.5623533" lon="9.3911967"><ele>908.3333333333333</ele><time>2026-03-28T16:15:36.012Z</time></trkpt><trkpt lat="44.56236" lon="9.3913817"><ele>909.6666666666667</ele><time>2026-03-28T16:15:37.012Z</time></trkpt><trkpt lat="44.5623283" lon="9.3916467"><ele>911.0</ele><time>2026-03-28T16:15:38.012Z</time></trkpt><trkpt lat="44.5622917" lon="9.3918767"><ele>911.0</ele><time>2026-03-28T16:15:39.012Z</time></trkpt><trkpt lat="44.5622583" lon="9.3921017"><ele>911.0</ele><time>2026-03-28T16:15:40.012Z</time></trkpt><trkpt lat="44.562225" lon="9.392305"><ele>911.0</ele><time>2026-03-28T16:15:41.012Z</time></trkpt><trkpt lat="44.5622" lon="9.392495"><ele>912.25</ele><time>2026-03-28T16:15:42.012Z</time></trkpt><trkpt lat="44.5621717" lon="9.392685"><ele>913.5</ele><time>2026-03-28T16:15:43.012Z</time></trkpt><trkpt lat="44.5621367" lon="9.3928867"><ele>914.75</ele><time>2026-03-28T16:15:44.012Z</time></trkpt><trkpt lat="44.5621033" lon="9.3930217"><ele>916.0</ele><time>2026-03-28T16:15:45.011Z</time></trkpt><trkpt lat="44.5621133" lon="9.3931383"><ele>917.5999999999999</ele><time>2026-03-28T16:15:46.012Z</time></trkpt><trkpt lat="44.5621267" lon="9.3932583"><ele>919.1999999999999</ele><time>2026-03-28T16:15:47.012Z</time></trkpt><trkpt lat="44.5621317" lon="9.3933983"><ele>920.8000000000001</ele><time>2026-03-28T16:15:48.012Z</time></trkpt><trkpt lat="44.562125" lon="9.3935267"><ele>922.4000000000001</ele><time>2026-03-28T16:15:49.012Z</time></trkpt><trkpt lat="44.562115" lon="9.393625"><ele>924.0</ele><time>2026-03-28T16:15:50.012Z</time></trkpt><trkpt lat="44.5621417" lon="9.3937917"><ele>923.8333333333334</ele><time>2026-03-28T16:15:52.011Z</time></trkpt><trkpt lat="44.5621717" lon="9.3938767"><ele>923.6666666666667</ele><time>2026-03-28T16:15:53.012Z</time></trkpt><trkpt lat="44.5622133" lon="9.3939483"><ele>923.5</ele><time>2026-03-28T16:15:54.012Z</time></trkpt><trkpt lat="44.56228" lon="9.3939917"><ele>923.3333333333334</ele><time>2026-03-28T16:15:55.012Z</time></trkpt><trkpt lat="44.56239" lon="9.3940267"><ele>923.1666666666667</ele><time>2026-03-28T16:15:56.012Z</time></trkpt><trkpt lat="44.56249" lon="9.39409"><ele>923.0</ele><time>2026-03-28T16:15:57.012Z</time></trkpt><trkpt lat="44.56259" lon="9.3941467"><ele>923.0</ele><time>2026-03-28T16:15:58.012Z</time></trkpt><trkpt lat="44.5626683" lon="9.3942217"><ele>923.0</ele><time>2026-03-28T16:15:59.012Z</time></trkpt><trkpt lat="44.56271" lon="9.3943533"><ele>923.0</ele><time>2026-03-28T16:16:00.012Z</time></trkpt><trkpt lat="44.562735" lon="9.3944833"><ele>923.0</ele><time>2026-03-28T16:16:01.012Z</time></trkpt><trkpt lat="44.5627367" lon="9.3946467"><ele>923.0</ele><time>2026-03-28T16:16:02.011Z</time></trkpt><trkpt lat="44.5627033" lon="9.3948267"><ele>922.25</ele><time>2026-03-28T16:16:03.012Z</time></trkpt><trkpt lat="44.562665" lon="9.39503"><ele>921.5</ele><time>2026-03-28T16:16:04.012Z</time></trkpt><trkpt lat="44.5626283" lon="9.3952233"><ele>920.75</ele><time>2026-03-28T16:16:05.012Z</time></trkpt><trkpt lat="44.562585" lon="9.3954117"><ele>920.0</ele><time>2026-03-28T16:16:06.012Z</time></trkpt><trkpt lat="44.562535" lon="9.3955933"><ele>922.5</ele><time>2026-03-28T16:16:07.012Z</time></trkpt><trkpt lat="44.5624667" lon="9.3957617"><ele>925.0</ele><time>2026-03-28T16:16:08.012Z</time></trkpt><trkpt lat="44.562395" lon="9.3959233"><ele>927.5</ele><time>2026-03-28T16:16:09.012Z</time></trkpt><trkpt lat="44.5623" lon="9.3960567"><ele>930.0</ele><time>2026-03-28T16:16:10.012Z</time></trkpt><trkpt lat="44.5622067" lon="9.3961833"><ele>930.0</ele><time>2026-03-28T16:16:11.012Z</time></trkpt><trkpt lat="44.562115" lon="9.3962583"><ele>930.0</ele><time>2026-03-28T16:16:12.012Z</time></trkpt><trkpt lat="44.5620233" lon="9.3963617"><ele>930.0</ele><time>2026-03-28T16:16:13.012Z</time></trkpt><trkpt lat="44.561925" lon="9.3964467"><ele>930.0</ele><time>2026-03-28T16:16:14.012Z</time></trkpt><trkpt lat="44.5618233" lon="9.396495"><ele>930.0</ele><time>2026-03-28T16:16:15.012Z</time></trkpt><trkpt lat="44.5617183" lon="9.396525"><ele>929.8</ele><time>2026-03-28T16:16:16.012Z</time></trkpt><trkpt lat="44.5616433" lon="9.396535"><ele>929.6</ele><time>2026-03-28T16:16:17.011Z</time></trkpt><trkpt lat="44.56156" lon="9.3966"><ele>929.4000000000001</ele><time>2026-03-28T16:16:19.012Z</time></trkpt><trkpt lat="44.56155" lon="9.396755"><ele>929.2</ele><time>2026-03-28T16:16:21.012Z</time></trkpt><trkpt lat="44.5615933" lon="9.3968633"><ele>929.0</ele><time>2026-03-28T16:16:22.012Z</time></trkpt><trkpt lat="44.561655" lon="9.3969867"><ele>929.0</ele><time>2026-03-28T16:16:23.012Z</time></trkpt><trkpt lat="44.561725" lon="9.3971083"><ele>929.0</ele><time>2026-03-28T16:16:24.012Z</time></trkpt><trkpt lat="44.5617983" lon="9.39723"><ele>929.0</ele><time>2026-03-28T16:16:25.011Z</time></trkpt><trkpt lat="44.56188" lon="9.397345"><ele>929.0</ele><time>2026-03-28T16:16:26.012Z</time></trkpt><trkpt lat="44.5619567" lon="9.397455"><ele>935.6</ele><time>2026-03-28T16:16:27.012Z</time></trkpt><trkpt lat="44.562035" lon="9.39755"><ele>942.2</ele><time>2026-03-28T16:16:28.012Z</time></trkpt><trkpt lat="44.562125" lon="9.3976267"><ele>948.8000000000001</ele><time>2026-03-28T16:16:29.012Z</time></trkpt><trkpt lat="44.562225" lon="9.3976833"><ele>955.4000000000001</ele><time>2026-03-28T16:16:30.012Z</time></trkpt><trkpt lat="44.5623283" lon="9.3977417"><ele>962.0</ele><time>2026-03-28T16:16:31.011Z</time></trkpt><trkpt lat="44.56242" lon="9.3978183"><ele>962.0</ele><time>2026-03-28T16:16:32.011Z</time></trkpt><trkpt lat="44.5625133" lon="9.397895"><ele>962.0</ele><time>2026-03-28T16:16:33.012Z</time></trkpt><trkpt lat="44.5626117" lon="9.3979917"><ele>962.0</ele><time>2026-03-28T16:16:34.011Z</time></trkpt><trkpt lat="44.5627167" lon="9.3980883"><ele>962.0</ele><time>2026-03-28T16:16:35.012Z</time></trkpt><trkpt lat="44.5628083" lon="9.39818"><ele>964.8333333333334</ele><time>2026-03-28T16:16:36.011Z</time></trkpt><trkpt lat="44.56289" lon="9.398265"><ele>967.6666666666667</ele><time>2026-03-28T16:16:37.012Z</time></trkpt><trkpt lat="44.562955" lon="9.3983567"><ele>970.5</ele><time>2026-03-28T16:16:38.012Z</time></trkpt><trkpt lat="44.5630083" lon="9.3984433"><ele>973.3333333333333</ele><time>2026-03-28T16:16:39.012Z</time></trkpt><trkpt lat="44.5630417" lon="9.3985517"><ele>976.1666666666666</ele><time>2026-03-28T16:16:40.012Z</time></trkpt><trkpt lat="44.5630667" lon="9.3986433"><ele>979.0</ele><time>2026-03-28T16:16:41.011Z</time></trkpt><trkpt lat="44.5630533" lon="9.3987467"><ele>978.0</ele><time>2026-03-28T16:16:42.011Z</time></trkpt><trkpt lat="44.5630017" lon="9.3988733"><ele>977.0000000000001</ele><time>2026-03-28T16:16:43.012Z</time></trkpt><trkpt lat="44.5629217" lon="9.399"><ele>976.0000000000001</ele><time>2026-03-28T16:16:44.012Z</time></trkpt><trkpt lat="44.5628517" lon="9.3991117"><ele>975.0</ele><time>2026-03-28T16:16:45.012Z</time></trkpt><trkpt lat="44.5627933" lon="9.3992267"><ele>974.0</ele><time>2026-03-28T16:16:46.011Z</time></trkpt><trkpt lat="44.56274" lon="9.3993367"><ele>971.5000000000001</ele><time>2026-03-28T16:16:47.012Z</time></trkpt><trkpt lat="44.56271" lon="9.3994483"><ele>969.0</ele><time>2026-03-28T16:16:48.012Z</time></trkpt><trkpt lat="44.5626933" lon="9.3995717"><ele>966.5</ele><time>2026-03-28T16:16:49.011Z</time></trkpt><trkpt lat="44.5627" lon="9.3996767"><ele>964.0</ele><time>2026-03-28T16:16:50.012Z</time></trkpt><trkpt lat="44.56272" lon="9.3997933"><ele>961.5000000000001</ele><time>2026-03-28T16:16:51.012Z</time></trkpt><trkpt lat="44.5627283" lon="9.3999"><ele>959.0</ele><time>2026-03-28T16:16:52.012Z</time></trkpt><trkpt lat="44.5627117" lon="9.4000067"><ele>959.0</ele><time>2026-03-28T16:16:53.012Z</time></trkpt><trkpt lat="44.56267" lon="9.40013"><ele>959.0000000000001</ele><time>2026-03-28T16:16:54.012Z</time></trkpt><trkpt lat="44.5626233" lon="9.400245"><ele>959.0000000000001</ele><time>2026-03-28T16:16:55.011Z</time></trkpt><trkpt lat="44.5625683" lon="9.4003633"><ele>959.0</ele><time>2026-03-28T16:16:56.011Z</time></trkpt><trkpt lat="44.562515" lon="9.4005"><ele>959.0</ele><time>2026-03-28T16:16:57.012Z</time></trkpt><trkpt lat="44.56246" lon="9.4006317"><ele>962.0</ele><time>2026-03-28T16:16:58.012Z</time></trkpt><trkpt lat="44.5624183" lon="9.4007767"><ele>965.0000000000001</ele><time>2026-03-28T16:16:59.012Z</time></trkpt><trkpt lat="44.5623833" lon="9.4009267"><ele>968.0000000000001</ele><time>2026-03-28T16:17:00.012Z</time></trkpt><trkpt lat="44.5623433" lon="9.401065"><ele>971.0</ele><time>2026-03-28T16:17:01.011Z</time></trkpt><trkpt lat="44.5622917" lon="9.401185"><ele>974.0</ele><time>2026-03-28T16:17:02.012Z</time></trkpt><trkpt lat="44.5622267" lon="9.4012867"><ele>976.8000000000001</ele><time>2026-03-28T16:17:03.012Z</time></trkpt><trkpt lat="44.5621533" lon="9.4013917"><ele>979.6000000000001</ele><time>2026-03-28T16:17:04.012Z</time></trkpt><trkpt lat="44.56209" lon="9.401495"><ele>982.4</ele><time>2026-03-28T16:17:05.012Z</time></trkpt><trkpt lat="44.56204" lon="9.401615"><ele>985.2</ele><time>2026-03-28T16:17:06.012Z</time></trkpt><trkpt lat="44.5620167" lon="9.4017317"><ele>988.0</ele><time>2026-03-28T16:17:07.012Z</time></trkpt><trkpt lat="44.5620117" lon="9.4018633"><ele>988.0</ele><time>2026-03-28T16:17:08.012Z</time></trkpt><trkpt lat="44.562025" lon="9.4019983"><ele>988.0</ele><time>2026-03-28T16:17:09.012Z</time></trkpt><trkpt lat="44.5620567" lon="9.4021367"><ele>988.0</ele><time>2026-03-28T16:17:10.012Z</time></trkpt><trkpt lat="44.5621033" lon="9.4022817"><ele>988.0</ele><time>2026-03-28T16:17:11.012Z</time></trkpt><trkpt lat="44.5621517" lon="9.4024317"><ele>988.0</ele><time>2026-03-28T16:17:12.012Z</time></trkpt><trkpt lat="44.5622" lon="9.4025767"><ele>987.0</ele><time>2026-03-28T16:17:13.012Z</time></trkpt><trkpt lat="44.5622467" lon="9.4027317"><ele>986.0</ele><time>2026-03-28T16:17:14.012Z</time></trkpt><trkpt lat="44.5622933" lon="9.4028917"><ele>985.0</ele><time>2026-03-28T16:17:15.012Z</time></trkpt><trkpt lat="44.56235" lon="9.4030533"><ele>984.0</ele><time>2026-03-28T16:17:16.012Z</time></trkpt><trkpt lat="44.562395" lon="9.4032033"><ele>984.0</ele><time>2026-03-28T16:17:17.012Z</time></trkpt><trkpt lat="44.5624283" lon="9.403325"><ele>984.0</ele><time>2026-03-28T16:17:18.012Z</time></trkpt><trkpt lat="44.56247" lon="9.403445"><ele>984.0</ele><time>2026-03-28T16:17:19.012Z</time></trkpt><trkpt lat="44.5625133" lon="9.403525"><ele>984.0</ele><time>2026-03-28T16:17:20.011Z</time></trkpt><trkpt lat="44.5625683" lon="9.4035917"><ele>984.0</ele><time>2026-03-28T16:17:21.011Z</time></trkpt><trkpt lat="44.5626317" lon="9.4036333"><ele>984.0</ele><time>2026-03-28T16:17:22.012Z</time></trkpt><trkpt lat="44.56271" lon="9.4036517"><ele>984.0</ele><time>2026-03-28T16:17:23.012Z</time></trkpt><trkpt lat="44.5628" lon="9.4036433"><ele>984.0000000000001</ele><time>2026-03-28T16:17:24.012Z</time></trkpt><trkpt lat="44.5628983" lon="9.4036367"><ele>984.0000000000001</ele><time>2026-03-28T16:17:25.012Z</time></trkpt><trkpt lat="44.5630033" lon="9.4036367"><ele>984.0</ele><time>2026-03-28T16:17:26.012Z</time></trkpt><trkpt lat="44.563115" lon="9.4036283"><ele>984.0</ele><time>2026-03-28T16:17:27.012Z</time></trkpt><trkpt lat="44.5632217" lon="9.4036117"><ele>990.2</ele><time>2026-03-28T16:17:28.012Z</time></trkpt><trkpt lat="44.563325" lon="9.4035883"><ele>996.4000000000001</ele><time>2026-03-28T16:17:29.012Z</time></trkpt><trkpt lat="44.5634233" lon="9.4035283"><ele>1002.6</ele><time>2026-03-28T16:17:30.012Z</time></trkpt><trkpt lat="44.5635167" lon="9.4034967"><ele>1008.8</ele><time>2026-03-28T16:17:31.011Z</time></trkpt><trkpt lat="44.5636217" lon="9.4034867"><ele>1015.0</ele><time>2026-03-28T16:17:32.012Z</time></trkpt><trkpt lat="44.5637317" lon="9.403495"><ele>1016.8</ele><time>2026-03-28T16:17:33.012Z</time></trkpt><trkpt lat="44.5638433" lon="9.403505"><ele>1018.6</ele><time>2026-03-28T16:17:34.012Z</time></trkpt><trkpt lat="44.5639583" lon="9.4035183"><ele>1020.4000000000001</ele><time>2026-03-28T16:17:35.012Z</time></trkpt><trkpt lat="44.5640567" lon="9.40355"><ele>1022.2</ele><time>2026-03-28T16:17:36.012Z</time></trkpt><trkpt lat="44.56415" lon="9.4036033"><ele>1024.0</ele><time>2026-03-28T16:17:37.012Z</time></trkpt><trkpt lat="44.564245" lon="9.40365"><ele>1023.9999999999999</ele><time>2026-03-28T16:17:38.012Z</time></trkpt><trkpt lat="44.5643267" lon="9.40367"><ele>1024.0</ele><time>2026-03-28T16:17:39.012Z</time></trkpt><trkpt lat="44.5644117" lon="9.40364"><ele>1024.0</ele><time>2026-03-28T16:17:40.012Z</time></trkpt><trkpt lat="44.5644733" lon="9.4036167"><ele>1024.0</ele><time>2026-03-28T16:17:41.012Z</time></trkpt><trkpt lat="44.5645317" lon="9.4035717"><ele>1023.9999999999999</ele><time>2026-03-28T16:17:42.011Z</time></trkpt><trkpt lat="44.5646" lon="9.403505"><ele>1024.0</ele><time>2026-03-28T16:17:43.012Z</time></trkpt><trkpt lat="44.5646783" lon="9.4034317"><ele>1021.4000000000001</ele><time>2026-03-28T16:17:44.012Z</time></trkpt><trkpt lat="44.56477" lon="9.4033567"><ele>1018.8000000000001</ele><time>2026-03-28T16:17:45.011Z</time></trkpt><trkpt lat="44.5648683" lon="9.4032967"><ele>1016.1999999999999</ele><time>2026-03-28T16:17:46.012Z</time></trkpt><trkpt lat="44.5649683" lon="9.4032417"><ele>1013.5999999999999</ele><time>2026-03-28T16:17:47.012Z</time></trkpt><trkpt lat="44.565065" lon="9.4031917"><ele>1011.0</ele><time>2026-03-28T16:17:48.012Z</time></trkpt><trkpt lat="44.56517" lon="9.4031417"><ele>1011.0</ele><time>2026-03-28T16:17:49.012Z</time></trkpt><trkpt lat="44.56527" lon="9.40307"><ele>1011.0</ele><time>2026-03-28T16:17:50.012Z</time></trkpt><trkpt lat="44.565385" lon="9.4029967"><ele>1011.0</ele><time>2026-03-28T16:17:51.012Z</time></trkpt><trkpt lat="44.5655033" lon="9.402925"><ele>1011.0</ele><time>2026-03-28T16:17:52.012Z</time></trkpt><trkpt lat="44.5656083" lon="9.40285"><ele>1012.75</ele><time>2026-03-28T16:17:53.012Z</time></trkpt><trkpt lat="44.5656983" lon="9.4027417"><ele>1014.5</ele><time>2026-03-28T16:17:54.011Z</time></trkpt><trkpt lat="44.56577" lon="9.4026333"><ele>1016.25</ele><time>2026-03-28T16:17:55.012Z</time></trkpt><trkpt lat="44.565835" lon="9.4025"><ele>1018.0</ele><time>2026-03-28T16:17:56.012Z</time></trkpt><trkpt lat="44.5658983" lon="9.40236"><ele>1018.0</ele><time>2026-03-28T16:17:57.012Z</time></trkpt><trkpt lat="44.56595" lon="9.4022217"><ele>1018.0</ele><time>2026-03-28T16:17:58.012Z</time></trkpt><trkpt lat="44.56601" lon="9.4020767"><ele>1018.0</ele><time>2026-03-28T16:17:59.012Z</time></trkpt><trkpt lat="44.56608" lon="9.4019217"><ele>1018.0</ele><time>2026-03-28T16:18:00.011Z</time></trkpt><trkpt lat="44.5661467" lon="9.4017633"><ele>1018.25</ele><time>2026-03-28T16:18:01.012Z</time></trkpt><trkpt lat="44.5662067" lon="9.40161"><ele>1018.5</ele><time>2026-03-28T16:18:02.011Z</time></trkpt><trkpt lat="44.5662767" lon="9.4014483"><ele>1018.75</ele><time>2026-03-28T16:18:03.012Z</time></trkpt><trkpt lat="44.5663483" lon="9.401295"><ele>1019.0</ele><time>2026-03-28T16:18:04.012Z</time></trkpt><trkpt lat="44.56643" lon="9.4011617"><ele>1024.5</ele><time>2026-03-28T16:18:05.012Z</time></trkpt><trkpt lat="44.566525" lon="9.4010133"><ele>1030.0</ele><time>2026-03-28T16:18:06.012Z</time></trkpt><trkpt lat="44.56661" lon="9.4008817"><ele>1035.5</ele><time>2026-03-28T16:18:07.012Z</time></trkpt><trkpt lat="44.5667" lon="9.4007667"><ele>1041.0</ele><time>2026-03-28T16:18:08.012Z</time></trkpt><trkpt lat="44.5667917" lon="9.4006783"><ele>1041.0</ele><time>2026-03-28T16:18:09.012Z</time></trkpt><trkpt lat="44.5668783" lon="9.400605"><ele>1041.0</ele><time>2026-03-28T16:18:10.012Z</time></trkpt><trkpt lat="44.5669617" lon="9.4005317"><ele>1041.0</ele><time>2026-03-28T16:18:11.012Z</time></trkpt><trkpt lat="44.5670317" lon="9.4004983"><ele>1041.0</ele><time>2026-03-28T16:18:12.012Z</time></trkpt><trkpt lat="44.5671" lon="9.400545"><ele>1041.0</ele><time>2026-03-28T16:18:13.011Z</time></trkpt><trkpt lat="44.5671733" lon="9.4005833"><ele>1041.0</ele><time>2026-03-28T16:18:14.011Z</time></trkpt><trkpt lat="44.567235" lon="9.4006333"><ele>1042.8</ele><time>2026-03-28T16:18:15.012Z</time></trkpt><trkpt lat="44.56729" lon="9.4007717"><ele>1044.6</ele><time>2026-03-28T16:18:17.012Z</time></trkpt><trkpt lat="44.5672667" lon="9.4008917"><ele>1046.4</ele><time>2026-03-28T16:18:18.012Z</time></trkpt><trkpt lat="44.5672467" lon="9.401015"><ele>1048.2</ele><time>2026-03-28T16:18:19.012Z</time></trkpt><trkpt lat="44.56724" lon="9.40115"><ele>1050.0</ele><time>2026-03-28T16:18:20.011Z</time></trkpt><trkpt lat="44.5672533" lon="9.4012867"><ele>1047.6</ele><time>2026-03-28T16:18:21.011Z</time></trkpt><trkpt lat="44.5672817" lon="9.4014033"><ele>1045.2</ele><time>2026-03-28T16:18:22.012Z</time></trkpt><trkpt lat="44.567325" lon="9.4015017"><ele>1042.8</ele><time>2026-03-28T16:18:23.012Z</time></trkpt><trkpt lat="44.5673717" lon="9.4015767"><ele>1040.4</ele><time>2026-03-28T16:18:24.012Z</time></trkpt><trkpt lat="44.5674967" lon="9.4016417"><ele>1038.0</ele><time>2026-03-28T16:18:26.011Z</time></trkpt><trkpt lat="44.5675867" lon="9.4016767"><ele>1038.0</ele><time>2026-03-28T16:18:27.012Z</time></trkpt><trkpt lat="44.5676633" lon="9.4017367"><ele>1038.0</ele><time>2026-03-28T16:18:28.012Z</time></trkpt><trkpt lat="44.5677383" lon="9.4018067"><ele>1038.0</ele><time>2026-03-28T16:18:29.012Z</time></trkpt><trkpt lat="44.5678017" lon="9.401895"><ele>1038.0</ele><time>2026-03-28T16:18:30.011Z</time></trkpt><trkpt lat="44.5678817" lon="9.40196"><ele>1038.0</ele><time>2026-03-28T16:18:31.012Z</time></trkpt><trkpt lat="44.56796" lon="9.4020017"><ele>1038.0</ele><time>2026-03-28T16:18:33.011Z</time></trkpt><trkpt lat="44.567995" lon="9.4019133"><ele>1038.0</ele><time>2026-03-28T16:18:35.012Z</time></trkpt><trkpt lat="44.5679233" lon="9.401765"><ele>1038.0</ele><time>2026-03-28T16:18:37.012Z</time></trkpt><trkpt lat="44.567865" lon="9.40168"><ele>1038.0</ele><time>2026-03-28T16:18:38.012Z</time></trkpt><trkpt lat="44.56779" lon="9.4015767"><ele>1038.0</ele><time>2026-03-28T16:18:39.012Z</time></trkpt><trkpt lat="44.5677133" lon="9.4014983"><ele>1038.0</ele><time>2026-03-28T16:18:40.011Z</time></trkpt><trkpt lat="44.5676233" lon="9.401405"><ele>1040.4</ele><time>2026-03-28T16:18:41.012Z</time></trkpt><trkpt lat="44.5675467" lon="9.40132"><ele>1042.8</ele><time>2026-03-28T16:18:42.012Z</time></trkpt><trkpt lat="44.5674767" lon="9.4012317"><ele>1045.2</ele><time>2026-03-28T16:18:43.011Z</time></trkpt><trkpt lat="44.5674467" lon="9.4011433"><ele>1047.6</ele><time>2026-03-28T16:18:44.012Z</time></trkpt><trkpt lat="44.56749" lon="9.400975"><ele>1050.0</ele><time>2026-03-28T16:18:46.012Z</time></trkpt><trkpt lat="44.567545" lon="9.4008933"><ele>1050.0</ele><time>2026-03-28T16:18:47.012Z</time></trkpt><trkpt lat="44.567595" lon="9.400795"><ele>1050.0</ele><time>2026-03-28T16:18:48.012Z</time></trkpt><trkpt lat="44.56764" lon="9.40068"><ele>1050.0</ele><time>2026-03-28T16:18:49.012Z</time></trkpt><trkpt lat="44.5676833" lon="9.4005683"><ele>1050.0</ele><time>2026-03-28T16:18:50.011Z</time></trkpt><trkpt lat="44.567685" lon="9.4004467"><ele>1050.0</ele><time>2026-03-28T16:18:51.012Z</time></trkpt><trkpt lat="44.567675" lon="9.400335"><ele>1050.0</ele><time>2026-03-28T16:18:52.011Z</time></trkpt><trkpt lat="44.5676433" lon="9.4002467"><ele>1053.0</ele><time>2026-03-28T16:18:53.012Z</time></trkpt><trkpt lat="44.5676017" lon="9.4001683"><ele>1056.0</ele><time>2026-03-28T16:18:54.012Z</time></trkpt><trkpt lat="44.56755" lon="9.4000883"><ele>1059.0</ele><time>2026-03-28T16:18:55.012Z</time></trkpt><trkpt lat="44.567515" lon="9.3999917"><ele>1062.0</ele><time>2026-03-28T16:18:56.012Z</time></trkpt><trkpt lat="44.567535" lon="9.3998433"><ele>1065.0</ele><time>2026-03-28T16:18:58.012Z</time></trkpt><trkpt lat="44.5676067" lon="9.39983"><ele>1068.0</ele><time>2026-03-28T16:19:00.012Z</time></trkpt><trkpt lat="44.5676583" lon="9.39989"><ele>1068.0</ele><time>2026-03-28T16:19:01.012Z</time></trkpt><trkpt lat="44.5677167" lon="9.399975"><ele>1068.0</ele><time>2026-03-28T16:19:02.012Z</time></trkpt><trkpt lat="44.5677833" lon="9.40007"><ele>1068.0</ele><time>2026-03-28T16:19:03.012Z</time></trkpt><trkpt lat="44.5678433" lon="9.4001567"><ele>1068.0</ele><time>2026-03-28T16:19:04.012Z</time></trkpt><trkpt lat="44.567895" lon="9.40026"><ele>1068.0</ele><time>2026-03-28T16:19:05.012Z</time></trkpt><trkpt lat="44.5679233" lon="9.400405"><ele>1070.0</ele><time>2026-03-28T16:19:06.012Z</time></trkpt><trkpt lat="44.5679417" lon="9.4005533"><ele>1072.0</ele><time>2026-03-28T16:19:07.011Z</time></trkpt><trkpt lat="44.56797" lon="9.40066"><ele>1074.0</ele><time>2026-03-28T16:19:08.012Z</time></trkpt><trkpt lat="44.5680033" lon="9.4007417"><ele>1076.0</ele><time>2026-03-28T16:19:09.011Z</time></trkpt><trkpt lat="44.5681017" lon="9.4008383"><ele>1078.0</ele><time>2026-03-28T16:19:11.012Z</time></trkpt><trkpt lat="44.5681767" lon="9.400865"><ele>1078.0</ele><time>2026-03-28T16:19:12.012Z</time></trkpt><trkpt lat="44.5682633" lon="9.4009033"><ele>1078.0</ele><time>2026-03-28T16:19:13.012Z</time></trkpt><trkpt lat="44.5683517" lon="9.4009633"><ele>1078.0</ele><time>2026-03-28T16:19:14.012Z</time></trkpt><trkpt lat="44.568435" lon="9.4010417"><ele>1078.0</ele><time>2026-03-28T16:19:15.012Z</time></trkpt><trkpt lat="44.5685183" lon="9.401135"><ele>1078.0</ele><time>2026-03-28T16:19:16.011Z</time></trkpt><trkpt lat="44.5685883" lon="9.4012217"><ele>1075.6</ele><time>2026-03-28T16:19:17.012Z</time></trkpt><trkpt lat="44.56863" lon="9.40134"><ele>1073.1999999999998</ele><time>2026-03-28T16:19:18.012Z</time></trkpt><trkpt lat="44.56868" lon="9.4014583"><ele>1070.8</ele><time>2026-03-28T16:19:19.012Z</time></trkpt><trkpt lat="44.5687367" lon="9.4015817"><ele>1068.3999999999999</ele><time>2026-03-28T16:19:20.012Z</time></trkpt><trkpt lat="44.5687883" lon="9.4017167"><ele>1066.0</ele><time>2026-03-28T16:19:21.012Z</time></trkpt><trkpt lat="44.5688433" lon="9.4018367"><ele>1069.6</ele><time>2026-03-28T16:19:22.012Z</time></trkpt><trkpt lat="44.5688883" lon="9.40197"><ele>1073.1999999999998</ele><time>2026-03-28T16:19:23.011Z</time></trkpt><trkpt lat="44.5689233" lon="9.402105"><ele>1076.8000000000002</ele><time>2026-03-28T16:19:24.011Z</time></trkpt><trkpt lat="44.5689433" lon="9.4022467"><ele>1080.4</ele><time>2026-03-28T16:19:25.012Z</time></trkpt><trkpt lat="44.5689433" lon="9.4023833"><ele>1084.0</ele><time>2026-03-28T16:19:26.012Z</time></trkpt><trkpt lat="44.5689317" lon="9.4025217"><ele>1084.0</ele><time>2026-03-28T16:19:27.012Z</time></trkpt><trkpt lat="44.5689133" lon="9.402635"><ele>1084.0</ele><time>2026-03-28T16:19:28.012Z</time></trkpt><trkpt lat="44.5688867" lon="9.4027383"><ele>1084.0</ele><time>2026-03-28T16:19:29.013Z</time></trkpt><trkpt lat="44.568885" lon="9.4028267"><ele>1084.0</ele><time>2026-03-28T16:19:30.012Z</time></trkpt><trkpt lat="44.5689533" lon="9.40297"><ele>1084.0</ele><time>2026-03-28T16:19:32.013Z</time></trkpt><trkpt lat="44.5690217" lon="9.40301"><ele>1084.0</ele><time>2026-03-28T16:19:33.013Z</time></trkpt><trkpt lat="44.569135" lon="9.4030417"><ele>1084.0</ele><time>2026-03-28T16:19:35.013Z</time></trkpt><trkpt lat="44.5692517" lon="9.4029383"><ele>1084.0</ele><time>2026-03-28T16:19:37.013Z</time></trkpt><trkpt lat="44.5693233" lon="9.402855"><ele>1084.0</ele><time>2026-03-28T16:19:38.013Z</time></trkpt><trkpt lat="44.5694067" lon="9.4027783"><ele>1084.0</ele><time>2026-03-28T16:19:39.013Z</time></trkpt><trkpt lat="44.5694833" lon="9.4027183"><ele>1084.0</ele><time>2026-03-28T16:19:40.013Z</time></trkpt><trkpt lat="44.5695733" lon="9.4026517"><ele>1086.0</ele><time>2026-03-28T16:19:41.013Z</time></trkpt><trkpt lat="44.5696617" lon="9.4025983"><ele>1088.0</ele><time>2026-03-28T16:19:42.013Z</time></trkpt><trkpt lat="44.5697583" lon="9.402555"><ele>1090.0</ele><time>2026-03-28T16:19:43.013Z</time></trkpt><trkpt lat="44.56985" lon="9.4025467"><ele>1092.0</ele><time>2026-03-28T16:19:44.013Z</time></trkpt><trkpt lat="44.5699367" lon="9.4025717"><ele>1094.0</ele><time>2026-03-28T16:19:45.013Z</time></trkpt><trkpt lat="44.570025" lon="9.4026133"><ele>1094.0</ele><time>2026-03-28T16:19:46.013Z</time></trkpt><trkpt lat="44.5701317" lon="9.40262"><ele>1094.0</ele><time>2026-03-28T16:19:47.013Z</time></trkpt><trkpt lat="44.5702217" lon="9.40266"><ele>1094.0</ele><time>2026-03-28T16:19:48.013Z</time></trkpt><trkpt lat="44.5703033" lon="9.4027067"><ele>1094.0</ele><time>2026-03-28T16:19:49.013Z</time></trkpt><trkpt lat="44.5703683" lon="9.4027817"><ele>1094.0</ele><time>2026-03-28T16:19:50.013Z</time></trkpt><trkpt lat="44.5704183" lon="9.4028783"><ele>1092.5</ele><time>2026-03-28T16:19:51.013Z</time></trkpt><trkpt lat="44.57044" lon="9.4029883"><ele>1091.0</ele><time>2026-03-28T16:19:52.013Z</time></trkpt><trkpt lat="44.57042" lon="9.403095"><ele>1089.5</ele><time>2026-03-28T16:19:53.013Z</time></trkpt><trkpt lat="44.5703717" lon="9.4031983"><ele>1088.0</ele><time>2026-03-28T16:19:54.013Z</time></trkpt><trkpt lat="44.57029" lon="9.4032783"><ele>1086.5</ele><time>2026-03-28T16:19:55.013Z</time></trkpt><trkpt lat="44.5702167" lon="9.4033733"><ele>1085.0</ele><time>2026-03-28T16:19:56.013Z</time></trkpt><trkpt lat="44.5701667" lon="9.4034783"><ele>1085.0</ele><time>2026-03-28T16:19:57.013Z</time></trkpt><trkpt lat="44.57013" lon="9.4036083"><ele>1085.0</ele><time>2026-03-28T16:19:58.013Z</time></trkpt><trkpt lat="44.570105" lon="9.4037583"><ele>1085.0</ele><time>2026-03-28T16:19:59.013Z</time></trkpt><trkpt lat="44.5700783" lon="9.4039133"><ele>1085.0</ele><time>2026-03-28T16:20:00.013Z</time></trkpt><trkpt lat="44.57005" lon="9.40408"><ele>1085.0</ele><time>2026-03-28T16:20:01.013Z</time></trkpt><trkpt lat="44.5700183" lon="9.4042533"><ele>1085.25</ele><time>2026-03-28T16:20:02.013Z</time></trkpt><trkpt lat="44.5699833" lon="9.4044283"><ele>1085.5</ele><time>2026-03-28T16:20:03.013Z</time></trkpt><trkpt lat="44.5699417" lon="9.4045983"><ele>1085.75</ele><time>2026-03-28T16:20:04.013Z</time></trkpt><trkpt lat="44.5698983" lon="9.4047567"><ele>1086.0</ele><time>2026-03-28T16:20:05.013Z</time></trkpt><trkpt lat="44.5698633" lon="9.4049067"><ele>1086.0</ele><time>2026-03-28T16:20:06.013Z</time></trkpt><trkpt lat="44.569825" lon="9.4050383"><ele>1086.0</ele><time>2026-03-28T16:20:07.013Z</time></trkpt><trkpt lat="44.569805" lon="9.4051467"><ele>1086.0</ele><time>2026-03-28T16:20:08.012Z</time></trkpt><trkpt lat="44.5698383" lon="9.405315"><ele>1086.0</ele><time>2026-03-28T16:20:10.013Z</time></trkpt><trkpt lat="44.5698933" lon="9.4053833"><ele>1086.0</ele><time>2026-03-28T16:20:11.013Z</time></trkpt><trkpt lat="44.569955" lon="9.40545"><ele>1086.0</ele><time>2026-03-28T16:20:12.013Z</time></trkpt><trkpt lat="44.5700317" lon="9.4054733"><ele>1086.0</ele><time>2026-03-28T16:20:13.013Z</time></trkpt><trkpt lat="44.5701033" lon="9.4054817"><ele>1086.0</ele><time>2026-03-28T16:20:14.013Z</time></trkpt><trkpt lat="44.57017" lon="9.4054633"><ele>1086.0</ele><time>2026-03-28T16:20:15.013Z</time></trkpt><trkpt lat="44.570245" lon="9.4054133"><ele>1086.0</ele><time>2026-03-28T16:20:16.013Z</time></trkpt><trkpt lat="44.570325" lon="9.4053283"><ele>1086.0</ele><time>2026-03-28T16:20:17.013Z</time></trkpt><trkpt lat="44.5704017" lon="9.4052217"><ele>1083.8</ele><time>2026-03-28T16:20:18.012Z</time></trkpt><trkpt lat="44.57047" lon="9.4051"><ele>1081.6</ele><time>2026-03-28T16:20:19.013Z</time></trkpt><trkpt lat="44.5705467" lon="9.4050083"><ele>1079.4</ele><time>2026-03-28T16:20:20.013Z</time></trkpt><trkpt lat="44.57062" lon="9.40492"><ele>1077.2</ele><time>2026-03-28T16:20:21.013Z</time></trkpt><trkpt lat="44.5707033" lon="9.4048483"><ele>1075.0</ele><time>2026-03-28T16:20:22.013Z</time></trkpt><trkpt lat="44.5707967" lon="9.4047567"><ele>1075.0</ele><time>2026-03-28T16:20:23.013Z</time></trkpt><trkpt lat="44.5708917" lon="9.404665"><ele>1075.0</ele><time>2026-03-28T16:20:24.013Z</time></trkpt><trkpt lat="44.5709733" lon="9.4045933"><ele>1075.0</ele><time>2026-03-28T16:20:25.013Z</time></trkpt><trkpt lat="44.5710467" lon="9.4045233"><ele>1075.0</ele><time>2026-03-28T16:20:26.013Z</time></trkpt><trkpt lat="44.5711283" lon="9.4044833"><ele>1075.0</ele><time>2026-03-28T16:20:27.013Z</time></trkpt><trkpt lat="44.571215" lon="9.4044917"><ele>1083.2</ele><time>2026-03-28T16:20:28.013Z</time></trkpt><trkpt lat="44.571305" lon="9.4045233"><ele>1091.4</ele><time>2026-03-28T16:20:29.012Z</time></trkpt><trkpt lat="44.5714017" lon="9.4045383"><ele>1099.6</ele><time>2026-03-28T16:20:30.013Z</time></trkpt><trkpt lat="44.571495" lon="9.404565"><ele>1107.8</ele><time>2026-03-28T16:20:31.012Z</time></trkpt><trkpt lat="44.5715917" lon="9.404565"><ele>1116.0</ele><time>2026-03-28T16:20:32.013Z</time></trkpt><trkpt lat="44.571685" lon="9.404525"><ele>1116.0</ele><time>2026-03-28T16:20:33.013Z</time></trkpt><trkpt lat="44.5717533" lon="9.404515"><ele>1116.0</ele><time>2026-03-28T16:20:34.013Z</time></trkpt><trkpt lat="44.5718233" lon="9.404495"><ele>1116.0</ele><time>2026-03-28T16:20:35.013Z</time></trkpt><trkpt lat="44.5719033" lon="9.4044633"><ele>1116.0</ele><time>2026-03-28T16:20:36.012Z</time></trkpt><trkpt lat="44.5719867" lon="9.4044033"><ele>1116.0</ele><time>2026-03-28T16:20:37.013Z</time></trkpt><trkpt lat="44.57207" lon="9.4043717"><ele>1116.0</ele><time>2026-03-28T16:20:38.013Z</time></trkpt><trkpt lat="44.57216" lon="9.4043533"><ele>1114.8333333333333</ele><time>2026-03-28T16:20:39.013Z</time></trkpt><trkpt lat="44.57225" lon="9.4043533"><ele>1113.6666666666667</ele><time>2026-03-28T16:20:40.013Z</time></trkpt><trkpt lat="44.5723317" lon="9.40438"><ele>1112.5</ele><time>2026-03-28T16:20:41.013Z</time></trkpt><trkpt lat="44.5724" lon="9.4044033"><ele>1111.3333333333335</ele><time>2026-03-28T16:20:42.013Z</time></trkpt><trkpt lat="44.5724667" lon="9.40441"><ele>1110.1666666666667</ele><time>2026-03-28T16:20:43.012Z</time></trkpt><trkpt lat="44.5725883" lon="9.404385"><ele>1109.0</ele><time>2026-03-28T16:20:45.012Z</time></trkpt><trkpt lat="44.5726717" lon="9.40434"><ele>1109.0</ele><time>2026-03-28T16:20:46.013Z</time></trkpt><trkpt lat="44.57275" lon="9.4042967"><ele>1109.0</ele><time>2026-03-28T16:20:47.013Z</time></trkpt><trkpt lat="44.57284" lon="9.4042633"><ele>1109.0</ele><time>2026-03-28T16:20:48.013Z</time></trkpt><trkpt lat="44.5729367" lon="9.4042383"><ele>1109.0</ele><time>2026-03-28T16:20:49.013Z</time></trkpt><trkpt lat="44.5730333" lon="9.40424"><ele>1109.0</ele><time>2026-03-28T16:20:50.013Z</time></trkpt><trkpt lat="44.573125" lon="9.4042483"><ele>1107.5</ele><time>2026-03-28T16:20:51.013Z</time></trkpt><trkpt lat="44.5732067" lon="9.40427"><ele>1106.0</ele><time>2026-03-28T16:20:52.013Z</time></trkpt><trkpt lat="44.5732867" lon="9.4043217"><ele>1104.5</ele><time>2026-03-28T16:20:53.013Z</time></trkpt><trkpt lat="44.57335" lon="9.4043817"><ele>1103.0</ele><time>2026-03-28T16:20:54.013Z</time></trkpt><trkpt lat="44.573405" lon="9.4044817"><ele>1101.5</ele><time>2026-03-28T16:20:55.013Z</time></trkpt><trkpt lat="44.573455" lon="9.4045883"><ele>1100.0</ele><time>2026-03-28T16:20:56.013Z</time></trkpt><trkpt lat="44.573495" lon="9.4047083"><ele>1100.0</ele><time>2026-03-28T16:20:57.013Z</time></trkpt><trkpt lat="44.573545" lon="9.40482"><ele>1100.0</ele><time>2026-03-28T16:20:58.013Z</time></trkpt><trkpt lat="44.5735683" lon="9.40495"><ele>1100.0</ele><time>2026-03-28T16:20:59.013Z</time></trkpt><trkpt lat="44.573585" lon="9.4050983"><ele>1100.0</ele><time>2026-03-28T16:21:00.013Z</time></trkpt><trkpt lat="44.573585" lon="9.405255"><ele>1100.0</ele><time>2026-03-28T16:21:01.013Z</time></trkpt><trkpt lat="44.5735633" lon="9.4054133"><ele>1094.6</ele><time>2026-03-28T16:21:02.013Z</time></trkpt><trkpt lat="44.5735367" lon="9.4055717"><ele>1089.2</ele><time>2026-03-28T16:21:03.013Z</time></trkpt><trkpt lat="44.5735217" lon="9.4056983"><ele>1083.8</ele><time>2026-03-28T16:21:04.013Z</time></trkpt><trkpt lat="44.573505" lon="9.4058117"><ele>1078.4</ele><time>2026-03-28T16:21:05.013Z</time></trkpt><trkpt lat="44.5734983" lon="9.405925"><ele>1073.0</ele><time>2026-03-28T16:21:06.013Z</time></trkpt><trkpt lat="44.573545" lon="9.4060967"><ele>1073.0</ele><time>2026-03-28T16:21:08.012Z</time></trkpt><trkpt lat="44.573595" lon="9.40616"><ele>1073.0</ele><time>2026-03-28T16:21:09.013Z</time></trkpt><trkpt lat="44.5736633" lon="9.4062267"><ele>1073.0</ele><time>2026-03-28T16:21:10.013Z</time></trkpt><trkpt lat="44.5737217" lon="9.4062967"><ele>1073.0</ele><time>2026-03-28T16:21:11.013Z</time></trkpt><trkpt lat="44.5737817" lon="9.4063783"><ele>1073.0</ele><time>2026-03-28T16:21:12.013Z</time></trkpt><trkpt lat="44.5738267" lon="9.406485"><ele>1073.0</ele><time>2026-03-28T16:21:13.013Z</time></trkpt><trkpt lat="44.57387" lon="9.40658"><ele>1077.0</ele><time>2026-03-28T16:21:14.013Z</time></trkpt><trkpt lat="44.5739133" lon="9.4066633"><ele>1081.0</ele><time>2026-03-28T16:21:15.013Z</time></trkpt><trkpt lat="44.5740233" lon="9.4067533"><ele>1085.0</ele><time>2026-03-28T16:21:17.013Z</time></trkpt><trkpt lat="44.5740933" lon="9.4067683"><ele>1089.0</ele><time>2026-03-28T16:21:18.013Z</time></trkpt><trkpt lat="44.57418" lon="9.4067817"><ele>1093.0</ele><time>2026-03-28T16:21:19.013Z</time></trkpt><trkpt lat="44.5742733" lon="9.4068017"><ele>1093.0</ele><time>2026-03-28T16:21:20.013Z</time></trkpt><trkpt lat="44.57437" lon="9.406825"><ele>1093.0</ele><time>2026-03-28T16:21:21.013Z</time></trkpt><trkpt lat="44.5744917" lon="9.4068333"><ele>1093.0</ele><time>2026-03-28T16:21:22.013Z</time></trkpt><trkpt lat="44.5745933" lon="9.40688"><ele>1093.0</ele><time>2026-03-28T16:21:23.013Z</time></trkpt><trkpt lat="44.5746967" lon="9.406955"><ele>1093.0</ele><time>2026-03-28T16:21:24.013Z</time></trkpt><trkpt lat="44.57479" lon="9.407045"><ele>1096.3333333333333</ele><time>2026-03-28T16:21:25.013Z</time></trkpt><trkpt lat="44.57487" lon="9.4071433"><ele>1099.6666666666665</ele><time>2026-03-28T16:21:26.013Z</time></trkpt><trkpt lat="44.574935" lon="9.4072433"><ele>1103.0</ele><time>2026-03-28T16:21:27.012Z</time></trkpt><trkpt lat="44.5749883" lon="9.4073267"><ele>1106.3333333333333</ele><time>2026-03-28T16:21:28.013Z</time></trkpt><trkpt lat="44.5750467" lon="9.4073933"><ele>1109.6666666666667</ele><time>2026-03-28T16:21:29.013Z</time></trkpt><trkpt lat="44.575115" lon="9.4074433"><ele>1113.0</ele><time>2026-03-28T16:21:30.013Z</time></trkpt><trkpt lat="44.5751983" lon="9.4074667"><ele>1108.5</ele><time>2026-03-28T16:21:31.013Z</time></trkpt><trkpt lat="44.5752967" lon="9.4074683"><ele>1104.0</ele><time>2026-03-28T16:21:32.013Z</time></trkpt><trkpt lat="44.5753967" lon="9.4074367"><ele>1099.5</ele><time>2026-03-28T16:21:33.013Z</time></trkpt><trkpt lat="44.5754833" lon="9.4073883"><ele>1095.0</ele><time>2026-03-28T16:21:34.012Z</time></trkpt><trkpt lat="44.5755433" lon="9.4073317"><ele>1090.5</ele><time>2026-03-28T16:21:35.012Z</time></trkpt><trkpt lat="44.575595" lon="9.4072633"><ele>1086.0</ele><time>2026-03-28T16:21:36.013Z</time></trkpt><trkpt lat="44.57563" lon="9.40716"><ele>1086.0</ele><time>2026-03-28T16:21:37.013Z</time></trkpt><trkpt lat="44.57563" lon="9.40703"><ele>1086.0</ele><time>2026-03-28T16:21:38.013Z</time></trkpt><trkpt lat="44.57564" lon="9.4068917"><ele>1086.0</ele><time>2026-03-28T16:21:39.013Z</time></trkpt><trkpt lat="44.5756633" lon="9.40676"><ele>1086.0</ele><time>2026-03-28T16:21:40.012Z</time></trkpt><trkpt lat="44.575695" lon="9.40664"><ele>1086.0</ele><time>2026-03-28T16:21:41.013Z</time></trkpt><trkpt lat="44.5757283" lon="9.4065067"><ele>1086.0</ele><time>2026-03-28T16:21:42.013Z</time></trkpt><trkpt lat="44.5757617" lon="9.4063767"><ele>1086.0</ele><time>2026-03-28T16:21:43.012Z</time></trkpt><trkpt lat="44.5757917" lon="9.4062383"><ele>1086.0</ele><time>2026-03-28T16:21:44.013Z</time></trkpt><trkpt lat="44.5758233" lon="9.4061033"><ele>1086.0</ele><time>2026-03-28T16:21:45.013Z</time></trkpt><trkpt lat="44.5758617" lon="9.4059767"><ele>1086.0</ele><time>2026-03-28T16:21:46.013Z</time></trkpt><trkpt lat="44.5758983" lon="9.4058467"><ele>1091.0</ele><time>2026-03-28T16:21:47.013Z</time></trkpt><trkpt lat="44.575945" lon="9.40573"><ele>1096.0</ele><time>2026-03-28T16:21:48.013Z</time></trkpt><trkpt lat="44.5760117" lon="9.4056317"><ele>1101.0</ele><time>2026-03-28T16:21:49.012Z</time></trkpt><trkpt lat="44.5760883" lon="9.4055633"><ele>1106.0</ele><time>2026-03-28T16:21:50.013Z</time></trkpt><trkpt lat="44.576175" lon="9.4055017"><ele>1111.0</ele><time>2026-03-28T16:21:51.013Z</time></trkpt><trkpt lat="44.5762683" lon="9.4054617"><ele>1112.8</ele><time>2026-03-28T16:21:52.013Z</time></trkpt><trkpt lat="44.576355" lon="9.4054183"><ele>1114.6</ele><time>2026-03-28T16:21:53.013Z</time></trkpt><trkpt lat="44.576445" lon="9.4053767"><ele>1116.4</ele><time>2026-03-28T16:21:54.013Z</time></trkpt><trkpt lat="44.57654" lon="9.40532"><ele>1118.2</ele><time>2026-03-28T16:21:55.013Z</time></trkpt><trkpt lat="44.5766267" lon="9.4052683"><ele>1120.0</ele><time>2026-03-28T16:21:56.012Z</time></trkpt><trkpt lat="44.576705" lon="9.4052317"><ele>1120.0</ele><time>2026-03-28T16:21:57.013Z</time></trkpt><trkpt lat="44.5767783" lon="9.4051933"><ele>1120.0</ele><time>2026-03-28T16:21:58.013Z</time></trkpt><trkpt lat="44.5768467" lon="9.405145"><ele>1120.0</ele><time>2026-03-28T16:21:59.013Z</time></trkpt><trkpt lat="44.5769033" lon="9.4050583"><ele>1120.0</ele><time>2026-03-28T16:22:00.013Z</time></trkpt><trkpt lat="44.5769767" lon="9.404955"><ele>1120.0</ele><time>2026-03-28T16:22:01.013Z</time></trkpt><trkpt lat="44.5770583" lon="9.4048483"><ele>1122.4</ele><time>2026-03-28T16:22:02.013Z</time></trkpt><trkpt lat="44.5771383" lon="9.404745"><ele>1124.8</ele><time>2026-03-28T16:22:03.013Z</time></trkpt><trkpt lat="44.5772133" lon="9.404635"><ele>1127.2</ele><time>2026-03-28T16:22:04.013Z</time></trkpt><trkpt lat="44.5772883" lon="9.4045383"><ele>1129.6</ele><time>2026-03-28T16:22:05.012Z</time></trkpt><trkpt lat="44.577355" lon="9.4044733"><ele>1132.0</ele><time>2026-03-28T16:22:06.013Z</time></trkpt><trkpt lat="44.5774317" lon="9.4044183"><ele>1132.0</ele><time>2026-03-28T16:22:07.013Z</time></trkpt><trkpt lat="44.5775017" lon="9.4043917"><ele>1132.0</ele><time>2026-03-28T16:22:08.013Z</time></trkpt><trkpt lat="44.5775767" lon="9.4043983"><ele>1132.0</ele><time>2026-03-28T16:22:09.013Z</time></trkpt><trkpt lat="44.5776383" lon="9.404445"><ele>1132.0</ele><time>2026-03-28T16:22:10.013Z</time></trkpt><trkpt lat="44.5776883" lon="9.4045417"><ele>1132.0</ele><time>2026-03-28T16:22:11.013Z</time></trkpt><trkpt lat="44.5777333" lon="9.40468"><ele>1132.0</ele><time>2026-03-28T16:22:12.012Z</time></trkpt><trkpt lat="44.5777867" lon="9.4048317"><ele>1135.0</ele><time>2026-03-28T16:22:13.013Z</time></trkpt><trkpt lat="44.5778433" lon="9.4050017"><ele>1138.0</ele><time>2026-03-28T16:22:14.013Z</time></trkpt><trkpt lat="44.5779133" lon="9.4051533"><ele>1141.0</ele><time>2026-03-28T16:22:15.013Z</time></trkpt><trkpt lat="44.5779817" lon="9.4053133"><ele>1144.0</ele><time>2026-03-28T16:22:16.012Z</time></trkpt><trkpt lat="44.57805" lon="9.4054533"><ele>1135.5</ele><time>2026-03-28T16:22:17.013Z</time></trkpt><trkpt lat="44.5781317" lon="9.4055717"><ele>1127.0</ele><time>2026-03-28T16:22:18.013Z</time></trkpt><trkpt lat="44.5782267" lon="9.4056833"><ele>1118.5</ele><time>2026-03-28T16:22:19.013Z</time></trkpt><trkpt lat="44.57831" lon="9.4058083"><ele>1110.0</ele><time>2026-03-28T16:22:20.013Z</time></trkpt><trkpt lat="44.5783883" lon="9.4059233"><ele>1110.0</ele><time>2026-03-28T16:22:21.012Z</time></trkpt><trkpt lat="44.5784617" lon="9.4060233"><ele>1110.0</ele><time>2026-03-28T16:22:22.013Z</time></trkpt><trkpt lat="44.5785283" lon="9.4060967"><ele>1110.0</ele><time>2026-03-28T16:22:23.013Z</time></trkpt><trkpt lat="44.5786" lon="9.4061467"><ele>1110.0</ele><time>2026-03-28T16:22:24.012Z</time></trkpt><trkpt lat="44.5786817" lon="9.4061667"><ele>1110.0</ele><time>2026-03-28T16:22:25.013Z</time></trkpt><trkpt lat="44.5787633" lon="9.4061683"><ele>1110.0</ele><time>2026-03-28T16:22:26.013Z</time></trkpt><trkpt lat="44.5788383" lon="9.406155"><ele>1113.2</ele><time>2026-03-28T16:22:27.013Z</time></trkpt><trkpt lat="44.57892" lon="9.406125"><ele>1116.4</ele><time>2026-03-28T16:22:28.013Z</time></trkpt><trkpt lat="44.57901" lon="9.4060883"><ele>1119.6</ele><time>2026-03-28T16:22:29.013Z</time></trkpt><trkpt lat="44.5791133" lon="9.40603"><ele>1122.8</ele><time>2026-03-28T16:22:30.013Z</time></trkpt><trkpt lat="44.5792067" lon="9.4060083"><ele>1126.0</ele><time>2026-03-28T16:22:31.013Z</time></trkpt><trkpt lat="44.5793217" lon="9.405955"><ele>1126.0</ele><time>2026-03-28T16:22:32.013Z</time></trkpt><trkpt lat="44.5794317" lon="9.4059167"><ele>1126.0</ele><time>2026-03-28T16:22:33.013Z</time></trkpt><trkpt lat="44.57955" lon="9.4058517"><ele>1126.0</ele><time>2026-03-28T16:22:34.013Z</time></trkpt><trkpt lat="44.57967" lon="9.4058083"><ele>1126.0</ele><time>2026-03-28T16:22:35.013Z</time></trkpt><trkpt lat="44.5797917" lon="9.4057583"><ele>1126.0</ele><time>2026-03-28T16:22:36.012Z</time></trkpt><trkpt lat="44.5798983" lon="9.4057183"><ele>1126.0</ele><time>2026-03-28T16:22:37.013Z</time></trkpt><trkpt lat="44.5799983" lon="9.4056733"><ele>1126.0</ele><time>2026-03-28T16:22:38.013Z</time></trkpt><trkpt lat="44.58009" lon="9.4055833"><ele>1126.0</ele><time>2026-03-28T16:22:39.013Z</time></trkpt><trkpt lat="44.580165" lon="9.4055083"><ele>1126.0</ele><time>2026-03-28T16:22:40.013Z</time></trkpt><trkpt lat="44.5802433" lon="9.40545"><ele>1130.1666666666665</ele><time>2026-03-28T16:22:41.013Z</time></trkpt><trkpt lat="44.58031" lon="9.405425"><ele>1134.3333333333333</ele><time>2026-03-28T16:22:42.013Z</time></trkpt><trkpt lat="44.5803767" lon="9.4054283"><ele>1138.5</ele><time>2026-03-28T16:22:43.013Z</time></trkpt><trkpt lat="44.580435" lon="9.4054617"><ele>1142.6666666666667</ele><time>2026-03-28T16:22:44.013Z</time></trkpt><trkpt lat="44.5804967" lon="9.405575"><ele>1146.8333333333335</ele><time>2026-03-28T16:22:46.013Z</time></trkpt><trkpt lat="44.5805067" lon="9.4056783"><ele>1151.0</ele><time>2026-03-28T16:22:47.013Z</time></trkpt><trkpt lat="44.58052" lon="9.4058017"><ele>1151.0</ele><time>2026-03-28T16:22:48.013Z</time></trkpt><trkpt lat="44.5805467" lon="9.40593"><ele>1151.0</ele><time>2026-03-28T16:22:49.013Z</time></trkpt><trkpt lat="44.5805767" lon="9.4060617"><ele>1151.0</ele><time>2026-03-28T16:22:50.013Z</time></trkpt><trkpt lat="44.580635" lon="9.4061583"><ele>1151.0</ele><time>2026-03-28T16:22:51.013Z</time></trkpt><trkpt lat="44.580705" lon="9.4062167"><ele>1151.0</ele><time>2026-03-28T16:22:52.013Z</time></trkpt><trkpt lat="44.5807817" lon="9.4062633"><ele>1151.0</ele><time>2026-03-28T16:22:53.013Z</time></trkpt><trkpt lat="44.58087" lon="9.406305"><ele>1151.6</ele><time>2026-03-28T16:22:54.012Z</time></trkpt><trkpt lat="44.58096" lon="9.4063417"><ele>1152.1999999999998</ele><time>2026-03-28T16:22:55.012Z</time></trkpt><trkpt lat="44.58105" lon="9.4063767"><ele>1152.8000000000002</ele><time>2026-03-28T16:22:56.012Z</time></trkpt><trkpt lat="44.5811417" lon="9.4064033"><ele>1153.4</ele><time>2026-03-28T16:22:57.013Z</time></trkpt><trkpt lat="44.581225" lon="9.40645"><ele>1154.0</ele><time>2026-03-28T16:22:58.012Z</time></trkpt><trkpt lat="44.581295" lon="9.4065467"><ele>1154.0</ele><time>2026-03-28T16:22:59.012Z</time></trkpt><trkpt lat="44.5813633" lon="9.4066467"><ele>1154.0</ele><time>2026-03-28T16:23:00.013Z</time></trkpt><trkpt lat="44.581425" lon="9.4067467"><ele>1154.0</ele><time>2026-03-28T16:23:01.013Z</time></trkpt><trkpt lat="44.58147" lon="9.40687"><ele>1154.0</ele><time>2026-03-28T16:23:02.013Z</time></trkpt><trkpt lat="44.5815133" lon="9.4070083"><ele>1154.0</ele><time>2026-03-28T16:23:03.013Z</time></trkpt><trkpt lat="44.58155" lon="9.40715"><ele>1152.1666666666667</ele><time>2026-03-28T16:23:04.013Z</time></trkpt><trkpt lat="44.5815583" lon="9.4073"><ele>1150.3333333333335</ele><time>2026-03-28T16:23:05.012Z</time></trkpt><trkpt lat="44.5815517" lon="9.4074433"><ele>1148.5</ele><time>2026-03-28T16:23:06.013Z</time></trkpt><trkpt lat="44.5815633" lon="9.40757"><ele>1146.6666666666667</ele><time>2026-03-28T16:23:07.013Z</time></trkpt><trkpt lat="44.5815683" lon="9.4076833"><ele>1144.8333333333333</ele><time>2026-03-28T16:23:08.013Z</time></trkpt><trkpt lat="44.58157" lon="9.4077767"><ele>1143.0</ele><time>2026-03-28T16:23:09.013Z</time></trkpt><trkpt lat="44.581585" lon="9.4078633"><ele>1143.0</ele><time>2026-03-28T16:23:10.013Z</time></trkpt><trkpt lat="44.5816767" lon="9.407955"><ele>1143.0</ele><time>2026-03-28T16:23:12.013Z</time></trkpt><trkpt lat="44.5817433" lon="9.40796"><ele>1143.0</ele><time>2026-03-28T16:23:13.013Z</time></trkpt><trkpt lat="44.5818133" lon="9.4079267"><ele>1143.0</ele><time>2026-03-28T16:23:14.013Z</time></trkpt><trkpt lat="44.5818783" lon="9.4078683"><ele>1143.0</ele><time>2026-03-28T16:23:15.013Z</time></trkpt><trkpt lat="44.5819767" lon="9.4077517"><ele>1141.4</ele><time>2026-03-28T16:23:17.013Z</time></trkpt><trkpt lat="44.582035" lon="9.4076383"><ele>1139.8</ele><time>2026-03-28T16:23:18.013Z</time></trkpt><trkpt lat="44.5821" lon="9.4075333"><ele>1138.2</ele><time>2026-03-28T16:23:19.013Z</time></trkpt><trkpt lat="44.5821733" lon="9.4074317"><ele>1136.6</ele><time>2026-03-28T16:23:20.013Z</time></trkpt><trkpt lat="44.58225" lon="9.4073417"><ele>1135.0</ele><time>2026-03-28T16:23:21.013Z</time></trkpt><trkpt lat="44.5823283" lon="9.40725"><ele>1143.0</ele><time>2026-03-28T16:23:22.012Z</time></trkpt><trkpt lat="44.582415" lon="9.4071133"><ele>1151.0</ele><time>2026-03-28T16:23:23.013Z</time></trkpt><trkpt lat="44.5825" lon="9.406965"><ele>1159.0</ele><time>2026-03-28T16:23:24.012Z</time></trkpt><trkpt lat="44.582575" lon="9.40684"><ele>1167.0</ele><time>2026-03-28T16:23:25.012Z</time></trkpt><trkpt lat="44.5826483" lon="9.406745"><ele>1167.0</ele><time>2026-03-28T16:23:26.013Z</time></trkpt><trkpt lat="44.5827217" lon="9.406665"><ele>1167.0</ele><time>2026-03-28T16:23:27.013Z</time></trkpt><trkpt lat="44.5828433" lon="9.4066517"><ele>1167.0</ele><time>2026-03-28T16:23:28.013Z</time></trkpt><trkpt lat="44.58293" lon="9.4066333"><ele>1167.0</ele><time>2026-03-28T16:23:29.013Z</time></trkpt><trkpt lat="44.58303" lon="9.406555"><ele>1167.0</ele><time>2026-03-28T16:23:30.012Z</time></trkpt><trkpt lat="44.583125" lon="9.4064817"><ele>1164.8</ele><time>2026-03-28T16:23:31.013Z</time></trkpt><trkpt lat="44.5832233" lon="9.4064133"><ele>1162.6</ele><time>2026-03-28T16:23:32.013Z</time></trkpt><trkpt lat="44.5833217" lon="9.4063683"><ele>1160.3999999999999</ele><time>2026-03-28T16:23:33.013Z</time></trkpt><trkpt lat="44.5834133" lon="9.406355"><ele>1158.2</ele><time>2026-03-28T16:23:34.013Z</time></trkpt><trkpt lat="44.58351" lon="9.4063433"><ele>1156.0</ele><time>2026-03-28T16:23:35.013Z</time></trkpt><trkpt lat="44.5835867" lon="9.40641"><ele>1156.0</ele><time>2026-03-28T16:23:36.013Z</time></trkpt><trkpt lat="44.58367" lon="9.4064533"><ele>1156.0</ele><time>2026-03-28T16:23:37.013Z</time></trkpt><trkpt lat="44.5837533" lon="9.406475"><ele>1156.0</ele><time>2026-03-28T16:23:38.013Z</time></trkpt><trkpt lat="44.5838467" lon="9.4064733"><ele>1156.0</ele><time>2026-03-28T16:23:39.013Z</time></trkpt><trkpt lat="44.5839417" lon="9.4064583"><ele>1156.0</ele><time>2026-03-28T16:23:40.013Z</time></trkpt><trkpt lat="44.5840267" lon="9.4064533"><ele>1156.0</ele><time>2026-03-28T16:23:41.013Z</time></trkpt><trkpt lat="44.5841167" lon="9.4064567"><ele>1158.5</ele><time>2026-03-28T16:23:42.013Z</time></trkpt><trkpt lat="44.5842033" lon="9.4064883"><ele>1161.0</ele><time>2026-03-28T16:23:43.013Z</time></trkpt><trkpt lat="44.5843233" lon="9.4064783"><ele>1163.5</ele><time>2026-03-28T16:23:44.013Z</time></trkpt><trkpt lat="44.58445" lon="9.406465"><ele>1166.0</ele><time>2026-03-28T16:23:45.013Z</time></trkpt><trkpt lat="44.5845733" lon="9.4064417"><ele>1168.5</ele><time>2026-03-28T16:23:46.013Z</time></trkpt><trkpt lat="44.5846883" lon="9.4064267"><ele>1171.0</ele><time>2026-03-28T16:23:47.013Z</time></trkpt><trkpt lat="44.5847767" lon="9.40645"><ele>1173.5</ele><time>2026-03-28T16:23:48.013Z</time></trkpt><trkpt lat="44.5848583" lon="9.4064267"><ele>1176.0</ele><time>2026-03-28T16:23:49.013Z</time></trkpt><trkpt lat="44.5849233" lon="9.406405"><ele>1178.5</ele><time>2026-03-28T16:23:50.013Z</time></trkpt><trkpt lat="44.5849967" lon="9.406345"><ele>1181.0</ele><time>2026-03-28T16:23:51.013Z</time></trkpt><trkpt lat="44.5850517" lon="9.406265"><ele>1181.0</ele><time>2026-03-28T16:23:52.012Z</time></trkpt><trkpt lat="44.5850833" lon="9.4061833"><ele>1181.0</ele><time>2026-03-28T16:23:53.012Z</time></trkpt><trkpt lat="44.5850733" lon="9.40608"><ele>1181.0</ele><time>2026-03-28T16:23:54.013Z</time></trkpt><trkpt lat="44.5850117" lon="9.4059383"><ele>1181.0</ele><time>2026-03-28T16:23:55.013Z</time></trkpt><trkpt lat="44.5849167" lon="9.4057833"><ele>1181.0</ele><time>2026-03-28T16:23:56.013Z</time></trkpt><trkpt lat="44.5847833" lon="9.4056817"><ele>1181.0</ele><time>2026-03-28T16:23:57.012Z</time></trkpt><trkpt lat="44.5846533" lon="9.4056117"><ele>1181.0</ele><time>2026-03-28T16:23:58.013Z</time></trkpt><trkpt lat="44.5845433" lon="9.405545"><ele>1181.0</ele><time>2026-03-28T16:23:59.012Z</time></trkpt><trkpt lat="44.5844367" lon="9.4054783"><ele>1181.0</ele><time>2026-03-28T16:24:00.013Z</time></trkpt><trkpt lat="44.5843333" lon="9.4054067"><ele>1180.6</ele><time>2026-03-28T16:24:01.013Z</time></trkpt><trkpt lat="44.5842567" lon="9.40531"><ele>1180.1999999999998</ele><time>2026-03-28T16:24:02.013Z</time></trkpt><trkpt lat="44.584185" lon="9.4052133"><ele>1179.8000000000002</ele><time>2026-03-28T16:24:03.013Z</time></trkpt><trkpt lat="44.58414" lon="9.4051017"><ele>1179.4</ele><time>2026-03-28T16:24:04.013Z</time></trkpt><trkpt lat="44.5841083" lon="9.4049833"><ele>1179.0</ele><time>2026-03-28T16:24:05.013Z</time></trkpt><trkpt lat="44.584085" lon="9.4048483"><ele>1179.0</ele><time>2026-03-28T16:24:06.013Z</time></trkpt><trkpt lat="44.5840583" lon="9.4047033"><ele>1179.0</ele><time>2026-03-28T16:24:07.013Z</time></trkpt><trkpt lat="44.584035" lon="9.404555"><ele>1179.0</ele><time>2026-03-28T16:24:08.013Z</time></trkpt><trkpt lat="44.5840167" lon="9.4044333"><ele>1179.0</ele><time>2026-03-28T16:24:09.013Z</time></trkpt><trkpt lat="44.5839933" lon="9.4043183"><ele>1179.0</ele><time>2026-03-28T16:24:10.013Z</time></trkpt><trkpt lat="44.58396" lon="9.4042217"><ele>1178.6000000000001</ele><time>2026-03-28T16:24:11.013Z</time></trkpt><trkpt lat="44.583905" lon="9.40414"><ele>1178.2</ele><time>2026-03-28T16:24:12.013Z</time></trkpt><trkpt lat="44.5838267" lon="9.404055"><ele>1177.8000000000002</ele><time>2026-03-28T16:24:13.013Z</time></trkpt><trkpt lat="44.5837467" lon="9.4039767"><ele>1177.4</ele><time>2026-03-28T16:24:14.012Z</time></trkpt><trkpt lat="44.5836717" lon="9.40389"><ele>1177.0</ele><time>2026-03-28T16:24:15.013Z</time></trkpt><trkpt lat="44.5836" lon="9.4037933"><ele>1177.0</ele><time>2026-03-28T16:24:16.013Z</time></trkpt><trkpt lat="44.58353" lon="9.4036917"><ele>1177.0</ele><time>2026-03-28T16:24:17.013Z</time></trkpt><trkpt lat="44.5834717" lon="9.4035817"><ele>1177.0</ele><time>2026-03-28T16:24:18.013Z</time></trkpt><trkpt lat="44.58341" lon="9.4034633"><ele>1177.0</ele><time>2026-03-28T16:24:19.012Z</time></trkpt><trkpt lat="44.58335" lon="9.4033433"><ele>1177.0</ele><time>2026-03-28T16:24:20.013Z</time></trkpt><trkpt lat="44.5833017" lon="9.4032317"><ele>1177.0</ele><time>2026-03-28T16:24:21.013Z</time></trkpt><trkpt lat="44.583265" lon="9.4031117"><ele>1177.0</ele><time>2026-03-28T16:24:22.013Z</time></trkpt><trkpt lat="44.5832333" lon="9.4029883"><ele>1177.0</ele><time>2026-03-28T16:24:23.013Z</time></trkpt><trkpt lat="44.58321" lon="9.4028517"><ele>1177.0</ele><time>2026-03-28T16:24:24.012Z</time></trkpt><trkpt lat="44.5831833" lon="9.402705"><ele>1177.0</ele><time>2026-03-28T16:24:25.013Z</time></trkpt><trkpt lat="44.58316" lon="9.4025617"><ele>1176.2</ele><time>2026-03-28T16:24:26.013Z</time></trkpt><trkpt lat="44.5831417" lon="9.4024217"><ele>1175.4</ele><time>2026-03-28T16:24:27.013Z</time></trkpt><trkpt lat="44.5831183" lon="9.402285"><ele>1174.6</ele><time>2026-03-28T16:24:28.013Z</time></trkpt><trkpt lat="44.5830833" lon="9.402155"><ele>1173.8</ele><time>2026-03-28T16:24:29.012Z</time></trkpt><trkpt lat="44.5830217" lon="9.4020183"><ele>1173.0</ele><time>2026-03-28T16:24:30.012Z</time></trkpt><trkpt lat="44.58296" lon="9.4019067"><ele>1171.2</ele><time>2026-03-28T16:24:31.013Z</time></trkpt><trkpt lat="44.5829033" lon="9.4017817"><ele>1169.4</ele><time>2026-03-28T16:24:32.013Z</time></trkpt><trkpt lat="44.582835" lon="9.4016867"><ele>1167.6000000000001</ele><time>2026-03-28T16:24:33.013Z</time></trkpt><trkpt lat="44.5827583" lon="9.4015817"><ele>1165.8</ele><time>2026-03-28T16:24:34.013Z</time></trkpt><trkpt lat="44.58269" lon="9.40146"><ele>1164.0</ele><time>2026-03-28T16:24:35.013Z</time></trkpt><trkpt lat="44.5826233" lon="9.4013283"><ele>1168.4</ele><time>2026-03-28T16:24:36.013Z</time></trkpt><trkpt lat="44.5825667" lon="9.4011983"><ele>1172.8000000000002</ele><time>2026-03-28T16:24:37.013Z</time></trkpt><trkpt lat="44.5825133" lon="9.4010683"><ele>1177.1999999999998</ele><time>2026-03-28T16:24:38.012Z</time></trkpt><trkpt lat="44.58247" lon="9.4009283"><ele>1181.6</ele><time>2026-03-28T16:24:39.013Z</time></trkpt><trkpt lat="44.5824483" lon="9.4007933"><ele>1186.0</ele><time>2026-03-28T16:24:40.013Z</time></trkpt><trkpt lat="44.5824367" lon="9.400655"><ele>1186.0</ele><time>2026-03-28T16:24:41.013Z</time></trkpt><trkpt lat="44.5824317" lon="9.4005083"><ele>1186.0</ele><time>2026-03-28T16:24:42.013Z</time></trkpt><trkpt lat="44.5824317" lon="9.4003583"><ele>1186.0</ele><time>2026-03-28T16:24:43.013Z</time></trkpt><trkpt lat="44.58243" lon="9.4001817"><ele>1186.0</ele><time>2026-03-28T16:24:44.013Z</time></trkpt><trkpt lat="44.582435" lon="9.4000033"><ele>1184.75</ele><time>2026-03-28T16:24:45.013Z</time></trkpt><trkpt lat="44.582425" lon="9.3998267"><ele>1183.5</ele><time>2026-03-28T16:24:46.013Z</time></trkpt><trkpt lat="44.5824383" lon="9.3996567"><ele>1182.25</ele><time>2026-03-28T16:24:47.013Z</time></trkpt><trkpt lat="44.5824467" lon="9.3995"><ele>1181.0</ele><time>2026-03-28T16:24:48.012Z</time></trkpt><trkpt lat="44.582445" lon="9.3993483"><ele>1180.8</ele><time>2026-03-28T16:24:49.013Z</time></trkpt><trkpt lat="44.5824733" lon="9.3992167"><ele>1180.6</ele><time>2026-03-28T16:24:50.013Z</time></trkpt><trkpt lat="44.582505" lon="9.3990817"><ele>1180.4</ele><time>2026-03-28T16:24:51.013Z</time></trkpt><trkpt lat="44.5825383" lon="9.3989417"><ele>1180.2</ele><time>2026-03-28T16:24:52.012Z</time></trkpt><trkpt lat="44.58256" lon="9.3987933"><ele>1180.0</ele><time>2026-03-28T16:24:53.013Z</time></trkpt><trkpt lat="44.582595" lon="9.39865"><ele>1181.0</ele><time>2026-03-28T16:24:54.013Z</time></trkpt><trkpt lat="44.5826233" lon="9.3985017"><ele>1182.0</ele><time>2026-03-28T16:24:55.012Z</time></trkpt><trkpt lat="44.582655" lon="9.398355"><ele>1183.0</ele><time>2026-03-28T16:24:56.013Z</time></trkpt><trkpt lat="44.5826833" lon="9.3982017"><ele>1184.0</ele><time>2026-03-28T16:24:57.013Z</time></trkpt><trkpt lat="44.58271" lon="9.398065"><ele>1185.0</ele><time>2026-03-28T16:24:58.013Z</time></trkpt><trkpt lat="44.58273" lon="9.3979167"><ele>1185.0</ele><time>2026-03-28T16:24:59.013Z</time></trkpt><trkpt lat="44.5827483" lon="9.397745"><ele>1185.0</ele><time>2026-03-28T16:25:00.013Z</time></trkpt><trkpt lat="44.582785" lon="9.3975783"><ele>1185.0</ele><time>2026-03-28T16:25:01.013Z</time></trkpt><trkpt lat="44.5828067" lon="9.39742"><ele>1185.0</ele><time>2026-03-28T16:25:02.013Z</time></trkpt><trkpt lat="44.5828233" lon="9.3972717"><ele>1182.8333333333333</ele><time>2026-03-28T16:25:03.013Z</time></trkpt><trkpt lat="44.5828317" lon="9.397135"><ele>1180.6666666666667</ele><time>2026-03-28T16:25:04.013Z</time></trkpt><trkpt lat="44.5828333" lon="9.3970017"><ele>1178.5</ele><time>2026-03-28T16:25:05.013Z</time></trkpt><trkpt lat="44.58282" lon="9.3968717"><ele>1176.3333333333335</ele><time>2026-03-28T16:25:06.013Z</time></trkpt><trkpt lat="44.5828" lon="9.3967533"><ele>1174.1666666666667</ele><time>2026-03-28T16:25:07.013Z</time></trkpt><trkpt lat="44.582775" lon="9.3966533"><ele>1172.0</ele><time>2026-03-28T16:25:08.013Z</time></trkpt><trkpt lat="44.5827233" lon="9.3965617"><ele>1172.0</ele><time>2026-03-28T16:25:09.012Z</time></trkpt><trkpt lat="44.5826167" lon="9.3964967"><ele>1172.0</ele><time>2026-03-28T16:25:10.012Z</time></trkpt><trkpt lat="44.5825517" lon="9.3964417"><ele>1172.0</ele><time>2026-03-28T16:25:11.013Z</time></trkpt><trkpt lat="44.5824283" lon="9.3964183"><ele>1172.0</ele><time>2026-03-28T16:25:12.013Z</time></trkpt><trkpt lat="44.5823667" lon="9.3963967"><ele>1172.0</ele><time>2026-03-28T16:25:13.012Z</time></trkpt><trkpt lat="44.5823017" lon="9.3964067"><ele>1172.0</ele><time>2026-03-28T16:25:14.013Z</time></trkpt><trkpt lat="44.5822" lon="9.3964433"><ele>1172.0</ele><time>2026-03-28T16:25:16.013Z</time></trkpt><trkpt lat="44.582125" lon="9.3963967"><ele>1172.0</ele><time>2026-03-28T16:25:18.013Z</time></trkpt><trkpt lat="44.58205" lon="9.3962733"><ele>1172.0</ele><time>2026-03-28T16:25:20.013Z</time></trkpt><trkpt lat="44.5820267" lon="9.39618"><ele>1172.0</ele><time>2026-03-28T16:25:21.013Z</time></trkpt><trkpt lat="44.5820033" lon="9.3960883"><ele>1172.0</ele><time>2026-03-28T16:25:22.013Z</time></trkpt><trkpt lat="44.581985" lon="9.395985"><ele>1172.0</ele><time>2026-03-28T16:25:23.013Z</time></trkpt><trkpt lat="44.5819933" lon="9.395845"><ele>1176.8333333333335</ele><time>2026-03-28T16:25:24.013Z</time></trkpt><trkpt lat="44.581995" lon="9.3957283"><ele>1181.6666666666667</ele><time>2026-03-28T16:25:25.013Z</time></trkpt><trkpt lat="44.5819867" lon="9.395615"><ele>1186.5</ele><time>2026-03-28T16:25:26.013Z</time></trkpt><trkpt lat="44.5819467" lon="9.3955067"><ele>1191.3333333333333</ele><time>2026-03-28T16:25:27.013Z</time></trkpt><trkpt lat="44.581915" lon="9.395405"><ele>1196.1666666666665</ele><time>2026-03-28T16:25:28.013Z</time></trkpt><trkpt lat="44.58189" lon="9.3953033"><ele>1201.0</ele><time>2026-03-28T16:25:29.013Z</time></trkpt><trkpt lat="44.581865" lon="9.3951817"><ele>1201.0</ele><time>2026-03-28T16:25:30.013Z</time></trkpt><trkpt lat="44.5818533" lon="9.395085"><ele>1201.0</ele><time>2026-03-28T16:25:31.013Z</time></trkpt><trkpt lat="44.5819067" lon="9.3949567"><ele>1201.0</ele><time>2026-03-28T16:25:33.013Z</time></trkpt><trkpt lat="44.58197" lon="9.3948983"><ele>1201.0</ele><time>2026-03-28T16:25:34.014Z</time></trkpt><trkpt lat="44.5820483" lon="9.3948517"><ele>1201.0</ele><time>2026-03-28T16:25:35.014Z</time></trkpt><trkpt lat="44.5821617" lon="9.3948433"><ele>1195.0</ele><time>2026-03-28T16:25:36.014Z</time></trkpt><trkpt lat="44.5822867" lon="9.394845"><ele>1189.0</ele><time>2026-03-28T16:25:37.013Z</time></trkpt><trkpt lat="44.5824067" lon="9.3948483"><ele>1183.0</ele><time>2026-03-28T16:25:38.014Z</time></trkpt><trkpt lat="44.582505" lon="9.3948233"><ele>1177.0</ele><time>2026-03-28T16:25:39.014Z</time></trkpt><trkpt lat="44.5825933" lon="9.3947967"><ele>1171.0</ele><time>2026-03-28T16:25:40.013Z</time></trkpt><trkpt lat="44.5826733" lon="9.3947517"><ele>1171.0</ele><time>2026-03-28T16:25:41.014Z</time></trkpt><trkpt lat="44.58276" lon="9.3946867"><ele>1171.0</ele><time>2026-03-28T16:25:42.014Z</time></trkpt><trkpt lat="44.5828417" lon="9.3946333"><ele>1171.0</ele><time>2026-03-28T16:25:43.014Z</time></trkpt><trkpt lat="44.5829317" lon="9.394615"><ele>1171.0</ele><time>2026-03-28T16:25:45.014Z</time></trkpt><trkpt lat="44.5829883" lon="9.39452"><ele>1171.0</ele><time>2026-03-28T16:25:49.014Z</time></trkpt><trkpt lat="44.5829833" lon="9.3944033"><ele>1173.3999999999999</ele><time>2026-03-28T16:25:51.014Z</time></trkpt><trkpt lat="44.58296" lon="9.39431"><ele>1175.8</ele><time>2026-03-28T16:25:52.013Z</time></trkpt><trkpt lat="44.582915" lon="9.3942167"><ele>1178.1999999999998</ele><time>2026-03-28T16:25:53.014Z</time></trkpt><trkpt lat="44.5828533" lon="9.3941267"><ele>1180.6</ele><time>2026-03-28T16:25:54.014Z</time></trkpt><trkpt lat="44.582755" lon="9.3940517"><ele>1183.0</ele><time>2026-03-28T16:25:55.014Z</time></trkpt><trkpt lat="44.5826617" lon="9.39398"><ele>1183.0</ele><time>2026-03-28T16:25:56.014Z</time></trkpt><trkpt lat="44.5825833" lon="9.3939017"><ele>1183.0</ele><time>2026-03-28T16:25:57.014Z</time></trkpt><trkpt lat="44.582505" lon="9.3938133"><ele>1183.0</ele><time>2026-03-28T16:25:58.013Z</time></trkpt><trkpt lat="44.58243" lon="9.3937183"><ele>1183.0</ele><time>2026-03-28T16:25:59.014Z</time></trkpt><trkpt lat="44.5823517" lon="9.3936183"><ele>1183.0</ele><time>2026-03-28T16:26:00.014Z</time></trkpt><trkpt lat="44.5822967" lon="9.3934983"><ele>1179.2</ele><time>2026-03-28T16:26:01.014Z</time></trkpt><trkpt lat="44.58226" lon="9.3933617"><ele>1175.4</ele><time>2026-03-28T16:26:02.014Z</time></trkpt><trkpt lat="44.5822317" lon="9.39323"><ele>1171.6000000000001</ele><time>2026-03-28T16:26:03.014Z</time></trkpt><trkpt lat="44.582195" lon="9.393095"><ele>1167.8</ele><time>2026-03-28T16:26:04.014Z</time></trkpt><trkpt lat="44.5821567" lon="9.3929717"><ele>1164.0</ele><time>2026-03-28T16:26:05.013Z</time></trkpt><trkpt lat="44.5821083" lon="9.3928383"><ele>1158.75</ele><time>2026-03-28T16:26:06.013Z</time></trkpt><trkpt lat="44.58207" lon="9.3926867"><ele>1153.5</ele><time>2026-03-28T16:26:07.014Z</time></trkpt><trkpt lat="44.5820333" lon="9.3925267"><ele>1148.25</ele><time>2026-03-28T16:26:08.013Z</time></trkpt><trkpt lat="44.5820167" lon="9.3923667"><ele>1143.0</ele><time>2026-03-28T16:26:09.014Z</time></trkpt><trkpt lat="44.5819983" lon="9.3922167"><ele>1142.8</ele><time>2026-03-28T16:26:10.014Z</time></trkpt><trkpt lat="44.5819833" lon="9.3920667"><ele>1142.6</ele><time>2026-03-28T16:26:11.013Z</time></trkpt><trkpt lat="44.5819817" lon="9.3919267"><ele>1142.4</ele><time>2026-03-28T16:26:12.013Z</time></trkpt><trkpt lat="44.5819917" lon="9.391805"><ele>1142.2</ele><time>2026-03-28T16:26:13.014Z</time></trkpt><trkpt lat="44.582025" lon="9.3916933"><ele>1142.0</ele><time>2026-03-28T16:26:14.014Z</time></trkpt><trkpt lat="44.5820617" lon="9.3915767"><ele>1142.0</ele><time>2026-03-28T16:26:15.014Z</time></trkpt><trkpt lat="44.5821067" lon="9.3914633"><ele>1142.0</ele><time>2026-03-28T16:26:16.014Z</time></trkpt><trkpt lat="44.582135" lon="9.39134"><ele>1142.0</ele><time>2026-03-28T16:26:17.014Z</time></trkpt><trkpt lat="44.5821533" lon="9.3912033"><ele>1142.0</ele><time>2026-03-28T16:26:18.014Z</time></trkpt><trkpt lat="44.5821617" lon="9.3910533"><ele>1142.0</ele><time>2026-03-28T16:26:19.014Z</time></trkpt><trkpt lat="44.5821933" lon="9.3909133"><ele>1141.3333333333335</ele><time>2026-03-28T16:26:20.014Z</time></trkpt><trkpt lat="44.58221" lon="9.3907783"><ele>1140.6666666666667</ele><time>2026-03-28T16:26:21.014Z</time></trkpt><trkpt lat="44.582215" lon="9.39065"><ele>1140.0</ele><time>2026-03-28T16:26:22.014Z</time></trkpt><trkpt lat="44.5822133" lon="9.3905267"><ele>1139.3333333333333</ele><time>2026-03-28T16:26:23.014Z</time></trkpt><trkpt lat="44.5822017" lon="9.3904117"><ele>1138.6666666666665</ele><time>2026-03-28T16:26:24.014Z</time></trkpt><trkpt lat="44.5821683" lon="9.3902967"><ele>1138.0</ele><time>2026-03-28T16:26:25.013Z</time></trkpt><trkpt lat="44.5821233" lon="9.3901967"><ele>1138.0</ele><time>2026-03-28T16:26:26.014Z</time></trkpt><trkpt lat="44.5820533" lon="9.3900917"><ele>1138.0</ele><time>2026-03-28T16:26:27.013Z</time></trkpt><trkpt lat="44.58198" lon="9.3900017"><ele>1138.0</ele><time>2026-03-28T16:26:28.014Z</time></trkpt><trkpt lat="44.581925" lon="9.38991"><ele>1138.0</ele><time>2026-03-28T16:26:29.013Z</time></trkpt><trkpt lat="44.5818867" lon="9.3898067"><ele>1138.0</ele><time>2026-03-28T16:26:30.014Z</time></trkpt><trkpt lat="44.5818567" lon="9.389705"><ele>1138.0</ele><time>2026-03-28T16:26:31.014Z</time></trkpt><trkpt lat="44.58184" lon="9.3895983"><ele>1140.2</ele><time>2026-03-28T16:26:32.014Z</time></trkpt><trkpt lat="44.5818233" lon="9.38949"><ele>1142.4</ele><time>2026-03-28T16:26:33.014Z</time></trkpt><trkpt lat="44.58189" lon="9.389345"><ele>1144.6000000000001</ele><time>2026-03-28T16:26:35.014Z</time></trkpt><trkpt lat="44.58198" lon="9.3892683"><ele>1146.8</ele><time>2026-03-28T16:26:36.014Z</time></trkpt><trkpt lat="44.5820917" lon="9.38922"><ele>1149.0</ele><time>2026-03-28T16:26:37.014Z</time></trkpt><trkpt lat="44.5822417" lon="9.3891883"><ele>1149.0</ele><time>2026-03-28T16:26:38.014Z</time></trkpt><trkpt lat="44.5824033" lon="9.3891633"><ele>1149.0</ele><time>2026-03-28T16:26:39.014Z</time></trkpt><trkpt lat="44.58256" lon="9.3891183"><ele>1149.0</ele><time>2026-03-28T16:26:40.014Z</time></trkpt><trkpt lat="44.5826783" lon="9.3891033"><ele>1149.0</ele><time>2026-03-28T16:26:41.014Z</time></trkpt><trkpt lat="44.5827767" lon="9.3890917"><ele>1150.2</ele><time>2026-03-28T16:26:42.014Z</time></trkpt><trkpt lat="44.5828617" lon="9.3890967"><ele>1151.4</ele><time>2026-03-28T16:26:43.014Z</time></trkpt><trkpt lat="44.582945" lon="9.3890867"><ele>1152.6</ele><time>2026-03-28T16:26:44.014Z</time></trkpt><trkpt lat="44.5830383" lon="9.3890567"><ele>1153.8</ele><time>2026-03-28T16:26:45.013Z</time></trkpt><trkpt lat="44.5831417" lon="9.3890517"><ele>1155.0</ele><time>2026-03-28T16:26:46.014Z</time></trkpt><trkpt lat="44.583245" lon="9.3890717"><ele>1155.0</ele><time>2026-03-28T16:26:47.014Z</time></trkpt><trkpt lat="44.5833317" lon="9.3891417"><ele>1155.0</ele><time>2026-03-28T16:26:48.013Z</time></trkpt><trkpt lat="44.5834167" lon="9.3892167"><ele>1155.0</ele><time>2026-03-28T16:26:49.014Z</time></trkpt><trkpt lat="44.583515" lon="9.3892983"><ele>1155.0</ele><time>2026-03-28T16:26:50.014Z</time></trkpt><trkpt lat="44.5836067" lon="9.3893983"><ele>1155.0</ele><time>2026-03-28T16:26:51.013Z</time></trkpt><trkpt lat="44.5836933" lon="9.3895"><ele>1154.1666666666667</ele><time>2026-03-28T16:26:52.014Z</time></trkpt><trkpt lat="44.5837667" lon="9.389605"><ele>1153.3333333333333</ele><time>2026-03-28T16:26:53.014Z</time></trkpt><trkpt lat="44.5838283" lon="9.3897067"><ele>1152.5</ele><time>2026-03-28T16:26:54.013Z</time></trkpt><trkpt lat="44.5838817" lon="9.3897917"><ele>1151.6666666666665</ele><time>2026-03-28T16:26:55.014Z</time></trkpt><trkpt lat="44.583915" lon="9.389905"><ele>1150.8333333333333</ele><time>2026-03-28T16:26:56.014Z</time></trkpt><trkpt lat="44.5839567" lon="9.3899783"><ele>1150.0</ele><time>2026-03-28T16:26:57.014Z</time></trkpt><trkpt lat="44.5840267" lon="9.390015"><ele>1150.0</ele><time>2026-03-28T16:26:58.013Z</time></trkpt><trkpt lat="44.5841133" lon="9.3900317"><ele>1150.0</ele><time>2026-03-28T16:26:59.014Z</time></trkpt><trkpt lat="44.5841767" lon="9.390065"><ele>1150.0</ele><time>2026-03-28T16:27:00.014Z</time></trkpt><trkpt lat="44.5842533" lon="9.390115"><ele>1150.0</ele><time>2026-03-28T16:27:01.014Z</time></trkpt><trkpt lat="44.5843183" lon="9.3902033"><ele>1150.0</ele><time>2026-03-28T16:27:02.014Z</time></trkpt><trkpt lat="44.58436" lon="9.3903433"><ele>1150.0</ele><time>2026-03-28T16:27:03.013Z</time></trkpt><trkpt lat="44.58441" lon="9.3904733"><ele>1148.25</ele><time>2026-03-28T16:27:04.014Z</time></trkpt><trkpt lat="44.5844817" lon="9.3905967"><ele>1146.5</ele><time>2026-03-28T16:27:05.014Z</time></trkpt><trkpt lat="44.5845683" lon="9.39071"><ele>1144.75</ele><time>2026-03-28T16:27:06.014Z</time></trkpt><trkpt lat="44.58465" lon="9.3908217"><ele>1143.0</ele><time>2026-03-28T16:27:07.014Z</time></trkpt><trkpt lat="44.5847417" lon="9.390925"><ele>1143.0</ele><time>2026-03-28T16:27:08.013Z</time></trkpt><trkpt lat="44.5848217" lon="9.391035"><ele>1143.0</ele><time>2026-03-28T16:27:09.014Z</time></trkpt><trkpt lat="44.5848933" lon="9.3911383"><ele>1143.0</ele><time>2026-03-28T16:27:10.014Z</time></trkpt><trkpt lat="44.584955" lon="9.3912683"><ele>1143.0</ele><time>2026-03-28T16:27:11.014Z</time></trkpt><trkpt lat="44.5850067" lon="9.3914017"><ele>1143.0</ele><time>2026-03-28T16:27:12.014Z</time></trkpt><trkpt lat="44.5850367" lon="9.3915083"><ele>1139.5</ele><time>2026-03-28T16:27:13.014Z</time></trkpt><trkpt lat="44.5850817" lon="9.391595"><ele>1136.0</ele><time>2026-03-28T16:27:14.014Z</time></trkpt><trkpt lat="44.5851267" lon="9.3916717"><ele>1132.5</ele><time>2026-03-28T16:27:15.013Z</time></trkpt><trkpt lat="44.58518" lon="9.39172"><ele>1129.0</ele><time>2026-03-28T16:27:16.013Z</time></trkpt><trkpt lat="44.58525" lon="9.3916967"><ele>1125.5</ele><time>2026-03-28T16:27:17.014Z</time></trkpt><trkpt lat="44.58532" lon="9.3916333"><ele>1122.0</ele><time>2026-03-28T16:27:18.014Z</time></trkpt><trkpt lat="44.5853933" lon="9.3915583"><ele>1121.2</ele><time>2026-03-28T16:27:19.014Z</time></trkpt><trkpt lat="44.5854483" lon="9.3915133"><ele>1120.4</ele><time>2026-03-28T16:27:20.014Z</time></trkpt><trkpt lat="44.5855283" lon="9.3913867"><ele>1119.6</ele><time>2026-03-28T16:27:22.014Z</time></trkpt><trkpt lat="44.5855633" lon="9.3912317"><ele>1118.8</ele><time>2026-03-28T16:27:24.014Z</time></trkpt><trkpt lat="44.5855717" lon="9.3911183"><ele>1118.0</ele><time>2026-03-28T16:27:25.013Z</time></trkpt><trkpt lat="44.58555" lon="9.3909967"><ele>1118.0</ele><time>2026-03-28T16:27:26.014Z</time></trkpt><trkpt lat="44.5854983" lon="9.3908283"><ele>1118.0</ele><time>2026-03-28T16:27:27.014Z</time></trkpt><trkpt lat="44.585465" lon="9.3906833"><ele>1118.0</ele><time>2026-03-28T16:27:28.014Z</time></trkpt><trkpt lat="44.5854117" lon="9.3905383"><ele>1118.0</ele><time>2026-03-28T16:27:29.014Z</time></trkpt><trkpt lat="44.585385" lon="9.3904017"><ele>1122.6</ele><time>2026-03-28T16:27:30.014Z</time></trkpt><trkpt lat="44.5853517" lon="9.3902883"><ele>1127.1999999999998</ele><time>2026-03-28T16:27:31.014Z</time></trkpt><trkpt lat="44.5852383" lon="9.3901733"><ele>1131.8</ele><time>2026-03-28T16:27:32.014Z</time></trkpt><trkpt lat="44.58529" lon="9.390085"><ele>1136.3999999999999</ele><time>2026-03-28T16:27:34.014Z</time></trkpt><trkpt lat="44.5853783" lon="9.390095"><ele>1141.0</ele><time>2026-03-28T16:27:35.013Z</time></trkpt><trkpt lat="44.5854633" lon="9.390075"><ele>1141.0</ele><time>2026-03-28T16:27:36.014Z</time></trkpt><trkpt lat="44.585585" lon="9.39011"><ele>1141.0</ele><time>2026-03-28T16:27:37.014Z</time></trkpt><trkpt lat="44.58568" lon="9.3901367"><ele>1141.0</ele><time>2026-03-28T16:27:38.014Z</time></trkpt><trkpt lat="44.5857783" lon="9.3901617"><ele>1141.0</ele><time>2026-03-28T16:27:39.014Z</time></trkpt><trkpt lat="44.5859017" lon="9.3901517"><ele>1141.0</ele><time>2026-03-28T16:27:41.014Z</time></trkpt><trkpt lat="44.5859683" lon="9.39009"><ele>1141.0</ele><time>2026-03-28T16:27:42.014Z</time></trkpt><trkpt lat="44.5860433" lon="9.39"><ele>1141.0</ele><time>2026-03-28T16:27:43.014Z</time></trkpt><trkpt lat="44.5861083" lon="9.38991"><ele>1141.0</ele><time>2026-03-28T16:27:44.014Z</time></trkpt><trkpt lat="44.5861733" lon="9.389805"><ele>1141.0</ele><time>2026-03-28T16:27:45.014Z</time></trkpt><trkpt lat="44.58623" lon="9.3896783"><ele>1141.0</ele><time>2026-03-28T16:27:46.014Z</time></trkpt><trkpt lat="44.586265" lon="9.3895417"><ele>1141.6666666666665</ele><time>2026-03-28T16:27:47.014Z</time></trkpt><trkpt lat="44.5862783" lon="9.38941"><ele>1142.3333333333333</ele><time>2026-03-28T16:27:48.014Z</time></trkpt><trkpt lat="44.5863017" lon="9.3893017"><ele>1143.0</ele><time>2026-03-28T16:27:49.013Z</time></trkpt><trkpt lat="44.5863283" lon="9.3892117"><ele>1143.6666666666667</ele><time>2026-03-28T16:27:50.014Z</time></trkpt><trkpt lat="44.58636" lon="9.3891183"><ele>1144.3333333333335</ele><time>2026-03-28T16:27:51.014Z</time></trkpt><trkpt lat="44.58639" lon="9.3890367"><ele>1145.0</ele><time>2026-03-28T16:27:52.014Z</time></trkpt><trkpt lat="44.5864517" lon="9.38899"><ele>1145.0</ele><time>2026-03-28T16:27:53.014Z</time></trkpt><trkpt lat="44.58654" lon="9.388935"><ele>1145.0</ele><time>2026-03-28T16:27:55.014Z</time></trkpt><trkpt lat="44.5866117" lon="9.3889967"><ele>1145.0</ele><time>2026-03-28T16:27:57.014Z</time></trkpt><trkpt lat="44.5867" lon="9.3891533"><ele>1145.0</ele><time>2026-03-28T16:27:59.014Z</time></trkpt><trkpt lat="44.5867833" lon="9.38925"><ele>1145.0</ele><time>2026-03-28T16:28:00.014Z</time></trkpt><trkpt lat="44.5868667" lon="9.3893383"><ele>1145.0</ele><time>2026-03-28T16:28:01.014Z</time></trkpt><trkpt lat="44.5869233" lon="9.3894433"><ele>1145.0</ele><time>2026-03-28T16:28:02.014Z</time></trkpt><trkpt lat="44.586965" lon="9.38954"><ele>1145.0</ele><time>2026-03-28T16:28:03.014Z</time></trkpt><trkpt lat="44.5869867" lon="9.389635"><ele>1145.0</ele><time>2026-03-28T16:28:04.014Z</time></trkpt><trkpt lat="44.5869883" lon="9.38976"><ele>1145.0</ele><time>2026-03-28T16:28:05.014Z</time></trkpt><trkpt lat="44.5869683" lon="9.38988"><ele>1145.0</ele><time>2026-03-28T16:28:06.014Z</time></trkpt><trkpt lat="44.58695" lon="9.3900167"><ele>1147.8</ele><time>2026-03-28T16:28:07.014Z</time></trkpt><trkpt lat="44.5869617" lon="9.390125"><ele>1150.6</ele><time>2026-03-28T16:28:08.014Z</time></trkpt><trkpt lat="44.5869933" lon="9.3902583"><ele>1153.4</ele><time>2026-03-28T16:28:09.014Z</time></trkpt><trkpt lat="44.5870233" lon="9.3903933"><ele>1156.2</ele><time>2026-03-28T16:28:10.014Z</time></trkpt><trkpt lat="44.58705" lon="9.390525"><ele>1159.0</ele><time>2026-03-28T16:28:11.014Z</time></trkpt><trkpt lat="44.5870667" lon="9.3906417"><ele>1153.8333333333333</ele><time>2026-03-28T16:28:12.014Z</time></trkpt><trkpt lat="44.5870967" lon="9.39074"><ele>1148.6666666666665</ele><time>2026-03-28T16:28:13.014Z</time></trkpt><trkpt lat="44.5871333" lon="9.390825"><ele>1143.5</ele><time>2026-03-28T16:28:14.014Z</time></trkpt><trkpt lat="44.5871917" lon="9.3908983"><ele>1138.3333333333333</ele><time>2026-03-28T16:28:15.014Z</time></trkpt><trkpt lat="44.58726" lon="9.390955"><ele>1133.1666666666667</ele><time>2026-03-28T16:28:16.014Z</time></trkpt><trkpt lat="44.5873433" lon="9.3909933"><ele>1128.0</ele><time>2026-03-28T16:28:17.014Z</time></trkpt><trkpt lat="44.5874233" lon="9.3910233"><ele>1128.0</ele><time>2026-03-28T16:28:18.014Z</time></trkpt><trkpt lat="44.58751" lon="9.3910233"><ele>1128.0</ele><time>2026-03-28T16:28:19.014Z</time></trkpt><trkpt lat="44.5876133" lon="9.3909933"><ele>1128.0</ele><time>2026-03-28T16:28:20.014Z</time></trkpt><trkpt lat="44.5877117" lon="9.390965"><ele>1128.0</ele><time>2026-03-28T16:28:21.014Z</time></trkpt><trkpt lat="44.5878183" lon="9.3909267"><ele>1128.0</ele><time>2026-03-28T16:28:22.014Z</time></trkpt><trkpt lat="44.5879217" lon="9.390865"><ele>1130.3333333333333</ele><time>2026-03-28T16:28:23.014Z</time></trkpt><trkpt lat="44.58802" lon="9.390805"><ele>1132.6666666666667</ele><time>2026-03-28T16:28:24.014Z</time></trkpt><trkpt lat="44.5881183" lon="9.3907367"><ele>1135.0</ele><time>2026-03-28T16:28:25.013Z</time></trkpt><trkpt lat="44.5881983" lon="9.3907033"><ele>1137.3333333333335</ele><time>2026-03-28T16:28:26.014Z</time></trkpt><trkpt lat="44.5882717" lon="9.3907033"><ele>1139.6666666666667</ele><time>2026-03-28T16:28:27.014Z</time></trkpt><trkpt lat="44.5883367" lon="9.3907317"><ele>1142.0</ele><time>2026-03-28T16:28:28.014Z</time></trkpt><trkpt lat="44.5884033" lon="9.3907817"><ele>1142.0</ele><time>2026-03-28T16:28:29.014Z</time></trkpt><trkpt lat="44.5884517" lon="9.39087"><ele>1142.0</ele><time>2026-03-28T16:28:30.014Z</time></trkpt><trkpt lat="44.5884933" lon="9.39098"><ele>1142.0</ele><time>2026-03-28T16:28:31.014Z</time></trkpt><trkpt lat="44.5885317" lon="9.3911117"><ele>1142.0</ele><time>2026-03-28T16:28:32.014Z</time></trkpt><trkpt lat="44.5885583" lon="9.3912683"><ele>1142.0</ele><time>2026-03-28T16:28:33.014Z</time></trkpt><trkpt lat="44.5885633" lon="9.39145"><ele>1143.2</ele><time>2026-03-28T16:28:34.013Z</time></trkpt><trkpt lat="44.588575" lon="9.3916083"><ele>1144.4</ele><time>2026-03-28T16:28:35.014Z</time></trkpt><trkpt lat="44.5886083" lon="9.3917233"><ele>1145.6</ele><time>2026-03-28T16:28:36.014Z</time></trkpt><trkpt lat="44.58866" lon="9.39182"><ele>1146.8</ele><time>2026-03-28T16:28:37.013Z</time></trkpt><trkpt lat="44.58873" lon="9.3919017"><ele>1148.0</ele><time>2026-03-28T16:28:38.013Z</time></trkpt><trkpt lat="44.5888133" lon="9.3919633"><ele>1148.0</ele><time>2026-03-28T16:28:39.014Z</time></trkpt><trkpt lat="44.5889033" lon="9.3920233"><ele>1148.0</ele><time>2026-03-28T16:28:40.014Z</time></trkpt><trkpt lat="44.5890033" lon="9.3920767"><ele>1148.0</ele><time>2026-03-28T16:28:41.014Z</time></trkpt><trkpt lat="44.5890967" lon="9.3921383"><ele>1148.0</ele><time>2026-03-28T16:28:42.014Z</time></trkpt><trkpt lat="44.5891983" lon="9.39218"><ele>1148.0</ele><time>2026-03-28T16:28:43.014Z</time></trkpt><trkpt lat="44.5893033" lon="9.3922017"><ele>1147.4</ele><time>2026-03-28T16:28:44.014Z</time></trkpt><trkpt lat="44.589425" lon="9.3921867"><ele>1146.8</ele><time>2026-03-28T16:28:45.014Z</time></trkpt><trkpt lat="44.5895417" lon="9.392185"><ele>1146.2</ele><time>2026-03-28T16:28:46.013Z</time></trkpt><trkpt lat="44.5896517" lon="9.3921867"><ele>1145.6</ele><time>2026-03-28T16:28:47.014Z</time></trkpt><trkpt lat="44.5897467" lon="9.392215"><ele>1145.0</ele><time>2026-03-28T16:28:48.014Z</time></trkpt><trkpt lat="44.5898283" lon="9.3922833"><ele>1145.0</ele><time>2026-03-28T16:28:49.014Z</time></trkpt><trkpt lat="44.589895" lon="9.3923817"><ele>1145.0</ele><time>2026-03-28T16:28:50.014Z</time></trkpt><trkpt lat="44.589945" lon="9.3925017"><ele>1145.0</ele><time>2026-03-28T16:28:51.014Z</time></trkpt><trkpt lat="44.5899633" lon="9.3926483"><ele>1145.0</ele><time>2026-03-28T16:28:52.014Z</time></trkpt><trkpt lat="44.5899383" lon="9.3928317"><ele>1145.0</ele><time>2026-03-28T16:28:53.014Z</time></trkpt><trkpt lat="44.5899533" lon="9.3929683"><ele>1143.4</ele><time>2026-03-28T16:28:54.013Z</time></trkpt><trkpt lat="44.5899867" lon="9.3930933"><ele>1141.8</ele><time>2026-03-28T16:28:55.014Z</time></trkpt><trkpt lat="44.59003" lon="9.3932267"><ele>1140.2</ele><time>2026-03-28T16:28:56.014Z</time></trkpt><trkpt lat="44.590085" lon="9.3933733"><ele>1138.6</ele><time>2026-03-28T16:28:57.014Z</time></trkpt><trkpt lat="44.59016" lon="9.3935183"><ele>1137.0</ele><time>2026-03-28T16:28:58.013Z</time></trkpt><trkpt lat="44.5902233" lon="9.3936617"><ele>1137.0</ele><time>2026-03-28T16:28:59.014Z</time></trkpt><trkpt lat="44.590305" lon="9.3938033"><ele>1137.0</ele><time>2026-03-28T16:29:00.014Z</time></trkpt><trkpt lat="44.5903967" lon="9.3939383"><ele>1137.0</ele><time>2026-03-28T16:29:01.014Z</time></trkpt><trkpt lat="44.5904917" lon="9.3940667"><ele>1137.0</ele><time>2026-03-28T16:29:02.014Z</time></trkpt><trkpt lat="44.590585" lon="9.394205"><ele>1141.5</ele><time>2026-03-28T16:29:03.014Z</time></trkpt><trkpt lat="44.59066" lon="9.3943483"><ele>1146.0</ele><time>2026-03-28T16:29:04.013Z</time></trkpt><trkpt lat="44.5907217" lon="9.3944983"><ele>1150.5</ele><time>2026-03-28T16:29:05.014Z</time></trkpt><trkpt lat="44.59077" lon="9.394645"><ele>1155.0</ele><time>2026-03-28T16:29:06.013Z</time></trkpt><trkpt lat="44.5908083" lon="9.394815"><ele>1155.0</ele><time>2026-03-28T16:29:07.014Z</time></trkpt><trkpt lat="44.5908467" lon="9.3949767"><ele>1155.0</ele><time>2026-03-28T16:29:08.014Z</time></trkpt><trkpt lat="44.590885" lon="9.3951233"><ele>1155.0</ele><time>2026-03-28T16:29:09.014Z</time></trkpt><trkpt lat="44.590925" lon="9.3952617"><ele>1155.0</ele><time>2026-03-28T16:29:10.014Z</time></trkpt><trkpt lat="44.5909733" lon="9.3953833"><ele>1155.0</ele><time>2026-03-28T16:29:11.014Z</time></trkpt><trkpt lat="44.591035" lon="9.3954833"><ele>1154.2</ele><time>2026-03-28T16:29:12.014Z</time></trkpt><trkpt lat="44.59112" lon="9.39558"><ele>1153.4</ele><time>2026-03-28T16:29:13.013Z</time></trkpt><trkpt lat="44.5912167" lon="9.3956417"><ele>1152.6</ele><time>2026-03-28T16:29:14.014Z</time></trkpt><trkpt lat="44.5913233" lon="9.395655"><ele>1151.8</ele><time>2026-03-28T16:29:15.013Z</time></trkpt><trkpt lat="44.5914417" lon="9.395675"><ele>1151.0</ele><time>2026-03-28T16:29:16.013Z</time></trkpt><trkpt lat="44.5915683" lon="9.39565"><ele>1151.0</ele><time>2026-03-28T16:29:17.014Z</time></trkpt><trkpt lat="44.5916883" lon="9.39562"><ele>1151.0</ele><time>2026-03-28T16:29:18.014Z</time></trkpt><trkpt lat="44.5918033" lon="9.395575"><ele>1151.0</ele><time>2026-03-28T16:29:19.014Z</time></trkpt><trkpt lat="44.5918983" lon="9.3955117"><ele>1151.0</ele><time>2026-03-28T16:29:20.014Z</time></trkpt><trkpt lat="44.5919917" lon="9.3953983"><ele>1151.0</ele><time>2026-03-28T16:29:21.014Z</time></trkpt><trkpt lat="44.592065" lon="9.3952767"><ele>1151.0</ele><time>2026-03-28T16:29:22.014Z</time></trkpt><trkpt lat="44.59213" lon="9.3951167"><ele>1151.0</ele><time>2026-03-28T16:29:23.014Z</time></trkpt><trkpt lat="44.59216" lon="9.3949567"><ele>1151.0</ele><time>2026-03-28T16:29:24.014Z</time></trkpt><trkpt lat="44.5921767" lon="9.3947817"><ele>1155.5</ele><time>2026-03-28T16:29:25.014Z</time></trkpt><trkpt lat="44.592195" lon="9.3946083"><ele>1160.0</ele><time>2026-03-28T16:29:26.014Z</time></trkpt><trkpt lat="44.5922233" lon="9.394425"><ele>1164.5</ele><time>2026-03-28T16:29:27.014Z</time></trkpt><trkpt lat="44.59227" lon="9.394255"><ele>1169.0</ele><time>2026-03-28T16:29:28.013Z</time></trkpt><trkpt lat="44.5923267" lon="9.39409"><ele>1169.0</ele><time>2026-03-28T16:29:29.013Z</time></trkpt><trkpt lat="44.5923883" lon="9.3939283"><ele>1169.0</ele><time>2026-03-28T16:29:30.014Z</time></trkpt><trkpt lat="44.59245" lon="9.3937867"><ele>1169.0</ele><time>2026-03-28T16:29:31.013Z</time></trkpt><trkpt lat="44.5925183" lon="9.39366"><ele>1169.0</ele><time>2026-03-28T16:29:32.014Z</time></trkpt><trkpt lat="44.592595" lon="9.39352"><ele>1170.75</ele><time>2026-03-28T16:29:33.014Z</time></trkpt><trkpt lat="44.5926667" lon="9.3933733"><ele>1172.5</ele><time>2026-03-28T16:29:34.014Z</time></trkpt><trkpt lat="44.5927333" lon="9.3932317"><ele>1174.25</ele><time>2026-03-28T16:29:35.013Z</time></trkpt><trkpt lat="44.592815" lon="9.3931017"><ele>1176.0</ele><time>2026-03-28T16:29:36.014Z</time></trkpt><trkpt lat="44.592905" lon="9.3930133"><ele>1181.75</ele><time>2026-03-28T16:29:37.014Z</time></trkpt><trkpt lat="44.59301" lon="9.3929517"><ele>1187.5</ele><time>2026-03-28T16:29:38.014Z</time></trkpt><trkpt lat="44.5931267" lon="9.3929133"><ele>1193.25</ele><time>2026-03-28T16:29:39.014Z</time></trkpt><trkpt lat="44.5932467" lon="9.3928967"><ele>1199.0</ele><time>2026-03-28T16:29:40.014Z</time></trkpt><trkpt lat="44.5933667" lon="9.392905"><ele>1199.0</ele><time>2026-03-28T16:29:41.014Z</time></trkpt><trkpt lat="44.5934917" lon="9.3929333"><ele>1199.0</ele><time>2026-03-28T16:29:42.014Z</time></trkpt><trkpt lat="44.5936183" lon="9.3930083"><ele>1199.0</ele><time>2026-03-28T16:29:43.014Z</time></trkpt><trkpt lat="44.5937433" lon="9.39308"><ele>1199.0</ele><time>2026-03-28T16:29:44.014Z</time></trkpt><trkpt lat="44.593865" lon="9.393155"><ele>1193.5</ele><time>2026-03-28T16:29:45.014Z</time></trkpt><trkpt lat="44.593995" lon="9.3932183"><ele>1188.0</ele><time>2026-03-28T16:29:46.014Z</time></trkpt><trkpt lat="44.5941183" lon="9.3932683"><ele>1182.5</ele><time>2026-03-28T16:29:47.013Z</time></trkpt><trkpt lat="44.59425" lon="9.3932917"><ele>1177.0</ele><time>2026-03-28T16:29:48.014Z</time></trkpt><trkpt lat="44.5943783" lon="9.3933167"><ele>1177.75</ele><time>2026-03-28T16:29:49.013Z</time></trkpt><trkpt lat="44.594505" lon="9.393335"><ele>1178.5</ele><time>2026-03-28T16:29:50.013Z</time></trkpt><trkpt lat="44.594635" lon="9.39334"><ele>1179.25</ele><time>2026-03-28T16:29:51.014Z</time></trkpt><trkpt lat="44.594765" lon="9.3933367"><ele>1180.0</ele><time>2026-03-28T16:29:52.014Z</time></trkpt><trkpt lat="44.5948883" lon="9.3933117"><ele>1180.0</ele><time>2026-03-28T16:29:53.014Z</time></trkpt><trkpt lat="44.595015" lon="9.393265"><ele>1180.0</ele><time>2026-03-28T16:29:54.014Z</time></trkpt><trkpt lat="44.5951317" lon="9.3932067"><ele>1180.0</ele><time>2026-03-28T16:29:55.014Z</time></trkpt><trkpt lat="44.5952383" lon="9.3931367"><ele>1180.0</ele><time>2026-03-28T16:29:56.014Z</time></trkpt><trkpt lat="44.5953383" lon="9.3930667"><ele>1179.0</ele><time>2026-03-28T16:29:57.014Z</time></trkpt><trkpt lat="44.59544" lon="9.3930083"><ele>1178.0</ele><time>2026-03-28T16:29:58.014Z</time></trkpt><trkpt lat="44.5955433" lon="9.392975"><ele>1177.0</ele><time>2026-03-28T16:29:59.013Z</time></trkpt><trkpt lat="44.5956567" lon="9.392965"><ele>1176.0</ele><time>2026-03-28T16:30:00.014Z</time></trkpt><trkpt lat="44.595775" lon="9.3929967"><ele>1176.0</ele><time>2026-03-28T16:30:01.014Z</time></trkpt><trkpt lat="44.595885" lon="9.3930567"><ele>1176.0</ele><time>2026-03-28T16:30:02.014Z</time></trkpt><trkpt lat="44.5959817" lon="9.3931183"><ele>1176.0</ele><time>2026-03-28T16:30:03.014Z</time></trkpt><trkpt lat="44.5960767" lon="9.3931633"><ele>1176.0</ele><time>2026-03-28T16:30:04.014Z</time></trkpt><trkpt lat="44.59615" lon="9.393195"><ele>1176.0</ele><time>2026-03-28T16:30:05.014Z</time></trkpt><trkpt lat="44.5962183" lon="9.3931933"><ele>1172.8</ele><time>2026-03-28T16:30:06.014Z</time></trkpt><trkpt lat="44.59629" lon="9.3931333"><ele>1169.6</ele><time>2026-03-28T16:30:08.014Z</time></trkpt><trkpt lat="44.5962517" lon="9.3930133"><ele>1166.4</ele><time>2026-03-28T16:30:10.014Z</time></trkpt><trkpt lat="44.596195" lon="9.3929333"><ele>1163.2</ele><time>2026-03-28T16:30:11.014Z</time></trkpt><trkpt lat="44.5961117" lon="9.39285"><ele>1160.0</ele><time>2026-03-28T16:30:12.014Z</time></trkpt><trkpt lat="44.596005" lon="9.39277"><ele>1160.0</ele><time>2026-03-28T16:30:13.014Z</time></trkpt><trkpt lat="44.5958633" lon="9.3926667"><ele>1160.0</ele><time>2026-03-28T16:30:14.014Z</time></trkpt><trkpt lat="44.5957067" lon="9.3925517"><ele>1160.0</ele><time>2026-03-28T16:30:15.014Z</time></trkpt><trkpt lat="44.5955367" lon="9.39244"><ele>1160.0</ele><time>2026-03-28T16:30:16.014Z</time></trkpt><trkpt lat="44.595365" lon="9.3923283"><ele>1160.0</ele><time>2026-03-28T16:30:17.014Z</time></trkpt><trkpt lat="44.5952083" lon="9.3922417"><ele>1160.0</ele><time>2026-03-28T16:30:18.014Z</time></trkpt><trkpt lat="44.59506" lon="9.392165"><ele>1154.0</ele><time>2026-03-28T16:30:19.014Z</time></trkpt><trkpt lat="44.5949017" lon="9.3920883"><ele>1148.0</ele><time>2026-03-28T16:30:20.014Z</time></trkpt><trkpt lat="44.5947567" lon="9.3920033"><ele>1142.0</ele><time>2026-03-28T16:30:21.014Z</time></trkpt><trkpt lat="44.59462" lon="9.39192"><ele>1145.5</ele><time>2026-03-28T16:30:22.013Z</time></trkpt><trkpt lat="44.5944833" lon="9.391845"><ele>1149.0</ele><time>2026-03-28T16:30:23.014Z</time></trkpt><trkpt lat="44.59435" lon="9.3917817"><ele>1152.5</ele><time>2026-03-28T16:30:24.014Z</time></trkpt><trkpt lat="44.594235" lon="9.3917167"><ele>1156.0</ele><time>2026-03-28T16:30:25.013Z</time></trkpt><trkpt lat="44.594115" lon="9.39166"><ele>1156.0</ele><time>2026-03-28T16:30:26.014Z</time></trkpt><trkpt lat="44.5940267" lon="9.3915917"><ele>1156.0</ele><time>2026-03-28T16:30:27.014Z</time></trkpt><trkpt lat="44.5939867" lon="9.39152"><ele>1156.0</ele><time>2026-03-28T16:30:28.014Z</time></trkpt><trkpt lat="44.5939617" lon="9.39138"><ele>1156.0</ele><time>2026-03-28T16:30:30.014Z</time></trkpt><trkpt lat="44.5940167" lon="9.3913317"><ele>1156.0</ele><time>2026-03-28T16:30:31.014Z</time></trkpt><trkpt lat="44.594115" lon="9.391355"><ele>1156.0</ele><time>2026-03-28T16:30:32.014Z</time></trkpt><trkpt lat="44.5942267" lon="9.391415"><ele>1156.0</ele><time>2026-03-28T16:30:33.014Z</time></trkpt><trkpt lat="44.5943517" lon="9.3914717"><ele>1156.0</ele><time>2026-03-28T16:30:34.014Z</time></trkpt><trkpt lat="44.5944917" lon="9.3915267"><ele>1156.0</ele><time>2026-03-28T16:30:35.014Z</time></trkpt><trkpt lat="44.5946217" lon="9.3915667"><ele>1156.0</ele><time>2026-03-28T16:30:36.014Z</time></trkpt><trkpt lat="44.5947617" lon="9.3915817"><ele>1152.5</ele><time>2026-03-28T16:30:37.014Z</time></trkpt><trkpt lat="44.5949083" lon="9.3915833"><ele>1149.0</ele><time>2026-03-28T16:30:38.014Z</time></trkpt><trkpt lat="44.5950533" lon="9.3915767"><ele>1145.5</ele><time>2026-03-28T16:30:39.013Z</time></trkpt><trkpt lat="44.59519" lon="9.3915667"><ele>1142.0</ele><time>2026-03-28T16:30:40.014Z</time></trkpt><trkpt lat="44.5953317" lon="9.3915467"><ele>1141.0</ele><time>2026-03-28T16:30:41.014Z</time></trkpt><trkpt lat="44.595475" lon="9.3915533"><ele>1140.0</ele><time>2026-03-28T16:30:42.014Z</time></trkpt><trkpt lat="44.595615" lon="9.3915433"><ele>1139.0</ele><time>2026-03-28T16:30:43.014Z</time></trkpt><trkpt lat="44.5957533" lon="9.3915367"><ele>1138.0</ele><time>2026-03-28T16:30:44.014Z</time></trkpt><trkpt lat="44.59587" lon="9.39152"><ele>1138.0</ele><time>2026-03-28T16:30:45.014Z</time></trkpt><trkpt lat="44.595985" lon="9.3914883"><ele>1138.0</ele><time>2026-03-28T16:30:46.014Z</time></trkpt><trkpt lat="44.5960867" lon="9.391425"><ele>1138.0</ele><time>2026-03-28T16:30:47.014Z</time></trkpt><trkpt lat="44.5961717" lon="9.3913383"><ele>1138.0</ele><time>2026-03-28T16:30:48.014Z</time></trkpt><trkpt lat="44.5962383" lon="9.39123"><ele>1138.0</ele><time>2026-03-28T16:30:49.013Z</time></trkpt><trkpt lat="44.5962667" lon="9.39112"><ele>1136.25</ele><time>2026-03-28T16:30:50.014Z</time></trkpt><trkpt lat="44.5963033" lon="9.39095"><ele>1134.5</ele><time>2026-03-28T16:30:51.014Z</time></trkpt><trkpt lat="44.596335" lon="9.3907933"><ele>1132.75</ele><time>2026-03-28T16:30:52.014Z</time></trkpt><trkpt lat="44.5963633" lon="9.3906283"><ele>1131.0</ele><time>2026-03-28T16:30:53.013Z</time></trkpt><trkpt lat="44.5963917" lon="9.3904733"><ele>1129.0</ele><time>2026-03-28T16:30:54.014Z</time></trkpt><trkpt lat="44.5964183" lon="9.3903433"><ele>1127.0</ele><time>2026-03-28T16:30:55.014Z</time></trkpt><trkpt lat="44.59647" lon="9.3902067"><ele>1125.0</ele><time>2026-03-28T16:30:56.014Z</time></trkpt><trkpt lat="44.5965517" lon="9.3900683"><ele>1123.0</ele><time>2026-03-28T16:30:57.014Z</time></trkpt><trkpt lat="44.5966533" lon="9.389965"><ele>1123.0</ele><time>2026-03-28T16:30:58.014Z</time></trkpt><trkpt lat="44.59679" lon="9.3898683"><ele>1123.0</ele><time>2026-03-28T16:30:59.014Z</time></trkpt><trkpt lat="44.59691" lon="9.3898167"><ele>1123.0</ele><time>2026-03-28T16:31:00.014Z</time></trkpt><trkpt lat="44.5970267" lon="9.3897817"><ele>1123.0</ele><time>2026-03-28T16:31:01.014Z</time></trkpt><trkpt lat="44.5971283" lon="9.38975"><ele>1121.0</ele><time>2026-03-28T16:31:02.014Z</time></trkpt><trkpt lat="44.5972117" lon="9.3897167"><ele>1119.0</ele><time>2026-03-28T16:31:03.014Z</time></trkpt><trkpt lat="44.59729" lon="9.3896683"><ele>1117.0</ele><time>2026-03-28T16:31:04.014Z</time></trkpt><trkpt lat="44.5973367" lon="9.3895483"><ele>1115.0</ele><time>2026-03-28T16:31:06.014Z</time></trkpt><trkpt lat="44.597275" lon="9.38943"><ele>1113.0</ele><time>2026-03-28T16:31:08.014Z</time></trkpt><trkpt lat="44.59719" lon="9.3893817"><ele>1112.5</ele><time>2026-03-28T16:31:09.014Z</time></trkpt><trkpt lat="44.5970867" lon="9.3893667"><ele>1112.0</ele><time>2026-03-28T16:31:10.014Z</time></trkpt><trkpt lat="44.5969583" lon="9.3893683"><ele>1111.5</ele><time>2026-03-28T16:31:11.014Z</time></trkpt><trkpt lat="44.59681" lon="9.3894017"><ele>1111.0</ele><time>2026-03-28T16:31:12.014Z</time></trkpt><trkpt lat="44.596645" lon="9.3894733"><ele>1111.0</ele><time>2026-03-28T16:31:13.014Z</time></trkpt><trkpt lat="44.5965" lon="9.3895467"><ele>1111.0</ele><time>2026-03-28T16:31:14.014Z</time></trkpt><trkpt lat="44.5963717" lon="9.3896017"><ele>1111.0</ele><time>2026-03-28T16:31:15.014Z</time></trkpt><trkpt lat="44.5962467" lon="9.3896517"><ele>1111.0</ele><time>2026-03-28T16:31:16.014Z</time></trkpt><trkpt lat="44.5961183" lon="9.3896767"><ele>1110.5</ele><time>2026-03-28T16:31:17.015Z</time></trkpt><trkpt lat="44.5959917" lon="9.389705"><ele>1110.0</ele><time>2026-03-28T16:31:18.015Z</time></trkpt><trkpt lat="44.5958683" lon="9.38972"><ele>1109.5</ele><time>2026-03-28T16:31:19.015Z</time></trkpt><trkpt lat="44.595755" lon="9.3896717"><ele>1109.0</ele><time>2026-03-28T16:31:20.014Z</time></trkpt><trkpt lat="44.59567" lon="9.3895867"><ele>1109.0</ele><time>2026-03-28T16:31:21.015Z</time></trkpt><trkpt lat="44.5956017" lon="9.38949"><ele>1109.0</ele><time>2026-03-28T16:31:22.015Z</time></trkpt><trkpt lat="44.5955533" lon="9.3893367"><ele>1109.0</ele><time>2026-03-28T16:31:23.015Z</time></trkpt><trkpt lat="44.5955017" lon="9.3892017"><ele>1109.0</ele><time>2026-03-28T16:31:24.014Z</time></trkpt><trkpt lat="44.5954283" lon="9.389075"><ele>1109.0</ele><time>2026-03-28T16:31:25.015Z</time></trkpt><trkpt lat="44.59535" lon="9.3889717"><ele>1110.75</ele><time>2026-03-28T16:31:26.015Z</time></trkpt><trkpt lat="44.5952667" lon="9.3888883"><ele>1112.5</ele><time>2026-03-28T16:31:27.015Z</time></trkpt><trkpt lat="44.5951717" lon="9.3888067"><ele>1114.25</ele><time>2026-03-28T16:31:28.015Z</time></trkpt><trkpt lat="44.5950583" lon="9.388735"><ele>1116.0</ele><time>2026-03-28T16:31:29.015Z</time></trkpt><trkpt lat="44.5949367" lon="9.3886633"><ele>1113.0</ele><time>2026-03-28T16:31:30.015Z</time></trkpt><trkpt lat="44.5947967" lon="9.388625"><ele>1110.0</ele><time>2026-03-28T16:31:31.015Z</time></trkpt><trkpt lat="44.5946567" lon="9.3885783"><ele>1107.0</ele><time>2026-03-28T16:31:32.014Z</time></trkpt><trkpt lat="44.594515" lon="9.3885317"><ele>1104.0</ele><time>2026-03-28T16:31:33.015Z</time></trkpt><trkpt lat="44.5943833" lon="9.3884783"><ele>1104.0</ele><time>2026-03-28T16:31:34.015Z</time></trkpt><trkpt lat="44.5942633" lon="9.3884217"><ele>1104.0</ele><time>2026-03-28T16:31:35.015Z</time></trkpt><trkpt lat="44.59416" lon="9.3883633"><ele>1104.0</ele><time>2026-03-28T16:31:36.015Z</time></trkpt><trkpt lat="44.5940917" lon="9.3882867"><ele>1104.0</ele><time>2026-03-28T16:31:37.015Z</time></trkpt><trkpt lat="44.594045" lon="9.3882067"><ele>1104.0</ele><time>2026-03-28T16:31:38.015Z</time></trkpt><trkpt lat="44.59403" lon="9.388115"><ele>1101.6000000000001</ele><time>2026-03-28T16:31:39.015Z</time></trkpt><trkpt lat="44.5940667" lon="9.3879883"><ele>1099.2</ele><time>2026-03-28T16:31:41.015Z</time></trkpt><trkpt lat="44.59414" lon="9.3879533"><ele>1096.8000000000002</ele><time>2026-03-28T16:31:42.015Z</time></trkpt><trkpt lat="44.5942583" lon="9.38795"><ele>1094.4</ele><time>2026-03-28T16:31:43.015Z</time></trkpt><trkpt lat="44.5944117" lon="9.387955"><ele>1092.0</ele><time>2026-03-28T16:31:44.014Z</time></trkpt><trkpt lat="44.594585" lon="9.38795"><ele>1089.0</ele><time>2026-03-28T16:31:45.015Z</time></trkpt><trkpt lat="44.5947783" lon="9.3879433"><ele>1086.0</ele><time>2026-03-28T16:31:46.015Z</time></trkpt><trkpt lat="44.5949533" lon="9.387925"><ele>1083.0</ele><time>2026-03-28T16:31:47.015Z</time></trkpt><trkpt lat="44.595125" lon="9.3878933"><ele>1083.0</ele><time>2026-03-28T16:31:48.015Z</time></trkpt><trkpt lat="44.5953017" lon="9.3878633"><ele>1083.0</ele><time>2026-03-28T16:31:49.015Z</time></trkpt><trkpt lat="44.5954783" lon="9.38783"><ele>1083.0</ele><time>2026-03-28T16:31:50.015Z</time></trkpt><trkpt lat="44.5956567" lon="9.3878017"><ele>1082.0</ele><time>2026-03-28T16:31:51.014Z</time></trkpt><trkpt lat="44.5958433" lon="9.3877767"><ele>1081.0</ele><time>2026-03-28T16:31:52.015Z</time></trkpt><trkpt lat="44.596015" lon="9.3877667"><ele>1080.0</ele><time>2026-03-28T16:31:53.015Z</time></trkpt><trkpt lat="44.59619" lon="9.3877567"><ele>1079.6666666666667</ele><time>2026-03-28T16:31:54.014Z</time></trkpt><trkpt lat="44.5963717" lon="9.387755"><ele>1079.3333333333335</ele><time>2026-03-28T16:31:55.015Z</time></trkpt><trkpt lat="44.5965583" lon="9.3877383"><ele>1079.0</ele><time>2026-03-28T16:31:56.015Z</time></trkpt><trkpt lat="44.596735" lon="9.38773"><ele>1079.0</ele><time>2026-03-28T16:31:57.015Z</time></trkpt><trkpt lat="44.5969017" lon="9.3877233"><ele>1079.0</ele><time>2026-03-28T16:31:58.015Z</time></trkpt><trkpt lat="44.5970567" lon="9.3877183"><ele>1079.0</ele><time>2026-03-28T16:31:59.015Z</time></trkpt><trkpt lat="44.5971883" lon="9.3877217"><ele>1077.0</ele><time>2026-03-28T16:32:00.015Z</time></trkpt><trkpt lat="44.5973117" lon="9.3877267"><ele>1075.0</ele><time>2026-03-28T16:32:01.014Z</time></trkpt><trkpt lat="44.597435" lon="9.3877383"><ele>1073.0</ele><time>2026-03-28T16:32:02.015Z</time></trkpt><trkpt lat="44.5975583" lon="9.38779"><ele>1071.0</ele><time>2026-03-28T16:32:03.015Z</time></trkpt><trkpt lat="44.5976817" lon="9.3878883"><ele>1071.0</ele><time>2026-03-28T16:32:04.015Z</time></trkpt><trkpt lat="44.5978017" lon="9.388015"><ele>1071.0</ele><time>2026-03-28T16:32:05.014Z</time></trkpt><trkpt lat="44.5979133" lon="9.3881183"><ele>1071.0</ele><time>2026-03-28T16:32:06.015Z</time></trkpt><trkpt lat="44.5980167" lon="9.3882033"><ele>1071.0</ele><time>2026-03-28T16:32:07.015Z</time></trkpt><trkpt lat="44.5981" lon="9.388265"><ele>1071.0</ele><time>2026-03-28T16:32:08.015Z</time></trkpt><trkpt lat="44.5981683" lon="9.388305"><ele>1071.0</ele><time>2026-03-28T16:32:09.015Z</time></trkpt><trkpt lat="44.59828" lon="9.38826"><ele>1071.0</ele><time>2026-03-28T16:32:11.015Z</time></trkpt><trkpt lat="44.59832" lon="9.3881817"><ele>1071.0</ele><time>2026-03-28T16:32:12.015Z</time></trkpt><trkpt lat="44.5983167" lon="9.3880883"><ele>1071.0</ele><time>2026-03-28T16:32:13.015Z</time></trkpt><trkpt lat="44.59828" lon="9.3879833"><ele>1071.0</ele><time>2026-03-28T16:32:14.015Z</time></trkpt><trkpt lat="44.5982017" lon="9.38787"><ele>1071.0</ele><time>2026-03-28T16:32:15.015Z</time></trkpt><trkpt lat="44.5980933" lon="9.38776"><ele>1071.0</ele><time>2026-03-28T16:32:16.015Z</time></trkpt><trkpt lat="44.59797" lon="9.3876417"><ele>1071.0</ele><time>2026-03-28T16:32:17.015Z</time></trkpt><trkpt lat="44.59785" lon="9.3875083"><ele>1071.0</ele><time>2026-03-28T16:32:18.014Z</time></trkpt><trkpt lat="44.5977467" lon="9.3873517"><ele>1071.0</ele><time>2026-03-28T16:32:19.015Z</time></trkpt><trkpt lat="44.5976483" lon="9.3871867"><ele>1071.0</ele><time>2026-03-28T16:32:20.015Z</time></trkpt><trkpt lat="44.5975533" lon="9.387015"><ele>1071.0</ele><time>2026-03-28T16:32:21.015Z</time></trkpt><trkpt lat="44.59748" lon="9.3868667"><ele>1071.0</ele><time>2026-03-28T16:32:22.014Z</time></trkpt><trkpt lat="44.59741" lon="9.3867417"><ele>1068.5</ele><time>2026-03-28T16:32:23.015Z</time></trkpt><trkpt lat="44.5973333" lon="9.3866417"><ele>1066.0</ele><time>2026-03-28T16:32:24.015Z</time></trkpt><trkpt lat="44.597235" lon="9.38656"><ele>1063.5</ele><time>2026-03-28T16:32:25.015Z</time></trkpt><trkpt lat="44.5971167" lon="9.3865133"><ele>1061.0</ele><time>2026-03-28T16:32:26.015Z</time></trkpt><trkpt lat="44.5969833" lon="9.386475"><ele>1061.0</ele><time>2026-03-28T16:32:27.014Z</time></trkpt><trkpt lat="44.5968383" lon="9.3864417"><ele>1061.0</ele><time>2026-03-28T16:32:28.015Z</time></trkpt><trkpt lat="44.59672" lon="9.3863817"><ele>1061.0</ele><time>2026-03-28T16:32:29.014Z</time></trkpt><trkpt lat="44.5965967" lon="9.3863317"><ele>1061.0</ele><time>2026-03-28T16:32:30.015Z</time></trkpt><trkpt lat="44.59648" lon="9.38627"><ele>1057.75</ele><time>2026-03-28T16:32:31.015Z</time></trkpt><trkpt lat="44.5963617" lon="9.38618"><ele>1054.5</ele><time>2026-03-28T16:32:32.015Z</time></trkpt><trkpt lat="44.5962417" lon="9.3860817"><ele>1051.25</ele><time>2026-03-28T16:32:33.015Z</time></trkpt><trkpt lat="44.596125" lon="9.3859867"><ele>1048.0</ele><time>2026-03-28T16:32:34.015Z</time></trkpt><trkpt lat="44.59601" lon="9.3858583"><ele>1048.0</ele><time>2026-03-28T16:32:35.015Z</time></trkpt><trkpt lat="44.5958817" lon="9.38574"><ele>1048.0</ele><time>2026-03-28T16:32:36.015Z</time></trkpt><trkpt lat="44.5957533" lon="9.3856217"><ele>1048.0</ele><time>2026-03-28T16:32:37.015Z</time></trkpt><trkpt lat="44.595625" lon="9.3855033"><ele>1047.0</ele><time>2026-03-28T16:32:38.014Z</time></trkpt><trkpt lat="44.5955017" lon="9.3853867"><ele>1046.0</ele><time>2026-03-28T16:32:39.015Z</time></trkpt><trkpt lat="44.5953833" lon="9.3852833"><ele>1045.0</ele><time>2026-03-28T16:32:40.015Z</time></trkpt><trkpt lat="44.595265" lon="9.3851817"><ele>1044.0</ele><time>2026-03-28T16:32:41.014Z</time></trkpt><trkpt lat="44.595145" lon="9.3850967"><ele>1044.0</ele><time>2026-03-28T16:32:42.015Z</time></trkpt><trkpt lat="44.595025" lon="9.385035"><ele>1044.0</ele><time>2026-03-28T16:32:43.015Z</time></trkpt><trkpt lat="44.5949167" lon="9.38495"><ele>1044.0</ele><time>2026-03-28T16:32:44.015Z</time></trkpt><trkpt lat="44.5948017" lon="9.3848583"><ele>1044.0</ele><time>2026-03-28T16:32:45.015Z</time></trkpt><trkpt lat="44.5946933" lon="9.3847633"><ele>1045.75</ele><time>2026-03-28T16:32:46.015Z</time></trkpt><trkpt lat="44.5945767" lon="9.3846767"><ele>1047.5</ele><time>2026-03-28T16:32:47.015Z</time></trkpt><trkpt lat="44.5944667" lon="9.384615"><ele>1049.25</ele><time>2026-03-28T16:32:48.015Z</time></trkpt><trkpt lat="44.594365" lon="9.3845467"><ele>1051.0</ele><time>2026-03-28T16:32:49.015Z</time></trkpt><trkpt lat="44.5942717" lon="9.3844517"><ele>1051.0</ele><time>2026-03-28T16:32:50.015Z</time></trkpt><trkpt lat="44.5942183" lon="9.3842733"><ele>1051.0</ele><time>2026-03-28T16:32:51.015Z</time></trkpt><trkpt lat="44.59417" lon="9.3840833"><ele>1051.0</ele><time>2026-03-28T16:32:52.015Z</time></trkpt><trkpt lat="44.5941367" lon="9.3838733"><ele>1051.0</ele><time>2026-03-28T16:32:53.015Z</time></trkpt><trkpt lat="44.5941067" lon="9.38369"><ele>1048.1666666666665</ele><time>2026-03-28T16:32:54.015Z</time></trkpt><trkpt lat="44.5940983" lon="9.38352"><ele>1045.3333333333333</ele><time>2026-03-28T16:32:55.015Z</time></trkpt><trkpt lat="44.5941" lon="9.3833833"><ele>1042.5</ele><time>2026-03-28T16:32:56.015Z</time></trkpt><trkpt lat="44.594065" lon="9.3832883"><ele>1039.6666666666667</ele><time>2026-03-28T16:32:57.015Z</time></trkpt><trkpt lat="44.59403" lon="9.38321"><ele>1036.8333333333335</ele><time>2026-03-28T16:32:58.015Z</time></trkpt><trkpt lat="44.59397" lon="9.3831367"><ele>1034.0</ele><time>2026-03-28T16:32:59.015Z</time></trkpt><trkpt lat="44.5938917" lon="9.3830917"><ele>1034.0</ele><time>2026-03-28T16:33:00.015Z</time></trkpt><trkpt lat="44.5938017" lon="9.3830483"><ele>1034.0</ele><time>2026-03-28T16:33:01.015Z</time></trkpt><trkpt lat="44.5937267" lon="9.3829867"><ele>1034.0</ele><time>2026-03-28T16:33:02.015Z</time></trkpt><trkpt lat="44.593665" lon="9.382885"><ele>1034.0</ele><time>2026-03-28T16:33:03.015Z</time></trkpt><trkpt lat="44.5936217" lon="9.38276"><ele>1034.0</ele><time>2026-03-28T16:33:04.015Z</time></trkpt><trkpt lat="44.5936117" lon="9.38263"><ele>1032.0</ele><time>2026-03-28T16:33:05.015Z</time></trkpt><trkpt lat="44.5935833" lon="9.3825067"><ele>1030.0</ele><time>2026-03-28T16:33:06.015Z</time></trkpt><trkpt lat="44.5935533" lon="9.3823933"><ele>1028.0</ele><time>2026-03-28T16:33:07.015Z</time></trkpt><trkpt lat="44.5934983" lon="9.3822767"><ele>1026.0</ele><time>2026-03-28T16:33:08.015Z</time></trkpt><trkpt lat="44.59343" lon="9.3821567"><ele>1024.0</ele><time>2026-03-28T16:33:09.015Z</time></trkpt><trkpt lat="44.593345" lon="9.3820633"><ele>1024.0</ele><time>2026-03-28T16:33:10.015Z</time></trkpt><trkpt lat="44.5932383" lon="9.38199"><ele>1024.0</ele><time>2026-03-28T16:33:11.015Z</time></trkpt><trkpt lat="44.5931283" lon="9.38195"><ele>1024.0</ele><time>2026-03-28T16:33:12.015Z</time></trkpt><trkpt lat="44.59305" lon="9.3818917"><ele>1024.0</ele><time>2026-03-28T16:33:13.015Z</time></trkpt><trkpt lat="44.5929867" lon="9.38181"><ele>1024.0</ele><time>2026-03-28T16:33:14.014Z</time></trkpt><trkpt lat="44.59295" lon="9.3817017"><ele>1023.9999999999999</ele><time>2026-03-28T16:33:15.015Z</time></trkpt><trkpt lat="44.59294" lon="9.3815917"><ele>1024.0</ele><time>2026-03-28T16:33:16.015Z</time></trkpt><trkpt lat="44.592965" lon="9.3815017"><ele>1024.0</ele><time>2026-03-28T16:33:17.015Z</time></trkpt><trkpt lat="44.5930133" lon="9.3814183"><ele>1024.0</ele><time>2026-03-28T16:33:18.015Z</time></trkpt><trkpt lat="44.593095" lon="9.381335"><ele>1023.9999999999999</ele><time>2026-03-28T16:33:19.014Z</time></trkpt><trkpt lat="44.5931883" lon="9.3812567"><ele>1024.0</ele><time>2026-03-28T16:33:20.014Z</time></trkpt><trkpt lat="44.5932617" lon="9.3811583"><ele>1022.6666666666666</ele><time>2026-03-28T16:33:21.015Z</time></trkpt><trkpt lat="44.593315" lon="9.3810483"><ele>1021.3333333333333</ele><time>2026-03-28T16:33:22.015Z</time></trkpt><trkpt lat="44.59335" lon="9.3809417"><ele>1020.0</ele><time>2026-03-28T16:33:23.015Z</time></trkpt><trkpt lat="44.5933517" lon="9.3808417"><ele>1018.6666666666667</ele><time>2026-03-28T16:33:24.015Z</time></trkpt><trkpt lat="44.5933" lon="9.3807667"><ele>1017.3333333333334</ele><time>2026-03-28T16:33:25.015Z</time></trkpt><trkpt lat="44.5932317" lon="9.380725"><ele>1016.0</ele><time>2026-03-28T16:33:26.015Z</time></trkpt><trkpt lat="44.5931433" lon="9.380715"><ele>1016.0</ele><time>2026-03-28T16:33:27.015Z</time></trkpt><trkpt lat="44.5930417" lon="9.38073"><ele>1016.0</ele><time>2026-03-28T16:33:28.015Z</time></trkpt><trkpt lat="44.5929333" lon="9.38078"><ele>1016.0</ele><time>2026-03-28T16:33:29.014Z</time></trkpt><trkpt lat="44.5928133" lon="9.3808617"><ele>1016.0</ele><time>2026-03-28T16:33:30.015Z</time></trkpt><trkpt lat="44.59268" lon="9.38092"><ele>1017.0</ele><time>2026-03-28T16:33:31.015Z</time></trkpt><trkpt lat="44.5925617" lon="9.38095"><ele>1017.9999999999999</ele><time>2026-03-28T16:33:32.015Z</time></trkpt><trkpt lat="44.5924567" lon="9.3809517"><ele>1018.9999999999999</ele><time>2026-03-28T16:33:33.015Z</time></trkpt><trkpt lat="44.5923633" lon="9.3809483"><ele>1020.0</ele><time>2026-03-28T16:33:34.015Z</time></trkpt><trkpt lat="44.5922817" lon="9.3809167"><ele>1021.0</ele><time>2026-03-28T16:33:35.015Z</time></trkpt><trkpt lat="44.5922083" lon="9.380865"><ele>1021.0</ele><time>2026-03-28T16:33:36.015Z</time></trkpt><trkpt lat="44.5921333" lon="9.3807933"><ele>1020.9999999999999</ele><time>2026-03-28T16:33:37.014Z</time></trkpt><trkpt lat="44.59206" lon="9.38069"><ele>1020.9999999999999</ele><time>2026-03-28T16:33:38.015Z</time></trkpt><trkpt lat="44.592005" lon="9.380565"><ele>1021.0</ele><time>2026-03-28T16:33:39.015Z</time></trkpt><trkpt lat="44.5919533" lon="9.380425"><ele>1021.0</ele><time>2026-03-28T16:33:40.014Z</time></trkpt><trkpt lat="44.59189" lon="9.3802817"><ele>1021.5999999999999</ele><time>2026-03-28T16:33:41.015Z</time></trkpt><trkpt lat="44.5918367" lon="9.3801367"><ele>1022.1999999999999</ele><time>2026-03-28T16:33:42.015Z</time></trkpt><trkpt lat="44.5917917" lon="9.3799983"><ele>1022.8000000000001</ele><time>2026-03-28T16:33:43.015Z</time></trkpt><trkpt lat="44.5917617" lon="9.3798667"><ele>1023.4000000000001</ele><time>2026-03-28T16:33:44.014Z</time></trkpt><trkpt lat="44.59174" lon="9.3797483"><ele>1024.0</ele><time>2026-03-28T16:33:45.015Z</time></trkpt><trkpt lat="44.591715" lon="9.379655"><ele>1021.9999999999999</ele><time>2026-03-28T16:33:46.015Z</time></trkpt><trkpt lat="44.5916883" lon="9.3795717"><ele>1020.0</ele><time>2026-03-28T16:33:47.015Z</time></trkpt><trkpt lat="44.5916567" lon="9.37949"><ele>1018.0</ele><time>2026-03-28T16:33:48.014Z</time></trkpt><trkpt lat="44.5916133" lon="9.3794067"><ele>1016.0</ele><time>2026-03-28T16:33:49.015Z</time></trkpt><trkpt lat="44.59157" lon="9.3793283"><ele>1013.9999999999999</ele><time>2026-03-28T16:33:50.015Z</time></trkpt><trkpt lat="44.591545" lon="9.3792417"><ele>1012.0</ele><time>2026-03-28T16:33:51.015Z</time></trkpt><trkpt lat="44.5915367" lon="9.3790767"><ele>1011.9999999999999</ele><time>2026-03-28T16:33:53.015Z</time></trkpt><trkpt lat="44.5915617" lon="9.378975"><ele>1012.0</ele><time>2026-03-28T16:33:54.015Z</time></trkpt><trkpt lat="44.5916033" lon="9.3788683"><ele>1012.0</ele><time>2026-03-28T16:33:55.015Z</time></trkpt><trkpt lat="44.59165" lon="9.3787583"><ele>1012.0</ele><time>2026-03-28T16:33:56.015Z</time></trkpt><trkpt lat="44.5917017" lon="9.3786367"><ele>1011.9999999999999</ele><time>2026-03-28T16:33:57.014Z</time></trkpt><trkpt lat="44.5917417" lon="9.3785283"><ele>1012.0</ele><time>2026-03-28T16:33:58.015Z</time></trkpt><trkpt lat="44.5918033" lon="9.3784267"><ele>1013.0</ele><time>2026-03-28T16:33:59.015Z</time></trkpt><trkpt lat="44.5918767" lon="9.3783317"><ele>1014.0</ele><time>2026-03-28T16:34:00.015Z</time></trkpt><trkpt lat="44.5919683" lon="9.3782483"><ele>1015.0</ele><time>2026-03-28T16:34:01.015Z</time></trkpt><trkpt lat="44.592065" lon="9.3782"><ele>1016.0</ele><time>2026-03-28T16:34:02.015Z</time></trkpt><trkpt lat="44.5921817" lon="9.3781383"><ele>1017.0</ele><time>2026-03-28T16:34:03.014Z</time></trkpt><trkpt lat="44.5922917" lon="9.3780883"><ele>1016.6</ele><time>2026-03-28T16:34:04.014Z</time></trkpt><trkpt lat="44.5924017" lon="9.3780483"><ele>1016.2</ele><time>2026-03-28T16:34:05.015Z</time></trkpt><trkpt lat="44.5925033" lon="9.378035"><ele>1015.8</ele><time>2026-03-28T16:34:06.015Z</time></trkpt><trkpt lat="44.5926133" lon="9.3779683"><ele>1015.4</ele><time>2026-03-28T16:34:07.015Z</time></trkpt><trkpt lat="44.5927" lon="9.3779067"><ele>1015.0</ele><time>2026-03-28T16:34:08.015Z</time></trkpt><trkpt lat="44.5927683" lon="9.3778483"><ele>1015.0</ele><time>2026-03-28T16:34:09.015Z</time></trkpt><trkpt lat="44.59282" lon="9.3777"><ele>1015.0</ele><time>2026-03-28T16:34:11.015Z</time></trkpt><trkpt lat="44.5928033" lon="9.3775917"><ele>1015.0</ele><time>2026-03-28T16:34:12.015Z</time></trkpt><trkpt lat="44.5927667" lon="9.3774717"><ele>1015.0</ele><time>2026-03-28T16:34:13.015Z</time></trkpt><trkpt lat="44.592725" lon="9.3773217"><ele>1015.0</ele><time>2026-03-28T16:34:14.014Z</time></trkpt><trkpt lat="44.5926917" lon="9.3771533"><ele>1016.5</ele><time>2026-03-28T16:34:15.015Z</time></trkpt><trkpt lat="44.59267" lon="9.37698"><ele>1018.0</ele><time>2026-03-28T16:34:16.015Z</time></trkpt><trkpt lat="44.5926567" lon="9.376805"><ele>1019.5</ele><time>2026-03-28T16:34:17.015Z</time></trkpt><trkpt lat="44.592655" lon="9.3766333"><ele>1021.0</ele><time>2026-03-28T16:34:18.015Z</time></trkpt><trkpt lat="44.59266" lon="9.37647"><ele>1020.9999999999999</ele><time>2026-03-28T16:34:19.014Z</time></trkpt><trkpt lat="44.5926817" lon="9.3763267"><ele>1021.0</ele><time>2026-03-28T16:34:20.015Z</time></trkpt><trkpt lat="44.5927133" lon="9.3761967"><ele>1021.0</ele><time>2026-03-28T16:34:21.015Z</time></trkpt><trkpt lat="44.5927617" lon="9.3761033"><ele>1021.0</ele><time>2026-03-28T16:34:22.015Z</time></trkpt><trkpt lat="44.5928267" lon="9.3760417"><ele>1020.9999999999999</ele><time>2026-03-28T16:34:23.015Z</time></trkpt><trkpt lat="44.592905" lon="9.37602"><ele>1021.0</ele><time>2026-03-28T16:34:24.015Z</time></trkpt><trkpt lat="44.592995" lon="9.376045"><ele>1021.0</ele><time>2026-03-28T16:34:25.014Z</time></trkpt><trkpt lat="44.593085" lon="9.3761217"><ele>1021.0</ele><time>2026-03-28T16:34:26.015Z</time></trkpt><trkpt lat="44.5931767" lon="9.3762483"><ele>1021.0</ele><time>2026-03-28T16:34:27.015Z</time></trkpt><trkpt lat="44.5932517" lon="9.3764083"><ele>1021.0</ele><time>2026-03-28T16:34:28.015Z</time></trkpt><trkpt lat="44.5933233" lon="9.37659"><ele>1015.0</ele><time>2026-03-28T16:34:29.015Z</time></trkpt><trkpt lat="44.593405" lon="9.37674"><ele>1009.0</ele><time>2026-03-28T16:34:30.015Z</time></trkpt><trkpt lat="44.5934917" lon="9.3768883"><ele>1003.0</ele><time>2026-03-28T16:34:31.015Z</time></trkpt><trkpt lat="44.5935817" lon="9.3770033"><ele>997.0</ele><time>2026-03-28T16:34:32.015Z</time></trkpt><trkpt lat="44.593675" lon="9.377095"><ele>997.0</ele><time>2026-03-28T16:34:33.015Z</time></trkpt><trkpt lat="44.59379" lon="9.377135"><ele>997.0</ele><time>2026-03-28T16:34:34.015Z</time></trkpt><trkpt lat="44.5939167" lon="9.3771467"><ele>997.0</ele><time>2026-03-28T16:34:35.015Z</time></trkpt><trkpt lat="44.5940433" lon="9.3771533"><ele>997.0</ele><time>2026-03-28T16:34:36.015Z</time></trkpt><trkpt lat="44.594165" lon="9.3771433"><ele>997.0</ele><time>2026-03-28T16:34:37.015Z</time></trkpt><trkpt lat="44.594275" lon="9.3771183"><ele>997.0</ele><time>2026-03-28T16:34:38.015Z</time></trkpt><trkpt lat="44.5943567" lon="9.3770683"><ele>997.0</ele><time>2026-03-28T16:34:39.015Z</time></trkpt><trkpt lat="44.5944217" lon="9.3770133"><ele>997.0</ele><time>2026-03-28T16:34:40.014Z</time></trkpt><trkpt lat="44.594495" lon="9.37692"><ele>997.0</ele><time>2026-03-28T16:34:41.015Z</time></trkpt><trkpt lat="44.5945383" lon="9.3768017"><ele>992.0</ele><time>2026-03-28T16:34:42.014Z</time></trkpt><trkpt lat="44.5945617" lon="9.37667"><ele>987.0</ele><time>2026-03-28T16:34:43.015Z</time></trkpt><trkpt lat="44.5945717" lon="9.3764867"><ele>982.0</ele><time>2026-03-28T16:34:44.015Z</time></trkpt><trkpt lat="44.594595" lon="9.3763117"><ele>977.0</ele><time>2026-03-28T16:34:45.015Z</time></trkpt><trkpt lat="44.59464" lon="9.376125"><ele>977.0</ele><time>2026-03-28T16:34:46.014Z</time></trkpt><trkpt lat="44.5946933" lon="9.3759367"><ele>977.0</ele><time>2026-03-28T16:34:47.015Z</time></trkpt><trkpt lat="44.5947733" lon="9.37575"><ele>977.0</ele><time>2026-03-28T16:34:48.015Z</time></trkpt><trkpt lat="44.5948667" lon="9.3755667"><ele>983.6666666666667</ele><time>2026-03-28T16:34:49.015Z</time></trkpt><trkpt lat="44.5949533" lon="9.3753767"><ele>990.3333333333333</ele><time>2026-03-28T16:34:50.015Z</time></trkpt><trkpt lat="44.5950417" lon="9.3751783"><ele>997.0</ele><time>2026-03-28T16:34:51.015Z</time></trkpt><trkpt lat="44.5951267" lon="9.3749833"><ele>997.0</ele><time>2026-03-28T16:34:52.015Z</time></trkpt><trkpt lat="44.5952083" lon="9.374805"><ele>997.0</ele><time>2026-03-28T16:34:53.015Z</time></trkpt><trkpt lat="44.5952567" lon="9.3746167"><ele>997.0</ele><time>2026-03-28T16:34:54.015Z</time></trkpt><trkpt lat="44.5952883" lon="9.3744467"><ele>997.0</ele><time>2026-03-28T16:34:55.015Z</time></trkpt><trkpt lat="44.5952983" lon="9.3742833"><ele>996.6666666666666</ele><time>2026-03-28T16:34:56.015Z</time></trkpt><trkpt lat="44.595325" lon="9.374145"><ele>996.3333333333333</ele><time>2026-03-28T16:34:57.015Z</time></trkpt><trkpt lat="44.5953667" lon="9.3740233"><ele>996.0</ele><time>2026-03-28T16:34:58.015Z</time></trkpt><trkpt lat="44.5954133" lon="9.3739333"><ele>995.6666666666667</ele><time>2026-03-28T16:34:59.015Z</time></trkpt><trkpt lat="44.5954767" lon="9.3738817"><ele>995.3333333333334</ele><time>2026-03-28T16:35:00.015Z</time></trkpt><trkpt lat="44.5955617" lon="9.3738667"><ele>995.0</ele><time>2026-03-28T16:35:01.015Z</time></trkpt><trkpt lat="44.5956783" lon="9.3739183"><ele>995.0</ele><time>2026-03-28T16:35:02.015Z</time></trkpt><trkpt lat="44.59579" lon="9.3740217"><ele>995.0</ele><time>2026-03-28T16:35:03.015Z</time></trkpt><trkpt lat="44.5959" lon="9.3740967"><ele>995.0</ele><time>2026-03-28T16:35:04.015Z</time></trkpt><trkpt lat="44.5960117" lon="9.3741183"><ele>995.0</ele><time>2026-03-28T16:35:05.015Z</time></trkpt><trkpt lat="44.5961267" lon="9.374105"><ele>995.3333333333334</ele><time>2026-03-28T16:35:06.015Z</time></trkpt><trkpt lat="44.596215" lon="9.37407"><ele>995.6666666666667</ele><time>2026-03-28T16:35:07.015Z</time></trkpt><trkpt lat="44.5962967" lon="9.3740483"><ele>996.0</ele><time>2026-03-28T16:35:08.015Z</time></trkpt><trkpt lat="44.596375" lon="9.3740483"><ele>996.3333333333333</ele><time>2026-03-28T16:35:09.015Z</time></trkpt><trkpt lat="44.5964483" lon="9.37408"><ele>996.6666666666666</ele><time>2026-03-28T16:35:10.015Z</time></trkpt><trkpt lat="44.596505" lon="9.3741883"><ele>997.0</ele><time>2026-03-28T16:35:11.015Z</time></trkpt><trkpt lat="44.5965383" lon="9.3743717"><ele>997.0</ele><time>2026-03-28T16:35:12.015Z</time></trkpt><trkpt lat="44.5965667" lon="9.3745683"><ele>997.0</ele><time>2026-03-28T16:35:13.015Z</time></trkpt><trkpt lat="44.5966183" lon="9.3747417"><ele>997.0</ele><time>2026-03-28T16:35:14.015Z</time></trkpt><trkpt lat="44.5966817" lon="9.3749033"><ele>997.0</ele><time>2026-03-28T16:35:15.015Z</time></trkpt><trkpt lat="44.5967567" lon="9.375075"><ele>995.25</ele><time>2026-03-28T16:35:16.015Z</time></trkpt><trkpt lat="44.5968367" lon="9.375245"><ele>993.5</ele><time>2026-03-28T16:35:17.015Z</time></trkpt><trkpt lat="44.596925" lon="9.375425"><ele>991.75</ele><time>2026-03-28T16:35:18.015Z</time></trkpt><trkpt lat="44.5970083" lon="9.37559"><ele>990.0</ele><time>2026-03-28T16:35:19.014Z</time></trkpt><trkpt lat="44.5970717" lon="9.3757233"><ele>989.8333333333334</ele><time>2026-03-28T16:35:20.015Z</time></trkpt><trkpt lat="44.5971333" lon="9.3758083"><ele>989.6666666666667</ele><time>2026-03-28T16:35:21.015Z</time></trkpt><trkpt lat="44.5972" lon="9.375855"><ele>989.5</ele><time>2026-03-28T16:35:22.015Z</time></trkpt><trkpt lat="44.5972667" lon="9.3758833"><ele>989.3333333333334</ele><time>2026-03-28T16:35:23.014Z</time></trkpt><trkpt lat="44.5973767" lon="9.3758533"><ele>989.1666666666667</ele><time>2026-03-28T16:35:25.015Z</time></trkpt><trkpt lat="44.5974367" lon="9.3757717"><ele>989.0</ele><time>2026-03-28T16:35:26.015Z</time></trkpt><trkpt lat="44.59751" lon="9.375685"><ele>989.0</ele><time>2026-03-28T16:35:27.015Z</time></trkpt><trkpt lat="44.59761" lon="9.375615"><ele>989.0</ele><time>2026-03-28T16:35:28.015Z</time></trkpt><trkpt lat="44.597735" lon="9.37558"><ele>989.0</ele><time>2026-03-28T16:35:29.015Z</time></trkpt><trkpt lat="44.5978767" lon="9.3755783"><ele>989.0</ele><time>2026-03-28T16:35:30.014Z</time></trkpt><trkpt lat="44.5980217" lon="9.3755883"><ele>988.75</ele><time>2026-03-28T16:35:31.015Z</time></trkpt><trkpt lat="44.59818" lon="9.3756017"><ele>988.5</ele><time>2026-03-28T16:35:32.015Z</time></trkpt><trkpt lat="44.59831" lon="9.3756917"><ele>988.25</ele><time>2026-03-28T16:35:33.015Z</time></trkpt><trkpt lat="44.5984183" lon="9.3758033"><ele>988.0</ele><time>2026-03-28T16:35:34.015Z</time></trkpt><trkpt lat="44.598515" lon="9.3759033"><ele>988.0</ele><time>2026-03-28T16:35:35.015Z</time></trkpt><trkpt lat="44.598605" lon="9.3759917"><ele>988.0</ele><time>2026-03-28T16:35:36.015Z</time></trkpt><trkpt lat="44.5987167" lon="9.3760217"><ele>988.0</ele><time>2026-03-28T16:35:37.014Z</time></trkpt><trkpt lat="44.59883" lon="9.37602"><ele>988.0</ele><time>2026-03-28T16:35:38.015Z</time></trkpt><trkpt lat="44.598935" lon="9.3759917"><ele>988.0</ele><time>2026-03-28T16:35:39.015Z</time></trkpt><trkpt lat="44.599025" lon="9.3759417"><ele>987.0</ele><time>2026-03-28T16:35:40.015Z</time></trkpt><trkpt lat="44.5991117" lon="9.3758483"><ele>986.0</ele><time>2026-03-28T16:35:41.015Z</time></trkpt><trkpt lat="44.5991867" lon="9.37573"><ele>985.0</ele><time>2026-03-28T16:35:42.015Z</time></trkpt><trkpt lat="44.599255" lon="9.3755867"><ele>984.0</ele><time>2026-03-28T16:35:43.015Z</time></trkpt><trkpt lat="44.5993067" lon="9.3754383"><ele>985.0</ele><time>2026-03-28T16:35:44.015Z</time></trkpt><trkpt lat="44.5993633" lon="9.3752783"><ele>986.0</ele><time>2026-03-28T16:35:45.014Z</time></trkpt><trkpt lat="44.5994217" lon="9.3751167"><ele>987.0</ele><time>2026-03-28T16:35:46.015Z</time></trkpt><trkpt lat="44.599485" lon="9.3749817"><ele>988.0</ele><time>2026-03-28T16:35:47.015Z</time></trkpt><trkpt lat="44.5995483" lon="9.3748583"><ele>988.0</ele><time>2026-03-28T16:35:48.014Z</time></trkpt><trkpt lat="44.5996267" lon="9.3747683"><ele>988.0</ele><time>2026-03-28T16:35:49.015Z</time></trkpt><trkpt lat="44.5997133" lon="9.374735"><ele>988.0</ele><time>2026-03-28T16:35:50.014Z</time></trkpt><trkpt lat="44.5998117" lon="9.3747383"><ele>988.0</ele><time>2026-03-28T16:35:51.015Z</time></trkpt><trkpt lat="44.59991" lon="9.374805"><ele>988.0</ele><time>2026-03-28T16:35:52.015Z</time></trkpt><trkpt lat="44.5999983" lon="9.3748883"><ele>988.0</ele><time>2026-03-28T16:35:53.015Z</time></trkpt><trkpt lat="44.6001067" lon="9.3749217"><ele>988.0</ele><time>2026-03-28T16:35:54.015Z</time></trkpt><trkpt lat="44.600225" lon="9.3749467"><ele>988.0</ele><time>2026-03-28T16:35:55.015Z</time></trkpt><trkpt lat="44.6003367" lon="9.3750067"><ele>988.0</ele><time>2026-03-28T16:35:56.015Z</time></trkpt><trkpt lat="44.60046" lon="9.375065"><ele>992.0</ele><time>2026-03-28T16:35:57.015Z</time></trkpt><trkpt lat="44.60059" lon="9.37515"><ele>996.0</ele><time>2026-03-28T16:35:58.015Z</time></trkpt><trkpt lat="44.6007217" lon="9.375215"><ele>1000.0</ele><time>2026-03-28T16:35:59.015Z</time></trkpt><trkpt lat="44.6008567" lon="9.37527"><ele>1004.0</ele><time>2026-03-28T16:36:00.015Z</time></trkpt><trkpt lat="44.6009867" lon="9.375325"><ele>1004.0</ele><time>2026-03-28T16:36:01.015Z</time></trkpt><trkpt lat="44.6011067" lon="9.3753967"><ele>1004.0000000000001</ele><time>2026-03-28T16:36:02.014Z</time></trkpt><trkpt lat="44.60122" lon="9.375465"><ele>1004.0000000000001</ele><time>2026-03-28T16:36:03.015Z</time></trkpt><trkpt lat="44.6013183" lon="9.3755417"><ele>1004.0</ele><time>2026-03-28T16:36:04.015Z</time></trkpt><trkpt lat="44.6013717" lon="9.3756283"><ele>1004.0</ele><time>2026-03-28T16:36:05.015Z</time></trkpt><trkpt lat="44.6013883" lon="9.37575"><ele>1004.5000000000001</ele><time>2026-03-28T16:36:06.015Z</time></trkpt><trkpt lat="44.60138" lon="9.3758917"><ele>1005.0</ele><time>2026-03-28T16:36:07.014Z</time></trkpt><trkpt lat="44.6013833" lon="9.3760167"><ele>1005.5</ele><time>2026-03-28T16:36:08.015Z</time></trkpt><trkpt lat="44.6014067" lon="9.3761217"><ele>1006.0</ele><time>2026-03-28T16:36:09.015Z</time></trkpt><trkpt lat="44.6014583" lon="9.3762167"><ele>1006.5000000000001</ele><time>2026-03-28T16:36:10.015Z</time></trkpt><trkpt lat="44.6015333" lon="9.37629"><ele>1007.0</ele><time>2026-03-28T16:36:11.015Z</time></trkpt><trkpt lat="44.601625" lon="9.3763483"><ele>1000.5</ele><time>2026-03-28T16:36:12.015Z</time></trkpt><trkpt lat="44.6017217" lon="9.3764183"><ele>994.0</ele><time>2026-03-28T16:36:13.015Z</time></trkpt><trkpt lat="44.601825" lon="9.3764933"><ele>987.5</ele><time>2026-03-28T16:36:14.015Z</time></trkpt><trkpt lat="44.6019" lon="9.3766167"><ele>981.0</ele><time>2026-03-28T16:36:15.015Z</time></trkpt><trkpt lat="44.6019567" lon="9.3767617"><ele>981.5</ele><time>2026-03-28T16:36:16.015Z</time></trkpt><trkpt lat="44.6020117" lon="9.37692"><ele>982.0</ele><time>2026-03-28T16:36:17.014Z</time></trkpt><trkpt lat="44.60207" lon="9.37708"><ele>982.5</ele><time>2026-03-28T16:36:18.015Z</time></trkpt><trkpt lat="44.6021233" lon="9.37722"><ele>983.0</ele><time>2026-03-28T16:36:19.014Z</time></trkpt><trkpt lat="44.602175" lon="9.377335"><ele>983.0</ele><time>2026-03-28T16:36:20.015Z</time></trkpt><trkpt lat="44.6022417" lon="9.3774167"><ele>983.0</ele><time>2026-03-28T16:36:21.015Z</time></trkpt><trkpt lat="44.6023217" lon="9.3774667"><ele>983.0</ele><time>2026-03-28T16:36:22.015Z</time></trkpt><trkpt lat="44.6024233" lon="9.3774883"><ele>983.0</ele><time>2026-03-28T16:36:23.015Z</time></trkpt><trkpt lat="44.602535" lon="9.3774883"><ele>983.0</ele><time>2026-03-28T16:36:24.015Z</time></trkpt><trkpt lat="44.6026517" lon="9.37748"><ele>983.0</ele><time>2026-03-28T16:36:25.015Z</time></trkpt><trkpt lat="44.6027833" lon="9.3774433"><ele>983.0</ele><time>2026-03-28T16:36:26.015Z</time></trkpt><trkpt lat="44.6029133" lon="9.3773933"><ele>983.0</ele><time>2026-03-28T16:36:27.015Z</time></trkpt><trkpt lat="44.603045" lon="9.3773317"><ele>983.0</ele><time>2026-03-28T16:36:28.015Z</time></trkpt><trkpt lat="44.603165" lon="9.3772517"><ele>988.75</ele><time>2026-03-28T16:36:29.015Z</time></trkpt><trkpt lat="44.6032917" lon="9.3771717"><ele>994.5</ele><time>2026-03-28T16:36:30.015Z</time></trkpt><trkpt lat="44.60342" lon="9.3770817"><ele>1000.25</ele><time>2026-03-28T16:36:31.015Z</time></trkpt><trkpt lat="44.6035283" lon="9.377"><ele>1006.0</ele><time>2026-03-28T16:36:32.015Z</time></trkpt><trkpt lat="44.6036283" lon="9.3769483"><ele>1005.5999999999999</ele><time>2026-03-28T16:36:33.015Z</time></trkpt><trkpt lat="44.603715" lon="9.3769267"><ele>1005.1999999999999</ele><time>2026-03-28T16:36:34.014Z</time></trkpt><trkpt lat="44.6038183" lon="9.37693"><ele>1004.8000000000001</ele><time>2026-03-28T16:36:35.015Z</time></trkpt><trkpt lat="44.603915" lon="9.3769917"><ele>1004.4000000000001</ele><time>2026-03-28T16:36:36.015Z</time></trkpt><trkpt lat="44.6040117" lon="9.3770483"><ele>1004.0</ele><time>2026-03-28T16:36:37.014Z</time></trkpt><trkpt lat="44.604115" lon="9.3771067"><ele>1004.0</ele><time>2026-03-28T16:36:38.015Z</time></trkpt><trkpt lat="44.6042167" lon="9.3771483"><ele>1004.0000000000001</ele><time>2026-03-28T16:36:39.014Z</time></trkpt><trkpt lat="44.60431" lon="9.377165"><ele>1004.0000000000001</ele><time>2026-03-28T16:36:40.015Z</time></trkpt><trkpt lat="44.604405" lon="9.3771583"><ele>1004.0</ele><time>2026-03-28T16:36:41.014Z</time></trkpt><trkpt lat="44.6044983" lon="9.3771233"><ele>1004.0</ele><time>2026-03-28T16:36:42.015Z</time></trkpt><trkpt lat="44.6046033" lon="9.377065"><ele>999.0</ele><time>2026-03-28T16:36:43.015Z</time></trkpt><trkpt lat="44.6047067" lon="9.3769933"><ele>994.0</ele><time>2026-03-28T16:36:44.015Z</time></trkpt><trkpt lat="44.6048117" lon="9.37691"><ele>989.0</ele><time>2026-03-28T16:36:45.015Z</time></trkpt><trkpt lat="44.6049183" lon="9.37681"><ele>984.0</ele><time>2026-03-28T16:36:46.015Z</time></trkpt><trkpt lat="44.6050217" lon="9.3767167"><ele>984.0</ele><time>2026-03-28T16:36:47.015Z</time></trkpt><trkpt lat="44.6051233" lon="9.37661"><ele>984.0</ele><time>2026-03-28T16:36:48.015Z</time></trkpt><trkpt lat="44.6052133" lon="9.3764883"><ele>984.0</ele><time>2026-03-28T16:36:49.015Z</time></trkpt><trkpt lat="44.60529" lon="9.3763567"><ele>984.0</ele><time>2026-03-28T16:36:50.015Z</time></trkpt><trkpt lat="44.605355" lon="9.3762283"><ele>988.4000000000001</ele><time>2026-03-28T16:36:51.015Z</time></trkpt><trkpt lat="44.6054083" lon="9.3761217"><ele>992.8000000000001</ele><time>2026-03-28T16:36:52.015Z</time></trkpt><trkpt lat="44.6054767" lon="9.37603"><ele>997.1999999999999</ele><time>2026-03-28T16:36:53.015Z</time></trkpt><trkpt lat="44.605565" lon="9.3759683"><ele>1001.5999999999999</ele><time>2026-03-28T16:36:54.015Z</time></trkpt><trkpt lat="44.60566" lon="9.3759383"><ele>1006.0</ele><time>2026-03-28T16:36:55.014Z</time></trkpt><trkpt lat="44.605745" lon="9.3759483"><ele>1006.0</ele><time>2026-03-28T16:36:56.014Z</time></trkpt><trkpt lat="44.6058033" lon="9.3760217"><ele>1005.9999999999999</ele><time>2026-03-28T16:36:57.014Z</time></trkpt><trkpt lat="44.6058417" lon="9.376135"><ele>1005.9999999999999</ele><time>2026-03-28T16:36:58.015Z</time></trkpt><trkpt lat="44.60585" lon="9.3763083"><ele>1006.0</ele><time>2026-03-28T16:36:59.015Z</time></trkpt><trkpt lat="44.60585" lon="9.37649"><ele>1006.0</ele><time>2026-03-28T16:37:00.015Z</time></trkpt><trkpt lat="44.6058167" lon="9.376705"><ele>1003.0</ele><time>2026-03-28T16:37:01.014Z</time></trkpt><trkpt lat="44.6058067" lon="9.3768867"><ele>999.9999999999999</ele><time>2026-03-28T16:37:02.015Z</time></trkpt><trkpt lat="44.605815" lon="9.3770617"><ele>996.9999999999999</ele><time>2026-03-28T16:37:03.015Z</time></trkpt><trkpt lat="44.6058333" lon="9.3772017"><ele>994.0</ele><time>2026-03-28T16:37:04.014Z</time></trkpt><trkpt lat="44.6058667" lon="9.3773183"><ele>991.0</ele><time>2026-03-28T16:37:05.015Z</time></trkpt><trkpt lat="44.6059117" lon="9.3774067"><ele>991.8</ele><time>2026-03-28T16:37:06.015Z</time></trkpt><trkpt lat="44.6059733" lon="9.3774867"><ele>992.5999999999999</ele><time>2026-03-28T16:37:07.015Z</time></trkpt><trkpt lat="44.6060517" lon="9.37754"><ele>993.4</ele><time>2026-03-28T16:37:08.014Z</time></trkpt><trkpt lat="44.6061483" lon="9.3775733"><ele>994.2</ele><time>2026-03-28T16:37:09.015Z</time></trkpt><trkpt lat="44.6062533" lon="9.3775833"><ele>995.0</ele><time>2026-03-28T16:37:10.015Z</time></trkpt><trkpt lat="44.60636" lon="9.377585"><ele>995.0</ele><time>2026-03-28T16:37:11.015Z</time></trkpt><trkpt lat="44.6064617" lon="9.37761"><ele>995.0</ele><time>2026-03-28T16:37:12.014Z</time></trkpt><trkpt lat="44.60656" lon="9.3776633"><ele>995.0</ele><time>2026-03-28T16:37:13.015Z</time></trkpt><trkpt lat="44.60664" lon="9.37774"><ele>995.0</ele><time>2026-03-28T16:37:14.015Z</time></trkpt><trkpt lat="44.6067133" lon="9.3777967"><ele>995.0</ele><time>2026-03-28T16:37:15.015Z</time></trkpt><trkpt lat="44.606795" lon="9.3778267"><ele>995.0</ele><time>2026-03-28T16:37:16.015Z</time></trkpt><trkpt lat="44.60689" lon="9.3778267"><ele>995.0</ele><time>2026-03-28T16:37:17.015Z</time></trkpt><trkpt lat="44.606995" lon="9.3778117"><ele>995.0</ele><time>2026-03-28T16:37:18.015Z</time></trkpt><trkpt lat="44.6070967" lon="9.3777983"><ele>995.0</ele><time>2026-03-28T16:37:19.016Z</time></trkpt><trkpt lat="44.6072017" lon="9.377795"><ele>995.0</ele><time>2026-03-28T16:37:20.016Z</time></trkpt><trkpt lat="44.6072967" lon="9.3778517"><ele>992.5</ele><time>2026-03-28T16:37:21.016Z</time></trkpt><trkpt lat="44.607385" lon="9.3779333"><ele>990.0</ele><time>2026-03-28T16:37:22.015Z</time></trkpt><trkpt lat="44.6074767" lon="9.3780383"><ele>987.5</ele><time>2026-03-28T16:37:23.016Z</time></trkpt><trkpt lat="44.607565" lon="9.3781483"><ele>985.0</ele><time>2026-03-28T16:37:24.016Z</time></trkpt><trkpt lat="44.6076533" lon="9.3782683"><ele>985.0</ele><time>2026-03-28T16:37:25.016Z</time></trkpt><trkpt lat="44.6077433" lon="9.37839"><ele>985.0</ele><time>2026-03-28T16:37:26.016Z</time></trkpt><trkpt lat="44.60783" lon="9.3785217"><ele>985.0</ele><time>2026-03-28T16:37:27.016Z</time></trkpt><trkpt lat="44.6079167" lon="9.3786683"><ele>985.0</ele><time>2026-03-28T16:37:28.016Z</time></trkpt><trkpt lat="44.6079967" lon="9.3788117"><ele>986.75</ele><time>2026-03-28T16:37:29.016Z</time></trkpt><trkpt lat="44.6080833" lon="9.37896"><ele>988.5</ele><time>2026-03-28T16:37:30.015Z</time></trkpt><trkpt lat="44.6081717" lon="9.37911"><ele>990.25</ele><time>2026-03-28T16:37:31.016Z</time></trkpt><trkpt lat="44.6082517" lon="9.3792567"><ele>992.0</ele><time>2026-03-28T16:37:32.015Z</time></trkpt><trkpt lat="44.6083267" lon="9.3794"><ele>992.0</ele><time>2026-03-28T16:37:33.015Z</time></trkpt><trkpt lat="44.6083817" lon="9.3795183"><ele>992.0</ele><time>2026-03-28T16:37:34.016Z</time></trkpt><trkpt lat="44.6084283" lon="9.37961"><ele>992.0</ele><time>2026-03-28T16:37:35.016Z</time></trkpt><trkpt lat="44.608525" lon="9.3796883"><ele>992.0</ele><time>2026-03-28T16:37:37.016Z</time></trkpt><trkpt lat="44.6086217" lon="9.3796383"><ele>992.0</ele><time>2026-03-28T16:37:39.016Z</time></trkpt><trkpt lat="44.6086683" lon="9.3795683"><ele>992.8</ele><time>2026-03-28T16:37:40.016Z</time></trkpt><trkpt lat="44.60871" lon="9.379475"><ele>993.6</ele><time>2026-03-28T16:37:41.016Z</time></trkpt><trkpt lat="44.6087467" lon="9.3793783"><ele>994.3999999999999</ele><time>2026-03-28T16:37:42.016Z</time></trkpt><trkpt lat="44.6088033" lon="9.37918"><ele>995.1999999999999</ele><time>2026-03-28T16:37:43.016Z</time></trkpt><trkpt lat="44.608855" lon="9.3790167"><ele>996.0</ele><time>2026-03-28T16:37:44.015Z</time></trkpt><trkpt lat="44.6089183" lon="9.3788417"><ele>996.0</ele><time>2026-03-28T16:37:45.016Z</time></trkpt><trkpt lat="44.60899" lon="9.3786567"><ele>996.0</ele><time>2026-03-28T16:37:46.016Z</time></trkpt><trkpt lat="44.6090533" lon="9.3784533"><ele>996.0</ele><time>2026-03-28T16:37:47.016Z</time></trkpt><trkpt lat="44.6091133" lon="9.3782883"><ele>996.0</ele><time>2026-03-28T16:37:48.016Z</time></trkpt><trkpt lat="44.6091433" lon="9.37811"><ele>997.25</ele><time>2026-03-28T16:37:49.016Z</time></trkpt><trkpt lat="44.6091733" lon="9.3779317"><ele>998.5</ele><time>2026-03-28T16:37:50.016Z</time></trkpt><trkpt lat="44.6091967" lon="9.3777533"><ele>999.75</ele><time>2026-03-28T16:37:51.016Z</time></trkpt><trkpt lat="44.6092117" lon="9.377555"><ele>1001.0</ele><time>2026-03-28T16:37:52.016Z</time></trkpt><trkpt lat="44.6092333" lon="9.3773583"><ele>1003.25</ele><time>2026-03-28T16:37:53.015Z</time></trkpt><trkpt lat="44.6092567" lon="9.3771467"><ele>1005.5</ele><time>2026-03-28T16:37:54.016Z</time></trkpt><trkpt lat="44.6092667" lon="9.3769433"><ele>1007.75</ele><time>2026-03-28T16:37:55.016Z</time></trkpt><trkpt lat="44.6092867" lon="9.3767417"><ele>1010.0</ele><time>2026-03-28T16:37:56.016Z</time></trkpt><trkpt lat="44.6093067" lon="9.3765617"><ele>1010.0</ele><time>2026-03-28T16:37:57.016Z</time></trkpt><trkpt lat="44.6093317" lon="9.3764083"><ele>1010.0</ele><time>2026-03-28T16:37:58.016Z</time></trkpt><trkpt lat="44.60937" lon="9.3762883"><ele>1010.0</ele><time>2026-03-28T16:37:59.015Z</time></trkpt><trkpt lat="44.609425" lon="9.37619"><ele>1010.0</ele><time>2026-03-28T16:38:00.016Z</time></trkpt><trkpt lat="44.6094883" lon="9.376115"><ele>1010.0</ele><time>2026-03-28T16:38:01.016Z</time></trkpt><trkpt lat="44.6095583" lon="9.3760617"><ele>1009.2</ele><time>2026-03-28T16:38:02.016Z</time></trkpt><trkpt lat="44.6096333" lon="9.376035"><ele>1008.4</ele><time>2026-03-28T16:38:03.016Z</time></trkpt><trkpt lat="44.60972" lon="9.376025"><ele>1007.5999999999999</ele><time>2026-03-28T16:38:04.016Z</time></trkpt><trkpt lat="44.60981" lon="9.37605"><ele>1006.8</ele><time>2026-03-28T16:38:05.016Z</time></trkpt><trkpt lat="44.6099" lon="9.37609"><ele>1006.0</ele><time>2026-03-28T16:38:06.015Z</time></trkpt><trkpt lat="44.6099967" lon="9.3761467"><ele>1006.0</ele><time>2026-03-28T16:38:07.016Z</time></trkpt><trkpt lat="44.6101117" lon="9.376205"><ele>1005.9999999999999</ele><time>2026-03-28T16:38:08.016Z</time></trkpt><trkpt lat="44.6102167" lon="9.3762567"><ele>1005.9999999999999</ele><time>2026-03-28T16:38:09.016Z</time></trkpt><trkpt lat="44.6103233" lon="9.3763117"><ele>1006.0</ele><time>2026-03-28T16:38:10.016Z</time></trkpt><trkpt lat="44.610415" lon="9.3763633"><ele>1006.0</ele><time>2026-03-28T16:38:11.016Z</time></trkpt><trkpt lat="44.610505" lon="9.376405"><ele>1003.1999999999999</ele><time>2026-03-28T16:38:12.015Z</time></trkpt><trkpt lat="44.6105933" lon="9.37645"><ele>1000.3999999999999</ele><time>2026-03-28T16:38:13.016Z</time></trkpt><trkpt lat="44.6106817" lon="9.3764817"><ele>997.6</ele><time>2026-03-28T16:38:14.016Z</time></trkpt><trkpt lat="44.6107783" lon="9.3764933"><ele>994.8</ele><time>2026-03-28T16:38:15.016Z</time></trkpt><trkpt lat="44.6108733" lon="9.37648"><ele>992.0</ele><time>2026-03-28T16:38:16.016Z</time></trkpt><trkpt lat="44.6109533" lon="9.3764567"><ele>992.0000000000001</ele><time>2026-03-28T16:38:17.016Z</time></trkpt><trkpt lat="44.6110733" lon="9.3763717"><ele>992.0</ele><time>2026-03-28T16:38:19.016Z</time></trkpt><trkpt lat="44.6111283" lon="9.3763267"><ele>992.0</ele><time>2026-03-28T16:38:20.016Z</time></trkpt><trkpt lat="44.6111867" lon="9.3762733"><ele>992.0</ele><time>2026-03-28T16:38:21.016Z</time></trkpt><trkpt lat="44.6112567" lon="9.37621"><ele>992.0000000000001</ele><time>2026-03-28T16:38:22.016Z</time></trkpt><trkpt lat="44.61132" lon="9.3761567"><ele>992.0</ele><time>2026-03-28T16:38:23.016Z</time></trkpt><trkpt lat="44.611375" lon="9.3761083"><ele>995.6666666666667</ele><time>2026-03-28T16:38:24.015Z</time></trkpt><trkpt lat="44.6114717" lon="9.3760317"><ele>999.3333333333334</ele><time>2026-03-28T16:38:26.016Z</time></trkpt><trkpt lat="44.6115317" lon="9.3760033"><ele>1003.0</ele><time>2026-03-28T16:38:27.016Z</time></trkpt><trkpt lat="44.6116033" lon="9.3759817"><ele>1006.6666666666667</ele><time>2026-03-28T16:38:28.016Z</time></trkpt><trkpt lat="44.6116833" lon="9.3759667"><ele>1010.3333333333334</ele><time>2026-03-28T16:38:29.015Z</time></trkpt><trkpt lat="44.6117717" lon="9.375965"><ele>1014.0</ele><time>2026-03-28T16:38:30.016Z</time></trkpt><trkpt lat="44.6118667" lon="9.3759467"><ele>1014.0</ele><time>2026-03-28T16:38:31.016Z</time></trkpt><trkpt lat="44.61197" lon="9.375915"><ele>1014.0000000000001</ele><time>2026-03-28T16:38:32.016Z</time></trkpt><trkpt lat="44.6120733" lon="9.3758917"><ele>1014.0000000000001</ele><time>2026-03-28T16:38:33.016Z</time></trkpt><trkpt lat="44.612165" lon="9.3758717"><ele>1014.0</ele><time>2026-03-28T16:38:34.016Z</time></trkpt><trkpt lat="44.612245" lon="9.3758717"><ele>1014.0</ele><time>2026-03-28T16:38:35.016Z</time></trkpt><trkpt lat="44.6123217" lon="9.3759067"><ele>1015.0</ele><time>2026-03-28T16:38:36.016Z</time></trkpt><trkpt lat="44.6123883" lon="9.3759733"><ele>1016.0</ele><time>2026-03-28T16:38:37.016Z</time></trkpt><trkpt lat="44.6124367" lon="9.376065"><ele>1017.0</ele><time>2026-03-28T16:38:38.016Z</time></trkpt><trkpt lat="44.6124967" lon="9.3761533"><ele>1018.0</ele><time>2026-03-28T16:38:39.016Z</time></trkpt><trkpt lat="44.612565" lon="9.3762183"><ele>1019.0</ele><time>2026-03-28T16:38:40.016Z</time></trkpt><trkpt lat="44.6126483" lon="9.37627"><ele>1020.0</ele><time>2026-03-28T16:38:41.016Z</time></trkpt><trkpt lat="44.6127383" lon="9.3763067"><ele>1020.0</ele><time>2026-03-28T16:38:42.016Z</time></trkpt><trkpt lat="44.6128183" lon="9.3763467"><ele>1020.0</ele><time>2026-03-28T16:38:43.016Z</time></trkpt><trkpt lat="44.6129" lon="9.3763917"><ele>1020.0</ele><time>2026-03-28T16:38:44.015Z</time></trkpt><trkpt lat="44.612975" lon="9.37645"><ele>1020.0</ele><time>2026-03-28T16:38:45.016Z</time></trkpt><trkpt lat="44.6130283" lon="9.3765417"><ele>1020.0</ele><time>2026-03-28T16:38:46.016Z</time></trkpt><trkpt lat="44.6130617" lon="9.376665"><ele>1020.0</ele><time>2026-03-28T16:38:47.016Z</time></trkpt><trkpt lat="44.6131033" lon="9.3767683"><ele>1023.0</ele><time>2026-03-28T16:38:48.016Z</time></trkpt><trkpt lat="44.6130967" lon="9.37691"><ele>1026.0</ele><time>2026-03-28T16:38:49.016Z</time></trkpt><trkpt lat="44.6130767" lon="9.3770667"><ele>1029.0</ele><time>2026-03-28T16:38:50.016Z</time></trkpt><trkpt lat="44.6130667" lon="9.37724"><ele>1032.0</ele><time>2026-03-28T16:38:51.016Z</time></trkpt><trkpt lat="44.613065" lon="9.3773917"><ele>1035.0</ele><time>2026-03-28T16:38:52.016Z</time></trkpt><trkpt lat="44.6130783" lon="9.377535"><ele>1035.0</ele><time>2026-03-28T16:38:53.016Z</time></trkpt><trkpt lat="44.613105" lon="9.3776767"><ele>1035.0</ele><time>2026-03-28T16:38:54.015Z</time></trkpt><trkpt lat="44.6131533" lon="9.3778133"><ele>1035.0</ele><time>2026-03-28T16:38:55.016Z</time></trkpt><trkpt lat="44.61321" lon="9.3779617"><ele>1035.0</ele><time>2026-03-28T16:38:56.016Z</time></trkpt><trkpt lat="44.6132533" lon="9.378125"><ele>1033.8</ele><time>2026-03-28T16:38:57.015Z</time></trkpt><trkpt lat="44.6132817" lon="9.3783"><ele>1032.6</ele><time>2026-03-28T16:38:58.016Z</time></trkpt><trkpt lat="44.6133067" lon="9.3784483"><ele>1031.4</ele><time>2026-03-28T16:38:59.016Z</time></trkpt><trkpt lat="44.6133183" lon="9.378595"><ele>1030.2</ele><time>2026-03-28T16:39:00.016Z</time></trkpt><trkpt lat="44.61334" lon="9.3787233"><ele>1029.0</ele><time>2026-03-28T16:39:01.016Z</time></trkpt><trkpt lat="44.613385" lon="9.3788317"><ele>1028.2</ele><time>2026-03-28T16:39:02.016Z</time></trkpt><trkpt lat="44.613445" lon="9.3789167"><ele>1027.4</ele><time>2026-03-28T16:39:03.016Z</time></trkpt><trkpt lat="44.6135167" lon="9.3789933"><ele>1026.6</ele><time>2026-03-28T16:39:04.016Z</time></trkpt><trkpt lat="44.61361" lon="9.3790617"><ele>1025.8</ele><time>2026-03-28T16:39:05.016Z</time></trkpt><trkpt lat="44.6137133" lon="9.3791167"><ele>1025.0</ele><time>2026-03-28T16:39:06.016Z</time></trkpt><trkpt lat="44.6138267" lon="9.379155"><ele>1025.0</ele><time>2026-03-28T16:39:07.016Z</time></trkpt><trkpt lat="44.6139283" lon="9.3791567"><ele>1025.0</ele><time>2026-03-28T16:39:08.016Z</time></trkpt><trkpt lat="44.6140367" lon="9.3791167"><ele>1025.0</ele><time>2026-03-28T16:39:09.016Z</time></trkpt><trkpt lat="44.614125" lon="9.3790517"><ele>1025.0</ele><time>2026-03-28T16:39:10.016Z</time></trkpt><trkpt lat="44.6142217" lon="9.37897"><ele>1025.0</ele><time>2026-03-28T16:39:11.015Z</time></trkpt><trkpt lat="44.6143317" lon="9.378915"><ele>1025.0</ele><time>2026-03-28T16:39:12.016Z</time></trkpt><trkpt lat="44.61446" lon="9.3788983"><ele>1025.0</ele><time>2026-03-28T16:39:13.016Z</time></trkpt><trkpt lat="44.61458" lon="9.378885"><ele>1025.0</ele><time>2026-03-28T16:39:14.016Z</time></trkpt><trkpt lat="44.6147033" lon="9.3788517"><ele>1025.0</ele><time>2026-03-28T16:39:15.016Z</time></trkpt><trkpt lat="44.61481" lon="9.3788133"><ele>1031.2</ele><time>2026-03-28T16:39:16.016Z</time></trkpt><trkpt lat="44.6149117" lon="9.3787483"><ele>1037.4</ele><time>2026-03-28T16:39:17.015Z</time></trkpt><trkpt lat="44.6149933" lon="9.3786783"><ele>1043.6</ele><time>2026-03-28T16:39:18.016Z</time></trkpt><trkpt lat="44.6150667" lon="9.3786283"><ele>1049.8</ele><time>2026-03-28T16:39:19.016Z</time></trkpt><trkpt lat="44.615145" lon="9.378605"><ele>1056.0</ele><time>2026-03-28T16:39:20.016Z</time></trkpt><trkpt lat="44.6152267" lon="9.3786383"><ele>1056.0</ele><time>2026-03-28T16:39:21.015Z</time></trkpt><trkpt lat="44.6153117" lon="9.3786883"><ele>1056.0</ele><time>2026-03-28T16:39:22.016Z</time></trkpt><trkpt lat="44.615385" lon="9.3787767"><ele>1056.0</ele><time>2026-03-28T16:39:23.015Z</time></trkpt><trkpt lat="44.6154217" lon="9.3789033"><ele>1056.0</ele><time>2026-03-28T16:39:24.016Z</time></trkpt><trkpt lat="44.615435" lon="9.3790667"><ele>1056.0</ele><time>2026-03-28T16:39:25.015Z</time></trkpt><trkpt lat="44.6154283" lon="9.3792633"><ele>1056.6</ele><time>2026-03-28T16:39:26.016Z</time></trkpt><trkpt lat="44.615415" lon="9.3794567"><ele>1057.1999999999998</ele><time>2026-03-28T16:39:27.015Z</time></trkpt><trkpt lat="44.6154217" lon="9.3796117"><ele>1057.8000000000002</ele><time>2026-03-28T16:39:28.016Z</time></trkpt><trkpt lat="44.6154583" lon="9.3797233"><ele>1058.4</ele><time>2026-03-28T16:39:29.016Z</time></trkpt><trkpt lat="44.6155017" lon="9.3798033"><ele>1059.0</ele><time>2026-03-28T16:39:30.016Z</time></trkpt><trkpt lat="44.6155567" lon="9.3798767"><ele>1055.2</ele><time>2026-03-28T16:39:31.016Z</time></trkpt><trkpt lat="44.615625" lon="9.3799233"><ele>1051.4</ele><time>2026-03-28T16:39:32.015Z</time></trkpt><trkpt lat="44.6157217" lon="9.37993"><ele>1047.6</ele><time>2026-03-28T16:39:33.016Z</time></trkpt><trkpt lat="44.61582" lon="9.379965"><ele>1043.8</ele><time>2026-03-28T16:39:34.016Z</time></trkpt><trkpt lat="44.6159217" lon="9.3800117"><ele>1040.0</ele><time>2026-03-28T16:39:35.016Z</time></trkpt><trkpt lat="44.61602" lon="9.3800683"><ele>1040.0</ele><time>2026-03-28T16:39:36.016Z</time></trkpt><trkpt lat="44.6161267" lon="9.3801233"><ele>1040.0</ele><time>2026-03-28T16:39:37.015Z</time></trkpt><trkpt lat="44.61623" lon="9.3801917"><ele>1040.0</ele><time>2026-03-28T16:39:38.016Z</time></trkpt><trkpt lat="44.616335" lon="9.3802733"><ele>1040.0</ele><time>2026-03-28T16:39:39.016Z</time></trkpt><trkpt lat="44.616415" lon="9.3803883"><ele>1044.0</ele><time>2026-03-28T16:39:40.016Z</time></trkpt><trkpt lat="44.6165" lon="9.380505"><ele>1048.0</ele><time>2026-03-28T16:39:41.016Z</time></trkpt><trkpt lat="44.6165783" lon="9.38063"><ele>1052.0</ele><time>2026-03-28T16:39:42.016Z</time></trkpt><trkpt lat="44.6166367" lon="9.3807617"><ele>1056.0</ele><time>2026-03-28T16:39:43.016Z</time></trkpt><trkpt lat="44.6166833" lon="9.3808917"><ele>1056.0</ele><time>2026-03-28T16:39:44.015Z</time></trkpt><trkpt lat="44.61673" lon="9.3810117"><ele>1056.0</ele><time>2026-03-28T16:39:45.016Z</time></trkpt><trkpt lat="44.6167967" lon="9.3811017"><ele>1056.0</ele><time>2026-03-28T16:39:46.016Z</time></trkpt><trkpt lat="44.6168817" lon="9.381185"><ele>1056.0</ele><time>2026-03-28T16:39:47.016Z</time></trkpt><trkpt lat="44.6169767" lon="9.3812583"><ele>1056.0</ele><time>2026-03-28T16:39:48.015Z</time></trkpt><trkpt lat="44.6170733" lon="9.3813467"><ele>1061.25</ele><time>2026-03-28T16:39:49.015Z</time></trkpt><trkpt lat="44.61716" lon="9.3814483"><ele>1066.5</ele><time>2026-03-28T16:39:50.016Z</time></trkpt><trkpt lat="44.6172467" lon="9.38157"><ele>1071.75</ele><time>2026-03-28T16:39:51.016Z</time></trkpt><trkpt lat="44.6173283" lon="9.3816983"><ele>1077.0</ele><time>2026-03-28T16:39:52.016Z</time></trkpt><trkpt lat="44.6173967" lon="9.381835"><ele>1077.0</ele><time>2026-03-28T16:39:53.016Z</time></trkpt><trkpt lat="44.6174467" lon="9.381985"><ele>1077.0</ele><time>2026-03-28T16:39:54.016Z</time></trkpt><trkpt lat="44.61751" lon="9.38211"><ele>1077.0</ele><time>2026-03-28T16:39:55.015Z</time></trkpt><trkpt lat="44.6175767" lon="9.382255"><ele>1077.0</ele><time>2026-03-28T16:39:56.016Z</time></trkpt><trkpt lat="44.6176433" lon="9.3823983"><ele>1075.4</ele><time>2026-03-28T16:39:57.016Z</time></trkpt><trkpt lat="44.6177067" lon="9.3825367"><ele>1073.8000000000002</ele><time>2026-03-28T16:39:58.016Z</time></trkpt><trkpt lat="44.6177417" lon="9.3826733"><ele>1072.2</ele><time>2026-03-28T16:39:59.016Z</time></trkpt><trkpt lat="44.6177583" lon="9.3827883"><ele>1070.6000000000001</ele><time>2026-03-28T16:40:00.016Z</time></trkpt><trkpt lat="44.6177567" lon="9.3829"><ele>1069.0</ele><time>2026-03-28T16:40:01.016Z</time></trkpt><trkpt lat="44.617725" lon="9.3829983"><ele>1072.4</ele><time>2026-03-28T16:40:02.016Z</time></trkpt><trkpt lat="44.6176733" lon="9.38309"><ele>1075.8000000000002</ele><time>2026-03-28T16:40:03.016Z</time></trkpt><trkpt lat="44.6175833" lon="9.383165"><ele>1079.1999999999998</ele><time>2026-03-28T16:40:04.016Z</time></trkpt><trkpt lat="44.617455" lon="9.383235"><ele>1082.6</ele><time>2026-03-28T16:40:05.015Z</time></trkpt><trkpt lat="44.6173383" lon="9.38328"><ele>1086.0</ele><time>2026-03-28T16:40:06.016Z</time></trkpt><trkpt lat="44.6172117" lon="9.38332"><ele>1086.0</ele><time>2026-03-28T16:40:07.016Z</time></trkpt><trkpt lat="44.6171117" lon="9.3833533"><ele>1086.0</ele><time>2026-03-28T16:40:08.016Z</time></trkpt><trkpt lat="44.6170567" lon="9.38342"><ele>1086.0</ele><time>2026-03-28T16:40:09.016Z</time></trkpt><trkpt lat="44.6170117" lon="9.3835083"><ele>1086.0</ele><time>2026-03-28T16:40:10.015Z</time></trkpt><trkpt lat="44.61702" lon="9.3836367"><ele>1086.0</ele><time>2026-03-28T16:40:12.016Z</time></trkpt><trkpt lat="44.6171483" lon="9.3836583"><ele>1086.0</ele><time>2026-03-28T16:40:14.015Z</time></trkpt><trkpt lat="44.61722" lon="9.3836233"><ele>1086.0</ele><time>2026-03-28T16:40:15.016Z</time></trkpt><trkpt lat="44.6173217" lon="9.3835417"><ele>1086.0</ele><time>2026-03-28T16:40:16.016Z</time></trkpt><trkpt lat="44.61743" lon="9.3834533"><ele>1086.0</ele><time>2026-03-28T16:40:17.015Z</time></trkpt><trkpt lat="44.6175483" lon="9.38337"><ele>1086.0</ele><time>2026-03-28T16:40:18.016Z</time></trkpt><trkpt lat="44.617675" lon="9.3833267"><ele>1086.0</ele><time>2026-03-28T16:40:19.016Z</time></trkpt><trkpt lat="44.6178083" lon="9.3833133"><ele>1086.0</ele><time>2026-03-28T16:40:20.015Z</time></trkpt><trkpt lat="44.6179317" lon="9.3832917"><ele>1086.0</ele><time>2026-03-28T16:40:21.016Z</time></trkpt><trkpt lat="44.61804" lon="9.383255"><ele>1086.8</ele><time>2026-03-28T16:40:22.016Z</time></trkpt><trkpt lat="44.618125" lon="9.3831883"><ele>1087.6</ele><time>2026-03-28T16:40:23.016Z</time></trkpt><trkpt lat="44.6182033" lon="9.383095"><ele>1088.4</ele><time>2026-03-28T16:40:24.016Z</time></trkpt><trkpt lat="44.61825" lon="9.3829767"><ele>1089.2</ele><time>2026-03-28T16:40:25.016Z</time></trkpt><trkpt lat="44.6182767" lon="9.3828367"><ele>1090.0</ele><time>2026-03-28T16:40:26.016Z</time></trkpt><trkpt lat="44.6182883" lon="9.382695"><ele>1089.0</ele><time>2026-03-28T16:40:27.015Z</time></trkpt><trkpt lat="44.6183" lon="9.38253"><ele>1088.0</ele><time>2026-03-28T16:40:28.015Z</time></trkpt><trkpt lat="44.618305" lon="9.3823567"><ele>1087.0</ele><time>2026-03-28T16:40:29.016Z</time></trkpt><trkpt lat="44.6183167" lon="9.382185"><ele>1086.0</ele><time>2026-03-28T16:40:30.016Z</time></trkpt><trkpt lat="44.6183217" lon="9.38202"><ele>1086.0</ele><time>2026-03-28T16:40:31.016Z</time></trkpt><trkpt lat="44.6183383" lon="9.3818567"><ele>1086.0</ele><time>2026-03-28T16:40:32.016Z</time></trkpt><trkpt lat="44.6183767" lon="9.3817133"><ele>1086.0</ele><time>2026-03-28T16:40:33.016Z</time></trkpt><trkpt lat="44.618435" lon="9.38159"><ele>1086.0</ele><time>2026-03-28T16:40:34.016Z</time></trkpt><trkpt lat="44.6185117" lon="9.3814817"><ele>1086.0</ele><time>2026-03-28T16:40:35.016Z</time></trkpt><trkpt lat="44.6186133" lon="9.3813733"><ele>1086.0</ele><time>2026-03-28T16:40:36.016Z</time></trkpt><trkpt lat="44.61874" lon="9.3812083"><ele>1086.0</ele><time>2026-03-28T16:40:37.016Z</time></trkpt><trkpt lat="44.61884" lon="9.3811033"><ele>1086.0</ele><time>2026-03-28T16:40:38.016Z</time></trkpt><trkpt lat="44.618945" lon="9.3810017"><ele>1086.0</ele><time>2026-03-28T16:40:39.016Z</time></trkpt><trkpt lat="44.6190467" lon="9.3809017"><ele>1086.0</ele><time>2026-03-28T16:40:40.015Z</time></trkpt><trkpt lat="44.6191367" lon="9.3807967"><ele>1086.0</ele><time>2026-03-28T16:40:41.016Z</time></trkpt><trkpt lat="44.6192283" lon="9.3807017"><ele>1086.0</ele><time>2026-03-28T16:40:42.016Z</time></trkpt><trkpt lat="44.6193017" lon="9.3805667"><ele>1086.0</ele><time>2026-03-28T16:40:43.015Z</time></trkpt><trkpt lat="44.6193633" lon="9.3804317"><ele>1087.5</ele><time>2026-03-28T16:40:44.016Z</time></trkpt><trkpt lat="44.6194217" lon="9.3802833"><ele>1089.0</ele><time>2026-03-28T16:40:45.016Z</time></trkpt><trkpt lat="44.6194733" lon="9.3801333"><ele>1090.5</ele><time>2026-03-28T16:40:46.016Z</time></trkpt><trkpt lat="44.6195117" lon="9.3799883"><ele>1092.0</ele><time>2026-03-28T16:40:47.016Z</time></trkpt><trkpt lat="44.6195283" lon="9.3798383"><ele>1091.4</ele><time>2026-03-28T16:40:48.016Z</time></trkpt><trkpt lat="44.6195217" lon="9.379705"><ele>1090.8000000000002</ele><time>2026-03-28T16:40:49.016Z</time></trkpt><trkpt lat="44.6194883" lon="9.3795783"><ele>1090.2</ele><time>2026-03-28T16:40:50.016Z</time></trkpt><trkpt lat="44.6194333" lon="9.3794617"><ele>1089.6000000000001</ele><time>2026-03-28T16:40:51.016Z</time></trkpt><trkpt lat="44.619355" lon="9.379345"><ele>1089.0</ele><time>2026-03-28T16:40:52.016Z</time></trkpt><trkpt lat="44.6192817" lon="9.3792333"><ele>1089.0</ele><time>2026-03-28T16:40:53.016Z</time></trkpt><trkpt lat="44.6192083" lon="9.3791233"><ele>1089.0</ele><time>2026-03-28T16:40:54.016Z</time></trkpt><trkpt lat="44.6191617" lon="9.3790067"><ele>1089.0</ele><time>2026-03-28T16:40:55.016Z</time></trkpt><trkpt lat="44.6191583" lon="9.3788967"><ele>1089.0</ele><time>2026-03-28T16:40:56.016Z</time></trkpt><trkpt lat="44.6191783" lon="9.378775"><ele>1089.0</ele><time>2026-03-28T16:40:57.016Z</time></trkpt><trkpt lat="44.61922" lon="9.3786567"><ele>1090.75</ele><time>2026-03-28T16:40:58.016Z</time></trkpt><trkpt lat="44.6192917" lon="9.378545"><ele>1092.5</ele><time>2026-03-28T16:40:59.015Z</time></trkpt><trkpt lat="44.619375" lon="9.378435"><ele>1094.25</ele><time>2026-03-28T16:41:00.016Z</time></trkpt><trkpt lat="44.6194733" lon="9.3783317"><ele>1096.0</ele><time>2026-03-28T16:41:01.016Z</time></trkpt><trkpt lat="44.61958" lon="9.3782233"><ele>1094.25</ele><time>2026-03-28T16:41:02.015Z</time></trkpt><trkpt lat="44.619695" lon="9.3781183"><ele>1092.5</ele><time>2026-03-28T16:41:03.016Z</time></trkpt><trkpt lat="44.6198067" lon="9.37801"><ele>1090.75</ele><time>2026-03-28T16:41:04.016Z</time></trkpt><trkpt lat="44.6199183" lon="9.377895"><ele>1089.0</ele><time>2026-03-28T16:41:05.016Z</time></trkpt><trkpt lat="44.6200417" lon="9.3777783"><ele>1089.0</ele><time>2026-03-28T16:41:06.016Z</time></trkpt><trkpt lat="44.6201633" lon="9.3776733"><ele>1089.0</ele><time>2026-03-28T16:41:07.016Z</time></trkpt><trkpt lat="44.6202767" lon="9.37758"><ele>1089.0</ele><time>2026-03-28T16:41:08.015Z</time></trkpt><trkpt lat="44.62039" lon="9.377485"><ele>1089.0</ele><time>2026-03-28T16:41:09.016Z</time></trkpt><trkpt lat="44.6204783" lon="9.3773783"><ele>1085.5</ele><time>2026-03-28T16:41:10.016Z</time></trkpt><trkpt lat="44.62055" lon="9.3772517"><ele>1082.0</ele><time>2026-03-28T16:41:11.016Z</time></trkpt><trkpt lat="44.6206017" lon="9.3771033"><ele>1078.5</ele><time>2026-03-28T16:41:12.016Z</time></trkpt><trkpt lat="44.6206317" lon="9.3769467"><ele>1075.0</ele><time>2026-03-28T16:41:13.016Z</time></trkpt><trkpt lat="44.620635" lon="9.3767917"><ele>1075.0</ele><time>2026-03-28T16:41:14.015Z</time></trkpt><trkpt lat="44.62062" lon="9.3766433"><ele>1075.0</ele><time>2026-03-28T16:41:15.016Z</time></trkpt><trkpt lat="44.62058" lon="9.3765167"><ele>1075.0</ele><time>2026-03-28T16:41:16.016Z</time></trkpt><trkpt lat="44.6205083" lon="9.37639"><ele>1075.0</ele><time>2026-03-28T16:41:17.016Z</time></trkpt><trkpt lat="44.6204283" lon="9.3762617"><ele>1075.0</ele><time>2026-03-28T16:41:18.016Z</time></trkpt><trkpt lat="44.6203317" lon="9.3761233"><ele>1079.0</ele><time>2026-03-28T16:41:19.016Z</time></trkpt><trkpt lat="44.620235" lon="9.3759533"><ele>1083.0</ele><time>2026-03-28T16:41:20.016Z</time></trkpt><trkpt lat="44.620155" lon="9.37581"><ele>1087.0</ele><time>2026-03-28T16:41:21.015Z</time></trkpt><trkpt lat="44.620085" lon="9.37567"><ele>1091.0</ele><time>2026-03-28T16:41:22.016Z</time></trkpt><trkpt lat="44.620055" lon="9.3755167"><ele>1091.2</ele><time>2026-03-28T16:41:23.016Z</time></trkpt><trkpt lat="44.620055" lon="9.3753667"><ele>1091.3999999999999</ele><time>2026-03-28T16:41:24.015Z</time></trkpt><trkpt lat="44.62009" lon="9.375255"><ele>1091.6</ele><time>2026-03-28T16:41:25.016Z</time></trkpt><trkpt lat="44.6201383" lon="9.3751583"><ele>1091.8</ele><time>2026-03-28T16:41:26.016Z</time></trkpt><trkpt lat="44.62021" lon="9.3750933"><ele>1092.0</ele><time>2026-03-28T16:41:27.016Z</time></trkpt><trkpt lat="44.6202983" lon="9.3750467"><ele>1090.5</ele><time>2026-03-28T16:41:28.015Z</time></trkpt><trkpt lat="44.6203733" lon="9.3749867"><ele>1089.0</ele><time>2026-03-28T16:41:29.016Z</time></trkpt><trkpt lat="44.6204317" lon="9.37491"><ele>1087.5</ele><time>2026-03-28T16:41:30.016Z</time></trkpt><trkpt lat="44.620465" lon="9.37483"><ele>1086.0</ele><time>2026-03-28T16:41:31.016Z</time></trkpt><trkpt lat="44.6204767" lon="9.3747283"><ele>1084.5</ele><time>2026-03-28T16:41:32.015Z</time></trkpt><trkpt lat="44.6204683" lon="9.374605"><ele>1083.0</ele><time>2026-03-28T16:41:33.016Z</time></trkpt><trkpt lat="44.6204833" lon="9.374485"><ele>1083.0</ele><time>2026-03-28T16:41:34.016Z</time></trkpt><trkpt lat="44.6205217" lon="9.3743717"><ele>1083.0</ele><time>2026-03-28T16:41:35.016Z</time></trkpt><trkpt lat="44.6205667" lon="9.3742867"><ele>1083.0</ele><time>2026-03-28T16:41:36.015Z</time></trkpt><trkpt lat="44.6206467" lon="9.3742133"><ele>1083.0</ele><time>2026-03-28T16:41:37.016Z</time></trkpt><trkpt lat="44.6207517" lon="9.3741683"><ele>1083.0</ele><time>2026-03-28T16:41:38.016Z</time></trkpt><trkpt lat="44.6208733" lon="9.37411"><ele>1083.0</ele><time>2026-03-28T16:41:39.016Z</time></trkpt><trkpt lat="44.6209917" lon="9.3740467"><ele>1083.0</ele><time>2026-03-28T16:41:40.016Z</time></trkpt><trkpt lat="44.6211183" lon="9.3739833"><ele>1083.0</ele><time>2026-03-28T16:41:41.016Z</time></trkpt><trkpt lat="44.621245" lon="9.373915"><ele>1083.0</ele><time>2026-03-28T16:41:42.016Z</time></trkpt><trkpt lat="44.6213717" lon="9.373865"><ele>1083.25</ele><time>2026-03-28T16:41:43.016Z</time></trkpt><trkpt lat="44.6214883" lon="9.3738017"><ele>1083.5</ele><time>2026-03-28T16:41:44.016Z</time></trkpt><trkpt lat="44.6215933" lon="9.3737267"><ele>1083.75</ele><time>2026-03-28T16:41:45.016Z</time></trkpt><trkpt lat="44.6216767" lon="9.373635"><ele>1084.0</ele><time>2026-03-28T16:41:46.016Z</time></trkpt><trkpt lat="44.6217517" lon="9.373525"><ele>1084.0</ele><time>2026-03-28T16:41:47.016Z</time></trkpt><trkpt lat="44.6218267" lon="9.3734183"><ele>1084.0</ele><time>2026-03-28T16:41:48.016Z</time></trkpt><trkpt lat="44.621885" lon="9.37333"><ele>1084.0</ele><time>2026-03-28T16:41:49.016Z</time></trkpt><trkpt lat="44.621925" lon="9.373255"><ele>1084.0</ele><time>2026-03-28T16:41:50.016Z</time></trkpt><trkpt lat="44.62197" lon="9.37311"><ele>1084.0</ele><time>2026-03-28T16:41:52.016Z</time></trkpt><trkpt lat="44.621975" lon="9.3730067"><ele>1084.0</ele><time>2026-03-28T16:41:53.016Z</time></trkpt><trkpt lat="44.621965" lon="9.3728783"><ele>1084.3333333333333</ele><time>2026-03-28T16:41:55.016Z</time></trkpt><trkpt lat="44.6219217" lon="9.3727567"><ele>1084.6666666666665</ele><time>2026-03-28T16:42:58.016Z</time></trkpt><trkpt lat="44.6218417" lon="9.3726617"><ele>1085.0</ele><time>2026-03-28T16:43:00.016Z</time></trkpt><trkpt lat="44.6217883" lon="9.3725967"><ele>1085.3333333333333</ele><time>2026-03-28T16:43:01.016Z</time></trkpt><trkpt lat="44.6217367" lon="9.37252"><ele>1085.6666666666667</ele><time>2026-03-28T16:43:02.016Z</time></trkpt><trkpt lat="44.621665" lon="9.3724383"><ele>1086.0</ele><time>2026-03-28T16:43:03.016Z</time></trkpt><trkpt lat="44.6215817" lon="9.3723467"><ele>1086.0</ele><time>2026-03-28T16:43:04.016Z</time></trkpt><trkpt lat="44.6214933" lon="9.3722433"><ele>1086.0</ele><time>2026-03-28T16:43:05.015Z</time></trkpt><trkpt lat="44.6214217" lon="9.37214"><ele>1086.0</ele><time>2026-03-28T16:43:06.016Z</time></trkpt><trkpt lat="44.62135" lon="9.372045"><ele>1086.0</ele><time>2026-03-28T16:43:07.015Z</time></trkpt><trkpt lat="44.6212833" lon="9.3719733"><ele>1086.0</ele><time>2026-03-28T16:43:08.016Z</time></trkpt><trkpt lat="44.6212217" lon="9.3719117"><ele>1084.8333333333333</ele><time>2026-03-28T16:43:09.016Z</time></trkpt><trkpt lat="44.6211567" lon="9.3718583"><ele>1083.6666666666667</ele><time>2026-03-28T16:43:10.016Z</time></trkpt><trkpt lat="44.6210717" lon="9.3718283"><ele>1082.5</ele><time>2026-03-28T16:43:11.016Z</time></trkpt><trkpt lat="44.621005" lon="9.3718083"><ele>1081.3333333333335</ele><time>2026-03-28T16:43:12.016Z</time></trkpt><trkpt lat="44.6209367" lon="9.3718283"><ele>1080.1666666666667</ele><time>2026-03-28T16:43:13.016Z</time></trkpt><trkpt lat="44.6208583" lon="9.3718317"><ele>1079.0</ele><time>2026-03-28T16:43:14.016Z</time></trkpt><trkpt lat="44.62078" lon="9.3718667"><ele>1079.0</ele><time>2026-03-28T16:43:15.016Z</time></trkpt><trkpt lat="44.6207033" lon="9.3718717"><ele>1079.0</ele><time>2026-03-28T16:43:16.015Z</time></trkpt><trkpt lat="44.6206133" lon="9.371815"><ele>1079.0</ele><time>2026-03-28T16:43:17.016Z</time></trkpt><trkpt lat="44.6205333" lon="9.3717567"><ele>1079.0</ele><time>2026-03-28T16:43:18.016Z</time></trkpt><trkpt lat="44.620435" lon="9.3716667"><ele>1079.0</ele><time>2026-03-28T16:43:19.016Z</time></trkpt><trkpt lat="44.62036" lon="9.3715917"><ele>1081.25</ele><time>2026-03-28T16:43:20.016Z</time></trkpt><trkpt lat="44.620285" lon="9.3715167"><ele>1083.5</ele><time>2026-03-28T16:43:21.015Z</time></trkpt><trkpt lat="44.62022" lon="9.3713933"><ele>1085.75</ele><time>2026-03-28T16:43:22.016Z</time></trkpt><trkpt lat="44.6201667" lon="9.3712433"><ele>1088.0</ele><time>2026-03-28T16:43:23.016Z</time></trkpt><trkpt lat="44.6201383" lon="9.37105"><ele>1088.0</ele><time>2026-03-28T16:43:24.016Z</time></trkpt><trkpt lat="44.620125" lon="9.3708317"><ele>1088.0</ele><time>2026-03-28T16:43:25.016Z</time></trkpt><trkpt lat="44.6201033" lon="9.37062"><ele>1088.0</ele><time>2026-03-28T16:43:26.016Z</time></trkpt><trkpt lat="44.620085" lon="9.370425"><ele>1088.0</ele><time>2026-03-28T16:43:27.017Z</time></trkpt><trkpt lat="44.620065" lon="9.3702317"><ele>1086.8</ele><time>2026-03-28T16:43:28.017Z</time></trkpt><trkpt lat="44.6200567" lon="9.3700717"><ele>1085.6</ele><time>2026-03-28T16:43:29.016Z</time></trkpt><trkpt lat="44.620035" lon="9.3699233"><ele>1084.4</ele><time>2026-03-28T16:43:30.017Z</time></trkpt><trkpt lat="44.6200067" lon="9.369795"><ele>1083.2</ele><time>2026-03-28T16:43:31.017Z</time></trkpt><trkpt lat="44.619965" lon="9.3696683"><ele>1082.0</ele><time>2026-03-28T16:43:32.017Z</time></trkpt><trkpt lat="44.6199133" lon="9.3695367"><ele>1082.0</ele><time>2026-03-28T16:43:33.017Z</time></trkpt><trkpt lat="44.6198617" lon="9.3694067"><ele>1082.0</ele><time>2026-03-28T16:43:34.016Z</time></trkpt><trkpt lat="44.6198117" lon="9.36927"><ele>1082.0</ele><time>2026-03-28T16:43:35.017Z</time></trkpt><trkpt lat="44.6197817" lon="9.3691333"><ele>1082.0</ele><time>2026-03-28T16:43:36.017Z</time></trkpt><trkpt lat="44.619765" lon="9.3690017"><ele>1082.0</ele><time>2026-03-28T16:43:37.017Z</time></trkpt><trkpt lat="44.619775" lon="9.3688583"><ele>1082.0</ele><time>2026-03-28T16:43:38.017Z</time></trkpt><trkpt lat="44.6198083" lon="9.36871"><ele>1082.0</ele><time>2026-03-28T16:43:39.017Z</time></trkpt><trkpt lat="44.61986" lon="9.368545"><ele>1082.0</ele><time>2026-03-28T16:43:40.017Z</time></trkpt><trkpt lat="44.6199017" lon="9.368365"><ele>1082.0</ele><time>2026-03-28T16:43:41.017Z</time></trkpt><trkpt lat="44.6199483" lon="9.3681833"><ele>1082.2</ele><time>2026-03-28T16:43:42.016Z</time></trkpt><trkpt lat="44.6199983" lon="9.3680133"><ele>1082.4</ele><time>2026-03-28T16:43:43.017Z</time></trkpt><trkpt lat="44.6200317" lon="9.3678533"><ele>1082.6</ele><time>2026-03-28T16:43:44.017Z</time></trkpt><trkpt lat="44.6200583" lon="9.367725"><ele>1082.8</ele><time>2026-03-28T16:43:45.017Z</time></trkpt><trkpt lat="44.620065" lon="9.36759"><ele>1083.0</ele><time>2026-03-28T16:43:46.017Z</time></trkpt><trkpt lat="44.6200417" lon="9.3674283"><ele>1083.0</ele><time>2026-03-28T16:43:47.017Z</time></trkpt><trkpt lat="44.6200117" lon="9.367265"><ele>1083.0</ele><time>2026-03-28T16:43:48.017Z</time></trkpt><trkpt lat="44.6200017" lon="9.3670967"><ele>1083.0</ele><time>2026-03-28T16:43:49.017Z</time></trkpt><trkpt lat="44.62001" lon="9.3669133"><ele>1083.0</ele><time>2026-03-28T16:43:50.017Z</time></trkpt><trkpt lat="44.6200267" lon="9.3667283"><ele>1082.25</ele><time>2026-03-28T16:43:51.017Z</time></trkpt><trkpt lat="44.6200433" lon="9.3665417"><ele>1081.5</ele><time>2026-03-28T16:43:52.017Z</time></trkpt><trkpt lat="44.6200517" lon="9.36635"><ele>1080.75</ele><time>2026-03-28T16:43:53.017Z</time></trkpt><trkpt lat="44.6200583" lon="9.3661633"><ele>1080.0</ele><time>2026-03-28T16:43:54.017Z</time></trkpt><trkpt lat="44.6200533" lon="9.3659967"><ele>1078.6</ele><time>2026-03-28T16:43:55.017Z</time></trkpt><trkpt lat="44.62003" lon="9.3658383"><ele>1077.2</ele><time>2026-03-28T16:43:56.016Z</time></trkpt><trkpt lat="44.61999" lon="9.3657117"><ele>1075.8</ele><time>2026-03-28T16:43:57.017Z</time></trkpt><trkpt lat="44.6199317" lon="9.3656"><ele>1074.4</ele><time>2026-03-28T16:43:58.017Z</time></trkpt><trkpt lat="44.6198517" lon="9.3655017"><ele>1073.0</ele><time>2026-03-28T16:43:59.017Z</time></trkpt><trkpt lat="44.6197517" lon="9.36543"><ele>1075.0</ele><time>2026-03-28T16:44:00.016Z</time></trkpt><trkpt lat="44.6196417" lon="9.3653317"><ele>1077.0</ele><time>2026-03-28T16:44:01.017Z</time></trkpt><trkpt lat="44.6195317" lon="9.3652233"><ele>1079.0</ele><time>2026-03-28T16:44:02.017Z</time></trkpt><trkpt lat="44.61942" lon="9.3651217"><ele>1081.0</ele><time>2026-03-28T16:44:03.017Z</time></trkpt><trkpt lat="44.6193183" lon="9.365005"><ele>1081.0</ele><time>2026-03-28T16:44:04.016Z</time></trkpt><trkpt lat="44.6192483" lon="9.364875"><ele>1081.0</ele><time>2026-03-28T16:44:05.017Z</time></trkpt><trkpt lat="44.619195" lon="9.3647217"><ele>1081.0</ele><time>2026-03-28T16:44:06.017Z</time></trkpt><trkpt lat="44.61917" lon="9.36455"><ele>1081.0</ele><time>2026-03-28T16:44:07.016Z</time></trkpt><trkpt lat="44.6191417" lon="9.3643833"><ele>1077.8</ele><time>2026-03-28T16:44:08.017Z</time></trkpt><trkpt lat="44.6191083" lon="9.3642133"><ele>1074.6</ele><time>2026-03-28T16:44:09.016Z</time></trkpt><trkpt lat="44.6190667" lon="9.364065"><ele>1071.4</ele><time>2026-03-28T16:44:10.017Z</time></trkpt><trkpt lat="44.61902" lon="9.363945"><ele>1068.2</ele><time>2026-03-28T16:44:11.017Z</time></trkpt><trkpt lat="44.6189717" lon="9.3638467"><ele>1065.0</ele><time>2026-03-28T16:44:12.016Z</time></trkpt><trkpt lat="44.6188983" lon="9.3637633"><ele>1062.25</ele><time>2026-03-28T16:44:13.016Z</time></trkpt><trkpt lat="44.6188" lon="9.363715"><ele>1059.5</ele><time>2026-03-28T16:44:14.016Z</time></trkpt><trkpt lat="44.6186783" lon="9.3636917"><ele>1056.75</ele><time>2026-03-28T16:44:15.017Z</time></trkpt><trkpt lat="44.6185433" lon="9.3636617"><ele>1054.0</ele><time>2026-03-28T16:44:16.017Z</time></trkpt><trkpt lat="44.6184" lon="9.3636417"><ele>1053.8</ele><time>2026-03-28T16:44:17.017Z</time></trkpt><trkpt lat="44.618265" lon="9.36361"><ele>1053.6000000000001</ele><time>2026-03-28T16:44:18.016Z</time></trkpt><trkpt lat="44.6181417" lon="9.363575"><ele>1053.4</ele><time>2026-03-28T16:44:19.017Z</time></trkpt><trkpt lat="44.6180467" lon="9.3635617"><ele>1053.2</ele><time>2026-03-28T16:44:20.017Z</time></trkpt><trkpt lat="44.61797" lon="9.3635733"><ele>1053.0</ele><time>2026-03-28T16:44:21.017Z</time></trkpt><trkpt lat="44.6179083" lon="9.3636333"><ele>1053.0</ele><time>2026-03-28T16:44:22.017Z</time></trkpt><trkpt lat="44.6178617" lon="9.3637283"><ele>1053.0</ele><time>2026-03-28T16:44:23.017Z</time></trkpt><trkpt lat="44.61784" lon="9.363855"><ele>1053.0</ele><time>2026-03-28T16:44:24.017Z</time></trkpt><trkpt lat="44.6178417" lon="9.363995"><ele>1053.0</ele><time>2026-03-28T16:44:25.017Z</time></trkpt><trkpt lat="44.617865" lon="9.3641467"><ele>1053.0</ele><time>2026-03-28T16:44:26.017Z</time></trkpt><trkpt lat="44.617865" lon="9.364275"><ele>1053.5</ele><time>2026-03-28T16:44:27.017Z</time></trkpt><trkpt lat="44.6178433" lon="9.3643767"><ele>1054.0</ele><time>2026-03-28T16:44:28.017Z</time></trkpt><trkpt lat="44.6178033" lon="9.364465"><ele>1054.5</ele><time>2026-03-28T16:44:29.017Z</time></trkpt><trkpt lat="44.617745" lon="9.3645033"><ele>1055.0</ele><time>2026-03-28T16:44:30.017Z</time></trkpt><trkpt lat="44.617635" lon="9.3644383"><ele>1055.5</ele><time>2026-03-28T16:44:32.017Z</time></trkpt><trkpt lat="44.6175833" lon="9.3643767"><ele>1056.0</ele><time>2026-03-28T16:44:33.016Z</time></trkpt><trkpt lat="44.6175633" lon="9.364275"><ele>1056.0</ele><time>2026-03-28T16:44:34.017Z</time></trkpt><trkpt lat="44.6175817" lon="9.3641467"><ele>1056.0</ele><time>2026-03-28T16:44:35.017Z</time></trkpt><trkpt lat="44.6176267" lon="9.3639883"><ele>1056.0</ele><time>2026-03-28T16:44:36.017Z</time></trkpt><trkpt lat="44.6177133" lon="9.363815"><ele>1056.0</ele><time>2026-03-28T16:44:37.017Z</time></trkpt><trkpt lat="44.61782" lon="9.3636167"><ele>1055.0</ele><time>2026-03-28T16:44:38.017Z</time></trkpt><trkpt lat="44.6179283" lon="9.3634667"><ele>1054.0</ele><time>2026-03-28T16:44:39.016Z</time></trkpt><trkpt lat="44.6180633" lon="9.363335"><ele>1053.0</ele><time>2026-03-28T16:44:40.016Z</time></trkpt><trkpt lat="44.618215" lon="9.3632133"><ele>1053.0</ele><time>2026-03-28T16:44:41.017Z</time></trkpt><trkpt lat="44.61836" lon="9.3631033"><ele>1053.0</ele><time>2026-03-28T16:44:42.017Z</time></trkpt><trkpt lat="44.6184983" lon="9.3630033"><ele>1053.0</ele><time>2026-03-28T16:44:43.017Z</time></trkpt><trkpt lat="44.6185983" lon="9.362905"><ele>1053.0</ele><time>2026-03-28T16:44:44.017Z</time></trkpt><trkpt lat="44.6186767" lon="9.3627933"><ele>1052.25</ele><time>2026-03-28T16:44:45.017Z</time></trkpt><trkpt lat="44.6187383" lon="9.3626633"><ele>1051.5</ele><time>2026-03-28T16:44:46.017Z</time></trkpt><trkpt lat="44.6187717" lon="9.3624867"><ele>1050.75</ele><time>2026-03-28T16:44:47.017Z</time></trkpt><trkpt lat="44.6188017" lon="9.3623"><ele>1050.0</ele><time>2026-03-28T16:44:48.017Z</time></trkpt><trkpt lat="44.61883" lon="9.3620867"><ele>1048.3333333333333</ele><time>2026-03-28T16:44:49.017Z</time></trkpt><trkpt lat="44.61886" lon="9.36187"><ele>1046.6666666666665</ele><time>2026-03-28T16:44:50.017Z</time></trkpt><trkpt lat="44.6188867" lon="9.3616383"><ele>1045.0</ele><time>2026-03-28T16:44:51.017Z</time></trkpt><trkpt lat="44.6189083" lon="9.3614083"><ele>1043.3333333333333</ele><time>2026-03-28T16:44:52.017Z</time></trkpt><trkpt lat="44.618925" lon="9.3611717"><ele>1041.6666666666667</ele><time>2026-03-28T16:44:53.016Z</time></trkpt><trkpt lat="44.6189483" lon="9.3609333"><ele>1040.0</ele><time>2026-03-28T16:44:54.017Z</time></trkpt><trkpt lat="44.6189667" lon="9.3607217"><ele>1037.5</ele><time>2026-03-28T16:44:55.016Z</time></trkpt><trkpt lat="44.6189817" lon="9.3605217"><ele>1035.0</ele><time>2026-03-28T16:44:56.017Z</time></trkpt><trkpt lat="44.619015" lon="9.3603317"><ele>1032.5</ele><time>2026-03-28T16:44:57.017Z</time></trkpt><trkpt lat="44.6190633" lon="9.3601583"><ele>1030.0</ele><time>2026-03-28T16:44:58.017Z</time></trkpt><trkpt lat="44.6191283" lon="9.3599933"><ele>1030.0</ele><time>2026-03-28T16:44:59.017Z</time></trkpt><trkpt lat="44.6192067" lon="9.359805"><ele>1030.0</ele><time>2026-03-28T16:45:00.016Z</time></trkpt><trkpt lat="44.6192833" lon="9.359625"><ele>1030.0</ele><time>2026-03-28T16:45:01.017Z</time></trkpt><trkpt lat="44.6193633" lon="9.35945"><ele>1029.6666666666665</ele><time>2026-03-28T16:45:02.017Z</time></trkpt><trkpt lat="44.6194533" lon="9.3592533"><ele>1029.3333333333333</ele><time>2026-03-28T16:45:03.017Z</time></trkpt><trkpt lat="44.6195517" lon="9.359065"><ele>1029.0</ele><time>2026-03-28T16:45:04.016Z</time></trkpt><trkpt lat="44.61967" lon="9.3589017"><ele>1025.3333333333333</ele><time>2026-03-28T16:45:05.017Z</time></trkpt><trkpt lat="44.6197867" lon="9.358735"><ele>1021.6666666666666</ele><time>2026-03-28T16:45:06.017Z</time></trkpt><trkpt lat="44.619915" lon="9.3585883"><ele>1018.0</ele><time>2026-03-28T16:45:07.017Z</time></trkpt><trkpt lat="44.6200333" lon="9.35844"><ele>1018.0</ele><time>2026-03-28T16:45:08.017Z</time></trkpt><trkpt lat="44.6201233" lon="9.3583033"><ele>1018.0</ele><time>2026-03-28T16:45:09.017Z</time></trkpt><trkpt lat="44.6202067" lon="9.3581917"><ele>1018.0</ele><time>2026-03-28T16:45:10.017Z</time></trkpt><trkpt lat="44.6202567" lon="9.358035"><ele>1018.0</ele><time>2026-03-28T16:45:11.017Z</time></trkpt><trkpt lat="44.620295" lon="9.357895"><ele>1017.6666666666666</ele><time>2026-03-28T16:45:12.017Z</time></trkpt><trkpt lat="44.6203133" lon="9.3577783"><ele>1017.3333333333333</ele><time>2026-03-28T16:45:13.017Z</time></trkpt><trkpt lat="44.620315" lon="9.3576733"><ele>1017.0</ele><time>2026-03-28T16:45:14.017Z</time></trkpt><trkpt lat="44.6202717" lon="9.357525"><ele>1016.6666666666667</ele><time>2026-03-28T16:45:16.017Z</time></trkpt><trkpt lat="44.6201883" lon="9.3574733"><ele>1016.3333333333334</ele><time>2026-03-28T16:45:18.017Z</time></trkpt><trkpt lat="44.6201117" lon="9.35747"><ele>1016.0</ele><time>2026-03-28T16:45:20.016Z</time></trkpt><trkpt lat="44.6200533" lon="9.35755"><ele>1016.0</ele><time>2026-03-28T16:45:22.017Z</time></trkpt><trkpt lat="44.61999" lon="9.357645"><ele>1016.0</ele><time>2026-03-28T16:45:23.017Z</time></trkpt><trkpt lat="44.6199167" lon="9.3577467"><ele>1016.0</ele><time>2026-03-28T16:45:24.017Z</time></trkpt><trkpt lat="44.6197933" lon="9.3579067"><ele>1016.0</ele><time>2026-03-28T16:45:25.016Z</time></trkpt><trkpt lat="44.6196633" lon="9.3580933"><ele>1016.6666666666667</ele><time>2026-03-28T16:45:26.017Z</time></trkpt><trkpt lat="44.6195283" lon="9.3582833"><ele>1017.3333333333333</ele><time>2026-03-28T16:45:27.016Z</time></trkpt><trkpt lat="44.61939" lon="9.35848"><ele>1018.0</ele><time>2026-03-28T16:45:28.017Z</time></trkpt><trkpt lat="44.6192617" lon="9.3586783"><ele>1016.0</ele><time>2026-03-28T16:45:29.016Z</time></trkpt><trkpt lat="44.619125" lon="9.3588683"><ele>1014.0</ele><time>2026-03-28T16:45:30.017Z</time></trkpt><trkpt lat="44.618975" lon="9.3590467"><ele>1012.0</ele><time>2026-03-28T16:45:31.017Z</time></trkpt><trkpt lat="44.6188617" lon="9.3591767"><ele>1012.0</ele><time>2026-03-28T16:45:32.017Z</time></trkpt><trkpt lat="44.61876" lon="9.3593117"><ele>1012.0</ele><time>2026-03-28T16:45:33.017Z</time></trkpt><trkpt lat="44.6186667" lon="9.3594483"><ele>1012.0</ele><time>2026-03-28T16:45:34.017Z</time></trkpt><trkpt lat="44.6185767" lon="9.3595767"><ele>1012.0</ele><time>2026-03-28T16:45:35.016Z</time></trkpt><trkpt lat="44.618485" lon="9.359695"><ele>1010.0</ele><time>2026-03-28T16:45:36.017Z</time></trkpt><trkpt lat="44.61838" lon="9.3598183"><ele>1008.0</ele><time>2026-03-28T16:45:37.017Z</time></trkpt><trkpt lat="44.6182733" lon="9.359915"><ele>1006.0</ele><time>2026-03-28T16:45:38.017Z</time></trkpt><trkpt lat="44.6181583" lon="9.3600033"><ele>1004.0</ele><time>2026-03-28T16:45:39.017Z</time></trkpt><trkpt lat="44.618045" lon="9.3600767"><ele>1004.0</ele><time>2026-03-28T16:45:40.017Z</time></trkpt><trkpt lat="44.6179167" lon="9.3601167"><ele>1004.0</ele><time>2026-03-28T16:45:41.017Z</time></trkpt><trkpt lat="44.6177817" lon="9.36014"><ele>1004.0</ele><time>2026-03-28T16:45:42.016Z</time></trkpt><trkpt lat="44.6176517" lon="9.36012"><ele>1004.0</ele><time>2026-03-28T16:45:43.017Z</time></trkpt><trkpt lat="44.6175567" lon="9.3600833"><ele>1001.6</ele><time>2026-03-28T16:45:44.017Z</time></trkpt><trkpt lat="44.6174717" lon="9.3600133"><ele>999.2</ele><time>2026-03-28T16:45:45.017Z</time></trkpt><trkpt lat="44.6173983" lon="9.359985"><ele>996.8000000000001</ele><time>2026-03-28T16:45:46.017Z</time></trkpt><trkpt lat="44.6173117" lon="9.3599833"><ele>994.4000000000001</ele><time>2026-03-28T16:45:47.017Z</time></trkpt><trkpt lat="44.6172283" lon="9.3600233"><ele>992.0</ele><time>2026-03-28T16:45:48.016Z</time></trkpt><trkpt lat="44.61714" lon="9.3600933"><ele>992.0</ele><time>2026-03-28T16:45:49.016Z</time></trkpt><trkpt lat="44.6170433" lon="9.3601833"><ele>992.0</ele><time>2026-03-28T16:45:50.017Z</time></trkpt><trkpt lat="44.61695" lon="9.3602633"><ele>992.0</ele><time>2026-03-28T16:45:51.016Z</time></trkpt><trkpt lat="44.6168267" lon="9.36032"><ele>992.0</ele><time>2026-03-28T16:45:52.017Z</time></trkpt><trkpt lat="44.616675" lon="9.36035"><ele>986.3333333333334</ele><time>2026-03-28T16:45:53.017Z</time></trkpt><trkpt lat="44.6165183" lon="9.3603633"><ele>980.6666666666667</ele><time>2026-03-28T16:45:54.017Z</time></trkpt><trkpt lat="44.6163617" lon="9.3603733"><ele>975.0</ele><time>2026-03-28T16:45:55.017Z</time></trkpt><trkpt lat="44.61621" lon="9.3603917"><ele>973.2</ele><time>2026-03-28T16:45:56.017Z</time></trkpt><trkpt lat="44.6160833" lon="9.3603983"><ele>971.4</ele><time>2026-03-28T16:45:57.017Z</time></trkpt><trkpt lat="44.61597" lon="9.3604033"><ele>969.5999999999999</ele><time>2026-03-28T16:45:58.017Z</time></trkpt><trkpt lat="44.6158733" lon="9.36043"><ele>967.8</ele><time>2026-03-28T16:45:59.017Z</time></trkpt><trkpt lat="44.61579" lon="9.36047"><ele>966.0</ele><time>2026-03-28T16:46:00.017Z</time></trkpt><trkpt lat="44.6157183" lon="9.3605317"><ele>966.1999999999999</ele><time>2026-03-28T16:46:01.017Z</time></trkpt><trkpt lat="44.61565" lon="9.3606"><ele>966.3999999999999</ele><time>2026-03-28T16:46:02.017Z</time></trkpt><trkpt lat="44.6155817" lon="9.3606917"><ele>966.6</ele><time>2026-03-28T16:46:03.016Z</time></trkpt><trkpt lat="44.6155" lon="9.3607933"><ele>966.8</ele><time>2026-03-28T16:46:04.017Z</time></trkpt><trkpt lat="44.6153933" lon="9.360915"><ele>967.0</ele><time>2026-03-28T16:46:05.017Z</time></trkpt><trkpt lat="44.61528" lon="9.3610233"><ele>967.0</ele><time>2026-03-28T16:46:06.017Z</time></trkpt><trkpt lat="44.6151783" lon="9.3611167"><ele>967.0</ele><time>2026-03-28T16:46:07.017Z</time></trkpt><trkpt lat="44.615095" lon="9.3611817"><ele>967.0</ele><time>2026-03-28T16:46:08.017Z</time></trkpt><trkpt lat="44.61498" lon="9.3612067"><ele>967.0</ele><time>2026-03-28T16:46:09.017Z</time></trkpt><trkpt lat="44.6148783" lon="9.3612067"><ele>967.0</ele><time>2026-03-28T16:46:10.016Z</time></trkpt><trkpt lat="44.6148033" lon="9.3611617"><ele>967.0</ele><time>2026-03-28T16:46:11.017Z</time></trkpt><trkpt lat="44.614725" lon="9.36108"><ele>967.0</ele><time>2026-03-28T16:46:12.017Z</time></trkpt><trkpt lat="44.614635" lon="9.361005"><ele>967.0</ele><time>2026-03-28T16:46:13.017Z</time></trkpt><trkpt lat="44.614535" lon="9.3608833"><ele>967.0</ele><time>2026-03-28T16:46:14.016Z</time></trkpt><trkpt lat="44.61442" lon="9.3607"><ele>964.0</ele><time>2026-03-28T16:46:15.017Z</time></trkpt><trkpt lat="44.614305" lon="9.3604733"><ele>961.0</ele><time>2026-03-28T16:46:16.017Z</time></trkpt><trkpt lat="44.6141967" lon="9.3602817"><ele>958.0</ele><time>2026-03-28T16:46:17.016Z</time></trkpt><trkpt lat="44.614105" lon="9.3600833"><ele>958.0</ele><time>2026-03-28T16:46:18.017Z</time></trkpt><trkpt lat="44.6140283" lon="9.3598883"><ele>958.0</ele><time>2026-03-28T16:46:19.017Z</time></trkpt><trkpt lat="44.6139433" lon="9.3596967"><ele>958.0</ele><time>2026-03-28T16:46:20.017Z</time></trkpt><trkpt lat="44.6138733" lon="9.3595117"><ele>954.5</ele><time>2026-03-28T16:46:21.017Z</time></trkpt><trkpt lat="44.6138" lon="9.359345"><ele>951.0</ele><time>2026-03-28T16:46:22.017Z</time></trkpt><trkpt lat="44.6137317" lon="9.359195"><ele>947.5</ele><time>2026-03-28T16:46:23.017Z</time></trkpt><trkpt lat="44.6136483" lon="9.359055"><ele>944.0</ele><time>2026-03-28T16:46:24.017Z</time></trkpt><trkpt lat="44.6135767" lon="9.3589717"><ele>944.0000000000001</ele><time>2026-03-28T16:46:25.017Z</time></trkpt><trkpt lat="44.6134933" lon="9.3589317"><ele>944.0</ele><time>2026-03-28T16:46:26.016Z</time></trkpt><trkpt lat="44.61341" lon="9.3589167"><ele>944.0</ele><time>2026-03-28T16:46:27.017Z</time></trkpt><trkpt lat="44.6133183" lon="9.35894"><ele>944.0</ele><time>2026-03-28T16:46:28.016Z</time></trkpt><trkpt lat="44.6132317" lon="9.3589417"><ele>944.0000000000001</ele><time>2026-03-28T16:46:29.017Z</time></trkpt><trkpt lat="44.61315" lon="9.358935"><ele>944.0</ele><time>2026-03-28T16:46:30.017Z</time></trkpt><trkpt lat="44.613085" lon="9.3588967"><ele>942.4000000000001</ele><time>2026-03-28T16:46:31.016Z</time></trkpt><trkpt lat="44.613035" lon="9.3587683"><ele>940.8000000000001</ele><time>2026-03-28T16:46:33.017Z</time></trkpt><trkpt lat="44.6130483" lon="9.358675"><ele>939.1999999999999</ele><time>2026-03-28T16:46:34.017Z</time></trkpt><trkpt lat="44.6131" lon="9.3585767"><ele>937.5999999999999</ele><time>2026-03-28T16:46:35.017Z</time></trkpt><trkpt lat="44.6131733" lon="9.358485"><ele>936.0</ele><time>2026-03-28T16:46:36.017Z</time></trkpt><trkpt lat="44.6132567" lon="9.3583683"><ele>936.0</ele><time>2026-03-28T16:46:37.017Z</time></trkpt><trkpt lat="44.61336" lon="9.3582483"><ele>936.0</ele><time>2026-03-28T16:46:38.017Z</time></trkpt><trkpt lat="44.6134517" lon="9.3581433"><ele>936.0</ele><time>2026-03-28T16:46:39.017Z</time></trkpt><trkpt lat="44.6135433" lon="9.3580683"><ele>936.0</ele><time>2026-03-28T16:46:40.017Z</time></trkpt><trkpt lat="44.6136333" lon="9.3580333"><ele>935.4</ele><time>2026-03-28T16:46:41.017Z</time></trkpt><trkpt lat="44.6137217" lon="9.3580433"><ele>934.8</ele><time>2026-03-28T16:46:42.017Z</time></trkpt><trkpt lat="44.6138217" lon="9.35807"><ele>934.1999999999999</ele><time>2026-03-28T16:46:43.017Z</time></trkpt><trkpt lat="44.6139183" lon="9.3581383"><ele>933.5999999999999</ele><time>2026-03-28T16:46:44.017Z</time></trkpt><trkpt lat="44.6140367" lon="9.3582533"><ele>933.0</ele><time>2026-03-28T16:46:45.017Z</time></trkpt><trkpt lat="44.6141533" lon="9.3583433"><ele>933.0</ele><time>2026-03-28T16:46:46.017Z</time></trkpt><trkpt lat="44.6142683" lon="9.3584283"><ele>933.0</ele><time>2026-03-28T16:46:47.017Z</time></trkpt><trkpt lat="44.6143867" lon="9.35848"><ele>933.0</ele><time>2026-03-28T16:46:48.017Z</time></trkpt><trkpt lat="44.6144983" lon="9.358515"><ele>933.0</ele><time>2026-03-28T16:46:49.017Z</time></trkpt><trkpt lat="44.6146133" lon="9.3585233"><ele>932.5999999999999</ele><time>2026-03-28T16:46:50.017Z</time></trkpt><trkpt lat="44.6147233" lon="9.3585233"><ele>932.1999999999999</ele><time>2026-03-28T16:46:51.017Z</time></trkpt><trkpt lat="44.6148283" lon="9.3585067"><ele>931.8</ele><time>2026-03-28T16:46:52.017Z</time></trkpt><trkpt lat="44.6149317" lon="9.3584617"><ele>931.4</ele><time>2026-03-28T16:46:53.017Z</time></trkpt><trkpt lat="44.6150383" lon="9.3583933"><ele>931.0</ele><time>2026-03-28T16:46:54.017Z</time></trkpt><trkpt lat="44.61514" lon="9.3582933"><ele>931.0</ele><time>2026-03-28T16:46:55.017Z</time></trkpt><trkpt lat="44.615235" lon="9.3581833"><ele>931.0</ele><time>2026-03-28T16:46:56.017Z</time></trkpt><trkpt lat="44.6153367" lon="9.35808"><ele>931.0</ele><time>2026-03-28T16:46:57.017Z</time></trkpt><trkpt lat="44.61544" lon="9.3579867"><ele>931.0</ele><time>2026-03-28T16:46:58.016Z</time></trkpt><trkpt lat="44.6155367" lon="9.3578967"><ele>928.8</ele><time>2026-03-28T16:46:59.016Z</time></trkpt><trkpt lat="44.61563" lon="9.3578083"><ele>926.5999999999999</ele><time>2026-03-28T16:47:00.017Z</time></trkpt><trkpt lat="44.61572" lon="9.35771"><ele>924.4</ele><time>2026-03-28T16:47:01.017Z</time></trkpt><trkpt lat="44.6157967" lon="9.3576117"><ele>922.2</ele><time>2026-03-28T16:47:02.017Z</time></trkpt><trkpt lat="44.6158583" lon="9.357505"><ele>920.0</ele><time>2026-03-28T16:47:03.017Z</time></trkpt><trkpt lat="44.615885" lon="9.35737"><ele>920.0</ele><time>2026-03-28T16:47:04.017Z</time></trkpt><trkpt lat="44.615905" lon="9.35723"><ele>920.0</ele><time>2026-03-28T16:47:05.016Z</time></trkpt><trkpt lat="44.6159333" lon="9.357075"><ele>920.0</ele><time>2026-03-28T16:47:06.017Z</time></trkpt><trkpt lat="44.6159767" lon="9.356905"><ele>920.0</ele><time>2026-03-28T16:47:07.017Z</time></trkpt><trkpt lat="44.616035" lon="9.3567417"><ele>918.0</ele><time>2026-03-28T16:47:08.017Z</time></trkpt><trkpt lat="44.6161067" lon="9.356605"><ele>916.0</ele><time>2026-03-28T16:47:09.016Z</time></trkpt><trkpt lat="44.6161933" lon="9.35649"><ele>914.0</ele><time>2026-03-28T16:47:10.017Z</time></trkpt><trkpt lat="44.61629" lon="9.3564117"><ele>912.0</ele><time>2026-03-28T16:47:11.017Z</time></trkpt><trkpt lat="44.6163867" lon="9.356375"><ele>912.0</ele><time>2026-03-28T16:47:12.017Z</time></trkpt><trkpt lat="44.6164833" lon="9.3563517"><ele>912.0</ele><time>2026-03-28T16:47:13.017Z</time></trkpt><trkpt lat="44.6165817" lon="9.356365"><ele>912.0</ele><time>2026-03-28T16:47:14.017Z</time></trkpt><trkpt lat="44.616675" lon="9.3563933"><ele>912.0</ele><time>2026-03-28T16:47:15.017Z</time></trkpt><trkpt lat="44.616755" lon="9.3564533"><ele>912.0</ele><time>2026-03-28T16:47:16.017Z</time></trkpt><trkpt lat="44.616835" lon="9.3564733"><ele>912.0</ele><time>2026-03-28T16:47:17.017Z</time></trkpt><trkpt lat="44.6169" lon="9.35648"><ele>912.0</ele><time>2026-03-28T16:47:18.017Z</time></trkpt><trkpt lat="44.616985" lon="9.356455"><ele>912.0</ele><time>2026-03-28T16:47:20.017Z</time></trkpt><trkpt lat="44.6170117" lon="9.3562683"><ele>912.0</ele><time>2026-03-28T16:47:22.016Z</time></trkpt><trkpt lat="44.6169967" lon="9.3561483"><ele>912.0</ele><time>2026-03-28T16:47:23.017Z</time></trkpt><trkpt lat="44.6169667" lon="9.35599"><ele>907.0</ele><time>2026-03-28T16:47:24.017Z</time></trkpt><trkpt lat="44.616925" lon="9.355775"><ele>902.0</ele><time>2026-03-28T16:47:25.017Z</time></trkpt><trkpt lat="44.616885" lon="9.3555233"><ele>897.0</ele><time>2026-03-28T16:47:26.017Z</time></trkpt><trkpt lat="44.61688" lon="9.3552833"><ele>893.3333333333333</ele><time>2026-03-28T16:47:27.017Z</time></trkpt><trkpt lat="44.616895" lon="9.3550517"><ele>889.6666666666666</ele><time>2026-03-28T16:47:28.017Z</time></trkpt><trkpt lat="44.61693" lon="9.3548283"><ele>886.0</ele><time>2026-03-28T16:47:29.016Z</time></trkpt><trkpt lat="44.6169533" lon="9.3546033"><ele>889.3333333333333</ele><time>2026-03-28T16:47:30.017Z</time></trkpt><trkpt lat="44.6169883" lon="9.3543517"><ele>892.6666666666667</ele><time>2026-03-28T16:47:31.017Z</time></trkpt><trkpt lat="44.61702" lon="9.3541233"><ele>896.0</ele><time>2026-03-28T16:47:32.017Z</time></trkpt><trkpt lat="44.617055" lon="9.3539117"><ele>894.5</ele><time>2026-03-28T16:47:33.017Z</time></trkpt><trkpt lat="44.61709" lon="9.353695"><ele>893.0</ele><time>2026-03-28T16:47:34.017Z</time></trkpt><trkpt lat="44.6171283" lon="9.3534917"><ele>891.5</ele><time>2026-03-28T16:47:35.017Z</time></trkpt><trkpt lat="44.6171633" lon="9.35333"><ele>890.0</ele><time>2026-03-28T16:47:36.016Z</time></trkpt><trkpt lat="44.6171833" lon="9.3531917"><ele>890.0</ele><time>2026-03-28T16:47:37.017Z</time></trkpt><trkpt lat="44.6171917" lon="9.3530833"><ele>890.0</ele><time>2026-03-28T16:47:38.017Z</time></trkpt><trkpt lat="44.6171617" lon="9.3529317"><ele>890.0</ele><time>2026-03-28T16:47:40.016Z</time></trkpt><trkpt lat="44.6170567" lon="9.3528767"><ele>890.0</ele><time>2026-03-28T16:47:42.017Z</time></trkpt><trkpt lat="44.616985" lon="9.3529233"><ele>890.0</ele><time>2026-03-28T16:47:43.017Z</time></trkpt><trkpt lat="44.61693" lon="9.3529967"><ele>885.8</ele><time>2026-03-28T16:47:44.017Z</time></trkpt><trkpt lat="44.6168917" lon="9.3530967"><ele>881.6</ele><time>2026-03-28T16:47:45.017Z</time></trkpt><trkpt lat="44.616865" lon="9.3532433"><ele>877.4000000000001</ele><time>2026-03-28T16:47:46.017Z</time></trkpt><trkpt lat="44.61683" lon="9.3533933"><ele>873.2</ele><time>2026-03-28T16:47:47.017Z</time></trkpt><trkpt lat="44.6167817" lon="9.3535433"><ele>869.0</ele><time>2026-03-28T16:47:48.017Z</time></trkpt><trkpt lat="44.6167117" lon="9.3536867"><ele>869.0</ele><time>2026-03-28T16:47:49.017Z</time></trkpt><trkpt lat="44.61662" lon="9.3537983"><ele>869.0000000000001</ele><time>2026-03-28T16:47:50.017Z</time></trkpt><trkpt lat="44.6165283" lon="9.3538833"><ele>869.0000000000001</ele><time>2026-03-28T16:47:51.017Z</time></trkpt><trkpt lat="44.61645" lon="9.3539783"><ele>869.0</ele><time>2026-03-28T16:47:52.017Z</time></trkpt><trkpt lat="44.6163817" lon="9.3540767"><ele>869.0</ele><time>2026-03-28T16:47:53.017Z</time></trkpt><trkpt lat="44.6163117" lon="9.3541467"><ele>869.1666666666667</ele><time>2026-03-28T16:47:54.017Z</time></trkpt><trkpt lat="44.616235" lon="9.3541867"><ele>869.3333333333334</ele><time>2026-03-28T16:47:55.016Z</time></trkpt><trkpt lat="44.616165" lon="9.3541917"><ele>869.5</ele><time>2026-03-28T16:47:56.017Z</time></trkpt><trkpt lat="44.6160933" lon="9.354175"><ele>869.6666666666667</ele><time>2026-03-28T16:47:57.017Z</time></trkpt><trkpt lat="44.6160183" lon="9.3541167"><ele>869.8333333333334</ele><time>2026-03-28T16:47:58.017Z</time></trkpt><trkpt lat="44.61594" lon="9.3540267"><ele>870.0</ele><time>2026-03-28T16:47:59.016Z</time></trkpt><trkpt lat="44.6158583" lon="9.353905"><ele>866.6</ele><time>2026-03-28T16:48:00.017Z</time></trkpt><trkpt lat="44.6157783" lon="9.3537817"><ele>863.2</ele><time>2026-03-28T16:48:01.016Z</time></trkpt><trkpt lat="44.615705" lon="9.3536883"><ele>859.8</ele><time>2026-03-28T16:48:02.017Z</time></trkpt><trkpt lat="44.6156317" lon="9.3536367"><ele>856.4</ele><time>2026-03-28T16:48:03.017Z</time></trkpt><trkpt lat="44.6155583" lon="9.3536233"><ele>853.0</ele><time>2026-03-28T16:48:04.017Z</time></trkpt><trkpt lat="44.6154783" lon="9.3536333"><ele>853.0</ele><time>2026-03-28T16:48:05.017Z</time></trkpt><trkpt lat="44.6154017" lon="9.35368"><ele>853.0</ele><time>2026-03-28T16:48:06.017Z</time></trkpt><trkpt lat="44.6153333" lon="9.3537733"><ele>853.0</ele><time>2026-03-28T16:48:07.016Z</time></trkpt><trkpt lat="44.6152833" lon="9.3539433"><ele>853.0</ele><time>2026-03-28T16:48:08.017Z</time></trkpt><trkpt lat="44.6152117" lon="9.35405"><ele>853.0</ele><time>2026-03-28T16:48:09.017Z</time></trkpt><trkpt lat="44.6151283" lon="9.3541267"><ele>851.2</ele><time>2026-03-28T16:48:10.016Z</time></trkpt><trkpt lat="44.6150333" lon="9.35415"><ele>849.4</ele><time>2026-03-28T16:48:11.016Z</time></trkpt><trkpt lat="44.6149467" lon="9.3541183"><ele>847.6</ele><time>2026-03-28T16:48:12.017Z</time></trkpt><trkpt lat="44.6148583" lon="9.3540583"><ele>845.8000000000001</ele><time>2026-03-28T16:48:13.017Z</time></trkpt><trkpt lat="44.6148017" lon="9.35394"><ele>844.0</ele><time>2026-03-28T16:48:14.017Z</time></trkpt><trkpt lat="44.614735" lon="9.3538533"><ele>844.0</ele><time>2026-03-28T16:48:15.017Z</time></trkpt><trkpt lat="44.6146467" lon="9.3538217"><ele>844.0</ele><time>2026-03-28T16:48:16.017Z</time></trkpt><trkpt lat="44.6145483" lon="9.3538017"><ele>844.0</ele><time>2026-03-28T16:48:17.017Z</time></trkpt><trkpt lat="44.6144467" lon="9.35378"><ele>844.0</ele><time>2026-03-28T16:48:18.017Z</time></trkpt><trkpt lat="44.61435" lon="9.3537517"><ele>844.0</ele><time>2026-03-28T16:48:19.017Z</time></trkpt><trkpt lat="44.6142583" lon="9.3537067"><ele>844.4000000000001</ele><time>2026-03-28T16:48:20.017Z</time></trkpt><trkpt lat="44.614165" lon="9.3536267"><ele>844.8</ele><time>2026-03-28T16:48:21.017Z</time></trkpt><trkpt lat="44.614085" lon="9.3535317"><ele>845.2</ele><time>2026-03-28T16:48:22.017Z</time></trkpt><trkpt lat="44.6139967" lon="9.353465"><ele>845.5999999999999</ele><time>2026-03-28T16:48:23.016Z</time></trkpt><trkpt lat="44.6139067" lon="9.35341"><ele>846.0</ele><time>2026-03-28T16:48:24.017Z</time></trkpt><trkpt lat="44.6138" lon="9.3533967"><ele>846.0</ele><time>2026-03-28T16:48:25.017Z</time></trkpt><trkpt lat="44.6136917" lon="9.35338"><ele>846.0</ele><time>2026-03-28T16:48:26.017Z</time></trkpt><trkpt lat="44.6135933" lon="9.35335"><ele>846.0</ele><time>2026-03-28T16:48:27.017Z</time></trkpt><trkpt lat="44.6135067" lon="9.35328"><ele>846.0</ele><time>2026-03-28T16:48:28.017Z</time></trkpt><trkpt lat="44.613435" lon="9.3531767"><ele>846.0</ele><time>2026-03-28T16:48:29.017Z</time></trkpt><trkpt lat="44.6133683" lon="9.35306"><ele>845.5</ele><time>2026-03-28T16:48:30.017Z</time></trkpt><trkpt lat="44.6133" lon="9.352935"><ele>845.0</ele><time>2026-03-28T16:48:31.017Z</time></trkpt><trkpt lat="44.6132317" lon="9.3528"><ele>844.5</ele><time>2026-03-28T16:48:32.016Z</time></trkpt><trkpt lat="44.6131683" lon="9.3526617"><ele>844.0</ele><time>2026-03-28T16:48:33.017Z</time></trkpt><trkpt lat="44.6131017" lon="9.352515"><ele>844.0</ele><time>2026-03-28T16:48:34.016Z</time></trkpt><trkpt lat="44.61303" lon="9.3523967"><ele>844.0</ele><time>2026-03-28T16:48:35.017Z</time></trkpt><trkpt lat="44.61297" lon="9.3522317"><ele>844.0</ele><time>2026-03-28T16:48:36.017Z</time></trkpt><trkpt lat="44.612925" lon="9.3520433"><ele>844.0</ele><time>2026-03-28T16:48:37.016Z</time></trkpt><trkpt lat="44.61287" lon="9.3518867"><ele>845.0</ele><time>2026-03-28T16:48:38.016Z</time></trkpt><trkpt lat="44.6128217" lon="9.351735"><ele>846.0</ele><time>2026-03-28T16:48:39.017Z</time></trkpt><trkpt lat="44.6127483" lon="9.3516283"><ele>847.0</ele><time>2026-03-28T16:48:40.017Z</time></trkpt><trkpt lat="44.612675" lon="9.3515467"><ele>848.0</ele><time>2026-03-28T16:48:41.017Z</time></trkpt><trkpt lat="44.6125933" lon="9.351485"><ele>849.0</ele><time>2026-03-28T16:48:42.017Z</time></trkpt><trkpt lat="44.6124983" lon="9.3514467"><ele>849.0</ele><time>2026-03-28T16:48:43.017Z</time></trkpt><trkpt lat="44.6124" lon="9.3514117"><ele>849.0</ele><time>2026-03-28T16:48:44.017Z</time></trkpt><trkpt lat="44.6123033" lon="9.351365"><ele>849.0</ele><time>2026-03-28T16:48:45.017Z</time></trkpt><trkpt lat="44.612205" lon="9.351315"><ele>849.0</ele><time>2026-03-28T16:48:46.017Z</time></trkpt><trkpt lat="44.6121033" lon="9.3512317"><ele>849.0</ele><time>2026-03-28T16:48:47.017Z</time></trkpt><trkpt lat="44.6119983" lon="9.3511417"><ele>845.4000000000001</ele><time>2026-03-28T16:48:48.016Z</time></trkpt><trkpt lat="44.6118767" lon="9.3510633"><ele>841.8</ele><time>2026-03-28T16:48:49.017Z</time></trkpt><trkpt lat="44.6117833" lon="9.35099"><ele>838.2</ele><time>2026-03-28T16:48:50.017Z</time></trkpt><trkpt lat="44.6116983" lon="9.3509367"><ele>834.5999999999999</ele><time>2026-03-28T16:48:51.016Z</time></trkpt><trkpt lat="44.61162" lon="9.3509133"><ele>831.0</ele><time>2026-03-28T16:48:52.017Z</time></trkpt><trkpt lat="44.6115533" lon="9.350915"><ele>831.0</ele><time>2026-03-28T16:48:53.017Z</time></trkpt><trkpt lat="44.6114917" lon="9.350955"><ele>831.0</ele><time>2026-03-28T16:48:54.017Z</time></trkpt><trkpt lat="44.6114267" lon="9.3510433"><ele>831.0</ele><time>2026-03-28T16:48:55.017Z</time></trkpt><trkpt lat="44.611355" lon="9.3512"><ele>831.0</ele><time>2026-03-28T16:48:56.017Z</time></trkpt><trkpt lat="44.6112833" lon="9.3513083"><ele>831.0</ele><time>2026-03-28T16:48:57.017Z</time></trkpt><trkpt lat="44.611205" lon="9.3514133"><ele>833.25</ele><time>2026-03-28T16:48:58.016Z</time></trkpt><trkpt lat="44.6111083" lon="9.3514933"><ele>835.5</ele><time>2026-03-28T16:48:59.017Z</time></trkpt><trkpt lat="44.6109933" lon="9.3515133"><ele>837.75</ele><time>2026-03-28T16:49:00.017Z</time></trkpt><trkpt lat="44.61088" lon="9.3515267"><ele>840.0</ele><time>2026-03-28T16:49:01.017Z</time></trkpt><trkpt lat="44.6107667" lon="9.3515283"><ele>840.0</ele><time>2026-03-28T16:49:02.017Z</time></trkpt><trkpt lat="44.61066" lon="9.3514983"><ele>840.0</ele><time>2026-03-28T16:49:03.017Z</time></trkpt><trkpt lat="44.6105617" lon="9.35145"><ele>840.0</ele><time>2026-03-28T16:49:04.016Z</time></trkpt><trkpt lat="44.6104617" lon="9.3513967"><ele>840.0</ele><time>2026-03-28T16:49:05.017Z</time></trkpt><trkpt lat="44.6103567" lon="9.351345"><ele>840.0</ele><time>2026-03-28T16:49:06.017Z</time></trkpt><trkpt lat="44.6102417" lon="9.3513067"><ele>835.0</ele><time>2026-03-28T16:49:07.017Z</time></trkpt><trkpt lat="44.6101233" lon="9.3512783"><ele>830.0</ele><time>2026-03-28T16:49:08.017Z</time></trkpt><trkpt lat="44.6100017" lon="9.3512817"><ele>825.0</ele><time>2026-03-28T16:49:09.017Z</time></trkpt><trkpt lat="44.609885" lon="9.351275"><ele>820.0</ele><time>2026-03-28T16:49:10.016Z</time></trkpt><trkpt lat="44.609775" lon="9.3512833"><ele>820.0</ele><time>2026-03-28T16:49:11.017Z</time></trkpt><trkpt lat="44.6096617" lon="9.3513133"><ele>820.0</ele><time>2026-03-28T16:49:12.017Z</time></trkpt><trkpt lat="44.6095583" lon="9.3513667"><ele>820.0</ele><time>2026-03-28T16:49:13.017Z</time></trkpt><trkpt lat="44.6094633" lon="9.3514117"><ele>820.0</ele><time>2026-03-28T16:49:14.017Z</time></trkpt><trkpt lat="44.609375" lon="9.351455"><ele>820.0</ele><time>2026-03-28T16:49:15.017Z</time></trkpt><trkpt lat="44.6092883" lon="9.351475"><ele>821.5</ele><time>2026-03-28T16:49:16.017Z</time></trkpt><trkpt lat="44.6092033" lon="9.3513767"><ele>823.0</ele><time>2026-03-28T16:49:18.017Z</time></trkpt><trkpt lat="44.609235" lon="9.3512467"><ele>824.5</ele><time>2026-03-28T16:49:20.016Z</time></trkpt><trkpt lat="44.6093267" lon="9.3511383"><ele>826.0</ele><time>2026-03-28T16:49:21.017Z</time></trkpt><trkpt lat="44.60945" lon="9.3510233"><ele>824.0</ele><time>2026-03-28T16:49:22.017Z</time></trkpt><trkpt lat="44.6096133" lon="9.3509383"><ele>822.0</ele><time>2026-03-28T16:49:23.018Z</time></trkpt><trkpt lat="44.6097683" lon="9.35082"><ele>820.0</ele><time>2026-03-28T16:49:24.018Z</time></trkpt><trkpt lat="44.609895" lon="9.350685"><ele>816.5</ele><time>2026-03-28T16:49:25.018Z</time></trkpt><trkpt lat="44.6100033" lon="9.35052"><ele>813.0</ele><time>2026-03-28T16:49:26.017Z</time></trkpt><trkpt lat="44.6100783" lon="9.3503717"><ele>809.5</ele><time>2026-03-28T16:49:27.018Z</time></trkpt><trkpt lat="44.610145" lon="9.3502283"><ele>806.0</ele><time>2026-03-28T16:49:28.018Z</time></trkpt><trkpt lat="44.6102233" lon="9.3501017"><ele>806.0</ele><time>2026-03-28T16:49:29.018Z</time></trkpt><trkpt lat="44.6103133" lon="9.3500117"><ele>806.0</ele><time>2026-03-28T16:49:30.018Z</time></trkpt><trkpt lat="44.6104133" lon="9.3499467"><ele>806.0</ele><time>2026-03-28T16:49:31.018Z</time></trkpt><trkpt lat="44.61051" lon="9.3498717"><ele>806.0</ele><time>2026-03-28T16:49:32.018Z</time></trkpt><trkpt lat="44.6106133" lon="9.3497817"><ele>802.0</ele><time>2026-03-28T16:49:33.018Z</time></trkpt><trkpt lat="44.6107067" lon="9.3496717"><ele>798.0</ele><time>2026-03-28T16:49:34.018Z</time></trkpt><trkpt lat="44.6107867" lon="9.3495417"><ele>794.0</ele><time>2026-03-28T16:49:35.018Z</time></trkpt><trkpt lat="44.6108633" lon="9.3494083"><ele>790.0</ele><time>2026-03-28T16:49:36.018Z</time></trkpt><trkpt lat="44.6109567" lon="9.3493117"><ele>790.0</ele><time>2026-03-28T16:49:37.018Z</time></trkpt><trkpt lat="44.611055" lon="9.349225"><ele>790.0</ele><time>2026-03-28T16:49:38.018Z</time></trkpt><trkpt lat="44.6111633" lon="9.3491733"><ele>790.0</ele><time>2026-03-28T16:49:39.018Z</time></trkpt><trkpt lat="44.6112783" lon="9.34915"><ele>790.0</ele><time>2026-03-28T16:49:40.018Z</time></trkpt><trkpt lat="44.611405" lon="9.349155"><ele>791.75</ele><time>2026-03-28T16:49:41.018Z</time></trkpt><trkpt lat="44.6115317" lon="9.3491783"><ele>793.5</ele><time>2026-03-28T16:49:42.018Z</time></trkpt><trkpt lat="44.61167" lon="9.3492133"><ele>795.25</ele><time>2026-03-28T16:49:43.018Z</time></trkpt><trkpt lat="44.6118067" lon="9.3492517"><ele>797.0</ele><time>2026-03-28T16:49:44.018Z</time></trkpt><trkpt lat="44.6119433" lon="9.3492917"><ele>794.75</ele><time>2026-03-28T16:49:45.018Z</time></trkpt><trkpt lat="44.6120867" lon="9.3493383"><ele>792.5</ele><time>2026-03-28T16:49:46.018Z</time></trkpt><trkpt lat="44.6122283" lon="9.3493767"><ele>790.25</ele><time>2026-03-28T16:49:47.018Z</time></trkpt><trkpt lat="44.6123633" lon="9.3494217"><ele>788.0</ele><time>2026-03-28T16:49:48.018Z</time></trkpt><trkpt lat="44.612495" lon="9.3494617"><ele>788.0</ele><time>2026-03-28T16:49:49.018Z</time></trkpt><trkpt lat="44.61262" lon="9.3494983"><ele>788.0</ele><time>2026-03-28T16:49:50.018Z</time></trkpt><trkpt lat="44.612735" lon="9.3495"><ele>788.0</ele><time>2026-03-28T16:49:51.018Z</time></trkpt><trkpt lat="44.6128317" lon="9.34951"><ele>788.0</ele><time>2026-03-28T16:49:52.017Z</time></trkpt><trkpt lat="44.61291" lon="9.349505"><ele>788.0</ele><time>2026-03-28T16:49:53.018Z</time></trkpt><trkpt lat="44.6130067" lon="9.3494433"><ele>788.0</ele><time>2026-03-28T16:49:55.017Z</time></trkpt><trkpt lat="44.6130217" lon="9.3493017"><ele>788.0</ele><time>2026-03-28T16:49:57.018Z</time></trkpt><trkpt lat="44.6129817" lon="9.3492317"><ele>788.0</ele><time>2026-03-28T16:49:58.018Z</time></trkpt><trkpt lat="44.6128917" lon="9.3491467"><ele>788.0</ele><time>2026-03-28T16:49:59.018Z</time></trkpt><trkpt lat="44.612775" lon="9.3490617"><ele>788.0</ele><time>2026-03-28T16:50:00.018Z</time></trkpt><trkpt lat="44.61262" lon="9.3489633"><ele>782.3333333333334</ele><time>2026-03-28T16:50:01.018Z</time></trkpt><trkpt lat="44.612475" lon="9.34884"><ele>776.6666666666667</ele><time>2026-03-28T16:50:02.018Z</time></trkpt><trkpt lat="44.6123233" lon="9.348725"><ele>771.0</ele><time>2026-03-28T16:50:03.017Z</time></trkpt><trkpt lat="44.61218" lon="9.348595"><ele>771.0</ele><time>2026-03-28T16:50:04.018Z</time></trkpt><trkpt lat="44.6120367" lon="9.348445"><ele>771.0</ele><time>2026-03-28T16:50:05.018Z</time></trkpt><trkpt lat="44.6118983" lon="9.3482683"><ele>771.0</ele><time>2026-03-28T16:50:06.018Z</time></trkpt><trkpt lat="44.61178" lon="9.34812"><ele>768.25</ele><time>2026-03-28T16:50:07.018Z</time></trkpt><trkpt lat="44.6116717" lon="9.34798"><ele>765.5</ele><time>2026-03-28T16:50:08.018Z</time></trkpt><trkpt lat="44.61157" lon="9.347855"><ele>762.75</ele><time>2026-03-28T16:50:09.018Z</time></trkpt><trkpt lat="44.6114733" lon="9.347755"><ele>760.0</ele><time>2026-03-28T16:50:10.017Z</time></trkpt><trkpt lat="44.6113683" lon="9.34767"><ele>760.0</ele><time>2026-03-28T16:50:11.018Z</time></trkpt><trkpt lat="44.6112817" lon="9.3476117"><ele>760.0</ele><time>2026-03-28T16:50:12.018Z</time></trkpt><trkpt lat="44.6111933" lon="9.3475933"><ele>760.0</ele><time>2026-03-28T16:50:13.018Z</time></trkpt><trkpt lat="44.6111" lon="9.347595"><ele>760.0</ele><time>2026-03-28T16:50:14.018Z</time></trkpt><trkpt lat="44.6110133" lon="9.3476083"><ele>760.0</ele><time>2026-03-28T16:50:15.017Z</time></trkpt><trkpt lat="44.6109417" lon="9.3475933"><ele>760.0</ele><time>2026-03-28T16:50:16.018Z</time></trkpt><trkpt lat="44.6108667" lon="9.3474917"><ele>758.5</ele><time>2026-03-28T16:50:18.017Z</time></trkpt><trkpt lat="44.6109183" lon="9.347335"><ele>757.0</ele><time>2026-03-28T16:50:20.018Z</time></trkpt><trkpt lat="44.611015" lon="9.3472417"><ele>755.5</ele><time>2026-03-28T16:50:21.018Z</time></trkpt><trkpt lat="44.611145" lon="9.3471733"><ele>754.0</ele><time>2026-03-28T16:50:22.018Z</time></trkpt><trkpt lat="44.6113067" lon="9.34711"><ele>751.25</ele><time>2026-03-28T16:50:23.018Z</time></trkpt><trkpt lat="44.6114433" lon="9.34703"><ele>748.5</ele><time>2026-03-28T16:50:24.018Z</time></trkpt><trkpt lat="44.6115433" lon="9.3469317"><ele>745.75</ele><time>2026-03-28T16:50:25.017Z</time></trkpt><trkpt lat="44.6116433" lon="9.3468517"><ele>743.0</ele><time>2026-03-28T16:50:26.017Z</time></trkpt><trkpt lat="44.61173" lon="9.346815"><ele>743.0</ele><time>2026-03-28T16:50:27.018Z</time></trkpt><trkpt lat="44.6118217" lon="9.3468117"><ele>743.0</ele><time>2026-03-28T16:50:28.018Z</time></trkpt><trkpt lat="44.6119367" lon="9.3468433"><ele>743.0</ele><time>2026-03-28T16:50:29.018Z</time></trkpt><trkpt lat="44.6120633" lon="9.3469033"><ele>743.0</ele><time>2026-03-28T16:50:30.018Z</time></trkpt><trkpt lat="44.612205" lon="9.346955"><ele>742.0</ele><time>2026-03-28T16:50:31.018Z</time></trkpt><trkpt lat="44.6123517" lon="9.34701"><ele>741.0</ele><time>2026-03-28T16:50:32.018Z</time></trkpt><trkpt lat="44.6124933" lon="9.34705"><ele>740.0</ele><time>2026-03-28T16:50:33.018Z</time></trkpt><trkpt lat="44.6126233" lon="9.3470933"><ele>739.0</ele><time>2026-03-28T16:50:34.018Z</time></trkpt><trkpt lat="44.6127517" lon="9.3471333"><ele>740.5</ele><time>2026-03-28T16:50:35.018Z</time></trkpt><trkpt lat="44.6128733" lon="9.3471817"><ele>742.0</ele><time>2026-03-28T16:50:36.018Z</time></trkpt><trkpt lat="44.61299" lon="9.3472333"><ele>743.5</ele><time>2026-03-28T16:50:37.018Z</time></trkpt><trkpt lat="44.613105" lon="9.347295"><ele>745.0</ele><time>2026-03-28T16:50:38.018Z</time></trkpt><trkpt lat="44.613215" lon="9.347375"><ele>745.0</ele><time>2026-03-28T16:50:39.018Z</time></trkpt><trkpt lat="44.6133233" lon="9.347465"><ele>745.0</ele><time>2026-03-28T16:50:40.018Z</time></trkpt><trkpt lat="44.61342" lon="9.34758"><ele>745.0</ele><time>2026-03-28T16:50:41.018Z</time></trkpt><trkpt lat="44.6135283" lon="9.347705"><ele>745.0</ele><time>2026-03-28T16:50:42.018Z</time></trkpt><trkpt lat="44.6136383" lon="9.3478583"><ele>740.6666666666667</ele><time>2026-03-28T16:50:43.018Z</time></trkpt><trkpt lat="44.6137583" lon="9.3480067"><ele>736.3333333333334</ele><time>2026-03-28T16:50:44.018Z</time></trkpt><trkpt lat="44.6138783" lon="9.3481483"><ele>732.0</ele><time>2026-03-28T16:50:45.018Z</time></trkpt><trkpt lat="44.6139917" lon="9.3482733"><ele>732.0</ele><time>2026-03-28T16:50:46.018Z</time></trkpt><trkpt lat="44.6140867" lon="9.34842"><ele>732.0</ele><time>2026-03-28T16:50:47.018Z</time></trkpt><trkpt lat="44.61415" lon="9.3485817"><ele>732.0</ele><time>2026-03-28T16:50:48.017Z</time></trkpt><trkpt lat="44.6142083" lon="9.348725"><ele>732.0</ele><time>2026-03-28T16:50:49.018Z</time></trkpt><trkpt lat="44.6142733" lon="9.34884"><ele>733.5</ele><time>2026-03-28T16:50:50.018Z</time></trkpt><trkpt lat="44.6143417" lon="9.3489217"><ele>735.0</ele><time>2026-03-28T16:50:51.017Z</time></trkpt><trkpt lat="44.6144067" lon="9.3489767"><ele>736.5</ele><time>2026-03-28T16:50:52.018Z</time></trkpt><trkpt lat="44.6144733" lon="9.3489933"><ele>738.0</ele><time>2026-03-28T16:50:53.017Z</time></trkpt><trkpt lat="44.61454" lon="9.3489733"><ele>739.5</ele><time>2026-03-28T16:50:54.018Z</time></trkpt><trkpt lat="44.614615" lon="9.3488117"><ele>741.0</ele><time>2026-03-28T16:50:56.018Z</time></trkpt><trkpt lat="44.614635" lon="9.3486483"><ele>741.0</ele><time>2026-03-28T16:50:57.018Z</time></trkpt><trkpt lat="44.61464" lon="9.3484317"><ele>741.0</ele><time>2026-03-28T16:50:58.017Z</time></trkpt><trkpt lat="44.6146583" lon="9.348185"><ele>741.0</ele><time>2026-03-28T16:50:59.017Z</time></trkpt><trkpt lat="44.6146883" lon="9.3479433"><ele>736.25</ele><time>2026-03-28T16:51:00.017Z</time></trkpt><trkpt lat="44.6147333" lon="9.3477267"><ele>731.5</ele><time>2026-03-28T16:51:01.018Z</time></trkpt><trkpt lat="44.6147767" lon="9.347545"><ele>726.75</ele><time>2026-03-28T16:51:02.018Z</time></trkpt><trkpt lat="44.6148183" lon="9.347385"><ele>722.0</ele><time>2026-03-28T16:51:03.018Z</time></trkpt><trkpt lat="44.614875" lon="9.3472583"><ele>717.5</ele><time>2026-03-28T16:51:04.018Z</time></trkpt><trkpt lat="44.6149533" lon="9.3471467"><ele>713.0</ele><time>2026-03-28T16:51:05.018Z</time></trkpt><trkpt lat="44.6150333" lon="9.347035"><ele>708.5</ele><time>2026-03-28T16:51:06.018Z</time></trkpt><trkpt lat="44.61512" lon="9.3469"><ele>704.0</ele><time>2026-03-28T16:51:07.018Z</time></trkpt><trkpt lat="44.6151933" lon="9.3467367"><ele>704.0</ele><time>2026-03-28T16:51:08.018Z</time></trkpt><trkpt lat="44.6152583" lon="9.34658"><ele>704.0</ele><time>2026-03-28T16:51:09.017Z</time></trkpt><trkpt lat="44.615315" lon="9.3464317"><ele>704.0</ele><time>2026-03-28T16:51:10.018Z</time></trkpt><trkpt lat="44.6153817" lon="9.3463067"><ele>704.0</ele><time>2026-03-28T16:51:11.018Z</time></trkpt><trkpt lat="44.61546" lon="9.346195"><ele>707.2</ele><time>2026-03-28T16:51:12.018Z</time></trkpt><trkpt lat="44.6155233" lon="9.3460767"><ele>710.4000000000001</ele><time>2026-03-28T16:51:13.018Z</time></trkpt><trkpt lat="44.61556" lon="9.3459517"><ele>713.6</ele><time>2026-03-28T16:51:14.017Z</time></trkpt><trkpt lat="44.6155733" lon="9.3458267"><ele>716.8</ele><time>2026-03-28T16:51:15.017Z</time></trkpt><trkpt lat="44.6155717" lon="9.3456867"><ele>720.0</ele><time>2026-03-28T16:51:16.017Z</time></trkpt><trkpt lat="44.6155817" lon="9.3455467"><ele>717.5</ele><time>2026-03-28T16:51:17.018Z</time></trkpt><trkpt lat="44.615605" lon="9.34538"><ele>715.0</ele><time>2026-03-28T16:51:18.018Z</time></trkpt><trkpt lat="44.6156267" lon="9.3451867"><ele>712.5</ele><time>2026-03-28T16:51:19.018Z</time></trkpt><trkpt lat="44.6156517" lon="9.34502"><ele>710.0</ele><time>2026-03-28T16:51:20.018Z</time></trkpt><trkpt lat="44.6156717" lon="9.34487"><ele>710.0</ele><time>2026-03-28T16:51:21.018Z</time></trkpt><trkpt lat="44.615695" lon="9.3447283"><ele>710.0</ele><time>2026-03-28T16:51:22.018Z</time></trkpt><trkpt lat="44.615735" lon="9.3445933"><ele>710.0</ele><time>2026-03-28T16:51:23.018Z</time></trkpt><trkpt lat="44.61579" lon="9.3444733"><ele>710.0</ele><time>2026-03-28T16:51:24.018Z</time></trkpt><trkpt lat="44.6158717" lon="9.34438"><ele>710.0</ele><time>2026-03-28T16:51:25.018Z</time></trkpt><trkpt lat="44.6159583" lon="9.3443017"><ele>708.6666666666666</ele><time>2026-03-28T16:51:26.018Z</time></trkpt><trkpt lat="44.6160383" lon="9.3442217"><ele>707.3333333333333</ele><time>2026-03-28T16:51:27.017Z</time></trkpt><trkpt lat="44.6160983" lon="9.3441433"><ele>706.0</ele><time>2026-03-28T16:51:28.018Z</time></trkpt><trkpt lat="44.6161333" lon="9.3440383"><ele>704.6666666666666</ele><time>2026-03-28T16:51:29.018Z</time></trkpt><trkpt lat="44.61614" lon="9.343925"><ele>703.3333333333334</ele><time>2026-03-28T16:51:30.018Z</time></trkpt><trkpt lat="44.6161267" lon="9.343805"><ele>702.0</ele><time>2026-03-28T16:51:31.018Z</time></trkpt><trkpt lat="44.6160933" lon="9.3436917"><ele>700.25</ele><time>2026-03-28T16:51:32.018Z</time></trkpt><trkpt lat="44.6160483" lon="9.34354"><ele>698.5</ele><time>2026-03-28T16:51:33.018Z</time></trkpt><trkpt lat="44.6160317" lon="9.3433933"><ele>696.75</ele><time>2026-03-28T16:51:34.018Z</time></trkpt><trkpt lat="44.616045" lon="9.34322"><ele>695.0</ele><time>2026-03-28T16:51:35.018Z</time></trkpt><trkpt lat="44.6160733" lon="9.34305"><ele>693.0</ele><time>2026-03-28T16:51:36.018Z</time></trkpt><trkpt lat="44.6161067" lon="9.34287"><ele>691.0</ele><time>2026-03-28T16:51:37.018Z</time></trkpt><trkpt lat="44.6161367" lon="9.3426867"><ele>689.0</ele><time>2026-03-28T16:51:38.017Z</time></trkpt><trkpt lat="44.6161667" lon="9.3425133"><ele>687.0</ele><time>2026-03-28T16:51:39.018Z</time></trkpt><trkpt lat="44.616195" lon="9.34235"><ele>694.0</ele><time>2026-03-28T16:51:40.018Z</time></trkpt><trkpt lat="44.6162017" lon="9.3421783"><ele>701.0</ele><time>2026-03-28T16:51:41.018Z</time></trkpt><trkpt lat="44.6161983" lon="9.342025"><ele>708.0</ele><time>2026-03-28T16:51:42.017Z</time></trkpt><trkpt lat="44.6161783" lon="9.3418633"><ele>715.0</ele><time>2026-03-28T16:51:43.018Z</time></trkpt><trkpt lat="44.6161667" lon="9.3417167"><ele>715.0</ele><time>2026-03-28T16:51:44.018Z</time></trkpt><trkpt lat="44.6161783" lon="9.34157"><ele>715.0</ele><time>2026-03-28T16:51:45.017Z</time></trkpt><trkpt lat="44.6162233" lon="9.3414317"><ele>715.0</ele><time>2026-03-28T16:51:46.017Z</time></trkpt><trkpt lat="44.61629" lon="9.34129"><ele>715.0</ele><time>2026-03-28T16:51:47.018Z</time></trkpt><trkpt lat="44.6163717" lon="9.3411383"><ele>709.0</ele><time>2026-03-28T16:51:48.018Z</time></trkpt><trkpt lat="44.6164567" lon="9.34098"><ele>703.0</ele><time>2026-03-28T16:51:49.018Z</time></trkpt><trkpt lat="44.6165433" lon="9.3408317"><ele>697.0</ele><time>2026-03-28T16:51:50.017Z</time></trkpt><trkpt lat="44.6166367" lon="9.3406967"><ele>691.0</ele><time>2026-03-28T16:51:51.018Z</time></trkpt><trkpt lat="44.61673" lon="9.340575"><ele>688.5</ele><time>2026-03-28T16:51:52.018Z</time></trkpt><trkpt lat="44.6168367" lon="9.3404717"><ele>686.0</ele><time>2026-03-28T16:51:53.018Z</time></trkpt><trkpt lat="44.6169433" lon="9.3403883"><ele>683.5</ele><time>2026-03-28T16:51:54.018Z</time></trkpt><trkpt lat="44.6170667" lon="9.34031"><ele>681.0</ele><time>2026-03-28T16:51:55.018Z</time></trkpt><trkpt lat="44.617195" lon="9.3402517"><ele>681.0</ele><time>2026-03-28T16:51:56.018Z</time></trkpt><trkpt lat="44.6173117" lon="9.340185"><ele>681.0</ele><time>2026-03-28T16:51:57.018Z</time></trkpt><trkpt lat="44.6174333" lon="9.340105"><ele>681.0</ele><time>2026-03-28T16:51:58.018Z</time></trkpt><trkpt lat="44.617545" lon="9.340005"><ele>681.0</ele><time>2026-03-28T16:51:59.018Z</time></trkpt><trkpt lat="44.617635" lon="9.3398867"><ele>681.0</ele><time>2026-03-28T16:52:00.018Z</time></trkpt><trkpt lat="44.617705" lon="9.3397483"><ele>681.0</ele><time>2026-03-28T16:52:01.018Z</time></trkpt><trkpt lat="44.61776" lon="9.3395817"><ele>681.0</ele><time>2026-03-28T16:52:02.018Z</time></trkpt><trkpt lat="44.6177983" lon="9.3394067"><ele>681.0</ele><time>2026-03-28T16:52:03.018Z</time></trkpt><trkpt lat="44.6178417" lon="9.33927"><ele>679.5999999999999</ele><time>2026-03-28T16:52:04.018Z</time></trkpt><trkpt lat="44.61789" lon="9.3391633"><ele>678.2</ele><time>2026-03-28T16:52:05.017Z</time></trkpt><trkpt lat="44.6179533" lon="9.3390783"><ele>676.8</ele><time>2026-03-28T16:52:06.017Z</time></trkpt><trkpt lat="44.6180333" lon="9.339025"><ele>675.4000000000001</ele><time>2026-03-28T16:52:07.017Z</time></trkpt><trkpt lat="44.61813" lon="9.33899"><ele>674.0</ele><time>2026-03-28T16:52:08.017Z</time></trkpt><trkpt lat="44.61825" lon="9.338965"><ele>674.0</ele><time>2026-03-28T16:52:09.018Z</time></trkpt><trkpt lat="44.6183717" lon="9.3389233"><ele>674.0</ele><time>2026-03-28T16:52:10.018Z</time></trkpt><trkpt lat="44.618475" lon="9.3388417"><ele>674.0</ele><time>2026-03-28T16:52:11.018Z</time></trkpt><trkpt lat="44.6185567" lon="9.3387267"><ele>674.0</ele><time>2026-03-28T16:52:12.018Z</time></trkpt><trkpt lat="44.61863" lon="9.338595"><ele>671.25</ele><time>2026-03-28T16:52:13.018Z</time></trkpt><trkpt lat="44.6187083" lon="9.3384683"><ele>668.5</ele><time>2026-03-28T16:52:14.018Z</time></trkpt><trkpt lat="44.61878" lon="9.3383533"><ele>665.75</ele><time>2026-03-28T16:52:15.018Z</time></trkpt><trkpt lat="44.6188617" lon="9.3382517"><ele>663.0</ele><time>2026-03-28T16:52:16.018Z</time></trkpt><trkpt lat="44.6189633" lon="9.3381717"><ele>663.0</ele><time>2026-03-28T16:52:17.017Z</time></trkpt><trkpt lat="44.6190717" lon="9.3381117"><ele>663.0</ele><time>2026-03-28T16:52:18.018Z</time></trkpt><trkpt lat="44.6191817" lon="9.338045"><ele>663.0</ele><time>2026-03-28T16:52:19.018Z</time></trkpt><trkpt lat="44.619295" lon="9.33799"><ele>663.0</ele><time>2026-03-28T16:52:20.018Z</time></trkpt><trkpt lat="44.6194033" lon="9.3379567"><ele>656.0</ele><time>2026-03-28T16:52:21.018Z</time></trkpt><trkpt lat="44.6195083" lon="9.3379333"><ele>649.0</ele><time>2026-03-28T16:52:22.018Z</time></trkpt><trkpt lat="44.619615" lon="9.3379283"><ele>642.0</ele><time>2026-03-28T16:52:23.018Z</time></trkpt><trkpt lat="44.6197333" lon="9.337955"><ele>635.0</ele><time>2026-03-28T16:52:24.018Z</time></trkpt><trkpt lat="44.6198567" lon="9.3380033"><ele>638.25</ele><time>2026-03-28T16:52:25.018Z</time></trkpt><trkpt lat="44.6199867" lon="9.338055"><ele>641.5</ele><time>2026-03-28T16:52:26.018Z</time></trkpt><trkpt lat="44.6201083" lon="9.3380983"><ele>644.75</ele><time>2026-03-28T16:52:27.018Z</time></trkpt><trkpt lat="44.6202417" lon="9.3381033"><ele>648.0</ele><time>2026-03-28T16:52:28.018Z</time></trkpt><trkpt lat="44.6203683" lon="9.3381017"><ele>648.0</ele><time>2026-03-28T16:52:29.018Z</time></trkpt><trkpt lat="44.6204967" lon="9.3381317"><ele>648.0</ele><time>2026-03-28T16:52:30.018Z</time></trkpt><trkpt lat="44.62062" lon="9.3381933"><ele>648.0</ele><time>2026-03-28T16:52:31.018Z</time></trkpt><trkpt lat="44.6207383" lon="9.3382633"><ele>648.0</ele><time>2026-03-28T16:52:32.018Z</time></trkpt><trkpt lat="44.6208483" lon="9.3383467"><ele>648.0</ele><time>2026-03-28T16:52:33.018Z</time></trkpt><trkpt lat="44.6209567" lon="9.3384133"><ele>648.0</ele><time>2026-03-28T16:52:34.017Z</time></trkpt><trkpt lat="44.6210517" lon="9.3384917"><ele>648.0</ele><time>2026-03-28T16:52:35.017Z</time></trkpt><trkpt lat="44.621125" lon="9.3385717"><ele>648.0</ele><time>2026-03-28T16:52:36.018Z</time></trkpt><trkpt lat="44.6211883" lon="9.33867"><ele>648.0</ele><time>2026-03-28T16:52:37.018Z</time></trkpt><trkpt lat="44.62124" lon="9.3388017"><ele>641.5</ele><time>2026-03-28T16:52:38.018Z</time></trkpt><trkpt lat="44.6212983" lon="9.3389617"><ele>635.0</ele><time>2026-03-28T16:52:39.018Z</time></trkpt><trkpt lat="44.6213567" lon="9.3391317"><ele>628.5</ele><time>2026-03-28T16:52:40.017Z</time></trkpt><trkpt lat="44.6214233" lon="9.3393133"><ele>622.0</ele><time>2026-03-28T16:52:41.017Z</time></trkpt><trkpt lat="44.6214883" lon="9.3394783"><ele>622.0</ele><time>2026-03-28T16:52:42.018Z</time></trkpt><trkpt lat="44.62155" lon="9.3396383"><ele>622.0</ele><time>2026-03-28T16:52:43.018Z</time></trkpt><trkpt lat="44.6216083" lon="9.3397983"><ele>622.0</ele><time>2026-03-28T16:52:44.018Z</time></trkpt><trkpt lat="44.6216733" lon="9.33994"><ele>622.0</ele><time>2026-03-28T16:52:45.017Z</time></trkpt><trkpt lat="44.62174" lon="9.34005"><ele>626.8</ele><time>2026-03-28T16:52:46.018Z</time></trkpt><trkpt lat="44.6218233" lon="9.3401317"><ele>631.6</ele><time>2026-03-28T16:52:47.018Z</time></trkpt><trkpt lat="44.6219067" lon="9.3402033"><ele>636.4</ele><time>2026-03-28T16:52:48.018Z</time></trkpt><trkpt lat="44.6219833" lon="9.340235"><ele>641.1999999999999</ele><time>2026-03-28T16:52:49.018Z</time></trkpt><trkpt lat="44.62205" lon="9.3402433"><ele>646.0</ele><time>2026-03-28T16:52:50.018Z</time></trkpt><trkpt lat="44.62216" lon="9.3401517"><ele>646.0</ele><time>2026-03-28T16:52:52.018Z</time></trkpt><trkpt lat="44.622185" lon="9.34006"><ele>646.0</ele><time>2026-03-28T16:52:53.018Z</time></trkpt><trkpt lat="44.6222083" lon="9.3399317"><ele>646.0</ele><time>2026-03-28T16:52:54.017Z</time></trkpt><trkpt lat="44.622235" lon="9.3397567"><ele>646.0</ele><time>2026-03-28T16:52:55.018Z</time></trkpt><trkpt lat="44.62226" lon="9.33955"><ele>646.0</ele><time>2026-03-28T16:52:56.018Z</time></trkpt><trkpt lat="44.6222967" lon="9.3393383"><ele>640.5</ele><time>2026-03-28T16:52:57.017Z</time></trkpt><trkpt lat="44.6223333" lon="9.3391517"><ele>635.0</ele><time>2026-03-28T16:52:58.018Z</time></trkpt><trkpt lat="44.6223933" lon="9.3389833"><ele>629.5</ele><time>2026-03-28T16:52:59.017Z</time></trkpt><trkpt lat="44.6224683" lon="9.338815"><ele>624.0</ele><time>2026-03-28T16:53:00.018Z</time></trkpt><trkpt lat="44.62255" lon="9.3386433"><ele>620.6</ele><time>2026-03-28T16:53:01.018Z</time></trkpt><trkpt lat="44.6226133" lon="9.3384917"><ele>617.2</ele><time>2026-03-28T16:53:02.018Z</time></trkpt><trkpt lat="44.622675" lon="9.33839"><ele>613.8000000000001</ele><time>2026-03-28T16:53:03.018Z</time></trkpt><trkpt lat="44.62274" lon="9.3383067"><ele>610.4</ele><time>2026-03-28T16:53:04.018Z</time></trkpt><trkpt lat="44.62282" lon="9.3382833"><ele>607.0</ele><time>2026-03-28T16:53:05.018Z</time></trkpt><trkpt lat="44.6229083" lon="9.3382933"><ele>607.0</ele><time>2026-03-28T16:53:06.018Z</time></trkpt><trkpt lat="44.6230133" lon="9.338355"><ele>607.0</ele><time>2026-03-28T16:53:07.018Z</time></trkpt><trkpt lat="44.6231233" lon="9.3384317"><ele>607.0</ele><time>2026-03-28T16:53:08.018Z</time></trkpt><trkpt lat="44.6232283" lon="9.3384633"><ele>607.0</ele><time>2026-03-28T16:53:09.018Z</time></trkpt><trkpt lat="44.6233133" lon="9.33845"><ele>607.0</ele><time>2026-03-28T16:53:10.018Z</time></trkpt><trkpt lat="44.6233717" lon="9.3384033"><ele>607.0</ele><time>2026-03-28T16:53:11.017Z</time></trkpt><trkpt lat="44.6234167" lon="9.3382967"><ele>607.0</ele><time>2026-03-28T16:53:12.018Z</time></trkpt><trkpt lat="44.62345" lon="9.3381583"><ele>607.0</ele><time>2026-03-28T16:53:13.018Z</time></trkpt><trkpt lat="44.6234933" lon="9.33799"><ele>607.0</ele><time>2026-03-28T16:53:14.018Z</time></trkpt><trkpt lat="44.6235467" lon="9.3378217"><ele>606.25</ele><time>2026-03-28T16:53:15.018Z</time></trkpt><trkpt lat="44.623615" lon="9.33764"><ele>605.5</ele><time>2026-03-28T16:53:16.018Z</time></trkpt><trkpt lat="44.6236733" lon="9.3374917"><ele>604.75</ele><time>2026-03-28T16:53:17.018Z</time></trkpt><trkpt lat="44.6237383" lon="9.3373667"><ele>604.0</ele><time>2026-03-28T16:53:18.018Z</time></trkpt><trkpt lat="44.6237867" lon="9.3372317"><ele>599.0</ele><time>2026-03-28T16:53:19.018Z</time></trkpt><trkpt lat="44.623855" lon="9.3371167"><ele>594.0</ele><time>2026-03-28T16:53:20.018Z</time></trkpt><trkpt lat="44.6239433" lon="9.3370367"><ele>589.0</ele><time>2026-03-28T16:53:21.018Z</time></trkpt><trkpt lat="44.62403" lon="9.3369733"><ele>584.0</ele><time>2026-03-28T16:53:22.018Z</time></trkpt><trkpt lat="44.6241533" lon="9.3369617"><ele>579.0</ele><time>2026-03-28T16:53:23.018Z</time></trkpt><trkpt lat="44.6242967" lon="9.336935"><ele>579.0</ele><time>2026-03-28T16:53:24.017Z</time></trkpt><trkpt lat="44.62445" lon="9.3368933"><ele>579.0</ele><time>2026-03-28T16:53:25.018Z</time></trkpt><trkpt lat="44.62459" lon="9.336835"><ele>579.0</ele><time>2026-03-28T16:53:26.018Z</time></trkpt><trkpt lat="44.62471" lon="9.3367467"><ele>579.0</ele><time>2026-03-28T16:53:27.018Z</time></trkpt><trkpt lat="44.6248183" lon="9.336675"><ele>579.0</ele><time>2026-03-28T16:53:28.018Z</time></trkpt><trkpt lat="44.624895" lon="9.3366033"><ele>579.0</ele><time>2026-03-28T16:53:29.018Z</time></trkpt><trkpt lat="44.6249417" lon="9.3365267"><ele>579.0</ele><time>2026-03-28T16:53:30.018Z</time></trkpt><trkpt lat="44.624965" lon="9.33639"><ele>579.0</ele><time>2026-03-28T16:53:32.018Z</time></trkpt><trkpt lat="44.6249117" lon="9.336315"><ele>579.0</ele><time>2026-03-28T16:53:33.018Z</time></trkpt><trkpt lat="44.62485" lon="9.336285"><ele>579.0</ele><time>2026-03-28T16:53:34.017Z</time></trkpt><trkpt lat="44.6247733" lon="9.3362983"><ele>579.0</ele><time>2026-03-28T16:53:35.018Z</time></trkpt><trkpt lat="44.6246967" lon="9.3363283"><ele>579.0</ele><time>2026-03-28T16:53:36.018Z</time></trkpt><trkpt lat="44.6245917" lon="9.3364"><ele>579.0</ele><time>2026-03-28T16:53:37.018Z</time></trkpt><trkpt lat="44.6244683" lon="9.33649"><ele>579.0</ele><time>2026-03-28T16:53:38.018Z</time></trkpt><trkpt lat="44.624345" lon="9.3365533"><ele>579.0</ele><time>2026-03-28T16:53:39.018Z</time></trkpt><trkpt lat="44.6242383" lon="9.33658"><ele>579.0</ele><time>2026-03-28T16:53:40.018Z</time></trkpt><trkpt lat="44.62415" lon="9.3365767"><ele>579.0</ele><time>2026-03-28T16:53:41.018Z</time></trkpt><trkpt lat="44.624075" lon="9.336545"><ele>579.0</ele><time>2026-03-28T16:53:42.018Z</time></trkpt><trkpt lat="44.6240183" lon="9.3364883"><ele>579.0</ele><time>2026-03-28T16:53:43.017Z</time></trkpt><trkpt lat="44.6239917" lon="9.33634"><ele>572.0</ele><time>2026-03-28T16:53:45.018Z</time></trkpt><trkpt lat="44.624025" lon="9.3362533"><ele>565.0</ele><time>2026-03-28T16:53:46.017Z</time></trkpt><trkpt lat="44.624105" lon="9.3361667"><ele>558.0</ele><time>2026-03-28T16:53:47.018Z</time></trkpt><trkpt lat="44.624215" lon="9.3360933"><ele>551.0</ele><time>2026-03-28T16:53:48.017Z</time></trkpt><trkpt lat="44.6243667" lon="9.3360317"><ele>549.0</ele><time>2026-03-28T16:53:49.017Z</time></trkpt><trkpt lat="44.62451" lon="9.335985"><ele>547.0</ele><time>2026-03-28T16:53:50.018Z</time></trkpt><trkpt lat="44.6246617" lon="9.3359617"><ele>545.0</ele><time>2026-03-28T16:53:51.017Z</time></trkpt><trkpt lat="44.6248033" lon="9.335935"><ele>543.0</ele><time>2026-03-28T16:53:52.018Z</time></trkpt><trkpt lat="44.6249083" lon="9.3359583"><ele>543.0</ele><time>2026-03-28T16:53:53.018Z</time></trkpt><trkpt lat="44.6249933" lon="9.3359933"><ele>543.0</ele><time>2026-03-28T16:53:54.018Z</time></trkpt><trkpt lat="44.6250717" lon="9.336065"><ele>543.0</ele><time>2026-03-28T16:53:55.018Z</time></trkpt><trkpt lat="44.625145" lon="9.336175"><ele>543.0</ele><time>2026-03-28T16:53:56.018Z</time></trkpt><trkpt lat="44.6252217" lon="9.3362683"><ele>543.0</ele><time>2026-03-28T16:53:57.018Z</time></trkpt><trkpt lat="44.6253183" lon="9.3363317"><ele>541.25</ele><time>2026-03-28T16:53:58.018Z</time></trkpt><trkpt lat="44.62544" lon="9.3363667"><ele>539.5</ele><time>2026-03-28T16:53:59.018Z</time></trkpt><trkpt lat="44.6255617" lon="9.3364233"><ele>537.75</ele><time>2026-03-28T16:54:00.018Z</time></trkpt><trkpt lat="44.62568" lon="9.33647"><ele>536.0</ele><time>2026-03-28T16:54:01.017Z</time></trkpt><trkpt lat="44.6257867" lon="9.336505"><ele>536.0</ele><time>2026-03-28T16:54:02.018Z</time></trkpt><trkpt lat="44.6259033" lon="9.3364867"><ele>536.0</ele><time>2026-03-28T16:54:03.018Z</time></trkpt><trkpt lat="44.625995" lon="9.33642"><ele>536.0</ele><time>2026-03-28T16:54:04.018Z</time></trkpt><trkpt lat="44.6260867" lon="9.3363483"><ele>536.0</ele><time>2026-03-28T16:54:05.018Z</time></trkpt><trkpt lat="44.6261717" lon="9.3362833"><ele>536.0</ele><time>2026-03-28T16:54:06.018Z</time></trkpt><trkpt lat="44.6262317" lon="9.3362117"><ele>536.0</ele><time>2026-03-28T16:54:07.018Z</time></trkpt><trkpt lat="44.6262483" lon="9.3360467"><ele>536.0</ele><time>2026-03-28T16:54:09.018Z</time></trkpt><trkpt lat="44.6261383" lon="9.3359483"><ele>536.0</ele><time>2026-03-28T16:54:11.018Z</time></trkpt><trkpt lat="44.6260483" lon="9.3359667"><ele>536.0</ele><time>2026-03-28T16:54:12.018Z</time></trkpt><trkpt lat="44.625935" lon="9.33602"><ele>536.0</ele><time>2026-03-28T16:54:13.018Z</time></trkpt><trkpt lat="44.625815" lon="9.3360517"><ele>536.0</ele><time>2026-03-28T16:54:14.018Z</time></trkpt><trkpt lat="44.6257033" lon="9.3360467"><ele>536.0</ele><time>2026-03-28T16:54:15.018Z</time></trkpt><trkpt lat="44.6255767" lon="9.3359883"><ele>536.0</ele><time>2026-03-28T16:54:16.018Z</time></trkpt><trkpt lat="44.6254567" lon="9.3359033"><ele>536.0</ele><time>2026-03-28T16:54:17.018Z</time></trkpt><trkpt lat="44.6253333" lon="9.335825"><ele>536.0</ele><time>2026-03-28T16:54:18.017Z</time></trkpt><trkpt lat="44.6252117" lon="9.3357467"><ele>536.0</ele><time>2026-03-28T16:54:19.018Z</time></trkpt><trkpt lat="44.625095" lon="9.3356783"><ele>536.0</ele><time>2026-03-28T16:54:20.018Z</time></trkpt><trkpt lat="44.6249717" lon="9.3355867"><ele>529.75</ele><time>2026-03-28T16:54:21.018Z</time></trkpt><trkpt lat="44.62485" lon="9.3355233"><ele>523.5</ele><time>2026-03-28T16:54:22.017Z</time></trkpt><trkpt lat="44.6247233" lon="9.3354817"><ele>517.25</ele><time>2026-03-28T16:54:23.018Z</time></trkpt><trkpt lat="44.624575" lon="9.3354583"><ele>511.0</ele><time>2026-03-28T16:54:24.018Z</time></trkpt><trkpt lat="44.62443" lon="9.3354383"><ele>511.0</ele><time>2026-03-28T16:54:25.018Z</time></trkpt><trkpt lat="44.6242717" lon="9.3354283"><ele>511.0</ele><time>2026-03-28T16:54:26.018Z</time></trkpt><trkpt lat="44.6241267" lon="9.33541"><ele>511.0</ele><time>2026-03-28T16:54:27.018Z</time></trkpt><trkpt lat="44.6239917" lon="9.3353967"><ele>511.0</ele><time>2026-03-28T16:54:28.018Z</time></trkpt><trkpt lat="44.6238583" lon="9.33539"><ele>511.0</ele><time>2026-03-28T16:54:29.018Z</time></trkpt><trkpt lat="44.6237267" lon="9.3353667"><ele>511.0</ele><time>2026-03-28T16:54:30.018Z</time></trkpt><trkpt lat="44.6235917" lon="9.3353583"><ele>511.0</ele><time>2026-03-28T16:54:31.018Z</time></trkpt><trkpt lat="44.6234633" lon="9.3353317"><ele>511.0</ele><time>2026-03-28T16:54:32.018Z</time></trkpt><trkpt lat="44.6233467" lon="9.335285"><ele>511.25</ele><time>2026-03-28T16:54:33.018Z</time></trkpt><trkpt lat="44.6232383" lon="9.33521"><ele>511.5</ele><time>2026-03-28T16:54:34.018Z</time></trkpt><trkpt lat="44.6231417" lon="9.3350967"><ele>511.75</ele><time>2026-03-28T16:54:35.018Z</time></trkpt><trkpt lat="44.623065" lon="9.334985"><ele>512.0</ele><time>2026-03-28T16:54:36.018Z</time></trkpt><trkpt lat="44.622985" lon="9.33488"><ele>511.99999999999994</ele><time>2026-03-28T16:54:37.018Z</time></trkpt><trkpt lat="44.62291" lon="9.3347883"><ele>512.0</ele><time>2026-03-28T16:54:38.018Z</time></trkpt><trkpt lat="44.6228417" lon="9.3347267"><ele>512.0</ele><time>2026-03-28T16:54:39.017Z</time></trkpt><trkpt lat="44.622765" lon="9.3346917"><ele>512.0</ele><time>2026-03-28T16:54:40.018Z</time></trkpt><trkpt lat="44.6226917" lon="9.334685"><ele>511.99999999999994</ele><time>2026-03-28T16:54:41.018Z</time></trkpt><trkpt lat="44.622605" lon="9.3347083"><ele>512.0</ele><time>2026-03-28T16:54:42.018Z</time></trkpt><trkpt lat="44.622515" lon="9.33477"><ele>512.2</ele><time>2026-03-28T16:54:43.017Z</time></trkpt><trkpt lat="44.6224233" lon="9.3348517"><ele>512.4000000000001</ele><time>2026-03-28T16:54:44.018Z</time></trkpt><trkpt lat="44.622335" lon="9.3349333"><ele>512.5999999999999</ele><time>2026-03-28T16:54:45.018Z</time></trkpt><trkpt lat="44.6222467" lon="9.33499"><ele>512.8</ele><time>2026-03-28T16:54:46.018Z</time></trkpt><trkpt lat="44.6221667" lon="9.3350317"><ele>513.0</ele><time>2026-03-28T16:54:47.018Z</time></trkpt><trkpt lat="44.6220583" lon="9.334985"><ele>513.0</ele><time>2026-03-28T16:54:49.018Z</time></trkpt><trkpt lat="44.6220467" lon="9.3348283"><ele>513.0</ele><time>2026-03-28T16:54:51.018Z</time></trkpt><trkpt lat="44.6220817" lon="9.3347467"><ele>513.0</ele><time>2026-03-28T16:54:52.018Z</time></trkpt><trkpt lat="44.622135" lon="9.3346617"><ele>513.0</ele><time>2026-03-28T16:54:53.018Z</time></trkpt><trkpt lat="44.6221867" lon="9.334575"><ele>513.0</ele><time>2026-03-28T16:54:54.018Z</time></trkpt><trkpt lat="44.622265" lon="9.3344333"><ele>510.75</ele><time>2026-03-28T16:54:55.018Z</time></trkpt><trkpt lat="44.6223433" lon="9.3342883"><ele>508.5</ele><time>2026-03-28T16:54:56.018Z</time></trkpt><trkpt lat="44.62242" lon="9.3341517"><ele>506.25</ele><time>2026-03-28T16:54:57.018Z</time></trkpt><trkpt lat="44.6224883" lon="9.3340333"><ele>504.0</ele><time>2026-03-28T16:54:58.018Z</time></trkpt><trkpt lat="44.6225567" lon="9.3339233"><ele>504.0</ele><time>2026-03-28T16:54:59.018Z</time></trkpt><trkpt lat="44.6226167" lon="9.33381"><ele>504.0</ele><time>2026-03-28T16:55:00.018Z</time></trkpt><trkpt lat="44.6226717" lon="9.3337"><ele>504.0</ele><time>2026-03-28T16:55:01.018Z</time></trkpt><trkpt lat="44.62273" lon="9.3336017"><ele>504.0</ele><time>2026-03-28T16:55:02.017Z</time></trkpt><trkpt lat="44.6227933" lon="9.33353"><ele>504.0</ele><time>2026-03-28T16:55:03.017Z</time></trkpt><trkpt lat="44.6228583" lon="9.33348"><ele>504.0</ele><time>2026-03-28T16:55:04.017Z</time></trkpt><trkpt lat="44.6229267" lon="9.3334583"><ele>502.1666666666667</ele><time>2026-03-28T16:55:05.018Z</time></trkpt><trkpt lat="44.6230033" lon="9.33346"><ele>500.33333333333337</ele><time>2026-03-28T16:55:06.018Z</time></trkpt><trkpt lat="44.6230817" lon="9.3334967"><ele>498.5</ele><time>2026-03-28T16:55:07.018Z</time></trkpt><trkpt lat="44.6231617" lon="9.333535"><ele>496.6666666666667</ele><time>2026-03-28T16:55:08.018Z</time></trkpt><trkpt lat="44.6232467" lon="9.3335667"><ele>494.83333333333337</ele><time>2026-03-28T16:55:09.018Z</time></trkpt><trkpt lat="44.623325" lon="9.3335967"><ele>493.0</ele><time>2026-03-28T16:55:10.018Z</time></trkpt><trkpt lat="44.6233983" lon="9.333625"><ele>493.0</ele><time>2026-03-28T16:55:11.018Z</time></trkpt><trkpt lat="44.6234983" lon="9.3336617"><ele>492.99999999999994</ele><time>2026-03-28T16:55:13.018Z</time></trkpt><trkpt lat="44.6235283" lon="9.333755"><ele>492.99999999999994</ele><time>2026-03-28T16:55:16.018Z</time></trkpt><trkpt lat="44.6234933" lon="9.333915"><ele>493.0</ele><time>2026-03-28T16:55:18.018Z</time></trkpt><trkpt lat="44.6235017" lon="9.3340767"><ele>493.0</ele><time>2026-03-28T16:55:20.018Z</time></trkpt><trkpt lat="44.6235783" lon="9.3342317"><ele>493.00000000000006</ele><time>2026-03-28T16:55:22.018Z</time></trkpt><trkpt lat="44.6236333" lon="9.3343067"><ele>493.0</ele><time>2026-03-28T16:55:23.018Z</time></trkpt><trkpt lat="44.6236967" lon="9.3343783"><ele>493.0</ele><time>2026-03-28T16:55:24.018Z</time></trkpt><trkpt lat="44.6237717" lon="9.33444"><ele>493.0</ele><time>2026-03-28T16:55:25.018Z</time></trkpt><trkpt lat="44.623855" lon="9.3344767"><ele>493.00000000000006</ele><time>2026-03-28T16:55:26.018Z</time></trkpt><trkpt lat="44.6239433" lon="9.3345067"><ele>493.0</ele><time>2026-03-28T16:55:27.017Z</time></trkpt><trkpt lat="44.6240383" lon="9.3345283"><ele>492.0</ele><time>2026-03-28T16:55:28.018Z</time></trkpt><trkpt lat="44.6241317" lon="9.3345517"><ele>490.99999999999994</ele><time>2026-03-28T16:55:29.018Z</time></trkpt><trkpt lat="44.62423" lon="9.3345733"><ele>489.99999999999994</ele><time>2026-03-28T16:55:30.018Z</time></trkpt><trkpt lat="44.6243267" lon="9.3345933"><ele>489.0</ele><time>2026-03-28T16:55:31.018Z</time></trkpt><trkpt lat="44.6244233" lon="9.3345967"><ele>488.0</ele><time>2026-03-28T16:55:32.018Z</time></trkpt><trkpt lat="44.6245167" lon="9.3346033"><ele>487.0</ele><time>2026-03-28T16:55:33.018Z</time></trkpt><trkpt lat="44.6246117" lon="9.3346"><ele>485.99999999999994</ele><time>2026-03-28T16:55:34.018Z</time></trkpt><trkpt lat="44.6247183" lon="9.334595"><ele>484.99999999999994</ele><time>2026-03-28T16:55:35.018Z</time></trkpt><trkpt lat="44.62483" lon="9.3345983"><ele>484.0</ele><time>2026-03-28T16:55:36.018Z</time></trkpt><trkpt lat="44.6249533" lon="9.3346067"><ele>483.0</ele><time>2026-03-28T16:55:37.018Z</time></trkpt><trkpt lat="44.625085" lon="9.33461"><ele>483.0</ele><time>2026-03-28T16:55:38.018Z</time></trkpt><trkpt lat="44.625215" lon="9.334605"><ele>483.0</ele><time>2026-03-28T16:55:39.018Z</time></trkpt><trkpt lat="44.6253633" lon="9.3346033"><ele>483.0</ele><time>2026-03-28T16:55:40.018Z</time></trkpt><trkpt lat="44.6254967" lon="9.334605"><ele>483.0</ele><time>2026-03-28T16:55:41.019Z</time></trkpt><trkpt lat="44.625605" lon="9.3346117"><ele>482.0</ele><time>2026-03-28T16:55:42.019Z</time></trkpt><trkpt lat="44.6256933" lon="9.3346317"><ele>480.99999999999994</ele><time>2026-03-28T16:55:43.019Z</time></trkpt><trkpt lat="44.62579" lon="9.334685"><ele>479.99999999999994</ele><time>2026-03-28T16:55:44.019Z</time></trkpt><trkpt lat="44.6258833" lon="9.33473"><ele>479.0</ele><time>2026-03-28T16:55:45.019Z</time></trkpt><trkpt lat="44.62598" lon="9.3347383"><ele>478.0</ele><time>2026-03-28T16:55:46.019Z</time></trkpt><trkpt lat="44.6260767" lon="9.3347417"><ele>478.5</ele><time>2026-03-28T16:55:47.019Z</time></trkpt><trkpt lat="44.6261783" lon="9.3347267"><ele>479.0</ele><time>2026-03-28T16:55:48.019Z</time></trkpt><trkpt lat="44.6262917" lon="9.3347033"><ele>479.5</ele><time>2026-03-28T16:55:49.019Z</time></trkpt><trkpt lat="44.6264133" lon="9.3346717"><ele>480.0</ele><time>2026-03-28T16:55:50.018Z</time></trkpt><trkpt lat="44.6265333" lon="9.3346367"><ele>480.0</ele><time>2026-03-28T16:55:51.019Z</time></trkpt><trkpt lat="44.6266433" lon="9.334615"><ele>480.0</ele><time>2026-03-28T16:55:52.018Z</time></trkpt><trkpt lat="44.6267433" lon="9.3345967"><ele>480.0</ele><time>2026-03-28T16:55:53.018Z</time></trkpt><trkpt lat="44.626845" lon="9.3346083"><ele>480.0</ele><time>2026-03-28T16:55:54.019Z</time></trkpt><trkpt lat="44.626965" lon="9.3346583"><ele>480.0</ele><time>2026-03-28T16:55:55.018Z</time></trkpt><trkpt lat="44.6270733" lon="9.3347167"><ele>485.75</ele><time>2026-03-28T16:55:56.019Z</time></trkpt><trkpt lat="44.6272" lon="9.334785"><ele>491.5</ele><time>2026-03-28T16:55:57.019Z</time></trkpt><trkpt lat="44.627325" lon="9.3348533"><ele>497.25</ele><time>2026-03-28T16:55:58.019Z</time></trkpt><trkpt lat="44.627455" lon="9.3349017"><ele>503.0</ele><time>2026-03-28T16:55:59.019Z</time></trkpt><trkpt lat="44.62757" lon="9.3349583"><ele>503.0</ele><time>2026-03-28T16:56:00.019Z</time></trkpt><trkpt lat="44.6276783" lon="9.3349833"><ele>503.0</ele><time>2026-03-28T16:56:01.018Z</time></trkpt><trkpt lat="44.6277933" lon="9.33498"><ele>503.0</ele><time>2026-03-28T16:56:02.019Z</time></trkpt><trkpt lat="44.6279117" lon="9.334975"><ele>503.0</ele><time>2026-03-28T16:56:03.019Z</time></trkpt><trkpt lat="44.628035" lon="9.3349517"><ele>501.4</ele><time>2026-03-28T16:56:04.019Z</time></trkpt><trkpt lat="44.6281467" lon="9.3349333"><ele>499.79999999999995</ele><time>2026-03-28T16:56:05.019Z</time></trkpt><trkpt lat="44.62825" lon="9.334915"><ele>498.2</ele><time>2026-03-28T16:56:06.019Z</time></trkpt><trkpt lat="44.62835" lon="9.3348917"><ele>496.6</ele><time>2026-03-28T16:56:07.019Z</time></trkpt><trkpt lat="44.6284567" lon="9.33485"><ele>495.0</ele><time>2026-03-28T16:56:08.019Z</time></trkpt><trkpt lat="44.62856" lon="9.334785"><ele>492.75</ele><time>2026-03-28T16:56:09.019Z</time></trkpt><trkpt lat="44.62866" lon="9.334685"><ele>490.5</ele><time>2026-03-28T16:56:10.019Z</time></trkpt><trkpt lat="44.62875" lon="9.33457"><ele>488.25</ele><time>2026-03-28T16:56:11.019Z</time></trkpt><trkpt lat="44.628845" lon="9.33448"><ele>486.0</ele><time>2026-03-28T16:56:12.018Z</time></trkpt><trkpt lat="44.6289467" lon="9.3344217"><ele>486.0</ele><time>2026-03-28T16:56:13.019Z</time></trkpt><trkpt lat="44.629055" lon="9.334385"><ele>486.0</ele><time>2026-03-28T16:56:14.019Z</time></trkpt><trkpt lat="44.6291683" lon="9.3343533"><ele>486.0</ele><time>2026-03-28T16:56:15.019Z</time></trkpt><trkpt lat="44.6292867" lon="9.334325"><ele>486.0</ele><time>2026-03-28T16:56:16.019Z</time></trkpt><trkpt lat="44.6294083" lon="9.334305"><ele>487.5</ele><time>2026-03-28T16:56:17.019Z</time></trkpt><trkpt lat="44.6295217" lon="9.33428"><ele>489.0</ele><time>2026-03-28T16:56:18.019Z</time></trkpt><trkpt lat="44.6296317" lon="9.3342483"><ele>490.5</ele><time>2026-03-28T16:56:19.019Z</time></trkpt><trkpt lat="44.6297417" lon="9.3342033"><ele>492.0</ele><time>2026-03-28T16:56:20.019Z</time></trkpt><trkpt lat="44.629845" lon="9.334135"><ele>492.0</ele><time>2026-03-28T16:56:21.019Z</time></trkpt><trkpt lat="44.6299433" lon="9.3340367"><ele>492.0</ele><time>2026-03-28T16:56:22.019Z</time></trkpt><trkpt lat="44.6300133" lon="9.3338883"><ele>492.0</ele><time>2026-03-28T16:56:23.019Z</time></trkpt><trkpt lat="44.6300717" lon="9.3337283"><ele>492.0</ele><time>2026-03-28T16:56:24.019Z</time></trkpt><trkpt lat="44.6301133" lon="9.3335633"><ele>490.6</ele><time>2026-03-28T16:56:25.019Z</time></trkpt><trkpt lat="44.6301583" lon="9.3334117"><ele>489.20000000000005</ele><time>2026-03-28T16:56:26.019Z</time></trkpt><trkpt lat="44.6301883" lon="9.3332883"><ele>487.8</ele><time>2026-03-28T16:56:27.019Z</time></trkpt><trkpt lat="44.6302333" lon="9.3331933"><ele>486.4</ele><time>2026-03-28T16:56:28.018Z</time></trkpt><trkpt lat="44.6302933" lon="9.3331183"><ele>485.0</ele><time>2026-03-28T16:56:29.019Z</time></trkpt><trkpt lat="44.630365" lon="9.333045"><ele>485.0</ele><time>2026-03-28T16:56:30.019Z</time></trkpt><trkpt lat="44.6304567" lon="9.332975"><ele>485.0</ele><time>2026-03-28T16:56:31.019Z</time></trkpt><trkpt lat="44.6305483" lon="9.3329117"><ele>485.0</ele><time>2026-03-28T16:56:32.019Z</time></trkpt><trkpt lat="44.6306467" lon="9.332835"><ele>485.0</ele><time>2026-03-28T16:56:33.019Z</time></trkpt><trkpt lat="44.63075" lon="9.332755"><ele>485.0</ele><time>2026-03-28T16:56:34.019Z</time></trkpt><trkpt lat="44.6308517" lon="9.33266"><ele>485.0</ele><time>2026-03-28T16:56:35.019Z</time></trkpt><trkpt lat="44.630945" lon="9.332545"><ele>485.0</ele><time>2026-03-28T16:56:36.019Z</time></trkpt><trkpt lat="44.631035" lon="9.3324183"><ele>485.0</ele><time>2026-03-28T16:56:37.019Z</time></trkpt><trkpt lat="44.6311267" lon="9.3322883"><ele>485.0</ele><time>2026-03-28T16:56:38.019Z</time></trkpt><trkpt lat="44.6312117" lon="9.3321717"><ele>483.75</ele><time>2026-03-28T16:56:39.019Z</time></trkpt><trkpt lat="44.63129" lon="9.332055"><ele>482.5</ele><time>2026-03-28T16:56:40.018Z</time></trkpt><trkpt lat="44.6313733" lon="9.331945"><ele>481.25</ele><time>2026-03-28T16:56:41.019Z</time></trkpt><trkpt lat="44.6314633" lon="9.3318383"><ele>480.0</ele><time>2026-03-28T16:56:42.019Z</time></trkpt><trkpt lat="44.6315617" lon="9.3317267"><ele>480.0</ele><time>2026-03-28T16:56:43.019Z</time></trkpt><trkpt lat="44.6316683" lon="9.331625"><ele>480.0</ele><time>2026-03-28T16:56:44.018Z</time></trkpt><trkpt lat="44.631795" lon="9.331515"><ele>480.0</ele><time>2026-03-28T16:56:45.019Z</time></trkpt><trkpt lat="44.63192" lon="9.331375"><ele>480.0</ele><time>2026-03-28T16:56:46.019Z</time></trkpt><trkpt lat="44.6320583" lon="9.33122"><ele>478.66666666666663</ele><time>2026-03-28T16:56:47.019Z</time></trkpt><trkpt lat="44.6321967" lon="9.3310767"><ele>477.3333333333333</ele><time>2026-03-28T16:56:48.019Z</time></trkpt><trkpt lat="44.6323383" lon="9.3309317"><ele>476.0</ele><time>2026-03-28T16:56:49.019Z</time></trkpt><trkpt lat="44.6324783" lon="9.3307933"><ele>476.0</ele><time>2026-03-28T16:56:50.018Z</time></trkpt><trkpt lat="44.6326233" lon="9.3306583"><ele>476.0</ele><time>2026-03-28T16:56:51.019Z</time></trkpt><trkpt lat="44.6327717" lon="9.3305233"><ele>476.0</ele><time>2026-03-28T16:56:52.018Z</time></trkpt><trkpt lat="44.632925" lon="9.3303967"><ele>474.66666666666663</ele><time>2026-03-28T16:56:53.019Z</time></trkpt><trkpt lat="44.6330817" lon="9.3302717"><ele>473.33333333333337</ele><time>2026-03-28T16:56:54.019Z</time></trkpt><trkpt lat="44.633235" lon="9.330155"><ele>472.0</ele><time>2026-03-28T16:56:55.018Z</time></trkpt><trkpt lat="44.6334033" lon="9.3300483"><ele>472.0</ele><time>2026-03-28T16:56:56.018Z</time></trkpt><trkpt lat="44.63359" lon="9.3299383"><ele>472.0</ele><time>2026-03-28T16:56:57.019Z</time></trkpt><trkpt lat="44.6337633" lon="9.329825"><ele>472.0</ele><time>2026-03-28T16:56:58.019Z</time></trkpt><trkpt lat="44.63394" lon="9.329715"><ele>471.0</ele><time>2026-03-28T16:56:59.019Z</time></trkpt><trkpt lat="44.6341167" lon="9.3295983"><ele>470.0</ele><time>2026-03-28T16:57:00.019Z</time></trkpt><trkpt lat="44.63429" lon="9.32946"><ele>469.0</ele><time>2026-03-28T16:57:01.019Z</time></trkpt><trkpt lat="44.6344733" lon="9.329345"><ele>471.6666666666667</ele><time>2026-03-28T16:57:02.019Z</time></trkpt><trkpt lat="44.6346483" lon="9.3292167"><ele>474.33333333333337</ele><time>2026-03-28T16:57:03.019Z</time></trkpt><trkpt lat="44.63483" lon="9.3291033"><ele>477.0</ele><time>2026-03-28T16:57:04.018Z</time></trkpt><trkpt lat="44.634995" lon="9.3289933"><ele>473.66666666666663</ele><time>2026-03-28T16:57:05.019Z</time></trkpt><trkpt lat="44.6351533" lon="9.3288867"><ele>470.3333333333333</ele><time>2026-03-28T16:57:06.019Z</time></trkpt><trkpt lat="44.6353067" lon="9.3287783"><ele>467.0</ele><time>2026-03-28T16:57:07.019Z</time></trkpt><trkpt lat="44.6354667" lon="9.3286717"><ele>467.0</ele><time>2026-03-28T16:57:08.019Z</time></trkpt><trkpt lat="44.6356283" lon="9.3285883"><ele>467.0</ele><time>2026-03-28T16:57:09.018Z</time></trkpt><trkpt lat="44.6357983" lon="9.3285317"><ele>467.0</ele><time>2026-03-28T16:57:10.019Z</time></trkpt><trkpt lat="44.635975" lon="9.328485"><ele>465.66666666666663</ele><time>2026-03-28T16:57:11.019Z</time></trkpt><trkpt lat="44.6361533" lon="9.3284983"><ele>464.33333333333337</ele><time>2026-03-28T16:57:12.018Z</time></trkpt><trkpt lat="44.6363467" lon="9.3285283"><ele>463.0</ele><time>2026-03-28T16:57:13.019Z</time></trkpt><trkpt lat="44.6365467" lon="9.328595"><ele>463.0</ele><time>2026-03-28T16:57:14.018Z</time></trkpt><trkpt lat="44.6367317" lon="9.3286667"><ele>463.0</ele><time>2026-03-28T16:57:15.019Z</time></trkpt><trkpt lat="44.6369183" lon="9.328765"><ele>463.0</ele><time>2026-03-28T16:57:16.019Z</time></trkpt><trkpt lat="44.6370917" lon="9.3289067"><ele>464.6666666666667</ele><time>2026-03-28T16:57:17.019Z</time></trkpt><trkpt lat="44.6372617" lon="9.32905"><ele>466.33333333333337</ele><time>2026-03-28T16:57:18.018Z</time></trkpt><trkpt lat="44.63744" lon="9.329175"><ele>468.0</ele><time>2026-03-28T16:57:19.019Z</time></trkpt><trkpt lat="44.637615" lon="9.3293"><ele>468.0</ele><time>2026-03-28T16:57:20.019Z</time></trkpt><trkpt lat="44.6377817" lon="9.3294217"><ele>468.0</ele><time>2026-03-28T16:57:21.018Z</time></trkpt><trkpt lat="44.63794" lon="9.3295417"><ele>468.0</ele><time>2026-03-28T16:57:22.019Z</time></trkpt><trkpt lat="44.6381017" lon="9.3296567"><ele>469.66666666666663</ele><time>2026-03-28T16:57:23.019Z</time></trkpt><trkpt lat="44.63826" lon="9.3297733"><ele>471.3333333333333</ele><time>2026-03-28T16:57:24.018Z</time></trkpt><trkpt lat="44.6384217" lon="9.3298817"><ele>473.0</ele><time>2026-03-28T16:57:25.019Z</time></trkpt><trkpt lat="44.6385917" lon="9.3299667"><ele>469.0</ele><time>2026-03-28T16:57:26.019Z</time></trkpt><trkpt lat="44.63876" lon="9.3300167"><ele>465.0</ele><time>2026-03-28T16:57:27.018Z</time></trkpt><trkpt lat="44.6389283" lon="9.3300333"><ele>461.0</ele><time>2026-03-28T16:57:28.019Z</time></trkpt><trkpt lat="44.63909" lon="9.3300333"><ele>461.0</ele><time>2026-03-28T16:57:29.019Z</time></trkpt><trkpt lat="44.63926" lon="9.33002"><ele>461.0</ele><time>2026-03-28T16:57:30.019Z</time></trkpt><trkpt lat="44.639435" lon="9.32999"><ele>461.0</ele><time>2026-03-28T16:57:31.019Z</time></trkpt><trkpt lat="44.63961" lon="9.3299483"><ele>460.3333333333333</ele><time>2026-03-28T16:57:32.018Z</time></trkpt><trkpt lat="44.639775" lon="9.3299033"><ele>459.66666666666663</ele><time>2026-03-28T16:57:33.019Z</time></trkpt><trkpt lat="44.639955" lon="9.329875"><ele>459.0</ele><time>2026-03-28T16:57:34.019Z</time></trkpt><trkpt lat="44.640125" lon="9.3298433"><ele>459.0</ele><time>2026-03-28T16:57:35.019Z</time></trkpt><trkpt lat="44.6402967" lon="9.329795"><ele>459.0</ele><time>2026-03-28T16:57:36.019Z</time></trkpt><trkpt lat="44.64047" lon="9.3297417"><ele>459.0</ele><time>2026-03-28T16:57:37.019Z</time></trkpt><trkpt lat="44.6406433" lon="9.3297"><ele>460.66666666666663</ele><time>2026-03-28T16:57:38.019Z</time></trkpt><trkpt lat="44.640825" lon="9.329655"><ele>462.3333333333333</ele><time>2026-03-28T16:57:39.018Z</time></trkpt><trkpt lat="44.6410133" lon="9.3296067"><ele>464.0</ele><time>2026-03-28T16:57:40.018Z</time></trkpt><trkpt lat="44.6411983" lon="9.329565"><ele>464.0</ele><time>2026-03-28T16:57:41.019Z</time></trkpt><trkpt lat="44.6413883" lon="9.3295233"><ele>464.0</ele><time>2026-03-28T16:57:42.019Z</time></trkpt><trkpt lat="44.6415667" lon="9.3294717"><ele>464.0</ele><time>2026-03-28T16:57:43.019Z</time></trkpt><trkpt lat="44.6417517" lon="9.3294217"><ele>464.0</ele><time>2026-03-28T16:57:44.019Z</time></trkpt><trkpt lat="44.64194" lon="9.3293683"><ele>464.0</ele><time>2026-03-28T16:57:45.019Z</time></trkpt><trkpt lat="44.6421283" lon="9.3293133"><ele>464.0</ele><time>2026-03-28T16:57:46.018Z</time></trkpt><trkpt lat="44.6423167" lon="9.3292567"><ele>463.0</ele><time>2026-03-28T16:57:47.019Z</time></trkpt><trkpt lat="44.6425083" lon="9.329205"><ele>462.0</ele><time>2026-03-28T16:57:48.019Z</time></trkpt><trkpt lat="44.642705" lon="9.3291483"><ele>461.0</ele><time>2026-03-28T16:57:49.019Z</time></trkpt><trkpt lat="44.6429133" lon="9.3291017"><ele>460.3333333333333</ele><time>2026-03-28T16:57:50.019Z</time></trkpt><trkpt lat="44.6431183" lon="9.329045"><ele>459.66666666666663</ele><time>2026-03-28T16:57:51.018Z</time></trkpt><trkpt lat="44.6433233" lon="9.3289933"><ele>459.0</ele><time>2026-03-28T16:57:52.019Z</time></trkpt><trkpt lat="44.6435267" lon="9.32894"><ele>462.33333333333337</ele><time>2026-03-28T16:57:53.019Z</time></trkpt><trkpt lat="44.6437333" lon="9.3288883"><ele>465.6666666666667</ele><time>2026-03-28T16:57:54.019Z</time></trkpt><trkpt lat="44.6439383" lon="9.32884"><ele>469.0</ele><time>2026-03-28T16:57:55.019Z</time></trkpt><trkpt lat="44.6441367" lon="9.3287867"><ele>469.0</ele><time>2026-03-28T16:57:56.019Z</time></trkpt><trkpt lat="44.64433" lon="9.3287267"><ele>469.0</ele><time>2026-03-28T16:57:57.019Z</time></trkpt><trkpt lat="44.64452" lon="9.3286733"><ele>469.0</ele><time>2026-03-28T16:57:58.019Z</time></trkpt><trkpt lat="44.6446983" lon="9.3286183"><ele>468.33333333333337</ele><time>2026-03-28T16:57:59.019Z</time></trkpt><trkpt lat="44.6448783" lon="9.3285617"><ele>467.66666666666663</ele><time>2026-03-28T16:58:00.019Z</time></trkpt><trkpt lat="44.6450483" lon="9.32849"><ele>467.0</ele><time>2026-03-28T16:58:01.019Z</time></trkpt><trkpt lat="44.6452167" lon="9.3284083"><ele>462.3333333333333</ele><time>2026-03-28T16:58:02.019Z</time></trkpt><trkpt lat="44.6453767" lon="9.3283167"><ele>457.66666666666663</ele><time>2026-03-28T16:58:03.019Z</time></trkpt><trkpt lat="44.6455417" lon="9.3282067"><ele>453.0</ele><time>2026-03-28T16:58:04.019Z</time></trkpt><trkpt lat="44.6457133" lon="9.32808"><ele>452.66666666666663</ele><time>2026-03-28T16:58:05.018Z</time></trkpt><trkpt lat="44.64589" lon="9.3279617"><ele>452.3333333333333</ele><time>2026-03-28T16:58:06.019Z</time></trkpt><trkpt lat="44.64606" lon="9.3278417"><ele>452.0</ele><time>2026-03-28T16:58:07.019Z</time></trkpt><trkpt lat="44.6462317" lon="9.32772"><ele>452.0</ele><time>2026-03-28T16:58:08.019Z</time></trkpt><trkpt lat="44.6463933" lon="9.3276017"><ele>452.0</ele><time>2026-03-28T16:58:09.019Z</time></trkpt><trkpt lat="44.64655" lon="9.327485"><ele>452.0</ele><time>2026-03-28T16:58:10.019Z</time></trkpt><trkpt lat="44.6466967" lon="9.3273583"><ele>451.0</ele><time>2026-03-28T16:58:11.019Z</time></trkpt><trkpt lat="44.646835" lon="9.3272217"><ele>450.0</ele><time>2026-03-28T16:58:12.019Z</time></trkpt><trkpt lat="44.64697" lon="9.327075"><ele>449.0</ele><time>2026-03-28T16:58:13.019Z</time></trkpt><trkpt lat="44.6470933" lon="9.32693"><ele>449.0</ele><time>2026-03-28T16:58:14.019Z</time></trkpt><trkpt lat="44.64721" lon="9.3267667"><ele>449.0</ele><time>2026-03-28T16:58:15.019Z</time></trkpt><trkpt lat="44.6473183" lon="9.3265767"><ele>449.0</ele><time>2026-03-28T16:58:16.019Z</time></trkpt><trkpt lat="44.6474183" lon="9.326375"><ele>449.0</ele><time>2026-03-28T16:58:17.019Z</time></trkpt><trkpt lat="44.647515" lon="9.3261617"><ele>449.0</ele><time>2026-03-28T16:58:18.019Z</time></trkpt><trkpt lat="44.6476067" lon="9.3259433"><ele>449.0</ele><time>2026-03-28T16:58:19.019Z</time></trkpt><trkpt lat="44.6476883" lon="9.32571"><ele>449.66666666666663</ele><time>2026-03-28T16:58:20.019Z</time></trkpt><trkpt lat="44.6477617" lon="9.3254683"><ele>450.33333333333337</ele><time>2026-03-28T16:58:21.018Z</time></trkpt><trkpt lat="44.6478283" lon="9.3252333"><ele>451.0</ele><time>2026-03-28T16:58:22.019Z</time></trkpt><trkpt lat="44.6478967" lon="9.32499"><ele>452.0</ele><time>2026-03-28T16:58:23.019Z</time></trkpt><trkpt lat="44.6479683" lon="9.3247417"><ele>453.0</ele><time>2026-03-28T16:58:24.019Z</time></trkpt><trkpt lat="44.6480417" lon="9.3245067"><ele>454.0</ele><time>2026-03-28T16:58:25.019Z</time></trkpt><trkpt lat="44.64811" lon="9.3242667"><ele>454.0</ele><time>2026-03-28T16:58:26.019Z</time></trkpt><trkpt lat="44.6481767" lon="9.3240317"><ele>454.0</ele><time>2026-03-28T16:58:27.019Z</time></trkpt><trkpt lat="44.6482483" lon="9.3237917"><ele>454.0</ele><time>2026-03-28T16:58:28.019Z</time></trkpt><trkpt lat="44.6483217" lon="9.32356"><ele>451.0</ele><time>2026-03-28T16:58:29.019Z</time></trkpt><trkpt lat="44.648395" lon="9.3233083"><ele>448.0</ele><time>2026-03-28T16:58:30.019Z</time></trkpt><trkpt lat="44.6484717" lon="9.32306"><ele>445.0</ele><time>2026-03-28T16:58:31.019Z</time></trkpt><trkpt lat="44.6485433" lon="9.3228167"><ele>444.6666666666667</ele><time>2026-03-28T16:58:32.019Z</time></trkpt><trkpt lat="44.6486167" lon="9.3225767"><ele>444.33333333333337</ele><time>2026-03-28T16:58:33.019Z</time></trkpt><trkpt lat="44.648695" lon="9.3223433"><ele>444.0</ele><time>2026-03-28T16:58:34.019Z</time></trkpt><trkpt lat="44.648785" lon="9.3221167"><ele>450.33333333333337</ele><time>2026-03-28T16:58:35.018Z</time></trkpt><trkpt lat="44.6488817" lon="9.3218817"><ele>456.6666666666667</ele><time>2026-03-28T16:58:36.019Z</time></trkpt><trkpt lat="44.64899" lon="9.32165"><ele>463.0</ele><time>2026-03-28T16:58:37.018Z</time></trkpt><trkpt lat="44.64909" lon="9.32144"><ele>459.33333333333337</ele><time>2026-03-28T16:58:38.019Z</time></trkpt><trkpt lat="44.6491883" lon="9.3212683"><ele>455.66666666666663</ele><time>2026-03-28T16:58:39.019Z</time></trkpt><trkpt lat="44.64928" lon="9.3210967"><ele>452.0</ele><time>2026-03-28T16:58:40.019Z</time></trkpt><trkpt lat="44.6493733" lon="9.3209483"><ele>454.25</ele><time>2026-03-28T16:58:41.019Z</time></trkpt><trkpt lat="44.6494783" lon="9.320825"><ele>456.5</ele><time>2026-03-28T16:58:42.019Z</time></trkpt><trkpt lat="44.6496033" lon="9.3207317"><ele>458.75</ele><time>2026-03-28T16:58:43.018Z</time></trkpt><trkpt lat="44.6497383" lon="9.32065"><ele>461.0</ele><time>2026-03-28T16:58:44.019Z</time></trkpt><trkpt lat="44.6498717" lon="9.3205667"><ele>462.6</ele><time>2026-03-28T16:58:45.019Z</time></trkpt><trkpt lat="44.6499967" lon="9.3204983"><ele>464.20000000000005</ele><time>2026-03-28T16:58:46.019Z</time></trkpt><trkpt lat="44.6501033" lon="9.3204583"><ele>465.79999999999995</ele><time>2026-03-28T16:58:47.019Z</time></trkpt><trkpt lat="44.6502067" lon="9.3204683"><ele>467.4</ele><time>2026-03-28T16:58:48.019Z</time></trkpt><trkpt lat="44.65029" lon="9.3205333"><ele>469.0</ele><time>2026-03-28T16:58:49.018Z</time></trkpt><trkpt lat="44.650345" lon="9.320625"><ele>469.0</ele><time>2026-03-28T16:58:50.019Z</time></trkpt><trkpt lat="44.6503717" lon="9.3207667"><ele>469.0</ele><time>2026-03-28T16:58:51.018Z</time></trkpt><trkpt lat="44.6503933" lon="9.3209167"><ele>469.0</ele><time>2026-03-28T16:58:52.019Z</time></trkpt><trkpt lat="44.65044" lon="9.3210383"><ele>469.0</ele><time>2026-03-28T16:58:53.019Z</time></trkpt><trkpt lat="44.65051" lon="9.3211367"><ele>469.0</ele><time>2026-03-28T16:58:54.018Z</time></trkpt><trkpt lat="44.6506" lon="9.3212083"><ele>469.0</ele><time>2026-03-28T16:58:55.019Z</time></trkpt><trkpt lat="44.6507067" lon="9.3212567"><ele>469.0</ele><time>2026-03-28T16:58:56.018Z</time></trkpt><trkpt lat="44.650815" lon="9.3213"><ele>469.0</ele><time>2026-03-28T16:58:57.019Z</time></trkpt><trkpt lat="44.65092" lon="9.3213567"><ele>469.0</ele><time>2026-03-28T16:58:58.018Z</time></trkpt><trkpt lat="44.6510183" lon="9.321425"><ele>469.0</ele><time>2026-03-28T16:58:59.019Z</time></trkpt><trkpt lat="44.6511" lon="9.32149"><ele>470.50000000000006</ele><time>2026-03-28T16:59:00.019Z</time></trkpt><trkpt lat="44.6511583" lon="9.3216067"><ele>472.0</ele><time>2026-03-28T16:59:01.019Z</time></trkpt><trkpt lat="44.651225" lon="9.3216983"><ele>473.5</ele><time>2026-03-28T16:59:02.019Z</time></trkpt><trkpt lat="44.6512883" lon="9.3217633"><ele>475.0</ele><time>2026-03-28T16:59:03.019Z</time></trkpt><trkpt lat="44.6513567" lon="9.3218017"><ele>476.50000000000006</ele><time>2026-03-28T16:59:04.019Z</time></trkpt><trkpt lat="44.6514267" lon="9.321815"><ele>478.0</ele><time>2026-03-28T16:59:05.019Z</time></trkpt><trkpt lat="44.6514917" lon="9.32178"><ele>478.0</ele><time>2026-03-28T16:59:06.019Z</time></trkpt><trkpt lat="44.6515433" lon="9.321705"><ele>477.99999999999994</ele><time>2026-03-28T16:59:07.019Z</time></trkpt><trkpt lat="44.6516033" lon="9.3216167"><ele>477.99999999999994</ele><time>2026-03-28T16:59:08.019Z</time></trkpt><trkpt lat="44.6516333" lon="9.32146"><ele>478.0</ele><time>2026-03-28T16:59:09.019Z</time></trkpt><trkpt lat="44.6516633" lon="9.32131"><ele>478.0</ele><time>2026-03-28T16:59:10.019Z</time></trkpt><trkpt lat="44.6516733" lon="9.32114"><ele>478.0</ele><time>2026-03-28T16:59:11.019Z</time></trkpt><trkpt lat="44.65166" lon="9.320985"><ele>478.0</ele><time>2026-03-28T16:59:12.018Z</time></trkpt><trkpt lat="44.6516017" lon="9.3208317"><ele>478.0</ele><time>2026-03-28T16:59:13.019Z</time></trkpt><trkpt lat="44.6515217" lon="9.3207183"><ele>478.0</ele><time>2026-03-28T16:59:14.019Z</time></trkpt><trkpt lat="44.6514083" lon="9.320625"><ele>480.83333333333337</ele><time>2026-03-28T16:59:15.019Z</time></trkpt><trkpt lat="44.6513267" lon="9.32053"><ele>483.6666666666667</ele><time>2026-03-28T16:59:16.019Z</time></trkpt><trkpt lat="44.65126" lon="9.32043"><ele>486.5</ele><time>2026-03-28T16:59:17.019Z</time></trkpt><trkpt lat="44.65122" lon="9.3203283"><ele>489.33333333333337</ele><time>2026-03-28T16:59:18.019Z</time></trkpt><trkpt lat="44.65122" lon="9.320225"><ele>492.1666666666667</ele><time>2026-03-28T16:59:19.018Z</time></trkpt><trkpt lat="44.6512483" lon="9.320135"><ele>495.0</ele><time>2026-03-28T16:59:20.019Z</time></trkpt><trkpt lat="44.6512933" lon="9.3200167"><ele>495.0</ele><time>2026-03-28T16:59:21.018Z</time></trkpt><trkpt lat="44.651305" lon="9.3199067"><ele>495.0</ele><time>2026-03-28T16:59:22.019Z</time></trkpt><trkpt lat="44.6513133" lon="9.319785"><ele>495.0</ele><time>2026-03-28T16:59:23.019Z</time></trkpt><trkpt lat="44.651305" lon="9.3196517"><ele>495.0</ele><time>2026-03-28T16:59:24.019Z</time></trkpt><trkpt lat="44.6512967" lon="9.3195083"><ele>495.0</ele><time>2026-03-28T16:59:25.019Z</time></trkpt><trkpt lat="44.6512783" lon="9.3193583"><ele>499.25</ele><time>2026-03-28T16:59:26.019Z</time></trkpt><trkpt lat="44.6512633" lon="9.3191933"><ele>503.5</ele><time>2026-03-28T16:59:27.019Z</time></trkpt><trkpt lat="44.6512483" lon="9.3190117"><ele>507.75</ele><time>2026-03-28T16:59:28.018Z</time></trkpt><trkpt lat="44.651235" lon="9.3188117"><ele>512.0</ele><time>2026-03-28T16:59:29.019Z</time></trkpt><trkpt lat="44.6512267" lon="9.318615"><ele>512.0</ele><time>2026-03-28T16:59:30.019Z</time></trkpt><trkpt lat="44.651225" lon="9.3184267"><ele>512.0</ele><time>2026-03-28T16:59:31.019Z</time></trkpt><trkpt lat="44.6512517" lon="9.31825"><ele>512.0</ele><time>2026-03-28T16:59:32.019Z</time></trkpt><trkpt lat="44.6513" lon="9.3180917"><ele>512.0</ele><time>2026-03-28T16:59:33.019Z</time></trkpt><trkpt lat="44.6513583" lon="9.317925"><ele>508.25</ele><time>2026-03-28T16:59:34.019Z</time></trkpt><trkpt lat="44.6514033" lon="9.3177517"><ele>504.5</ele><time>2026-03-28T16:59:35.019Z</time></trkpt><trkpt lat="44.6514217" lon="9.3175717"><ele>500.75</ele><time>2026-03-28T16:59:36.019Z</time></trkpt><trkpt lat="44.6514233" lon="9.317425"><ele>497.0</ele><time>2026-03-28T16:59:37.019Z</time></trkpt><trkpt lat="44.6514567" lon="9.3172833"><ele>495.20000000000005</ele><time>2026-03-28T16:59:38.019Z</time></trkpt><trkpt lat="44.651525" lon="9.3171817"><ele>493.40000000000003</ele><time>2026-03-28T16:59:39.019Z</time></trkpt><trkpt lat="44.6516217" lon="9.317105"><ele>491.59999999999997</ele><time>2026-03-28T16:59:40.018Z</time></trkpt><trkpt lat="44.65172" lon="9.3170517"><ele>489.79999999999995</ele><time>2026-03-28T16:59:41.019Z</time></trkpt><trkpt lat="44.6517983" lon="9.3169767"><ele>488.0</ele><time>2026-03-28T16:59:42.019Z</time></trkpt><trkpt lat="44.6518617" lon="9.3168617"><ele>488.0</ele><time>2026-03-28T16:59:43.018Z</time></trkpt><trkpt lat="44.6519317" lon="9.316745"><ele>487.99999999999994</ele><time>2026-03-28T16:59:44.019Z</time></trkpt><trkpt lat="44.6520083" lon="9.3166517"><ele>487.99999999999994</ele><time>2026-03-28T16:59:45.019Z</time></trkpt><trkpt lat="44.6521083" lon="9.31659"><ele>488.0</ele><time>2026-03-28T16:59:46.019Z</time></trkpt><trkpt lat="44.65221" lon="9.316545"><ele>488.0</ele><time>2026-03-28T16:59:47.018Z</time></trkpt><trkpt lat="44.652315" lon="9.3164883"><ele>490.0</ele><time>2026-03-28T16:59:48.019Z</time></trkpt><trkpt lat="44.6524117" lon="9.3164"><ele>492.0</ele><time>2026-03-28T16:59:49.018Z</time></trkpt><trkpt lat="44.65249" lon="9.3162733"><ele>494.0</ele><time>2026-03-28T16:59:50.018Z</time></trkpt><trkpt lat="44.6525533" lon="9.3161317"><ele>496.0</ele><time>2026-03-28T16:59:51.019Z</time></trkpt><trkpt lat="44.6526233" lon="9.316015"><ele>496.0</ele><time>2026-03-28T16:59:52.019Z</time></trkpt><trkpt lat="44.6527" lon="9.3159217"><ele>496.0</ele><time>2026-03-28T16:59:53.019Z</time></trkpt><trkpt lat="44.6527867" lon="9.31587"><ele>496.0</ele><time>2026-03-28T16:59:54.019Z</time></trkpt><trkpt lat="44.6529033" lon="9.3158517"><ele>496.0</ele><time>2026-03-28T16:59:55.019Z</time></trkpt><trkpt lat="44.6530383" lon="9.3158517"><ele>496.0</ele><time>2026-03-28T16:59:56.018Z</time></trkpt><trkpt lat="44.6531667" lon="9.3158483"><ele>495.5</ele><time>2026-03-28T16:59:57.019Z</time></trkpt><trkpt lat="44.653275" lon="9.3158183"><ele>495.0</ele><time>2026-03-28T16:59:58.019Z</time></trkpt><trkpt lat="44.65337" lon="9.3157483"><ele>494.5</ele><time>2026-03-28T16:59:59.019Z</time></trkpt><trkpt lat="44.65345" lon="9.3156333"><ele>494.0</ele><time>2026-03-28T17:00:00.019Z</time></trkpt><trkpt lat="44.6535067" lon="9.3154817"><ele>494.0</ele><time>2026-03-28T17:00:01.018Z</time></trkpt><trkpt lat="44.653565" lon="9.3153267"><ele>494.0</ele><time>2026-03-28T17:00:02.019Z</time></trkpt><trkpt lat="44.653645" lon="9.3151983"><ele>494.0</ele><time>2026-03-28T17:00:03.018Z</time></trkpt><trkpt lat="44.6537417" lon="9.31511"><ele>494.0</ele><time>2026-03-28T17:00:04.019Z</time></trkpt><trkpt lat="44.6538733" lon="9.315065"><ele>499.5</ele><time>2026-03-28T17:00:05.019Z</time></trkpt><trkpt lat="44.6540033" lon="9.3150283"><ele>505.0</ele><time>2026-03-28T17:00:06.019Z</time></trkpt><trkpt lat="44.6541267" lon="9.314995"><ele>510.5</ele><time>2026-03-28T17:00:07.018Z</time></trkpt><trkpt lat="44.654235" lon="9.3149717"><ele>516.0</ele><time>2026-03-28T17:00:08.019Z</time></trkpt><trkpt lat="44.654335" lon="9.3149067"><ele>516.0</ele><time>2026-03-28T17:00:09.019Z</time></trkpt><trkpt lat="44.654415" lon="9.314825"><ele>516.0</ele><time>2026-03-28T17:00:10.019Z</time></trkpt><trkpt lat="44.654465" lon="9.3147117"><ele>516.0</ele><time>2026-03-28T17:00:11.019Z</time></trkpt><trkpt lat="44.6544967" lon="9.3145783"><ele>516.0</ele><time>2026-03-28T17:00:12.019Z</time></trkpt><trkpt lat="44.65449" lon="9.3144333"><ele>516.0</ele><time>2026-03-28T17:00:13.019Z</time></trkpt><trkpt lat="44.6544617" lon="9.3142967"><ele>515.5</ele><time>2026-03-28T17:00:14.019Z</time></trkpt><trkpt lat="44.6543967" lon="9.3141483"><ele>515.0</ele><time>2026-03-28T17:00:15.019Z</time></trkpt><trkpt lat="44.6543267" lon="9.3140183"><ele>514.5</ele><time>2026-03-28T17:00:16.019Z</time></trkpt><trkpt lat="44.65424" lon="9.3138983"><ele>514.0</ele><time>2026-03-28T17:00:17.019Z</time></trkpt><trkpt lat="44.65414" lon="9.3137783"><ele>515.2</ele><time>2026-03-28T17:00:18.019Z</time></trkpt><trkpt lat="44.6540483" lon="9.3136583"><ele>516.4</ele><time>2026-03-28T17:00:19.019Z</time></trkpt><trkpt lat="44.6539733" lon="9.3135317"><ele>517.6</ele><time>2026-03-28T17:00:20.019Z</time></trkpt><trkpt lat="44.6539367" lon="9.3133933"><ele>518.8</ele><time>2026-03-28T17:00:21.019Z</time></trkpt><trkpt lat="44.6539483" lon="9.3132733"><ele>520.0</ele><time>2026-03-28T17:00:22.019Z</time></trkpt><trkpt lat="44.6539933" lon="9.3131533"><ele>518.75</ele><time>2026-03-28T17:00:23.019Z</time></trkpt><trkpt lat="44.6540633" lon="9.3130517"><ele>517.5</ele><time>2026-03-28T17:00:24.019Z</time></trkpt><trkpt lat="44.6541767" lon="9.3129567"><ele>516.25</ele><time>2026-03-28T17:00:25.019Z</time></trkpt><trkpt lat="44.6542767" lon="9.3128317"><ele>515.0</ele><time>2026-03-28T17:00:26.019Z</time></trkpt><trkpt lat="44.654365" lon="9.3126983"><ele>515.0</ele><time>2026-03-28T17:00:27.019Z</time></trkpt><trkpt lat="44.6544333" lon="9.3125633"><ele>515.0</ele><time>2026-03-28T17:00:28.019Z</time></trkpt><trkpt lat="44.654515" lon="9.3124417"><ele>515.0</ele><time>2026-03-28T17:00:29.019Z</time></trkpt><trkpt lat="44.6546117" lon="9.3123217"><ele>515.0</ele><time>2026-03-28T17:00:30.019Z</time></trkpt><trkpt lat="44.6547133" lon="9.3122283"><ele>513.25</ele><time>2026-03-28T17:00:31.018Z</time></trkpt><trkpt lat="44.65482" lon="9.3121983"><ele>511.5</ele><time>2026-03-28T17:00:32.019Z</time></trkpt><trkpt lat="44.6549267" lon="9.31224"><ele>509.75</ele><time>2026-03-28T17:00:33.018Z</time></trkpt><trkpt lat="44.65504" lon="9.3122983"><ele>508.0</ele><time>2026-03-28T17:00:34.019Z</time></trkpt><trkpt lat="44.6551517" lon="9.31238"><ele>512.5</ele><time>2026-03-28T17:00:35.018Z</time></trkpt><trkpt lat="44.655255" lon="9.31246"><ele>517.0</ele><time>2026-03-28T17:00:36.019Z</time></trkpt><trkpt lat="44.6553667" lon="9.3125233"><ele>521.5</ele><time>2026-03-28T17:00:37.019Z</time></trkpt><trkpt lat="44.6554883" lon="9.31255"><ele>526.0</ele><time>2026-03-28T17:00:38.019Z</time></trkpt><trkpt lat="44.655615" lon="9.31256"><ele>526.5</ele><time>2026-03-28T17:00:39.019Z</time></trkpt><trkpt lat="44.65574" lon="9.3125483"><ele>527.0</ele><time>2026-03-28T17:00:40.019Z</time></trkpt><trkpt lat="44.6558417" lon="9.31249"><ele>527.5</ele><time>2026-03-28T17:00:41.019Z</time></trkpt><trkpt lat="44.6559567" lon="9.3124067"><ele>528.0</ele><time>2026-03-28T17:00:42.018Z</time></trkpt><trkpt lat="44.656055" lon="9.3123267"><ele>528.0</ele><time>2026-03-28T17:00:43.018Z</time></trkpt><trkpt lat="44.6561483" lon="9.3122683"><ele>528.0</ele><time>2026-03-28T17:00:44.018Z</time></trkpt><trkpt lat="44.6562467" lon="9.3122417"><ele>528.0</ele><time>2026-03-28T17:00:45.019Z</time></trkpt><trkpt lat="44.6563367" lon="9.312275"><ele>528.0</ele><time>2026-03-28T17:00:46.018Z</time></trkpt><trkpt lat="44.6564283" lon="9.31236"><ele>528.0</ele><time>2026-03-28T17:00:47.019Z</time></trkpt><trkpt lat="44.6565117" lon="9.3124683"><ele>528.0</ele><time>2026-03-28T17:00:48.019Z</time></trkpt><trkpt lat="44.656595" lon="9.3125933"><ele>528.0</ele><time>2026-03-28T17:00:49.019Z</time></trkpt><trkpt lat="44.656685" lon="9.312725"><ele>528.0</ele><time>2026-03-28T17:00:50.019Z</time></trkpt><trkpt lat="44.6567733" lon="9.3128383"><ele>528.0</ele><time>2026-03-28T17:00:51.019Z</time></trkpt><trkpt lat="44.6568583" lon="9.31293"><ele>527.25</ele><time>2026-03-28T17:00:52.018Z</time></trkpt><trkpt lat="44.6569533" lon="9.3129817"><ele>526.5</ele><time>2026-03-28T17:00:53.018Z</time></trkpt><trkpt lat="44.6570517" lon="9.31298"><ele>525.75</ele><time>2026-03-28T17:00:54.019Z</time></trkpt><trkpt lat="44.65717" lon="9.3129267"><ele>525.0</ele><time>2026-03-28T17:00:55.019Z</time></trkpt><trkpt lat="44.6572883" lon="9.3128683"><ele>525.0</ele><time>2026-03-28T17:00:56.019Z</time></trkpt><trkpt lat="44.6574117" lon="9.3128017"><ele>525.0</ele><time>2026-03-28T17:00:57.019Z</time></trkpt><trkpt lat="44.657535" lon="9.3127333"><ele>525.0</ele><time>2026-03-28T17:00:58.019Z</time></trkpt><trkpt lat="44.6576633" lon="9.3126633"><ele>525.0</ele><time>2026-03-28T17:00:59.019Z</time></trkpt><trkpt lat="44.6577933" lon="9.3126017"><ele>528.0</ele><time>2026-03-28T17:01:00.019Z</time></trkpt><trkpt lat="44.6579267" lon="9.3125283"><ele>531.0</ele><time>2026-03-28T17:01:01.019Z</time></trkpt><trkpt lat="44.6580617" lon="9.3124433"><ele>534.0</ele><time>2026-03-28T17:01:02.019Z</time></trkpt><trkpt lat="44.6582033" lon="9.3123517"><ele>537.0</ele><time>2026-03-28T17:01:03.018Z</time></trkpt><trkpt lat="44.6583333" lon="9.312245"><ele>536.0</ele><time>2026-03-28T17:01:04.019Z</time></trkpt><trkpt lat="44.6584667" lon="9.3121417"><ele>535.0</ele><time>2026-03-28T17:01:05.018Z</time></trkpt><trkpt lat="44.6586033" lon="9.3120267"><ele>534.0</ele><time>2026-03-28T17:01:06.019Z</time></trkpt><trkpt lat="44.658745" lon="9.3119317"><ele>534.0</ele><time>2026-03-28T17:01:07.019Z</time></trkpt><trkpt lat="44.65889" lon="9.31184"><ele>534.0</ele><time>2026-03-28T17:01:08.018Z</time></trkpt><trkpt lat="44.6590367" lon="9.3117417"><ele>534.0</ele><time>2026-03-28T17:01:09.019Z</time></trkpt><trkpt lat="44.65919" lon="9.3116483"><ele>534.0</ele><time>2026-03-28T17:01:10.019Z</time></trkpt><trkpt lat="44.659355" lon="9.311565"><ele>534.0</ele><time>2026-03-28T17:01:11.018Z</time></trkpt><trkpt lat="44.659505" lon="9.3114667"><ele>534.0</ele><time>2026-03-28T17:01:12.019Z</time></trkpt><trkpt lat="44.6596567" lon="9.31136"><ele>534.0</ele><time>2026-03-28T17:01:13.019Z</time></trkpt><trkpt lat="44.659795" lon="9.31121"><ele>534.0</ele><time>2026-03-28T17:01:14.019Z</time></trkpt><trkpt lat="44.6599317" lon="9.3110533"><ele>534.0</ele><time>2026-03-28T17:01:15.018Z</time></trkpt><trkpt lat="44.6600717" lon="9.310905"><ele>534.0</ele><time>2026-03-28T17:01:16.018Z</time></trkpt><trkpt lat="44.6602033" lon="9.3107783"><ele>534.0</ele><time>2026-03-28T17:01:17.019Z</time></trkpt><trkpt lat="44.66033" lon="9.3107033"><ele>534.0</ele><time>2026-03-28T17:01:18.019Z</time></trkpt><trkpt lat="44.6604333" lon="9.3106133"><ele>534.0</ele><time>2026-03-28T17:01:19.019Z</time></trkpt><trkpt lat="44.6605083" lon="9.3104983"><ele>534.0</ele><time>2026-03-28T17:01:20.019Z</time></trkpt><trkpt lat="44.660565" lon="9.31036"><ele>534.0</ele><time>2026-03-28T17:01:21.019Z</time></trkpt><trkpt lat="44.6606217" lon="9.3102067"><ele>534.0</ele><time>2026-03-28T17:01:22.019Z</time></trkpt><trkpt lat="44.6606717" lon="9.31008"><ele>534.0</ele><time>2026-03-28T17:01:23.018Z</time></trkpt><trkpt lat="44.6607383" lon="9.3099867"><ele>534.0</ele><time>2026-03-28T17:01:24.018Z</time></trkpt><trkpt lat="44.6608267" lon="9.30994"><ele>534.0</ele><time>2026-03-28T17:01:25.019Z</time></trkpt><trkpt lat="44.6609033" lon="9.3099383"><ele>534.0</ele><time>2026-03-28T17:01:26.019Z</time></trkpt><trkpt lat="44.6609733" lon="9.3100017"><ele>534.0</ele><time>2026-03-28T17:01:27.019Z</time></trkpt><trkpt lat="44.661035" lon="9.3100867"><ele>534.0</ele><time>2026-03-28T17:01:28.018Z</time></trkpt><trkpt lat="44.6610783" lon="9.3102467"><ele>534.0</ele><time>2026-03-28T17:01:29.019Z</time></trkpt><trkpt lat="44.661105" lon="9.31044"><ele>533.75</ele><time>2026-03-28T17:01:30.019Z</time></trkpt><trkpt lat="44.6611167" lon="9.3106667"><ele>533.5</ele><time>2026-03-28T17:01:31.019Z</time></trkpt><trkpt lat="44.6611217" lon="9.3108583"><ele>533.25</ele><time>2026-03-28T17:01:32.019Z</time></trkpt><trkpt lat="44.661135" lon="9.3110533"><ele>533.0</ele><time>2026-03-28T17:01:33.018Z</time></trkpt><trkpt lat="44.6611533" lon="9.31124"><ele>534.0</ele><time>2026-03-28T17:01:34.019Z</time></trkpt><trkpt lat="44.66118" lon="9.3114283"><ele>535.0</ele><time>2026-03-28T17:01:35.019Z</time></trkpt><trkpt lat="44.66121" lon="9.311625"><ele>536.0</ele><time>2026-03-28T17:01:36.019Z</time></trkpt><trkpt lat="44.6612667" lon="9.311815"><ele>537.0</ele><time>2026-03-28T17:01:37.019Z</time></trkpt><trkpt lat="44.6613333" lon="9.3120033"><ele>537.0</ele><time>2026-03-28T17:01:38.019Z</time></trkpt><trkpt lat="44.6614033" lon="9.31219"><ele>537.0</ele><time>2026-03-28T17:01:39.019Z</time></trkpt><trkpt lat="44.6614733" lon="9.3123783"><ele>537.0</ele><time>2026-03-28T17:01:40.019Z</time></trkpt><trkpt lat="44.6615467" lon="9.3125783"><ele>539.25</ele><time>2026-03-28T17:01:41.019Z</time></trkpt><trkpt lat="44.6616167" lon="9.3127717"><ele>541.5</ele><time>2026-03-28T17:01:42.019Z</time></trkpt><trkpt lat="44.6616883" lon="9.3129483"><ele>543.75</ele><time>2026-03-28T17:01:43.019Z</time></trkpt><trkpt lat="44.6617433" lon="9.31312"><ele>546.0</ele><time>2026-03-28T17:01:44.019Z</time></trkpt><trkpt lat="44.6617983" lon="9.3132667"><ele>549.0</ele><time>2026-03-28T17:01:45.019Z</time></trkpt><trkpt lat="44.6618467" lon="9.31339"><ele>552.0</ele><time>2026-03-28T17:01:46.019Z</time></trkpt><trkpt lat="44.6619" lon="9.31348"><ele>555.0</ele><time>2026-03-28T17:01:47.019Z</time></trkpt><trkpt lat="44.6619833" lon="9.3135083"><ele>558.0</ele><time>2026-03-28T17:01:48.019Z</time></trkpt><trkpt lat="44.6620667" lon="9.3135067"><ele>561.0</ele><time>2026-03-28T17:01:49.019Z</time></trkpt><trkpt lat="44.6621617" lon="9.31346"><ele>561.0</ele><time>2026-03-28T17:01:50.018Z</time></trkpt><trkpt lat="44.6622667" lon="9.3133867"><ele>561.0</ele><time>2026-03-28T17:01:51.019Z</time></trkpt><trkpt lat="44.6623733" lon="9.31329"><ele>561.0</ele><time>2026-03-28T17:01:52.019Z</time></trkpt><trkpt lat="44.6624667" lon="9.31319"><ele>561.0</ele><time>2026-03-28T17:01:53.019Z</time></trkpt><trkpt lat="44.662545" lon="9.31306"><ele>563.25</ele><time>2026-03-28T17:01:54.019Z</time></trkpt><trkpt lat="44.6626017" lon="9.3129133"><ele>565.5</ele><time>2026-03-28T17:01:55.018Z</time></trkpt><trkpt lat="44.6626617" lon="9.3127667"><ele>567.75</ele><time>2026-03-28T17:01:56.019Z</time></trkpt><trkpt lat="44.6627383" lon="9.312655"><ele>570.0</ele><time>2026-03-28T17:01:57.019Z</time></trkpt><trkpt lat="44.6628283" lon="9.3125417"><ele>570.0</ele><time>2026-03-28T17:01:58.019Z</time></trkpt><trkpt lat="44.6629317" lon="9.3124367"><ele>570.0</ele><time>2026-03-28T17:01:59.019Z</time></trkpt><trkpt lat="44.6630467" lon="9.3123167"><ele>570.0</ele><time>2026-03-28T17:02:00.019Z</time></trkpt><trkpt lat="44.6631683" lon="9.3122"><ele>570.0</ele><time>2026-03-28T17:02:01.019Z</time></trkpt><trkpt lat="44.6632967" lon="9.3121033"><ele>570.0</ele><time>2026-03-28T17:02:02.019Z</time></trkpt><trkpt lat="44.663435" lon="9.3120033"><ele>570.0</ele><time>2026-03-28T17:02:03.018Z</time></trkpt><trkpt lat="44.6635683" lon="9.3119"><ele>570.0</ele><time>2026-03-28T17:02:04.019Z</time></trkpt><trkpt lat="44.6636967" lon="9.3117933"><ele>570.0</ele><time>2026-03-28T17:02:05.019Z</time></trkpt><trkpt lat="44.66382" lon="9.3116783"><ele>570.0</ele><time>2026-03-28T17:02:06.018Z</time></trkpt><trkpt lat="44.663935" lon="9.31155"><ele>570.0</ele><time>2026-03-28T17:02:07.018Z</time></trkpt><trkpt lat="44.6640383" lon="9.3114167"><ele>570.0</ele><time>2026-03-28T17:02:08.019Z</time></trkpt><trkpt lat="44.66415" lon="9.31133"><ele>564.25</ele><time>2026-03-28T17:02:09.019Z</time></trkpt><trkpt lat="44.6642767" lon="9.3112733"><ele>558.5</ele><time>2026-03-28T17:02:10.018Z</time></trkpt><trkpt lat="44.6644017" lon="9.3112417"><ele>552.75</ele><time>2026-03-28T17:02:11.019Z</time></trkpt><trkpt lat="44.6645267" lon="9.3112183"><ele>547.0</ele><time>2026-03-28T17:02:12.019Z</time></trkpt><trkpt lat="44.6646483" lon="9.3111983"><ele>547.0</ele><time>2026-03-28T17:02:13.019Z</time></trkpt><trkpt lat="44.6647683" lon="9.3111983"><ele>547.0</ele><time>2026-03-28T17:02:14.019Z</time></trkpt><trkpt lat="44.6648967" lon="9.3112283"><ele>547.0</ele><time>2026-03-28T17:02:15.019Z</time></trkpt><trkpt lat="44.6650067" lon="9.3112867"><ele>547.0</ele><time>2026-03-28T17:02:16.019Z</time></trkpt><trkpt lat="44.6651267" lon="9.3113733"><ele>545.0</ele><time>2026-03-28T17:02:17.019Z</time></trkpt><trkpt lat="44.66524" lon="9.3114883"><ele>543.0</ele><time>2026-03-28T17:02:18.019Z</time></trkpt><trkpt lat="44.66535" lon="9.3116217"><ele>541.0</ele><time>2026-03-28T17:02:19.019Z</time></trkpt><trkpt lat="44.6654583" lon="9.3117517"><ele>539.0</ele><time>2026-03-28T17:02:20.019Z</time></trkpt><trkpt lat="44.66555" lon="9.311895"><ele>539.0</ele><time>2026-03-28T17:02:21.019Z</time></trkpt><trkpt lat="44.6656183" lon="9.3120533"><ele>539.0</ele><time>2026-03-28T17:02:22.019Z</time></trkpt><trkpt lat="44.66568" lon="9.3122033"><ele>539.0</ele><time>2026-03-28T17:02:23.019Z</time></trkpt><trkpt lat="44.6657417" lon="9.3123533"><ele>539.0</ele><time>2026-03-28T17:02:24.019Z</time></trkpt><trkpt lat="44.665825" lon="9.3124817"><ele>539.0</ele><time>2026-03-28T17:02:25.019Z</time></trkpt><trkpt lat="44.66592" lon="9.3125917"><ele>539.0</ele><time>2026-03-28T17:02:26.019Z</time></trkpt><trkpt lat="44.6660233" lon="9.31269"><ele>539.0</ele><time>2026-03-28T17:02:27.019Z</time></trkpt><trkpt lat="44.6661067" lon="9.31281"><ele>539.0</ele><time>2026-03-28T17:02:28.019Z</time></trkpt><trkpt lat="44.66618" lon="9.3129417"><ele>539.0</ele><time>2026-03-28T17:02:29.019Z</time></trkpt><trkpt lat="44.666245" lon="9.3130533"><ele>539.0</ele><time>2026-03-28T17:02:30.019Z</time></trkpt><trkpt lat="44.66632" lon="9.3131267"><ele>539.0</ele><time>2026-03-28T17:02:31.019Z</time></trkpt><trkpt lat="44.666415" lon="9.3131683"><ele>539.0</ele><time>2026-03-28T17:02:32.019Z</time></trkpt><trkpt lat="44.6665233" lon="9.3131817"><ele>539.0</ele><time>2026-03-28T17:02:33.019Z</time></trkpt><trkpt lat="44.6666417" lon="9.313155"><ele>539.0</ele><time>2026-03-28T17:02:34.019Z</time></trkpt><trkpt lat="44.666775" lon="9.31311"><ele>539.0</ele><time>2026-03-28T17:02:35.018Z</time></trkpt><trkpt lat="44.6668933" lon="9.3130717"><ele>539.0</ele><time>2026-03-28T17:02:36.019Z</time></trkpt><trkpt lat="44.6670067" lon="9.3130133"><ele>539.0</ele><time>2026-03-28T17:02:37.019Z</time></trkpt><trkpt lat="44.6671083" lon="9.3129667"><ele>543.75</ele><time>2026-03-28T17:02:38.019Z</time></trkpt><trkpt lat="44.6672167" lon="9.3129067"><ele>548.5</ele><time>2026-03-28T17:02:39.019Z</time></trkpt><trkpt lat="44.6673183" lon="9.3128317"><ele>553.25</ele><time>2026-03-28T17:02:40.018Z</time></trkpt><trkpt lat="44.6673983" lon="9.312705"><ele>558.0</ele><time>2026-03-28T17:02:41.019Z</time></trkpt><trkpt lat="44.6674683" lon="9.3125517"><ele>558.0</ele><time>2026-03-28T17:02:42.018Z</time></trkpt><trkpt lat="44.6675467" lon="9.3123833"><ele>558.0</ele><time>2026-03-28T17:02:43.019Z</time></trkpt><trkpt lat="44.6676217" lon="9.312215"><ele>558.0</ele><time>2026-03-28T17:02:44.019Z</time></trkpt><trkpt lat="44.6676933" lon="9.31206"><ele>558.0</ele><time>2026-03-28T17:02:45.019Z</time></trkpt><trkpt lat="44.66777" lon="9.311935"><ele>555.1999999999999</ele><time>2026-03-28T17:02:46.019Z</time></trkpt><trkpt lat="44.6678467" lon="9.3118383"><ele>552.4</ele><time>2026-03-28T17:02:47.019Z</time></trkpt><trkpt lat="44.6679267" lon="9.3117783"><ele>549.5999999999999</ele><time>2026-03-28T17:02:48.019Z</time></trkpt><trkpt lat="44.6680067" lon="9.3118017"><ele>546.8</ele><time>2026-03-28T17:02:49.019Z</time></trkpt><trkpt lat="44.668095" lon="9.31186"><ele>544.0</ele><time>2026-03-28T17:02:50.019Z</time></trkpt><trkpt lat="44.6681833" lon="9.3119567"><ele>544.0</ele><time>2026-03-28T17:02:51.019Z</time></trkpt><trkpt lat="44.6682917" lon="9.3120367"><ele>544.0</ele><time>2026-03-28T17:02:52.019Z</time></trkpt><trkpt lat="44.66841" lon="9.3120867"><ele>544.0</ele><time>2026-03-28T17:02:53.019Z</time></trkpt><trkpt lat="44.6685367" lon="9.31211"><ele>544.0</ele><time>2026-03-28T17:02:54.019Z</time></trkpt><trkpt lat="44.668665" lon="9.3121017"><ele>549.0</ele><time>2026-03-28T17:02:55.019Z</time></trkpt><trkpt lat="44.668775" lon="9.31206"><ele>554.0</ele><time>2026-03-28T17:02:56.019Z</time></trkpt><trkpt lat="44.6688617" lon="9.31198"><ele>559.0</ele><time>2026-03-28T17:02:57.019Z</time></trkpt><trkpt lat="44.6689367" lon="9.3118583"><ele>564.0</ele><time>2026-03-28T17:02:58.019Z</time></trkpt><trkpt lat="44.6689717" lon="9.3116983"><ele>564.0</ele><time>2026-03-28T17:02:59.019Z</time></trkpt><trkpt lat="44.66899" lon="9.3115283"><ele>564.0</ele><time>2026-03-28T17:03:00.02Z</time></trkpt><trkpt lat="44.66901" lon="9.31136"><ele>564.0</ele><time>2026-03-28T17:03:01.02Z</time></trkpt><trkpt lat="44.6690367" lon="9.311215"><ele>564.0</ele><time>2026-03-28T17:03:02.02Z</time></trkpt><trkpt lat="44.6690717" lon="9.3110617"><ele>567.5</ele><time>2026-03-28T17:03:03.019Z</time></trkpt><trkpt lat="44.6691367" lon="9.3109417"><ele>571.0</ele><time>2026-03-28T17:03:04.02Z</time></trkpt><trkpt lat="44.6692267" lon="9.31085"><ele>574.5</ele><time>2026-03-28T17:03:05.02Z</time></trkpt><trkpt lat="44.6693333" lon="9.31079"><ele>578.0</ele><time>2026-03-28T17:03:06.02Z</time></trkpt><trkpt lat="44.6694633" lon="9.3107767"><ele>578.0</ele><time>2026-03-28T17:03:07.02Z</time></trkpt><trkpt lat="44.6695767" lon="9.3107483"><ele>578.0</ele><time>2026-03-28T17:03:08.02Z</time></trkpt><trkpt lat="44.6696817" lon="9.3107017"><ele>578.0</ele><time>2026-03-28T17:03:09.02Z</time></trkpt><trkpt lat="44.6697467" lon="9.3106167"><ele>578.0</ele><time>2026-03-28T17:03:10.02Z</time></trkpt><trkpt lat="44.6697717" lon="9.3104783"><ele>578.0</ele><time>2026-03-28T17:03:11.019Z</time></trkpt><trkpt lat="44.6697767" lon="9.3103317"><ele>572.0</ele><time>2026-03-28T17:03:12.019Z</time></trkpt><trkpt lat="44.6697417" lon="9.3101633"><ele>566.0</ele><time>2026-03-28T17:03:13.019Z</time></trkpt><trkpt lat="44.6697217" lon="9.309995"><ele>560.0</ele><time>2026-03-28T17:03:14.02Z</time></trkpt><trkpt lat="44.66972" lon="9.30983"><ele>554.0</ele><time>2026-03-28T17:03:15.02Z</time></trkpt><trkpt lat="44.6697567" lon="9.309675"><ele>548.2</ele><time>2026-03-28T17:03:16.02Z</time></trkpt><trkpt lat="44.6698183" lon="9.309545"><ele>542.4</ele><time>2026-03-28T17:03:17.02Z</time></trkpt><trkpt lat="44.669895" lon="9.309445"><ele>536.6</ele><time>2026-03-28T17:03:18.02Z</time></trkpt><trkpt lat="44.6699883" lon="9.3094"><ele>530.8</ele><time>2026-03-28T17:03:19.02Z</time></trkpt><trkpt lat="44.6700967" lon="9.3093983"><ele>525.0</ele><time>2026-03-28T17:03:20.02Z</time></trkpt><trkpt lat="44.6702133" lon="9.3094533"><ele>526.75</ele><time>2026-03-28T17:03:21.019Z</time></trkpt><trkpt lat="44.6703333" lon="9.3095233"><ele>528.5</ele><time>2026-03-28T17:03:22.02Z</time></trkpt><trkpt lat="44.6704517" lon="9.309585"><ele>530.25</ele><time>2026-03-28T17:03:23.02Z</time></trkpt><trkpt lat="44.67058" lon="9.3096083"><ele>532.0</ele><time>2026-03-28T17:03:24.02Z</time></trkpt><trkpt lat="44.670705" lon="9.3096067"><ele>532.0</ele><time>2026-03-28T17:03:25.02Z</time></trkpt><trkpt lat="44.670825" lon="9.3095783"><ele>532.0</ele><time>2026-03-28T17:03:26.02Z</time></trkpt><trkpt lat="44.67094" lon="9.3095267"><ele>532.0</ele><time>2026-03-28T17:03:27.02Z</time></trkpt><trkpt lat="44.6710317" lon="9.3094617"><ele>532.0</ele><time>2026-03-28T17:03:28.019Z</time></trkpt><trkpt lat="44.6711383" lon="9.3094267"><ele>531.4</ele><time>2026-03-28T17:03:29.02Z</time></trkpt><trkpt lat="44.6712317" lon="9.3094417"><ele>530.8000000000001</ele><time>2026-03-28T17:03:30.02Z</time></trkpt><trkpt lat="44.6713" lon="9.3095017"><ele>530.2</ele><time>2026-03-28T17:03:31.02Z</time></trkpt><trkpt lat="44.6714033" lon="9.30957"><ele>529.6</ele><time>2026-03-28T17:03:32.02Z</time></trkpt><trkpt lat="44.67151" lon="9.3096317"><ele>529.0</ele><time>2026-03-28T17:03:33.019Z</time></trkpt><trkpt lat="44.6716217" lon="9.3096517"><ele>529.0</ele><time>2026-03-28T17:03:34.02Z</time></trkpt><trkpt lat="44.671745" lon="9.3096517"><ele>529.0</ele><time>2026-03-28T17:03:35.02Z</time></trkpt><trkpt lat="44.67188" lon="9.30966"><ele>529.0</ele><time>2026-03-28T17:03:36.02Z</time></trkpt><trkpt lat="44.6720033" lon="9.3096717"><ele>529.0</ele><time>2026-03-28T17:03:37.02Z</time></trkpt><trkpt lat="44.6721167" lon="9.3096733"><ele>532.0</ele><time>2026-03-28T17:03:38.02Z</time></trkpt><trkpt lat="44.67223" lon="9.309625"><ele>535.0</ele><time>2026-03-28T17:03:39.019Z</time></trkpt><trkpt lat="44.67235" lon="9.3095567"><ele>538.0</ele><time>2026-03-28T17:03:40.02Z</time></trkpt><trkpt lat="44.6724733" lon="9.3094783"><ele>541.0</ele><time>2026-03-28T17:03:41.019Z</time></trkpt><trkpt lat="44.6725833" lon="9.309395"><ele>541.0</ele><time>2026-03-28T17:03:42.02Z</time></trkpt><trkpt lat="44.6726883" lon="9.309315"><ele>541.0</ele><time>2026-03-28T17:03:43.02Z</time></trkpt><trkpt lat="44.6727933" lon="9.3092217"><ele>541.0</ele><time>2026-03-28T17:03:44.02Z</time></trkpt><trkpt lat="44.6728783" lon="9.30909"><ele>541.0</ele><time>2026-03-28T17:03:45.02Z</time></trkpt><trkpt lat="44.672955" lon="9.3089483"><ele>539.0</ele><time>2026-03-28T17:03:46.02Z</time></trkpt><trkpt lat="44.6730217" lon="9.308815"><ele>537.0</ele><time>2026-03-28T17:03:47.02Z</time></trkpt><trkpt lat="44.6730867" lon="9.3086933"><ele>535.0</ele><time>2026-03-28T17:03:48.02Z</time></trkpt><trkpt lat="44.6731483" lon="9.3085783"><ele>533.0</ele><time>2026-03-28T17:03:49.02Z</time></trkpt><trkpt lat="44.6732217" lon="9.3084983"><ele>531.0</ele><time>2026-03-28T17:03:50.02Z</time></trkpt><trkpt lat="44.6733117" lon="9.3084683"><ele>531.0</ele><time>2026-03-28T17:03:51.02Z</time></trkpt><trkpt lat="44.67341" lon="9.3084783"><ele>531.0</ele><time>2026-03-28T17:03:52.02Z</time></trkpt><trkpt lat="44.6735067" lon="9.308525"><ele>531.0</ele><time>2026-03-28T17:03:53.02Z</time></trkpt><trkpt lat="44.6736017" lon="9.308595"><ele>531.0</ele><time>2026-03-28T17:03:54.02Z</time></trkpt><trkpt lat="44.6736883" lon="9.3086733"><ele>531.0</ele><time>2026-03-28T17:03:55.02Z</time></trkpt><trkpt lat="44.67377" lon="9.30876"><ele>530.2</ele><time>2026-03-28T17:03:56.02Z</time></trkpt><trkpt lat="44.67384" lon="9.3088517"><ele>529.4000000000001</ele><time>2026-03-28T17:03:57.02Z</time></trkpt><trkpt lat="44.673915" lon="9.3089417"><ele>528.6</ele><time>2026-03-28T17:03:58.02Z</time></trkpt><trkpt lat="44.673995" lon="9.3090183"><ele>527.8000000000001</ele><time>2026-03-28T17:03:59.02Z</time></trkpt><trkpt lat="44.67408" lon="9.3090617"><ele>527.0</ele><time>2026-03-28T17:04:00.02Z</time></trkpt><trkpt lat="44.6741767" lon="9.3090717"><ele>531.4</ele><time>2026-03-28T17:04:01.019Z</time></trkpt><trkpt lat="44.67427" lon="9.309055"><ele>535.8000000000001</ele><time>2026-03-28T17:04:02.02Z</time></trkpt><trkpt lat="44.6743617" lon="9.30904"><ele>540.2</ele><time>2026-03-28T17:04:03.02Z</time></trkpt><trkpt lat="44.6744517" lon="9.309035"><ele>544.6</ele><time>2026-03-28T17:04:04.02Z</time></trkpt><trkpt lat="44.674545" lon="9.3090433"><ele>549.0</ele><time>2026-03-28T17:04:05.02Z</time></trkpt><trkpt lat="44.6746317" lon="9.3090833"><ele>549.0</ele><time>2026-03-28T17:04:06.02Z</time></trkpt><trkpt lat="44.6747017" lon="9.3091517"><ele>549.0</ele><time>2026-03-28T17:04:07.02Z</time></trkpt><trkpt lat="44.6747633" lon="9.3092317"><ele>549.0</ele><time>2026-03-28T17:04:08.02Z</time></trkpt><trkpt lat="44.6748217" lon="9.309295"><ele>549.0</ele><time>2026-03-28T17:04:09.02Z</time></trkpt><trkpt lat="44.6749533" lon="9.30933"><ele>549.0</ele><time>2026-03-28T17:04:11.02Z</time></trkpt><trkpt lat="44.6750333" lon="9.3092833"><ele>549.0</ele><time>2026-03-28T17:04:12.02Z</time></trkpt><trkpt lat="44.6751283" lon="9.3092217"><ele>549.0</ele><time>2026-03-28T17:04:13.02Z</time></trkpt><trkpt lat="44.6752283" lon="9.309115"><ele>549.0</ele><time>2026-03-28T17:04:14.02Z</time></trkpt><trkpt lat="44.6753167" lon="9.3090317"><ele>549.0</ele><time>2026-03-28T17:04:15.02Z</time></trkpt><trkpt lat="44.6753917" lon="9.3089517"><ele>549.0</ele><time>2026-03-28T17:04:16.02Z</time></trkpt><trkpt lat="44.6754583" lon="9.3088867"><ele>551.1666666666666</ele><time>2026-03-28T17:04:17.019Z</time></trkpt><trkpt lat="44.675515" lon="9.3088117"><ele>553.3333333333334</ele><time>2026-03-28T17:04:18.02Z</time></trkpt><trkpt lat="44.675545" lon="9.3087117"><ele>555.5</ele><time>2026-03-28T17:04:19.02Z</time></trkpt><trkpt lat="44.6755433" lon="9.3085917"><ele>557.6666666666667</ele><time>2026-03-28T17:04:20.02Z</time></trkpt><trkpt lat="44.6755233" lon="9.3084667"><ele>559.8333333333334</ele><time>2026-03-28T17:04:21.02Z</time></trkpt><trkpt lat="44.67548" lon="9.3083317"><ele>562.0</ele><time>2026-03-28T17:04:22.02Z</time></trkpt><trkpt lat="44.67545" lon="9.3082067"><ele>561.6</ele><time>2026-03-28T17:04:23.019Z</time></trkpt><trkpt lat="44.6754033" lon="9.3080717"><ele>561.2</ele><time>2026-03-28T17:04:24.02Z</time></trkpt><trkpt lat="44.67537" lon="9.3079383"><ele>560.8</ele><time>2026-03-28T17:04:25.02Z</time></trkpt><trkpt lat="44.6753367" lon="9.3078067"><ele>560.4</ele><time>2026-03-28T17:04:26.019Z</time></trkpt><trkpt lat="44.6752983" lon="9.3076733"><ele>560.0</ele><time>2026-03-28T17:04:27.02Z</time></trkpt><trkpt lat="44.6752783" lon="9.3075433"><ele>560.0</ele><time>2026-03-28T17:04:28.02Z</time></trkpt><trkpt lat="44.67528" lon="9.3074233"><ele>560.0</ele><time>2026-03-28T17:04:29.02Z</time></trkpt><trkpt lat="44.6753033" lon="9.3073083"><ele>560.0</ele><time>2026-03-28T17:04:30.02Z</time></trkpt><trkpt lat="44.675335" lon="9.3072067"><ele>560.0</ele><time>2026-03-28T17:04:31.02Z</time></trkpt><trkpt lat="44.6753833" lon="9.3071183"><ele>560.0</ele><time>2026-03-28T17:04:32.02Z</time></trkpt><trkpt lat="44.67544" lon="9.307055"><ele>560.0</ele><time>2026-03-28T17:04:33.02Z</time></trkpt><trkpt lat="44.675505" lon="9.30702"><ele>558.6666666666666</ele><time>2026-03-28T17:04:34.02Z</time></trkpt><trkpt lat="44.675565" lon="9.3069717"><ele>557.3333333333333</ele><time>2026-03-28T17:04:35.02Z</time></trkpt><trkpt lat="44.6756183" lon="9.3069017"><ele>556.0</ele><time>2026-03-28T17:04:36.02Z</time></trkpt><trkpt lat="44.67565" lon="9.3068083"><ele>554.6666666666666</ele><time>2026-03-28T17:04:37.02Z</time></trkpt><trkpt lat="44.67566" lon="9.3066883"><ele>553.3333333333334</ele><time>2026-03-28T17:04:38.02Z</time></trkpt><trkpt lat="44.6756583" lon="9.3065417"><ele>552.0</ele><time>2026-03-28T17:04:39.02Z</time></trkpt><trkpt lat="44.6756567" lon="9.3063867"><ele>549.2</ele><time>2026-03-28T17:04:40.02Z</time></trkpt><trkpt lat="44.6756717" lon="9.3062417"><ele>546.4000000000001</ele><time>2026-03-28T17:04:41.02Z</time></trkpt><trkpt lat="44.67571" lon="9.3060933"><ele>543.5999999999999</ele><time>2026-03-28T17:04:42.02Z</time></trkpt><trkpt lat="44.6757567" lon="9.3059483"><ele>540.8</ele><time>2026-03-28T17:04:43.02Z</time></trkpt><trkpt lat="44.675815" lon="9.3058217"><ele>538.0</ele><time>2026-03-28T17:04:44.019Z</time></trkpt><trkpt lat="44.6758817" lon="9.3057033"><ele>538.0</ele><time>2026-03-28T17:04:45.02Z</time></trkpt><trkpt lat="44.6759567" lon="9.3055983"><ele>538.0</ele><time>2026-03-28T17:04:46.02Z</time></trkpt><trkpt lat="44.6760483" lon="9.3055033"><ele>538.0</ele><time>2026-03-28T17:04:47.02Z</time></trkpt><trkpt lat="44.676145" lon="9.3054233"><ele>538.0</ele><time>2026-03-28T17:04:48.02Z</time></trkpt><trkpt lat="44.6762417" lon="9.30537"><ele>538.0</ele><time>2026-03-28T17:04:49.02Z</time></trkpt><trkpt lat="44.6763533" lon="9.3053467"><ele>536.0</ele><time>2026-03-28T17:04:50.02Z</time></trkpt><trkpt lat="44.6764783" lon="9.305325"><ele>534.0</ele><time>2026-03-28T17:04:51.019Z</time></trkpt><trkpt lat="44.6766183" lon="9.3053083"><ele>532.0</ele><time>2026-03-28T17:04:52.02Z</time></trkpt><trkpt lat="44.6767733" lon="9.3052883"><ele>530.0</ele><time>2026-03-28T17:04:53.02Z</time></trkpt><trkpt lat="44.6769217" lon="9.3052733"><ele>530.3333333333333</ele><time>2026-03-28T17:04:54.02Z</time></trkpt><trkpt lat="44.67708" lon="9.305255"><ele>530.6666666666666</ele><time>2026-03-28T17:04:55.02Z</time></trkpt><trkpt lat="44.6772383" lon="9.3052333"><ele>531.0</ele><time>2026-03-28T17:04:56.02Z</time></trkpt><trkpt lat="44.6773817" lon="9.3052117"><ele>531.0</ele><time>2026-03-28T17:04:57.02Z</time></trkpt><trkpt lat="44.67752" lon="9.30519"><ele>531.0</ele><time>2026-03-28T17:04:58.02Z</time></trkpt><trkpt lat="44.6776383" lon="9.3051433"><ele>531.0</ele><time>2026-03-28T17:04:59.02Z</time></trkpt><trkpt lat="44.6777433" lon="9.305075"><ele>531.0</ele><time>2026-03-28T17:05:00.019Z</time></trkpt><trkpt lat="44.677845" lon="9.3049717"><ele>528.25</ele><time>2026-03-28T17:05:01.02Z</time></trkpt><trkpt lat="44.6779483" lon="9.3048717"><ele>525.5</ele><time>2026-03-28T17:05:02.02Z</time></trkpt><trkpt lat="44.6780517" lon="9.3048"><ele>522.75</ele><time>2026-03-28T17:05:03.02Z</time></trkpt><trkpt lat="44.6781617" lon="9.3047283"><ele>520.0</ele><time>2026-03-28T17:05:04.019Z</time></trkpt><trkpt lat="44.6782533" lon="9.304635"><ele>520.0</ele><time>2026-03-28T17:05:05.02Z</time></trkpt><trkpt lat="44.67834" lon="9.3045017"><ele>520.0</ele><time>2026-03-28T17:05:06.02Z</time></trkpt><trkpt lat="44.678405" lon="9.30435"><ele>520.0</ele><time>2026-03-28T17:05:07.019Z</time></trkpt><trkpt lat="44.6784717" lon="9.3041933"><ele>520.0</ele><time>2026-03-28T17:05:08.02Z</time></trkpt><trkpt lat="44.6785567" lon="9.3040633"><ele>517.0</ele><time>2026-03-28T17:05:09.019Z</time></trkpt><trkpt lat="44.6786683" lon="9.30396"><ele>514.0</ele><time>2026-03-28T17:05:10.02Z</time></trkpt><trkpt lat="44.678785" lon="9.3038767"><ele>511.0</ele><time>2026-03-28T17:05:11.02Z</time></trkpt><trkpt lat="44.6789067" lon="9.3038317"><ele>508.0</ele><time>2026-03-28T17:05:12.02Z</time></trkpt><trkpt lat="44.67904" lon="9.3038267"><ele>508.0</ele><time>2026-03-28T17:05:13.02Z</time></trkpt><trkpt lat="44.679175" lon="9.3038133"><ele>508.0</ele><time>2026-03-28T17:05:14.02Z</time></trkpt><trkpt lat="44.6793" lon="9.303795"><ele>508.0</ele><time>2026-03-28T17:05:15.02Z</time></trkpt><trkpt lat="44.6794217" lon="9.3037567"><ele>508.0</ele><time>2026-03-28T17:05:16.02Z</time></trkpt><trkpt lat="44.6795467" lon="9.3037017"><ele>510.5</ele><time>2026-03-28T17:05:17.02Z</time></trkpt><trkpt lat="44.679655" lon="9.3036317"><ele>513.0</ele><time>2026-03-28T17:05:18.02Z</time></trkpt><trkpt lat="44.67976" lon="9.3035517"><ele>515.5</ele><time>2026-03-28T17:05:19.02Z</time></trkpt><trkpt lat="44.6798533" lon="9.3034683"><ele>518.0</ele><time>2026-03-28T17:05:20.02Z</time></trkpt><trkpt lat="44.679955" lon="9.303395"><ele>518.0</ele><time>2026-03-28T17:05:21.02Z</time></trkpt><trkpt lat="44.6800567" lon="9.303345"><ele>518.0</ele><time>2026-03-28T17:05:22.019Z</time></trkpt><trkpt lat="44.68016" lon="9.303345"><ele>518.0</ele><time>2026-03-28T17:05:23.02Z</time></trkpt><trkpt lat="44.6802667" lon="9.3033883"><ele>518.0</ele><time>2026-03-28T17:05:24.02Z</time></trkpt><trkpt lat="44.68037" lon="9.3034617"><ele>518.0</ele><time>2026-03-28T17:05:25.019Z</time></trkpt><trkpt lat="44.6804683" lon="9.303575"><ele>519.25</ele><time>2026-03-28T17:05:26.02Z</time></trkpt><trkpt lat="44.68057" lon="9.3036883"><ele>520.5</ele><time>2026-03-28T17:05:27.02Z</time></trkpt><trkpt lat="44.6806533" lon="9.303835"><ele>521.75</ele><time>2026-03-28T17:05:28.019Z</time></trkpt><trkpt lat="44.6807367" lon="9.3039383"><ele>523.0</ele><time>2026-03-28T17:05:29.02Z</time></trkpt><trkpt lat="44.680805" lon="9.3040283"><ele>523.0</ele><time>2026-03-28T17:05:30.019Z</time></trkpt><trkpt lat="44.6808683" lon="9.3040967"><ele>523.0</ele><time>2026-03-28T17:05:31.02Z</time></trkpt><trkpt lat="44.6809583" lon="9.3041917"><ele>523.0</ele><time>2026-03-28T17:05:33.02Z</time></trkpt><trkpt lat="44.6810517" lon="9.3041767"><ele>523.0</ele><time>2026-03-28T17:06:53.02Z</time></trkpt><trkpt lat="44.6811267" lon="9.3041883"><ele>523.0</ele><time>2026-03-28T17:06:54.02Z</time></trkpt><trkpt lat="44.6812167" lon="9.3041933"><ele>518.75</ele><time>2026-03-28T17:06:55.02Z</time></trkpt><trkpt lat="44.6813217" lon="9.3041817"><ele>514.5</ele><time>2026-03-28T17:06:56.02Z</time></trkpt><trkpt lat="44.6814367" lon="9.3041717"><ele>510.25</ele><time>2026-03-28T17:06:57.02Z</time></trkpt><trkpt lat="44.681565" lon="9.3041583"><ele>506.0</ele><time>2026-03-28T17:06:58.02Z</time></trkpt><trkpt lat="44.6817" lon="9.3041283"><ele>506.0</ele><time>2026-03-28T17:06:59.02Z</time></trkpt><trkpt lat="44.681855" lon="9.3040917"><ele>506.0</ele><time>2026-03-28T17:07:00.02Z</time></trkpt><trkpt lat="44.6819967" lon="9.3040583"><ele>506.0</ele><time>2026-03-28T17:07:01.02Z</time></trkpt><trkpt lat="44.6821483" lon="9.304025"><ele>505.0</ele><time>2026-03-28T17:07:02.019Z</time></trkpt><trkpt lat="44.6822817" lon="9.30399"><ele>504.0</ele><time>2026-03-28T17:07:03.02Z</time></trkpt><trkpt lat="44.6823967" lon="9.3039683"><ele>503.0</ele><time>2026-03-28T17:07:04.02Z</time></trkpt><trkpt lat="44.6825017" lon="9.30397"><ele>502.0</ele><time>2026-03-28T17:07:05.02Z</time></trkpt><trkpt lat="44.6825883" lon="9.3039967"><ele>501.0</ele><time>2026-03-28T17:07:06.02Z</time></trkpt><trkpt lat="44.68267" lon="9.3040567"><ele>501.0</ele><time>2026-03-28T17:07:07.02Z</time></trkpt><trkpt lat="44.68273" lon="9.304165"><ele>501.0</ele><time>2026-03-28T17:07:08.02Z</time></trkpt><trkpt lat="44.6827883" lon="9.304295"><ele>501.0</ele><time>2026-03-28T17:07:09.02Z</time></trkpt><trkpt lat="44.68284" lon="9.304455"><ele>501.0</ele><time>2026-03-28T17:07:10.02Z</time></trkpt><trkpt lat="44.6828933" lon="9.3046267"><ele>498.0</ele><time>2026-03-28T17:07:11.02Z</time></trkpt><trkpt lat="44.6829567" lon="9.304795"><ele>495.0</ele><time>2026-03-28T17:07:12.02Z</time></trkpt><trkpt lat="44.6830183" lon="9.3049617"><ele>492.0</ele><time>2026-03-28T17:07:13.02Z</time></trkpt><trkpt lat="44.6830667" lon="9.305125"><ele>489.0</ele><time>2026-03-28T17:07:14.02Z</time></trkpt><trkpt lat="44.68309" lon="9.3052883"><ele>489.0</ele><time>2026-03-28T17:07:15.02Z</time></trkpt><trkpt lat="44.6830933" lon="9.305445"><ele>489.0</ele><time>2026-03-28T17:07:16.02Z</time></trkpt><trkpt lat="44.6830967" lon="9.3055767"><ele>489.0</ele><time>2026-03-28T17:07:17.02Z</time></trkpt><trkpt lat="44.68313" lon="9.3056983"><ele>489.0</ele><time>2026-03-28T17:07:18.02Z</time></trkpt><trkpt lat="44.68318" lon="9.3058167"><ele>489.0</ele><time>2026-03-28T17:07:19.02Z</time></trkpt><trkpt lat="44.68326" lon="9.30592"><ele>490.79999999999995</ele><time>2026-03-28T17:07:20.019Z</time></trkpt><trkpt lat="44.6833583" lon="9.306005"><ele>492.59999999999997</ele><time>2026-03-28T17:07:21.02Z</time></trkpt><trkpt lat="44.6834633" lon="9.30604"><ele>494.4</ele><time>2026-03-28T17:07:22.02Z</time></trkpt><trkpt lat="44.6835567" lon="9.3061067"><ele>496.2</ele><time>2026-03-28T17:07:23.02Z</time></trkpt><trkpt lat="44.6836433" lon="9.3061767"><ele>498.0</ele><time>2026-03-28T17:07:24.019Z</time></trkpt><trkpt lat="44.6837017" lon="9.306285"><ele>494.59999999999997</ele><time>2026-03-28T17:07:25.02Z</time></trkpt><trkpt lat="44.683745" lon="9.30642"><ele>491.19999999999993</ele><time>2026-03-28T17:07:26.02Z</time></trkpt><trkpt lat="44.68377" lon="9.306575"><ele>487.8</ele><time>2026-03-28T17:07:27.02Z</time></trkpt><trkpt lat="44.68379" lon="9.30671"><ele>484.4</ele><time>2026-03-28T17:07:28.02Z</time></trkpt><trkpt lat="44.6837833" lon="9.3068433"><ele>481.0</ele><time>2026-03-28T17:07:29.02Z</time></trkpt><trkpt lat="44.683765" lon="9.306975"><ele>481.00000000000006</ele><time>2026-03-28T17:07:30.02Z</time></trkpt><trkpt lat="44.6837317" lon="9.3071"><ele>481.0</ele><time>2026-03-28T17:07:31.019Z</time></trkpt><trkpt lat="44.6836983" lon="9.307205"><ele>481.0</ele><time>2026-03-28T17:07:32.02Z</time></trkpt><trkpt lat="44.6836683" lon="9.30729"><ele>481.0</ele><time>2026-03-28T17:07:33.02Z</time></trkpt><trkpt lat="44.6836367" lon="9.3073767"><ele>481.00000000000006</ele><time>2026-03-28T17:07:35.02Z</time></trkpt><trkpt lat="44.6835983" lon="9.3074733"><ele>481.0</ele><time>2026-03-28T17:08:16.02Z</time></trkpt><trkpt lat="44.6835383" lon="9.3076233"><ele>482.33333333333337</ele><time>2026-03-28T17:08:18.019Z</time></trkpt><trkpt lat="44.6834833" lon="9.307735"><ele>483.6666666666667</ele><time>2026-03-28T17:08:19.02Z</time></trkpt><trkpt lat="44.6834217" lon="9.30784"><ele>485.0</ele><time>2026-03-28T17:08:20.02Z</time></trkpt><trkpt lat="44.68336" lon="9.3079367"><ele>486.33333333333337</ele><time>2026-03-28T17:08:21.02Z</time></trkpt><trkpt lat="44.68331" lon="9.3080183"><ele>487.6666666666667</ele><time>2026-03-28T17:08:22.02Z</time></trkpt><trkpt lat="44.6832783" lon="9.3080983"><ele>489.0</ele><time>2026-03-28T17:08:23.02Z</time></trkpt><trkpt lat="44.68327" lon="9.30825"><ele>489.0</ele><time>2026-03-28T17:08:25.02Z</time></trkpt><trkpt lat="44.683305" lon="9.3083267"><ele>489.0</ele><time>2026-03-28T17:08:26.02Z</time></trkpt><trkpt lat="44.6833567" lon="9.308405"><ele>489.0</ele><time>2026-03-28T17:08:27.02Z</time></trkpt><trkpt lat="44.68343" lon="9.3084667"><ele>489.0</ele><time>2026-03-28T17:08:28.02Z</time></trkpt><trkpt lat="44.68351" lon="9.3085133"><ele>489.0</ele><time>2026-03-28T17:08:29.02Z</time></trkpt><trkpt lat="44.68358" lon="9.308545"><ele>489.0</ele><time>2026-03-28T17:08:30.019Z</time></trkpt><trkpt lat="44.6836767" lon="9.30859"><ele>487.6</ele><time>2026-03-28T17:08:32.02Z</time></trkpt><trkpt lat="44.683755" lon="9.3085183"><ele>486.2</ele><time>2026-03-28T17:08:34.019Z</time></trkpt><trkpt lat="44.6837933" lon="9.3084317"><ele>484.80000000000007</ele><time>2026-03-28T17:08:35.02Z</time></trkpt><trkpt lat="44.6838317" lon="9.3083183"><ele>483.40000000000003</ele><time>2026-03-28T17:08:36.02Z</time></trkpt><trkpt lat="44.683875" lon="9.30819"><ele>482.0</ele><time>2026-03-28T17:08:37.02Z</time></trkpt><trkpt lat="44.6839317" lon="9.308075"><ele>482.0</ele><time>2026-03-28T17:08:38.02Z</time></trkpt><trkpt lat="44.6839967" lon="9.307985"><ele>482.00000000000006</ele><time>2026-03-28T17:08:39.019Z</time></trkpt><trkpt lat="44.68407" lon="9.3079233"><ele>482.00000000000006</ele><time>2026-03-28T17:08:40.02Z</time></trkpt><trkpt lat="44.6841517" lon="9.307895"><ele>482.0</ele><time>2026-03-28T17:08:41.019Z</time></trkpt><trkpt lat="44.6842567" lon="9.3079033"><ele>482.0</ele><time>2026-03-28T17:08:42.019Z</time></trkpt><trkpt lat="44.684365" lon="9.3079533"><ele>479.8</ele><time>2026-03-28T17:08:43.02Z</time></trkpt><trkpt lat="44.6844733" lon="9.308055"><ele>477.6</ele><time>2026-03-28T17:08:44.02Z</time></trkpt><trkpt lat="44.684575" lon="9.3081417"><ele>475.40000000000003</ele><time>2026-03-28T17:08:45.02Z</time></trkpt><trkpt lat="44.6846683" lon="9.30821"><ele>473.20000000000005</ele><time>2026-03-28T17:08:46.02Z</time></trkpt><trkpt lat="44.684755" lon="9.308225"><ele>471.0</ele><time>2026-03-28T17:08:47.02Z</time></trkpt><trkpt lat="44.6848283" lon="9.3082167"><ele>471.0</ele><time>2026-03-28T17:08:48.019Z</time></trkpt><trkpt lat="44.6849067" lon="9.308175"><ele>471.0</ele><time>2026-03-28T17:08:49.019Z</time></trkpt><trkpt lat="44.6849717" lon="9.3080667"><ele>471.0</ele><time>2026-03-28T17:08:50.019Z</time></trkpt><trkpt lat="44.6850267" lon="9.3078767"><ele>471.0</ele><time>2026-03-28T17:08:51.02Z</time></trkpt><trkpt lat="44.6850633" lon="9.3076683"><ele>471.0</ele><time>2026-03-28T17:08:52.02Z</time></trkpt><trkpt lat="44.6851017" lon="9.3074833"><ele>471.0</ele><time>2026-03-28T17:08:53.02Z</time></trkpt><trkpt lat="44.6851483" lon="9.3073267"><ele>471.0</ele><time>2026-03-28T17:08:54.02Z</time></trkpt><trkpt lat="44.6852" lon="9.3071917"><ele>471.0</ele><time>2026-03-28T17:08:55.02Z</time></trkpt><trkpt lat="44.6852633" lon="9.3070817"><ele>467.6</ele><time>2026-03-28T17:08:56.02Z</time></trkpt><trkpt lat="44.68535" lon="9.3070083"><ele>464.20000000000005</ele><time>2026-03-28T17:08:57.02Z</time></trkpt><trkpt lat="44.6854567" lon="9.30697"><ele>460.79999999999995</ele><time>2026-03-28T17:08:58.02Z</time></trkpt><trkpt lat="44.68556" lon="9.3069467"><ele>457.4</ele><time>2026-03-28T17:08:59.02Z</time></trkpt><trkpt lat="44.6856483" lon="9.3069283"><ele>454.0</ele><time>2026-03-28T17:09:00.02Z</time></trkpt><trkpt lat="44.68571" lon="9.3069"><ele>454.0</ele><time>2026-03-28T17:09:01.02Z</time></trkpt><trkpt lat="44.6857583" lon="9.3068333"><ele>454.0</ele><time>2026-03-28T17:09:02.02Z</time></trkpt><trkpt lat="44.6857967" lon="9.3067417"><ele>454.0</ele><time>2026-03-28T17:09:03.02Z</time></trkpt><trkpt lat="44.685805" lon="9.3065983"><ele>454.0</ele><time>2026-03-28T17:09:04.019Z</time></trkpt><trkpt lat="44.685785" lon="9.306415"><ele>454.0</ele><time>2026-03-28T17:09:05.02Z</time></trkpt><trkpt lat="44.6857583" lon="9.3062133"><ele>454.0</ele><time>2026-03-28T17:09:06.019Z</time></trkpt><trkpt lat="44.6857383" lon="9.3060167"><ele>454.0</ele><time>2026-03-28T17:09:07.02Z</time></trkpt><trkpt lat="44.6857217" lon="9.3058233"><ele>454.0</ele><time>2026-03-28T17:09:08.02Z</time></trkpt><trkpt lat="44.685705" lon="9.3056283"><ele>454.0</ele><time>2026-03-28T17:09:09.02Z</time></trkpt><trkpt lat="44.68571" lon="9.3054383"><ele>452.0</ele><time>2026-03-28T17:09:10.02Z</time></trkpt><trkpt lat="44.6857233" lon="9.3052583"><ele>450.0</ele><time>2026-03-28T17:09:11.02Z</time></trkpt><trkpt lat="44.68573" lon="9.3050933"><ele>448.0</ele><time>2026-03-28T17:09:12.02Z</time></trkpt><trkpt lat="44.6857183" lon="9.3049517"><ele>446.0</ele><time>2026-03-28T17:09:13.02Z</time></trkpt><trkpt lat="44.6856717" lon="9.3048283"><ele>444.0</ele><time>2026-03-28T17:09:14.019Z</time></trkpt><trkpt lat="44.685585" lon="9.3047233"><ele>443.0</ele><time>2026-03-28T17:09:15.02Z</time></trkpt><trkpt lat="44.6854867" lon="9.3046183"><ele>442.0</ele><time>2026-03-28T17:09:16.019Z</time></trkpt><trkpt lat="44.685395" lon="9.304505"><ele>441.0</ele><time>2026-03-28T17:09:17.019Z</time></trkpt><trkpt lat="44.6853017" lon="9.3044"><ele>440.0</ele><time>2026-03-28T17:09:18.02Z</time></trkpt><trkpt lat="44.6851967" lon="9.30431"><ele>440.0</ele><time>2026-03-28T17:09:19.02Z</time></trkpt><trkpt lat="44.6850833" lon="9.30426"><ele>440.0</ele><time>2026-03-28T17:09:20.02Z</time></trkpt><trkpt lat="44.6849733" lon="9.3042167"><ele>440.0</ele><time>2026-03-28T17:09:21.02Z</time></trkpt><trkpt lat="44.6848667" lon="9.304185"><ele>440.0</ele><time>2026-03-28T17:09:22.02Z</time></trkpt><trkpt lat="44.6847833" lon="9.3041383"><ele>440.0</ele><time>2026-03-28T17:09:23.019Z</time></trkpt><trkpt lat="44.6847317" lon="9.304065"><ele>440.0</ele><time>2026-03-28T17:09:24.02Z</time></trkpt><trkpt lat="44.6846967" lon="9.30399"><ele>440.0</ele><time>2026-03-28T17:09:25.02Z</time></trkpt><trkpt lat="44.6847383" lon="9.3038517"><ele>440.0</ele><time>2026-03-28T17:09:27.02Z</time></trkpt><trkpt lat="44.6848017" lon="9.3038267"><ele>440.0</ele><time>2026-03-28T17:09:28.02Z</time></trkpt><trkpt lat="44.6849" lon="9.3038617"><ele>440.0</ele><time>2026-03-28T17:09:29.02Z</time></trkpt><trkpt lat="44.6850233" lon="9.3039483"><ele>440.0</ele><time>2026-03-28T17:09:30.02Z</time></trkpt><trkpt lat="44.6851467" lon="9.304045"><ele>440.0</ele><time>2026-03-28T17:09:31.02Z</time></trkpt><trkpt lat="44.6852717" lon="9.3041267"><ele>440.0</ele><time>2026-03-28T17:09:32.02Z</time></trkpt><trkpt lat="44.6853933" lon="9.3041717"><ele>440.0</ele><time>2026-03-28T17:09:33.019Z</time></trkpt><trkpt lat="44.685505" lon="9.3041817"><ele>438.4</ele><time>2026-03-28T17:09:34.02Z</time></trkpt><trkpt lat="44.6856083" lon="9.304165"><ele>436.8</ele><time>2026-03-28T17:09:35.02Z</time></trkpt><trkpt lat="44.6857067" lon="9.304125"><ele>435.20000000000005</ele><time>2026-03-28T17:09:36.02Z</time></trkpt><trkpt lat="44.685795" lon="9.304085"><ele>433.6</ele><time>2026-03-28T17:09:37.02Z</time></trkpt><trkpt lat="44.6858833" lon="9.3040467"><ele>432.0</ele><time>2026-03-28T17:09:38.02Z</time></trkpt><trkpt lat="44.68595" lon="9.3040083"><ele>432.0</ele><time>2026-03-28T17:09:39.02Z</time></trkpt><trkpt lat="44.6860483" lon="9.3039533"><ele>432.0</ele><time>2026-03-28T17:09:40.02Z</time></trkpt><trkpt lat="44.68615" lon="9.303895"><ele>432.0</ele><time>2026-03-28T17:09:41.019Z</time></trkpt><trkpt lat="44.6862633" lon="9.3038367"><ele>432.0</ele><time>2026-03-28T17:09:42.02Z</time></trkpt><trkpt lat="44.6863783" lon="9.3037867"><ele>426.75</ele><time>2026-03-28T17:09:43.02Z</time></trkpt><trkpt lat="44.6864933" lon="9.3037567"><ele>421.5</ele><time>2026-03-28T17:09:44.02Z</time></trkpt><trkpt lat="44.686605" lon="9.3037433"><ele>416.25</ele><time>2026-03-28T17:09:45.02Z</time></trkpt><trkpt lat="44.686715" lon="9.30376"><ele>411.0</ele><time>2026-03-28T17:09:46.02Z</time></trkpt><trkpt lat="44.6868283" lon="9.303815"><ele>410.25</ele><time>2026-03-28T17:09:47.02Z</time></trkpt><trkpt lat="44.6869433" lon="9.3038867"><ele>409.5</ele><time>2026-03-28T17:09:48.019Z</time></trkpt><trkpt lat="44.6870583" lon="9.3039867"><ele>408.75</ele><time>2026-03-28T17:09:49.02Z</time></trkpt><trkpt lat="44.6871617" lon="9.3041133"><ele>408.0</ele><time>2026-03-28T17:09:50.02Z</time></trkpt><trkpt lat="44.6872667" lon="9.3042533"><ele>408.0</ele><time>2026-03-28T17:09:51.02Z</time></trkpt><trkpt lat="44.687365" lon="9.3043833"><ele>408.0</ele><time>2026-03-28T17:09:52.02Z</time></trkpt><trkpt lat="44.6874483" lon="9.3044917"><ele>408.0</ele><time>2026-03-28T17:09:53.02Z</time></trkpt><trkpt lat="44.6874967" lon="9.3046167"><ele>408.0</ele><time>2026-03-28T17:09:54.02Z</time></trkpt><trkpt lat="44.68752" lon="9.3047617"><ele>408.75</ele><time>2026-03-28T17:09:55.02Z</time></trkpt><trkpt lat="44.6875117" lon="9.3049383"><ele>409.5</ele><time>2026-03-28T17:09:56.02Z</time></trkpt><trkpt lat="44.68749" lon="9.3051183"><ele>410.25</ele><time>2026-03-28T17:09:57.02Z</time></trkpt><trkpt lat="44.6874717" lon="9.3053133"><ele>411.0</ele><time>2026-03-28T17:09:58.019Z</time></trkpt><trkpt lat="44.6874483" lon="9.3054967"><ele>410.0</ele><time>2026-03-28T17:09:59.02Z</time></trkpt><trkpt lat="44.6874217" lon="9.3056767"><ele>409.0</ele><time>2026-03-28T17:10:00.02Z</time></trkpt><trkpt lat="44.6873933" lon="9.3058567"><ele>408.0</ele><time>2026-03-28T17:10:01.019Z</time></trkpt><trkpt lat="44.6873683" lon="9.306045"><ele>407.0</ele><time>2026-03-28T17:10:02.02Z</time></trkpt><trkpt lat="44.68735" lon="9.30624"><ele>405.0</ele><time>2026-03-28T17:10:03.02Z</time></trkpt><trkpt lat="44.6873367" lon="9.3064333"><ele>403.0</ele><time>2026-03-28T17:10:04.02Z</time></trkpt><trkpt lat="44.687325" lon="9.3066067"><ele>401.0</ele><time>2026-03-28T17:10:05.02Z</time></trkpt><trkpt lat="44.6873033" lon="9.3067633"><ele>399.0</ele><time>2026-03-28T17:10:06.02Z</time></trkpt><trkpt lat="44.687255" lon="9.306905"><ele>399.0</ele><time>2026-03-28T17:10:07.019Z</time></trkpt><trkpt lat="44.6871667" lon="9.3070117"><ele>399.0</ele><time>2026-03-28T17:10:08.019Z</time></trkpt><trkpt lat="44.6870717" lon="9.30711"><ele>399.0</ele><time>2026-03-28T17:10:09.02Z</time></trkpt><trkpt lat="44.6869783" lon="9.3071983"><ele>399.0</ele><time>2026-03-28T17:10:10.02Z</time></trkpt><trkpt lat="44.6868983" lon="9.3073"><ele>397.79999999999995</ele><time>2026-03-28T17:10:11.02Z</time></trkpt><trkpt lat="44.6868533" lon="9.3074317"><ele>396.59999999999997</ele><time>2026-03-28T17:10:12.02Z</time></trkpt><trkpt lat="44.68683" lon="9.3075317"><ele>395.4</ele><time>2026-03-28T17:10:13.019Z</time></trkpt><trkpt lat="44.686865" lon="9.3076433"><ele>394.2</ele><time>2026-03-28T17:10:15.02Z</time></trkpt><trkpt lat="44.686955" lon="9.3075933"><ele>393.0</ele><time>2026-03-28T17:10:16.02Z</time></trkpt><trkpt lat="44.68704" lon="9.30753"><ele>393.0</ele><time>2026-03-28T17:10:17.02Z</time></trkpt><trkpt lat="44.687115" lon="9.30743"><ele>393.0</ele><time>2026-03-28T17:10:18.019Z</time></trkpt><trkpt lat="44.6871867" lon="9.3072917"><ele>393.0</ele><time>2026-03-28T17:10:19.02Z</time></trkpt><trkpt lat="44.68728" lon="9.3071767"><ele>393.0</ele><time>2026-03-28T17:10:20.02Z</time></trkpt><trkpt lat="44.6873833" lon="9.307105"><ele>394.0</ele><time>2026-03-28T17:10:21.02Z</time></trkpt><trkpt lat="44.6874783" lon="9.3070433"><ele>395.0</ele><time>2026-03-28T17:10:22.02Z</time></trkpt><trkpt lat="44.6875617" lon="9.306985"><ele>396.0</ele><time>2026-03-28T17:10:23.02Z</time></trkpt><trkpt lat="44.687625" lon="9.30692"><ele>397.0</ele><time>2026-03-28T17:10:24.02Z</time></trkpt><trkpt lat="44.6876683" lon="9.3068333"><ele>398.0</ele><time>2026-03-28T17:10:25.02Z</time></trkpt><trkpt lat="44.687695" lon="9.306715"><ele>399.0</ele><time>2026-03-28T17:10:26.02Z</time></trkpt><trkpt lat="44.6877317" lon="9.3065883"><ele>396.79999999999995</ele><time>2026-03-28T17:10:27.02Z</time></trkpt><trkpt lat="44.68778" lon="9.3064767"><ele>394.59999999999997</ele><time>2026-03-28T17:10:28.019Z</time></trkpt><trkpt lat="44.6878567" lon="9.3064133"><ele>392.4</ele><time>2026-03-28T17:10:29.019Z</time></trkpt><trkpt lat="44.6879533" lon="9.3063883"><ele>390.2</ele><time>2026-03-28T17:10:30.02Z</time></trkpt><trkpt lat="44.688055" lon="9.3064117"><ele>388.0</ele><time>2026-03-28T17:10:31.02Z</time></trkpt><trkpt lat="44.68816" lon="9.3064567"><ele>388.00000000000006</ele><time>2026-03-28T17:10:32.02Z</time></trkpt><trkpt lat="44.6882467" lon="9.306495"><ele>388.0</ele><time>2026-03-28T17:10:33.019Z</time></trkpt><trkpt lat="44.68834" lon="9.3064983"><ele>388.0</ele><time>2026-03-28T17:10:34.02Z</time></trkpt><trkpt lat="44.6884317" lon="9.3064917"><ele>388.0</ele><time>2026-03-28T17:10:35.019Z</time></trkpt><trkpt lat="44.6885167" lon="9.3064733"><ele>388.00000000000006</ele><time>2026-03-28T17:10:36.02Z</time></trkpt><trkpt lat="44.6885967" lon="9.3064433"><ele>388.0</ele><time>2026-03-28T17:10:37.02Z</time></trkpt><trkpt lat="44.688675" lon="9.3064067"><ele>391.2</ele><time>2026-03-28T17:10:38.02Z</time></trkpt><trkpt lat="44.6887567" lon="9.3063533"><ele>394.4</ele><time>2026-03-28T17:10:39.019Z</time></trkpt><trkpt lat="44.6888183" lon="9.3062583"><ele>397.59999999999997</ele><time>2026-03-28T17:10:40.02Z</time></trkpt><trkpt lat="44.6888683" lon="9.30614"><ele>400.79999999999995</ele><time>2026-03-28T17:10:41.02Z</time></trkpt><trkpt lat="44.6888983" lon="9.3059933"><ele>404.0</ele><time>2026-03-28T17:10:42.02Z</time></trkpt><trkpt lat="44.6889233" lon="9.3058517"><ele>404.0</ele><time>2026-03-28T17:10:43.019Z</time></trkpt><trkpt lat="44.6889467" lon="9.3056867"><ele>404.0</ele><time>2026-03-28T17:10:44.02Z</time></trkpt><trkpt lat="44.6889717" lon="9.3055167"><ele>404.0</ele><time>2026-03-28T17:10:45.02Z</time></trkpt><trkpt lat="44.689" lon="9.3053483"><ele>404.0</ele><time>2026-03-28T17:10:46.02Z</time></trkpt><trkpt lat="44.6890367" lon="9.3051867"><ele>402.5</ele><time>2026-03-28T17:10:47.019Z</time></trkpt><trkpt lat="44.6890833" lon="9.3050233"><ele>401.0</ele><time>2026-03-28T17:10:48.02Z</time></trkpt><trkpt lat="44.68914" lon="9.30487"><ele>399.5</ele><time>2026-03-28T17:10:49.02Z</time></trkpt><trkpt lat="44.6892" lon="9.30473"><ele>398.0</ele><time>2026-03-28T17:10:50.02Z</time></trkpt><trkpt lat="44.6892483" lon="9.3045817"><ele>397.4</ele><time>2026-03-28T17:10:51.019Z</time></trkpt><trkpt lat="44.6892833" lon="9.304425"><ele>396.79999999999995</ele><time>2026-03-28T17:10:52.02Z</time></trkpt><trkpt lat="44.6893133" lon="9.3042767"><ele>396.2</ele><time>2026-03-28T17:10:53.02Z</time></trkpt><trkpt lat="44.6893517" lon="9.304135"><ele>395.6</ele><time>2026-03-28T17:10:54.02Z</time></trkpt><trkpt lat="44.6893933" lon="9.30401"><ele>395.0</ele><time>2026-03-28T17:10:55.02Z</time></trkpt><trkpt lat="44.68944" lon="9.3038933"><ele>398.0</ele><time>2026-03-28T17:10:56.02Z</time></trkpt><trkpt lat="44.6895" lon="9.3037883"><ele>401.0</ele><time>2026-03-28T17:10:57.02Z</time></trkpt><trkpt lat="44.68957" lon="9.3036783"><ele>404.0</ele><time>2026-03-28T17:10:58.021Z</time></trkpt><trkpt lat="44.6896483" lon="9.3035683"><ele>407.0</ele><time>2026-03-28T17:10:59.021Z</time></trkpt><trkpt lat="44.6897267" lon="9.303455"><ele>410.0</ele><time>2026-03-28T17:11:00.021Z</time></trkpt><trkpt lat="44.689805" lon="9.3033383"><ele>409.99999999999994</ele><time>2026-03-28T17:11:01.021Z</time></trkpt><trkpt lat="44.68988" lon="9.303225"><ele>410.0</ele><time>2026-03-28T17:11:02.021Z</time></trkpt><trkpt lat="44.6899517" lon="9.3031267"><ele>410.0</ele><time>2026-03-28T17:11:03.021Z</time></trkpt><trkpt lat="44.69002" lon="9.3030417"><ele>410.0</ele><time>2026-03-28T17:11:04.021Z</time></trkpt><trkpt lat="44.6900883" lon="9.3029917"><ele>409.99999999999994</ele><time>2026-03-28T17:11:05.021Z</time></trkpt><trkpt lat="44.6901567" lon="9.302975"><ele>410.0</ele><time>2026-03-28T17:11:06.021Z</time></trkpt><trkpt lat="44.69024" lon="9.3030583"><ele>410.0</ele><time>2026-03-28T17:11:08.02Z</time></trkpt><trkpt lat="44.6902517" lon="9.303155"><ele>410.0</ele><time>2026-03-28T17:11:09.021Z</time></trkpt><trkpt lat="44.6902183" lon="9.3032517"><ele>410.0</ele><time>2026-03-28T17:11:10.021Z</time></trkpt><trkpt lat="44.6901267" lon="9.303355"><ele>410.0</ele><time>2026-03-28T17:11:11.021Z</time></trkpt><trkpt lat="44.690025" lon="9.3034333"><ele>410.0</ele><time>2026-03-28T17:11:12.02Z</time></trkpt><trkpt lat="44.6899517" lon="9.30352"><ele>409.99999999999994</ele><time>2026-03-28T17:11:13.021Z</time></trkpt><trkpt lat="44.6899067" lon="9.3036283"><ele>410.0</ele><time>2026-03-28T17:11:14.021Z</time></trkpt><trkpt lat="44.689895" lon="9.303725"><ele>410.0</ele><time>2026-03-28T17:11:15.021Z</time></trkpt><trkpt lat="44.689905" lon="9.3038217"><ele>410.0</ele><time>2026-03-28T17:11:16.021Z</time></trkpt><trkpt lat="44.68999" lon="9.3038967"><ele>409.99999999999994</ele><time>2026-03-28T17:11:18.021Z</time></trkpt><trkpt lat="44.6900583" lon="9.303865"><ele>410.0</ele><time>2026-03-28T17:11:19.021Z</time></trkpt><trkpt lat="44.690135" lon="9.3037767"><ele>409.99999999999994</ele><time>2026-03-28T17:11:20.021Z</time></trkpt><trkpt lat="44.6902017" lon="9.3036817"><ele>410.0</ele><time>2026-03-28T17:11:21.02Z</time></trkpt><trkpt lat="44.6902667" lon="9.3035817"><ele>410.0</ele><time>2026-03-28T17:11:22.02Z</time></trkpt><trkpt lat="44.6903333" lon="9.3035017"><ele>410.0</ele><time>2026-03-28T17:11:23.021Z</time></trkpt><trkpt lat="44.69041" lon="9.30346"><ele>409.99999999999994</ele><time>2026-03-28T17:11:24.021Z</time></trkpt><trkpt lat="44.690485" lon="9.30343"><ele>410.0</ele><time>2026-03-28T17:11:25.021Z</time></trkpt><trkpt lat="44.69057" lon="9.303425"><ele>411.66666666666663</ele><time>2026-03-28T17:11:26.021Z</time></trkpt><trkpt lat="44.6906517" lon="9.3034233"><ele>413.3333333333333</ele><time>2026-03-28T17:11:27.02Z</time></trkpt><trkpt lat="44.6907367" lon="9.3034217"><ele>415.0</ele><time>2026-03-28T17:11:28.021Z</time></trkpt><trkpt lat="44.690825" lon="9.303415"><ele>416.66666666666663</ele><time>2026-03-28T17:11:29.021Z</time></trkpt><trkpt lat="44.6909133" lon="9.3034183"><ele>418.3333333333333</ele><time>2026-03-28T17:11:30.021Z</time></trkpt><trkpt lat="44.6910033" lon="9.3034083"><ele>420.0</ele><time>2026-03-28T17:11:31.021Z</time></trkpt><trkpt lat="44.69109" lon="9.3033917"><ele>421.6666666666667</ele><time>2026-03-28T17:11:32.021Z</time></trkpt><trkpt lat="44.6911667" lon="9.3033617"><ele>423.33333333333337</ele><time>2026-03-28T17:11:33.021Z</time></trkpt><trkpt lat="44.6912383" lon="9.3033167"><ele>425.0</ele><time>2026-03-28T17:11:34.021Z</time></trkpt><trkpt lat="44.691295" lon="9.3032333"><ele>426.6666666666667</ele><time>2026-03-28T17:11:35.021Z</time></trkpt><trkpt lat="44.6913517" lon="9.3031267"><ele>428.33333333333337</ele><time>2026-03-28T17:11:36.021Z</time></trkpt><trkpt lat="44.6914083" lon="9.303005"><ele>430.0</ele><time>2026-03-28T17:11:37.021Z</time></trkpt><trkpt lat="44.6914733" lon="9.30288"><ele>430.0</ele><time>2026-03-28T17:11:38.021Z</time></trkpt><trkpt lat="44.6915183" lon="9.30275"><ele>430.0</ele><time>2026-03-28T17:11:39.02Z</time></trkpt><trkpt lat="44.6915833" lon="9.3026283"><ele>430.0</ele><time>2026-03-28T17:11:40.021Z</time></trkpt><trkpt lat="44.6916567" lon="9.30251"><ele>430.0</ele><time>2026-03-28T17:11:41.021Z</time></trkpt><trkpt lat="44.6917417" lon="9.3024"><ele>430.0</ele><time>2026-03-28T17:11:42.021Z</time></trkpt><trkpt lat="44.6918367" lon="9.3023133"><ele>432.0</ele><time>2026-03-28T17:11:43.021Z</time></trkpt><trkpt lat="44.691945" lon="9.3022567"><ele>434.0</ele><time>2026-03-28T17:11:44.02Z</time></trkpt><trkpt lat="44.6920517" lon="9.3022017"><ele>436.0</ele><time>2026-03-28T17:11:45.021Z</time></trkpt><trkpt lat="44.6921517" lon="9.3021333"><ele>438.0</ele><time>2026-03-28T17:11:46.021Z</time></trkpt><trkpt lat="44.6922483" lon="9.3020533"><ele>438.0</ele><time>2026-03-28T17:11:47.021Z</time></trkpt><trkpt lat="44.6923433" lon="9.30197"><ele>438.0</ele><time>2026-03-28T17:11:48.021Z</time></trkpt><trkpt lat="44.6924283" lon="9.3018683"><ele>438.0</ele><time>2026-03-28T17:11:49.021Z</time></trkpt><trkpt lat="44.6925133" lon="9.30176"><ele>438.0</ele><time>2026-03-28T17:11:50.021Z</time></trkpt><trkpt lat="44.6925967" lon="9.301645"><ele>438.0</ele><time>2026-03-28T17:11:51.021Z</time></trkpt><trkpt lat="44.6926717" lon="9.3015283"><ele>437.99999999999994</ele><time>2026-03-28T17:11:52.021Z</time></trkpt><trkpt lat="44.692745" lon="9.3014183"><ele>437.99999999999994</ele><time>2026-03-28T17:11:53.021Z</time></trkpt><trkpt lat="44.6928217" lon="9.301315"><ele>438.0</ele><time>2026-03-28T17:11:54.021Z</time></trkpt><trkpt lat="44.6928917" lon="9.3012183"><ele>438.0</ele><time>2026-03-28T17:11:55.021Z</time></trkpt><trkpt lat="44.69295" lon="9.3011383"><ele>437.0</ele><time>2026-03-28T17:11:56.021Z</time></trkpt><trkpt lat="44.6930117" lon="9.3010883"><ele>435.99999999999994</ele><time>2026-03-28T17:11:57.021Z</time></trkpt><trkpt lat="44.6930767" lon="9.3010633"><ele>434.99999999999994</ele><time>2026-03-28T17:11:58.021Z</time></trkpt><trkpt lat="44.6932017" lon="9.3011083"><ele>434.0</ele><time>2026-03-28T17:12:00.021Z</time></trkpt><trkpt lat="44.693265" lon="9.3012083"><ele>433.0</ele><time>2026-03-28T17:12:01.021Z</time></trkpt><trkpt lat="44.6933283" lon="9.3013433"><ele>437.59999999999997</ele><time>2026-03-28T17:12:02.021Z</time></trkpt><trkpt lat="44.6933967" lon="9.301475"><ele>442.19999999999993</ele><time>2026-03-28T17:12:03.021Z</time></trkpt><trkpt lat="44.6934617" lon="9.3015833"><ele>446.8</ele><time>2026-03-28T17:12:04.021Z</time></trkpt><trkpt lat="44.6935317" lon="9.3016667"><ele>451.4</ele><time>2026-03-28T17:12:05.02Z</time></trkpt><trkpt lat="44.6936033" lon="9.30171"><ele>456.0</ele><time>2026-03-28T17:12:06.02Z</time></trkpt><trkpt lat="44.69368" lon="9.3017217"><ele>457.0</ele><time>2026-03-28T17:12:07.021Z</time></trkpt><trkpt lat="44.6937617" lon="9.3017083"><ele>458.0</ele><time>2026-03-28T17:12:08.02Z</time></trkpt><trkpt lat="44.6938617" lon="9.301655"><ele>459.0</ele><time>2026-03-28T17:12:09.021Z</time></trkpt><trkpt lat="44.693965" lon="9.301585"><ele>460.0</ele><time>2026-03-28T17:12:10.021Z</time></trkpt><trkpt lat="44.6940717" lon="9.3015017"><ele>461.0</ele><time>2026-03-28T17:12:11.021Z</time></trkpt><trkpt lat="44.694175" lon="9.301415"><ele>462.25</ele><time>2026-03-28T17:12:12.021Z</time></trkpt><trkpt lat="44.694275" lon="9.30131"><ele>463.5</ele><time>2026-03-28T17:12:13.021Z</time></trkpt><trkpt lat="44.6943667" lon="9.3011917"><ele>464.75</ele><time>2026-03-28T17:12:14.021Z</time></trkpt><trkpt lat="44.694455" lon="9.30107"><ele>466.0</ele><time>2026-03-28T17:12:15.021Z</time></trkpt><trkpt lat="44.694545" lon="9.3009583"><ele>466.0</ele><time>2026-03-28T17:12:16.021Z</time></trkpt><trkpt lat="44.6946367" lon="9.3008717"><ele>466.0</ele><time>2026-03-28T17:12:17.02Z</time></trkpt><trkpt lat="44.6947267" lon="9.300815"><ele>466.0</ele><time>2026-03-28T17:12:18.021Z</time></trkpt><trkpt lat="44.6948233" lon="9.3007917"><ele>466.0</ele><time>2026-03-28T17:12:19.021Z</time></trkpt><trkpt lat="44.6949117" lon="9.30085"><ele>466.0</ele><time>2026-03-28T17:12:20.021Z</time></trkpt><trkpt lat="44.69501" lon="9.3009"><ele>466.0</ele><time>2026-03-28T17:12:21.021Z</time></trkpt><trkpt lat="44.6951067" lon="9.3009317"><ele>466.0</ele><time>2026-03-28T17:12:22.021Z</time></trkpt><trkpt lat="44.69521" lon="9.3009317"><ele>466.0</ele><time>2026-03-28T17:12:23.021Z</time></trkpt><trkpt lat="44.6953217" lon="9.3008967"><ele>466.0</ele><time>2026-03-28T17:12:24.02Z</time></trkpt><trkpt lat="44.6954333" lon="9.3008517"><ele>466.0</ele><time>2026-03-28T17:12:25.021Z</time></trkpt><trkpt lat="44.6955417" lon="9.30079"><ele>465.5</ele><time>2026-03-28T17:12:26.021Z</time></trkpt><trkpt lat="44.69565" lon="9.3007233"><ele>465.0</ele><time>2026-03-28T17:12:27.021Z</time></trkpt><trkpt lat="44.6957567" lon="9.3006433"><ele>464.5</ele><time>2026-03-28T17:12:28.021Z</time></trkpt><trkpt lat="44.69586" lon="9.3005583"><ele>464.0</ele><time>2026-03-28T17:12:29.021Z</time></trkpt><trkpt lat="44.6959617" lon="9.3004833"><ele>463.99999999999994</ele><time>2026-03-28T17:12:30.021Z</time></trkpt><trkpt lat="44.6960583" lon="9.300425"><ele>464.0</ele><time>2026-03-28T17:12:31.021Z</time></trkpt><trkpt lat="44.6961433" lon="9.3003633"><ele>464.0</ele><time>2026-03-28T17:12:32.021Z</time></trkpt><trkpt lat="44.6962217" lon="9.300325"><ele>464.0</ele><time>2026-03-28T17:12:33.021Z</time></trkpt><trkpt lat="44.6963017" lon="9.300315"><ele>463.99999999999994</ele><time>2026-03-28T17:12:34.021Z</time></trkpt><trkpt lat="44.6963817" lon="9.3003183"><ele>464.0</ele><time>2026-03-28T17:12:35.021Z</time></trkpt><trkpt lat="44.696455" lon="9.3003067"><ele>467.3333333333333</ele><time>2026-03-28T17:12:36.02Z</time></trkpt><trkpt lat="44.6965233" lon="9.3002683"><ele>470.66666666666663</ele><time>2026-03-28T17:12:37.021Z</time></trkpt><trkpt lat="44.6965833" lon="9.3002017"><ele>474.0</ele><time>2026-03-28T17:12:38.021Z</time></trkpt><trkpt lat="44.6966167" lon="9.3000867"><ele>477.33333333333337</ele><time>2026-03-28T17:12:39.021Z</time></trkpt><trkpt lat="44.6966367" lon="9.2999583"><ele>480.6666666666667</ele><time>2026-03-28T17:12:40.021Z</time></trkpt><trkpt lat="44.69665" lon="9.2998067"><ele>484.0</ele><time>2026-03-28T17:12:41.021Z</time></trkpt><trkpt lat="44.6966667" lon="9.2996567"><ele>484.0</ele><time>2026-03-28T17:12:42.021Z</time></trkpt><trkpt lat="44.6966917" lon="9.299505"><ele>484.0</ele><time>2026-03-28T17:12:43.02Z</time></trkpt><trkpt lat="44.6967283" lon="9.2993583"><ele>484.0</ele><time>2026-03-28T17:12:44.021Z</time></trkpt><trkpt lat="44.6967867" lon="9.2992233"><ele>484.0</ele><time>2026-03-28T17:12:45.021Z</time></trkpt><trkpt lat="44.6968483" lon="9.299095"><ele>484.0</ele><time>2026-03-28T17:12:46.021Z</time></trkpt><trkpt lat="44.6969033" lon="9.2989617"><ele>487.2</ele><time>2026-03-28T17:12:47.021Z</time></trkpt><trkpt lat="44.6969383" lon="9.29883"><ele>490.4</ele><time>2026-03-28T17:12:48.02Z</time></trkpt><trkpt lat="44.69695" lon="9.2986967"><ele>493.6</ele><time>2026-03-28T17:12:49.021Z</time></trkpt><trkpt lat="44.6969483" lon="9.298565"><ele>496.8</ele><time>2026-03-28T17:12:50.021Z</time></trkpt><trkpt lat="44.6969517" lon="9.2984317"><ele>500.0</ele><time>2026-03-28T17:12:51.021Z</time></trkpt><trkpt lat="44.6969783" lon="9.29829"><ele>500.0</ele><time>2026-03-28T17:12:52.021Z</time></trkpt><trkpt lat="44.6970267" lon="9.298145"><ele>500.0</ele><time>2026-03-28T17:12:53.021Z</time></trkpt><trkpt lat="44.697085" lon="9.2980183"><ele>500.0</ele><time>2026-03-28T17:12:54.021Z</time></trkpt><trkpt lat="44.6971533" lon="9.2978983"><ele>500.0</ele><time>2026-03-28T17:12:55.021Z</time></trkpt><trkpt lat="44.6972283" lon="9.2977867"><ele>500.0</ele><time>2026-03-28T17:12:56.021Z</time></trkpt><trkpt lat="44.6973117" lon="9.2976867"><ele>499.2</ele><time>2026-03-28T17:12:57.021Z</time></trkpt><trkpt lat="44.6974" lon="9.29758"><ele>498.4</ele><time>2026-03-28T17:12:58.021Z</time></trkpt><trkpt lat="44.697485" lon="9.297465"><ele>497.6</ele><time>2026-03-28T17:12:59.021Z</time></trkpt><trkpt lat="44.6975717" lon="9.2973683"><ele>496.8</ele><time>2026-03-28T17:13:00.021Z</time></trkpt><trkpt lat="44.6976517" lon="9.2973033"><ele>496.0</ele><time>2026-03-28T17:13:01.021Z</time></trkpt><trkpt lat="44.6977417" lon="9.29727"><ele>498.0</ele><time>2026-03-28T17:13:02.021Z</time></trkpt><trkpt lat="44.6978217" lon="9.2972917"><ele>500.0</ele><time>2026-03-28T17:13:03.02Z</time></trkpt><trkpt lat="44.6979183" lon="9.2973317"><ele>502.0</ele><time>2026-03-28T17:13:04.021Z</time></trkpt><trkpt lat="44.6980183" lon="9.2973817"><ele>504.0</ele><time>2026-03-28T17:13:05.021Z</time></trkpt><trkpt lat="44.698115" lon="9.2974283"><ele>506.0</ele><time>2026-03-28T17:13:06.021Z</time></trkpt><trkpt lat="44.698215" lon="9.2974733"><ele>506.0</ele><time>2026-03-28T17:13:07.021Z</time></trkpt><trkpt lat="44.698315" lon="9.2975117"><ele>506.0</ele><time>2026-03-28T17:13:08.021Z</time></trkpt><trkpt lat="44.69842" lon="9.297545"><ele>506.0</ele><time>2026-03-28T17:13:09.021Z</time></trkpt><trkpt lat="44.6985117" lon="9.297565"><ele>506.0</ele><time>2026-03-28T17:13:10.021Z</time></trkpt><trkpt lat="44.6985983" lon="9.2975567"><ele>506.0</ele><time>2026-03-28T17:13:11.021Z</time></trkpt><trkpt lat="44.698675" lon="9.2975317"><ele>509.0</ele><time>2026-03-28T17:13:12.021Z</time></trkpt><trkpt lat="44.6987533" lon="9.2974633"><ele>512.0</ele><time>2026-03-28T17:13:13.021Z</time></trkpt><trkpt lat="44.6988083" lon="9.2973517"><ele>515.0</ele><time>2026-03-28T17:13:14.021Z</time></trkpt><trkpt lat="44.6988533" lon="9.29721"><ele>518.0</ele><time>2026-03-28T17:13:15.021Z</time></trkpt><trkpt lat="44.6989017" lon="9.2970683"><ele>521.0</ele><time>2026-03-28T17:13:16.021Z</time></trkpt><trkpt lat="44.698955" lon="9.296925"><ele>521.0</ele><time>2026-03-28T17:13:17.021Z</time></trkpt><trkpt lat="44.6990133" lon="9.2967917"><ele>521.0</ele><time>2026-03-28T17:13:18.021Z</time></trkpt><trkpt lat="44.6990817" lon="9.2966567"><ele>521.0</ele><time>2026-03-28T17:13:19.021Z</time></trkpt><trkpt lat="44.6991583" lon="9.296525"><ele>521.0</ele><time>2026-03-28T17:13:20.021Z</time></trkpt><trkpt lat="44.6992383" lon="9.296375"><ele>519.0</ele><time>2026-03-28T17:13:21.021Z</time></trkpt><trkpt lat="44.69933" lon="9.2962383"><ele>517.0</ele><time>2026-03-28T17:13:22.02Z</time></trkpt><trkpt lat="44.6994283" lon="9.2961133"><ele>515.0</ele><time>2026-03-28T17:13:23.021Z</time></trkpt><trkpt lat="44.6995367" lon="9.2960067"><ele>513.0</ele><time>2026-03-28T17:13:24.02Z</time></trkpt><trkpt lat="44.6996517" lon="9.2959117"><ele>517.25</ele><time>2026-03-28T17:13:25.021Z</time></trkpt><trkpt lat="44.69977" lon="9.2958217"><ele>521.5</ele><time>2026-03-28T17:13:26.02Z</time></trkpt><trkpt lat="44.6998933" lon="9.2957467"><ele>525.75</ele><time>2026-03-28T17:13:27.021Z</time></trkpt><trkpt lat="44.7000233" lon="9.2956717"><ele>530.0</ele><time>2026-03-28T17:13:28.02Z</time></trkpt><trkpt lat="44.7001567" lon="9.2956"><ele>531.25</ele><time>2026-03-28T17:13:29.021Z</time></trkpt><trkpt lat="44.7002883" lon="9.295525"><ele>532.5</ele><time>2026-03-28T17:13:30.02Z</time></trkpt><trkpt lat="44.700415" lon="9.29546"><ele>533.75</ele><time>2026-03-28T17:13:31.021Z</time></trkpt><trkpt lat="44.7005283" lon="9.2954083"><ele>535.0</ele><time>2026-03-28T17:13:32.021Z</time></trkpt><trkpt lat="44.7006167" lon="9.2953483"><ele>535.0</ele><time>2026-03-28T17:13:33.021Z</time></trkpt><trkpt lat="44.7007083" lon="9.2952783"><ele>535.0</ele><time>2026-03-28T17:13:34.021Z</time></trkpt><trkpt lat="44.7007933" lon="9.29518"><ele>535.0</ele><time>2026-03-28T17:13:35.021Z</time></trkpt><trkpt lat="44.700875" lon="9.2950733"><ele>535.0</ele><time>2026-03-28T17:13:36.021Z</time></trkpt><trkpt lat="44.7009583" lon="9.2949567"><ele>535.0</ele><time>2026-03-28T17:13:37.021Z</time></trkpt><trkpt lat="44.7010433" lon="9.29485"><ele>535.3333333333334</ele><time>2026-03-28T17:13:38.021Z</time></trkpt><trkpt lat="44.7011333" lon="9.2947533"><ele>535.6666666666667</ele><time>2026-03-28T17:13:39.02Z</time></trkpt><trkpt lat="44.70121" lon="9.294675"><ele>536.0</ele><time>2026-03-28T17:13:40.021Z</time></trkpt><trkpt lat="44.7012883" lon="9.29463"><ele>536.3333333333334</ele><time>2026-03-28T17:13:41.021Z</time></trkpt><trkpt lat="44.7013717" lon="9.2946283"><ele>536.6666666666666</ele><time>2026-03-28T17:13:42.021Z</time></trkpt><trkpt lat="44.70144" lon="9.2946467"><ele>537.0</ele><time>2026-03-28T17:13:43.021Z</time></trkpt><trkpt lat="44.7014917" lon="9.29479"><ele>538.4</ele><time>2026-03-28T17:13:45.02Z</time></trkpt><trkpt lat="44.701485" lon="9.2949033"><ele>539.8000000000001</ele><time>2026-03-28T17:13:46.021Z</time></trkpt><trkpt lat="44.70143" lon="9.2950017"><ele>541.2</ele><time>2026-03-28T17:13:47.021Z</time></trkpt><trkpt lat="44.7013267" lon="9.2951183"><ele>542.6</ele><time>2026-03-28T17:13:48.021Z</time></trkpt><trkpt lat="44.701205" lon="9.2952117"><ele>544.0</ele><time>2026-03-28T17:13:49.021Z</time></trkpt><trkpt lat="44.701105" lon="9.295285"><ele>543.5</ele><time>2026-03-28T17:13:50.021Z</time></trkpt><trkpt lat="44.701045" lon="9.2953617"><ele>543.0</ele><time>2026-03-28T17:13:51.021Z</time></trkpt><trkpt lat="44.70102" lon="9.2954467"><ele>542.5</ele><time>2026-03-28T17:13:52.021Z</time></trkpt><trkpt lat="44.7010367" lon="9.295605"><ele>542.0</ele><time>2026-03-28T17:13:54.02Z</time></trkpt><trkpt lat="44.7010917" lon="9.2956783"><ele>541.5</ele><time>2026-03-28T17:13:55.021Z</time></trkpt><trkpt lat="44.7011817" lon="9.2956817"><ele>541.0</ele><time>2026-03-28T17:13:56.02Z</time></trkpt><trkpt lat="44.7012533" lon="9.2956633"><ele>541.75</ele><time>2026-03-28T17:13:57.021Z</time></trkpt><trkpt lat="44.7013467" lon="9.295595"><ele>542.5</ele><time>2026-03-28T17:13:58.021Z</time></trkpt><trkpt lat="44.7014417" lon="9.2955"><ele>543.25</ele><time>2026-03-28T17:13:59.021Z</time></trkpt><trkpt lat="44.70154" lon="9.2954067"><ele>544.0</ele><time>2026-03-28T17:14:00.021Z</time></trkpt><trkpt lat="44.7016417" lon="9.295305"><ele>544.0</ele><time>2026-03-28T17:14:01.021Z</time></trkpt><trkpt lat="44.7017467" lon="9.2952133"><ele>544.0</ele><time>2026-03-28T17:14:02.021Z</time></trkpt><trkpt lat="44.7018617" lon="9.2951183"><ele>544.0</ele><time>2026-03-28T17:14:03.021Z</time></trkpt><trkpt lat="44.7019683" lon="9.2950283"><ele>544.0</ele><time>2026-03-28T17:14:04.021Z</time></trkpt><trkpt lat="44.7020867" lon="9.2949517"><ele>546.25</ele><time>2026-03-28T17:14:05.021Z</time></trkpt><trkpt lat="44.70221" lon="9.2948967"><ele>548.5</ele><time>2026-03-28T17:14:06.021Z</time></trkpt><trkpt lat="44.7023367" lon="9.2948533"><ele>550.75</ele><time>2026-03-28T17:14:07.021Z</time></trkpt><trkpt lat="44.70247" lon="9.2948117"><ele>553.0</ele><time>2026-03-28T17:14:08.021Z</time></trkpt><trkpt lat="44.7026017" lon="9.2947883"><ele>553.0</ele><time>2026-03-28T17:14:09.021Z</time></trkpt><trkpt lat="44.7027283" lon="9.29478"><ele>553.0</ele><time>2026-03-28T17:14:10.021Z</time></trkpt><trkpt lat="44.70285" lon="9.294795"><ele>553.0</ele><time>2026-03-28T17:14:11.02Z</time></trkpt><trkpt lat="44.7029717" lon="9.2948283"><ele>553.0</ele><time>2026-03-28T17:14:12.021Z</time></trkpt><trkpt lat="44.70309" lon="9.2948817"><ele>553.75</ele><time>2026-03-28T17:14:13.02Z</time></trkpt><trkpt lat="44.7032067" lon="9.2949617"><ele>554.5</ele><time>2026-03-28T17:14:14.021Z</time></trkpt><trkpt lat="44.7033167" lon="9.2950517"><ele>555.25</ele><time>2026-03-28T17:14:15.021Z</time></trkpt><trkpt lat="44.7034183" lon="9.2951433"><ele>556.0</ele><time>2026-03-28T17:14:16.021Z</time></trkpt><trkpt lat="44.70351" lon="9.2952617"><ele>554.5</ele><time>2026-03-28T17:14:17.021Z</time></trkpt><trkpt lat="44.7036083" lon="9.295385"><ele>553.0</ele><time>2026-03-28T17:14:18.021Z</time></trkpt><trkpt lat="44.7037067" lon="9.2954917"><ele>551.5</ele><time>2026-03-28T17:14:19.021Z</time></trkpt><trkpt lat="44.7038067" lon="9.2955833"><ele>550.0</ele><time>2026-03-28T17:14:20.021Z</time></trkpt><trkpt lat="44.70391" lon="9.295645"><ele>553.4</ele><time>2026-03-28T17:14:21.021Z</time></trkpt><trkpt lat="44.7040183" lon="9.2956783"><ele>556.8</ele><time>2026-03-28T17:14:22.021Z</time></trkpt><trkpt lat="44.7041217" lon="9.295695"><ele>560.2</ele><time>2026-03-28T17:14:23.021Z</time></trkpt><trkpt lat="44.70422" lon="9.29572"><ele>563.6</ele><time>2026-03-28T17:14:24.021Z</time></trkpt><trkpt lat="44.7043033" lon="9.2957667"><ele>567.0</ele><time>2026-03-28T17:14:25.021Z</time></trkpt><trkpt lat="44.7043667" lon="9.2958433"><ele>567.0</ele><time>2026-03-28T17:14:26.02Z</time></trkpt><trkpt lat="44.7044117" lon="9.2959183"><ele>567.0</ele><time>2026-03-28T17:14:27.021Z</time></trkpt><trkpt lat="44.7044233" lon="9.2960217"><ele>567.0</ele><time>2026-03-28T17:14:28.021Z</time></trkpt><trkpt lat="44.70441" lon="9.29612"><ele>567.0</ele><time>2026-03-28T17:14:29.021Z</time></trkpt><trkpt lat="44.704355" lon="9.2961817"><ele>567.0</ele><time>2026-03-28T17:14:30.021Z</time></trkpt><trkpt lat="44.70425" lon="9.2962033"><ele>567.0</ele><time>2026-03-28T17:14:31.021Z</time></trkpt><trkpt lat="44.7041383" lon="9.2961933"><ele>567.0</ele><time>2026-03-28T17:14:32.021Z</time></trkpt><trkpt lat="44.70403" lon="9.2961683"><ele>567.0</ele><time>2026-03-28T17:14:33.021Z</time></trkpt><trkpt lat="44.7039217" lon="9.2961517"><ele>567.0</ele><time>2026-03-28T17:14:34.021Z</time></trkpt><trkpt lat="44.7038183" lon="9.29614"><ele>567.0</ele><time>2026-03-28T17:14:35.021Z</time></trkpt><trkpt lat="44.70371" lon="9.296145"><ele>567.0</ele><time>2026-03-28T17:14:36.021Z</time></trkpt><trkpt lat="44.7036033" lon="9.29617"><ele>568.0</ele><time>2026-03-28T17:14:37.021Z</time></trkpt><trkpt lat="44.7035033" lon="9.2962183"><ele>569.0</ele><time>2026-03-28T17:14:38.02Z</time></trkpt><trkpt lat="44.7034033" lon="9.2962867"><ele>570.0</ele><time>2026-03-28T17:14:39.02Z</time></trkpt><trkpt lat="44.7033083" lon="9.2963617"><ele>571.0</ele><time>2026-03-28T17:14:40.021Z</time></trkpt><trkpt lat="44.7032" lon="9.2964517"><ele>573.0</ele><time>2026-03-28T17:14:41.021Z</time></trkpt><trkpt lat="44.7030883" lon="9.2965417"><ele>575.0</ele><time>2026-03-28T17:14:42.021Z</time></trkpt><trkpt lat="44.702975" lon="9.2966367"><ele>577.0</ele><time>2026-03-28T17:14:43.021Z</time></trkpt><trkpt lat="44.702855" lon="9.2967233"><ele>579.0</ele><time>2026-03-28T17:14:44.021Z</time></trkpt><trkpt lat="44.702725" lon="9.2967933"><ele>579.0</ele><time>2026-03-28T17:14:45.021Z</time></trkpt><trkpt lat="44.7025933" lon="9.2968367"><ele>579.0</ele><time>2026-03-28T17:14:46.021Z</time></trkpt><trkpt lat="44.7024633" lon="9.2968733"><ele>579.0</ele><time>2026-03-28T17:14:47.021Z</time></trkpt><trkpt lat="44.7023317" lon="9.2969117"><ele>579.0</ele><time>2026-03-28T17:14:48.021Z</time></trkpt><trkpt lat="44.7022183" lon="9.296945"><ele>579.0</ele><time>2026-03-28T17:14:49.021Z</time></trkpt><trkpt lat="44.7021217" lon="9.296985"><ele>579.0</ele><time>2026-03-28T17:14:50.02Z</time></trkpt><trkpt lat="44.70205" lon="9.2970433"><ele>579.0</ele><time>2026-03-28T17:14:51.021Z</time></trkpt><trkpt lat="44.702" lon="9.2971217"><ele>579.0</ele><time>2026-03-28T17:14:52.02Z</time></trkpt><trkpt lat="44.701985" lon="9.2972783"><ele>579.0</ele><time>2026-03-28T17:14:54.021Z</time></trkpt><trkpt lat="44.70206" lon="9.297405"><ele>582.0</ele><time>2026-03-28T17:14:56.021Z</time></trkpt><trkpt lat="44.702145" lon="9.2974383"><ele>585.0</ele><time>2026-03-28T17:14:57.021Z</time></trkpt><trkpt lat="44.7022417" lon="9.2974333"><ele>588.0</ele><time>2026-03-28T17:14:58.021Z</time></trkpt><trkpt lat="44.7023467" lon="9.2974067"><ele>591.0</ele><time>2026-03-28T17:14:59.02Z</time></trkpt><trkpt lat="44.7024483" lon="9.2973667"><ele>594.0</ele><time>2026-03-28T17:15:00.021Z</time></trkpt><trkpt lat="44.702555" lon="9.2973333"><ele>594.0</ele><time>2026-03-28T17:15:01.021Z</time></trkpt><trkpt lat="44.70266" lon="9.2973133"><ele>594.0</ele><time>2026-03-28T17:15:02.021Z</time></trkpt><trkpt lat="44.7027667" lon="9.2973067"><ele>594.0</ele><time>2026-03-28T17:15:03.02Z</time></trkpt><trkpt lat="44.7028717" lon="9.29731"><ele>594.0</ele><time>2026-03-28T17:15:04.02Z</time></trkpt><trkpt lat="44.7029717" lon="9.297325"><ele>594.0</ele><time>2026-03-28T17:15:05.021Z</time></trkpt><trkpt lat="44.7030717" lon="9.297355"><ele>594.6</ele><time>2026-03-28T17:15:06.021Z</time></trkpt><trkpt lat="44.7031633" lon="9.2974033"><ele>595.2</ele><time>2026-03-28T17:15:07.021Z</time></trkpt><trkpt lat="44.703255" lon="9.2974617"><ele>595.8000000000001</ele><time>2026-03-28T17:15:08.02Z</time></trkpt><trkpt lat="44.703345" lon="9.297525"><ele>596.4</ele><time>2026-03-28T17:15:09.02Z</time></trkpt><trkpt lat="44.7034383" lon="9.2975983"><ele>597.0</ele><time>2026-03-28T17:15:10.02Z</time></trkpt><trkpt lat="44.7035317" lon="9.29768"><ele>596.6</ele><time>2026-03-28T17:15:11.021Z</time></trkpt><trkpt lat="44.703615" lon="9.2977733"><ele>596.2</ele><time>2026-03-28T17:15:12.021Z</time></trkpt><trkpt lat="44.7036867" lon="9.2978867"><ele>595.8</ele><time>2026-03-28T17:15:13.021Z</time></trkpt><trkpt lat="44.7037517" lon="9.2980083"><ele>595.4</ele><time>2026-03-28T17:15:14.02Z</time></trkpt><trkpt lat="44.7037867" lon="9.2981533"><ele>595.0</ele><time>2026-03-28T17:15:15.021Z</time></trkpt><trkpt lat="44.7038067" lon="9.2982983"><ele>595.0</ele><time>2026-03-28T17:15:16.021Z</time></trkpt><trkpt lat="44.70381" lon="9.2984583"><ele>595.0</ele><time>2026-03-28T17:15:17.021Z</time></trkpt><trkpt lat="44.70381" lon="9.29863"><ele>595.0</ele><time>2026-03-28T17:15:18.02Z</time></trkpt><trkpt lat="44.7038133" lon="9.2988033"><ele>595.0</ele><time>2026-03-28T17:15:19.02Z</time></trkpt><trkpt lat="44.7038267" lon="9.298975"><ele>597.2</ele><time>2026-03-28T17:15:20.021Z</time></trkpt><trkpt lat="44.703845" lon="9.2991433"><ele>599.4</ele><time>2026-03-28T17:15:21.02Z</time></trkpt><trkpt lat="44.7038617" lon="9.299295"><ele>601.6</ele><time>2026-03-28T17:15:22.021Z</time></trkpt><trkpt lat="44.7038633" lon="9.2994267"><ele>603.8</ele><time>2026-03-28T17:15:23.021Z</time></trkpt><trkpt lat="44.7038567" lon="9.2995517"><ele>606.0</ele><time>2026-03-28T17:15:24.021Z</time></trkpt><trkpt lat="44.703825" lon="9.2996433"><ele>606.0</ele><time>2026-03-28T17:15:25.02Z</time></trkpt><trkpt lat="44.7037483" lon="9.299765"><ele>606.0</ele><time>2026-03-28T17:15:27.021Z</time></trkpt><trkpt lat="44.7036183" lon="9.2997467"><ele>606.0</ele><time>2026-03-28T17:15:29.021Z</time></trkpt><trkpt lat="44.7035617" lon="9.2996367"><ele>606.0</ele><time>2026-03-28T17:15:30.021Z</time></trkpt><trkpt lat="44.7035083" lon="9.29949"><ele>608.5</ele><time>2026-03-28T17:15:31.021Z</time></trkpt><trkpt lat="44.7034583" lon="9.2993017"><ele>611.0</ele><time>2026-03-28T17:15:32.02Z</time></trkpt><trkpt lat="44.7034117" lon="9.2991517"><ele>613.5</ele><time>2026-03-28T17:15:33.021Z</time></trkpt><trkpt lat="44.7033483" lon="9.29902"><ele>616.0</ele><time>2026-03-28T17:15:34.021Z</time></trkpt><trkpt lat="44.7032817" lon="9.2989133"><ele>616.0</ele><time>2026-03-28T17:15:35.021Z</time></trkpt><trkpt lat="44.7031817" lon="9.2988617"><ele>616.0</ele><time>2026-03-28T17:15:36.021Z</time></trkpt><trkpt lat="44.70309" lon="9.2988467"><ele>616.0</ele><time>2026-03-28T17:15:37.021Z</time></trkpt><trkpt lat="44.7029967" lon="9.298875"><ele>616.0</ele><time>2026-03-28T17:15:38.02Z</time></trkpt><trkpt lat="44.7029083" lon="9.2989533"><ele>616.0</ele><time>2026-03-28T17:15:39.021Z</time></trkpt><trkpt lat="44.7028417" lon="9.2990517"><ele>616.0</ele><time>2026-03-28T17:15:40.021Z</time></trkpt><trkpt lat="44.70279" lon="9.2991767"><ele>616.0</ele><time>2026-03-28T17:15:41.021Z</time></trkpt><trkpt lat="44.7027633" lon="9.2993133"><ele>616.0</ele><time>2026-03-28T17:15:42.021Z</time></trkpt><trkpt lat="44.702755" lon="9.2994717"><ele>616.0</ele><time>2026-03-28T17:15:43.02Z</time></trkpt><trkpt lat="44.702745" lon="9.2996383"><ele>616.0</ele><time>2026-03-28T17:15:44.02Z</time></trkpt><trkpt lat="44.70274" lon="9.2998033"><ele>619.0</ele><time>2026-03-28T17:15:45.021Z</time></trkpt><trkpt lat="44.70273" lon="9.2999583"><ele>622.0</ele><time>2026-03-28T17:15:46.021Z</time></trkpt><trkpt lat="44.70272" lon="9.30012"><ele>625.0</ele><time>2026-03-28T17:15:47.021Z</time></trkpt><trkpt lat="44.7027183" lon="9.3002817"><ele>628.0</ele><time>2026-03-28T17:15:48.021Z</time></trkpt><trkpt lat="44.7027183" lon="9.3004483"><ele>629.5</ele><time>2026-03-28T17:15:49.021Z</time></trkpt><trkpt lat="44.7027267" lon="9.3006183"><ele>631.0</ele><time>2026-03-28T17:15:50.021Z</time></trkpt><trkpt lat="44.7027383" lon="9.3007867"><ele>632.5</ele><time>2026-03-28T17:15:51.021Z</time></trkpt><trkpt lat="44.7027467" lon="9.3009617"><ele>634.0</ele><time>2026-03-28T17:15:52.02Z</time></trkpt><trkpt lat="44.702755" lon="9.301135"><ele>634.0</ele><time>2026-03-28T17:15:53.021Z</time></trkpt><trkpt lat="44.7027683" lon="9.30129"><ele>634.0</ele><time>2026-03-28T17:15:54.021Z</time></trkpt><trkpt lat="44.7027667" lon="9.3014433"><ele>634.0</ele><time>2026-03-28T17:15:55.021Z</time></trkpt><trkpt lat="44.7027517" lon="9.3015983"><ele>634.0</ele><time>2026-03-28T17:15:56.021Z</time></trkpt><trkpt lat="44.7027183" lon="9.30175"><ele>634.0</ele><time>2026-03-28T17:15:57.021Z</time></trkpt><trkpt lat="44.7026683" lon="9.3018833"><ele>636.0</ele><time>2026-03-28T17:15:58.021Z</time></trkpt><trkpt lat="44.7026133" lon="9.302025"><ele>638.0</ele><time>2026-03-28T17:15:59.021Z</time></trkpt><trkpt lat="44.70255" lon="9.302165"><ele>640.0</ele><time>2026-03-28T17:16:00.021Z</time></trkpt><trkpt lat="44.7024867" lon="9.30231"><ele>642.0</ele><time>2026-03-28T17:16:01.021Z</time></trkpt><trkpt lat="44.70243" lon="9.30245"><ele>642.2</ele><time>2026-03-28T17:16:02.021Z</time></trkpt><trkpt lat="44.702385" lon="9.302585"><ele>642.4000000000001</ele><time>2026-03-28T17:16:03.021Z</time></trkpt><trkpt lat="44.7023417" lon="9.3027267"><ele>642.5999999999999</ele><time>2026-03-28T17:16:04.02Z</time></trkpt><trkpt lat="44.7023283" lon="9.3028717"><ele>642.8</ele><time>2026-03-28T17:16:05.02Z</time></trkpt><trkpt lat="44.7023183" lon="9.3030333"><ele>643.0</ele><time>2026-03-28T17:16:06.021Z</time></trkpt><trkpt lat="44.70232" lon="9.3032"><ele>643.75</ele><time>2026-03-28T17:16:07.021Z</time></trkpt><trkpt lat="44.7023233" lon="9.3033733"><ele>644.5</ele><time>2026-03-28T17:16:08.021Z</time></trkpt><trkpt lat="44.7023267" lon="9.3035483"><ele>645.25</ele><time>2026-03-28T17:16:09.02Z</time></trkpt><trkpt lat="44.7023333" lon="9.30373"><ele>646.0</ele><time>2026-03-28T17:16:10.02Z</time></trkpt><trkpt lat="44.70234" lon="9.3039067"><ele>647.25</ele><time>2026-03-28T17:16:11.021Z</time></trkpt><trkpt lat="44.7023467" lon="9.30408"><ele>648.5</ele><time>2026-03-28T17:16:12.021Z</time></trkpt><trkpt lat="44.70236" lon="9.3042467"><ele>649.75</ele><time>2026-03-28T17:16:13.021Z</time></trkpt><trkpt lat="44.7023867" lon="9.3044017"><ele>651.0</ele><time>2026-03-28T17:16:14.021Z</time></trkpt><trkpt lat="44.7024333" lon="9.3045367"><ele>651.0</ele><time>2026-03-28T17:16:15.021Z</time></trkpt><trkpt lat="44.7025133" lon="9.3046483"><ele>651.0</ele><time>2026-03-28T17:16:16.021Z</time></trkpt><trkpt lat="44.7026033" lon="9.3047583"><ele>651.0</ele><time>2026-03-28T17:16:17.021Z</time></trkpt><trkpt lat="44.7027033" lon="9.30485"><ele>651.0</ele><time>2026-03-28T17:16:18.021Z</time></trkpt><trkpt lat="44.7028033" lon="9.30495"><ele>653.0</ele><time>2026-03-28T17:16:19.021Z</time></trkpt><trkpt lat="44.7029033" lon="9.3050517"><ele>655.0</ele><time>2026-03-28T17:16:20.021Z</time></trkpt><trkpt lat="44.703005" lon="9.3051567"><ele>657.0</ele><time>2026-03-28T17:16:21.02Z</time></trkpt><trkpt lat="44.70311" lon="9.3052633"><ele>659.0</ele><time>2026-03-28T17:16:22.021Z</time></trkpt><trkpt lat="44.7032217" lon="9.30537"><ele>659.0</ele><time>2026-03-28T17:16:23.021Z</time></trkpt><trkpt lat="44.7033283" lon="9.3054833"><ele>659.0</ele><time>2026-03-28T17:16:24.021Z</time></trkpt><trkpt lat="44.70343" lon="9.3055917"><ele>659.0</ele><time>2026-03-28T17:16:25.021Z</time></trkpt><trkpt lat="44.70352" lon="9.3057"><ele>659.0</ele><time>2026-03-28T17:16:26.021Z</time></trkpt><trkpt lat="44.7035917" lon="9.30581"><ele>661.6</ele><time>2026-03-28T17:16:27.021Z</time></trkpt><trkpt lat="44.70363" lon="9.3059283"><ele>664.2</ele><time>2026-03-28T17:16:28.02Z</time></trkpt><trkpt lat="44.703655" lon="9.3060567"><ele>666.8000000000001</ele><time>2026-03-28T17:16:29.021Z</time></trkpt><trkpt lat="44.703635" lon="9.3061917"><ele>669.4000000000001</ele><time>2026-03-28T17:16:30.021Z</time></trkpt><trkpt lat="44.7036033" lon="9.3063217"><ele>672.0</ele><time>2026-03-28T17:16:31.021Z</time></trkpt><trkpt lat="44.70354" lon="9.3064483"><ele>672.2</ele><time>2026-03-28T17:16:32.021Z</time></trkpt><trkpt lat="44.7034767" lon="9.3065717"><ele>672.4000000000001</ele><time>2026-03-28T17:16:33.021Z</time></trkpt><trkpt lat="44.7034033" lon="9.306705"><ele>672.5999999999999</ele><time>2026-03-28T17:16:34.021Z</time></trkpt><trkpt lat="44.7033467" lon="9.3068333"><ele>672.8</ele><time>2026-03-28T17:16:35.021Z</time></trkpt><trkpt lat="44.7032917" lon="9.3069683"><ele>673.0</ele><time>2026-03-28T17:16:36.021Z</time></trkpt><trkpt lat="44.7032333" lon="9.3071067"><ele>675.0</ele><time>2026-03-28T17:16:37.021Z</time></trkpt><trkpt lat="44.7031667" lon="9.3072517"><ele>677.0</ele><time>2026-03-28T17:16:38.021Z</time></trkpt><trkpt lat="44.70311" lon="9.3073967"><ele>679.0</ele><time>2026-03-28T17:16:39.021Z</time></trkpt><trkpt lat="44.703055" lon="9.307545"><ele>681.0</ele><time>2026-03-28T17:16:40.021Z</time></trkpt><trkpt lat="44.703" lon="9.307695"><ele>681.0</ele><time>2026-03-28T17:16:41.021Z</time></trkpt><trkpt lat="44.7029483" lon="9.3078333"><ele>681.0</ele><time>2026-03-28T17:16:42.021Z</time></trkpt><trkpt lat="44.7028883" lon="9.3079817"><ele>681.0</ele><time>2026-03-28T17:16:43.021Z</time></trkpt><trkpt lat="44.7028233" lon="9.3081317"><ele>681.0</ele><time>2026-03-28T17:16:44.021Z</time></trkpt><trkpt lat="44.70276" lon="9.3082833"><ele>680.25</ele><time>2026-03-28T17:16:45.02Z</time></trkpt><trkpt lat="44.70269" lon="9.3084383"><ele>679.5</ele><time>2026-03-28T17:16:46.02Z</time></trkpt><trkpt lat="44.70262" lon="9.3085817"><ele>678.75</ele><time>2026-03-28T17:16:47.021Z</time></trkpt><trkpt lat="44.7025467" lon="9.3087317"><ele>678.0</ele><time>2026-03-28T17:16:48.021Z</time></trkpt><trkpt lat="44.70247" lon="9.3088767"><ele>681.5</ele><time>2026-03-28T17:16:49.021Z</time></trkpt><trkpt lat="44.7023733" lon="9.30899"><ele>685.0</ele><time>2026-03-28T17:16:50.021Z</time></trkpt><trkpt lat="44.7022683" lon="9.30908"><ele>688.5</ele><time>2026-03-28T17:16:51.021Z</time></trkpt><trkpt lat="44.70215" lon="9.3091233"><ele>692.0</ele><time>2026-03-28T17:16:52.021Z</time></trkpt><trkpt lat="44.7020317" lon="9.309135"><ele>691.75</ele><time>2026-03-28T17:16:53.021Z</time></trkpt><trkpt lat="44.7019033" lon="9.3091283"><ele>691.5</ele><time>2026-03-28T17:16:54.021Z</time></trkpt><trkpt lat="44.7017817" lon="9.3091133"><ele>691.25</ele><time>2026-03-28T17:16:55.021Z</time></trkpt><trkpt lat="44.7016683" lon="9.3090967"><ele>691.0</ele><time>2026-03-28T17:16:56.02Z</time></trkpt><trkpt lat="44.7015733" lon="9.3090917"><ele>691.0</ele><time>2026-03-28T17:16:57.021Z</time></trkpt><trkpt lat="44.701485" lon="9.3091333"><ele>691.0</ele><time>2026-03-28T17:16:58.021Z</time></trkpt><trkpt lat="44.701415" lon="9.3091967"><ele>691.0</ele><time>2026-03-28T17:16:59.021Z</time></trkpt><trkpt lat="44.7013633" lon="9.3092783"><ele>691.0</ele><time>2026-03-28T17:17:00.021Z</time></trkpt><trkpt lat="44.701335" lon="9.3093817"><ele>691.0</ele><time>2026-03-28T17:17:01.021Z</time></trkpt><trkpt lat="44.7013383" lon="9.3095033"><ele>691.0</ele><time>2026-03-28T17:17:02.021Z</time></trkpt><trkpt lat="44.70135" lon="9.309615"><ele>691.0</ele><time>2026-03-28T17:17:03.02Z</time></trkpt><trkpt lat="44.7013933" lon="9.3097283"><ele>691.0</ele><time>2026-03-28T17:17:04.021Z</time></trkpt><trkpt lat="44.701455" lon="9.3098067"><ele>691.0</ele><time>2026-03-28T17:17:05.021Z</time></trkpt><trkpt lat="44.7015483" lon="9.3098583"><ele>691.0</ele><time>2026-03-28T17:17:06.021Z</time></trkpt><trkpt lat="44.7016583" lon="9.309845"><ele>691.0</ele><time>2026-03-28T17:17:07.021Z</time></trkpt><trkpt lat="44.701795" lon="9.30978"><ele>691.25</ele><time>2026-03-28T17:17:08.021Z</time></trkpt><trkpt lat="44.7019167" lon="9.3097367"><ele>691.5</ele><time>2026-03-28T17:17:09.021Z</time></trkpt><trkpt lat="44.7020467" lon="9.3097033"><ele>691.75</ele><time>2026-03-28T17:17:10.02Z</time></trkpt><trkpt lat="44.7021767" lon="9.30966"><ele>692.0</ele><time>2026-03-28T17:17:11.021Z</time></trkpt><trkpt lat="44.702305" lon="9.309625"><ele>692.0</ele><time>2026-03-28T17:17:12.021Z</time></trkpt><trkpt lat="44.7024317" lon="9.3096183"><ele>692.0</ele><time>2026-03-28T17:17:13.021Z</time></trkpt><trkpt lat="44.70255" lon="9.3096417"><ele>692.0</ele><time>2026-03-28T17:17:14.021Z</time></trkpt><trkpt lat="44.702665" lon="9.3096917"><ele>692.0</ele><time>2026-03-28T17:17:15.021Z</time></trkpt><trkpt lat="44.7027917" lon="9.3097517"><ele>697.5</ele><time>2026-03-28T17:17:16.021Z</time></trkpt><trkpt lat="44.7029083" lon="9.3098117"><ele>703.0</ele><time>2026-03-28T17:17:17.02Z</time></trkpt><trkpt lat="44.7030283" lon="9.309845"><ele>708.5</ele><time>2026-03-28T17:17:18.021Z</time></trkpt><trkpt lat="44.7031467" lon="9.30985"><ele>714.0</ele><time>2026-03-28T17:17:19.021Z</time></trkpt><trkpt lat="44.7032517" lon="9.3098333"><ele>714.0</ele><time>2026-03-28T17:17:20.021Z</time></trkpt><trkpt lat="44.7033533" lon="9.3097983"><ele>714.0</ele><time>2026-03-28T17:17:21.021Z</time></trkpt><trkpt lat="44.70346" lon="9.3097233"><ele>714.0</ele><time>2026-03-28T17:17:22.021Z</time></trkpt><trkpt lat="44.7035633" lon="9.30965"><ele>714.0</ele><time>2026-03-28T17:17:23.02Z</time></trkpt><trkpt lat="44.7036583" lon="9.309585"><ele>714.0</ele><time>2026-03-28T17:17:24.021Z</time></trkpt><trkpt lat="44.7037633" lon="9.3095333"><ele>712.25</ele><time>2026-03-28T17:17:25.021Z</time></trkpt><trkpt lat="44.7038733" lon="9.3095217"><ele>710.5</ele><time>2026-03-28T17:17:26.021Z</time></trkpt><trkpt lat="44.703985" lon="9.3095333"><ele>708.75</ele><time>2026-03-28T17:17:27.021Z</time></trkpt><trkpt lat="44.7040967" lon="9.3095633"><ele>707.0</ele><time>2026-03-28T17:17:28.021Z</time></trkpt><trkpt lat="44.7042067" lon="9.30962"><ele>707.0</ele><time>2026-03-28T17:17:29.021Z</time></trkpt><trkpt lat="44.7043033" lon="9.3097"><ele>707.0</ele><time>2026-03-28T17:17:30.021Z</time></trkpt><trkpt lat="44.7044" lon="9.30979"><ele>707.0</ele><time>2026-03-28T17:17:31.02Z</time></trkpt><trkpt lat="44.7045" lon="9.3098517"><ele>707.0</ele><time>2026-03-28T17:17:32.021Z</time></trkpt><trkpt lat="44.7046017" lon="9.3098817"><ele>707.0</ele><time>2026-03-28T17:17:33.021Z</time></trkpt><trkpt lat="44.7046967" lon="9.3098833"><ele>708.4000000000001</ele><time>2026-03-28T17:17:34.021Z</time></trkpt><trkpt lat="44.7047983" lon="9.309855"><ele>709.8000000000001</ele><time>2026-03-28T17:17:35.021Z</time></trkpt><trkpt lat="44.7048983" lon="9.3098183"><ele>711.2</ele><time>2026-03-28T17:17:36.021Z</time></trkpt><trkpt lat="44.7049983" lon="9.3097817"><ele>712.6</ele><time>2026-03-28T17:17:37.021Z</time></trkpt><trkpt lat="44.7051017" lon="9.3097367"><ele>714.0</ele><time>2026-03-28T17:17:38.021Z</time></trkpt><trkpt lat="44.7052167" lon="9.309675"><ele>715.75</ele><time>2026-03-28T17:17:39.021Z</time></trkpt><trkpt lat="44.7053367" lon="9.3096217"><ele>717.5</ele><time>2026-03-28T17:17:40.02Z</time></trkpt><trkpt lat="44.7054533" lon="9.3095783"><ele>719.25</ele><time>2026-03-28T17:17:41.021Z</time></trkpt><trkpt lat="44.7055733" lon="9.309555"><ele>721.0</ele><time>2026-03-28T17:17:42.021Z</time></trkpt><trkpt lat="44.7056967" lon="9.30955"><ele>721.0</ele><time>2026-03-28T17:17:43.021Z</time></trkpt><trkpt lat="44.705825" lon="9.3095667"><ele>721.0</ele><time>2026-03-28T17:17:44.021Z</time></trkpt><trkpt lat="44.705955" lon="9.3095917"><ele>721.0</ele><time>2026-03-28T17:17:45.021Z</time></trkpt><trkpt lat="44.70608" lon="9.309625"><ele>721.0</ele><time>2026-03-28T17:17:46.02Z</time></trkpt><trkpt lat="44.7062017" lon="9.3096567"><ele>723.5999999999999</ele><time>2026-03-28T17:17:47.021Z</time></trkpt><trkpt lat="44.7063167" lon="9.309675"><ele>726.2</ele><time>2026-03-28T17:17:48.021Z</time></trkpt><trkpt lat="44.7064283" lon="9.3096733"><ele>728.8</ele><time>2026-03-28T17:17:49.021Z</time></trkpt><trkpt lat="44.706525" lon="9.309645"><ele>731.4000000000001</ele><time>2026-03-28T17:17:50.021Z</time></trkpt><trkpt lat="44.70662" lon="9.3095783"><ele>734.0</ele><time>2026-03-28T17:17:51.021Z</time></trkpt><trkpt lat="44.7067067" lon="9.3094867"><ele>734.0</ele><time>2026-03-28T17:17:52.021Z</time></trkpt><trkpt lat="44.706795" lon="9.3093783"><ele>734.0</ele><time>2026-03-28T17:17:53.021Z</time></trkpt><trkpt lat="44.7068867" lon="9.30927"><ele>734.0</ele><time>2026-03-28T17:17:54.021Z</time></trkpt><trkpt lat="44.7069867" lon="9.3091617"><ele>734.0</ele><time>2026-03-28T17:17:55.021Z</time></trkpt><trkpt lat="44.7070833" lon="9.3090517"><ele>736.5</ele><time>2026-03-28T17:17:56.021Z</time></trkpt><trkpt lat="44.7071683" lon="9.3089267"><ele>739.0</ele><time>2026-03-28T17:17:57.021Z</time></trkpt><trkpt lat="44.7072417" lon="9.3088017"><ele>741.5</ele><time>2026-03-28T17:17:58.021Z</time></trkpt><trkpt lat="44.70728" lon="9.3086533"><ele>744.0</ele><time>2026-03-28T17:17:59.021Z</time></trkpt><trkpt lat="44.70731" lon="9.3085133"><ele>744.0</ele><time>2026-03-28T17:18:00.021Z</time></trkpt><trkpt lat="44.7073267" lon="9.3083567"><ele>744.0</ele><time>2026-03-28T17:18:01.02Z</time></trkpt><trkpt lat="44.7073383" lon="9.3082033"><ele>744.0</ele><time>2026-03-28T17:18:02.021Z</time></trkpt><trkpt lat="44.7073533" lon="9.3080583"><ele>744.0</ele><time>2026-03-28T17:18:03.02Z</time></trkpt><trkpt lat="44.7073783" lon="9.3079267"><ele>744.0</ele><time>2026-03-28T17:18:04.021Z</time></trkpt><trkpt lat="44.7074217" lon="9.307815"><ele>745.4000000000001</ele><time>2026-03-28T17:18:05.021Z</time></trkpt><trkpt lat="44.707485" lon="9.30773"><ele>746.8</ele><time>2026-03-28T17:18:06.021Z</time></trkpt><trkpt lat="44.7075733" lon="9.3076817"><ele>748.2</ele><time>2026-03-28T17:18:07.021Z</time></trkpt><trkpt lat="44.7076633" lon="9.307635"><ele>749.5999999999999</ele><time>2026-03-28T17:18:08.021Z</time></trkpt><trkpt lat="44.7077633" lon="9.30759"><ele>751.0</ele><time>2026-03-28T17:18:09.021Z</time></trkpt><trkpt lat="44.707865" lon="9.30755"><ele>751.0</ele><time>2026-03-28T17:18:10.021Z</time></trkpt><trkpt lat="44.707975" lon="9.3075133"><ele>751.0</ele><time>2026-03-28T17:18:11.021Z</time></trkpt><trkpt lat="44.7080833" lon="9.307485"><ele>751.0</ele><time>2026-03-28T17:18:12.021Z</time></trkpt><trkpt lat="44.708195" lon="9.3074533"><ele>751.0</ele><time>2026-03-28T17:18:13.021Z</time></trkpt><trkpt lat="44.70831" lon="9.3074317"><ele>751.0</ele><time>2026-03-28T17:18:14.021Z</time></trkpt><trkpt lat="44.7084233" lon="9.3074233"><ele>751.0</ele><time>2026-03-28T17:18:15.02Z</time></trkpt><trkpt lat="44.708545" lon="9.3074383"><ele>751.0</ele><time>2026-03-28T17:18:16.021Z</time></trkpt><trkpt lat="44.7086583" lon="9.3074567"><ele>751.0</ele><time>2026-03-28T17:18:17.021Z</time></trkpt><trkpt lat="44.7087667" lon="9.3074583"><ele>753.4</ele><time>2026-03-28T17:18:18.021Z</time></trkpt><trkpt lat="44.7088633" lon="9.307445"><ele>755.8</ele><time>2026-03-28T17:18:19.021Z</time></trkpt><trkpt lat="44.7089567" lon="9.3074133"><ele>758.1999999999999</ele><time>2026-03-28T17:18:20.021Z</time></trkpt><trkpt lat="44.7090367" lon="9.307335"><ele>760.5999999999999</ele><time>2026-03-28T17:18:21.021Z</time></trkpt><trkpt lat="44.7091" lon="9.30725"><ele>763.0</ele><time>2026-03-28T17:18:22.021Z</time></trkpt><trkpt lat="44.7091333" lon="9.30713"><ele>763.5999999999999</ele><time>2026-03-28T17:18:23.021Z</time></trkpt><trkpt lat="44.7091367" lon="9.3069867"><ele>764.1999999999999</ele><time>2026-03-28T17:18:24.021Z</time></trkpt><trkpt lat="44.7091117" lon="9.3068317"><ele>764.8</ele><time>2026-03-28T17:18:25.02Z</time></trkpt><trkpt lat="44.7090783" lon="9.3066883"><ele>765.4</ele><time>2026-03-28T17:18:26.021Z</time></trkpt><trkpt lat="44.7090133" lon="9.3065367"><ele>766.0</ele><time>2026-03-28T17:18:27.021Z</time></trkpt><trkpt lat="44.7089433" lon="9.3063967"><ele>767.25</ele><time>2026-03-28T17:18:28.021Z</time></trkpt><trkpt lat="44.7088717" lon="9.3062567"><ele>768.5</ele><time>2026-03-28T17:18:29.021Z</time></trkpt><trkpt lat="44.7088083" lon="9.30612"><ele>769.75</ele><time>2026-03-28T17:18:30.021Z</time></trkpt><trkpt lat="44.70874" lon="9.3059933"><ele>771.0</ele><time>2026-03-28T17:18:31.021Z</time></trkpt><trkpt lat="44.708675" lon="9.3058683"><ele>771.0</ele><time>2026-03-28T17:18:32.021Z</time></trkpt><trkpt lat="44.708625" lon="9.3057467"><ele>771.0</ele><time>2026-03-28T17:18:33.021Z</time></trkpt><trkpt lat="44.7085883" lon="9.3056233"><ele>771.0</ele><time>2026-03-28T17:18:34.021Z</time></trkpt><trkpt lat="44.70859" lon="9.3055033"><ele>771.0</ele><time>2026-03-28T17:18:35.021Z</time></trkpt><trkpt lat="44.7086033" lon="9.3053733"><ele>771.0</ele><time>2026-03-28T17:18:36.02Z</time></trkpt><trkpt lat="44.7086483" lon="9.305265"><ele>770.8</ele><time>2026-03-28T17:18:37.021Z</time></trkpt><trkpt lat="44.7087017" lon="9.3051533"><ele>770.5999999999999</ele><time>2026-03-28T17:18:38.021Z</time></trkpt><trkpt lat="44.7087583" lon="9.305045"><ele>770.4</ele><time>2026-03-28T17:18:39.021Z</time></trkpt><trkpt lat="44.7088267" lon="9.30494"><ele>770.2</ele><time>2026-03-28T17:18:40.021Z</time></trkpt><trkpt lat="44.7089167" lon="9.30485"><ele>770.0</ele><time>2026-03-28T17:18:41.02Z</time></trkpt><trkpt lat="44.7090183" lon="9.3047883"><ele>770.0</ele><time>2026-03-28T17:18:42.02Z</time></trkpt><trkpt lat="44.70913" lon="9.3047467"><ele>770.0</ele><time>2026-03-28T17:18:43.021Z</time></trkpt><trkpt lat="44.709245" lon="9.3047133"><ele>770.0</ele><time>2026-03-28T17:18:44.021Z</time></trkpt><trkpt lat="44.7093633" lon="9.3046817"><ele>770.0</ele><time>2026-03-28T17:18:45.021Z</time></trkpt><trkpt lat="44.7094867" lon="9.3046517"><ele>768.75</ele><time>2026-03-28T17:18:46.021Z</time></trkpt><trkpt lat="44.709615" lon="9.3046283"><ele>767.5</ele><time>2026-03-28T17:18:47.021Z</time></trkpt><trkpt lat="44.7097383" lon="9.3046017"><ele>766.25</ele><time>2026-03-28T17:18:48.02Z</time></trkpt><trkpt lat="44.709865" lon="9.3045917"><ele>765.0</ele><time>2026-03-28T17:18:49.021Z</time></trkpt><trkpt lat="44.7099933" lon="9.3045867"><ele>765.0</ele><time>2026-03-28T17:18:50.021Z</time></trkpt><trkpt lat="44.7101283" lon="9.3045833"><ele>765.0</ele><time>2026-03-28T17:18:51.022Z</time></trkpt><trkpt lat="44.710265" lon="9.3045817"><ele>765.0</ele><time>2026-03-28T17:18:52.022Z</time></trkpt><trkpt lat="44.710395" lon="9.304575"><ele>765.0</ele><time>2026-03-28T17:18:53.022Z</time></trkpt><trkpt lat="44.7105267" lon="9.30454"><ele>767.5</ele><time>2026-03-28T17:18:54.022Z</time></trkpt><trkpt lat="44.7106533" lon="9.30448"><ele>770.0</ele><time>2026-03-28T17:18:55.022Z</time></trkpt><trkpt lat="44.7107733" lon="9.3044083"><ele>772.5</ele><time>2026-03-28T17:18:56.022Z</time></trkpt><trkpt lat="44.710885" lon="9.3043217"><ele>775.0</ele><time>2026-03-28T17:18:57.021Z</time></trkpt><trkpt lat="44.710995" lon="9.30424"><ele>778.5</ele><time>2026-03-28T17:18:58.022Z</time></trkpt><trkpt lat="44.7111083" lon="9.3041583"><ele>782.0</ele><time>2026-03-28T17:18:59.022Z</time></trkpt><trkpt lat="44.7112233" lon="9.3041"><ele>785.5</ele><time>2026-03-28T17:19:00.022Z</time></trkpt><trkpt lat="44.7113383" lon="9.30405"><ele>789.0</ele><time>2026-03-28T17:19:01.022Z</time></trkpt><trkpt lat="44.7114567" lon="9.30402"><ele>789.0</ele><time>2026-03-28T17:19:02.022Z</time></trkpt><trkpt lat="44.7115817" lon="9.3039983"><ele>789.0</ele><time>2026-03-28T17:19:03.022Z</time></trkpt><trkpt lat="44.7116983" lon="9.3039767"><ele>789.0</ele><time>2026-03-28T17:19:04.021Z</time></trkpt><trkpt lat="44.71183" lon="9.303955"><ele>789.0</ele><time>2026-03-28T17:19:05.022Z</time></trkpt><trkpt lat="44.71196" lon="9.3039317"><ele>789.6</ele><time>2026-03-28T17:19:06.021Z</time></trkpt><trkpt lat="44.7120783" lon="9.30392"><ele>790.2</ele><time>2026-03-28T17:19:07.021Z</time></trkpt><trkpt lat="44.7121967" lon="9.3039133"><ele>790.8000000000001</ele><time>2026-03-28T17:19:08.022Z</time></trkpt><trkpt lat="44.7123033" lon="9.303925"><ele>791.4000000000001</ele><time>2026-03-28T17:19:09.022Z</time></trkpt><trkpt lat="44.7124033" lon="9.303955"><ele>792.0</ele><time>2026-03-28T17:19:10.022Z</time></trkpt><trkpt lat="44.7124917" lon="9.30401"><ele>792.0</ele><time>2026-03-28T17:19:11.022Z</time></trkpt><trkpt lat="44.7125617" lon="9.3040933"><ele>792.0</ele><time>2026-03-28T17:19:12.022Z</time></trkpt><trkpt lat="44.7126033" lon="9.304235"><ele>792.0</ele><time>2026-03-28T17:19:13.021Z</time></trkpt><trkpt lat="44.71264" lon="9.3043667"><ele>792.0</ele><time>2026-03-28T17:19:14.022Z</time></trkpt><trkpt lat="44.7126783" lon="9.3044833"><ele>792.0</ele><time>2026-03-28T17:19:15.022Z</time></trkpt><trkpt lat="44.7127217" lon="9.304565"><ele>792.8333333333334</ele><time>2026-03-28T17:19:16.022Z</time></trkpt><trkpt lat="44.71279" lon="9.3046333"><ele>793.6666666666667</ele><time>2026-03-28T17:19:17.021Z</time></trkpt><trkpt lat="44.71287" lon="9.3046867"><ele>794.5</ele><time>2026-03-28T17:19:18.022Z</time></trkpt><trkpt lat="44.712955" lon="9.3047"><ele>795.3333333333334</ele><time>2026-03-28T17:19:19.021Z</time></trkpt><trkpt lat="44.7130417" lon="9.3046867"><ele>796.1666666666667</ele><time>2026-03-28T17:19:20.022Z</time></trkpt><trkpt lat="44.7131317" lon="9.3046167"><ele>797.0</ele><time>2026-03-28T17:19:21.022Z</time></trkpt><trkpt lat="44.713215" lon="9.3045517"><ele>797.0</ele><time>2026-03-28T17:19:22.021Z</time></trkpt><trkpt lat="44.7133083" lon="9.3044733"><ele>797.0</ele><time>2026-03-28T17:19:23.022Z</time></trkpt><trkpt lat="44.713405" lon="9.3043867"><ele>797.0</ele><time>2026-03-28T17:19:24.022Z</time></trkpt><trkpt lat="44.71351" lon="9.30428"><ele>797.0</ele><time>2026-03-28T17:19:25.022Z</time></trkpt><trkpt lat="44.7136133" lon="9.304175"><ele>797.5</ele><time>2026-03-28T17:19:26.022Z</time></trkpt><trkpt lat="44.7137033" lon="9.3040467"><ele>798.0</ele><time>2026-03-28T17:19:27.022Z</time></trkpt><trkpt lat="44.7137817" lon="9.30392"><ele>798.5</ele><time>2026-03-28T17:19:28.022Z</time></trkpt><trkpt lat="44.71385" lon="9.3037867"><ele>799.0</ele><time>2026-03-28T17:19:29.022Z</time></trkpt><trkpt lat="44.7139233" lon="9.303655"><ele>799.0</ele><time>2026-03-28T17:19:30.022Z</time></trkpt><trkpt lat="44.7139983" lon="9.303535"><ele>799.0</ele><time>2026-03-28T17:19:31.022Z</time></trkpt><trkpt lat="44.71408" lon="9.3034517"><ele>799.0</ele><time>2026-03-28T17:19:32.022Z</time></trkpt><trkpt lat="44.7141633" lon="9.3033933"><ele>799.0</ele><time>2026-03-28T17:19:33.022Z</time></trkpt><trkpt lat="44.7142533" lon="9.3033733"><ele>799.0</ele><time>2026-03-28T17:19:34.022Z</time></trkpt><trkpt lat="44.7143717" lon="9.3034183"><ele>798.8000000000001</ele><time>2026-03-28T17:19:35.022Z</time></trkpt><trkpt lat="44.7144783" lon="9.3035067"><ele>798.6</ele><time>2026-03-28T17:19:36.022Z</time></trkpt><trkpt lat="44.7145667" lon="9.303585"><ele>798.4</ele><time>2026-03-28T17:19:37.022Z</time></trkpt><trkpt lat="44.7146383" lon="9.3036833"><ele>798.2</ele><time>2026-03-28T17:19:38.022Z</time></trkpt><trkpt lat="44.7146883" lon="9.3038117"><ele>798.0</ele><time>2026-03-28T17:19:39.021Z</time></trkpt><trkpt lat="44.7147083" lon="9.3039833"><ele>798.0</ele><time>2026-03-28T17:19:40.022Z</time></trkpt><trkpt lat="44.7147233" lon="9.3041467"><ele>798.0</ele><time>2026-03-28T17:19:41.022Z</time></trkpt><trkpt lat="44.714735" lon="9.3043017"><ele>798.0</ele><time>2026-03-28T17:19:42.022Z</time></trkpt><trkpt lat="44.7147633" lon="9.3044467"><ele>798.0</ele><time>2026-03-28T17:19:43.022Z</time></trkpt><trkpt lat="44.7148067" lon="9.3045817"><ele>798.0</ele><time>2026-03-28T17:19:44.022Z</time></trkpt><trkpt lat="44.7148683" lon="9.3047117"><ele>799.4</ele><time>2026-03-28T17:19:45.022Z</time></trkpt><trkpt lat="44.714935" lon="9.3048317"><ele>800.8</ele><time>2026-03-28T17:19:46.022Z</time></trkpt><trkpt lat="44.715005" lon="9.3049483"><ele>802.2</ele><time>2026-03-28T17:19:47.021Z</time></trkpt><trkpt lat="44.7150817" lon="9.3050517"><ele>803.6</ele><time>2026-03-28T17:19:48.022Z</time></trkpt><trkpt lat="44.7151583" lon="9.30514"><ele>805.0</ele><time>2026-03-28T17:19:49.022Z</time></trkpt><trkpt lat="44.7152483" lon="9.3052083"><ele>805.0</ele><time>2026-03-28T17:19:50.022Z</time></trkpt><trkpt lat="44.7153433" lon="9.305255"><ele>805.0</ele><time>2026-03-28T17:19:51.022Z</time></trkpt><trkpt lat="44.715445" lon="9.3052833"><ele>805.0</ele><time>2026-03-28T17:19:52.022Z</time></trkpt><trkpt lat="44.7155533" lon="9.30529"><ele>805.0</ele><time>2026-03-28T17:19:53.021Z</time></trkpt><trkpt lat="44.7156617" lon="9.3052783"><ele>805.0</ele><time>2026-03-28T17:19:54.022Z</time></trkpt><trkpt lat="44.71578" lon="9.3052683"><ele>805.0</ele><time>2026-03-28T17:19:55.022Z</time></trkpt><trkpt lat="44.7158933" lon="9.305255"><ele>805.0</ele><time>2026-03-28T17:19:56.022Z</time></trkpt><trkpt lat="44.71599" lon="9.305225"><ele>805.0</ele><time>2026-03-28T17:19:57.022Z</time></trkpt><trkpt lat="44.71608" lon="9.305165"><ele>805.0</ele><time>2026-03-28T17:19:58.022Z</time></trkpt><trkpt lat="44.7161583" lon="9.3050833"><ele>805.0</ele><time>2026-03-28T17:19:59.022Z</time></trkpt><trkpt lat="44.71622" lon="9.30497"><ele>807.0</ele><time>2026-03-28T17:20:00.022Z</time></trkpt><trkpt lat="44.7162683" lon="9.3048367"><ele>809.0</ele><time>2026-03-28T17:20:01.022Z</time></trkpt><trkpt lat="44.716325" lon="9.3047067"><ele>811.0</ele><time>2026-03-28T17:20:02.022Z</time></trkpt><trkpt lat="44.7163983" lon="9.30458"><ele>813.0</ele><time>2026-03-28T17:20:03.022Z</time></trkpt><trkpt lat="44.7164867" lon="9.3044517"><ele>813.0</ele><time>2026-03-28T17:20:04.022Z</time></trkpt><trkpt lat="44.71657" lon="9.304325"><ele>813.0</ele><time>2026-03-28T17:20:05.022Z</time></trkpt><trkpt lat="44.7166533" lon="9.3041983"><ele>813.0</ele><time>2026-03-28T17:20:06.022Z</time></trkpt><trkpt lat="44.71672" lon="9.3040533"><ele>813.0</ele><time>2026-03-28T17:20:07.021Z</time></trkpt><trkpt lat="44.7167733" lon="9.30389"><ele>812.0</ele><time>2026-03-28T17:20:08.022Z</time></trkpt><trkpt lat="44.7168117" lon="9.3037117"><ele>811.0</ele><time>2026-03-28T17:20:09.022Z</time></trkpt><trkpt lat="44.7168567" lon="9.3035517"><ele>810.0</ele><time>2026-03-28T17:20:10.022Z</time></trkpt><trkpt lat="44.71692" lon="9.3034217"><ele>809.0</ele><time>2026-03-28T17:20:11.022Z</time></trkpt><trkpt lat="44.7170033" lon="9.30333"><ele>809.0</ele><time>2026-03-28T17:20:12.022Z</time></trkpt><trkpt lat="44.7171" lon="9.30326"><ele>809.0</ele><time>2026-03-28T17:20:13.022Z</time></trkpt><trkpt lat="44.7172083" lon="9.3032217"><ele>809.0</ele><time>2026-03-28T17:20:14.022Z</time></trkpt><trkpt lat="44.7173083" lon="9.303235"><ele>809.0</ele><time>2026-03-28T17:20:15.022Z</time></trkpt><trkpt lat="44.7174067" lon="9.3032567"><ele>809.0</ele><time>2026-03-28T17:20:16.022Z</time></trkpt><trkpt lat="44.717505" lon="9.30336"><ele>809.0</ele><time>2026-03-28T17:20:17.022Z</time></trkpt><trkpt lat="44.7175867" lon="9.3034683"><ele>809.0</ele><time>2026-03-28T17:20:18.021Z</time></trkpt><trkpt lat="44.7176567" lon="9.30359"><ele>809.0</ele><time>2026-03-28T17:20:19.022Z</time></trkpt><trkpt lat="44.7177267" lon="9.3036967"><ele>809.0</ele><time>2026-03-28T17:20:20.022Z</time></trkpt><trkpt lat="44.7178033" lon="9.3037667"><ele>809.0</ele><time>2026-03-28T17:20:21.021Z</time></trkpt><trkpt lat="44.717875" lon="9.303815"><ele>809.4000000000001</ele><time>2026-03-28T17:20:22.022Z</time></trkpt><trkpt lat="44.7179583" lon="9.303835"><ele>809.8</ele><time>2026-03-28T17:20:23.022Z</time></trkpt><trkpt lat="44.7180583" lon="9.3038283"><ele>810.2</ele><time>2026-03-28T17:20:24.022Z</time></trkpt><trkpt lat="44.7181667" lon="9.3038133"><ele>810.5999999999999</ele><time>2026-03-28T17:20:25.022Z</time></trkpt><trkpt lat="44.7182817" lon="9.3037833"><ele>811.0</ele><time>2026-03-28T17:20:26.022Z</time></trkpt><trkpt lat="44.718405" lon="9.3037633"><ele>811.0</ele><time>2026-03-28T17:20:27.022Z</time></trkpt><trkpt lat="44.7185233" lon="9.3037467"><ele>811.0</ele><time>2026-03-28T17:20:28.022Z</time></trkpt><trkpt lat="44.7186333" lon="9.3037433"><ele>811.0</ele><time>2026-03-28T17:20:29.022Z</time></trkpt><trkpt lat="44.71875" lon="9.30375"><ele>811.0</ele><time>2026-03-28T17:20:30.022Z</time></trkpt><trkpt lat="44.718865" lon="9.3037733"><ele>811.75</ele><time>2026-03-28T17:20:31.022Z</time></trkpt><trkpt lat="44.718975" lon="9.3038267"><ele>812.5</ele><time>2026-03-28T17:20:32.022Z</time></trkpt><trkpt lat="44.71908" lon="9.3039067"><ele>813.25</ele><time>2026-03-28T17:20:33.021Z</time></trkpt><trkpt lat="44.719185" lon="9.3039883"><ele>814.0</ele><time>2026-03-28T17:20:34.022Z</time></trkpt><trkpt lat="44.7192833" lon="9.3040633"><ele>812.2</ele><time>2026-03-28T17:20:35.022Z</time></trkpt><trkpt lat="44.719375" lon="9.3041367"><ele>810.4000000000001</ele><time>2026-03-28T17:20:36.022Z</time></trkpt><trkpt lat="44.7194583" lon="9.3042083"><ele>808.6</ele><time>2026-03-28T17:20:37.022Z</time></trkpt><trkpt lat="44.7195283" lon="9.3042867"><ele>806.8</ele><time>2026-03-28T17:20:38.022Z</time></trkpt><trkpt lat="44.7195717" lon="9.3044017"><ele>805.0</ele><time>2026-03-28T17:20:39.022Z</time></trkpt><trkpt lat="44.7195867" lon="9.3045283"><ele>805.0</ele><time>2026-03-28T17:20:40.022Z</time></trkpt><trkpt lat="44.71958" lon="9.304665"><ele>805.0</ele><time>2026-03-28T17:20:41.021Z</time></trkpt><trkpt lat="44.7195617" lon="9.30481"><ele>805.0</ele><time>2026-03-28T17:20:42.022Z</time></trkpt><trkpt lat="44.71955" lon="9.3049733"><ele>805.0</ele><time>2026-03-28T17:20:43.021Z</time></trkpt><trkpt lat="44.7195383" lon="9.3051383"><ele>805.0</ele><time>2026-03-28T17:20:44.022Z</time></trkpt><trkpt lat="44.7195267" lon="9.3053033"><ele>807.2</ele><time>2026-03-28T17:20:45.021Z</time></trkpt><trkpt lat="44.71952" lon="9.3054517"><ele>809.4</ele><time>2026-03-28T17:20:46.022Z</time></trkpt><trkpt lat="44.7195283" lon="9.3055833"><ele>811.5999999999999</ele><time>2026-03-28T17:20:47.022Z</time></trkpt><trkpt lat="44.7195567" lon="9.3057133"><ele>813.8</ele><time>2026-03-28T17:20:48.021Z</time></trkpt><trkpt lat="44.71961" lon="9.3058267"><ele>816.0</ele><time>2026-03-28T17:20:49.022Z</time></trkpt><trkpt lat="44.7196783" lon="9.305925"><ele>819.1999999999999</ele><time>2026-03-28T17:20:50.022Z</time></trkpt><trkpt lat="44.7197633" lon="9.3060167"><ele>822.4</ele><time>2026-03-28T17:20:51.022Z</time></trkpt><trkpt lat="44.719855" lon="9.306095"><ele>825.6</ele><time>2026-03-28T17:20:52.022Z</time></trkpt><trkpt lat="44.7199467" lon="9.3061833"><ele>828.8</ele><time>2026-03-28T17:20:53.022Z</time></trkpt><trkpt lat="44.720025" lon="9.30628"><ele>832.0</ele><time>2026-03-28T17:20:54.022Z</time></trkpt><trkpt lat="44.7200933" lon="9.3063867"><ele>834.8</ele><time>2026-03-28T17:20:55.022Z</time></trkpt><trkpt lat="44.72013" lon="9.3065233"><ele>837.6</ele><time>2026-03-28T17:20:56.022Z</time></trkpt><trkpt lat="44.7201583" lon="9.3066567"><ele>840.4</ele><time>2026-03-28T17:20:57.022Z</time></trkpt><trkpt lat="44.7201883" lon="9.3067817"><ele>843.1999999999999</ele><time>2026-03-28T17:20:58.021Z</time></trkpt><trkpt lat="44.720225" lon="9.306885"><ele>846.0</ele><time>2026-03-28T17:20:59.022Z</time></trkpt><trkpt lat="44.72027" lon="9.3069717"><ele>846.0</ele><time>2026-03-28T17:21:00.022Z</time></trkpt><trkpt lat="44.7203267" lon="9.3070367"><ele>846.0</ele><time>2026-03-28T17:21:01.022Z</time></trkpt><trkpt lat="44.7204067" lon="9.30708"><ele>846.0</ele><time>2026-03-28T17:21:02.022Z</time></trkpt><trkpt lat="44.720495" lon="9.3070967"><ele>846.0</ele><time>2026-03-28T17:21:03.022Z</time></trkpt><trkpt lat="44.72057" lon="9.3071033"><ele>846.0</ele><time>2026-03-28T17:21:04.022Z</time></trkpt><trkpt lat="44.7206567" lon="9.30705"><ele>846.0</ele><time>2026-03-28T17:21:05.021Z</time></trkpt><trkpt lat="44.7207467" lon="9.306975"><ele>846.0</ele><time>2026-03-28T17:21:06.022Z</time></trkpt><trkpt lat="44.7208367" lon="9.306875"><ele>846.0</ele><time>2026-03-28T17:21:07.022Z</time></trkpt><trkpt lat="44.720925" lon="9.3067933"><ele>846.0</ele><time>2026-03-28T17:21:08.022Z</time></trkpt><trkpt lat="44.7210183" lon="9.3067"><ele>846.0</ele><time>2026-03-28T17:21:09.022Z</time></trkpt><trkpt lat="44.7211133" lon="9.3066133"><ele>846.0</ele><time>2026-03-28T17:21:10.022Z</time></trkpt><trkpt lat="44.7212117" lon="9.3065317"><ele>847.0</ele><time>2026-03-28T17:21:11.022Z</time></trkpt><trkpt lat="44.7213067" lon="9.3064483"><ele>848.0</ele><time>2026-03-28T17:21:12.022Z</time></trkpt><trkpt lat="44.7213833" lon="9.3063333"><ele>849.0</ele><time>2026-03-28T17:21:13.022Z</time></trkpt><trkpt lat="44.721455" lon="9.3062233"><ele>850.0</ele><time>2026-03-28T17:21:14.022Z</time></trkpt><trkpt lat="44.72151" lon="9.3060967"><ele>851.0</ele><time>2026-03-28T17:21:15.022Z</time></trkpt><trkpt lat="44.721565" lon="9.305985"><ele>851.0000000000001</ele><time>2026-03-28T17:21:16.021Z</time></trkpt><trkpt lat="44.7216317" lon="9.305905"><ele>851.0</ele><time>2026-03-28T17:21:17.021Z</time></trkpt><trkpt lat="44.7217" lon="9.3058367"><ele>851.0</ele><time>2026-03-28T17:21:18.022Z</time></trkpt><trkpt lat="44.7217717" lon="9.3058"><ele>851.0</ele><time>2026-03-28T17:21:19.022Z</time></trkpt><trkpt lat="44.7218533" lon="9.3057733"><ele>851.0000000000001</ele><time>2026-03-28T17:21:20.021Z</time></trkpt><trkpt lat="44.7219533" lon="9.3058033"><ele>851.0</ele><time>2026-03-28T17:21:21.022Z</time></trkpt><trkpt lat="44.7220467" lon="9.3058467"><ele>850.8</ele><time>2026-03-28T17:21:22.021Z</time></trkpt><trkpt lat="44.72214" lon="9.3059167"><ele>850.5999999999999</ele><time>2026-03-28T17:21:23.021Z</time></trkpt><trkpt lat="44.7222217" lon="9.3059783"><ele>850.4</ele><time>2026-03-28T17:21:24.022Z</time></trkpt><trkpt lat="44.7223067" lon="9.306075"><ele>850.2</ele><time>2026-03-28T17:21:25.021Z</time></trkpt><trkpt lat="44.7223817" lon="9.3061833"><ele>850.0</ele><time>2026-03-28T17:21:26.022Z</time></trkpt><trkpt lat="44.7224433" lon="9.30632"><ele>852.8</ele><time>2026-03-28T17:21:27.022Z</time></trkpt><trkpt lat="44.7224967" lon="9.3064667"><ele>855.6</ele><time>2026-03-28T17:21:28.022Z</time></trkpt><trkpt lat="44.7225383" lon="9.3066167"><ele>858.4000000000001</ele><time>2026-03-28T17:21:29.022Z</time></trkpt><trkpt lat="44.7225783" lon="9.3067567"><ele>861.2</ele><time>2026-03-28T17:21:30.022Z</time></trkpt><trkpt lat="44.7226033" lon="9.30689"><ele>864.0</ele><time>2026-03-28T17:21:31.021Z</time></trkpt><trkpt lat="44.7226217" lon="9.3070417"><ele>864.0</ele><time>2026-03-28T17:21:32.022Z</time></trkpt><trkpt lat="44.7226217" lon="9.30721"><ele>864.0</ele><time>2026-03-28T17:21:33.022Z</time></trkpt><trkpt lat="44.7226217" lon="9.307375"><ele>864.0</ele><time>2026-03-28T17:21:34.022Z</time></trkpt><trkpt lat="44.72262" lon="9.3075433"><ele>864.0</ele><time>2026-03-28T17:21:35.022Z</time></trkpt><trkpt lat="44.7226183" lon="9.3077083"><ele>866.75</ele><time>2026-03-28T17:21:36.022Z</time></trkpt><trkpt lat="44.7226233" lon="9.3078767"><ele>869.5</ele><time>2026-03-28T17:21:37.022Z</time></trkpt><trkpt lat="44.7226183" lon="9.308055"><ele>872.25</ele><time>2026-03-28T17:21:38.022Z</time></trkpt><trkpt lat="44.7226067" lon="9.3082233"><ele>875.0</ele><time>2026-03-28T17:21:39.022Z</time></trkpt><trkpt lat="44.7226" lon="9.3083733"><ele>874.8333333333334</ele><time>2026-03-28T17:21:40.021Z</time></trkpt><trkpt lat="44.7225967" lon="9.3085033"><ele>874.6666666666667</ele><time>2026-03-28T17:21:41.022Z</time></trkpt><trkpt lat="44.7226017" lon="9.3086133"><ele>874.5</ele><time>2026-03-28T17:21:42.021Z</time></trkpt><trkpt lat="44.72263" lon="9.3087183"><ele>874.3333333333333</ele><time>2026-03-28T17:21:43.022Z</time></trkpt><trkpt lat="44.72269" lon="9.3088133"><ele>874.1666666666666</ele><time>2026-03-28T17:21:44.022Z</time></trkpt><trkpt lat="44.7227717" lon="9.30888"><ele>874.0</ele><time>2026-03-28T17:21:45.021Z</time></trkpt><trkpt lat="44.7228483" lon="9.3089333"><ele>874.0</ele><time>2026-03-28T17:21:46.022Z</time></trkpt><trkpt lat="44.7229267" lon="9.3089983"><ele>874.0000000000001</ele><time>2026-03-28T17:21:47.021Z</time></trkpt><trkpt lat="44.7229933" lon="9.3090733"><ele>874.0000000000001</ele><time>2026-03-28T17:21:48.022Z</time></trkpt><trkpt lat="44.7230417" lon="9.309165"><ele>874.0</ele><time>2026-03-28T17:21:49.022Z</time></trkpt><trkpt lat="44.72307" lon="9.3092917"><ele>874.0</ele><time>2026-03-28T17:21:50.022Z</time></trkpt><trkpt lat="44.7230933" lon="9.3094367"><ele>874.0</ele><time>2026-03-28T17:21:51.021Z</time></trkpt><trkpt lat="44.7231367" lon="9.3095633"><ele>874.0000000000001</ele><time>2026-03-28T17:21:52.022Z</time></trkpt><trkpt lat="44.72319" lon="9.3096683"><ele>874.0000000000001</ele><time>2026-03-28T17:21:53.022Z</time></trkpt><trkpt lat="44.723255" lon="9.3097467"><ele>874.0</ele><time>2026-03-28T17:21:54.022Z</time></trkpt><trkpt lat="44.7233533" lon="9.3097667"><ele>874.0</ele><time>2026-03-28T17:21:55.022Z</time></trkpt><trkpt lat="44.72345" lon="9.3097517"><ele>875.5</ele><time>2026-03-28T17:21:56.021Z</time></trkpt><trkpt lat="44.7235667" lon="9.3097083"><ele>877.0</ele><time>2026-03-28T17:21:57.022Z</time></trkpt><trkpt lat="44.7236817" lon="9.30967"><ele>878.5</ele><time>2026-03-28T17:21:58.022Z</time></trkpt><trkpt lat="44.723795" lon="9.3096483"><ele>880.0</ele><time>2026-03-28T17:21:59.022Z</time></trkpt><trkpt lat="44.7239033" lon="9.3096417"><ele>880.0</ele><time>2026-03-28T17:22:00.022Z</time></trkpt><trkpt lat="44.724005" lon="9.3096467"><ele>880.0</ele><time>2026-03-28T17:22:01.021Z</time></trkpt><trkpt lat="44.7241033" lon="9.309675"><ele>880.0</ele><time>2026-03-28T17:22:02.022Z</time></trkpt><trkpt lat="44.7241883" lon="9.3097417"><ele>880.0</ele><time>2026-03-28T17:22:03.022Z</time></trkpt><trkpt lat="44.724275" lon="9.3098283"><ele>880.0</ele><time>2026-03-28T17:22:04.022Z</time></trkpt><trkpt lat="44.7243667" lon="9.3099167"><ele>883.0</ele><time>2026-03-28T17:22:05.022Z</time></trkpt><trkpt lat="44.724455" lon="9.3100017"><ele>886.0</ele><time>2026-03-28T17:22:06.022Z</time></trkpt><trkpt lat="44.7245467" lon="9.3100617"><ele>889.0</ele><time>2026-03-28T17:22:07.021Z</time></trkpt><trkpt lat="44.72464" lon="9.3100817"><ele>892.0</ele><time>2026-03-28T17:22:08.022Z</time></trkpt><trkpt lat="44.7247267" lon="9.3100783"><ele>895.0</ele><time>2026-03-28T17:22:09.022Z</time></trkpt><trkpt lat="44.7248133" lon="9.3100417"><ele>895.0</ele><time>2026-03-28T17:22:10.022Z</time></trkpt><trkpt lat="44.7249067" lon="9.3099633"><ele>895.0</ele><time>2026-03-28T17:22:11.022Z</time></trkpt><trkpt lat="44.7250033" lon="9.3098683"><ele>895.0</ele><time>2026-03-28T17:22:12.022Z</time></trkpt><trkpt lat="44.7251" lon="9.3097683"><ele>895.0</ele><time>2026-03-28T17:22:13.022Z</time></trkpt><trkpt lat="44.725205" lon="9.3096633"><ele>894.25</ele><time>2026-03-28T17:22:14.022Z</time></trkpt><trkpt lat="44.7253083" lon="9.3095633"><ele>893.5</ele><time>2026-03-28T17:22:15.022Z</time></trkpt><trkpt lat="44.725415" lon="9.309475"><ele>892.75</ele><time>2026-03-28T17:22:16.022Z</time></trkpt><trkpt lat="44.7255167" lon="9.30941"><ele>892.0</ele><time>2026-03-28T17:22:17.022Z</time></trkpt><trkpt lat="44.7256183" lon="9.3093717"><ele>892.0</ele><time>2026-03-28T17:22:18.021Z</time></trkpt><trkpt lat="44.7257317" lon="9.3093567"><ele>892.0</ele><time>2026-03-28T17:22:19.022Z</time></trkpt><trkpt lat="44.725845" lon="9.3093617"><ele>892.0</ele><time>2026-03-28T17:22:20.022Z</time></trkpt><trkpt lat="44.7259717" lon="9.3093783"><ele>892.0</ele><time>2026-03-28T17:22:21.021Z</time></trkpt><trkpt lat="44.7260917" lon="9.30938"><ele>893.6</ele><time>2026-03-28T17:22:22.022Z</time></trkpt><trkpt lat="44.7261917" lon="9.309385"><ele>895.2</ele><time>2026-03-28T17:22:23.022Z</time></trkpt><trkpt lat="44.7262867" lon="9.3093583"><ele>896.8</ele><time>2026-03-28T17:22:24.022Z</time></trkpt><trkpt lat="44.7264017" lon="9.3092583"><ele>898.4</ele><time>2026-03-28T17:22:25.022Z</time></trkpt><trkpt lat="44.7264883" lon="9.3091617"><ele>900.0</ele><time>2026-03-28T17:22:26.022Z</time></trkpt><trkpt lat="44.7265717" lon="9.3090367"><ele>900.0</ele><time>2026-03-28T17:22:27.022Z</time></trkpt><trkpt lat="44.7266583" lon="9.3089217"><ele>900.0</ele><time>2026-03-28T17:22:28.022Z</time></trkpt><trkpt lat="44.7267417" lon="9.30882"><ele>900.0</ele><time>2026-03-28T17:22:29.022Z</time></trkpt><trkpt lat="44.7268333" lon="9.3087417"><ele>900.0</ele><time>2026-03-28T17:22:30.022Z</time></trkpt><trkpt lat="44.7269633" lon="9.30871"><ele>898.25</ele><time>2026-03-28T17:22:31.022Z</time></trkpt><trkpt lat="44.7271033" lon="9.3087017"><ele>896.5</ele><time>2026-03-28T17:22:32.022Z</time></trkpt><trkpt lat="44.7272483" lon="9.3086833"><ele>894.75</ele><time>2026-03-28T17:22:33.022Z</time></trkpt><trkpt lat="44.7273767" lon="9.308675"><ele>893.0</ele><time>2026-03-28T17:22:34.022Z</time></trkpt><trkpt lat="44.7275" lon="9.308665"><ele>893.0</ele><time>2026-03-28T17:22:35.022Z</time></trkpt><trkpt lat="44.7276083" lon="9.3086817"><ele>893.0</ele><time>2026-03-28T17:22:36.021Z</time></trkpt><trkpt lat="44.7277067" lon="9.3087317"><ele>893.0</ele><time>2026-03-28T17:22:37.022Z</time></trkpt><trkpt lat="44.7278067" lon="9.3088"><ele>893.0</ele><time>2026-03-28T17:22:38.022Z</time></trkpt><trkpt lat="44.72791" lon="9.3088817"><ele>893.0</ele><time>2026-03-28T17:22:39.022Z</time></trkpt><trkpt lat="44.7280267" lon="9.3089617"><ele>895.25</ele><time>2026-03-28T17:22:40.022Z</time></trkpt><trkpt lat="44.7281483" lon="9.3090383"><ele>897.5</ele><time>2026-03-28T17:22:41.022Z</time></trkpt><trkpt lat="44.728275" lon="9.3091183"><ele>899.75</ele><time>2026-03-28T17:22:42.021Z</time></trkpt><trkpt lat="44.7283983" lon="9.309205"><ele>902.0</ele><time>2026-03-28T17:22:43.022Z</time></trkpt><trkpt lat="44.72853" lon="9.3092783"><ele>902.3333333333334</ele><time>2026-03-28T17:22:44.021Z</time></trkpt><trkpt lat="44.7286683" lon="9.30935"><ele>902.6666666666667</ele><time>2026-03-28T17:22:45.022Z</time></trkpt><trkpt lat="44.7288183" lon="9.3094133"><ele>903.0</ele><time>2026-03-28T17:22:46.022Z</time></trkpt><trkpt lat="44.7289617" lon="9.3094783"><ele>903.0</ele><time>2026-03-28T17:22:47.022Z</time></trkpt><trkpt lat="44.7290967" lon="9.3095383"><ele>903.0</ele><time>2026-03-28T17:22:48.022Z</time></trkpt><trkpt lat="44.729215" lon="9.309605"><ele>903.0</ele><time>2026-03-28T17:22:49.022Z</time></trkpt><trkpt lat="44.729325" lon="9.3096767"><ele>903.0</ele><time>2026-03-28T17:22:50.022Z</time></trkpt><trkpt lat="44.729425" lon="9.3097633"><ele>904.5</ele><time>2026-03-28T17:22:51.022Z</time></trkpt><trkpt lat="44.7295267" lon="9.309855"><ele>906.0</ele><time>2026-03-28T17:22:52.022Z</time></trkpt><trkpt lat="44.7296383" lon="9.3099317"><ele>907.5</ele><time>2026-03-28T17:22:53.022Z</time></trkpt><trkpt lat="44.729755" lon="9.3100017"><ele>909.0</ele><time>2026-03-28T17:22:54.022Z</time></trkpt><trkpt lat="44.7298767" lon="9.3100533"><ele>909.0</ele><time>2026-03-28T17:22:55.022Z</time></trkpt><trkpt lat="44.730005" lon="9.310105"><ele>909.0</ele><time>2026-03-28T17:22:56.022Z</time></trkpt><trkpt lat="44.73012" lon="9.310155"><ele>909.0</ele><time>2026-03-28T17:22:57.022Z</time></trkpt><trkpt lat="44.7302467" lon="9.3101933"><ele>909.0</ele><time>2026-03-28T17:22:58.022Z</time></trkpt><trkpt lat="44.7303717" lon="9.310225"><ele>910.25</ele><time>2026-03-28T17:22:59.022Z</time></trkpt><trkpt lat="44.7305033" lon="9.3102467"><ele>911.5</ele><time>2026-03-28T17:23:00.022Z</time></trkpt><trkpt lat="44.7306333" lon="9.3102767"><ele>912.75</ele><time>2026-03-28T17:23:01.021Z</time></trkpt><trkpt lat="44.7307717" lon="9.3103"><ele>914.0</ele><time>2026-03-28T17:23:02.022Z</time></trkpt><trkpt lat="44.7309117" lon="9.3103317"><ele>914.0</ele><time>2026-03-28T17:23:03.022Z</time></trkpt><trkpt lat="44.7310567" lon="9.310365"><ele>914.0</ele><time>2026-03-28T17:23:04.022Z</time></trkpt><trkpt lat="44.7312017" lon="9.310395"><ele>914.0</ele><time>2026-03-28T17:23:05.022Z</time></trkpt><trkpt lat="44.7313517" lon="9.310415"><ele>914.0</ele><time>2026-03-28T17:23:06.021Z</time></trkpt><trkpt lat="44.7315033" lon="9.3104383"><ele>913.6666666666667</ele><time>2026-03-28T17:23:07.022Z</time></trkpt><trkpt lat="44.7316567" lon="9.3104633"><ele>913.3333333333333</ele><time>2026-03-28T17:23:08.022Z</time></trkpt><trkpt lat="44.7318067" lon="9.3104883"><ele>913.0</ele><time>2026-03-28T17:23:09.022Z</time></trkpt><trkpt lat="44.731955" lon="9.3105083"><ele>913.0</ele><time>2026-03-28T17:23:10.022Z</time></trkpt><trkpt lat="44.7320967" lon="9.3105267"><ele>913.0</ele><time>2026-03-28T17:23:11.022Z</time></trkpt><trkpt lat="44.7322317" lon="9.310535"><ele>913.0</ele><time>2026-03-28T17:23:12.022Z</time></trkpt><trkpt lat="44.7323617" lon="9.3105467"><ele>913.0</ele><time>2026-03-28T17:23:13.021Z</time></trkpt><trkpt lat="44.73249" lon="9.310555"><ele>913.0</ele><time>2026-03-28T17:23:14.022Z</time></trkpt><trkpt lat="44.7326183" lon="9.3105483"><ele>913.0</ele><time>2026-03-28T17:23:15.022Z</time></trkpt><trkpt lat="44.7327433" lon="9.3104983"><ele>913.0</ele><time>2026-03-28T17:23:16.021Z</time></trkpt><trkpt lat="44.7328633" lon="9.3104267"><ele>913.0</ele><time>2026-03-28T17:23:17.022Z</time></trkpt><trkpt lat="44.7329967" lon="9.3103517"><ele>913.0</ele><time>2026-03-28T17:23:18.022Z</time></trkpt><trkpt lat="44.73313" lon="9.3102867"><ele>913.0</ele><time>2026-03-28T17:23:19.022Z</time></trkpt><trkpt lat="44.73326" lon="9.310235"><ele>913.0</ele><time>2026-03-28T17:23:20.022Z</time></trkpt><trkpt lat="44.7333833" lon="9.3101917"><ele>913.0</ele><time>2026-03-28T17:23:21.022Z</time></trkpt><trkpt lat="44.7335033" lon="9.3101517"><ele>913.0</ele><time>2026-03-28T17:23:22.022Z</time></trkpt><trkpt lat="44.733615" lon="9.310125"><ele>913.0</ele><time>2026-03-28T17:23:23.022Z</time></trkpt><trkpt lat="44.7337117" lon="9.3101433"><ele>913.0</ele><time>2026-03-28T17:23:24.021Z</time></trkpt><trkpt lat="44.7338017" lon="9.310195"><ele>913.0</ele><time>2026-03-28T17:23:25.021Z</time></trkpt><trkpt lat="44.7338733" lon="9.3102817"><ele>913.0</ele><time>2026-03-28T17:23:26.022Z</time></trkpt><trkpt lat="44.7339383" lon="9.3103967"><ele>913.0</ele><time>2026-03-28T17:23:27.022Z</time></trkpt><trkpt lat="44.7340083" lon="9.3105133"><ele>913.0</ele><time>2026-03-28T17:23:28.022Z</time></trkpt><trkpt lat="44.7340867" lon="9.31061"><ele>913.0</ele><time>2026-03-28T17:23:29.022Z</time></trkpt><trkpt lat="44.7341583" lon="9.3106883"><ele>913.0</ele><time>2026-03-28T17:23:30.022Z</time></trkpt><trkpt lat="44.734235" lon="9.3107333"><ele>913.0</ele><time>2026-03-28T17:23:31.021Z</time></trkpt><trkpt lat="44.7343267" lon="9.3107217"><ele>914.75</ele><time>2026-03-28T17:23:32.022Z</time></trkpt><trkpt lat="44.7344267" lon="9.31067"><ele>916.5</ele><time>2026-03-28T17:23:33.022Z</time></trkpt><trkpt lat="44.7345283" lon="9.3105683"><ele>918.25</ele><time>2026-03-28T17:23:34.022Z</time></trkpt><trkpt lat="44.7346383" lon="9.3104517"><ele>920.0</ele><time>2026-03-28T17:23:35.021Z</time></trkpt><trkpt lat="44.7347283" lon="9.3103417"><ele>920.0</ele><time>2026-03-28T17:23:36.022Z</time></trkpt><trkpt lat="44.7347933" lon="9.3102317"><ele>920.0</ele><time>2026-03-28T17:23:37.022Z</time></trkpt><trkpt lat="44.7348233" lon="9.31009"><ele>920.0</ele><time>2026-03-28T17:23:38.022Z</time></trkpt><trkpt lat="44.73483" lon="9.3099367"><ele>920.0</ele><time>2026-03-28T17:23:39.022Z</time></trkpt><trkpt lat="44.7348233" lon="9.3097767"><ele>920.0</ele><time>2026-03-28T17:23:40.022Z</time></trkpt><trkpt lat="44.7348317" lon="9.309625"><ele>920.25</ele><time>2026-03-28T17:23:41.022Z</time></trkpt><trkpt lat="44.7348383" lon="9.3094617"><ele>920.5</ele><time>2026-03-28T17:23:42.021Z</time></trkpt><trkpt lat="44.7348833" lon="9.3093167"><ele>920.75</ele><time>2026-03-28T17:23:43.022Z</time></trkpt><trkpt lat="44.734955" lon="9.3091917"><ele>921.0</ele><time>2026-03-28T17:23:44.022Z</time></trkpt><trkpt lat="44.7350433" lon="9.3090917"><ele>921.0</ele><time>2026-03-28T17:23:45.022Z</time></trkpt><trkpt lat="44.7351333" lon="9.3089967"><ele>920.9999999999999</ele><time>2026-03-28T17:23:46.022Z</time></trkpt><trkpt lat="44.7352267" lon="9.3089067"><ele>920.9999999999999</ele><time>2026-03-28T17:23:47.022Z</time></trkpt><trkpt lat="44.73532" lon="9.30882"><ele>921.0</ele><time>2026-03-28T17:23:48.022Z</time></trkpt><trkpt lat="44.7354117" lon="9.3087317"><ele>921.0</ele><time>2026-03-28T17:23:49.022Z</time></trkpt><trkpt lat="44.7355033" lon="9.3086333"><ele>920.75</ele><time>2026-03-28T17:23:50.022Z</time></trkpt><trkpt lat="44.7355783" lon="9.3085117"><ele>920.5</ele><time>2026-03-28T17:23:51.022Z</time></trkpt><trkpt lat="44.7356383" lon="9.3083783"><ele>920.25</ele><time>2026-03-28T17:23:52.022Z</time></trkpt><trkpt lat="44.7356867" lon="9.308235"><ele>920.0</ele><time>2026-03-28T17:23:53.021Z</time></trkpt><trkpt lat="44.7357117" lon="9.30807"><ele>919.5</ele><time>2026-03-28T17:23:54.022Z</time></trkpt><trkpt lat="44.7357267" lon="9.3079"><ele>919.0</ele><time>2026-03-28T17:23:55.022Z</time></trkpt><trkpt lat="44.735745" lon="9.3077417"><ele>918.5</ele><time>2026-03-28T17:23:56.022Z</time></trkpt><trkpt lat="44.7357783" lon="9.3075967"><ele>918.0</ele><time>2026-03-28T17:23:57.022Z</time></trkpt><trkpt lat="44.7358367" lon="9.3074667"><ele>918.0</ele><time>2026-03-28T17:23:58.022Z</time></trkpt><trkpt lat="44.7359133" lon="9.307365"><ele>918.0</ele><time>2026-03-28T17:23:59.021Z</time></trkpt><trkpt lat="44.736005" lon="9.3072917"><ele>918.0</ele><time>2026-03-28T17:24:00.022Z</time></trkpt><trkpt lat="44.7361117" lon="9.307235"><ele>918.0</ele><time>2026-03-28T17:24:01.022Z</time></trkpt><trkpt lat="44.7362267" lon="9.3071817"><ele>918.0</ele><time>2026-03-28T17:24:02.021Z</time></trkpt><trkpt lat="44.7363433" lon="9.3071283"><ele>917.25</ele><time>2026-03-28T17:24:03.022Z</time></trkpt><trkpt lat="44.7364567" lon="9.3070817"><ele>916.5</ele><time>2026-03-28T17:24:04.022Z</time></trkpt><trkpt lat="44.736575" lon="9.3070367"><ele>915.75</ele><time>2026-03-28T17:24:05.022Z</time></trkpt><trkpt lat="44.7366983" lon="9.306995"><ele>915.0</ele><time>2026-03-28T17:24:06.022Z</time></trkpt><trkpt lat="44.7368183" lon="9.3069633"><ele>916.75</ele><time>2026-03-28T17:24:07.022Z</time></trkpt><trkpt lat="44.73695" lon="9.3069317"><ele>918.5</ele><time>2026-03-28T17:24:08.022Z</time></trkpt><trkpt lat="44.7370817" lon="9.306875"><ele>920.25</ele><time>2026-03-28T17:24:09.021Z</time></trkpt><trkpt lat="44.7372167" lon="9.3068367"><ele>922.0</ele><time>2026-03-28T17:24:10.021Z</time></trkpt><trkpt lat="44.7373567" lon="9.3068183"><ele>922.0</ele><time>2026-03-28T17:24:11.022Z</time></trkpt><trkpt lat="44.7374867" lon="9.3068"><ele>922.0</ele><time>2026-03-28T17:24:12.022Z</time></trkpt><trkpt lat="44.737605" lon="9.306785"><ele>922.0</ele><time>2026-03-28T17:24:13.022Z</time></trkpt><trkpt lat="44.7377133" lon="9.306765"><ele>922.0</ele><time>2026-03-28T17:24:14.022Z</time></trkpt><trkpt lat="44.7378083" lon="9.3067267"><ele>923.8</ele><time>2026-03-28T17:24:15.021Z</time></trkpt><trkpt lat="44.737905" lon="9.3066767"><ele>925.6</ele><time>2026-03-28T17:24:16.022Z</time></trkpt><trkpt lat="44.73798" lon="9.3065933"><ele>927.3999999999999</ele><time>2026-03-28T17:24:17.022Z</time></trkpt><trkpt lat="44.7380467" lon="9.3064967"><ele>929.1999999999999</ele><time>2026-03-28T17:24:18.022Z</time></trkpt><trkpt lat="44.7380833" lon="9.3063783"><ele>931.0</ele><time>2026-03-28T17:24:19.021Z</time></trkpt><trkpt lat="44.7380783" lon="9.3062267"><ele>931.0</ele><time>2026-03-28T17:24:20.022Z</time></trkpt><trkpt lat="44.738045" lon="9.3060283"><ele>931.0</ele><time>2026-03-28T17:24:21.021Z</time></trkpt><trkpt lat="44.738035" lon="9.3058417"><ele>931.0</ele><time>2026-03-28T17:24:22.022Z</time></trkpt><trkpt lat="44.7380283" lon="9.3056367"><ele>931.0</ele><time>2026-03-28T17:24:23.022Z</time></trkpt><trkpt lat="44.7380317" lon="9.30543"><ele>930.25</ele><time>2026-03-28T17:24:24.022Z</time></trkpt><trkpt lat="44.7380517" lon="9.3052267"><ele>929.5</ele><time>2026-03-28T17:24:25.022Z</time></trkpt><trkpt lat="44.7380817" lon="9.3050333"><ele>928.75</ele><time>2026-03-28T17:24:26.022Z</time></trkpt><trkpt lat="44.738115" lon="9.3048433"><ele>928.0</ele><time>2026-03-28T17:24:27.022Z</time></trkpt><trkpt lat="44.73815" lon="9.3046683"><ele>927.2</ele><time>2026-03-28T17:24:28.022Z</time></trkpt><trkpt lat="44.7381867" lon="9.3045033"><ele>926.4</ele><time>2026-03-28T17:24:29.021Z</time></trkpt><trkpt lat="44.73822" lon="9.3043533"><ele>925.6000000000001</ele><time>2026-03-28T17:24:30.022Z</time></trkpt><trkpt lat="44.7382517" lon="9.3042083"><ele>924.8000000000001</ele><time>2026-03-28T17:24:31.022Z</time></trkpt><trkpt lat="44.7382833" lon="9.30407"><ele>924.0</ele><time>2026-03-28T17:24:32.022Z</time></trkpt><trkpt lat="44.73831" lon="9.3039267"><ele>924.0</ele><time>2026-03-28T17:24:33.022Z</time></trkpt><trkpt lat="44.7383317" lon="9.3037817"><ele>924.0000000000001</ele><time>2026-03-28T17:24:34.022Z</time></trkpt><trkpt lat="44.7383417" lon="9.303635"><ele>924.0000000000001</ele><time>2026-03-28T17:24:35.022Z</time></trkpt><trkpt lat="44.7383467" lon="9.3034867"><ele>924.0</ele><time>2026-03-28T17:24:36.022Z</time></trkpt><trkpt lat="44.7383417" lon="9.30334"><ele>924.0</ele><time>2026-03-28T17:24:37.022Z</time></trkpt><trkpt lat="44.73833" lon="9.3031883"><ele>925.75</ele><time>2026-03-28T17:24:38.021Z</time></trkpt><trkpt lat="44.7383" lon="9.30303"><ele>927.5</ele><time>2026-03-28T17:24:39.022Z</time></trkpt><trkpt lat="44.7382533" lon="9.3028767"><ele>929.25</ele><time>2026-03-28T17:24:40.022Z</time></trkpt><trkpt lat="44.7381933" lon="9.3027267"><ele>931.0</ele><time>2026-03-28T17:24:41.021Z</time></trkpt><trkpt lat="44.7381367" lon="9.3025833"><ele>931.0</ele><time>2026-03-28T17:24:42.022Z</time></trkpt><trkpt lat="44.7380833" lon="9.3024433"><ele>930.9999999999999</ele><time>2026-03-28T17:24:43.022Z</time></trkpt><trkpt lat="44.73804" lon="9.3023"><ele>930.9999999999999</ele><time>2026-03-28T17:24:44.022Z</time></trkpt><trkpt lat="44.73801" lon="9.3021517"><ele>931.0</ele><time>2026-03-28T17:24:45.022Z</time></trkpt><trkpt lat="44.738" lon="9.3020033"><ele>931.0</ele><time>2026-03-28T17:24:46.021Z</time></trkpt><trkpt lat="44.738005" lon="9.3018517"><ele>930.8</ele><time>2026-03-28T17:24:47.022Z</time></trkpt><trkpt lat="44.738015" lon="9.301695"><ele>930.5999999999999</ele><time>2026-03-28T17:24:48.022Z</time></trkpt><trkpt lat="44.7380233" lon="9.301535"><ele>930.4</ele><time>2026-03-28T17:24:49.022Z</time></trkpt><trkpt lat="44.7380367" lon="9.3013867"><ele>930.2</ele><time>2026-03-28T17:24:50.022Z</time></trkpt><trkpt lat="44.7380583" lon="9.3012483"><ele>930.0</ele><time>2026-03-28T17:24:51.022Z</time></trkpt><trkpt lat="44.7380917" lon="9.3011217"><ele>929.0</ele><time>2026-03-28T17:24:52.022Z</time></trkpt><trkpt lat="44.7381533" lon="9.3010133"><ele>928.0</ele><time>2026-03-28T17:24:53.022Z</time></trkpt><trkpt lat="44.7382283" lon="9.3009233"><ele>927.0</ele><time>2026-03-28T17:24:54.022Z</time></trkpt><trkpt lat="44.7383167" lon="9.3008417"><ele>926.0</ele><time>2026-03-28T17:24:55.022Z</time></trkpt><trkpt lat="44.73841" lon="9.300755"><ele>925.0</ele><time>2026-03-28T17:24:56.022Z</time></trkpt><trkpt lat="44.7385033" lon="9.300655"><ele>927.0</ele><time>2026-03-28T17:24:57.022Z</time></trkpt><trkpt lat="44.7385933" lon="9.3005333"><ele>929.0</ele><time>2026-03-28T17:24:58.022Z</time></trkpt><trkpt lat="44.7386783" lon="9.3003933"><ele>931.0</ele><time>2026-03-28T17:24:59.022Z</time></trkpt><trkpt lat="44.738765" lon="9.3002483"><ele>933.0</ele><time>2026-03-28T17:25:00.022Z</time></trkpt><trkpt lat="44.7388517" lon="9.3000967"><ele>933.0</ele><time>2026-03-28T17:25:01.022Z</time></trkpt><trkpt lat="44.73894" lon="9.2999433"><ele>933.0</ele><time>2026-03-28T17:25:02.022Z</time></trkpt><trkpt lat="44.7390283" lon="9.299785"><ele>933.0</ele><time>2026-03-28T17:25:03.022Z</time></trkpt><trkpt lat="44.73912" lon="9.29963"><ele>933.0</ele><time>2026-03-28T17:25:04.022Z</time></trkpt><trkpt lat="44.739205" lon="9.29947"><ele>935.0</ele><time>2026-03-28T17:25:05.022Z</time></trkpt><trkpt lat="44.7392867" lon="9.2993183"><ele>937.0</ele><time>2026-03-28T17:25:06.022Z</time></trkpt><trkpt lat="44.739365" lon="9.2991783"><ele>939.0</ele><time>2026-03-28T17:25:07.021Z</time></trkpt><trkpt lat="44.7394367" lon="9.2990467"><ele>941.0</ele><time>2026-03-28T17:25:08.022Z</time></trkpt><trkpt lat="44.739495" lon="9.29892"><ele>939.25</ele><time>2026-03-28T17:25:09.022Z</time></trkpt><trkpt lat="44.7395517" lon="9.29879"><ele>937.5</ele><time>2026-03-28T17:25:10.022Z</time></trkpt><trkpt lat="44.739605" lon="9.2986533"><ele>935.75</ele><time>2026-03-28T17:25:11.022Z</time></trkpt><trkpt lat="44.73965" lon="9.2984983"><ele>934.0</ele><time>2026-03-28T17:25:12.022Z</time></trkpt><trkpt lat="44.7396967" lon="9.29833"><ele>934.0</ele><time>2026-03-28T17:25:13.021Z</time></trkpt><trkpt lat="44.73975" lon="9.29816"><ele>934.0</ele><time>2026-03-28T17:25:14.022Z</time></trkpt><trkpt lat="44.7398067" lon="9.29799"><ele>934.0</ele><time>2026-03-28T17:25:15.022Z</time></trkpt><trkpt lat="44.739865" lon="9.2978133"><ele>934.0</ele><time>2026-03-28T17:25:16.022Z</time></trkpt><trkpt lat="44.739925" lon="9.2976267"><ele>932.0</ele><time>2026-03-28T17:25:17.022Z</time></trkpt><trkpt lat="44.739985" lon="9.29743"><ele>930.0</ele><time>2026-03-28T17:25:18.022Z</time></trkpt><trkpt lat="44.7400433" lon="9.29722"><ele>928.0</ele><time>2026-03-28T17:25:19.022Z</time></trkpt><trkpt lat="44.740105" lon="9.2970167"><ele>929.25</ele><time>2026-03-28T17:25:20.022Z</time></trkpt><trkpt lat="44.7401633" lon="9.29682"><ele>930.5</ele><time>2026-03-28T17:25:21.022Z</time></trkpt><trkpt lat="44.7402183" lon="9.2966367"><ele>931.75</ele><time>2026-03-28T17:25:22.022Z</time></trkpt><trkpt lat="44.740275" lon="9.29647"><ele>933.0</ele><time>2026-03-28T17:25:23.022Z</time></trkpt><trkpt lat="44.7403283" lon="9.2963183"><ele>933.0</ele><time>2026-03-28T17:25:24.021Z</time></trkpt><trkpt lat="44.7403883" lon="9.2961817"><ele>933.0</ele><time>2026-03-28T17:25:25.022Z</time></trkpt><trkpt lat="44.7404517" lon="9.296075"><ele>933.0</ele><time>2026-03-28T17:25:26.022Z</time></trkpt><trkpt lat="44.7405267" lon="9.296"><ele>933.0</ele><time>2026-03-28T17:25:27.022Z</time></trkpt><trkpt lat="44.7406183" lon="9.295975"><ele>933.0</ele><time>2026-03-28T17:25:28.022Z</time></trkpt><trkpt lat="44.7407167" lon="9.2959617"><ele>933.0</ele><time>2026-03-28T17:25:29.022Z</time></trkpt><trkpt lat="44.7408233" lon="9.29598"><ele>933.0</ele><time>2026-03-28T17:25:30.022Z</time></trkpt><trkpt lat="44.740915" lon="9.2959817"><ele>933.0</ele><time>2026-03-28T17:25:31.022Z</time></trkpt><trkpt lat="44.7409967" lon="9.2959733"><ele>933.0</ele><time>2026-03-28T17:25:32.022Z</time></trkpt><trkpt lat="44.7410833" lon="9.2959267"><ele>933.0</ele><time>2026-03-28T17:25:33.022Z</time></trkpt><trkpt lat="44.7411567" lon="9.2958617"><ele>937.6666666666666</ele><time>2026-03-28T17:25:34.022Z</time></trkpt><trkpt lat="44.7412083" lon="9.2957817"><ele>942.3333333333333</ele><time>2026-03-28T17:25:35.021Z</time></trkpt><trkpt lat="44.7412417" lon="9.2956783"><ele>947.0</ele><time>2026-03-28T17:25:36.022Z</time></trkpt><trkpt lat="44.7412433" lon="9.2955517"><ele>951.6666666666666</ele><time>2026-03-28T17:25:37.021Z</time></trkpt><trkpt lat="44.7412367" lon="9.2954267"><ele>956.3333333333333</ele><time>2026-03-28T17:25:38.022Z</time></trkpt><trkpt lat="44.741235" lon="9.2952983"><ele>961.0</ele><time>2026-03-28T17:25:39.023Z</time></trkpt><trkpt lat="44.7412433" lon="9.2951517"><ele>961.5999999999999</ele><time>2026-03-28T17:25:40.022Z</time></trkpt><trkpt lat="44.7412533" lon="9.2950117"><ele>962.1999999999999</ele><time>2026-03-28T17:25:41.023Z</time></trkpt><trkpt lat="44.741245" lon="9.2948683"><ele>962.8000000000001</ele><time>2026-03-28T17:25:42.023Z</time></trkpt><trkpt lat="44.7412317" lon="9.294745"><ele>963.4000000000001</ele><time>2026-03-28T17:25:43.023Z</time></trkpt><trkpt lat="44.7412" lon="9.2946283"><ele>964.0</ele><time>2026-03-28T17:25:44.023Z</time></trkpt><trkpt lat="44.741145" lon="9.294535"><ele>964.3333333333333</ele><time>2026-03-28T17:25:45.023Z</time></trkpt><trkpt lat="44.7410833" lon="9.2944833"><ele>964.6666666666666</ele><time>2026-03-28T17:25:46.023Z</time></trkpt><trkpt lat="44.741015" lon="9.29446"><ele>965.0</ele><time>2026-03-28T17:25:47.023Z</time></trkpt><trkpt lat="44.7409233" lon="9.2944817"><ele>965.3333333333333</ele><time>2026-03-28T17:25:48.023Z</time></trkpt><trkpt lat="44.74083" lon="9.29452"><ele>965.6666666666666</ele><time>2026-03-28T17:25:49.023Z</time></trkpt><trkpt lat="44.7407267" lon="9.2945333"><ele>966.0</ele><time>2026-03-28T17:25:50.023Z</time></trkpt><trkpt lat="44.7406283" lon="9.2945383"><ele>966.0</ele><time>2026-03-28T17:25:51.023Z</time></trkpt><trkpt lat="44.7405183" lon="9.2945333"><ele>966.0</ele><time>2026-03-28T17:25:52.023Z</time></trkpt><trkpt lat="44.74044" lon="9.2945033"><ele>966.0</ele><time>2026-03-28T17:25:53.023Z</time></trkpt><trkpt lat="44.740375" lon="9.2944417"><ele>966.0</ele><time>2026-03-28T17:25:54.023Z</time></trkpt><trkpt lat="44.7403217" lon="9.2943633"><ele>966.0</ele><time>2026-03-28T17:25:55.023Z</time></trkpt><trkpt lat="44.7403" lon="9.2942483"><ele>966.0</ele><time>2026-03-28T17:25:56.022Z</time></trkpt><trkpt lat="44.74029" lon="9.2941017"><ele>966.0</ele><time>2026-03-28T17:25:57.023Z</time></trkpt><trkpt lat="44.7402633" lon="9.2939617"><ele>966.0</ele><time>2026-03-28T17:25:58.023Z</time></trkpt><trkpt lat="44.7402267" lon="9.2938017"><ele>966.0</ele><time>2026-03-28T17:25:59.022Z</time></trkpt><trkpt lat="44.74021" lon="9.29363"><ele>966.0</ele><time>2026-03-28T17:26:00.023Z</time></trkpt><trkpt lat="44.7402033" lon="9.2934667"><ele>962.25</ele><time>2026-03-28T17:26:01.023Z</time></trkpt><trkpt lat="44.7401967" lon="9.2932883"><ele>958.5</ele><time>2026-03-28T17:26:02.023Z</time></trkpt><trkpt lat="44.7401817" lon="9.29313"><ele>954.75</ele><time>2026-03-28T17:26:03.023Z</time></trkpt><trkpt lat="44.7401433" lon="9.29299"><ele>951.0</ele><time>2026-03-28T17:26:04.022Z</time></trkpt><trkpt lat="44.7400867" lon="9.2928583"><ele>951.0</ele><time>2026-03-28T17:26:05.023Z</time></trkpt><trkpt lat="44.7400117" lon="9.2927317"><ele>950.9999999999999</ele><time>2026-03-28T17:26:06.023Z</time></trkpt><trkpt lat="44.73995" lon="9.2926083"><ele>950.9999999999999</ele><time>2026-03-28T17:26:07.023Z</time></trkpt><trkpt lat="44.73989" lon="9.2924833"><ele>951.0</ele><time>2026-03-28T17:26:08.023Z</time></trkpt><trkpt lat="44.7398317" lon="9.2923517"><ele>951.0</ele><time>2026-03-28T17:26:09.023Z</time></trkpt><trkpt lat="44.73978" lon="9.2922167"><ele>953.25</ele><time>2026-03-28T17:26:10.023Z</time></trkpt><trkpt lat="44.7397283" lon="9.292075"><ele>955.5</ele><time>2026-03-28T17:26:11.023Z</time></trkpt><trkpt lat="44.7396783" lon="9.2919283"><ele>957.75</ele><time>2026-03-28T17:26:12.022Z</time></trkpt><trkpt lat="44.7396183" lon="9.291785"><ele>960.0</ele><time>2026-03-28T17:26:13.023Z</time></trkpt><trkpt lat="44.7395567" lon="9.2916367"><ele>960.0</ele><time>2026-03-28T17:26:14.023Z</time></trkpt><trkpt lat="44.73951" lon="9.29149"><ele>960.0</ele><time>2026-03-28T17:26:15.023Z</time></trkpt><trkpt lat="44.73947" lon="9.2913533"><ele>960.0</ele><time>2026-03-28T17:26:16.023Z</time></trkpt><trkpt lat="44.7394367" lon="9.2912133"><ele>960.0</ele><time>2026-03-28T17:26:17.023Z</time></trkpt><trkpt lat="44.7394417" lon="9.2910783"><ele>960.0</ele><time>2026-03-28T17:26:18.023Z</time></trkpt><trkpt lat="44.73948" lon="9.2909533"><ele>961.0</ele><time>2026-03-28T17:26:19.023Z</time></trkpt><trkpt lat="44.7395133" lon="9.2908133"><ele>962.0</ele><time>2026-03-28T17:26:20.023Z</time></trkpt><trkpt lat="44.7395267" lon="9.2906717"><ele>963.0</ele><time>2026-03-28T17:26:21.023Z</time></trkpt><trkpt lat="44.7395133" lon="9.2905267"><ele>964.0</ele><time>2026-03-28T17:26:22.023Z</time></trkpt><trkpt lat="44.739475" lon="9.2903817"><ele>965.0</ele><time>2026-03-28T17:26:23.022Z</time></trkpt><trkpt lat="44.7394267" lon="9.29024"><ele>966.4</ele><time>2026-03-28T17:26:24.023Z</time></trkpt><trkpt lat="44.73938" lon="9.2901033"><ele>967.8</ele><time>2026-03-28T17:26:25.022Z</time></trkpt><trkpt lat="44.73935" lon="9.2899583"><ele>969.2</ele><time>2026-03-28T17:26:26.023Z</time></trkpt><trkpt lat="44.73934" lon="9.2898033"><ele>970.6</ele><time>2026-03-28T17:26:27.023Z</time></trkpt><trkpt lat="44.7393517" lon="9.2896483"><ele>972.0</ele><time>2026-03-28T17:26:28.022Z</time></trkpt><trkpt lat="44.7394033" lon="9.2894983"><ele>972.0</ele><time>2026-03-28T17:26:29.023Z</time></trkpt><trkpt lat="44.7394433" lon="9.2893583"><ele>972.0</ele><time>2026-03-28T17:26:30.023Z</time></trkpt><trkpt lat="44.7394717" lon="9.2892183"><ele>972.0</ele><time>2026-03-28T17:26:31.022Z</time></trkpt><trkpt lat="44.7394883" lon="9.28908"><ele>972.0</ele><time>2026-03-28T17:26:32.023Z</time></trkpt><trkpt lat="44.7394883" lon="9.288935"><ele>972.0</ele><time>2026-03-28T17:26:33.022Z</time></trkpt><trkpt lat="44.739465" lon="9.28879"><ele>971.4000000000001</ele><time>2026-03-28T17:26:34.023Z</time></trkpt><trkpt lat="44.739425" lon="9.2886517"><ele>970.8000000000001</ele><time>2026-03-28T17:26:35.022Z</time></trkpt><trkpt lat="44.7393817" lon="9.288525"><ele>970.2</ele><time>2026-03-28T17:26:36.023Z</time></trkpt><trkpt lat="44.7393333" lon="9.2883833"><ele>969.6</ele><time>2026-03-28T17:26:37.023Z</time></trkpt><trkpt lat="44.739285" lon="9.2882233"><ele>969.0</ele><time>2026-03-28T17:26:38.022Z</time></trkpt><trkpt lat="44.7392483" lon="9.2880633"><ele>962.0</ele><time>2026-03-28T17:26:39.023Z</time></trkpt><trkpt lat="44.7392333" lon="9.2878933"><ele>955.0</ele><time>2026-03-28T17:26:40.023Z</time></trkpt><trkpt lat="44.7392483" lon="9.2877367"><ele>948.0</ele><time>2026-03-28T17:26:41.023Z</time></trkpt><trkpt lat="44.7392783" lon="9.2875767"><ele>941.0</ele><time>2026-03-28T17:26:42.023Z</time></trkpt><trkpt lat="44.7392967" lon="9.2874083"><ele>942.1999999999999</ele><time>2026-03-28T17:26:43.023Z</time></trkpt><trkpt lat="44.7393083" lon="9.2872483"><ele>943.3999999999999</ele><time>2026-03-28T17:26:44.023Z</time></trkpt><trkpt lat="44.73931" lon="9.2871017"><ele>944.6</ele><time>2026-03-28T17:26:45.023Z</time></trkpt><trkpt lat="44.7392917" lon="9.28697"><ele>945.8</ele><time>2026-03-28T17:26:46.023Z</time></trkpt><trkpt lat="44.7392567" lon="9.286845"><ele>947.0</ele><time>2026-03-28T17:26:47.023Z</time></trkpt><trkpt lat="44.739195" lon="9.286735"><ele>947.0</ele><time>2026-03-28T17:26:48.023Z</time></trkpt><trkpt lat="44.7391183" lon="9.2866217"><ele>947.0</ele><time>2026-03-28T17:26:49.023Z</time></trkpt><trkpt lat="44.7390433" lon="9.2865067"><ele>947.0</ele><time>2026-03-28T17:26:50.023Z</time></trkpt><trkpt lat="44.7389767" lon="9.2863917"><ele>947.0</ele><time>2026-03-28T17:26:51.023Z</time></trkpt><trkpt lat="44.7389217" lon="9.286275"><ele>947.0</ele><time>2026-03-28T17:26:52.023Z</time></trkpt><trkpt lat="44.7388883" lon="9.2861483"><ele>947.8</ele><time>2026-03-28T17:26:53.022Z</time></trkpt><trkpt lat="44.7388717" lon="9.2860167"><ele>948.6</ele><time>2026-03-28T17:26:54.023Z</time></trkpt><trkpt lat="44.73889" lon="9.2858817"><ele>949.3999999999999</ele><time>2026-03-28T17:26:55.023Z</time></trkpt><trkpt lat="44.7389133" lon="9.28574"><ele>950.1999999999999</ele><time>2026-03-28T17:26:56.023Z</time></trkpt><trkpt lat="44.738935" lon="9.2855917"><ele>951.0</ele><time>2026-03-28T17:26:57.022Z</time></trkpt><trkpt lat="44.7389417" lon="9.2854383"><ele>952.4</ele><time>2026-03-28T17:26:58.023Z</time></trkpt><trkpt lat="44.7389283" lon="9.285285"><ele>953.8</ele><time>2026-03-28T17:26:59.023Z</time></trkpt><trkpt lat="44.7389033" lon="9.285135"><ele>955.1999999999999</ele><time>2026-03-28T17:27:00.023Z</time></trkpt><trkpt lat="44.7388717" lon="9.28498"><ele>956.5999999999999</ele><time>2026-03-28T17:27:01.023Z</time></trkpt><trkpt lat="44.738835" lon="9.2848267"><ele>958.0</ele><time>2026-03-28T17:27:02.023Z</time></trkpt><trkpt lat="44.7388" lon="9.284665"><ele>960.25</ele><time>2026-03-28T17:27:03.023Z</time></trkpt><trkpt lat="44.7387733" lon="9.2844933"><ele>962.5</ele><time>2026-03-28T17:27:04.023Z</time></trkpt><trkpt lat="44.7387383" lon="9.2843317"><ele>964.75</ele><time>2026-03-28T17:27:05.023Z</time></trkpt><trkpt lat="44.738695" lon="9.2841817"><ele>967.0</ele><time>2026-03-28T17:27:06.023Z</time></trkpt><trkpt lat="44.738645" lon="9.284045"><ele>967.2</ele><time>2026-03-28T17:27:07.023Z</time></trkpt><trkpt lat="44.7385767" lon="9.2839283"><ele>967.4000000000001</ele><time>2026-03-28T17:27:08.023Z</time></trkpt><trkpt lat="44.7384933" lon="9.2838217"><ele>967.5999999999999</ele><time>2026-03-28T17:27:09.022Z</time></trkpt><trkpt lat="44.7384017" lon="9.2837333"><ele>967.8</ele><time>2026-03-28T17:27:10.023Z</time></trkpt><trkpt lat="44.7383067" lon="9.283655"><ele>968.0</ele><time>2026-03-28T17:27:11.023Z</time></trkpt><trkpt lat="44.7382283" lon="9.2835683"><ele>965.5999999999999</ele><time>2026-03-28T17:27:12.023Z</time></trkpt><trkpt lat="44.7381583" lon="9.2834917"><ele>963.1999999999999</ele><time>2026-03-28T17:27:13.023Z</time></trkpt><trkpt lat="44.7381017" lon="9.2834167"><ele>960.8</ele><time>2026-03-28T17:27:14.022Z</time></trkpt><trkpt lat="44.73802" lon="9.2833"><ele>958.4</ele><time>2026-03-28T17:27:16.023Z</time></trkpt><trkpt lat="44.7379733" lon="9.2831567"><ele>956.0</ele><time>2026-03-28T17:27:18.023Z</time></trkpt><trkpt lat="44.7380033" lon="9.2829417"><ele>956.0</ele><time>2026-03-28T17:27:20.023Z</time></trkpt><trkpt lat="44.7380517" lon="9.28283"><ele>955.9999999999999</ele><time>2026-03-28T17:27:21.023Z</time></trkpt><trkpt lat="44.738125" lon="9.2827"><ele>955.9999999999999</ele><time>2026-03-28T17:27:22.022Z</time></trkpt><trkpt lat="44.73818" lon="9.2825733"><ele>956.0</ele><time>2026-03-28T17:27:23.023Z</time></trkpt><trkpt lat="44.738215" lon="9.2824417"><ele>956.0</ele><time>2026-03-28T17:27:24.023Z</time></trkpt><trkpt lat="44.7382283" lon="9.2822783"><ele>956.0</ele><time>2026-03-28T17:27:25.023Z</time></trkpt><trkpt lat="44.73823" lon="9.2821117"><ele>956.0</ele><time>2026-03-28T17:27:26.023Z</time></trkpt><trkpt lat="44.7382283" lon="9.2819483"><ele>956.0</ele><time>2026-03-28T17:27:27.022Z</time></trkpt><trkpt lat="44.7382267" lon="9.2817767"><ele>956.0</ele><time>2026-03-28T17:27:28.023Z</time></trkpt><trkpt lat="44.7382133" lon="9.2816167"><ele>956.0</ele><time>2026-03-28T17:27:29.022Z</time></trkpt><trkpt lat="44.738205" lon="9.2814667"><ele>955.9999999999999</ele><time>2026-03-28T17:27:30.023Z</time></trkpt><trkpt lat="44.7382067" lon="9.2813417"><ele>955.9999999999999</ele><time>2026-03-28T17:27:31.023Z</time></trkpt><trkpt lat="44.738215" lon="9.2812267"><ele>956.0</ele><time>2026-03-28T17:27:32.023Z</time></trkpt><trkpt lat="44.7382283" lon="9.2811183"><ele>956.0</ele><time>2026-03-28T17:27:33.023Z</time></trkpt><trkpt lat="44.7382683" lon="9.2809817"><ele>955.3333333333334</ele><time>2026-03-28T17:27:35.023Z</time></trkpt><trkpt lat="44.7383533" lon="9.28094"><ele>954.6666666666667</ele><time>2026-03-28T17:27:37.023Z</time></trkpt><trkpt lat="44.7384267" lon="9.2808633"><ele>954.0</ele><time>2026-03-28T17:29:48.023Z</time></trkpt><trkpt lat="44.7384933" lon="9.2808483"><ele>953.3333333333333</ele><time>2026-03-28T17:29:49.023Z</time></trkpt><trkpt lat="44.73857" lon="9.280835"><ele>952.6666666666666</ele><time>2026-03-28T17:29:50.022Z</time></trkpt><trkpt lat="44.7386617" lon="9.2808417"><ele>952.0</ele><time>2026-03-28T17:29:51.023Z</time></trkpt><trkpt lat="44.7387833" lon="9.2808967"><ele>950.4000000000001</ele><time>2026-03-28T17:29:52.022Z</time></trkpt><trkpt lat="44.7388917" lon="9.2809483"><ele>948.8000000000001</ele><time>2026-03-28T17:29:53.023Z</time></trkpt><trkpt lat="44.7389983" lon="9.28101"><ele>947.2</ele><time>2026-03-28T17:29:54.022Z</time></trkpt><trkpt lat="44.739095" lon="9.28108"><ele>945.6</ele><time>2026-03-28T17:29:55.023Z</time></trkpt><trkpt lat="44.7391783" lon="9.2811567"><ele>944.0</ele><time>2026-03-28T17:29:56.023Z</time></trkpt><trkpt lat="44.73926" lon="9.28126"><ele>944.0</ele><time>2026-03-28T17:29:57.023Z</time></trkpt><trkpt lat="44.7393283" lon="9.2813967"><ele>944.0</ele><time>2026-03-28T17:29:58.023Z</time></trkpt><trkpt lat="44.7393983" lon="9.281545"><ele>944.0</ele><time>2026-03-28T17:29:59.023Z</time></trkpt><trkpt lat="44.7394683" lon="9.2816917"><ele>944.0</ele><time>2026-03-28T17:30:00.023Z</time></trkpt><trkpt lat="44.739535" lon="9.2818333"><ele>942.6</ele><time>2026-03-28T17:30:01.023Z</time></trkpt><trkpt lat="44.7396" lon="9.281975"><ele>941.2</ele><time>2026-03-28T17:30:02.023Z</time></trkpt><trkpt lat="44.739665" lon="9.2821"><ele>939.8000000000001</ele><time>2026-03-28T17:30:03.023Z</time></trkpt><trkpt lat="44.73974" lon="9.282195"><ele>938.4000000000001</ele><time>2026-03-28T17:30:04.023Z</time></trkpt><trkpt lat="44.73983" lon="9.282265"><ele>937.0</ele><time>2026-03-28T17:30:05.022Z</time></trkpt><trkpt lat="44.739925" lon="9.2823217"><ele>935.75</ele><time>2026-03-28T17:30:06.023Z</time></trkpt><trkpt lat="44.7400317" lon="9.2823817"><ele>934.5</ele><time>2026-03-28T17:30:07.023Z</time></trkpt><trkpt lat="44.740145" lon="9.282465"><ele>933.25</ele><time>2026-03-28T17:30:08.023Z</time></trkpt><trkpt lat="44.7402483" lon="9.2825617"><ele>932.0</ele><time>2026-03-28T17:30:09.022Z</time></trkpt><trkpt lat="44.7403517" lon="9.282665"><ele>932.0</ele><time>2026-03-28T17:30:10.023Z</time></trkpt><trkpt lat="44.7404533" lon="9.2827683"><ele>932.0</ele><time>2026-03-28T17:30:11.023Z</time></trkpt><trkpt lat="44.7405533" lon="9.2828667"><ele>932.0</ele><time>2026-03-28T17:30:12.023Z</time></trkpt><trkpt lat="44.7406617" lon="9.2829517"><ele>932.0</ele><time>2026-03-28T17:30:13.023Z</time></trkpt><trkpt lat="44.7407767" lon="9.283025"><ele>932.0</ele><time>2026-03-28T17:30:14.023Z</time></trkpt><trkpt lat="44.740905" lon="9.283085"><ele>932.0</ele><time>2026-03-28T17:30:15.022Z</time></trkpt><trkpt lat="44.7410317" lon="9.2831317"><ele>932.0</ele><time>2026-03-28T17:30:16.022Z</time></trkpt><trkpt lat="44.7411567" lon="9.2831633"><ele>932.0</ele><time>2026-03-28T17:30:17.023Z</time></trkpt><trkpt lat="44.7412817" lon="9.283195"><ele>933.5</ele><time>2026-03-28T17:30:18.023Z</time></trkpt><trkpt lat="44.7414067" lon="9.2832117"><ele>935.0</ele><time>2026-03-28T17:30:19.023Z</time></trkpt><trkpt lat="44.7415267" lon="9.2832167"><ele>936.5</ele><time>2026-03-28T17:30:20.022Z</time></trkpt><trkpt lat="44.741645" lon="9.2832017"><ele>938.0</ele><time>2026-03-28T17:30:21.022Z</time></trkpt><trkpt lat="44.7417567" lon="9.2831883"><ele>938.0</ele><time>2026-03-28T17:30:22.022Z</time></trkpt><trkpt lat="44.7418517" lon="9.28317"><ele>938.0</ele><time>2026-03-28T17:30:23.023Z</time></trkpt><trkpt lat="44.7419233" lon="9.283145"><ele>938.0</ele><time>2026-03-28T17:30:24.023Z</time></trkpt><trkpt lat="44.7419917" lon="9.283115"><ele>938.0</ele><time>2026-03-28T17:30:25.023Z</time></trkpt><trkpt lat="44.742055" lon="9.28301"><ele>938.0</ele><time>2026-03-28T17:30:27.023Z</time></trkpt><trkpt lat="44.7420117" lon="9.2828417"><ele>934.8</ele><time>2026-03-28T17:30:29.023Z</time></trkpt><trkpt lat="44.7419533" lon="9.2827767"><ele>931.5999999999999</ele><time>2026-03-28T17:30:30.022Z</time></trkpt><trkpt lat="44.7418883" lon="9.2827483"><ele>928.4000000000001</ele><time>2026-03-28T17:30:31.023Z</time></trkpt><trkpt lat="44.7417733" lon="9.282735"><ele>925.2</ele><time>2026-03-28T17:30:33.022Z</time></trkpt><trkpt lat="44.7416817" lon="9.2827633"><ele>922.0</ele><time>2026-03-28T17:30:34.023Z</time></trkpt><trkpt lat="44.74158" lon="9.2827817"><ele>922.0</ele><time>2026-03-28T17:30:35.023Z</time></trkpt><trkpt lat="44.741445" lon="9.28279"><ele>922.0</ele><time>2026-03-28T17:30:36.023Z</time></trkpt><trkpt lat="44.7413083" lon="9.282735"><ele>922.0</ele><time>2026-03-28T17:30:37.023Z</time></trkpt><trkpt lat="44.7411783" lon="9.2826817"><ele>922.0</ele><time>2026-03-28T17:30:38.023Z</time></trkpt><trkpt lat="44.74107" lon="9.2826183"><ele>921.4000000000001</ele><time>2026-03-28T17:30:39.023Z</time></trkpt><trkpt lat="44.7409783" lon="9.2825283"><ele>920.8000000000001</ele><time>2026-03-28T17:30:40.022Z</time></trkpt><trkpt lat="44.7408983" lon="9.2824333"><ele>920.2</ele><time>2026-03-28T17:30:41.022Z</time></trkpt><trkpt lat="44.7408267" lon="9.2823167"><ele>919.6</ele><time>2026-03-28T17:30:42.022Z</time></trkpt><trkpt lat="44.7407617" lon="9.2821817"><ele>919.0</ele><time>2026-03-28T17:30:43.023Z</time></trkpt><trkpt lat="44.7407" lon="9.282075"><ele>918.9999999999999</ele><time>2026-03-28T17:30:44.023Z</time></trkpt><trkpt lat="44.740645" lon="9.28198"><ele>919.0</ele><time>2026-03-28T17:30:45.023Z</time></trkpt><trkpt lat="44.7406" lon="9.2818867"><ele>919.0</ele><time>2026-03-28T17:30:46.023Z</time></trkpt><trkpt lat="44.740575" lon="9.2817817"><ele>919.0</ele><time>2026-03-28T17:30:47.022Z</time></trkpt><trkpt lat="44.74056" lon="9.2816833"><ele>918.9999999999999</ele><time>2026-03-28T17:30:48.023Z</time></trkpt><trkpt lat="44.740635" lon="9.2816833"><ele>919.0</ele><time>2026-03-28T17:30:51.023Z</time></trkpt><trkpt lat="44.7406867" lon="9.2818283"><ele>919.0</ele><time>2026-03-28T17:30:52.023Z</time></trkpt><trkpt lat="44.740715" lon="9.2819733"><ele>919.0</ele><time>2026-03-28T17:30:53.023Z</time></trkpt><trkpt lat="44.7408083" lon="9.2821617"><ele>919.0</ele><time>2026-03-28T17:30:54.023Z</time></trkpt><trkpt lat="44.7408667" lon="9.282285"><ele>919.0</ele><time>2026-03-28T17:30:55.023Z</time></trkpt><trkpt lat="44.7409467" lon="9.28237"><ele>919.6</ele><time>2026-03-28T17:30:56.023Z</time></trkpt><trkpt lat="44.7410167" lon="9.282435"><ele>920.2</ele><time>2026-03-28T17:30:57.023Z</time></trkpt><trkpt lat="44.7411" lon="9.2824417"><ele>920.8000000000001</ele><time>2026-03-28T17:30:58.023Z</time></trkpt><trkpt lat="44.7411867" lon="9.2824267"><ele>921.4000000000001</ele><time>2026-03-28T17:30:59.023Z</time></trkpt><trkpt lat="44.741295" lon="9.2824067"><ele>922.0</ele><time>2026-03-28T17:31:00.022Z</time></trkpt><trkpt lat="44.7413967" lon="9.2823983"><ele>922.0</ele><time>2026-03-28T17:31:01.023Z</time></trkpt><trkpt lat="44.7415017" lon="9.2824033"><ele>922.0</ele><time>2026-03-28T17:31:02.023Z</time></trkpt><trkpt lat="44.7416067" lon="9.2824167"><ele>922.0</ele><time>2026-03-28T17:31:03.023Z</time></trkpt><trkpt lat="44.7417233" lon="9.2824017"><ele>922.0</ele><time>2026-03-28T17:31:04.023Z</time></trkpt><trkpt lat="44.7418383" lon="9.2823517"><ele>922.0</ele><time>2026-03-28T17:31:05.023Z</time></trkpt><trkpt lat="44.7419533" lon="9.2822783"><ele>917.2</ele><time>2026-03-28T17:31:06.023Z</time></trkpt><trkpt lat="44.742055" lon="9.2821967"><ele>912.4000000000001</ele><time>2026-03-28T17:31:07.023Z</time></trkpt><trkpt lat="44.7421533" lon="9.282115"><ele>907.5999999999999</ele><time>2026-03-28T17:31:08.023Z</time></trkpt><trkpt lat="44.7422483" lon="9.28205"><ele>902.8</ele><time>2026-03-28T17:31:09.023Z</time></trkpt><trkpt lat="44.7423417" lon="9.2819917"><ele>898.0</ele><time>2026-03-28T17:31:10.022Z</time></trkpt><trkpt lat="44.7424317" lon="9.2819983"><ele>897.9999999999999</ele><time>2026-03-28T17:31:11.023Z</time></trkpt><trkpt lat="44.7425" lon="9.2820283"><ele>898.0</ele><time>2026-03-28T17:31:12.022Z</time></trkpt><trkpt lat="44.742555" lon="9.2820767"><ele>898.0</ele><time>2026-03-28T17:31:13.023Z</time></trkpt><trkpt lat="44.7425883" lon="9.2821617"><ele>898.0</ele><time>2026-03-28T17:31:14.023Z</time></trkpt><trkpt lat="44.7426267" lon="9.2822533"><ele>897.9999999999999</ele><time>2026-03-28T17:31:15.023Z</time></trkpt><trkpt lat="44.7426433" lon="9.2823983"><ele>898.0</ele><time>2026-03-28T17:31:16.023Z</time></trkpt><trkpt lat="44.7426483" lon="9.2825367"><ele>896.5</ele><time>2026-03-28T17:31:17.023Z</time></trkpt><trkpt lat="44.742695" lon="9.282645"><ele>895.0</ele><time>2026-03-28T17:31:18.022Z</time></trkpt><trkpt lat="44.7427667" lon="9.2827667"><ele>893.5</ele><time>2026-03-28T17:31:19.023Z</time></trkpt><trkpt lat="44.7428817" lon="9.2828933"><ele>892.0</ele><time>2026-03-28T17:31:20.023Z</time></trkpt><trkpt lat="44.743" lon="9.2829917"><ele>892.0</ele><time>2026-03-28T17:31:21.023Z</time></trkpt><trkpt lat="44.7431417" lon="9.28305"><ele>892.0</ele><time>2026-03-28T17:31:22.023Z</time></trkpt><trkpt lat="44.7432717" lon="9.2831083"><ele>892.0</ele><time>2026-03-28T17:31:23.023Z</time></trkpt><trkpt lat="44.74339" lon="9.2831533"><ele>892.0</ele><time>2026-03-28T17:31:24.023Z</time></trkpt><trkpt lat="44.743505" lon="9.283185"><ele>893.4000000000001</ele><time>2026-03-28T17:31:25.023Z</time></trkpt><trkpt lat="44.7436083" lon="9.2831967"><ele>894.8000000000001</ele><time>2026-03-28T17:31:26.023Z</time></trkpt><trkpt lat="44.74371" lon="9.2831683"><ele>896.2</ele><time>2026-03-28T17:31:27.023Z</time></trkpt><trkpt lat="44.7438117" lon="9.2831233"><ele>897.6</ele><time>2026-03-28T17:31:28.023Z</time></trkpt><trkpt lat="44.7439217" lon="9.28306"><ele>899.0</ele><time>2026-03-28T17:31:29.023Z</time></trkpt><trkpt lat="44.7440117" lon="9.2829783"><ele>899.1666666666667</ele><time>2026-03-28T17:31:30.023Z</time></trkpt><trkpt lat="44.7440867" lon="9.2828733"><ele>899.3333333333334</ele><time>2026-03-28T17:31:31.023Z</time></trkpt><trkpt lat="44.7441517" lon="9.2827717"><ele>899.5</ele><time>2026-03-28T17:31:32.022Z</time></trkpt><trkpt lat="44.7441783" lon="9.2826617"><ele>899.6666666666667</ele><time>2026-03-28T17:31:33.022Z</time></trkpt><trkpt lat="44.7441817" lon="9.2825483"><ele>899.8333333333334</ele><time>2026-03-28T17:31:34.022Z</time></trkpt><trkpt lat="44.7441767" lon="9.282435"><ele>900.0</ele><time>2026-03-28T17:31:35.024Z</time></trkpt><trkpt lat="44.7441667" lon="9.282285"><ele>901.25</ele><time>2026-03-28T17:31:36.024Z</time></trkpt><trkpt lat="44.74415" lon="9.2821083"><ele>902.5</ele><time>2026-03-28T17:31:37.023Z</time></trkpt><trkpt lat="44.7441033" lon="9.2819"><ele>903.75</ele><time>2026-03-28T17:31:38.023Z</time></trkpt><trkpt lat="44.7440583" lon="9.2817217"><ele>905.0</ele><time>2026-03-28T17:31:39.024Z</time></trkpt><trkpt lat="44.7440117" lon="9.2815517"><ele>905.0</ele><time>2026-03-28T17:31:40.023Z</time></trkpt><trkpt lat="44.7439633" lon="9.2813767"><ele>905.0</ele><time>2026-03-28T17:31:41.024Z</time></trkpt><trkpt lat="44.74392" lon="9.2811967"><ele>905.0</ele><time>2026-03-28T17:31:42.024Z</time></trkpt><trkpt lat="44.7438683" lon="9.2809967"><ele>905.0</ele><time>2026-03-28T17:31:43.023Z</time></trkpt><trkpt lat="44.7438117" lon="9.2808217"><ele>905.0</ele><time>2026-03-28T17:31:44.024Z</time></trkpt><trkpt lat="44.7437733" lon="9.2806583"><ele>905.0</ele><time>2026-03-28T17:31:45.024Z</time></trkpt><trkpt lat="44.74376" lon="9.28051"><ele>905.0</ele><time>2026-03-28T17:31:46.023Z</time></trkpt><trkpt lat="44.743765" lon="9.2803617"><ele>905.0</ele><time>2026-03-28T17:31:47.024Z</time></trkpt><trkpt lat="44.7438017" lon="9.2802367"><ele>905.0</ele><time>2026-03-28T17:31:48.023Z</time></trkpt><trkpt lat="44.74385" lon="9.28014"><ele>904.3333333333334</ele><time>2026-03-28T17:31:49.024Z</time></trkpt><trkpt lat="44.7439117" lon="9.280055"><ele>903.6666666666667</ele><time>2026-03-28T17:31:50.024Z</time></trkpt><trkpt lat="44.743985" lon="9.2799867"><ele>903.0</ele><time>2026-03-28T17:31:51.024Z</time></trkpt><trkpt lat="44.744055" lon="9.27991"><ele>902.3333333333333</ele><time>2026-03-28T17:31:52.024Z</time></trkpt><trkpt lat="44.744115" lon="9.2798267"><ele>901.6666666666666</ele><time>2026-03-28T17:31:53.024Z</time></trkpt><trkpt lat="44.7441667" lon="9.2797367"><ele>901.0</ele><time>2026-03-28T17:31:54.024Z</time></trkpt><trkpt lat="44.7442033" lon="9.2796517"><ele>900.0</ele><time>2026-03-28T17:31:55.024Z</time></trkpt><trkpt lat="44.7442117" lon="9.2795483"><ele>898.9999999999999</ele><time>2026-03-28T17:31:56.024Z</time></trkpt><trkpt lat="44.74417" lon="9.279435"><ele>897.9999999999999</ele><time>2026-03-28T17:31:57.024Z</time></trkpt><trkpt lat="44.744115" lon="9.2793117"><ele>897.0</ele><time>2026-03-28T17:31:58.024Z</time></trkpt><trkpt lat="44.7440667" lon="9.279175"><ele>896.0</ele><time>2026-03-28T17:31:59.024Z</time></trkpt><trkpt lat="44.7440383" lon="9.2790367"><ele>895.25</ele><time>2026-03-28T17:32:00.024Z</time></trkpt><trkpt lat="44.7440217" lon="9.2788817"><ele>894.5</ele><time>2026-03-28T17:32:01.024Z</time></trkpt><trkpt lat="44.7440267" lon="9.2787233"><ele>893.75</ele><time>2026-03-28T17:32:02.024Z</time></trkpt><trkpt lat="44.744055" lon="9.2785567"><ele>893.0</ele><time>2026-03-28T17:32:03.024Z</time></trkpt><trkpt lat="44.74411" lon="9.278415"><ele>893.0</ele><time>2026-03-28T17:32:04.024Z</time></trkpt><trkpt lat="44.744205" lon="9.278335"><ele>893.0</ele><time>2026-03-28T17:32:05.024Z</time></trkpt><trkpt lat="44.744305" lon="9.2782917"><ele>893.0</ele><time>2026-03-28T17:32:06.024Z</time></trkpt><trkpt lat="44.7444167" lon="9.2782717"><ele>893.0</ele><time>2026-03-28T17:32:07.024Z</time></trkpt><trkpt lat="44.74454" lon="9.2782633"><ele>892.75</ele><time>2026-03-28T17:32:08.024Z</time></trkpt><trkpt lat="44.7446633" lon="9.2782617"><ele>892.5</ele><time>2026-03-28T17:32:09.024Z</time></trkpt><trkpt lat="44.7447867" lon="9.2782567"><ele>892.25</ele><time>2026-03-28T17:32:10.024Z</time></trkpt><trkpt lat="44.74492" lon="9.2782467"><ele>892.0</ele><time>2026-03-28T17:32:11.023Z</time></trkpt><trkpt lat="44.7450383" lon="9.2782517"><ele>892.0</ele><time>2026-03-28T17:32:12.024Z</time></trkpt><trkpt lat="44.7451667" lon="9.2782683"><ele>892.0</ele><time>2026-03-28T17:32:13.023Z</time></trkpt><trkpt lat="44.7452883" lon="9.278275"><ele>892.0</ele><time>2026-03-28T17:32:14.024Z</time></trkpt><trkpt lat="44.745395" lon="9.2782767"><ele>892.0</ele><time>2026-03-28T17:32:15.024Z</time></trkpt><trkpt lat="44.7454883" lon="9.2782667"><ele>892.3333333333333</ele><time>2026-03-28T17:32:16.024Z</time></trkpt><trkpt lat="44.74557" lon="9.2782383"><ele>892.6666666666666</ele><time>2026-03-28T17:32:17.023Z</time></trkpt><trkpt lat="44.74563" lon="9.278185"><ele>893.0</ele><time>2026-03-28T17:32:18.024Z</time></trkpt><trkpt lat="44.74567" lon="9.2781083"><ele>893.3333333333333</ele><time>2026-03-28T17:32:19.024Z</time></trkpt><trkpt lat="44.7456983" lon="9.2779967"><ele>893.6666666666666</ele><time>2026-03-28T17:32:20.023Z</time></trkpt><trkpt lat="44.7457217" lon="9.27786"><ele>894.0</ele><time>2026-03-28T17:32:21.024Z</time></trkpt><trkpt lat="44.74575" lon="9.2777267"><ele>892.8000000000001</ele><time>2026-03-28T17:32:22.024Z</time></trkpt><trkpt lat="44.7457733" lon="9.277575"><ele>891.6000000000001</ele><time>2026-03-28T17:32:23.024Z</time></trkpt><trkpt lat="44.745795" lon="9.2774133"><ele>890.4</ele><time>2026-03-28T17:32:24.024Z</time></trkpt><trkpt lat="44.745815" lon="9.2772567"><ele>889.2</ele><time>2026-03-28T17:32:25.024Z</time></trkpt><trkpt lat="44.745845" lon="9.2771133"><ele>888.0</ele><time>2026-03-28T17:32:26.024Z</time></trkpt><trkpt lat="44.745885" lon="9.2769883"><ele>887.5999999999999</ele><time>2026-03-28T17:32:27.024Z</time></trkpt><trkpt lat="44.74594" lon="9.276885"><ele>887.1999999999999</ele><time>2026-03-28T17:32:28.024Z</time></trkpt><trkpt lat="44.7460067" lon="9.2768233"><ele>886.8</ele><time>2026-03-28T17:32:29.024Z</time></trkpt><trkpt lat="44.7461033" lon="9.2768133"><ele>886.4</ele><time>2026-03-28T17:32:30.024Z</time></trkpt><trkpt lat="44.7462017" lon="9.2768217"><ele>886.0</ele><time>2026-03-28T17:32:31.024Z</time></trkpt><trkpt lat="44.746295" lon="9.2767917"><ele>886.0</ele><time>2026-03-28T17:32:32.024Z</time></trkpt><trkpt lat="44.7463833" lon="9.2767267"><ele>885.9999999999999</ele><time>2026-03-28T17:32:33.024Z</time></trkpt><trkpt lat="44.746465" lon="9.2766317"><ele>885.9999999999999</ele><time>2026-03-28T17:32:34.023Z</time></trkpt><trkpt lat="44.7465167" lon="9.2764917"><ele>886.0</ele><time>2026-03-28T17:32:35.024Z</time></trkpt><trkpt lat="44.746545" lon="9.27632"><ele>886.0</ele><time>2026-03-28T17:32:36.024Z</time></trkpt><trkpt lat="44.746575" lon="9.2761467"><ele>884.0</ele><time>2026-03-28T17:32:37.024Z</time></trkpt><trkpt lat="44.74661" lon="9.2759783"><ele>882.0</ele><time>2026-03-28T17:32:38.024Z</time></trkpt><trkpt lat="44.746655" lon="9.2758167"><ele>880.0</ele><time>2026-03-28T17:32:39.023Z</time></trkpt><trkpt lat="44.74671" lon="9.2756783"><ele>878.0</ele><time>2026-03-28T17:32:40.024Z</time></trkpt><trkpt lat="44.74678" lon="9.2755433"><ele>878.0</ele><time>2026-03-28T17:32:41.024Z</time></trkpt><trkpt lat="44.7468683" lon="9.275415"><ele>878.0</ele><time>2026-03-28T17:32:42.024Z</time></trkpt><trkpt lat="44.746975" lon="9.2753017"><ele>878.0</ele><time>2026-03-28T17:32:43.023Z</time></trkpt><trkpt lat="44.74708" lon="9.2752"><ele>878.0</ele><time>2026-03-28T17:32:44.024Z</time></trkpt><trkpt lat="44.747185" lon="9.2750917"><ele>878.0</ele><time>2026-03-28T17:32:45.023Z</time></trkpt><trkpt lat="44.74728" lon="9.2749983"><ele>878.0</ele><time>2026-03-28T17:32:46.024Z</time></trkpt><trkpt lat="44.7473733" lon="9.2748983"><ele>878.0</ele><time>2026-03-28T17:32:47.024Z</time></trkpt><trkpt lat="44.7474483" lon="9.2747817"><ele>878.0</ele><time>2026-03-28T17:32:48.024Z</time></trkpt><trkpt lat="44.7475117" lon="9.2746417"><ele>877.25</ele><time>2026-03-28T17:32:49.024Z</time></trkpt><trkpt lat="44.7475567" lon="9.2744817"><ele>876.5</ele><time>2026-03-28T17:32:50.024Z</time></trkpt><trkpt lat="44.74758" lon="9.2743033"><ele>875.75</ele><time>2026-03-28T17:32:51.024Z</time></trkpt><trkpt lat="44.7475867" lon="9.2741183"><ele>875.0</ele><time>2026-03-28T17:32:52.024Z</time></trkpt><trkpt lat="44.7475833" lon="9.27394"><ele>875.75</ele><time>2026-03-28T17:32:53.024Z</time></trkpt><trkpt lat="44.7475567" lon="9.27376"><ele>876.5</ele><time>2026-03-28T17:32:54.024Z</time></trkpt><trkpt lat="44.747505" lon="9.2735933"><ele>877.25</ele><time>2026-03-28T17:32:55.024Z</time></trkpt><trkpt lat="44.7474317" lon="9.2734267"><ele>878.0</ele><time>2026-03-28T17:32:56.024Z</time></trkpt><trkpt lat="44.74735" lon="9.273275"><ele>878.0</ele><time>2026-03-28T17:32:57.024Z</time></trkpt><trkpt lat="44.747255" lon="9.2731467"><ele>878.0</ele><time>2026-03-28T17:32:58.023Z</time></trkpt><trkpt lat="44.7471417" lon="9.2730533"><ele>878.0</ele><time>2026-03-28T17:32:59.024Z</time></trkpt><trkpt lat="44.7470467" lon="9.27297"><ele>878.0</ele><time>2026-03-28T17:33:00.024Z</time></trkpt><trkpt lat="44.7469633" lon="9.2728767"><ele>880.5</ele><time>2026-03-28T17:33:01.024Z</time></trkpt><trkpt lat="44.7468983" lon="9.2727667"><ele>883.0</ele><time>2026-03-28T17:33:02.024Z</time></trkpt><trkpt lat="44.7468683" lon="9.2726283"><ele>885.5</ele><time>2026-03-28T17:33:03.024Z</time></trkpt><trkpt lat="44.7468533" lon="9.2724583"><ele>888.0</ele><time>2026-03-28T17:33:04.023Z</time></trkpt><trkpt lat="44.7468517" lon="9.2722717"><ele>880.75</ele><time>2026-03-28T17:33:05.023Z</time></trkpt><trkpt lat="44.7468483" lon="9.2720833"><ele>873.5</ele><time>2026-03-28T17:33:06.024Z</time></trkpt><trkpt lat="44.7468467" lon="9.2719"><ele>866.25</ele><time>2026-03-28T17:33:07.023Z</time></trkpt><trkpt lat="44.7468533" lon="9.2717167"><ele>859.0</ele><time>2026-03-28T17:33:08.024Z</time></trkpt><trkpt lat="44.74687" lon="9.2715517"><ele>865.0</ele><time>2026-03-28T17:33:09.024Z</time></trkpt><trkpt lat="44.7468917" lon="9.27138"><ele>871.0</ele><time>2026-03-28T17:33:10.024Z</time></trkpt><trkpt lat="44.7469267" lon="9.2712033"><ele>877.0</ele><time>2026-03-28T17:33:11.024Z</time></trkpt><trkpt lat="44.7469617" lon="9.271015"><ele>883.0</ele><time>2026-03-28T17:33:12.023Z</time></trkpt><trkpt lat="44.7469967" lon="9.2708167"><ele>883.0</ele><time>2026-03-28T17:33:13.024Z</time></trkpt><trkpt lat="44.7470267" lon="9.2706183"><ele>883.0</ele><time>2026-03-28T17:33:14.024Z</time></trkpt><trkpt lat="44.74705" lon="9.27042"><ele>883.0</ele><time>2026-03-28T17:33:15.024Z</time></trkpt><trkpt lat="44.7470767" lon="9.2702283"><ele>883.0</ele><time>2026-03-28T17:33:16.024Z</time></trkpt><trkpt lat="44.7471117" lon="9.2700383"><ele>879.5</ele><time>2026-03-28T17:33:17.024Z</time></trkpt><trkpt lat="44.7471467" lon="9.2698567"><ele>876.0</ele><time>2026-03-28T17:33:18.024Z</time></trkpt><trkpt lat="44.7471867" lon="9.2696883"><ele>872.5</ele><time>2026-03-28T17:33:19.024Z</time></trkpt><trkpt lat="44.7472267" lon="9.2695317"><ele>869.0</ele><time>2026-03-28T17:33:20.024Z</time></trkpt><trkpt lat="44.7472733" lon="9.2693817"><ele>866.5</ele><time>2026-03-28T17:33:21.024Z</time></trkpt><trkpt lat="44.7473333" lon="9.2692383"><ele>864.0</ele><time>2026-03-28T17:33:22.024Z</time></trkpt><trkpt lat="44.7474083" lon="9.2690983"><ele>861.5</ele><time>2026-03-28T17:33:23.023Z</time></trkpt><trkpt lat="44.74749" lon="9.26897"><ele>859.0</ele><time>2026-03-28T17:33:24.024Z</time></trkpt><trkpt lat="44.7475783" lon="9.2688567"><ele>856.6</ele><time>2026-03-28T17:33:25.023Z</time></trkpt><trkpt lat="44.7476733" lon="9.2687667"><ele>854.2</ele><time>2026-03-28T17:33:26.024Z</time></trkpt><trkpt lat="44.7477783" lon="9.2687"><ele>851.8000000000001</ele><time>2026-03-28T17:33:27.024Z</time></trkpt><trkpt lat="44.7478833" lon="9.2686483"><ele>849.4000000000001</ele><time>2026-03-28T17:33:28.024Z</time></trkpt><trkpt lat="44.7479883" lon="9.26862"><ele>847.0</ele><time>2026-03-28T17:33:29.023Z</time></trkpt><trkpt lat="44.74809" lon="9.2686133"><ele>847.0</ele><time>2026-03-28T17:33:30.024Z</time></trkpt><trkpt lat="44.7481883" lon="9.2686317"><ele>847.0</ele><time>2026-03-28T17:33:31.024Z</time></trkpt><trkpt lat="44.7483033" lon="9.2686567"><ele>847.0</ele><time>2026-03-28T17:33:32.024Z</time></trkpt><trkpt lat="44.748445" lon="9.268675"><ele>847.0</ele><time>2026-03-28T17:33:33.024Z</time></trkpt><trkpt lat="44.7485917" lon="9.2687"><ele>846.5</ele><time>2026-03-28T17:33:34.024Z</time></trkpt><trkpt lat="44.7487367" lon="9.2687183"><ele>846.0</ele><time>2026-03-28T17:33:35.024Z</time></trkpt><trkpt lat="44.748885" lon="9.2687317"><ele>845.5</ele><time>2026-03-28T17:33:36.024Z</time></trkpt><trkpt lat="44.74903" lon="9.26873"><ele>845.0</ele><time>2026-03-28T17:33:37.024Z</time></trkpt><trkpt lat="44.7491717" lon="9.2687117"><ele>845.0</ele><time>2026-03-28T17:33:38.024Z</time></trkpt><trkpt lat="44.749305" lon="9.2686817"><ele>845.0</ele><time>2026-03-28T17:33:39.024Z</time></trkpt><trkpt lat="44.7494417" lon="9.2686567"><ele>845.0</ele><time>2026-03-28T17:33:40.024Z</time></trkpt><trkpt lat="44.7495867" lon="9.26865"><ele>845.0</ele><time>2026-03-28T17:33:41.023Z</time></trkpt><trkpt lat="44.7497383" lon="9.2686617"><ele>843.75</ele><time>2026-03-28T17:33:42.023Z</time></trkpt><trkpt lat="44.74989" lon="9.2686817"><ele>842.5</ele><time>2026-03-28T17:33:43.023Z</time></trkpt><trkpt lat="44.7500283" lon="9.2686967"><ele>841.25</ele><time>2026-03-28T17:33:44.024Z</time></trkpt><trkpt lat="44.7501567" lon="9.26872"><ele>840.0</ele><time>2026-03-28T17:33:45.024Z</time></trkpt><trkpt lat="44.7502833" lon="9.26874"><ele>840.0</ele><time>2026-03-28T17:33:46.024Z</time></trkpt><trkpt lat="44.7504117" lon="9.2687383"><ele>840.0</ele><time>2026-03-28T17:33:47.024Z</time></trkpt><trkpt lat="44.7505367" lon="9.2687433"><ele>840.0</ele><time>2026-03-28T17:33:48.024Z</time></trkpt><trkpt lat="44.75066" lon="9.268755"><ele>840.0</ele><time>2026-03-28T17:33:49.024Z</time></trkpt><trkpt lat="44.7507783" lon="9.268765"><ele>840.0</ele><time>2026-03-28T17:33:50.024Z</time></trkpt><trkpt lat="44.750895" lon="9.2687667"><ele>840.0</ele><time>2026-03-28T17:33:51.024Z</time></trkpt><trkpt lat="44.7510117" lon="9.2687717"><ele>840.0</ele><time>2026-03-28T17:33:52.024Z</time></trkpt><trkpt lat="44.7511283" lon="9.2687733"><ele>840.0</ele><time>2026-03-28T17:33:53.024Z</time></trkpt><trkpt lat="44.7512467" lon="9.26877"><ele>841.6</ele><time>2026-03-28T17:33:54.024Z</time></trkpt><trkpt lat="44.7513683" lon="9.26877"><ele>843.2</ele><time>2026-03-28T17:33:55.024Z</time></trkpt><trkpt lat="44.7514717" lon="9.2687517"><ele>844.8</ele><time>2026-03-28T17:33:56.024Z</time></trkpt><trkpt lat="44.7515683" lon="9.2687"><ele>846.4</ele><time>2026-03-28T17:33:57.024Z</time></trkpt><trkpt lat="44.7516667" lon="9.2686317"><ele>848.0</ele><time>2026-03-28T17:33:58.023Z</time></trkpt><trkpt lat="44.7517483" lon="9.2685417"><ele>848.0</ele><time>2026-03-28T17:33:59.024Z</time></trkpt><trkpt lat="44.7518067" lon="9.2684233"><ele>848.0</ele><time>2026-03-28T17:34:00.024Z</time></trkpt><trkpt lat="44.751825" lon="9.2682717"><ele>848.0</ele><time>2026-03-28T17:34:01.024Z</time></trkpt><trkpt lat="44.75181" lon="9.2681067"><ele>848.0</ele><time>2026-03-28T17:34:02.023Z</time></trkpt><trkpt lat="44.7517917" lon="9.2679367"><ele>848.25</ele><time>2026-03-28T17:34:03.024Z</time></trkpt><trkpt lat="44.7517883" lon="9.26777"><ele>848.5</ele><time>2026-03-28T17:34:04.024Z</time></trkpt><trkpt lat="44.75181" lon="9.2675917"><ele>848.75</ele><time>2026-03-28T17:34:05.024Z</time></trkpt><trkpt lat="44.751845" lon="9.267405"><ele>849.0</ele><time>2026-03-28T17:34:06.024Z</time></trkpt><trkpt lat="44.7518767" lon="9.2672217"><ele>849.0</ele><time>2026-03-28T17:34:07.024Z</time></trkpt><trkpt lat="44.7518883" lon="9.2670517"><ele>849.0</ele><time>2026-03-28T17:34:08.024Z</time></trkpt><trkpt lat="44.7518767" lon="9.26689"><ele>849.0</ele><time>2026-03-28T17:34:09.024Z</time></trkpt><trkpt lat="44.7518583" lon="9.2667317"><ele>849.0</ele><time>2026-03-28T17:34:10.024Z</time></trkpt><trkpt lat="44.7518583" lon="9.266575"><ele>846.75</ele><time>2026-03-28T17:34:11.024Z</time></trkpt><trkpt lat="44.7518817" lon="9.26641"><ele>844.5</ele><time>2026-03-28T17:34:12.024Z</time></trkpt><trkpt lat="44.7519167" lon="9.2662367"><ele>842.25</ele><time>2026-03-28T17:34:13.023Z</time></trkpt><trkpt lat="44.751955" lon="9.2660533"><ele>840.0</ele><time>2026-03-28T17:34:14.024Z</time></trkpt><trkpt lat="44.751995" lon="9.26588"><ele>840.0</ele><time>2026-03-28T17:34:15.024Z</time></trkpt><trkpt lat="44.7520367" lon="9.2657267"><ele>840.0</ele><time>2026-03-28T17:34:16.023Z</time></trkpt><trkpt lat="44.7520783" lon="9.2656033"><ele>840.0</ele><time>2026-03-28T17:34:17.024Z</time></trkpt><trkpt lat="44.75213" lon="9.2655033"><ele>840.0</ele><time>2026-03-28T17:34:18.023Z</time></trkpt><trkpt lat="44.7521967" lon="9.2654533"><ele>840.0</ele><time>2026-03-28T17:34:19.024Z</time></trkpt><trkpt lat="44.7522817" lon="9.2654533"><ele>836.5</ele><time>2026-03-28T17:34:20.024Z</time></trkpt><trkpt lat="44.7523817" lon="9.26548"><ele>833.0</ele><time>2026-03-28T17:34:21.024Z</time></trkpt><trkpt lat="44.7524867" lon="9.2655133"><ele>829.5</ele><time>2026-03-28T17:34:22.024Z</time></trkpt><trkpt lat="44.752615" lon="9.26557"><ele>826.0</ele><time>2026-03-28T17:34:23.024Z</time></trkpt><trkpt lat="44.7527367" lon="9.26561"><ele>828.5</ele><time>2026-03-28T17:34:24.023Z</time></trkpt><trkpt lat="44.7528617" lon="9.2656467"><ele>831.0</ele><time>2026-03-28T17:34:25.024Z</time></trkpt><trkpt lat="44.7529883" lon="9.2656817"><ele>833.5</ele><time>2026-03-28T17:34:26.024Z</time></trkpt><trkpt lat="44.7531183" lon="9.2656967"><ele>836.0</ele><time>2026-03-28T17:34:27.024Z</time></trkpt><trkpt lat="44.7532467" lon="9.2656933"><ele>836.0</ele><time>2026-03-28T17:34:28.024Z</time></trkpt><trkpt lat="44.7533767" lon="9.26568"><ele>836.0</ele><time>2026-03-28T17:34:29.023Z</time></trkpt><trkpt lat="44.7534967" lon="9.2656633"><ele>836.0</ele><time>2026-03-28T17:34:30.024Z</time></trkpt><trkpt lat="44.7536167" lon="9.265635"><ele>836.0</ele><time>2026-03-28T17:34:31.024Z</time></trkpt><trkpt lat="44.7537383" lon="9.2656067"><ele>833.5</ele><time>2026-03-28T17:34:32.024Z</time></trkpt><trkpt lat="44.7538567" lon="9.2655633"><ele>831.0</ele><time>2026-03-28T17:34:33.024Z</time></trkpt><trkpt lat="44.7539833" lon="9.2655167"><ele>828.5</ele><time>2026-03-28T17:34:34.023Z</time></trkpt><trkpt lat="44.75411" lon="9.2654683"><ele>826.0</ele><time>2026-03-28T17:34:35.024Z</time></trkpt><trkpt lat="44.7542333" lon="9.2654233"><ele>826.0</ele><time>2026-03-28T17:34:36.024Z</time></trkpt><trkpt lat="44.7543517" lon="9.265375"><ele>826.0</ele><time>2026-03-28T17:34:37.024Z</time></trkpt><trkpt lat="44.7544633" lon="9.2653283"><ele>826.0</ele><time>2026-03-28T17:34:38.024Z</time></trkpt><trkpt lat="44.7545633" lon="9.2652783"><ele>826.0</ele><time>2026-03-28T17:34:39.024Z</time></trkpt><trkpt lat="44.7546467" lon="9.2652233"><ele>826.0</ele><time>2026-03-28T17:34:40.024Z</time></trkpt><trkpt lat="44.75472" lon="9.2651517"><ele>826.5999999999999</ele><time>2026-03-28T17:34:41.024Z</time></trkpt><trkpt lat="44.754775" lon="9.2650483"><ele>827.2</ele><time>2026-03-28T17:34:42.023Z</time></trkpt><trkpt lat="44.7547983" lon="9.2649117"><ele>827.8</ele><time>2026-03-28T17:34:43.024Z</time></trkpt><trkpt lat="44.7548083" lon="9.2647667"><ele>828.4000000000001</ele><time>2026-03-28T17:34:44.024Z</time></trkpt><trkpt lat="44.7548117" lon="9.264605"><ele>829.0</ele><time>2026-03-28T17:34:45.023Z</time></trkpt><trkpt lat="44.75483" lon="9.2644533"><ele>829.0</ele><time>2026-03-28T17:34:46.024Z</time></trkpt><trkpt lat="44.7548433" lon="9.264285"><ele>829.0</ele><time>2026-03-28T17:34:47.024Z</time></trkpt><trkpt lat="44.75486" lon="9.2641233"><ele>829.0</ele><time>2026-03-28T17:34:48.024Z</time></trkpt><trkpt lat="44.7548683" lon="9.2639633"><ele>829.0</ele><time>2026-03-28T17:34:49.024Z</time></trkpt><trkpt lat="44.75486" lon="9.26381"><ele>829.25</ele><time>2026-03-28T17:34:50.024Z</time></trkpt><trkpt lat="44.7548367" lon="9.263655"><ele>829.5</ele><time>2026-03-28T17:34:51.024Z</time></trkpt><trkpt lat="44.7548" lon="9.2635017"><ele>829.75</ele><time>2026-03-28T17:34:52.024Z</time></trkpt><trkpt lat="44.7547717" lon="9.263345"><ele>830.0</ele><time>2026-03-28T17:34:53.024Z</time></trkpt><trkpt lat="44.75476" lon="9.2631817"><ele>829.75</ele><time>2026-03-28T17:34:54.023Z</time></trkpt><trkpt lat="44.754765" lon="9.2630067"><ele>829.5</ele><time>2026-03-28T17:34:55.024Z</time></trkpt><trkpt lat="44.7547933" lon="9.2628283"><ele>829.25</ele><time>2026-03-28T17:34:56.024Z</time></trkpt><trkpt lat="44.75483" lon="9.262655"><ele>829.0</ele><time>2026-03-28T17:34:57.024Z</time></trkpt><trkpt lat="44.7548633" lon="9.262485"><ele>829.0</ele><time>2026-03-28T17:34:58.023Z</time></trkpt><trkpt lat="44.7548867" lon="9.2623217"><ele>829.0</ele><time>2026-03-28T17:34:59.024Z</time></trkpt><trkpt lat="44.754895" lon="9.2621517"><ele>829.0</ele><time>2026-03-28T17:35:00.024Z</time></trkpt><trkpt lat="44.7548883" lon="9.26199"><ele>829.0</ele><time>2026-03-28T17:35:01.024Z</time></trkpt><trkpt lat="44.7548717" lon="9.2618433"><ele>827.8000000000001</ele><time>2026-03-28T17:35:02.024Z</time></trkpt><trkpt lat="44.75485" lon="9.261705"><ele>826.6</ele><time>2026-03-28T17:35:03.024Z</time></trkpt><trkpt lat="44.7548433" lon="9.2615667"><ele>825.4</ele><time>2026-03-28T17:35:04.024Z</time></trkpt><trkpt lat="44.754855" lon="9.2614183"><ele>824.2</ele><time>2026-03-28T17:35:05.024Z</time></trkpt><trkpt lat="44.7549067" lon="9.2612817"><ele>823.0</ele><time>2026-03-28T17:35:06.024Z</time></trkpt><trkpt lat="44.7549667" lon="9.2611633"><ele>822.0</ele><time>2026-03-28T17:35:07.024Z</time></trkpt><trkpt lat="44.7550067" lon="9.2610367"><ele>821.0</ele><time>2026-03-28T17:35:08.024Z</time></trkpt><trkpt lat="44.7550367" lon="9.26091"><ele>820.0</ele><time>2026-03-28T17:35:09.024Z</time></trkpt><trkpt lat="44.75505" lon="9.2607617"><ele>819.0</ele><time>2026-03-28T17:35:10.024Z</time></trkpt><trkpt lat="44.7550517" lon="9.2606"><ele>818.0</ele><time>2026-03-28T17:35:11.024Z</time></trkpt><trkpt lat="44.7550533" lon="9.2604333"><ele>816.0</ele><time>2026-03-28T17:35:12.024Z</time></trkpt><trkpt lat="44.75506" lon="9.26027"><ele>814.0</ele><time>2026-03-28T17:35:13.024Z</time></trkpt><trkpt lat="44.7550733" lon="9.26011"><ele>812.0</ele><time>2026-03-28T17:35:14.024Z</time></trkpt><trkpt lat="44.7551017" lon="9.2599567"><ele>810.0</ele><time>2026-03-28T17:35:15.024Z</time></trkpt><trkpt lat="44.755155" lon="9.259815"><ele>811.5</ele><time>2026-03-28T17:35:16.023Z</time></trkpt><trkpt lat="44.755225" lon="9.2596983"><ele>813.0</ele><time>2026-03-28T17:35:17.024Z</time></trkpt><trkpt lat="44.755325" lon="9.2596"><ele>814.5</ele><time>2026-03-28T17:35:18.024Z</time></trkpt><trkpt lat="44.7554367" lon="9.2595"><ele>816.0</ele><time>2026-03-28T17:35:19.024Z</time></trkpt><trkpt lat="44.7555467" lon="9.2593817"><ele>816.0</ele><time>2026-03-28T17:35:20.023Z</time></trkpt><trkpt lat="44.7556533" lon="9.2592583"><ele>816.0</ele><time>2026-03-28T17:35:21.024Z</time></trkpt><trkpt lat="44.7557567" lon="9.2591317"><ele>816.0</ele><time>2026-03-28T17:35:22.024Z</time></trkpt><trkpt lat="44.7558517" lon="9.259"><ele>816.0</ele><time>2026-03-28T17:35:23.023Z</time></trkpt><trkpt lat="44.7559383" lon="9.25887"><ele>812.25</ele><time>2026-03-28T17:35:24.024Z</time></trkpt><trkpt lat="44.7560117" lon="9.2587333"><ele>808.5</ele><time>2026-03-28T17:35:25.024Z</time></trkpt><trkpt lat="44.756075" lon="9.258585"><ele>804.75</ele><time>2026-03-28T17:35:26.024Z</time></trkpt><trkpt lat="44.75613" lon="9.2584333"><ele>801.0</ele><time>2026-03-28T17:35:27.024Z</time></trkpt><trkpt lat="44.7561767" lon="9.25827"><ele>805.75</ele><time>2026-03-28T17:35:28.024Z</time></trkpt><trkpt lat="44.75621" lon="9.258105"><ele>810.5</ele><time>2026-03-28T17:35:29.024Z</time></trkpt><trkpt lat="44.7562333" lon="9.25794"><ele>815.25</ele><time>2026-03-28T17:35:30.023Z</time></trkpt><trkpt lat="44.7562383" lon="9.257765"><ele>820.0</ele><time>2026-03-28T17:35:31.024Z</time></trkpt><trkpt lat="44.7562367" lon="9.2575867"><ele>820.0</ele><time>2026-03-28T17:35:32.024Z</time></trkpt><trkpt lat="44.7562417" lon="9.257415"><ele>820.0</ele><time>2026-03-28T17:35:33.024Z</time></trkpt><trkpt lat="44.75626" lon="9.2572517"><ele>820.0</ele><time>2026-03-28T17:35:34.024Z</time></trkpt><trkpt lat="44.756295" lon="9.2571017"><ele>820.0</ele><time>2026-03-28T17:35:35.024Z</time></trkpt><trkpt lat="44.7563617" lon="9.2569767"><ele>814.75</ele><time>2026-03-28T17:35:36.024Z</time></trkpt><trkpt lat="44.7564433" lon="9.2568667"><ele>809.5</ele><time>2026-03-28T17:35:37.024Z</time></trkpt><trkpt lat="44.756535" lon="9.2567667"><ele>804.25</ele><time>2026-03-28T17:35:38.023Z</time></trkpt><trkpt lat="44.756635" lon="9.2566617"><ele>799.0</ele><time>2026-03-28T17:35:39.024Z</time></trkpt><trkpt lat="44.75674" lon="9.2565617"><ele>799.0</ele><time>2026-03-28T17:35:40.024Z</time></trkpt><trkpt lat="44.756845" lon="9.2564683"><ele>799.0</ele><time>2026-03-28T17:35:41.023Z</time></trkpt><trkpt lat="44.7569533" lon="9.256375"><ele>799.0</ele><time>2026-03-28T17:35:42.024Z</time></trkpt><trkpt lat="44.75706" lon="9.2562683"><ele>799.0</ele><time>2026-03-28T17:35:43.024Z</time></trkpt><trkpt lat="44.757165" lon="9.2561417"><ele>797.25</ele><time>2026-03-28T17:35:44.024Z</time></trkpt><trkpt lat="44.75726" lon="9.255995"><ele>795.5</ele><time>2026-03-28T17:35:45.024Z</time></trkpt><trkpt lat="44.757375" lon="9.2558783"><ele>793.75</ele><time>2026-03-28T17:35:46.024Z</time></trkpt><trkpt lat="44.7574883" lon="9.255765"><ele>792.0</ele><time>2026-03-28T17:35:47.024Z</time></trkpt><trkpt lat="44.7575933" lon="9.2556517"><ele>792.25</ele><time>2026-03-28T17:35:48.024Z</time></trkpt><trkpt lat="44.7576767" lon="9.25552"><ele>792.5</ele><time>2026-03-28T17:35:49.023Z</time></trkpt><trkpt lat="44.7577467" lon="9.2553717"><ele>792.75</ele><time>2026-03-28T17:35:50.024Z</time></trkpt><trkpt lat="44.7577967" lon="9.2552083"><ele>793.0</ele><time>2026-03-28T17:35:51.024Z</time></trkpt><trkpt lat="44.7578167" lon="9.2550233"><ele>793.0</ele><time>2026-03-28T17:35:52.023Z</time></trkpt><trkpt lat="44.7578317" lon="9.25484"><ele>793.0</ele><time>2026-03-28T17:35:53.023Z</time></trkpt><trkpt lat="44.757855" lon="9.2546783"><ele>793.0</ele><time>2026-03-28T17:35:54.023Z</time></trkpt><trkpt lat="44.7578917" lon="9.2545317"><ele>793.0</ele><time>2026-03-28T17:35:55.023Z</time></trkpt><trkpt lat="44.7579517" lon="9.2544167"><ele>789.75</ele><time>2026-03-28T17:35:56.024Z</time></trkpt><trkpt lat="44.7580467" lon="9.2543667"><ele>786.5</ele><time>2026-03-28T17:35:57.024Z</time></trkpt><trkpt lat="44.7581533" lon="9.2543317"><ele>783.25</ele><time>2026-03-28T17:35:58.024Z</time></trkpt><trkpt lat="44.7582817" lon="9.2543133"><ele>780.0</ele><time>2026-03-28T17:35:59.023Z</time></trkpt><trkpt lat="44.7584117" lon="9.2542883"><ele>780.75</ele><time>2026-03-28T17:36:00.024Z</time></trkpt><trkpt lat="44.758545" lon="9.254275"><ele>781.5</ele><time>2026-03-28T17:36:01.024Z</time></trkpt><trkpt lat="44.758665" lon="9.2542583"><ele>782.25</ele><time>2026-03-28T17:36:02.024Z</time></trkpt><trkpt lat="44.7587917" lon="9.2542333"><ele>783.0</ele><time>2026-03-28T17:36:03.023Z</time></trkpt><trkpt lat="44.758915" lon="9.254185"><ele>783.0</ele><time>2026-03-28T17:36:04.024Z</time></trkpt><trkpt lat="44.75903" lon="9.2541083"><ele>783.0</ele><time>2026-03-28T17:36:05.023Z</time></trkpt><trkpt lat="44.7591383" lon="9.2540183"><ele>783.0</ele><time>2026-03-28T17:36:06.024Z</time></trkpt><trkpt lat="44.759225" lon="9.2538883"><ele>783.0</ele><time>2026-03-28T17:36:07.024Z</time></trkpt><trkpt lat="44.7592983" lon="9.253745"><ele>783.25</ele><time>2026-03-28T17:36:08.024Z</time></trkpt><trkpt lat="44.7593583" lon="9.25359"><ele>783.5</ele><time>2026-03-28T17:36:09.023Z</time></trkpt><trkpt lat="44.7594033" lon="9.2534233"><ele>783.75</ele><time>2026-03-28T17:36:10.024Z</time></trkpt><trkpt lat="44.7594417" lon="9.25325"><ele>784.0</ele><time>2026-03-28T17:36:11.023Z</time></trkpt><trkpt lat="44.7594933" lon="9.2530883"><ele>782.25</ele><time>2026-03-28T17:36:12.024Z</time></trkpt><trkpt lat="44.7595433" lon="9.2529183"><ele>780.5</ele><time>2026-03-28T17:36:13.024Z</time></trkpt><trkpt lat="44.7595983" lon="9.25275"><ele>778.75</ele><time>2026-03-28T17:36:14.024Z</time></trkpt><trkpt lat="44.7596533" lon="9.2525767"><ele>777.0</ele><time>2026-03-28T17:36:15.024Z</time></trkpt><trkpt lat="44.75971" lon="9.252405"><ele>775.25</ele><time>2026-03-28T17:36:16.024Z</time></trkpt><trkpt lat="44.75977" lon="9.252235"><ele>773.5</ele><time>2026-03-28T17:36:17.024Z</time></trkpt><trkpt lat="44.7598317" lon="9.252075"><ele>771.75</ele><time>2026-03-28T17:36:18.024Z</time></trkpt><trkpt lat="44.7598883" lon="9.2519167"><ele>770.0</ele><time>2026-03-28T17:36:19.024Z</time></trkpt><trkpt lat="44.75994" lon="9.2517667"><ele>770.0</ele><time>2026-03-28T17:36:20.024Z</time></trkpt><trkpt lat="44.7599933" lon="9.2516333"><ele>770.0</ele><time>2026-03-28T17:36:21.024Z</time></trkpt><trkpt lat="44.7600433" lon="9.2515133"><ele>770.0</ele><time>2026-03-28T17:36:22.024Z</time></trkpt><trkpt lat="44.7601033" lon="9.2514133"><ele>770.0</ele><time>2026-03-28T17:36:23.024Z</time></trkpt><trkpt lat="44.7601767" lon="9.2513717"><ele>770.0</ele><time>2026-03-28T17:36:24.024Z</time></trkpt><trkpt lat="44.7602433" lon="9.2513317"><ele>768.5</ele><time>2026-03-28T17:36:25.024Z</time></trkpt><trkpt lat="44.760345" lon="9.251365"><ele>767.0</ele><time>2026-03-28T17:36:26.024Z</time></trkpt><trkpt lat="44.76046" lon="9.2514433"><ele>765.5</ele><time>2026-03-28T17:36:27.024Z</time></trkpt><trkpt lat="44.7605867" lon="9.2515467"><ele>764.0</ele><time>2026-03-28T17:36:28.024Z</time></trkpt><trkpt lat="44.7607167" lon="9.2516833"><ele>764.0</ele><time>2026-03-28T17:36:29.024Z</time></trkpt><trkpt lat="44.76081" lon="9.2518133"><ele>764.0</ele><time>2026-03-28T17:36:30.024Z</time></trkpt><trkpt lat="44.7608267" lon="9.2519717"><ele>764.0</ele><time>2026-03-28T17:36:31.024Z</time></trkpt><trkpt lat="44.7608783" lon="9.252115"><ele>764.0</ele><time>2026-03-28T17:36:32.024Z</time></trkpt><trkpt lat="44.7609233" lon="9.2522817"><ele>765.25</ele><time>2026-03-28T17:36:33.024Z</time></trkpt><trkpt lat="44.7609683" lon="9.2524333"><ele>766.5</ele><time>2026-03-28T17:36:34.024Z</time></trkpt><trkpt lat="44.7610333" lon="9.2525633"><ele>767.75</ele><time>2026-03-28T17:36:35.024Z</time></trkpt><trkpt lat="44.761125" lon="9.2526867"><ele>769.0</ele><time>2026-03-28T17:36:36.024Z</time></trkpt><trkpt lat="44.7612267" lon="9.252785"><ele>766.25</ele><time>2026-03-28T17:36:37.024Z</time></trkpt><trkpt lat="44.761335" lon="9.2528667"><ele>763.5</ele><time>2026-03-28T17:36:38.024Z</time></trkpt><trkpt lat="44.7614417" lon="9.2529283"><ele>760.75</ele><time>2026-03-28T17:36:39.024Z</time></trkpt><trkpt lat="44.7615517" lon="9.2529717"><ele>758.0</ele><time>2026-03-28T17:36:40.024Z</time></trkpt><trkpt lat="44.7616717" lon="9.2529917"><ele>758.0</ele><time>2026-03-28T17:36:41.024Z</time></trkpt><trkpt lat="44.7617983" lon="9.2529617"><ele>758.0</ele><time>2026-03-28T17:36:42.024Z</time></trkpt><trkpt lat="44.7619217" lon="9.252905"><ele>758.0</ele><time>2026-03-28T17:36:43.024Z</time></trkpt><trkpt lat="44.7620333" lon="9.252835"><ele>758.0</ele><time>2026-03-28T17:36:44.024Z</time></trkpt><trkpt lat="44.7621483" lon="9.25274"><ele>759.5</ele><time>2026-03-28T17:36:45.024Z</time></trkpt><trkpt lat="44.7622567" lon="9.252625"><ele>761.0</ele><time>2026-03-28T17:36:46.024Z</time></trkpt><trkpt lat="44.7623567" lon="9.252495"><ele>762.5</ele><time>2026-03-28T17:36:47.024Z</time></trkpt><trkpt lat="44.7624583" lon="9.2523633"><ele>764.0</ele><time>2026-03-28T17:36:48.024Z</time></trkpt><trkpt lat="44.7625617" lon="9.2522333"><ele>762.25</ele><time>2026-03-28T17:36:49.024Z</time></trkpt><trkpt lat="44.7626583" lon="9.2520967"><ele>760.5</ele><time>2026-03-28T17:36:50.024Z</time></trkpt><trkpt lat="44.7627433" lon="9.2519633"><ele>758.75</ele><time>2026-03-28T17:36:51.024Z</time></trkpt><trkpt lat="44.76283" lon="9.2518567"><ele>757.0</ele><time>2026-03-28T17:36:52.024Z</time></trkpt><trkpt lat="44.762925" lon="9.25179"><ele>757.0</ele><time>2026-03-28T17:36:53.024Z</time></trkpt><trkpt lat="44.76303" lon="9.2517667"><ele>757.0</ele><time>2026-03-28T17:36:54.024Z</time></trkpt><trkpt lat="44.76314" lon="9.2517933"><ele>757.0</ele><time>2026-03-28T17:36:55.024Z</time></trkpt><trkpt lat="44.7632467" lon="9.2518667"><ele>757.0</ele><time>2026-03-28T17:36:56.024Z</time></trkpt><trkpt lat="44.7633533" lon="9.2519533"><ele>757.0</ele><time>2026-03-28T17:36:57.024Z</time></trkpt><trkpt lat="44.763465" lon="9.2520417"><ele>757.0</ele><time>2026-03-28T17:36:58.024Z</time></trkpt><trkpt lat="44.7635917" lon="9.25211"><ele>757.0</ele><time>2026-03-28T17:36:59.024Z</time></trkpt><trkpt lat="44.7637283" lon="9.2521567"><ele>757.0</ele><time>2026-03-28T17:37:00.024Z</time></trkpt><trkpt lat="44.7638633" lon="9.2521833"><ele>757.0</ele><time>2026-03-28T17:37:01.024Z</time></trkpt><trkpt lat="44.7639967" lon="9.25219"><ele>757.0</ele><time>2026-03-28T17:37:02.024Z</time></trkpt><trkpt lat="44.7641317" lon="9.252185"><ele>757.0</ele><time>2026-03-28T17:37:03.024Z</time></trkpt><trkpt lat="44.76427" lon="9.2521667"><ele>757.0</ele><time>2026-03-28T17:37:04.024Z</time></trkpt><trkpt lat="44.764405" lon="9.2521467"><ele>758.5</ele><time>2026-03-28T17:37:05.024Z</time></trkpt><trkpt lat="44.7645417" lon="9.2521467"><ele>760.0</ele><time>2026-03-28T17:37:06.024Z</time></trkpt><trkpt lat="44.7646767" lon="9.2521683"><ele>761.5</ele><time>2026-03-28T17:37:07.023Z</time></trkpt><trkpt lat="44.76481" lon="9.25221"><ele>763.0</ele><time>2026-03-28T17:37:08.024Z</time></trkpt><trkpt lat="44.7649483" lon="9.2522717"><ele>762.0</ele><time>2026-03-28T17:37:09.024Z</time></trkpt><trkpt lat="44.765085" lon="9.2523483"><ele>761.0</ele><time>2026-03-28T17:37:10.024Z</time></trkpt><trkpt lat="44.7652183" lon="9.2524283"><ele>760.0</ele><time>2026-03-28T17:37:11.024Z</time></trkpt><trkpt lat="44.7653467" lon="9.25251"><ele>759.0</ele><time>2026-03-28T17:37:12.023Z</time></trkpt><trkpt lat="44.7654767" lon="9.2525933"><ele>759.0</ele><time>2026-03-28T17:37:13.024Z</time></trkpt><trkpt lat="44.7655967" lon="9.2526767"><ele>759.0</ele><time>2026-03-28T17:37:14.024Z</time></trkpt><trkpt lat="44.7657167" lon="9.2527517"><ele>759.0</ele><time>2026-03-28T17:37:15.023Z</time></trkpt><trkpt lat="44.765835" lon="9.252825"><ele>759.0</ele><time>2026-03-28T17:37:16.023Z</time></trkpt><trkpt lat="44.7659467" lon="9.2529083"><ele>756.5</ele><time>2026-03-28T17:37:17.024Z</time></trkpt><trkpt lat="44.7660633" lon="9.2529883"><ele>754.0</ele><time>2026-03-28T17:37:18.024Z</time></trkpt><trkpt lat="44.766185" lon="9.2530933"><ele>751.5</ele><time>2026-03-28T17:37:19.023Z</time></trkpt><trkpt lat="44.76628" lon="9.2532083"><ele>749.0</ele><time>2026-03-28T17:37:20.023Z</time></trkpt><trkpt lat="44.7663767" lon="9.2533233"><ele>749.0</ele><time>2026-03-28T17:37:21.024Z</time></trkpt><trkpt lat="44.766455" lon="9.253475"><ele>749.0</ele><time>2026-03-28T17:37:22.024Z</time></trkpt><trkpt lat="44.766525" lon="9.2536367"><ele>749.0</ele><time>2026-03-28T17:37:23.024Z</time></trkpt><trkpt lat="44.7665883" lon="9.25381"><ele>749.0</ele><time>2026-03-28T17:37:24.024Z</time></trkpt><trkpt lat="44.76665" lon="9.2539917"><ele>752.25</ele><time>2026-03-28T17:37:25.024Z</time></trkpt><trkpt lat="44.7667067" lon="9.2541767"><ele>755.5</ele><time>2026-03-28T17:37:26.024Z</time></trkpt><trkpt lat="44.7667633" lon="9.2543633"><ele>758.75</ele><time>2026-03-28T17:37:27.023Z</time></trkpt><trkpt lat="44.7668167" lon="9.2545567"><ele>762.0</ele><time>2026-03-28T17:37:28.023Z</time></trkpt><trkpt lat="44.7668667" lon="9.25475"><ele>751.6666666666666</ele><time>2026-03-28T17:37:29.025Z</time></trkpt><trkpt lat="44.7669083" lon="9.2549483"><ele>741.3333333333333</ele><time>2026-03-28T17:37:30.025Z</time></trkpt><trkpt lat="44.766945" lon="9.2551567"><ele>731.0</ele><time>2026-03-28T17:37:31.025Z</time></trkpt><trkpt lat="44.7669767" lon="9.255365"><ele>731.0</ele><time>2026-03-28T17:37:32.025Z</time></trkpt><trkpt lat="44.7670067" lon="9.2555717"><ele>731.0</ele><time>2026-03-28T17:37:33.025Z</time></trkpt><trkpt lat="44.767035" lon="9.2557783"><ele>731.0</ele><time>2026-03-28T17:37:34.025Z</time></trkpt><trkpt lat="44.7670617" lon="9.2559817"><ele>731.0</ele><time>2026-03-28T17:37:35.025Z</time></trkpt><trkpt lat="44.767085" lon="9.2561833"><ele>731.5</ele><time>2026-03-28T17:37:36.025Z</time></trkpt><trkpt lat="44.7671117" lon="9.256375"><ele>732.0</ele><time>2026-03-28T17:37:37.025Z</time></trkpt><trkpt lat="44.7671467" lon="9.2565567"><ele>732.5</ele><time>2026-03-28T17:37:38.025Z</time></trkpt><trkpt lat="44.767195" lon="9.2567167"><ele>733.0</ele><time>2026-03-28T17:37:39.024Z</time></trkpt><trkpt lat="44.76725" lon="9.2568467"><ele>734.0</ele><time>2026-03-28T17:37:40.025Z</time></trkpt><trkpt lat="44.7673083" lon="9.2569533"><ele>735.0</ele><time>2026-03-28T17:37:41.025Z</time></trkpt><trkpt lat="44.76739" lon="9.2570567"><ele>736.0</ele><time>2026-03-28T17:37:42.025Z</time></trkpt><trkpt lat="44.7674883" lon="9.2571583"><ele>737.0</ele><time>2026-03-28T17:37:43.024Z</time></trkpt><trkpt lat="44.7676017" lon="9.257255"><ele>732.0</ele><time>2026-03-28T17:37:44.025Z</time></trkpt><trkpt lat="44.7677017" lon="9.2573633"><ele>727.0</ele><time>2026-03-28T17:37:45.025Z</time></trkpt><trkpt lat="44.767785" lon="9.257485"><ele>722.0</ele><time>2026-03-28T17:37:46.025Z</time></trkpt><trkpt lat="44.7678533" lon="9.2576217"><ele>717.0</ele><time>2026-03-28T17:37:47.024Z</time></trkpt><trkpt lat="44.7678967" lon="9.25777"><ele>717.0</ele><time>2026-03-28T17:37:48.025Z</time></trkpt><trkpt lat="44.7679017" lon="9.2579183"><ele>717.0</ele><time>2026-03-28T17:37:49.025Z</time></trkpt><trkpt lat="44.7679" lon="9.2580933"><ele>717.0</ele><time>2026-03-28T17:37:50.025Z</time></trkpt><trkpt lat="44.7678933" lon="9.2582733"><ele>717.0</ele><time>2026-03-28T17:37:51.025Z</time></trkpt><trkpt lat="44.7678783" lon="9.258455"><ele>717.0</ele><time>2026-03-28T17:37:52.025Z</time></trkpt><trkpt lat="44.7678767" lon="9.2586267"><ele>717.0</ele><time>2026-03-28T17:37:53.025Z</time></trkpt><trkpt lat="44.767885" lon="9.2587767"><ele>717.0</ele><time>2026-03-28T17:37:54.025Z</time></trkpt><trkpt lat="44.767915" lon="9.258915"><ele>717.0</ele><time>2026-03-28T17:37:55.025Z</time></trkpt><trkpt lat="44.7679617" lon="9.25905"><ele>717.0</ele><time>2026-03-28T17:37:56.025Z</time></trkpt><trkpt lat="44.7680167" lon="9.2591783"><ele>718.5</ele><time>2026-03-28T17:37:57.024Z</time></trkpt><trkpt lat="44.768075" lon="9.25929"><ele>720.0</ele><time>2026-03-28T17:37:58.024Z</time></trkpt><trkpt lat="44.7681367" lon="9.25938"><ele>721.5</ele><time>2026-03-28T17:37:59.025Z</time></trkpt><trkpt lat="44.7682067" lon="9.2594467"><ele>723.0</ele><time>2026-03-28T17:38:00.025Z</time></trkpt><trkpt lat="44.76828" lon="9.2594767"><ele>724.5</ele><time>2026-03-28T17:38:01.025Z</time></trkpt><trkpt lat="44.7683667" lon="9.2594683"><ele>726.0</ele><time>2026-03-28T17:38:02.024Z</time></trkpt><trkpt lat="44.7684667" lon="9.2594267"><ele>727.25</ele><time>2026-03-28T17:38:03.024Z</time></trkpt><trkpt lat="44.7685833" lon="9.259355"><ele>728.5</ele><time>2026-03-28T17:38:04.025Z</time></trkpt><trkpt lat="44.7686917" lon="9.2593167"><ele>729.75</ele><time>2026-03-28T17:38:05.025Z</time></trkpt><trkpt lat="44.768805" lon="9.2593"><ele>731.0</ele><time>2026-03-28T17:38:06.025Z</time></trkpt><trkpt lat="44.7689283" lon="9.259325"><ele>731.0</ele><time>2026-03-28T17:38:07.025Z</time></trkpt><trkpt lat="44.7690583" lon="9.2593483"><ele>731.0</ele><time>2026-03-28T17:38:08.025Z</time></trkpt><trkpt lat="44.7691833" lon="9.2593583"><ele>731.0</ele><time>2026-03-28T17:38:09.025Z</time></trkpt><trkpt lat="44.7693083" lon="9.2593467"><ele>731.0</ele><time>2026-03-28T17:38:10.025Z</time></trkpt><trkpt lat="44.7694283" lon="9.2593183"><ele>732.75</ele><time>2026-03-28T17:38:11.025Z</time></trkpt><trkpt lat="44.76954" lon="9.259265"><ele>734.5</ele><time>2026-03-28T17:38:12.025Z</time></trkpt><trkpt lat="44.7696417" lon="9.2591933"><ele>736.25</ele><time>2026-03-28T17:38:13.025Z</time></trkpt><trkpt lat="44.7697417" lon="9.259105"><ele>738.0</ele><time>2026-03-28T17:38:14.025Z</time></trkpt><trkpt lat="44.7698367" lon="9.259015"><ele>737.8</ele><time>2026-03-28T17:38:15.025Z</time></trkpt><trkpt lat="44.76992" lon="9.2589183"><ele>737.5999999999999</ele><time>2026-03-28T17:38:16.025Z</time></trkpt><trkpt lat="44.7699817" lon="9.25881"><ele>737.4000000000001</ele><time>2026-03-28T17:38:17.025Z</time></trkpt><trkpt lat="44.7700217" lon="9.258695"><ele>737.2</ele><time>2026-03-28T17:38:18.025Z</time></trkpt><trkpt lat="44.7700317" lon="9.2585717"><ele>737.0</ele><time>2026-03-28T17:38:19.025Z</time></trkpt><trkpt lat="44.7700133" lon="9.2584283"><ele>737.0</ele><time>2026-03-28T17:38:20.025Z</time></trkpt><trkpt lat="44.7699883" lon="9.25829"><ele>737.0</ele><time>2026-03-28T17:38:21.025Z</time></trkpt><trkpt lat="44.7699733" lon="9.2581517"><ele>737.0</ele><time>2026-03-28T17:38:22.024Z</time></trkpt><trkpt lat="44.7699667" lon="9.2580083"><ele>737.0</ele><time>2026-03-28T17:38:23.025Z</time></trkpt><trkpt lat="44.7699767" lon="9.2578633"><ele>737.0</ele><time>2026-03-28T17:38:24.025Z</time></trkpt><trkpt lat="44.770015" lon="9.2577117"><ele>735.25</ele><time>2026-03-28T17:38:25.025Z</time></trkpt><trkpt lat="44.770075" lon="9.2575633"><ele>733.5</ele><time>2026-03-28T17:38:26.025Z</time></trkpt><trkpt lat="44.77015" lon="9.25742"><ele>731.75</ele><time>2026-03-28T17:38:27.025Z</time></trkpt><trkpt lat="44.770245" lon="9.2572917"><ele>730.0</ele><time>2026-03-28T17:38:28.025Z</time></trkpt><trkpt lat="44.77036" lon="9.2571883"><ele>730.0</ele><time>2026-03-28T17:38:29.025Z</time></trkpt><trkpt lat="44.7704767" lon="9.257075"><ele>730.0</ele><time>2026-03-28T17:38:30.025Z</time></trkpt><trkpt lat="44.77059" lon="9.2569617"><ele>730.0</ele><time>2026-03-28T17:38:31.025Z</time></trkpt><trkpt lat="44.770695" lon="9.2568583"><ele>730.0</ele><time>2026-03-28T17:38:32.025Z</time></trkpt><trkpt lat="44.7707967" lon="9.2567717"><ele>730.0</ele><time>2026-03-28T17:38:33.025Z</time></trkpt><trkpt lat="44.7708983" lon="9.2567283"><ele>730.0</ele><time>2026-03-28T17:38:34.025Z</time></trkpt><trkpt lat="44.7710083" lon="9.2567117"><ele>730.0</ele><time>2026-03-28T17:38:35.025Z</time></trkpt><trkpt lat="44.7711183" lon="9.2567283"><ele>730.0</ele><time>2026-03-28T17:38:36.025Z</time></trkpt><trkpt lat="44.7712383" lon="9.256795"><ele>730.0</ele><time>2026-03-28T17:38:37.025Z</time></trkpt><trkpt lat="44.7713683" lon="9.2568867"><ele>730.0</ele><time>2026-03-28T17:38:38.025Z</time></trkpt><trkpt lat="44.771495" lon="9.2569717"><ele>730.0</ele><time>2026-03-28T17:38:39.025Z</time></trkpt><trkpt lat="44.771615" lon="9.2570317"><ele>730.0</ele><time>2026-03-28T17:38:40.025Z</time></trkpt><trkpt lat="44.7717367" lon="9.2570683"><ele>730.0</ele><time>2026-03-28T17:38:41.025Z</time></trkpt><trkpt lat="44.771865" lon="9.2570767"><ele>730.0</ele><time>2026-03-28T17:38:42.025Z</time></trkpt><trkpt lat="44.772005" lon="9.2570667"><ele>730.0</ele><time>2026-03-28T17:38:43.025Z</time></trkpt><trkpt lat="44.7721417" lon="9.2570417"><ele>730.0</ele><time>2026-03-28T17:38:44.024Z</time></trkpt><trkpt lat="44.77227" lon="9.2570217"><ele>730.0</ele><time>2026-03-28T17:38:45.025Z</time></trkpt><trkpt lat="44.7723983" lon="9.2570083"><ele>730.0</ele><time>2026-03-28T17:38:46.025Z</time></trkpt><trkpt lat="44.772525" lon="9.257005"><ele>730.0</ele><time>2026-03-28T17:38:47.025Z</time></trkpt><trkpt lat="44.7726417" lon="9.2569983"><ele>730.0</ele><time>2026-03-28T17:38:48.024Z</time></trkpt><trkpt lat="44.772755" lon="9.25703"><ele>729.0</ele><time>2026-03-28T17:38:49.025Z</time></trkpt><trkpt lat="44.772875" lon="9.2570933"><ele>728.0</ele><time>2026-03-28T17:38:50.025Z</time></trkpt><trkpt lat="44.7730033" lon="9.2571633"><ele>727.0</ele><time>2026-03-28T17:38:51.025Z</time></trkpt><trkpt lat="44.7731417" lon="9.25722"><ele>726.0</ele><time>2026-03-28T17:38:52.025Z</time></trkpt><trkpt lat="44.7732833" lon="9.257265"><ele>729.0</ele><time>2026-03-28T17:38:53.025Z</time></trkpt><trkpt lat="44.7734233" lon="9.2573067"><ele>732.0</ele><time>2026-03-28T17:38:54.024Z</time></trkpt><trkpt lat="44.7735617" lon="9.2573383"><ele>735.0</ele><time>2026-03-28T17:38:55.025Z</time></trkpt><trkpt lat="44.77369" lon="9.2573533"><ele>738.0</ele><time>2026-03-28T17:38:56.025Z</time></trkpt><trkpt lat="44.77381" lon="9.2573517"><ele>738.0</ele><time>2026-03-28T17:38:57.024Z</time></trkpt><trkpt lat="44.7739167" lon="9.2573267"><ele>738.0</ele><time>2026-03-28T17:38:58.025Z</time></trkpt><trkpt lat="44.7740083" lon="9.2572917"><ele>738.0</ele><time>2026-03-28T17:38:59.025Z</time></trkpt><trkpt lat="44.7740917" lon="9.2572267"><ele>738.0</ele><time>2026-03-28T17:39:00.025Z</time></trkpt><trkpt lat="44.7741667" lon="9.2571533"><ele>738.0</ele><time>2026-03-28T17:39:01.025Z</time></trkpt><trkpt lat="44.77423" lon="9.257075"><ele>737.2</ele><time>2026-03-28T17:39:02.024Z</time></trkpt><trkpt lat="44.7742833" lon="9.256985"><ele>736.4</ele><time>2026-03-28T17:39:03.025Z</time></trkpt><trkpt lat="44.77432" lon="9.2568783"><ele>735.6</ele><time>2026-03-28T17:39:04.025Z</time></trkpt><trkpt lat="44.77434" lon="9.256755"><ele>734.8000000000001</ele><time>2026-03-28T17:39:05.025Z</time></trkpt><trkpt lat="44.77435" lon="9.25662"><ele>734.0</ele><time>2026-03-28T17:39:06.025Z</time></trkpt><trkpt lat="44.774345" lon="9.2564617"><ele>733.0</ele><time>2026-03-28T17:39:07.025Z</time></trkpt><trkpt lat="44.7743233" lon="9.256275"><ele>732.0</ele><time>2026-03-28T17:39:08.025Z</time></trkpt><trkpt lat="44.7743083" lon="9.2561033"><ele>731.0</ele><time>2026-03-28T17:39:09.025Z</time></trkpt><trkpt lat="44.774285" lon="9.255915"><ele>730.0</ele><time>2026-03-28T17:39:10.025Z</time></trkpt><trkpt lat="44.7742617" lon="9.2557317"><ele>730.0</ele><time>2026-03-28T17:39:11.024Z</time></trkpt><trkpt lat="44.7742217" lon="9.2555417"><ele>730.0</ele><time>2026-03-28T17:39:12.025Z</time></trkpt><trkpt lat="44.7741883" lon="9.2553617"><ele>730.0</ele><time>2026-03-28T17:39:13.025Z</time></trkpt><trkpt lat="44.774155" lon="9.25519"><ele>730.0</ele><time>2026-03-28T17:39:14.025Z</time></trkpt><trkpt lat="44.774145" lon="9.2550267"><ele>730.0</ele><time>2026-03-28T17:39:15.025Z</time></trkpt><trkpt lat="44.774175" lon="9.2548783"><ele>730.0</ele><time>2026-03-28T17:39:16.025Z</time></trkpt><trkpt lat="44.7742133" lon="9.2547267"><ele>730.0</ele><time>2026-03-28T17:39:17.025Z</time></trkpt><trkpt lat="44.7742733" lon="9.2545967"><ele>730.0</ele><time>2026-03-28T17:39:18.025Z</time></trkpt><trkpt lat="44.7743233" lon="9.2544583"><ele>730.0</ele><time>2026-03-28T17:39:19.024Z</time></trkpt><trkpt lat="44.77436" lon="9.25432"><ele>732.6</ele><time>2026-03-28T17:39:20.025Z</time></trkpt><trkpt lat="44.7743833" lon="9.2541733"><ele>735.2</ele><time>2026-03-28T17:39:21.025Z</time></trkpt><trkpt lat="44.7743917" lon="9.254025"><ele>737.8</ele><time>2026-03-28T17:39:22.025Z</time></trkpt><trkpt lat="44.7744017" lon="9.2538783"><ele>740.4</ele><time>2026-03-28T17:39:23.024Z</time></trkpt><trkpt lat="44.7743917" lon="9.2537217"><ele>743.0</ele><time>2026-03-28T17:39:24.024Z</time></trkpt><trkpt lat="44.7743883" lon="9.2535733"><ele>743.0</ele><time>2026-03-28T17:39:25.025Z</time></trkpt><trkpt lat="44.77439" lon="9.25342"><ele>743.0</ele><time>2026-03-28T17:39:26.025Z</time></trkpt><trkpt lat="44.7743933" lon="9.25327"><ele>743.0</ele><time>2026-03-28T17:39:27.025Z</time></trkpt><trkpt lat="44.7744117" lon="9.253115"><ele>743.0</ele><time>2026-03-28T17:39:28.025Z</time></trkpt><trkpt lat="44.7744333" lon="9.2529467"><ele>743.0</ele><time>2026-03-28T17:39:29.025Z</time></trkpt><trkpt lat="44.7744717" lon="9.2527783"><ele>742.0</ele><time>2026-03-28T17:39:30.025Z</time></trkpt><trkpt lat="44.7745233" lon="9.2526117"><ele>741.0</ele><time>2026-03-28T17:39:31.025Z</time></trkpt><trkpt lat="44.7745933" lon="9.2524567"><ele>740.0</ele><time>2026-03-28T17:39:32.025Z</time></trkpt><trkpt lat="44.774685" lon="9.2523183"><ele>739.0</ele><time>2026-03-28T17:39:33.024Z</time></trkpt><trkpt lat="44.7748067" lon="9.2522217"><ele>738.0</ele><time>2026-03-28T17:39:34.024Z</time></trkpt><trkpt lat="44.7749133" lon="9.2521183"><ele>737.0</ele><time>2026-03-28T17:39:35.025Z</time></trkpt><trkpt lat="44.7750017" lon="9.252015"><ele>736.0</ele><time>2026-03-28T17:39:36.025Z</time></trkpt><trkpt lat="44.7751067" lon="9.251945"><ele>735.0</ele><time>2026-03-28T17:39:37.025Z</time></trkpt><trkpt lat="44.775215" lon="9.2519083"><ele>735.0</ele><time>2026-03-28T17:39:38.025Z</time></trkpt><trkpt lat="44.7753283" lon="9.2518717"><ele>735.0</ele><time>2026-03-28T17:39:39.025Z</time></trkpt><trkpt lat="44.7754417" lon="9.25182"><ele>735.0</ele><time>2026-03-28T17:39:40.025Z</time></trkpt><trkpt lat="44.77556" lon="9.2517583"><ele>735.0</ele><time>2026-03-28T17:39:41.025Z</time></trkpt><trkpt lat="44.77567" lon="9.2516733"><ele>735.0</ele><time>2026-03-28T17:39:42.025Z</time></trkpt><trkpt lat="44.7757783" lon="9.25159"><ele>735.0</ele><time>2026-03-28T17:39:43.025Z</time></trkpt><trkpt lat="44.7758817" lon="9.2514967"><ele>735.0</ele><time>2026-03-28T17:39:44.024Z</time></trkpt><trkpt lat="44.7759883" lon="9.2514017"><ele>735.0</ele><time>2026-03-28T17:39:45.025Z</time></trkpt><trkpt lat="44.7760983" lon="9.2513083"><ele>734.25</ele><time>2026-03-28T17:39:46.025Z</time></trkpt><trkpt lat="44.7761883" lon="9.2511783"><ele>733.5</ele><time>2026-03-28T17:39:47.025Z</time></trkpt><trkpt lat="44.776275" lon="9.2510417"><ele>732.75</ele><time>2026-03-28T17:39:48.024Z</time></trkpt><trkpt lat="44.77635" lon="9.2509067"><ele>732.0</ele><time>2026-03-28T17:39:49.025Z</time></trkpt><trkpt lat="44.7764283" lon="9.25079"><ele>732.0</ele><time>2026-03-28T17:39:50.025Z</time></trkpt><trkpt lat="44.776515" lon="9.2507033"><ele>732.0</ele><time>2026-03-28T17:39:51.025Z</time></trkpt><trkpt lat="44.7766017" lon="9.2506467"><ele>732.0</ele><time>2026-03-28T17:39:52.024Z</time></trkpt><trkpt lat="44.7766967" lon="9.2506283"><ele>732.0</ele><time>2026-03-28T17:39:53.025Z</time></trkpt><trkpt lat="44.77681" lon="9.25064"><ele>732.0</ele><time>2026-03-28T17:39:54.024Z</time></trkpt><trkpt lat="44.7769267" lon="9.2506567"><ele>733.25</ele><time>2026-03-28T17:39:55.025Z</time></trkpt><trkpt lat="44.777045" lon="9.250655"><ele>734.5</ele><time>2026-03-28T17:39:56.025Z</time></trkpt><trkpt lat="44.7771583" lon="9.2506217"><ele>735.75</ele><time>2026-03-28T17:39:57.025Z</time></trkpt><trkpt lat="44.7772783" lon="9.2505617"><ele>737.0</ele><time>2026-03-28T17:39:58.025Z</time></trkpt><trkpt lat="44.7774" lon="9.2504883"><ele>738.0</ele><time>2026-03-28T17:39:59.024Z</time></trkpt><trkpt lat="44.77752" lon="9.250405"><ele>739.0</ele><time>2026-03-28T17:40:00.025Z</time></trkpt><trkpt lat="44.777625" lon="9.25032"><ele>740.0</ele><time>2026-03-28T17:40:01.025Z</time></trkpt><trkpt lat="44.777725" lon="9.2502167"><ele>741.0</ele><time>2026-03-28T17:40:02.025Z</time></trkpt><trkpt lat="44.7778133" lon="9.250085"><ele>741.0</ele><time>2026-03-28T17:40:03.025Z</time></trkpt><trkpt lat="44.77789" lon="9.249935"><ele>741.0</ele><time>2026-03-28T17:40:04.025Z</time></trkpt><trkpt lat="44.77797" lon="9.249775"><ele>741.0</ele><time>2026-03-28T17:40:05.025Z</time></trkpt><trkpt lat="44.77805" lon="9.249615"><ele>741.0</ele><time>2026-03-28T17:40:06.025Z</time></trkpt><trkpt lat="44.7781233" lon="9.24947"><ele>738.5</ele><time>2026-03-28T17:40:07.025Z</time></trkpt><trkpt lat="44.77818" lon="9.24932"><ele>736.0</ele><time>2026-03-28T17:40:08.025Z</time></trkpt><trkpt lat="44.7782167" lon="9.249155"><ele>733.5</ele><time>2026-03-28T17:40:09.025Z</time></trkpt><trkpt lat="44.77824" lon="9.24899"><ele>731.0</ele><time>2026-03-28T17:40:10.024Z</time></trkpt><trkpt lat="44.7782683" lon="9.248835"><ele>729.5999999999999</ele><time>2026-03-28T17:40:11.024Z</time></trkpt><trkpt lat="44.778315" lon="9.2487067"><ele>728.2</ele><time>2026-03-28T17:40:12.024Z</time></trkpt><trkpt lat="44.778385" lon="9.2486117"><ele>726.8</ele><time>2026-03-28T17:40:13.024Z</time></trkpt><trkpt lat="44.7784617" lon="9.2485483"><ele>725.4000000000001</ele><time>2026-03-28T17:40:14.024Z</time></trkpt><trkpt lat="44.7785483" lon="9.2485017"><ele>724.0</ele><time>2026-03-28T17:40:15.025Z</time></trkpt><trkpt lat="44.778625" lon="9.2484533"><ele>724.0</ele><time>2026-03-28T17:40:16.025Z</time></trkpt><trkpt lat="44.77868" lon="9.248385"><ele>724.0</ele><time>2026-03-28T17:40:17.025Z</time></trkpt><trkpt lat="44.7787" lon="9.2482117"><ele>724.0</ele><time>2026-03-28T17:40:19.025Z</time></trkpt><trkpt lat="44.778665" lon="9.2481317"><ele>724.0</ele><time>2026-03-28T17:40:20.025Z</time></trkpt><trkpt lat="44.7785983" lon="9.2480717"><ele>724.0</ele><time>2026-03-28T17:40:21.025Z</time></trkpt><trkpt lat="44.7785017" lon="9.2480817"><ele>724.0</ele><time>2026-03-28T17:40:22.025Z</time></trkpt><trkpt lat="44.7784017" lon="9.2481383"><ele>722.0</ele><time>2026-03-28T17:40:23.025Z</time></trkpt><trkpt lat="44.7783083" lon="9.2482233"><ele>720.0</ele><time>2026-03-28T17:40:24.025Z</time></trkpt><trkpt lat="44.7782183" lon="9.24832"><ele>718.0</ele><time>2026-03-28T17:40:25.025Z</time></trkpt><trkpt lat="44.7781233" lon="9.24844"><ele>716.0</ele><time>2026-03-28T17:40:26.025Z</time></trkpt><trkpt lat="44.778025" lon="9.2485617"><ele>716.0</ele><time>2026-03-28T17:40:27.025Z</time></trkpt><trkpt lat="44.7779267" lon="9.248675"><ele>716.0</ele><time>2026-03-28T17:40:28.025Z</time></trkpt><trkpt lat="44.7778267" lon="9.248765"><ele>716.0</ele><time>2026-03-28T17:40:29.025Z</time></trkpt><trkpt lat="44.7777233" lon="9.2488417"><ele>716.0</ele><time>2026-03-28T17:40:30.025Z</time></trkpt><trkpt lat="44.7776183" lon="9.2489117"><ele>715.5999999999999</ele><time>2026-03-28T17:40:31.024Z</time></trkpt><trkpt lat="44.7775183" lon="9.2489817"><ele>715.2</ele><time>2026-03-28T17:40:32.025Z</time></trkpt><trkpt lat="44.7774217" lon="9.2490467"><ele>714.8</ele><time>2026-03-28T17:40:33.025Z</time></trkpt><trkpt lat="44.7773233" lon="9.2490883"><ele>714.4000000000001</ele><time>2026-03-28T17:40:34.025Z</time></trkpt><trkpt lat="44.777235" lon="9.2490883"><ele>714.0</ele><time>2026-03-28T17:40:35.025Z</time></trkpt><trkpt lat="44.7771567" lon="9.2490667"><ele>714.0</ele><time>2026-03-28T17:40:36.025Z</time></trkpt><trkpt lat="44.777095" lon="9.249015"><ele>714.0</ele><time>2026-03-28T17:40:37.025Z</time></trkpt><trkpt lat="44.7770633" lon="9.2489383"><ele>714.0</ele><time>2026-03-28T17:40:38.025Z</time></trkpt><trkpt lat="44.7770583" lon="9.24884"><ele>714.0</ele><time>2026-03-28T17:40:39.025Z</time></trkpt><trkpt lat="44.777105" lon="9.2487283"><ele>714.0</ele><time>2026-03-28T17:40:40.025Z</time></trkpt><trkpt lat="44.7771883" lon="9.24863"><ele>714.0</ele><time>2026-03-28T17:40:41.025Z</time></trkpt><trkpt lat="44.7773083" lon="9.248545"><ele>714.5</ele><time>2026-03-28T17:40:42.025Z</time></trkpt><trkpt lat="44.7774283" lon="9.248465"><ele>715.0</ele><time>2026-03-28T17:40:43.025Z</time></trkpt><trkpt lat="44.777565" lon="9.2483833"><ele>715.5</ele><time>2026-03-28T17:40:44.024Z</time></trkpt><trkpt lat="44.777705" lon="9.2482683"><ele>716.0</ele><time>2026-03-28T17:40:45.025Z</time></trkpt><trkpt lat="44.7778117" lon="9.2481533"><ele>712.75</ele><time>2026-03-28T17:40:46.024Z</time></trkpt><trkpt lat="44.7779" lon="9.248035"><ele>709.5</ele><time>2026-03-28T17:40:47.025Z</time></trkpt><trkpt lat="44.7779683" lon="9.2479017"><ele>706.25</ele><time>2026-03-28T17:40:48.025Z</time></trkpt><trkpt lat="44.7780333" lon="9.2477733"><ele>703.0</ele><time>2026-03-28T17:40:49.025Z</time></trkpt><trkpt lat="44.7781" lon="9.2476433"><ele>703.0</ele><time>2026-03-28T17:40:50.025Z</time></trkpt><trkpt lat="44.7781633" lon="9.2475183"><ele>703.0</ele><time>2026-03-28T17:40:51.025Z</time></trkpt><trkpt lat="44.7782267" lon="9.2473917"><ele>703.0</ele><time>2026-03-28T17:40:52.025Z</time></trkpt><trkpt lat="44.778285" lon="9.247265"><ele>703.0</ele><time>2026-03-28T17:40:53.025Z</time></trkpt><trkpt lat="44.778345" lon="9.24714"><ele>703.0</ele><time>2026-03-28T17:40:54.024Z</time></trkpt><trkpt lat="44.7784133" lon="9.247025"><ele>701.5999999999999</ele><time>2026-03-28T17:40:55.025Z</time></trkpt><trkpt lat="44.778485" lon="9.2469067"><ele>700.1999999999999</ele><time>2026-03-28T17:40:56.025Z</time></trkpt><trkpt lat="44.7785683" lon="9.2468067"><ele>698.8</ele><time>2026-03-28T17:40:57.024Z</time></trkpt><trkpt lat="44.77865" lon="9.2467267"><ele>697.4</ele><time>2026-03-28T17:40:58.024Z</time></trkpt><trkpt lat="44.7787417" lon="9.2466717"><ele>696.0</ele><time>2026-03-28T17:40:59.025Z</time></trkpt><trkpt lat="44.778855" lon="9.2466267"><ele>696.0</ele><time>2026-03-28T17:41:00.025Z</time></trkpt><trkpt lat="44.778985" lon="9.2465617"><ele>696.0</ele><time>2026-03-28T17:41:01.025Z</time></trkpt><trkpt lat="44.7791233" lon="9.24648"><ele>696.0</ele><time>2026-03-28T17:41:02.025Z</time></trkpt><trkpt lat="44.7792467" lon="9.2463983"><ele>696.0</ele><time>2026-03-28T17:41:03.025Z</time></trkpt><trkpt lat="44.77936" lon="9.2463417"><ele>691.75</ele><time>2026-03-28T17:41:04.025Z</time></trkpt><trkpt lat="44.77947" lon="9.2462683"><ele>687.5</ele><time>2026-03-28T17:41:05.025Z</time></trkpt><trkpt lat="44.779585" lon="9.2462017"><ele>683.25</ele><time>2026-03-28T17:41:06.025Z</time></trkpt><trkpt lat="44.77972" lon="9.246145"><ele>679.0</ele><time>2026-03-28T17:41:07.025Z</time></trkpt><trkpt lat="44.7798317" lon="9.2460767"><ele>679.0</ele><time>2026-03-28T17:41:08.025Z</time></trkpt><trkpt lat="44.7799533" lon="9.24603"><ele>679.0</ele><time>2026-03-28T17:41:09.025Z</time></trkpt><trkpt lat="44.780085" lon="9.2459717"><ele>679.0</ele><time>2026-03-28T17:41:10.025Z</time></trkpt><trkpt lat="44.7802083" lon="9.2459233"><ele>679.0</ele><time>2026-03-28T17:41:11.025Z</time></trkpt><trkpt lat="44.7803283" lon="9.2458733"><ele>679.25</ele><time>2026-03-28T17:41:12.025Z</time></trkpt><trkpt lat="44.7804517" lon="9.245815"><ele>679.5</ele><time>2026-03-28T17:41:13.025Z</time></trkpt><trkpt lat="44.7805683" lon="9.2457583"><ele>679.75</ele><time>2026-03-28T17:41:14.024Z</time></trkpt><trkpt lat="44.7806833" lon="9.2456983"><ele>680.0</ele><time>2026-03-28T17:41:15.025Z</time></trkpt><trkpt lat="44.7807967" lon="9.2456517"><ele>680.0</ele><time>2026-03-28T17:41:16.025Z</time></trkpt><trkpt lat="44.7809017" lon="9.2456383"><ele>680.0</ele><time>2026-03-28T17:41:17.024Z</time></trkpt><trkpt lat="44.7810017" lon="9.2456517"><ele>680.0</ele><time>2026-03-28T17:41:18.025Z</time></trkpt><trkpt lat="44.7810983" lon="9.2457167"><ele>680.0</ele><time>2026-03-28T17:41:19.025Z</time></trkpt><trkpt lat="44.7812067" lon="9.2458017"><ele>680.0</ele><time>2026-03-28T17:41:20.025Z</time></trkpt><trkpt lat="44.781315" lon="9.2458517"><ele>679.25</ele><time>2026-03-28T17:41:21.025Z</time></trkpt><trkpt lat="44.7814283" lon="9.245875"><ele>678.5</ele><time>2026-03-28T17:41:22.025Z</time></trkpt><trkpt lat="44.781545" lon="9.2458367"><ele>677.75</ele><time>2026-03-28T17:41:23.024Z</time></trkpt><trkpt lat="44.7816683" lon="9.2457617"><ele>677.0</ele><time>2026-03-28T17:41:24.024Z</time></trkpt><trkpt lat="44.7817933" lon="9.245675"><ele>674.75</ele><time>2026-03-28T17:41:25.025Z</time></trkpt><trkpt lat="44.7819117" lon="9.24558"><ele>672.5</ele><time>2026-03-28T17:41:26.024Z</time></trkpt><trkpt lat="44.7820383" lon="9.2454917"><ele>670.25</ele><time>2026-03-28T17:41:27.025Z</time></trkpt><trkpt lat="44.7821517" lon="9.2453983"><ele>668.0</ele><time>2026-03-28T17:41:28.025Z</time></trkpt><trkpt lat="44.78225" lon="9.2452933"><ele>668.0</ele><time>2026-03-28T17:41:29.025Z</time></trkpt><trkpt lat="44.7823367" lon="9.2451667"><ele>668.0</ele><time>2026-03-28T17:41:30.025Z</time></trkpt><trkpt lat="44.78241" lon="9.24503"><ele>668.0</ele><time>2026-03-28T17:41:31.025Z</time></trkpt><trkpt lat="44.78247" lon="9.244875"><ele>668.0</ele><time>2026-03-28T17:41:32.025Z</time></trkpt><trkpt lat="44.7825267" lon="9.244715"><ele>668.25</ele><time>2026-03-28T17:41:33.025Z</time></trkpt><trkpt lat="44.7825783" lon="9.2445517"><ele>668.5</ele><time>2026-03-28T17:41:34.025Z</time></trkpt><trkpt lat="44.7826317" lon="9.2443833"><ele>668.75</ele><time>2026-03-28T17:41:35.025Z</time></trkpt><trkpt lat="44.7826833" lon="9.2442167"><ele>669.0</ele><time>2026-03-28T17:41:36.025Z</time></trkpt><trkpt lat="44.7827317" lon="9.2440583"><ele>665.75</ele><time>2026-03-28T17:41:37.025Z</time></trkpt><trkpt lat="44.7827833" lon="9.2438983"><ele>662.5</ele><time>2026-03-28T17:41:38.025Z</time></trkpt><trkpt lat="44.7828433" lon="9.2437583"><ele>659.25</ele><time>2026-03-28T17:41:39.025Z</time></trkpt><trkpt lat="44.78291" lon="9.2436383"><ele>656.0</ele><time>2026-03-28T17:41:40.025Z</time></trkpt><trkpt lat="44.782985" lon="9.24352"><ele>656.0</ele><time>2026-03-28T17:41:41.025Z</time></trkpt><trkpt lat="44.78307" lon="9.2434117"><ele>656.0</ele><time>2026-03-28T17:41:42.025Z</time></trkpt><trkpt lat="44.7831667" lon="9.2433233"><ele>656.0</ele><time>2026-03-28T17:41:43.025Z</time></trkpt><trkpt lat="44.7832767" lon="9.243255"><ele>656.0</ele><time>2026-03-28T17:41:44.025Z</time></trkpt><trkpt lat="44.783385" lon="9.243225"><ele>656.0</ele><time>2026-03-28T17:41:45.025Z</time></trkpt><trkpt lat="44.7835033" lon="9.2431967"><ele>656.0</ele><time>2026-03-28T17:41:46.025Z</time></trkpt><trkpt lat="44.7836217" lon="9.24317"><ele>656.0</ele><time>2026-03-28T17:41:47.025Z</time></trkpt><trkpt lat="44.7837367" lon="9.2431217"><ele>656.0</ele><time>2026-03-28T17:41:48.025Z</time></trkpt><trkpt lat="44.7838467" lon="9.24305"><ele>654.8</ele><time>2026-03-28T17:41:49.025Z</time></trkpt><trkpt lat="44.7839467" lon="9.2429583"><ele>653.5999999999999</ele><time>2026-03-28T17:41:50.025Z</time></trkpt><trkpt lat="44.78403" lon="9.2428467"><ele>652.4</ele><time>2026-03-28T17:41:51.025Z</time></trkpt><trkpt lat="44.7840967" lon="9.2427317"><ele>651.2</ele><time>2026-03-28T17:41:52.025Z</time></trkpt><trkpt lat="44.78413" lon="9.2425983"><ele>650.0</ele><time>2026-03-28T17:41:53.025Z</time></trkpt><trkpt lat="44.7841217" lon="9.2424233"><ele>648.2</ele><time>2026-03-28T17:41:54.025Z</time></trkpt><trkpt lat="44.78412" lon="9.24226"><ele>646.4</ele><time>2026-03-28T17:41:55.025Z</time></trkpt><trkpt lat="44.784135" lon="9.242105"><ele>644.5999999999999</ele><time>2026-03-28T17:41:56.025Z</time></trkpt><trkpt lat="44.78417" lon="9.2419583"><ele>642.8</ele><time>2026-03-28T17:41:57.025Z</time></trkpt><trkpt lat="44.78423" lon="9.2418383"><ele>641.0</ele><time>2026-03-28T17:41:58.025Z</time></trkpt><trkpt lat="44.7843267" lon="9.2417583"><ele>642.0</ele><time>2026-03-28T17:41:59.025Z</time></trkpt><trkpt lat="44.7844383" lon="9.2416983"><ele>643.0</ele><time>2026-03-28T17:42:00.025Z</time></trkpt><trkpt lat="44.784565" lon="9.2416417"><ele>644.0</ele><time>2026-03-28T17:42:01.025Z</time></trkpt><trkpt lat="44.7846867" lon="9.241575"><ele>645.0</ele><time>2026-03-28T17:42:02.024Z</time></trkpt><trkpt lat="44.7848117" lon="9.2415033"><ele>642.5</ele><time>2026-03-28T17:42:03.025Z</time></trkpt><trkpt lat="44.78493" lon="9.24144"><ele>640.0</ele><time>2026-03-28T17:42:04.025Z</time></trkpt><trkpt lat="44.7850467" lon="9.241375"><ele>637.5</ele><time>2026-03-28T17:42:05.025Z</time></trkpt><trkpt lat="44.785165" lon="9.2413033"><ele>635.0</ele><time>2026-03-28T17:42:06.025Z</time></trkpt><trkpt lat="44.7852783" lon="9.2412283"><ele>635.0</ele><time>2026-03-28T17:42:07.025Z</time></trkpt><trkpt lat="44.7853867" lon="9.2411383"><ele>635.0</ele><time>2026-03-28T17:42:08.025Z</time></trkpt><trkpt lat="44.7855" lon="9.2410367"><ele>635.0</ele><time>2026-03-28T17:42:09.025Z</time></trkpt><trkpt lat="44.7856183" lon="9.24092"><ele>635.0</ele><time>2026-03-28T17:42:10.025Z</time></trkpt><trkpt lat="44.7857267" lon="9.2407983"><ele>635.0</ele><time>2026-03-28T17:42:11.024Z</time></trkpt><trkpt lat="44.7858267" lon="9.2406783"><ele>635.0</ele><time>2026-03-28T17:42:12.025Z</time></trkpt><trkpt lat="44.78594" lon="9.240575"><ele>635.0</ele><time>2026-03-28T17:42:13.025Z</time></trkpt><trkpt lat="44.786055" lon="9.2404967"><ele>635.0</ele><time>2026-03-28T17:42:14.025Z</time></trkpt><trkpt lat="44.7861817" lon="9.2404483"><ele>632.5</ele><time>2026-03-28T17:42:15.024Z</time></trkpt><trkpt lat="44.7863083" lon="9.2403933"><ele>630.0</ele><time>2026-03-28T17:42:16.025Z</time></trkpt><trkpt lat="44.7864383" lon="9.2403417"><ele>627.5</ele><time>2026-03-28T17:42:17.025Z</time></trkpt><trkpt lat="44.7865717" lon="9.2402883"><ele>625.0</ele><time>2026-03-28T17:42:18.025Z</time></trkpt><trkpt lat="44.7867067" lon="9.2402283"><ele>625.0</ele><time>2026-03-28T17:42:19.025Z</time></trkpt><trkpt lat="44.78684" lon="9.2401833"><ele>625.0</ele><time>2026-03-28T17:42:20.024Z</time></trkpt><trkpt lat="44.786965" lon="9.2401333"><ele>625.0</ele><time>2026-03-28T17:42:21.025Z</time></trkpt><trkpt lat="44.7870933" lon="9.240035"><ele>625.0</ele><time>2026-03-28T17:42:22.025Z</time></trkpt><trkpt lat="44.7871967" lon="9.2399333"><ele>623.75</ele><time>2026-03-28T17:42:23.024Z</time></trkpt><trkpt lat="44.7872833" lon="9.2397867"><ele>622.5</ele><time>2026-03-28T17:42:24.025Z</time></trkpt><trkpt lat="44.7873583" lon="9.2396167"><ele>621.25</ele><time>2026-03-28T17:42:25.025Z</time></trkpt><trkpt lat="44.7874283" lon="9.2394483"><ele>620.0</ele><time>2026-03-28T17:42:26.025Z</time></trkpt><trkpt lat="44.7874917" lon="9.2392833"><ele>620.0</ele><time>2026-03-28T17:42:27.025Z</time></trkpt><trkpt lat="44.78755" lon="9.239125"><ele>620.0</ele><time>2026-03-28T17:42:28.025Z</time></trkpt><trkpt lat="44.7876017" lon="9.238995"><ele>620.0</ele><time>2026-03-28T17:42:29.025Z</time></trkpt><trkpt lat="44.7876583" lon="9.2388917"><ele>620.0</ele><time>2026-03-28T17:42:30.025Z</time></trkpt><trkpt lat="44.787715" lon="9.23881"><ele>620.0</ele><time>2026-03-28T17:42:31.025Z</time></trkpt><trkpt lat="44.78778" lon="9.23877"><ele>618.4</ele><time>2026-03-28T17:42:32.025Z</time></trkpt><trkpt lat="44.78787" lon="9.238795"><ele>616.8</ele><time>2026-03-28T17:42:33.025Z</time></trkpt><trkpt lat="44.7879717" lon="9.2388417"><ele>615.2</ele><time>2026-03-28T17:42:34.025Z</time></trkpt><trkpt lat="44.7880783" lon="9.2388817"><ele>613.6</ele><time>2026-03-28T17:42:35.025Z</time></trkpt><trkpt lat="44.7881817" lon="9.238885"><ele>612.0</ele><time>2026-03-28T17:42:36.025Z</time></trkpt><trkpt lat="44.7882833" lon="9.2388533"><ele>612.0</ele><time>2026-03-28T17:42:37.024Z</time></trkpt><trkpt lat="44.788385" lon="9.2388"><ele>612.0</ele><time>2026-03-28T17:42:38.025Z</time></trkpt><trkpt lat="44.788485" lon="9.2387383"><ele>612.0</ele><time>2026-03-28T17:42:39.025Z</time></trkpt><trkpt lat="44.78858" lon="9.2386817"><ele>612.0</ele><time>2026-03-28T17:42:40.025Z</time></trkpt><trkpt lat="44.7886783" lon="9.2385833"><ele>612.0</ele><time>2026-03-28T17:42:41.025Z</time></trkpt><trkpt lat="44.7887683" lon="9.2384817"><ele>611.25</ele><time>2026-03-28T17:42:42.025Z</time></trkpt><trkpt lat="44.788855" lon="9.23837"><ele>610.5</ele><time>2026-03-28T17:42:43.025Z</time></trkpt><trkpt lat="44.7889367" lon="9.2382433"><ele>609.75</ele><time>2026-03-28T17:42:44.024Z</time></trkpt><trkpt lat="44.7890167" lon="9.2381133"><ele>609.0</ele><time>2026-03-28T17:42:45.025Z</time></trkpt><trkpt lat="44.7890917" lon="9.2379767"><ele>609.0</ele><time>2026-03-28T17:42:46.025Z</time></trkpt><trkpt lat="44.7891533" lon="9.23783"><ele>609.0</ele><time>2026-03-28T17:42:47.025Z</time></trkpt><trkpt lat="44.789195" lon="9.237675"><ele>609.0</ele><time>2026-03-28T17:42:48.025Z</time></trkpt><trkpt lat="44.7892217" lon="9.23752"><ele>609.0</ele><time>2026-03-28T17:42:49.025Z</time></trkpt><trkpt lat="44.7892433" lon="9.237365"><ele>609.8</ele><time>2026-03-28T17:42:50.025Z</time></trkpt><trkpt lat="44.78927" lon="9.2372133"><ele>610.5999999999999</ele><time>2026-03-28T17:42:51.025Z</time></trkpt><trkpt lat="44.78931" lon="9.2370683"><ele>611.4</ele><time>2026-03-28T17:42:52.025Z</time></trkpt><trkpt lat="44.7893667" lon="9.236935"><ele>612.1999999999999</ele><time>2026-03-28T17:42:53.025Z</time></trkpt><trkpt lat="44.7894317" lon="9.23681"><ele>613.0</ele><time>2026-03-28T17:42:54.025Z</time></trkpt><trkpt lat="44.7895083" lon="9.23668"><ele>613.0</ele><time>2026-03-28T17:42:55.025Z</time></trkpt><trkpt lat="44.7896017" lon="9.2365717"><ele>613.0</ele><time>2026-03-28T17:42:56.025Z</time></trkpt><trkpt lat="44.7897133" lon="9.2364833"><ele>613.0</ele><time>2026-03-28T17:42:57.025Z</time></trkpt><trkpt lat="44.7898267" lon="9.2363767"><ele>613.0</ele><time>2026-03-28T17:42:58.025Z</time></trkpt><trkpt lat="44.7899233" lon="9.236275"><ele>613.0</ele><time>2026-03-28T17:42:59.025Z</time></trkpt><trkpt lat="44.7900167" lon="9.23615"><ele>613.0</ele><time>2026-03-28T17:43:00.025Z</time></trkpt><trkpt lat="44.7900967" lon="9.236005"><ele>613.0</ele><time>2026-03-28T17:43:01.025Z</time></trkpt><trkpt lat="44.79016" lon="9.2358417"><ele>613.0</ele><time>2026-03-28T17:43:02.025Z</time></trkpt><trkpt lat="44.79022" lon="9.235685"><ele>609.0</ele><time>2026-03-28T17:43:03.024Z</time></trkpt><trkpt lat="44.7902883" lon="9.235545"><ele>605.0</ele><time>2026-03-28T17:43:04.025Z</time></trkpt><trkpt lat="44.79037" lon="9.2354283"><ele>601.0</ele><time>2026-03-28T17:43:05.025Z</time></trkpt><trkpt lat="44.790465" lon="9.2353233"><ele>597.0</ele><time>2026-03-28T17:43:06.025Z</time></trkpt><trkpt lat="44.7905733" lon="9.2352217"><ele>597.0</ele><time>2026-03-28T17:43:07.025Z</time></trkpt><trkpt lat="44.7906883" lon="9.2351267"><ele>597.0</ele><time>2026-03-28T17:43:08.025Z</time></trkpt><trkpt lat="44.7908117" lon="9.2350467"><ele>597.0</ele><time>2026-03-28T17:43:09.025Z</time></trkpt><trkpt lat="44.7909267" lon="9.2349617"><ele>597.0</ele><time>2026-03-28T17:43:10.025Z</time></trkpt><trkpt lat="44.7910467" lon="9.2348817"><ele>594.0</ele><time>2026-03-28T17:43:11.025Z</time></trkpt><trkpt lat="44.7911617" lon="9.2347983"><ele>591.0</ele><time>2026-03-28T17:43:12.024Z</time></trkpt><trkpt lat="44.791275" lon="9.23473"><ele>588.0</ele><time>2026-03-28T17:43:13.025Z</time></trkpt><trkpt lat="44.7913767" lon="9.23468"><ele>585.0</ele><time>2026-03-28T17:43:14.026Z</time></trkpt><trkpt lat="44.79148" lon="9.23465"><ele>585.0</ele><time>2026-03-28T17:43:15.025Z</time></trkpt><trkpt lat="44.7915833" lon="9.23465"><ele>585.0</ele><time>2026-03-28T17:43:16.026Z</time></trkpt><trkpt lat="44.7916883" lon="9.2346667"><ele>585.0</ele><time>2026-03-28T17:43:17.026Z</time></trkpt><trkpt lat="44.7918067" lon="9.23475"><ele>585.0</ele><time>2026-03-28T17:43:18.026Z</time></trkpt><trkpt lat="44.7919167" lon="9.2348367"><ele>588.0</ele><time>2026-03-28T17:43:19.026Z</time></trkpt><trkpt lat="44.7920267" lon="9.234925"><ele>591.0</ele><time>2026-03-28T17:43:20.025Z</time></trkpt><trkpt lat="44.79213" lon="9.235"><ele>594.0</ele><time>2026-03-28T17:43:21.026Z</time></trkpt><trkpt lat="44.7922317" lon="9.2350433"><ele>597.0</ele><time>2026-03-28T17:43:22.026Z</time></trkpt><trkpt lat="44.79233" lon="9.2350517"><ele>600.0</ele><time>2026-03-28T17:43:23.026Z</time></trkpt><trkpt lat="44.7924167" lon="9.2350183"><ele>600.0</ele><time>2026-03-28T17:43:24.026Z</time></trkpt><trkpt lat="44.792505" lon="9.2349617"><ele>600.0</ele><time>2026-03-28T17:43:25.026Z</time></trkpt><trkpt lat="44.7925667" lon="9.2348767"><ele>600.0</ele><time>2026-03-28T17:43:26.026Z</time></trkpt><trkpt lat="44.7925933" lon="9.2347517"><ele>600.0</ele><time>2026-03-28T17:43:27.026Z</time></trkpt><trkpt lat="44.792595" lon="9.23459"><ele>600.0</ele><time>2026-03-28T17:43:28.026Z</time></trkpt><trkpt lat="44.7925917" lon="9.23442"><ele>597.75</ele><time>2026-03-28T17:43:29.026Z</time></trkpt><trkpt lat="44.7925917" lon="9.2342467"><ele>595.5</ele><time>2026-03-28T17:43:30.026Z</time></trkpt><trkpt lat="44.7925983" lon="9.2340817"><ele>593.25</ele><time>2026-03-28T17:43:31.026Z</time></trkpt><trkpt lat="44.792605" lon="9.233925"><ele>591.0</ele><time>2026-03-28T17:43:32.026Z</time></trkpt><trkpt lat="44.792635" lon="9.2337917"><ele>589.2</ele><time>2026-03-28T17:43:33.026Z</time></trkpt><trkpt lat="44.7926867" lon="9.2336833"><ele>587.4000000000001</ele><time>2026-03-28T17:43:34.026Z</time></trkpt><trkpt lat="44.7927467" lon="9.2335933"><ele>585.6</ele><time>2026-03-28T17:43:35.026Z</time></trkpt><trkpt lat="44.7928367" lon="9.2335567"><ele>583.8000000000001</ele><time>2026-03-28T17:43:36.026Z</time></trkpt><trkpt lat="44.7929483" lon="9.2335517"><ele>582.0</ele><time>2026-03-28T17:43:37.026Z</time></trkpt><trkpt lat="44.7930983" lon="9.2335883"><ele>582.0</ele><time>2026-03-28T17:43:38.026Z</time></trkpt><trkpt lat="44.7932733" lon="9.2336667"><ele>582.0</ele><time>2026-03-28T17:43:39.026Z</time></trkpt><trkpt lat="44.7934233" lon="9.2336967"><ele>582.0</ele><time>2026-03-28T17:43:40.025Z</time></trkpt><trkpt lat="44.7935617" lon="9.23371"><ele>581.25</ele><time>2026-03-28T17:43:41.026Z</time></trkpt><trkpt lat="44.7936967" lon="9.2336933"><ele>580.5</ele><time>2026-03-28T17:43:42.026Z</time></trkpt><trkpt lat="44.7938317" lon="9.2336517"><ele>579.75</ele><time>2026-03-28T17:43:43.026Z</time></trkpt><trkpt lat="44.7939633" lon="9.2336"><ele>579.0</ele><time>2026-03-28T17:43:44.025Z</time></trkpt><trkpt lat="44.7940917" lon="9.233555"><ele>579.0</ele><time>2026-03-28T17:43:45.025Z</time></trkpt><trkpt lat="44.7942183" lon="9.2335033"><ele>579.0</ele><time>2026-03-28T17:43:46.026Z</time></trkpt><trkpt lat="44.7943417" lon="9.2334567"><ele>579.0</ele><time>2026-03-28T17:43:47.026Z</time></trkpt><trkpt lat="44.79445" lon="9.2334217"><ele>579.0</ele><time>2026-03-28T17:43:48.026Z</time></trkpt><trkpt lat="44.79457" lon="9.2334"><ele>578.0</ele><time>2026-03-28T17:43:49.026Z</time></trkpt><trkpt lat="44.79469" lon="9.23339"><ele>577.0</ele><time>2026-03-28T17:43:50.025Z</time></trkpt><trkpt lat="44.79482" lon="9.2334083"><ele>576.0</ele><time>2026-03-28T17:43:51.026Z</time></trkpt><trkpt lat="44.794935" lon="9.2334483"><ele>575.0</ele><time>2026-03-28T17:43:52.026Z</time></trkpt><trkpt lat="44.7950333" lon="9.2335017"><ele>575.0</ele><time>2026-03-28T17:43:53.025Z</time></trkpt><trkpt lat="44.795105" lon="9.2335983"><ele>575.0</ele><time>2026-03-28T17:43:54.026Z</time></trkpt><trkpt lat="44.79515" lon="9.2337217"><ele>575.0</ele><time>2026-03-28T17:43:55.026Z</time></trkpt><trkpt lat="44.7951717" lon="9.23386"><ele>575.0</ele><time>2026-03-28T17:43:56.026Z</time></trkpt><trkpt lat="44.7951833" lon="9.2340067"><ele>575.0</ele><time>2026-03-28T17:43:57.025Z</time></trkpt><trkpt lat="44.7952033" lon="9.2341383"><ele>574.8</ele><time>2026-03-28T17:43:58.026Z</time></trkpt><trkpt lat="44.7952333" lon="9.234255"><ele>574.6</ele><time>2026-03-28T17:43:59.026Z</time></trkpt><trkpt lat="44.7952883" lon="9.2343233"><ele>574.4</ele><time>2026-03-28T17:44:00.026Z</time></trkpt><trkpt lat="44.7953617" lon="9.2343533"><ele>574.2</ele><time>2026-03-28T17:44:01.025Z</time></trkpt><trkpt lat="44.7955183" lon="9.23434"><ele>574.0</ele><time>2026-03-28T17:44:03.026Z</time></trkpt><trkpt lat="44.7955967" lon="9.2343417"><ele>574.0</ele><time>2026-03-28T17:44:04.026Z</time></trkpt><trkpt lat="44.7956883" lon="9.234355"><ele>574.0</ele><time>2026-03-28T17:44:05.025Z</time></trkpt><trkpt lat="44.7957833" lon="9.23439"><ele>574.0</ele><time>2026-03-28T17:44:06.026Z</time></trkpt><trkpt lat="44.7958783" lon="9.23441"><ele>574.0</ele><time>2026-03-28T17:44:07.026Z</time></trkpt><trkpt lat="44.795985" lon="9.2344033"><ele>574.0</ele><time>2026-03-28T17:44:08.026Z</time></trkpt><trkpt lat="44.79609" lon="9.2343617"><ele>572.0</ele><time>2026-03-28T17:44:09.025Z</time></trkpt><trkpt lat="44.7962067" lon="9.2342883"><ele>570.0</ele><time>2026-03-28T17:44:10.025Z</time></trkpt><trkpt lat="44.796335" lon="9.23421"><ele>568.0</ele><time>2026-03-28T17:44:11.026Z</time></trkpt><trkpt lat="44.7964717" lon="9.23414"><ele>566.0</ele><time>2026-03-28T17:44:12.026Z</time></trkpt><trkpt lat="44.796605" lon="9.234105"><ele>566.0</ele><time>2026-03-28T17:44:13.026Z</time></trkpt><trkpt lat="44.7967283" lon="9.2341233"><ele>566.0</ele><time>2026-03-28T17:44:14.025Z</time></trkpt><trkpt lat="44.7968383" lon="9.234175"><ele>566.0</ele><time>2026-03-28T17:44:15.026Z</time></trkpt><trkpt lat="44.7969433" lon="9.234255"><ele>566.0</ele><time>2026-03-28T17:44:16.026Z</time></trkpt><trkpt lat="44.7970417" lon="9.2343467"><ele>562.2</ele><time>2026-03-28T17:44:17.026Z</time></trkpt><trkpt lat="44.7971133" lon="9.2344583"><ele>558.4000000000001</ele><time>2026-03-28T17:44:18.026Z</time></trkpt><trkpt lat="44.7971667" lon="9.2345667"><ele>554.6</ele><time>2026-03-28T17:44:19.026Z</time></trkpt><trkpt lat="44.79719" lon="9.234685"><ele>550.8000000000001</ele><time>2026-03-28T17:44:20.026Z</time></trkpt><trkpt lat="44.7971833" lon="9.2348133"><ele>547.0</ele><time>2026-03-28T17:44:21.026Z</time></trkpt><trkpt lat="44.7971067" lon="9.234955"><ele>547.0</ele><time>2026-03-28T17:44:22.025Z</time></trkpt><trkpt lat="44.7970233" lon="9.2351033"><ele>547.0</ele><time>2026-03-28T17:44:23.026Z</time></trkpt><trkpt lat="44.79697" lon="9.23527"><ele>547.0</ele><time>2026-03-28T17:44:24.026Z</time></trkpt><trkpt lat="44.79694" lon="9.23543"><ele>547.0</ele><time>2026-03-28T17:44:25.026Z</time></trkpt><trkpt lat="44.79692" lon="9.2355917"><ele>546.25</ele><time>2026-03-28T17:44:26.026Z</time></trkpt><trkpt lat="44.7968833" lon="9.23578"><ele>545.5</ele><time>2026-03-28T17:44:27.026Z</time></trkpt><trkpt lat="44.7968467" lon="9.2359567"><ele>544.75</ele><time>2026-03-28T17:44:28.026Z</time></trkpt><trkpt lat="44.79681" lon="9.2361317"><ele>544.0</ele><time>2026-03-28T17:44:29.025Z</time></trkpt><trkpt lat="44.79678" lon="9.2362983"><ele>544.8</ele><time>2026-03-28T17:44:30.026Z</time></trkpt><trkpt lat="44.7967633" lon="9.2364533"><ele>545.5999999999999</ele><time>2026-03-28T17:44:31.026Z</time></trkpt><trkpt lat="44.7967683" lon="9.2366"><ele>546.4</ele><time>2026-03-28T17:44:32.026Z</time></trkpt><trkpt lat="44.796795" lon="9.2367383"><ele>547.1999999999999</ele><time>2026-03-28T17:44:33.026Z</time></trkpt><trkpt lat="44.7968483" lon="9.2368583"><ele>548.0</ele><time>2026-03-28T17:44:34.026Z</time></trkpt><trkpt lat="44.7969783" lon="9.2369267"><ele>548.0</ele><time>2026-03-28T17:44:35.026Z</time></trkpt><trkpt lat="44.797115" lon="9.236985"><ele>548.0</ele><time>2026-03-28T17:44:36.025Z</time></trkpt><trkpt lat="44.797255" lon="9.2370067"><ele>548.0</ele><time>2026-03-28T17:44:37.026Z</time></trkpt><trkpt lat="44.797395" lon="9.2369883"><ele>548.0</ele><time>2026-03-28T17:44:38.026Z</time></trkpt><trkpt lat="44.7975183" lon="9.2369833"><ele>548.0</ele><time>2026-03-28T17:44:39.026Z</time></trkpt><trkpt lat="44.797635" lon="9.2370067"><ele>548.0</ele><time>2026-03-28T17:44:40.026Z</time></trkpt><trkpt lat="44.7977467" lon="9.2370733"><ele>548.0</ele><time>2026-03-28T17:44:41.026Z</time></trkpt><trkpt lat="44.7978567" lon="9.23717"><ele>548.0</ele><time>2026-03-28T17:44:42.026Z</time></trkpt><trkpt lat="44.7979633" lon="9.237285"><ele>547.5</ele><time>2026-03-28T17:44:43.026Z</time></trkpt><trkpt lat="44.798065" lon="9.2374017"><ele>547.0</ele><time>2026-03-28T17:44:44.026Z</time></trkpt><trkpt lat="44.7981667" lon="9.237505"><ele>546.5</ele><time>2026-03-28T17:44:45.026Z</time></trkpt><trkpt lat="44.79827" lon="9.2376"><ele>546.0</ele><time>2026-03-28T17:44:46.026Z</time></trkpt><trkpt lat="44.79838" lon="9.2376683"><ele>546.0</ele><time>2026-03-28T17:44:47.026Z</time></trkpt><trkpt lat="44.7984917" lon="9.23772"><ele>546.0</ele><time>2026-03-28T17:44:48.026Z</time></trkpt><trkpt lat="44.7986033" lon="9.23776"><ele>546.0</ele><time>2026-03-28T17:44:49.026Z</time></trkpt><trkpt lat="44.79872" lon="9.23778"><ele>546.0</ele><time>2026-03-28T17:44:50.026Z</time></trkpt><trkpt lat="44.7988333" lon="9.2377883"><ele>544.0</ele><time>2026-03-28T17:44:51.026Z</time></trkpt><trkpt lat="44.7989417" lon="9.2377933"><ele>542.0</ele><time>2026-03-28T17:44:52.025Z</time></trkpt><trkpt lat="44.79905" lon="9.2378183"><ele>540.0</ele><time>2026-03-28T17:44:53.025Z</time></trkpt><trkpt lat="44.7991567" lon="9.2378733"><ele>538.0</ele><time>2026-03-28T17:44:54.026Z</time></trkpt><trkpt lat="44.79925" lon="9.2379483"><ele>536.0</ele><time>2026-03-28T17:44:55.026Z</time></trkpt><trkpt lat="44.799325" lon="9.23805"><ele>532.2</ele><time>2026-03-28T17:44:56.026Z</time></trkpt><trkpt lat="44.7993933" lon="9.2381633"><ele>528.4000000000001</ele><time>2026-03-28T17:44:57.026Z</time></trkpt><trkpt lat="44.7994417" lon="9.2382833"><ele>524.6</ele><time>2026-03-28T17:44:58.026Z</time></trkpt><trkpt lat="44.7994583" lon="9.2384133"><ele>520.8000000000001</ele><time>2026-03-28T17:44:59.026Z</time></trkpt><trkpt lat="44.7994467" lon="9.2385633"><ele>517.0</ele><time>2026-03-28T17:45:00.026Z</time></trkpt><trkpt lat="44.799415" lon="9.2387417"><ele>517.0</ele><time>2026-03-28T17:45:01.026Z</time></trkpt><trkpt lat="44.799385" lon="9.2389167"><ele>517.0</ele><time>2026-03-28T17:45:02.026Z</time></trkpt><trkpt lat="44.799365" lon="9.239105"><ele>517.0</ele><time>2026-03-28T17:45:03.025Z</time></trkpt><trkpt lat="44.799345" lon="9.2392867"><ele>517.0</ele><time>2026-03-28T17:45:04.026Z</time></trkpt><trkpt lat="44.799325" lon="9.2394683"><ele>518.0</ele><time>2026-03-28T17:45:05.026Z</time></trkpt><trkpt lat="44.7993383" lon="9.2396433"><ele>519.0</ele><time>2026-03-28T17:45:06.026Z</time></trkpt><trkpt lat="44.7993683" lon="9.239815"><ele>520.0</ele><time>2026-03-28T17:45:07.026Z</time></trkpt><trkpt lat="44.799395" lon="9.2399917"><ele>521.0</ele><time>2026-03-28T17:45:08.025Z</time></trkpt><trkpt lat="44.7994167" lon="9.2401767"><ele>521.5</ele><time>2026-03-28T17:45:09.025Z</time></trkpt><trkpt lat="44.7994333" lon="9.240365"><ele>522.0</ele><time>2026-03-28T17:45:10.026Z</time></trkpt><trkpt lat="44.799445" lon="9.2405567"><ele>522.5</ele><time>2026-03-28T17:45:11.025Z</time></trkpt><trkpt lat="44.79945" lon="9.2407517"><ele>523.0</ele><time>2026-03-28T17:45:12.026Z</time></trkpt><trkpt lat="44.7994633" lon="9.24094"><ele>523.0</ele><time>2026-03-28T17:45:13.025Z</time></trkpt><trkpt lat="44.799475" lon="9.2411167"><ele>523.0</ele><time>2026-03-28T17:45:14.026Z</time></trkpt><trkpt lat="44.799495" lon="9.24127"><ele>523.0</ele><time>2026-03-28T17:45:15.026Z</time></trkpt><trkpt lat="44.7995233" lon="9.2413983"><ele>523.0</ele><time>2026-03-28T17:45:16.026Z</time></trkpt><trkpt lat="44.79956" lon="9.2415167"><ele>523.0</ele><time>2026-03-28T17:45:17.026Z</time></trkpt><trkpt lat="44.7996167" lon="9.2416233"><ele>523.8</ele><time>2026-03-28T17:45:18.026Z</time></trkpt><trkpt lat="44.799695" lon="9.2417083"><ele>524.5999999999999</ele><time>2026-03-28T17:45:19.026Z</time></trkpt><trkpt lat="44.7997833" lon="9.2417617"><ele>525.4000000000001</ele><time>2026-03-28T17:45:20.026Z</time></trkpt><trkpt lat="44.79987" lon="9.2417967"><ele>526.2</ele><time>2026-03-28T17:45:21.026Z</time></trkpt><trkpt lat="44.79996" lon="9.2418"><ele>527.0</ele><time>2026-03-28T17:45:22.026Z</time></trkpt><trkpt lat="44.8000583" lon="9.2417617"><ele>527.25</ele><time>2026-03-28T17:45:23.026Z</time></trkpt><trkpt lat="44.80017" lon="9.2416617"><ele>527.5</ele><time>2026-03-28T17:45:24.026Z</time></trkpt><trkpt lat="44.8002767" lon="9.241525"><ele>527.75</ele><time>2026-03-28T17:45:25.025Z</time></trkpt><trkpt lat="44.8003783" lon="9.2413867"><ele>528.0</ele><time>2026-03-28T17:45:26.026Z</time></trkpt><trkpt lat="44.800485" lon="9.2412583"><ele>525.25</ele><time>2026-03-28T17:45:27.026Z</time></trkpt><trkpt lat="44.8006017" lon="9.241155"><ele>522.5</ele><time>2026-03-28T17:45:28.026Z</time></trkpt><trkpt lat="44.8007217" lon="9.2410583"><ele>519.75</ele><time>2026-03-28T17:45:29.025Z</time></trkpt><trkpt lat="44.8008533" lon="9.2409683"><ele>517.0</ele><time>2026-03-28T17:45:30.026Z</time></trkpt><trkpt lat="44.800995" lon="9.240895"><ele>517.0</ele><time>2026-03-28T17:45:31.026Z</time></trkpt><trkpt lat="44.8011333" lon="9.2408233"><ele>517.0</ele><time>2026-03-28T17:45:32.026Z</time></trkpt><trkpt lat="44.80127" lon="9.240745"><ele>517.0</ele><time>2026-03-28T17:45:33.026Z</time></trkpt><trkpt lat="44.80142" lon="9.24064"><ele>515.0</ele><time>2026-03-28T17:45:34.026Z</time></trkpt><trkpt lat="44.801575" lon="9.2405317"><ele>513.0</ele><time>2026-03-28T17:45:35.026Z</time></trkpt><trkpt lat="44.8017217" lon="9.2404267"><ele>511.0</ele><time>2026-03-28T17:45:36.026Z</time></trkpt><trkpt lat="44.8018833" lon="9.2403083"><ele>509.33333333333337</ele><time>2026-03-28T17:45:37.025Z</time></trkpt><trkpt lat="44.802055" lon="9.240185"><ele>507.66666666666663</ele><time>2026-03-28T17:45:38.026Z</time></trkpt><trkpt lat="44.8022283" lon="9.24007"><ele>506.0</ele><time>2026-03-28T17:45:39.026Z</time></trkpt><trkpt lat="44.802405" lon="9.2399717"><ele>506.0</ele><time>2026-03-28T17:45:40.026Z</time></trkpt><trkpt lat="44.802575" lon="9.2398833"><ele>506.0</ele><time>2026-03-28T17:45:41.026Z</time></trkpt><trkpt lat="44.802735" lon="9.2398017"><ele>506.0</ele><time>2026-03-28T17:45:42.026Z</time></trkpt><trkpt lat="44.8028933" lon="9.2397033"><ele>502.66666666666663</ele><time>2026-03-28T17:45:43.026Z</time></trkpt><trkpt lat="44.8030567" lon="9.2395933"><ele>499.33333333333337</ele><time>2026-03-28T17:45:44.026Z</time></trkpt><trkpt lat="44.80322" lon="9.2394833"><ele>496.0</ele><time>2026-03-28T17:45:45.026Z</time></trkpt><trkpt lat="44.803375" lon="9.2393917"><ele>499.6666666666667</ele><time>2026-03-28T17:45:46.026Z</time></trkpt><trkpt lat="44.80353" lon="9.2392967"><ele>503.33333333333337</ele><time>2026-03-28T17:45:47.026Z</time></trkpt><trkpt lat="44.8036817" lon="9.2392133"><ele>507.0</ele><time>2026-03-28T17:45:48.026Z</time></trkpt><trkpt lat="44.80382" lon="9.2391233"><ele>507.0</ele><time>2026-03-28T17:45:49.026Z</time></trkpt><trkpt lat="44.8039483" lon="9.2390233"><ele>507.0</ele><time>2026-03-28T17:45:50.026Z</time></trkpt><trkpt lat="44.804055" lon="9.238895"><ele>507.0</ele><time>2026-03-28T17:45:51.026Z</time></trkpt><trkpt lat="44.8041517" lon="9.2387417"><ele>507.0</ele><time>2026-03-28T17:45:52.026Z</time></trkpt><trkpt lat="44.804235" lon="9.2385617"><ele>507.33333333333337</ele><time>2026-03-28T17:45:53.026Z</time></trkpt><trkpt lat="44.804295" lon="9.2383583"><ele>507.6666666666667</ele><time>2026-03-28T17:45:54.026Z</time></trkpt><trkpt lat="44.8043283" lon="9.2381433"><ele>508.0</ele><time>2026-03-28T17:45:55.026Z</time></trkpt><trkpt lat="44.8043433" lon="9.2379217"><ele>513.3333333333334</ele><time>2026-03-28T17:45:56.026Z</time></trkpt><trkpt lat="44.8043483" lon="9.23769"><ele>518.6666666666666</ele><time>2026-03-28T17:45:57.026Z</time></trkpt><trkpt lat="44.804355" lon="9.237455"><ele>524.0</ele><time>2026-03-28T17:45:58.026Z</time></trkpt><trkpt lat="44.8043667" lon="9.2372167"><ele>524.0</ele><time>2026-03-28T17:45:59.026Z</time></trkpt><trkpt lat="44.8043767" lon="9.2369733"><ele>524.0</ele><time>2026-03-28T17:46:00.026Z</time></trkpt><trkpt lat="44.8043883" lon="9.236725"><ele>524.0</ele><time>2026-03-28T17:46:01.025Z</time></trkpt><trkpt lat="44.8044017" lon="9.2364683"><ele>522.6666666666666</ele><time>2026-03-28T17:46:02.026Z</time></trkpt><trkpt lat="44.8044167" lon="9.2362117"><ele>521.3333333333334</ele><time>2026-03-28T17:46:03.026Z</time></trkpt><trkpt lat="44.8044367" lon="9.2359467"><ele>520.0</ele><time>2026-03-28T17:46:04.026Z</time></trkpt><trkpt lat="44.8044667" lon="9.2356833"><ele>518.3333333333334</ele><time>2026-03-28T17:46:05.026Z</time></trkpt><trkpt lat="44.80451" lon="9.2354267"><ele>516.6666666666666</ele><time>2026-03-28T17:46:06.026Z</time></trkpt><trkpt lat="44.804575" lon="9.2351683"><ele>515.0</ele><time>2026-03-28T17:46:07.026Z</time></trkpt><trkpt lat="44.8046417" lon="9.234905"><ele>513.3333333333333</ele><time>2026-03-28T17:46:08.026Z</time></trkpt><trkpt lat="44.8047017" lon="9.2346567"><ele>511.66666666666663</ele><time>2026-03-28T17:46:09.025Z</time></trkpt><trkpt lat="44.804755" lon="9.2344167"><ele>510.0</ele><time>2026-03-28T17:46:10.026Z</time></trkpt><trkpt lat="44.80479" lon="9.2341833"><ele>509.33333333333337</ele><time>2026-03-28T17:46:11.026Z</time></trkpt><trkpt lat="44.80481" lon="9.2339533"><ele>508.6666666666667</ele><time>2026-03-28T17:46:12.026Z</time></trkpt><trkpt lat="44.8048133" lon="9.233725"><ele>508.0</ele><time>2026-03-28T17:46:13.026Z</time></trkpt><trkpt lat="44.8048083" lon="9.2335"><ele>508.0</ele><time>2026-03-28T17:46:14.025Z</time></trkpt><trkpt lat="44.8048" lon="9.2332833"><ele>508.0</ele><time>2026-03-28T17:46:15.026Z</time></trkpt><trkpt lat="44.8047933" lon="9.233075"><ele>508.0</ele><time>2026-03-28T17:46:16.026Z</time></trkpt><trkpt lat="44.8047917" lon="9.2328667"><ele>508.0</ele><time>2026-03-28T17:46:17.026Z</time></trkpt><trkpt lat="44.804805" lon="9.2326533"><ele>508.0</ele><time>2026-03-28T17:46:18.026Z</time></trkpt><trkpt lat="44.8048267" lon="9.2324383"><ele>508.0</ele><time>2026-03-28T17:46:19.026Z</time></trkpt><trkpt lat="44.8048633" lon="9.2322267"><ele>507.0</ele><time>2026-03-28T17:46:20.026Z</time></trkpt><trkpt lat="44.8049083" lon="9.2320133"><ele>506.0</ele><time>2026-03-28T17:46:21.026Z</time></trkpt><trkpt lat="44.8049583" lon="9.231805"><ele>505.0</ele><time>2026-03-28T17:46:22.026Z</time></trkpt><trkpt lat="44.805015" lon="9.2315967"><ele>506.5</ele><time>2026-03-28T17:46:23.026Z</time></trkpt><trkpt lat="44.8050883" lon="9.2314167"><ele>508.0</ele><time>2026-03-28T17:46:24.026Z</time></trkpt><trkpt lat="44.8051833" lon="9.2312583"><ele>509.5</ele><time>2026-03-28T17:46:25.026Z</time></trkpt><trkpt lat="44.805275" lon="9.2310983"><ele>511.0</ele><time>2026-03-28T17:46:26.026Z</time></trkpt><trkpt lat="44.80535" lon="9.230925"><ele>511.0</ele><time>2026-03-28T17:46:27.026Z</time></trkpt><trkpt lat="44.8053983" lon="9.2307333"><ele>511.0</ele><time>2026-03-28T17:46:28.026Z</time></trkpt><trkpt lat="44.8054217" lon="9.2305267"><ele>511.0</ele><time>2026-03-28T17:46:29.026Z</time></trkpt><trkpt lat="44.805425" lon="9.230305"><ele>510.33333333333337</ele><time>2026-03-28T17:46:30.026Z</time></trkpt><trkpt lat="44.80542" lon="9.2300833"><ele>509.66666666666663</ele><time>2026-03-28T17:46:31.026Z</time></trkpt><trkpt lat="44.8054233" lon="9.2298617"><ele>509.0</ele><time>2026-03-28T17:46:32.026Z</time></trkpt><trkpt lat="44.805435" lon="9.2296433"><ele>507.3333333333333</ele><time>2026-03-28T17:46:33.026Z</time></trkpt><trkpt lat="44.8054567" lon="9.2294267"><ele>505.66666666666663</ele><time>2026-03-28T17:46:34.025Z</time></trkpt><trkpt lat="44.8054967" lon="9.229205"><ele>504.0</ele><time>2026-03-28T17:46:35.026Z</time></trkpt><trkpt lat="44.80554" lon="9.2289867"><ele>501.66666666666663</ele><time>2026-03-28T17:46:36.026Z</time></trkpt><trkpt lat="44.8055883" lon="9.22877"><ele>499.3333333333333</ele><time>2026-03-28T17:46:37.026Z</time></trkpt><trkpt lat="44.8056433" lon="9.2285583"><ele>497.0</ele><time>2026-03-28T17:46:38.025Z</time></trkpt><trkpt lat="44.8056983" lon="9.2283567"><ele>497.0</ele><time>2026-03-28T17:46:39.026Z</time></trkpt><trkpt lat="44.80575" lon="9.2281583"><ele>497.0</ele><time>2026-03-28T17:46:40.025Z</time></trkpt><trkpt lat="44.8057933" lon="9.2279783"><ele>497.0</ele><time>2026-03-28T17:46:41.026Z</time></trkpt><trkpt lat="44.805815" lon="9.2278067"><ele>497.0</ele><time>2026-03-28T17:46:42.026Z</time></trkpt><trkpt lat="44.8058083" lon="9.2276383"><ele>496.25</ele><time>2026-03-28T17:46:43.026Z</time></trkpt><trkpt lat="44.805775" lon="9.227465"><ele>495.5</ele><time>2026-03-28T17:46:44.026Z</time></trkpt><trkpt lat="44.8057183" lon="9.2272817"><ele>494.75</ele><time>2026-03-28T17:46:45.025Z</time></trkpt><trkpt lat="44.8056633" lon="9.2270917"><ele>494.0</ele><time>2026-03-28T17:46:46.026Z</time></trkpt><trkpt lat="44.8056067" lon="9.2269083"><ele>493.5</ele><time>2026-03-28T17:46:47.025Z</time></trkpt><trkpt lat="44.8055433" lon="9.2267317"><ele>493.0</ele><time>2026-03-28T17:46:48.026Z</time></trkpt><trkpt lat="44.8054883" lon="9.2265583"><ele>492.5</ele><time>2026-03-28T17:46:49.026Z</time></trkpt><trkpt lat="44.8054467" lon="9.22641"><ele>492.0</ele><time>2026-03-28T17:46:50.026Z</time></trkpt><trkpt lat="44.8054217" lon="9.2262683"><ele>491.0</ele><time>2026-03-28T17:46:51.026Z</time></trkpt><trkpt lat="44.805425" lon="9.22614"><ele>490.00000000000006</ele><time>2026-03-28T17:46:52.026Z</time></trkpt><trkpt lat="44.8054633" lon="9.226025"><ele>489.00000000000006</ele><time>2026-03-28T17:46:53.026Z</time></trkpt><trkpt lat="44.80553" lon="9.2259017"><ele>488.0</ele><time>2026-03-28T17:46:54.025Z</time></trkpt><trkpt lat="44.8056017" lon="9.2257783"><ele>487.0</ele><time>2026-03-28T17:46:55.025Z</time></trkpt><trkpt lat="44.80568" lon="9.225665"><ele>486.0</ele><time>2026-03-28T17:46:56.026Z</time></trkpt><trkpt lat="44.8057667" lon="9.2255767"><ele>485.0</ele><time>2026-03-28T17:46:57.026Z</time></trkpt><trkpt lat="44.8058717" lon="9.22552"><ele>484.0</ele><time>2026-03-28T17:46:58.026Z</time></trkpt><trkpt lat="44.8059967" lon="9.2254783"><ele>483.0</ele><time>2026-03-28T17:46:59.026Z</time></trkpt><trkpt lat="44.806125" lon="9.2254383"><ele>483.0</ele><time>2026-03-28T17:47:00.025Z</time></trkpt><trkpt lat="44.80625" lon="9.2254067"><ele>483.0</ele><time>2026-03-28T17:47:01.026Z</time></trkpt><trkpt lat="44.8063733" lon="9.2253683"><ele>483.0</ele><time>2026-03-28T17:47:02.026Z</time></trkpt><trkpt lat="44.806485" lon="9.22532"><ele>483.0</ele><time>2026-03-28T17:47:03.025Z</time></trkpt><trkpt lat="44.8065833" lon="9.2252583"><ele>483.0</ele><time>2026-03-28T17:47:04.026Z</time></trkpt><trkpt lat="44.80667" lon="9.2251633"><ele>483.0</ele><time>2026-03-28T17:47:05.026Z</time></trkpt><trkpt lat="44.8067183" lon="9.22501"><ele>483.0</ele><time>2026-03-28T17:47:06.026Z</time></trkpt><trkpt lat="44.8067433" lon="9.2248283"><ele>483.0</ele><time>2026-03-28T17:47:07.026Z</time></trkpt><trkpt lat="44.8067483" lon="9.224635"><ele>482.0</ele><time>2026-03-28T17:47:08.026Z</time></trkpt><trkpt lat="44.8067267" lon="9.224455"><ele>481.0</ele><time>2026-03-28T17:47:09.026Z</time></trkpt><trkpt lat="44.8066767" lon="9.2242817"><ele>480.0</ele><time>2026-03-28T17:47:10.026Z</time></trkpt><trkpt lat="44.8066033" lon="9.22412"><ele>479.0</ele><time>2026-03-28T17:47:11.026Z</time></trkpt><trkpt lat="44.8065117" lon="9.2239583"><ele>477.75</ele><time>2026-03-28T17:47:12.026Z</time></trkpt><trkpt lat="44.80643" lon="9.2238033"><ele>476.5</ele><time>2026-03-28T17:47:13.026Z</time></trkpt><trkpt lat="44.80637" lon="9.2236533"><ele>475.25</ele><time>2026-03-28T17:47:14.026Z</time></trkpt><trkpt lat="44.8063317" lon="9.2235"><ele>474.0</ele><time>2026-03-28T17:47:15.026Z</time></trkpt><trkpt lat="44.8063467" lon="9.2233433"><ele>474.0</ele><time>2026-03-28T17:47:16.026Z</time></trkpt><trkpt lat="44.8064017" lon="9.223195"><ele>474.0</ele><time>2026-03-28T17:47:17.026Z</time></trkpt><trkpt lat="44.8064717" lon="9.2230467"><ele>474.0</ele><time>2026-03-28T17:47:18.026Z</time></trkpt><trkpt lat="44.80656" lon="9.2229017"><ele>474.0</ele><time>2026-03-28T17:47:19.025Z</time></trkpt><trkpt lat="44.8066533" lon="9.22276"><ele>473.75</ele><time>2026-03-28T17:47:20.026Z</time></trkpt><trkpt lat="44.8067467" lon="9.2226167"><ele>473.5</ele><time>2026-03-28T17:47:21.026Z</time></trkpt><trkpt lat="44.8068433" lon="9.222475"><ele>473.25</ele><time>2026-03-28T17:47:22.026Z</time></trkpt><trkpt lat="44.8069467" lon="9.2223517"><ele>473.0</ele><time>2026-03-28T17:47:23.025Z</time></trkpt><trkpt lat="44.8070533" lon="9.22225"><ele>470.75</ele><time>2026-03-28T17:47:24.026Z</time></trkpt><trkpt lat="44.8071533" lon="9.2221617"><ele>468.5</ele><time>2026-03-28T17:47:25.025Z</time></trkpt><trkpt lat="44.807265" lon="9.2221067"><ele>466.25</ele><time>2026-03-28T17:47:26.026Z</time></trkpt><trkpt lat="44.8073983" lon="9.2220917"><ele>464.0</ele><time>2026-03-28T17:47:27.026Z</time></trkpt><trkpt lat="44.80754" lon="9.22209"><ele>464.0</ele><time>2026-03-28T17:47:28.026Z</time></trkpt><trkpt lat="44.8076883" lon="9.2220933"><ele>464.0</ele><time>2026-03-28T17:47:29.026Z</time></trkpt><trkpt lat="44.8078283" lon="9.2220967"><ele>464.0</ele><time>2026-03-28T17:47:30.026Z</time></trkpt><trkpt lat="44.8079667" lon="9.2221"><ele>464.0</ele><time>2026-03-28T17:47:31.026Z</time></trkpt><trkpt lat="44.8080867" lon="9.2220933"><ele>464.0</ele><time>2026-03-28T17:47:32.026Z</time></trkpt><trkpt lat="44.8082033" lon="9.2220667"><ele>464.0</ele><time>2026-03-28T17:47:33.026Z</time></trkpt><trkpt lat="44.8083033" lon="9.2219933"><ele>464.0</ele><time>2026-03-28T17:47:34.026Z</time></trkpt><trkpt lat="44.8083883" lon="9.22188"><ele>464.0</ele><time>2026-03-28T17:47:35.026Z</time></trkpt><trkpt lat="44.8084567" lon="9.2217333"><ele>464.0</ele><time>2026-03-28T17:47:36.026Z</time></trkpt><trkpt lat="44.8085117" lon="9.2215633"><ele>464.0</ele><time>2026-03-28T17:47:37.026Z</time></trkpt><trkpt lat="44.80856" lon="9.2213667"><ele>464.0</ele><time>2026-03-28T17:47:38.026Z</time></trkpt><trkpt lat="44.8086133" lon="9.2211917"><ele>464.0</ele><time>2026-03-28T17:47:39.026Z</time></trkpt><trkpt lat="44.80867" lon="9.22103"><ele>464.0</ele><time>2026-03-28T17:47:40.026Z</time></trkpt><trkpt lat="44.8087417" lon="9.220895"><ele>464.0</ele><time>2026-03-28T17:47:41.026Z</time></trkpt><trkpt lat="44.8088317" lon="9.2207767"><ele>464.0</ele><time>2026-03-28T17:47:42.026Z</time></trkpt><trkpt lat="44.80893" lon="9.220685"><ele>464.0</ele><time>2026-03-28T17:47:43.026Z</time></trkpt><trkpt lat="44.8090483" lon="9.2206233"><ele>463.25</ele><time>2026-03-28T17:47:44.025Z</time></trkpt><trkpt lat="44.80917" lon="9.220565"><ele>462.5</ele><time>2026-03-28T17:47:45.026Z</time></trkpt><trkpt lat="44.8092933" lon="9.2205117"><ele>461.75</ele><time>2026-03-28T17:47:46.026Z</time></trkpt><trkpt lat="44.80942" lon="9.22046"><ele>461.0</ele><time>2026-03-28T17:47:47.026Z</time></trkpt><trkpt lat="44.8095483" lon="9.2204083"><ele>461.0</ele><time>2026-03-28T17:47:48.026Z</time></trkpt><trkpt lat="44.8096767" lon="9.2203567"><ele>461.0</ele><time>2026-03-28T17:47:49.025Z</time></trkpt><trkpt lat="44.8098017" lon="9.2202967"><ele>461.0</ele><time>2026-03-28T17:47:50.026Z</time></trkpt><trkpt lat="44.80992" lon="9.2202233"><ele>461.0</ele><time>2026-03-28T17:47:51.025Z</time></trkpt><trkpt lat="44.81002" lon="9.2201333"><ele>461.0</ele><time>2026-03-28T17:47:52.026Z</time></trkpt><trkpt lat="44.8101117" lon="9.2200233"><ele>461.0</ele><time>2026-03-28T17:47:53.026Z</time></trkpt><trkpt lat="44.8101917" lon="9.2199"><ele>461.0</ele><time>2026-03-28T17:47:54.026Z</time></trkpt><trkpt lat="44.8102667" lon="9.2197583"><ele>461.0</ele><time>2026-03-28T17:47:55.026Z</time></trkpt><trkpt lat="44.8103383" lon="9.2196033"><ele>461.75</ele><time>2026-03-28T17:47:56.026Z</time></trkpt><trkpt lat="44.8104067" lon="9.2194483"><ele>462.5</ele><time>2026-03-28T17:47:57.026Z</time></trkpt><trkpt lat="44.8104717" lon="9.2192817"><ele>463.25</ele><time>2026-03-28T17:47:58.026Z</time></trkpt><trkpt lat="44.8105383" lon="9.2191117"><ele>464.0</ele><time>2026-03-28T17:47:59.026Z</time></trkpt><trkpt lat="44.8106083" lon="9.218935"><ele>462.5</ele><time>2026-03-28T17:48:00.026Z</time></trkpt><trkpt lat="44.8106833" lon="9.218755"><ele>461.0</ele><time>2026-03-28T17:48:01.026Z</time></trkpt><trkpt lat="44.8107667" lon="9.2185833"><ele>459.5</ele><time>2026-03-28T17:48:02.026Z</time></trkpt><trkpt lat="44.810855" lon="9.2184267"><ele>458.0</ele><time>2026-03-28T17:48:03.026Z</time></trkpt><trkpt lat="44.81096" lon="9.2182733"><ele>458.0</ele><time>2026-03-28T17:48:04.026Z</time></trkpt><trkpt lat="44.81107" lon="9.2181483"><ele>458.0</ele><time>2026-03-28T17:48:05.026Z</time></trkpt><trkpt lat="44.811195" lon="9.2180417"><ele>458.0</ele><time>2026-03-28T17:48:06.026Z</time></trkpt><trkpt lat="44.81133" lon="9.2179533"><ele>458.0</ele><time>2026-03-28T17:48:07.026Z</time></trkpt><trkpt lat="44.8114767" lon="9.2178683"><ele>458.0</ele><time>2026-03-28T17:48:08.025Z</time></trkpt><trkpt lat="44.8116233" lon="9.2177767"><ele>458.0</ele><time>2026-03-28T17:48:09.026Z</time></trkpt><trkpt lat="44.811775" lon="9.2176917"><ele>458.0</ele><time>2026-03-28T17:48:10.026Z</time></trkpt><trkpt lat="44.811915" lon="9.217605"><ele>458.0</ele><time>2026-03-28T17:48:11.026Z</time></trkpt><trkpt lat="44.8120533" lon="9.2175033"><ele>458.0</ele><time>2026-03-28T17:48:12.026Z</time></trkpt><trkpt lat="44.8121867" lon="9.21739"><ele>458.0</ele><time>2026-03-28T17:48:13.026Z</time></trkpt><trkpt lat="44.8123217" lon="9.2172617"><ele>458.0</ele><time>2026-03-28T17:48:14.026Z</time></trkpt><trkpt lat="44.812465" lon="9.217145"><ele>458.0</ele><time>2026-03-28T17:48:15.026Z</time></trkpt><trkpt lat="44.8126117" lon="9.2170183"><ele>458.0</ele><time>2026-03-28T17:48:16.026Z</time></trkpt><trkpt lat="44.8127517" lon="9.2168967"><ele>459.66666666666663</ele><time>2026-03-28T17:48:17.026Z</time></trkpt><trkpt lat="44.8128867" lon="9.2167683"><ele>461.33333333333337</ele><time>2026-03-28T17:48:18.026Z</time></trkpt><trkpt lat="44.8130233" lon="9.2166317"><ele>463.0</ele><time>2026-03-28T17:48:19.025Z</time></trkpt><trkpt lat="44.813165" lon="9.2164967"><ele>462.6666666666667</ele><time>2026-03-28T17:48:20.026Z</time></trkpt><trkpt lat="44.813305" lon="9.21637"><ele>462.33333333333337</ele><time>2026-03-28T17:48:21.026Z</time></trkpt><trkpt lat="44.81343" lon="9.2162467"><ele>462.0</ele><time>2026-03-28T17:48:22.026Z</time></trkpt><trkpt lat="44.813545" lon="9.2161217"><ele>462.0</ele><time>2026-03-28T17:48:23.026Z</time></trkpt><trkpt lat="44.81365" lon="9.2159883"><ele>462.0</ele><time>2026-03-28T17:48:24.025Z</time></trkpt><trkpt lat="44.813745" lon="9.21584"><ele>462.0</ele><time>2026-03-28T17:48:25.026Z</time></trkpt><trkpt lat="44.813835" lon="9.2156867"><ele>462.0</ele><time>2026-03-28T17:48:26.026Z</time></trkpt><trkpt lat="44.813915" lon="9.21552"><ele>461.0</ele><time>2026-03-28T17:48:27.026Z</time></trkpt><trkpt lat="44.813985" lon="9.2153433"><ele>460.0</ele><time>2026-03-28T17:48:28.026Z</time></trkpt><trkpt lat="44.814055" lon="9.21516"><ele>459.0</ele><time>2026-03-28T17:48:29.026Z</time></trkpt><trkpt lat="44.81412" lon="9.2149933"><ele>458.0</ele><time>2026-03-28T17:48:30.026Z</time></trkpt><trkpt lat="44.814185" lon="9.2148367"><ele>457.0</ele><time>2026-03-28T17:48:31.026Z</time></trkpt><trkpt lat="44.81425" lon="9.2146867"><ele>456.0</ele><time>2026-03-28T17:48:32.026Z</time></trkpt><trkpt lat="44.814325" lon="9.214545"><ele>455.0</ele><time>2026-03-28T17:48:33.026Z</time></trkpt><trkpt lat="44.8144167" lon="9.2144117"><ele>454.0</ele><time>2026-03-28T17:48:34.026Z</time></trkpt><trkpt lat="44.814525" lon="9.214305"><ele>454.0</ele><time>2026-03-28T17:48:35.026Z</time></trkpt><trkpt lat="44.8146667" lon="9.2142467"><ele>454.0</ele><time>2026-03-28T17:48:36.026Z</time></trkpt><trkpt lat="44.8147983" lon="9.214195"><ele>454.0</ele><time>2026-03-28T17:48:37.026Z</time></trkpt><trkpt lat="44.814945" lon="9.214165"><ele>454.0</ele><time>2026-03-28T17:48:38.026Z</time></trkpt><trkpt lat="44.8151033" lon="9.21416"><ele>455.33333333333337</ele><time>2026-03-28T17:48:39.026Z</time></trkpt><trkpt lat="44.8152583" lon="9.2141517"><ele>456.66666666666663</ele><time>2026-03-28T17:48:40.026Z</time></trkpt><trkpt lat="44.81542" lon="9.2141217"><ele>458.0</ele><time>2026-03-28T17:48:41.026Z</time></trkpt><trkpt lat="44.8155767" lon="9.2140683"><ele>456.0</ele><time>2026-03-28T17:48:42.026Z</time></trkpt><trkpt lat="44.8157333" lon="9.213985"><ele>454.0</ele><time>2026-03-28T17:48:43.026Z</time></trkpt><trkpt lat="44.815885" lon="9.21388"><ele>452.0</ele><time>2026-03-28T17:48:44.026Z</time></trkpt><trkpt lat="44.8160367" lon="9.21377"><ele>452.0</ele><time>2026-03-28T17:48:45.026Z</time></trkpt><trkpt lat="44.8161883" lon="9.2136667"><ele>452.0</ele><time>2026-03-28T17:48:46.026Z</time></trkpt><trkpt lat="44.8163467" lon="9.2135817"><ele>452.0</ele><time>2026-03-28T17:48:47.026Z</time></trkpt><trkpt lat="44.8165067" lon="9.2135033"><ele>452.0</ele><time>2026-03-28T17:48:48.026Z</time></trkpt><trkpt lat="44.816665" lon="9.213445"><ele>452.0</ele><time>2026-03-28T17:48:49.026Z</time></trkpt><trkpt lat="44.816835" lon="9.2133767"><ele>452.0</ele><time>2026-03-28T17:48:50.026Z</time></trkpt><trkpt lat="44.8169983" lon="9.21332"><ele>452.5</ele><time>2026-03-28T17:48:51.026Z</time></trkpt><trkpt lat="44.8171533" lon="9.2132667"><ele>453.0</ele><time>2026-03-28T17:48:52.026Z</time></trkpt><trkpt lat="44.8172883" lon="9.2132317"><ele>453.5</ele><time>2026-03-28T17:48:53.026Z</time></trkpt><trkpt lat="44.8174233" lon="9.2132217"><ele>454.0</ele><time>2026-03-28T17:48:54.025Z</time></trkpt><trkpt lat="44.8175583" lon="9.213235"><ele>453.0</ele><time>2026-03-28T17:48:55.025Z</time></trkpt><trkpt lat="44.8176883" lon="9.2132783"><ele>452.0</ele><time>2026-03-28T17:48:56.026Z</time></trkpt><trkpt lat="44.8178317" lon="9.2133517"><ele>451.0</ele><time>2026-03-28T17:48:57.026Z</time></trkpt><trkpt lat="44.81797" lon="9.2134367"><ele>450.0</ele><time>2026-03-28T17:48:58.026Z</time></trkpt><trkpt lat="44.8181033" lon="9.21353"><ele>450.0</ele><time>2026-03-28T17:48:59.026Z</time></trkpt><trkpt lat="44.8182317" lon="9.2136283"><ele>450.0</ele><time>2026-03-28T17:49:00.027Z</time></trkpt><trkpt lat="44.8183567" lon="9.21372"><ele>450.0</ele><time>2026-03-28T17:49:01.027Z</time></trkpt><trkpt lat="44.8184783" lon="9.2137967"><ele>450.0</ele><time>2026-03-28T17:49:02.027Z</time></trkpt><trkpt lat="44.81859" lon="9.2138617"><ele>449.3333333333333</ele><time>2026-03-28T17:49:03.027Z</time></trkpt><trkpt lat="44.81868" lon="9.21391"><ele>448.66666666666663</ele><time>2026-03-28T17:49:04.027Z</time></trkpt><trkpt lat="44.8187417" lon="9.2139517"><ele>448.0</ele><time>2026-03-28T17:49:05.027Z</time></trkpt><trkpt lat="44.8188133" lon="9.213985"><ele>447.3333333333333</ele><time>2026-03-28T17:49:07.027Z</time></trkpt><trkpt lat="44.8189" lon="9.2138917"><ele>446.66666666666663</ele><time>2026-03-28T17:49:11.027Z</time></trkpt><trkpt lat="44.8189517" lon="9.2138217"><ele>446.0</ele><time>2026-03-28T17:49:12.027Z</time></trkpt><trkpt lat="44.8190217" lon="9.2137167"><ele>446.0</ele><time>2026-03-28T17:49:13.027Z</time></trkpt><trkpt lat="44.8191117" lon="9.2136183"><ele>446.0</ele><time>2026-03-28T17:49:14.027Z</time></trkpt><trkpt lat="44.819225" lon="9.2134983"><ele>446.0</ele><time>2026-03-28T17:49:15.027Z</time></trkpt><trkpt lat="44.8193467" lon="9.2133833"><ele>446.0</ele><time>2026-03-28T17:49:16.027Z</time></trkpt><trkpt lat="44.8194533" lon="9.2132817"><ele>446.75</ele><time>2026-03-28T17:49:17.027Z</time></trkpt><trkpt lat="44.8195533" lon="9.2131767"><ele>447.5</ele><time>2026-03-28T17:49:18.027Z</time></trkpt><trkpt lat="44.8196333" lon="9.2130583"><ele>448.25</ele><time>2026-03-28T17:49:19.026Z</time></trkpt><trkpt lat="44.819695" lon="9.2129267"><ele>449.0</ele><time>2026-03-28T17:49:20.027Z</time></trkpt><trkpt lat="44.8197267" lon="9.2127683"><ele>452.0</ele><time>2026-03-28T17:49:21.026Z</time></trkpt><trkpt lat="44.8197133" lon="9.2125717"><ele>455.0</ele><time>2026-03-28T17:49:22.027Z</time></trkpt><trkpt lat="44.8196883" lon="9.2123717"><ele>458.0</ele><time>2026-03-28T17:49:23.027Z</time></trkpt><trkpt lat="44.8196333" lon="9.21215"><ele>460.0</ele><time>2026-03-28T17:49:24.027Z</time></trkpt><trkpt lat="44.8195617" lon="9.2119067"><ele>462.0</ele><time>2026-03-28T17:49:25.026Z</time></trkpt><trkpt lat="44.819495" lon="9.2116483"><ele>464.0</ele><time>2026-03-28T17:49:26.027Z</time></trkpt><trkpt lat="44.8194267" lon="9.2113883"><ele>465.3333333333333</ele><time>2026-03-28T17:49:27.027Z</time></trkpt><trkpt lat="44.8193567" lon="9.2111167"><ele>466.66666666666663</ele><time>2026-03-28T17:49:28.027Z</time></trkpt><trkpt lat="44.819295" lon="9.21087"><ele>468.0</ele><time>2026-03-28T17:49:29.027Z</time></trkpt><trkpt lat="44.8192383" lon="9.21064"><ele>459.66666666666663</ele><time>2026-03-28T17:49:30.027Z</time></trkpt><trkpt lat="44.8191817" lon="9.2104167"><ele>451.3333333333333</ele><time>2026-03-28T17:49:31.027Z</time></trkpt><trkpt lat="44.8191333" lon="9.2102083"><ele>443.0</ele><time>2026-03-28T17:49:32.027Z</time></trkpt><trkpt lat="44.8190867" lon="9.21001"><ele>442.0</ele><time>2026-03-28T17:49:33.027Z</time></trkpt><trkpt lat="44.81905" lon="9.2098183"><ele>441.0</ele><time>2026-03-28T17:49:34.027Z</time></trkpt><trkpt lat="44.8190267" lon="9.209625"><ele>440.0</ele><time>2026-03-28T17:49:35.027Z</time></trkpt><trkpt lat="44.8190283" lon="9.2094367"><ele>439.0</ele><time>2026-03-28T17:49:36.027Z</time></trkpt><trkpt lat="44.8190517" lon="9.209255"><ele>439.0</ele><time>2026-03-28T17:49:37.027Z</time></trkpt><trkpt lat="44.8190933" lon="9.209095"><ele>439.0</ele><time>2026-03-28T17:49:38.026Z</time></trkpt><trkpt lat="44.8191567" lon="9.2089567"><ele>439.0</ele><time>2026-03-28T17:49:39.027Z</time></trkpt><trkpt lat="44.8192383" lon="9.2088167"><ele>439.0</ele><time>2026-03-28T17:49:40.027Z</time></trkpt><trkpt lat="44.8193333" lon="9.208675"><ele>439.25</ele><time>2026-03-28T17:49:41.027Z</time></trkpt><trkpt lat="44.81943" lon="9.2085317"><ele>439.5</ele><time>2026-03-28T17:49:42.026Z</time></trkpt><trkpt lat="44.8195267" lon="9.2083817"><ele>439.75</ele><time>2026-03-28T17:49:43.026Z</time></trkpt><trkpt lat="44.81963" lon="9.2082317"><ele>440.0</ele><time>2026-03-28T17:49:44.027Z</time></trkpt><trkpt lat="44.8197433" lon="9.2081117"><ele>438.75</ele><time>2026-03-28T17:49:45.027Z</time></trkpt><trkpt lat="44.81984" lon="9.2079667"><ele>437.5</ele><time>2026-03-28T17:49:46.027Z</time></trkpt><trkpt lat="44.819935" lon="9.2078217"><ele>436.25</ele><time>2026-03-28T17:49:47.027Z</time></trkpt><trkpt lat="44.8200317" lon="9.2076717"><ele>435.0</ele><time>2026-03-28T17:49:48.027Z</time></trkpt><trkpt lat="44.8201317" lon="9.20753"><ele>434.0</ele><time>2026-03-28T17:49:49.027Z</time></trkpt><trkpt lat="44.8202333" lon="9.207385"><ele>433.0</ele><time>2026-03-28T17:49:50.027Z</time></trkpt><trkpt lat="44.8203383" lon="9.207235"><ele>432.0</ele><time>2026-03-28T17:49:51.027Z</time></trkpt><trkpt lat="44.820445" lon="9.207075"><ele>432.0</ele><time>2026-03-28T17:49:52.027Z</time></trkpt><trkpt lat="44.8205467" lon="9.2069033"><ele>432.0</ele><time>2026-03-28T17:49:53.027Z</time></trkpt><trkpt lat="44.8206517" lon="9.2067333"><ele>432.0</ele><time>2026-03-28T17:49:54.026Z</time></trkpt><trkpt lat="44.8207617" lon="9.2065817"><ele>432.0</ele><time>2026-03-28T17:49:55.027Z</time></trkpt><trkpt lat="44.820865" lon="9.2064317"><ele>432.0</ele><time>2026-03-28T17:49:56.027Z</time></trkpt><trkpt lat="44.8209617" lon="9.206285"><ele>432.0</ele><time>2026-03-28T17:49:57.027Z</time></trkpt><trkpt lat="44.8210567" lon="9.2061483"><ele>432.0</ele><time>2026-03-28T17:49:58.026Z</time></trkpt><trkpt lat="44.82115" lon="9.2060117"><ele>432.0</ele><time>2026-03-28T17:49:59.027Z</time></trkpt><trkpt lat="44.8212417" lon="9.20589"><ele>432.0</ele><time>2026-03-28T17:50:00.026Z</time></trkpt><trkpt lat="44.821335" lon="9.2057683"><ele>432.0</ele><time>2026-03-28T17:50:01.027Z</time></trkpt><trkpt lat="44.8214233" lon="9.2056467"><ele>432.0</ele><time>2026-03-28T17:50:02.027Z</time></trkpt><trkpt lat="44.821505" lon="9.2055217"><ele>431.0</ele><time>2026-03-28T17:50:03.026Z</time></trkpt><trkpt lat="44.82158" lon="9.2053933"><ele>430.0</ele><time>2026-03-28T17:50:04.027Z</time></trkpt><trkpt lat="44.8216483" lon="9.2052567"><ele>429.0</ele><time>2026-03-28T17:50:05.027Z</time></trkpt><trkpt lat="44.8217133" lon="9.205125"><ele>428.0</ele><time>2026-03-28T17:50:06.027Z</time></trkpt><trkpt lat="44.821765" lon="9.20498"><ele>428.75</ele><time>2026-03-28T17:50:07.027Z</time></trkpt><trkpt lat="44.8218183" lon="9.2048417"><ele>429.5</ele><time>2026-03-28T17:50:08.027Z</time></trkpt><trkpt lat="44.8218667" lon="9.2046983"><ele>430.25</ele><time>2026-03-28T17:50:09.027Z</time></trkpt><trkpt lat="44.8219117" lon="9.2045483"><ele>431.0</ele><time>2026-03-28T17:50:10.027Z</time></trkpt><trkpt lat="44.8219567" lon="9.204385"><ele>431.0</ele><time>2026-03-28T17:50:11.027Z</time></trkpt><trkpt lat="44.8220067" lon="9.204225"><ele>431.0</ele><time>2026-03-28T17:50:12.027Z</time></trkpt><trkpt lat="44.8220483" lon="9.204055"><ele>431.0</ele><time>2026-03-28T17:50:13.027Z</time></trkpt><trkpt lat="44.822085" lon="9.203885"><ele>431.0</ele><time>2026-03-28T17:50:14.027Z</time></trkpt><trkpt lat="44.8221233" lon="9.2037267"><ele>429.4</ele><time>2026-03-28T17:50:15.027Z</time></trkpt><trkpt lat="44.8221617" lon="9.203575"><ele>427.8</ele><time>2026-03-28T17:50:16.027Z</time></trkpt><trkpt lat="44.8221983" lon="9.203435"><ele>426.2</ele><time>2026-03-28T17:50:17.027Z</time></trkpt><trkpt lat="44.8222333" lon="9.20329"><ele>424.59999999999997</ele><time>2026-03-28T17:50:18.026Z</time></trkpt><trkpt lat="44.8222667" lon="9.203155"><ele>423.0</ele><time>2026-03-28T17:50:19.027Z</time></trkpt><trkpt lat="44.8223083" lon="9.203015"><ele>423.0</ele><time>2026-03-28T17:50:20.026Z</time></trkpt><trkpt lat="44.8223433" lon="9.2028667"><ele>423.0</ele><time>2026-03-28T17:50:21.027Z</time></trkpt><trkpt lat="44.8223783" lon="9.20273"><ele>423.0</ele><time>2026-03-28T17:50:22.027Z</time></trkpt><trkpt lat="44.8224083" lon="9.2026117"><ele>423.0</ele><time>2026-03-28T17:50:23.027Z</time></trkpt><trkpt lat="44.8224317" lon="9.202505"><ele>423.0</ele><time>2026-03-28T17:50:24.027Z</time></trkpt><trkpt lat="44.8224583" lon="9.2024083"><ele>422.57142857142856</ele><time>2026-03-28T17:50:25.027Z</time></trkpt><trkpt lat="44.8224783" lon="9.2023133"><ele>422.14285714285717</ele><time>2026-03-28T17:50:26.027Z</time></trkpt><trkpt lat="44.8225067" lon="9.2022183"><ele>421.7142857142857</ele><time>2026-03-28T17:50:27.027Z</time></trkpt><trkpt lat="44.8225317" lon="9.20212"><ele>421.2857142857143</ele><time>2026-03-28T17:50:28.027Z</time></trkpt><trkpt lat="44.8225533" lon="9.2020217"><ele>420.8571428571429</ele><time>2026-03-28T17:50:29.027Z</time></trkpt><trkpt lat="44.82258" lon="9.2019267"><ele>420.42857142857144</ele><time>2026-03-28T17:50:30.027Z</time></trkpt><trkpt lat="44.8226067" lon="9.20183"><ele>420.0</ele><time>2026-03-28T17:50:31.026Z</time></trkpt><trkpt lat="44.82263" lon="9.20173"><ele>419.8333333333333</ele><time>2026-03-28T17:50:32.027Z</time></trkpt><trkpt lat="44.82266" lon="9.2016267"><ele>419.66666666666663</ele><time>2026-03-28T17:50:33.027Z</time></trkpt><trkpt lat="44.82269" lon="9.2015167"><ele>419.5</ele><time>2026-03-28T17:50:34.027Z</time></trkpt><trkpt lat="44.82272" lon="9.2014083"><ele>419.3333333333333</ele><time>2026-03-28T17:50:35.027Z</time></trkpt><trkpt lat="44.8227467" lon="9.2013"><ele>419.16666666666663</ele><time>2026-03-28T17:50:36.027Z</time></trkpt><trkpt lat="44.8227767" lon="9.2011983"><ele>419.0</ele><time>2026-03-28T17:50:37.027Z</time></trkpt><trkpt lat="44.822805" lon="9.2010983"><ele>419.0</ele><time>2026-03-28T17:50:38.027Z</time></trkpt><trkpt lat="44.8228333" lon="9.2010083"><ele>419.0</ele><time>2026-03-28T17:50:39.027Z</time></trkpt><trkpt lat="44.822875" lon="9.20085"><ele>419.0</ele><time>2026-03-28T17:50:41.027Z</time></trkpt><trkpt lat="44.8229183" lon="9.2006833"><ele>419.0</ele><time>2026-03-28T17:50:43.027Z</time></trkpt><trkpt lat="44.8229467" lon="9.2005733"><ele>419.0</ele><time>2026-03-28T17:50:44.027Z</time></trkpt><trkpt lat="44.8229833" lon="9.20045"><ele>419.0</ele><time>2026-03-28T17:50:45.027Z</time></trkpt><trkpt lat="44.82302" lon="9.2003117"><ele>419.0</ele><time>2026-03-28T17:50:46.027Z</time></trkpt><trkpt lat="44.823045" lon="9.2001683"><ele>419.0</ele><time>2026-03-28T17:50:47.027Z</time></trkpt><trkpt lat="44.82307" lon="9.2000333"><ele>419.0</ele><time>2026-03-28T17:50:48.027Z</time></trkpt><trkpt lat="44.8231" lon="9.1999083"><ele>419.0</ele><time>2026-03-28T17:50:49.027Z</time></trkpt><trkpt lat="44.82313" lon="9.199785"><ele>419.0</ele><time>2026-03-28T17:50:50.027Z</time></trkpt><trkpt lat="44.82316" lon="9.1996633"><ele>419.0</ele><time>2026-03-28T17:50:51.027Z</time></trkpt><trkpt lat="44.82319" lon="9.1995333"><ele>419.0</ele><time>2026-03-28T17:50:52.027Z</time></trkpt><trkpt lat="44.82322" lon="9.1993933"><ele>419.0</ele><time>2026-03-28T17:50:53.027Z</time></trkpt><trkpt lat="44.8232483" lon="9.199255"><ele>419.0</ele><time>2026-03-28T17:50:54.027Z</time></trkpt><trkpt lat="44.82328" lon="9.1991117"><ele>419.0</ele><time>2026-03-28T17:50:55.027Z</time></trkpt><trkpt lat="44.8232967" lon="9.19896"><ele>419.0</ele><time>2026-03-28T17:50:56.027Z</time></trkpt><trkpt lat="44.8233233" lon="9.1988067"><ele>419.0</ele><time>2026-03-28T17:50:57.027Z</time></trkpt><trkpt lat="44.82335" lon="9.1986583"><ele>419.0</ele><time>2026-03-28T17:50:58.026Z</time></trkpt><trkpt lat="44.8233733" lon="9.1985167"><ele>419.0</ele><time>2026-03-28T17:50:59.026Z</time></trkpt><trkpt lat="44.823395" lon="9.1983783"><ele>419.0</ele><time>2026-03-28T17:51:00.027Z</time></trkpt><trkpt lat="44.823415" lon="9.198235"><ele>419.0</ele><time>2026-03-28T17:51:01.027Z</time></trkpt><trkpt lat="44.8234317" lon="9.198095"><ele>419.0</ele><time>2026-03-28T17:51:02.027Z</time></trkpt><trkpt lat="44.8234517" lon="9.19796"><ele>419.0</ele><time>2026-03-28T17:51:03.027Z</time></trkpt><trkpt lat="44.8234733" lon="9.1978283"><ele>419.0</ele><time>2026-03-28T17:51:04.027Z</time></trkpt><trkpt lat="44.82349" lon="9.1976967"><ele>419.3333333333333</ele><time>2026-03-28T17:51:05.026Z</time></trkpt><trkpt lat="44.8234967" lon="9.1975617"><ele>419.66666666666663</ele><time>2026-03-28T17:51:06.026Z</time></trkpt><trkpt lat="44.8235117" lon="9.197435"><ele>420.0</ele><time>2026-03-28T17:51:07.027Z</time></trkpt><trkpt lat="44.8235217" lon="9.1973133"><ele>420.33333333333337</ele><time>2026-03-28T17:51:08.027Z</time></trkpt><trkpt lat="44.8235283" lon="9.1971983"><ele>420.6666666666667</ele><time>2026-03-28T17:51:09.027Z</time></trkpt><trkpt lat="44.8235283" lon="9.1970783"><ele>421.0</ele><time>2026-03-28T17:51:10.027Z</time></trkpt><trkpt lat="44.8235283" lon="9.196975"><ele>420.1666666666667</ele><time>2026-03-28T17:51:11.027Z</time></trkpt><trkpt lat="44.8235417" lon="9.1968817"><ele>419.33333333333337</ele><time>2026-03-28T17:51:12.027Z</time></trkpt><trkpt lat="44.8235617" lon="9.196755"><ele>418.5</ele><time>2026-03-28T17:51:14.027Z</time></trkpt><trkpt lat="44.8235267" lon="9.1966317"><ele>417.66666666666663</ele><time>2026-03-28T17:51:17.027Z</time></trkpt><trkpt lat="44.8234583" lon="9.19658"><ele>416.8333333333333</ele><time>2026-03-28T17:51:19.027Z</time></trkpt><trkpt lat="44.823395" lon="9.19657"><ele>416.0</ele><time>2026-03-28T17:51:21.027Z</time></trkpt><trkpt lat="44.823335" lon="9.1964967"><ele>415.20000000000005</ele><time>2026-03-28T17:51:25.027Z</time></trkpt><trkpt lat="44.8233583" lon="9.1963783"><ele>414.40000000000003</ele><time>2026-03-28T17:51:27.027Z</time></trkpt><trkpt lat="44.8232817" lon="9.1962433"><ele>413.6</ele><time>2026-03-28T17:51:36.027Z</time></trkpt><trkpt lat="44.8232567" lon="9.19614"><ele>412.8</ele><time>2026-03-28T17:51:39.026Z</time></trkpt><trkpt lat="44.8233567" lon="9.19618"><ele>412.0</ele><time>2026-03-28T17:51:41.027Z</time></trkpt><trkpt lat="44.8234283" lon="9.1962117"><ele>412.0</ele><time>2026-03-28T17:52:30.026Z</time></trkpt></trkseg></trk></gpx>